<?xml version='1.0' encoding='UTF-8'?><gpx version="1.1" creator="JPX - https://github.com/jenetics/jpx" xmlns="http://www.topografix.com/GPX/1/1"><trk><trkseg><trkpt lat="39.600055433774315" lon="15.860306010759684"><ele>7.999999999999999</ele><time>2026-04-27T06:25:37Z</time></trkpt><trkpt lat="39.599981173389956" lon="15.860311936067164"><ele>8.0</ele><time>2026-04-27T06:25:42Z</time></trkpt><trkpt lat="39.59989062733583" lon="15.860337006332083"><ele>8.0</ele><time>2026-04-27T06:25:46.999Z</time></trkpt><trkpt lat="39.5998140861881" lon="15.860364959391923"><ele>8.0</ele><time>2026-04-27T06:25:49.999Z</time></trkpt><trkpt lat="39.59980745659822" lon="15.86048907501571"><ele>7.999999999999999</ele><time>2026-04-27T06:25:52.999Z</time></trkpt><trkpt lat="39.59983512073683" lon="15.86058086422722"><ele>8.0</ele><time>2026-04-27T06:25:54.999Z</time></trkpt><trkpt lat="39.59986504200526" lon="15.86066782866872"><ele>8.0</ele><time>2026-04-27T06:26:10.999Z</time></trkpt><trkpt lat="39.5998676955423" lon="15.86081887428769"><ele>8.0</ele><time>2026-04-27T06:26:12.999Z</time></trkpt><trkpt lat="39.599879179180604" lon="15.860936432334618"><ele>8.0</ele><time>2026-04-27T06:26:14.999Z</time></trkpt><trkpt lat="39.59987613006715" lon="15.861047930816975"><ele>8.0</ele><time>2026-04-27T06:26:17Z</time></trkpt><trkpt lat="39.599867839208045" lon="15.86114498350641"><ele>8.0</ele><time>2026-04-27T06:26:19Z</time></trkpt><trkpt lat="39.59983478004839" lon="15.86126613625584"><ele>8.600000000000001</ele><time>2026-04-27T06:26:22Z</time></trkpt><trkpt lat="39.599833749545134" lon="15.861384967924375"><ele>9.200000000000001</ele><time>2026-04-27T06:26:24Z</time></trkpt><trkpt lat="39.59984593826937" lon="15.861570225097372"><ele>9.8</ele><time>2026-04-27T06:26:26Z</time></trkpt><trkpt lat="39.59985131079762" lon="15.861657594899524"><ele>10.4</ele><time>2026-04-27T06:26:27Z</time></trkpt><trkpt lat="39.599877256375464" lon="15.861763201039018"><ele>11.0</ele><time>2026-04-27T06:26:29Z</time></trkpt><trkpt lat="39.59990364355238" lon="15.861858532158971"><ele>12.333333333333332</ele><time>2026-04-27T06:26:33Z</time></trkpt><trkpt lat="39.599904940678506" lon="15.861970535552466"><ele>13.666666666666666</ele><time>2026-04-27T06:26:35Z</time></trkpt><trkpt lat="39.59991977865516" lon="15.862094142613104"><ele>15.0</ele><time>2026-04-27T06:26:37Z</time></trkpt><trkpt lat="39.59991714748569" lon="15.862185391005106"><ele>16.333333333333332</ele><time>2026-04-27T06:26:39Z</time></trkpt><trkpt lat="39.59994069818415" lon="15.86226392897733"><ele>17.666666666666664</ele><time>2026-04-27T06:26:41Z</time></trkpt><trkpt lat="39.59998654490071" lon="15.862323802989467"><ele>19.0</ele><time>2026-04-27T06:26:44Z</time></trkpt><trkpt lat="39.60004424320589" lon="15.862686586794815"><ele>19.0</ele><time>2026-04-27T06:26:47Z</time></trkpt><trkpt lat="39.59995190918536" lon="15.862105346820462"><ele>19.0</ele><time>2026-04-27T06:26:48Z</time></trkpt><trkpt lat="39.59992868212758" lon="15.861996733840458"><ele>19.0</ele><time>2026-04-27T06:26:49Z</time></trkpt><trkpt lat="39.59990706324082" lon="15.861877939560078"><ele>19.0</ele><time>2026-04-27T06:26:50Z</time></trkpt><trkpt lat="39.599883284734766" lon="15.86177703139597"><ele>19.0</ele><time>2026-04-27T06:26:51Z</time></trkpt><trkpt lat="39.599865221305485" lon="15.861681930738616"><ele>19.0</ele><time>2026-04-27T06:26:52Z</time></trkpt><trkpt lat="39.599850565088055" lon="15.861585031176201"><ele>19.0</ele><time>2026-04-27T06:26:53Z</time></trkpt><trkpt lat="39.599856482897074" lon="15.861490528509595"><ele>17.4</ele><time>2026-04-27T06:26:54Z</time></trkpt><trkpt lat="39.59985793296654" lon="15.861348078445031"><ele>15.799999999999999</ele><time>2026-04-27T06:26:56Z</time></trkpt><trkpt lat="39.59984935406389" lon="15.861263258725446"><ele>14.2</ele><time>2026-04-27T06:26:58Z</time></trkpt><trkpt lat="39.59983587833745" lon="15.861173075015868"><ele>12.600000000000001</ele><time>2026-04-27T06:27:03Z</time></trkpt><trkpt lat="39.59972753815994" lon="15.861190276128706"><ele>11.0</ele><time>2026-04-27T06:27:20Z</time></trkpt><trkpt lat="39.599834604899996" lon="15.861164552800714"><ele>11.0</ele><time>2026-04-27T06:27:24Z</time></trkpt><trkpt lat="39.599717581481215" lon="15.861191070612294"><ele>11.0</ele><time>2026-04-27T06:27:28Z</time></trkpt><trkpt lat="39.599770890605356" lon="15.86124923836618"><ele>11.0</ele><time>2026-04-27T06:27:50.999Z</time></trkpt><trkpt lat="39.59979878624051" lon="15.861131897651859"><ele>11.0</ele><time>2026-04-27T06:27:54.999Z</time></trkpt><trkpt lat="39.59986644417029" lon="15.861130950254312"><ele>11.0</ele><time>2026-04-27T06:27:57.999Z</time></trkpt><trkpt lat="39.59987647138726" lon="15.86103967445826"><ele>11.0</ele><time>2026-04-27T06:27:59.999Z</time></trkpt><trkpt lat="39.59986907634689" lon="15.860902927133946"><ele>10.4</ele><time>2026-04-27T06:28:00.999Z</time></trkpt><trkpt lat="39.59984812963744" lon="15.86073973898175"><ele>9.8</ele><time>2026-04-27T06:28:01.999Z</time></trkpt><trkpt lat="39.59981715379313" lon="15.860591631484965"><ele>9.200000000000001</ele><time>2026-04-27T06:28:02.999Z</time></trkpt><trkpt lat="39.599790920605" lon="15.86049669027537"><ele>8.600000000000001</ele><time>2026-04-27T06:28:03.999Z</time></trkpt><trkpt lat="39.59980123505658" lon="15.860411437412436"><ele>8.0</ele><time>2026-04-27T06:28:06.999Z</time></trkpt><trkpt lat="39.59986389267075" lon="15.860508348492598"><ele>7.999999999999999</ele><time>2026-04-27T06:28:39Z</time></trkpt><trkpt lat="39.59986827336958" lon="15.860614186619273"><ele>8.0</ele><time>2026-04-27T06:28:40Z</time></trkpt><trkpt lat="39.599875381204335" lon="15.860741181999776"><ele>8.0</ele><time>2026-04-27T06:28:41Z</time></trkpt><trkpt lat="39.59987696396199" lon="15.860850102419606"><ele>8.0</ele><time>2026-04-27T06:28:42Z</time></trkpt><trkpt lat="39.59987485467019" lon="15.860936312652155"><ele>7.999999999999999</ele><time>2026-04-27T06:28:43Z</time></trkpt><trkpt lat="39.599874986353" lon="15.86107723379076"><ele>8.0</ele><time>2026-04-27T06:28:45Z</time></trkpt><trkpt lat="39.599850481350856" lon="15.861153847424083"><ele>8.0</ele><time>2026-04-27T06:28:49Z</time></trkpt><trkpt lat="39.59990186083342" lon="15.861105904536274"><ele>8.0</ele><time>2026-04-27T06:29:17Z</time></trkpt><trkpt lat="39.59986384186097" lon="15.860984758144724"><ele>8.0</ele><time>2026-04-27T06:29:18Z</time></trkpt><trkpt lat="39.59983423799749" lon="15.860806759355391"><ele>8.0</ele><time>2026-04-27T06:29:19Z</time></trkpt><trkpt lat="39.59981622103214" lon="15.860633474789806"><ele>8.0</ele><time>2026-04-27T06:29:20Z</time></trkpt><trkpt lat="39.59980063897037" lon="15.860513810200688"><ele>7.999999999999999</ele><time>2026-04-27T06:29:21Z</time></trkpt><trkpt lat="39.599788002752675" lon="15.860391175684578"><ele>8.0</ele><time>2026-04-27T06:29:23Z</time></trkpt><trkpt lat="39.59984442886704" lon="15.860342006335513"><ele>8.0</ele><time>2026-04-27T06:29:26Z</time></trkpt><trkpt lat="39.59986104771568" lon="15.860448494320476"><ele>8.0</ele><time>2026-04-27T06:29:38Z</time></trkpt><trkpt lat="39.59983610550256" lon="15.860548171778893"><ele>7.999999999999999</ele><time>2026-04-27T06:29:39Z</time></trkpt><trkpt lat="39.5998345521232" lon="15.860687875229484"><ele>8.0</ele><time>2026-04-27T06:29:40Z</time></trkpt><trkpt lat="39.59985395285171" lon="15.860864216917834"><ele>8.5</ele><time>2026-04-27T06:29:41Z</time></trkpt><trkpt lat="39.59987099906806" lon="15.86103326302332"><ele>9.0</ele><time>2026-04-27T06:29:42Z</time></trkpt><trkpt lat="39.59986948072052" lon="15.861124817050914"><ele>9.5</ele><time>2026-04-27T06:29:43Z</time></trkpt><trkpt lat="39.59982214684854" lon="15.861187204272959"><ele>10.0</ele><time>2026-04-27T06:29:45Z</time></trkpt><trkpt lat="39.599758858409665" lon="15.861212287691849"><ele>10.5</ele><time>2026-04-27T06:29:47Z</time></trkpt><trkpt lat="39.59967327279232" lon="15.861225018892668"><ele>11.0</ele><time>2026-04-27T06:29:49Z</time></trkpt><trkpt lat="39.59960664884576" lon="15.861211616543132"><ele>11.0</ele><time>2026-04-27T06:29:50Z</time></trkpt><trkpt lat="39.5995415774994" lon="15.861216102382171"><ele>11.0</ele><time>2026-04-27T06:29:51Z</time></trkpt><trkpt lat="39.59941558516232" lon="15.861231904222953"><ele>11.0</ele><time>2026-04-27T06:29:53Z</time></trkpt><trkpt lat="39.599297674111476" lon="15.861241101468007"><ele>11.0</ele><time>2026-04-27T06:29:55Z</time></trkpt><trkpt lat="39.599180396364" lon="15.861266925482125"><ele>11.0</ele><time>2026-04-27T06:29:56.999Z</time></trkpt><trkpt lat="39.59911052130065" lon="15.86128399985759"><ele>10.833333333333332</ele><time>2026-04-27T06:29:57.999Z</time></trkpt><trkpt lat="39.59903242700506" lon="15.861302633211311"><ele>10.666666666666666</ele><time>2026-04-27T06:29:58.999Z</time></trkpt><trkpt lat="39.59895098101175" lon="15.861322259998394"><ele>10.5</ele><time>2026-04-27T06:29:59.999Z</time></trkpt><trkpt lat="39.598868508662754" lon="15.861341900075862"><ele>10.333333333333334</ele><time>2026-04-27T06:30:00.999Z</time></trkpt><trkpt lat="39.598781463582284" lon="15.86135924013983"><ele>10.166666666666668</ele><time>2026-04-27T06:30:01.999Z</time></trkpt><trkpt lat="39.59869000460492" lon="15.86136481887408"><ele>10.0</ele><time>2026-04-27T06:30:02.999Z</time></trkpt><trkpt lat="39.598608273425405" lon="15.861380487359865"><ele>10.0</ele><time>2026-04-27T06:30:03.999Z</time></trkpt><trkpt lat="39.598519818540666" lon="15.861396126660347"><ele>10.0</ele><time>2026-04-27T06:30:04.999Z</time></trkpt><trkpt lat="39.598421535927486" lon="15.861414027870424"><ele>10.0</ele><time>2026-04-27T06:30:05.999Z</time></trkpt><trkpt lat="39.59832068681095" lon="15.861437471629046"><ele>10.0</ele><time>2026-04-27T06:30:06.999Z</time></trkpt><trkpt lat="39.59822979773122" lon="15.861450194053845"><ele>10.0</ele><time>2026-04-27T06:30:07.999Z</time></trkpt><trkpt lat="39.59814116785019" lon="15.861462877785948"><ele>10.0</ele><time>2026-04-27T06:30:08.999Z</time></trkpt><trkpt lat="39.59804794846987" lon="15.861488317331236"><ele>10.0</ele><time>2026-04-27T06:30:09.999Z</time></trkpt><trkpt lat="39.59794878438562" lon="15.86152059698916"><ele>10.0</ele><time>2026-04-27T06:30:10.999Z</time></trkpt><trkpt lat="39.597839226994175" lon="15.861558942380565"><ele>10.0</ele><time>2026-04-27T06:30:11.999Z</time></trkpt><trkpt lat="39.59772275923016" lon="15.861596004681179"><ele>10.0</ele><time>2026-04-27T06:30:12.999Z</time></trkpt><trkpt lat="39.59760344004526" lon="15.861631490296736"><ele>9.75</ele><time>2026-04-27T06:30:13.999Z</time></trkpt><trkpt lat="39.59748507602365" lon="15.861666172982138"><ele>9.5</ele><time>2026-04-27T06:30:14.999Z</time></trkpt><trkpt lat="39.597359207869" lon="15.861702062271062"><ele>9.25</ele><time>2026-04-27T06:30:15.999Z</time></trkpt><trkpt lat="39.59720737682424" lon="15.861754083572478"><ele>9.0</ele><time>2026-04-27T06:30:16.999Z</time></trkpt><trkpt lat="39.59706105746216" lon="15.861809466487362"><ele>9.75</ele><time>2026-04-27T06:30:17.999Z</time></trkpt><trkpt lat="39.59692210477069" lon="15.86186535407523"><ele>10.5</ele><time>2026-04-27T06:30:18.999Z</time></trkpt><trkpt lat="39.596796680551606" lon="15.861918811201754"><ele>11.25</ele><time>2026-04-27T06:30:19.999Z</time></trkpt><trkpt lat="39.5966774090744" lon="15.861969227141795"><ele>12.0</ele><time>2026-04-27T06:30:20.999Z</time></trkpt><trkpt lat="39.596557839262935" lon="15.862022523723608"><ele>12.0</ele><time>2026-04-27T06:30:21.999Z</time></trkpt><trkpt lat="39.59642958663886" lon="15.862081698228467"><ele>12.0</ele><time>2026-04-27T06:30:22.999Z</time></trkpt><trkpt lat="39.596297052589904" lon="15.862142774841603"><ele>12.0</ele><time>2026-04-27T06:30:23.999Z</time></trkpt><trkpt lat="39.596163895897696" lon="15.862203510779063"><ele>12.0</ele><time>2026-04-27T06:30:24.999Z</time></trkpt><trkpt lat="39.59604687535013" lon="15.862257142003626"><ele>11.5</ele><time>2026-04-27T06:30:25.999Z</time></trkpt><trkpt lat="39.59593806369504" lon="15.862305205964692"><ele>11.0</ele><time>2026-04-27T06:30:26.999Z</time></trkpt><trkpt lat="39.5958579898039" lon="15.862339640426995"><ele>10.5</ele><time>2026-04-27T06:30:28Z</time></trkpt><trkpt lat="39.59579813709594" lon="15.862367000382193"><ele>10.0</ele><time>2026-04-27T06:30:29Z</time></trkpt><trkpt lat="39.59574493883867" lon="15.862449802411223"><ele>9.5</ele><time>2026-04-27T06:30:31Z</time></trkpt><trkpt lat="39.595695608063046" lon="15.862374384800916"><ele>9.0</ele><time>2026-04-27T06:30:32Z</time></trkpt><trkpt lat="39.595784801810424" lon="15.862630407899209"><ele>12.0</ele><time>2026-04-27T06:30:33Z</time></trkpt><trkpt lat="39.59583200564615" lon="15.862705612759948"><ele>15.0</ele><time>2026-04-27T06:30:34Z</time></trkpt><trkpt lat="39.595909740125016" lon="15.862785779349313"><ele>18.0</ele><time>2026-04-27T06:30:35Z</time></trkpt><trkpt lat="39.59600652335773" lon="15.862857065511372"><ele>21.0</ele><time>2026-04-27T06:30:36Z</time></trkpt><trkpt lat="39.59613512847832" lon="15.862916453010135"><ele>24.0</ele><time>2026-04-27T06:30:37Z</time></trkpt><trkpt lat="39.59626898044862" lon="15.862950731923045"><ele>24.0</ele><time>2026-04-27T06:30:38Z</time></trkpt><trkpt lat="39.59639579868951" lon="15.862981195920955"><ele>24.0</ele><time>2026-04-27T06:30:39Z</time></trkpt><trkpt lat="39.596504574738375" lon="15.863012068688958"><ele>24.0</ele><time>2026-04-27T06:30:40Z</time></trkpt><trkpt lat="39.59661145907247" lon="15.863040829779061"><ele>24.0</ele><time>2026-04-27T06:30:41Z</time></trkpt><trkpt lat="39.59670820775787" lon="15.863058952431318"><ele>24.0</ele><time>2026-04-27T06:30:42Z</time></trkpt><trkpt lat="39.59680927406369" lon="15.863056081547612"><ele>24.0</ele><time>2026-04-27T06:30:43Z</time></trkpt><trkpt lat="39.596919537440996" lon="15.863078420258345"><ele>24.0</ele><time>2026-04-27T06:30:44Z</time></trkpt><trkpt lat="39.597020834178885" lon="15.86307669016916"><ele>24.0</ele><time>2026-04-27T06:30:45Z</time></trkpt><trkpt lat="39.59711214055104" lon="15.863059114239448"><ele>24.0</ele><time>2026-04-27T06:30:46Z</time></trkpt><trkpt lat="39.59722159907713" lon="15.863069282864963"><ele>24.0</ele><time>2026-04-27T06:30:47Z</time></trkpt><trkpt lat="39.59731440108367" lon="15.863078980962916"><ele>24.6</ele><time>2026-04-27T06:30:48Z</time></trkpt><trkpt lat="39.59738470151354" lon="15.863102947995156"><ele>25.2</ele><time>2026-04-27T06:30:49Z</time></trkpt><trkpt lat="39.597486635668865" lon="15.863125143916715"><ele>25.800000000000004</ele><time>2026-04-27T06:30:51Z</time></trkpt><trkpt lat="39.597543226441445" lon="15.863184419930057"><ele>26.400000000000002</ele><time>2026-04-27T06:30:54Z</time></trkpt><trkpt lat="39.59752962711114" lon="15.863302628134347"><ele>27.0</ele><time>2026-04-27T06:30:57Z</time></trkpt><trkpt lat="39.59739875129562" lon="15.863291235865137"><ele>27.0</ele><time>2026-04-27T06:30:58Z</time></trkpt><trkpt lat="39.59730390949812" lon="15.863307556279475"><ele>27.0</ele><time>2026-04-27T06:30:59Z</time></trkpt><trkpt lat="39.59717538781261" lon="15.863322800546879"><ele>27.0</ele><time>2026-04-27T06:31:00Z</time></trkpt><trkpt lat="39.597033942455205" lon="15.863352214294295"><ele>27.0</ele><time>2026-04-27T06:31:01Z</time></trkpt><trkpt lat="39.59688788818364" lon="15.86337735594001"><ele>26.0</ele><time>2026-04-27T06:31:02Z</time></trkpt><trkpt lat="39.596743617012265" lon="15.86339839552805"><ele>25.0</ele><time>2026-04-27T06:31:03Z</time></trkpt><trkpt lat="39.59658883012239" lon="15.863424283495101"><ele>24.0</ele><time>2026-04-27T06:31:04Z</time></trkpt><trkpt lat="39.59642097403403" lon="15.863465023717671"><ele>30.666666666666664</ele><time>2026-04-27T06:31:05Z</time></trkpt><trkpt lat="39.59623992192997" lon="15.863535108273833"><ele>37.33333333333333</ele><time>2026-04-27T06:31:06Z</time></trkpt><trkpt lat="39.59605362248921" lon="15.863632074408454"><ele>44.0</ele><time>2026-04-27T06:31:07Z</time></trkpt><trkpt lat="39.59588392532893" lon="15.863739484554424"><ele>45.0</ele><time>2026-04-27T06:31:08Z</time></trkpt><trkpt lat="39.5957315980792" lon="15.863851112588637"><ele>46.0</ele><time>2026-04-27T06:31:09Z</time></trkpt><trkpt lat="39.59558273919472" lon="15.863970943549383"><ele>47.0</ele><time>2026-04-27T06:31:10Z</time></trkpt><trkpt lat="39.59543132997118" lon="15.864099542053507"><ele>46.666666666666664</ele><time>2026-04-27T06:31:11Z</time></trkpt><trkpt lat="39.59527576703947" lon="15.864231683579426"><ele>46.333333333333336</ele><time>2026-04-27T06:31:12Z</time></trkpt><trkpt lat="39.59511635330799" lon="15.864369973549444"><ele>46.0</ele><time>2026-04-27T06:31:13Z</time></trkpt><trkpt lat="39.594956995492296" lon="15.864509795070228"><ele>46.0</ele><time>2026-04-27T06:31:14Z</time></trkpt><trkpt lat="39.59480463568886" lon="15.864642161913855"><ele>46.0</ele><time>2026-04-27T06:31:15Z</time></trkpt><trkpt lat="39.594657564380135" lon="15.864785392619696"><ele>46.0</ele><time>2026-04-27T06:31:16Z</time></trkpt><trkpt lat="39.594514925659794" lon="15.864960744934477"><ele>44.0</ele><time>2026-04-27T06:31:17Z</time></trkpt><trkpt lat="39.59437183699845" lon="15.865161357256017"><ele>42.0</ele><time>2026-04-27T06:31:18Z</time></trkpt><trkpt lat="39.59423445013544" lon="15.865370438743119"><ele>40.0</ele><time>2026-04-27T06:31:19Z</time></trkpt><trkpt lat="39.59411090214035" lon="15.86557858373043"><ele>40.0</ele><time>2026-04-27T06:31:20Z</time></trkpt><trkpt lat="39.59399361924632" lon="15.865779315482355"><ele>40.0</ele><time>2026-04-27T06:31:21Z</time></trkpt><trkpt lat="39.5938876559549" lon="15.865953485194712"><ele>40.0</ele><time>2026-04-27T06:31:22Z</time></trkpt><trkpt lat="39.5937887160576" lon="15.866117243022451"><ele>37.66666666666667</ele><time>2026-04-27T06:31:23Z</time></trkpt><trkpt lat="39.59368663213579" lon="15.866277895240456"><ele>35.333333333333336</ele><time>2026-04-27T06:31:24Z</time></trkpt><trkpt lat="39.593585860353194" lon="15.866439185079624"><ele>33.0</ele><time>2026-04-27T06:31:25Z</time></trkpt><trkpt lat="39.593492979541764" lon="15.866586652682562"><ele>33.0</ele><time>2026-04-27T06:31:26Z</time></trkpt><trkpt lat="39.59340027036314" lon="15.866727596979306"><ele>33.0</ele><time>2026-04-27T06:31:27Z</time></trkpt><trkpt lat="39.59331319943779" lon="15.866857367681273"><ele>33.0</ele><time>2026-04-27T06:31:28Z</time></trkpt><trkpt lat="39.59323216632391" lon="15.86697820965356"><ele>33.0</ele><time>2026-04-27T06:31:29Z</time></trkpt><trkpt lat="39.593145632303646" lon="15.867092426006211"><ele>34.75</ele><time>2026-04-27T06:31:30Z</time></trkpt><trkpt lat="39.593042083727156" lon="15.86720220266917"><ele>36.5</ele><time>2026-04-27T06:31:31Z</time></trkpt><trkpt lat="39.59292989200436" lon="15.867314365592469"><ele>38.25</ele><time>2026-04-27T06:31:32Z</time></trkpt><trkpt lat="39.59280836416721" lon="15.86742856860652"><ele>40.0</ele><time>2026-04-27T06:31:33Z</time></trkpt><trkpt lat="39.59267601931299" lon="15.86754246094996"><ele>44.0</ele><time>2026-04-27T06:31:34Z</time></trkpt><trkpt lat="39.592534042873275" lon="15.867650887305745"><ele>48.0</ele><time>2026-04-27T06:31:35Z</time></trkpt><trkpt lat="39.59238817109992" lon="15.867742643083583"><ele>52.0</ele><time>2026-04-27T06:31:36Z</time></trkpt><trkpt lat="39.59224484329172" lon="15.867819591316575"><ele>52.0</ele><time>2026-04-27T06:31:37Z</time></trkpt><trkpt lat="39.59209864111057" lon="15.867885116105755"><ele>52.0</ele><time>2026-04-27T06:31:38Z</time></trkpt><trkpt lat="39.59194993826553" lon="15.867939601132978"><ele>52.0</ele><time>2026-04-27T06:31:39Z</time></trkpt><trkpt lat="39.591790195496664" lon="15.867995430973995"><ele>49.0</ele><time>2026-04-27T06:31:40Z</time></trkpt><trkpt lat="39.591610591495446" lon="15.868055917939131"><ele>46.0</ele><time>2026-04-27T06:31:41Z</time></trkpt><trkpt lat="39.59141840076119" lon="15.868117555032777"><ele>43.0</ele><time>2026-04-27T06:31:42Z</time></trkpt><trkpt lat="39.591227040575504" lon="15.86817813891771"><ele>42.333333333333336</ele><time>2026-04-27T06:31:43Z</time></trkpt><trkpt lat="39.591027077911484" lon="15.86823558869917"><ele>41.666666666666664</ele><time>2026-04-27T06:31:44Z</time></trkpt><trkpt lat="39.590822114029486" lon="15.868290828626275"><ele>41.0</ele><time>2026-04-27T06:31:45Z</time></trkpt><trkpt lat="39.59062299636662" lon="15.868345777459513"><ele>41.0</ele><time>2026-04-27T06:31:46Z</time></trkpt><trkpt lat="39.59042520351385" lon="15.868404756493444"><ele>41.0</ele><time>2026-04-27T06:31:47Z</time></trkpt><trkpt lat="39.590232357224686" lon="15.868474298793723"><ele>41.0</ele><time>2026-04-27T06:31:48Z</time></trkpt><trkpt lat="39.59004797140632" lon="15.86855705441762"><ele>43.0</ele><time>2026-04-27T06:31:49Z</time></trkpt><trkpt lat="39.58986585070655" lon="15.868649130977461"><ele>45.0</ele><time>2026-04-27T06:31:50Z</time></trkpt><trkpt lat="39.589686243388805" lon="15.868752666836473"><ele>47.0</ele><time>2026-04-27T06:31:51Z</time></trkpt><trkpt lat="39.58951409216368" lon="15.868859027921225"><ele>44.33333333333333</ele><time>2026-04-27T06:31:52Z</time></trkpt><trkpt lat="39.58934349050389" lon="15.868966632429126"><ele>41.666666666666664</ele><time>2026-04-27T06:31:53Z</time></trkpt><trkpt lat="39.589182521946746" lon="15.869067335501239"><ele>39.0</ele><time>2026-04-27T06:31:54Z</time></trkpt><trkpt lat="39.58902200822403" lon="15.86916885107519"><ele>38.333333333333336</ele><time>2026-04-27T06:31:55Z</time></trkpt><trkpt lat="39.588856116642" lon="15.86927856510833"><ele>37.66666666666667</ele><time>2026-04-27T06:31:56Z</time></trkpt><trkpt lat="39.58868461720326" lon="15.869386164409217"><ele>37.0</ele><time>2026-04-27T06:31:57Z</time></trkpt><trkpt lat="39.58851098944857" lon="15.869488202907704"><ele>37.0</ele><time>2026-04-27T06:31:58Z</time></trkpt><trkpt lat="39.588339989480374" lon="15.869593887220553"><ele>37.0</ele><time>2026-04-27T06:31:59Z</time></trkpt><trkpt lat="39.588173664862275" lon="15.869697332414727"><ele>37.0</ele><time>2026-04-27T06:32:00Z</time></trkpt><trkpt lat="39.5880146754235" lon="15.869794804767283"><ele>37.0</ele><time>2026-04-27T06:32:00.999Z</time></trkpt><trkpt lat="39.58786199617956" lon="15.86988972549552"><ele>37.0</ele><time>2026-04-27T06:32:01.999Z</time></trkpt><trkpt lat="39.58771590865057" lon="15.8699809144827"><ele>37.0</ele><time>2026-04-27T06:32:02.999Z</time></trkpt><trkpt lat="39.587566473317715" lon="15.870066630540029"><ele>34.333333333333336</ele><time>2026-04-27T06:32:03.999Z</time></trkpt><trkpt lat="39.587414144527365" lon="15.870136947051257"><ele>31.666666666666664</ele><time>2026-04-27T06:32:04.999Z</time></trkpt><trkpt lat="39.58726251051622" lon="15.87019407596868"><ele>29.0</ele><time>2026-04-27T06:32:05.999Z</time></trkpt><trkpt lat="39.58711669533911" lon="15.87024989858745"><ele>28.75</ele><time>2026-04-27T06:32:06.999Z</time></trkpt><trkpt lat="39.58697324803606" lon="15.870299784348465"><ele>28.5</ele><time>2026-04-27T06:32:07.999Z</time></trkpt><trkpt lat="39.58683397004667" lon="15.870340273102924"><ele>28.25</ele><time>2026-04-27T06:32:08.999Z</time></trkpt><trkpt lat="39.58668772828899" lon="15.870379173268232"><ele>28.0</ele><time>2026-04-27T06:32:09.999Z</time></trkpt><trkpt lat="39.58653339522965" lon="15.870411678075042"><ele>28.0</ele><time>2026-04-27T06:32:10.999Z</time></trkpt><trkpt lat="39.58638098703401" lon="15.870432554955718"><ele>28.0</ele><time>2026-04-27T06:32:11.999Z</time></trkpt><trkpt lat="39.58622449573907" lon="15.870445952233645"><ele>28.0</ele><time>2026-04-27T06:32:12.999Z</time></trkpt><trkpt lat="39.58606858106187" lon="15.87045531578691"><ele>28.75</ele><time>2026-04-27T06:32:13.999Z</time></trkpt><trkpt lat="39.5859269214047" lon="15.870458036134501"><ele>29.5</ele><time>2026-04-27T06:32:14.999Z</time></trkpt><trkpt lat="39.58579502702491" lon="15.870454713348535"><ele>30.25</ele><time>2026-04-27T06:32:15.999Z</time></trkpt><trkpt lat="39.58566815258908" lon="15.870443614156724"><ele>31.0</ele><time>2026-04-27T06:32:16.999Z</time></trkpt><trkpt lat="39.58555659476381" lon="15.870426390727063"><ele>31.0</ele><time>2026-04-27T06:32:17.999Z</time></trkpt><trkpt lat="39.585448256975695" lon="15.870409273767093"><ele>31.0</ele><time>2026-04-27T06:32:18.999Z</time></trkpt><trkpt lat="39.58533733775174" lon="15.870391187332125"><ele>31.0</ele><time>2026-04-27T06:32:19.999Z</time></trkpt><trkpt lat="39.585217928014174" lon="15.870371757818166"><ele>31.0</ele><time>2026-04-27T06:32:20.999Z</time></trkpt><trkpt lat="39.585086457626886" lon="15.870344192313636"><ele>38.66666666666667</ele><time>2026-04-27T06:32:21.999Z</time></trkpt><trkpt lat="39.584944278237266" lon="15.870306691961177"><ele>46.333333333333336</ele><time>2026-04-27T06:32:22.999Z</time></trkpt><trkpt lat="39.58478404731298" lon="15.870261285882517"><ele>54.0</ele><time>2026-04-27T06:32:23.999Z</time></trkpt><trkpt lat="39.58461159751117" lon="15.870214979036986"><ele>59.0</ele><time>2026-04-27T06:32:24.999Z</time></trkpt><trkpt lat="39.584429313059786" lon="15.870161682438898"><ele>64.0</ele><time>2026-04-27T06:32:25.999Z</time></trkpt><trkpt lat="39.58424252163412" lon="15.870107697197334"><ele>69.0</ele><time>2026-04-27T06:32:26.999Z</time></trkpt><trkpt lat="39.58404626020724" lon="15.870049524392972"><ele>59.666666666666664</ele><time>2026-04-27T06:32:27.999Z</time></trkpt><trkpt lat="39.583850182834496" lon="15.869990449516473"><ele>50.33333333333333</ele><time>2026-04-27T06:32:28.999Z</time></trkpt><trkpt lat="39.583662432021654" lon="15.869938681413633"><ele>41.0</ele><time>2026-04-27T06:32:29.999Z</time></trkpt><trkpt lat="39.58347042509692" lon="15.869887851309569"><ele>41.0</ele><time>2026-04-27T06:32:30.999Z</time></trkpt><trkpt lat="39.5832820758387" lon="15.86983672029346"><ele>41.0</ele><time>2026-04-27T06:32:31.999Z</time></trkpt><trkpt lat="39.583100168430065" lon="15.869789718048565"><ele>41.0</ele><time>2026-04-27T06:32:32.999Z</time></trkpt><trkpt lat="39.58291412477766" lon="15.869756699090239"><ele>40.33333333333333</ele><time>2026-04-27T06:32:34Z</time></trkpt><trkpt lat="39.58273860734" lon="15.869730788961995"><ele>39.666666666666664</ele><time>2026-04-27T06:32:35Z</time></trkpt><trkpt lat="39.58256484653527" lon="15.869707328953865"><ele>39.0</ele><time>2026-04-27T06:32:36Z</time></trkpt><trkpt lat="39.58238961446729" lon="15.869689705467788"><ele>39.0</ele><time>2026-04-27T06:32:37Z</time></trkpt><trkpt lat="39.58221288838868" lon="15.869677681164813"><ele>39.0</ele><time>2026-04-27T06:32:38Z</time></trkpt><trkpt lat="39.58203268467879" lon="15.869665586247613"><ele>39.0</ele><time>2026-04-27T06:32:39Z</time></trkpt><trkpt lat="39.58185982164319" lon="15.869667164778969"><ele>38.666666666666664</ele><time>2026-04-27T06:32:40Z</time></trkpt><trkpt lat="39.58170056587251" lon="15.869648660127222"><ele>38.33333333333333</ele><time>2026-04-27T06:32:41Z</time></trkpt><trkpt lat="39.581533073082625" lon="15.869646447979676"><ele>38.0</ele><time>2026-04-27T06:32:42Z</time></trkpt><trkpt lat="39.58136784157685" lon="15.869637937801027"><ele>38.0</ele><time>2026-04-27T06:32:43Z</time></trkpt><trkpt lat="39.58120680581623" lon="15.869620454097289"><ele>38.0</ele><time>2026-04-27T06:32:44Z</time></trkpt><trkpt lat="39.58104454803768" lon="15.869607118152594"><ele>38.0</ele><time>2026-04-27T06:32:45Z</time></trkpt><trkpt lat="39.58087532155549" lon="15.869594539213425"><ele>38.33333333333333</ele><time>2026-04-27T06:32:46Z</time></trkpt><trkpt lat="39.58069953641845" lon="15.86958802234196"><ele>38.666666666666664</ele><time>2026-04-27T06:32:47Z</time></trkpt><trkpt lat="39.580509756983" lon="15.869587690292326"><ele>39.0</ele><time>2026-04-27T06:32:48Z</time></trkpt><trkpt lat="39.580307793483136" lon="15.869583502218704"><ele>39.333333333333336</ele><time>2026-04-27T06:32:49Z</time></trkpt><trkpt lat="39.58010037003652" lon="15.869574218790973"><ele>39.66666666666667</ele><time>2026-04-27T06:32:50Z</time></trkpt><trkpt lat="39.57988335862316" lon="15.86955950911198"><ele>40.0</ele><time>2026-04-27T06:32:51Z</time></trkpt><trkpt lat="39.57967489625009" lon="15.86954022613729"><ele>40.66666666666667</ele><time>2026-04-27T06:32:52Z</time></trkpt><trkpt lat="39.57947859419216" lon="15.869525658749362"><ele>41.333333333333336</ele><time>2026-04-27T06:32:53Z</time></trkpt><trkpt lat="39.57928372092812" lon="15.869517491642313"><ele>42.0</ele><time>2026-04-27T06:32:54Z</time></trkpt><trkpt lat="39.579095701519726" lon="15.869514555274344"><ele>42.0</ele><time>2026-04-27T06:32:55Z</time></trkpt><trkpt lat="39.57891168003799" lon="15.869520198574318"><ele>42.0</ele><time>2026-04-27T06:32:56Z</time></trkpt><trkpt lat="39.578729708275155" lon="15.869532700666568"><ele>42.0</ele><time>2026-04-27T06:32:57Z</time></trkpt><trkpt lat="39.57855136707854" lon="15.869554550738561"><ele>40.333333333333336</ele><time>2026-04-27T06:32:58Z</time></trkpt><trkpt lat="39.57837599856036" lon="15.869590600982372"><ele>38.66666666666667</ele><time>2026-04-27T06:32:59Z</time></trkpt><trkpt lat="39.57820482202957" lon="15.869635318228424"><ele>37.0</ele><time>2026-04-27T06:33:00Z</time></trkpt><trkpt lat="39.578035364864334" lon="15.869689396404436"><ele>37.0</ele><time>2026-04-27T06:33:01Z</time></trkpt><trkpt lat="39.577857738743106" lon="15.869752019951404"><ele>37.0</ele><time>2026-04-27T06:33:02Z</time></trkpt><trkpt lat="39.57768394427299" lon="15.869823558505843"><ele>37.0</ele><time>2026-04-27T06:33:03Z</time></trkpt><trkpt lat="39.57751797247977" lon="15.869892871962616"><ele>33.66666666666667</ele><time>2026-04-27T06:33:04Z</time></trkpt><trkpt lat="39.5773548044671" lon="15.869966230456543"><ele>30.333333333333336</ele><time>2026-04-27T06:33:05Z</time></trkpt><trkpt lat="39.57719570935683" lon="15.870042263707322"><ele>27.0</ele><time>2026-04-27T06:33:06Z</time></trkpt><trkpt lat="39.577041925121776" lon="15.870119421517254"><ele>29.333333333333336</ele><time>2026-04-27T06:33:07Z</time></trkpt><trkpt lat="39.57689364991132" lon="15.870192924212294"><ele>31.666666666666668</ele><time>2026-04-27T06:33:08Z</time></trkpt><trkpt lat="39.57674838672537" lon="15.870263830120452"><ele>34.0</ele><time>2026-04-27T06:33:09Z</time></trkpt><trkpt lat="39.57660151753346" lon="15.870336500784617"><ele>34.0</ele><time>2026-04-27T06:33:10Z</time></trkpt><trkpt lat="39.5764484006652" lon="15.870410422060917"><ele>34.0</ele><time>2026-04-27T06:33:11Z</time></trkpt><trkpt lat="39.57628710665729" lon="15.870486377185319"><ele>34.0</ele><time>2026-04-27T06:33:12Z</time></trkpt><trkpt lat="39.576123702034124" lon="15.870561414146142"><ele>32.333333333333336</ele><time>2026-04-27T06:33:13Z</time></trkpt><trkpt lat="39.5759561130809" lon="15.870638475358934"><ele>30.666666666666664</ele><time>2026-04-27T06:33:14Z</time></trkpt><trkpt lat="39.57578608986692" lon="15.870715788689566"><ele>29.0</ele><time>2026-04-27T06:33:15Z</time></trkpt><trkpt lat="39.57561454879942" lon="15.870788380782075"><ele>29.0</ele><time>2026-04-27T06:33:16Z</time></trkpt><trkpt lat="39.575448064845396" lon="15.87085174901146"><ele>29.0</ele><time>2026-04-27T06:33:17Z</time></trkpt><trkpt lat="39.575284353052766" lon="15.870906297735658"><ele>29.0</ele><time>2026-04-27T06:33:18Z</time></trkpt><trkpt lat="39.5751220254013" lon="15.870961503956515"><ele>29.0</ele><time>2026-04-27T06:33:19Z</time></trkpt><trkpt lat="39.574962225228326" lon="15.871015874249274"><ele>29.0</ele><time>2026-04-27T06:33:20Z</time></trkpt><trkpt lat="39.57480046061944" lon="15.871069112932673"><ele>29.0</ele><time>2026-04-27T06:33:21Z</time></trkpt><trkpt lat="39.57463812465425" lon="15.871124094989062"><ele>28.0</ele><time>2026-04-27T06:33:22Z</time></trkpt><trkpt lat="39.57447662791868" lon="15.871177211638535"><ele>27.0</ele><time>2026-04-27T06:33:23Z</time></trkpt><trkpt lat="39.574309774225625" lon="15.871233213993452"><ele>26.0</ele><time>2026-04-27T06:33:24Z</time></trkpt><trkpt lat="39.574138635372236" lon="15.871288465528863"><ele>26.0</ele><time>2026-04-27T06:33:25Z</time></trkpt><trkpt lat="39.5739658901634" lon="15.87134512360913"><ele>26.0</ele><time>2026-04-27T06:33:26Z</time></trkpt><trkpt lat="39.573794532068916" lon="15.871403398972806"><ele>26.0</ele><time>2026-04-27T06:33:27Z</time></trkpt><trkpt lat="39.57362680536112" lon="15.8714563053195"><ele>26.333333333333332</ele><time>2026-04-27T06:33:28Z</time></trkpt><trkpt lat="39.57346652501021" lon="15.871506292896886"><ele>26.666666666666664</ele><time>2026-04-27T06:33:29Z</time></trkpt><trkpt lat="39.573309269186815" lon="15.87155963056944"><ele>27.0</ele><time>2026-04-27T06:33:30Z</time></trkpt><trkpt lat="39.573152183373274" lon="15.871611715015776"><ele>27.0</ele><time>2026-04-27T06:33:31Z</time></trkpt><trkpt lat="39.57299676657058" lon="15.871665771553456"><ele>27.0</ele><time>2026-04-27T06:33:32Z</time></trkpt><trkpt lat="39.57284202268308" lon="15.871718628430381"><ele>27.0</ele><time>2026-04-27T06:33:33Z</time></trkpt><trkpt lat="39.572689172194984" lon="15.871773193192537"><ele>27.0</ele><time>2026-04-27T06:33:34Z</time></trkpt><trkpt lat="39.572538700133116" lon="15.871825668930976"><ele>27.0</ele><time>2026-04-27T06:33:35Z</time></trkpt><trkpt lat="39.572390395472965" lon="15.871876586852238"><ele>27.0</ele><time>2026-04-27T06:33:36Z</time></trkpt><trkpt lat="39.57224246392732" lon="15.871925963744625"><ele>27.0</ele><time>2026-04-27T06:33:37Z</time></trkpt><trkpt lat="39.57209627467582" lon="15.871976438643904"><ele>27.0</ele><time>2026-04-27T06:33:38Z</time></trkpt><trkpt lat="39.57194722040936" lon="15.872029198452951"><ele>27.0</ele><time>2026-04-27T06:33:39Z</time></trkpt><trkpt lat="39.57179374734728" lon="15.872086931293143"><ele>27.666666666666664</ele><time>2026-04-27T06:33:40Z</time></trkpt><trkpt lat="39.57163410416766" lon="15.872145756561975"><ele>28.333333333333332</ele><time>2026-04-27T06:33:41Z</time></trkpt><trkpt lat="39.57147081605902" lon="15.8722027983725"><ele>29.0</ele><time>2026-04-27T06:33:42Z</time></trkpt><trkpt lat="39.57130460845798" lon="15.872254568407824"><ele>28.0</ele><time>2026-04-27T06:33:43Z</time></trkpt><trkpt lat="39.57113887349259" lon="15.87230745737317"><ele>27.0</ele><time>2026-04-27T06:33:44Z</time></trkpt><trkpt lat="39.57097284799758" lon="15.872359989352894"><ele>26.0</ele><time>2026-04-27T06:33:45Z</time></trkpt><trkpt lat="39.570806270104164" lon="15.872414304056164"><ele>26.0</ele><time>2026-04-27T06:33:46Z</time></trkpt><trkpt lat="39.57064045882539" lon="15.872469184052301"><ele>26.0</ele><time>2026-04-27T06:33:47Z</time></trkpt><trkpt lat="39.57047403709949" lon="15.872527547811776"><ele>26.0</ele><time>2026-04-27T06:33:48Z</time></trkpt><trkpt lat="39.57030726973515" lon="15.872587384222513"><ele>28.0</ele><time>2026-04-27T06:33:49Z</time></trkpt><trkpt lat="39.57014612733029" lon="15.8726437739435"><ele>30.0</ele><time>2026-04-27T06:33:50Z</time></trkpt><trkpt lat="39.56999427830773" lon="15.872697717982206"><ele>32.0</ele><time>2026-04-27T06:33:51Z</time></trkpt><trkpt lat="39.56984216074746" lon="15.87274867076326"><ele>32.0</ele><time>2026-04-27T06:33:52Z</time></trkpt><trkpt lat="39.569686080595105" lon="15.872802929716297"><ele>32.0</ele><time>2026-04-27T06:33:53Z</time></trkpt><trkpt lat="39.56952610049061" lon="15.87285993559712"><ele>32.0</ele><time>2026-04-27T06:33:54Z</time></trkpt><trkpt lat="39.56936286285494" lon="15.8729157950674"><ele>31.333333333333332</ele><time>2026-04-27T06:33:55Z</time></trkpt><trkpt lat="39.569203784434265" lon="15.872969324287237"><ele>30.666666666666664</ele><time>2026-04-27T06:33:56Z</time></trkpt><trkpt lat="39.56905289208576" lon="15.873017635102626"><ele>30.0</ele><time>2026-04-27T06:33:57Z</time></trkpt><trkpt lat="39.56890384327387" lon="15.873065187383029"><ele>30.0</ele><time>2026-04-27T06:33:58Z</time></trkpt><trkpt lat="39.56875504975698" lon="15.873114799480751"><ele>30.0</ele><time>2026-04-27T06:33:59Z</time></trkpt><trkpt lat="39.5686042302955" lon="15.873169711827032"><ele>30.0</ele><time>2026-04-27T06:34:00Z</time></trkpt><trkpt lat="39.56845055610463" lon="15.873229166909969"><ele>29.666666666666664</ele><time>2026-04-27T06:34:01Z</time></trkpt><trkpt lat="39.568296776351374" lon="15.873291912558066"><ele>29.333333333333332</ele><time>2026-04-27T06:34:02Z</time></trkpt><trkpt lat="39.56814409227887" lon="15.87336059213901"><ele>29.0</ele><time>2026-04-27T06:34:02.999Z</time></trkpt><trkpt lat="39.5679914628177" lon="15.873441840361547"><ele>27.333333333333332</ele><time>2026-04-27T06:34:03.999Z</time></trkpt><trkpt lat="39.56784484592864" lon="15.873543361196958"><ele>25.666666666666664</ele><time>2026-04-27T06:34:04.999Z</time></trkpt><trkpt lat="39.567703257552694" lon="15.873657990732415"><ele>24.0</ele><time>2026-04-27T06:34:05.999Z</time></trkpt><trkpt lat="39.56756673470061" lon="15.873782976683028"><ele>24.0</ele><time>2026-04-27T06:34:06.999Z</time></trkpt><trkpt lat="39.56742945461641" lon="15.873907901392974"><ele>24.0</ele><time>2026-04-27T06:34:07.999Z</time></trkpt><trkpt lat="39.567293532597986" lon="15.874031009729775"><ele>24.0</ele><time>2026-04-27T06:34:08.999Z</time></trkpt><trkpt lat="39.56715929445936" lon="15.874149066209595"><ele>25.0</ele><time>2026-04-27T06:34:09.999Z</time></trkpt><trkpt lat="39.567024773116216" lon="15.874267870197516"><ele>26.0</ele><time>2026-04-27T06:34:10.999Z</time></trkpt><trkpt lat="39.566887775549645" lon="15.87438280262772"><ele>27.0</ele><time>2026-04-27T06:34:11.999Z</time></trkpt><trkpt lat="39.566746737730384" lon="15.874495495257692"><ele>32.0</ele><time>2026-04-27T06:34:12.999Z</time></trkpt><trkpt lat="39.56659854059752" lon="15.874598452676798"><ele>37.0</ele><time>2026-04-27T06:34:13.999Z</time></trkpt><trkpt lat="39.566444747399366" lon="15.87468821013052"><ele>42.0</ele><time>2026-04-27T06:34:14.999Z</time></trkpt><trkpt lat="39.56627989170764" lon="15.874761296457086"><ele>41.0</ele><time>2026-04-27T06:34:15.999Z</time></trkpt><trkpt lat="39.5661080050924" lon="15.874823829234183"><ele>40.0</ele><time>2026-04-27T06:34:16.999Z</time></trkpt><trkpt lat="39.5659308324935" lon="15.87488088398531"><ele>39.0</ele><time>2026-04-27T06:34:17.999Z</time></trkpt><trkpt lat="39.56574178032384" lon="15.874939139147608"><ele>39.0</ele><time>2026-04-27T06:34:18.999Z</time></trkpt><trkpt lat="39.56553907572757" lon="15.87499938224031"><ele>39.0</ele><time>2026-04-27T06:34:19.999Z</time></trkpt><trkpt lat="39.565335261787304" lon="15.875059161149736"><ele>39.0</ele><time>2026-04-27T06:34:20.999Z</time></trkpt><trkpt lat="39.56514587845087" lon="15.875108752416349"><ele>43.33333333333333</ele><time>2026-04-27T06:34:21.999Z</time></trkpt><trkpt lat="39.56496158613536" lon="15.875151682087541"><ele>47.666666666666664</ele><time>2026-04-27T06:34:22.999Z</time></trkpt><trkpt lat="39.56478220586078" lon="15.875198768808922"><ele>52.0</ele><time>2026-04-27T06:34:23.999Z</time></trkpt><trkpt lat="39.56460514093028" lon="15.875245624417703"><ele>50.666666666666664</ele><time>2026-04-27T06:34:24.999Z</time></trkpt><trkpt lat="39.5644312030884" lon="15.875294595865377"><ele>49.33333333333333</ele><time>2026-04-27T06:34:25.999Z</time></trkpt><trkpt lat="39.56426028465044" lon="15.875341558292975"><ele>48.0</ele><time>2026-04-27T06:34:26.999Z</time></trkpt><trkpt lat="39.56409661582153" lon="15.875383118889944"><ele>48.0</ele><time>2026-04-27T06:34:27.999Z</time></trkpt><trkpt lat="39.56393705081063" lon="15.87542272213475"><ele>48.0</ele><time>2026-04-27T06:34:28.999Z</time></trkpt><trkpt lat="39.56378113990051" lon="15.875468892025793"><ele>48.0</ele><time>2026-04-27T06:34:29.999Z</time></trkpt><trkpt lat="39.56362500547074" lon="15.875515673045022"><ele>46.666666666666664</ele><time>2026-04-27T06:34:30.999Z</time></trkpt><trkpt lat="39.56346531898721" lon="15.87556534475328"><ele>45.33333333333333</ele><time>2026-04-27T06:34:31.999Z</time></trkpt><trkpt lat="39.56330627205015" lon="15.875625775108649"><ele>44.0</ele><time>2026-04-27T06:34:32.999Z</time></trkpt><trkpt lat="39.56314367561492" lon="15.875684856436708"><ele>44.0</ele><time>2026-04-27T06:34:33.999Z</time></trkpt><trkpt lat="39.562979140955775" lon="15.875749269265723"><ele>44.0</ele><time>2026-04-27T06:34:34.999Z</time></trkpt><trkpt lat="39.56281532780535" lon="15.87580754481111"><ele>44.0</ele><time>2026-04-27T06:34:35.999Z</time></trkpt><trkpt lat="39.56265017903996" lon="15.875866479680926"><ele>44.0</ele><time>2026-04-27T06:34:36.999Z</time></trkpt><trkpt lat="39.5624950326944" lon="15.875920733998433"><ele>44.0</ele><time>2026-04-27T06:34:37.999Z</time></trkpt><trkpt lat="39.56232725854576" lon="15.87597794167717"><ele>44.0</ele><time>2026-04-27T06:34:39Z</time></trkpt><trkpt lat="39.56215177661979" lon="15.87604206716393"><ele>41.666666666666664</ele><time>2026-04-27T06:34:40Z</time></trkpt><trkpt lat="39.56196951954869" lon="15.876110728047212"><ele>39.333333333333336</ele><time>2026-04-27T06:34:41Z</time></trkpt><trkpt lat="39.56178277489691" lon="15.876185960863765"><ele>37.0</ele><time>2026-04-27T06:34:42Z</time></trkpt><trkpt lat="39.561577331919" lon="15.876270062519227"><ele>37.0</ele><time>2026-04-27T06:34:43Z</time></trkpt><trkpt lat="39.5613501466464" lon="15.876331981305942"><ele>37.0</ele><time>2026-04-27T06:34:44Z</time></trkpt><trkpt lat="39.56110901934424" lon="15.876421296166152"><ele>38.5</ele><time>2026-04-27T06:34:45Z</time></trkpt><trkpt lat="39.56085586958508" lon="15.876511188357675"><ele>40.0</ele><time>2026-04-27T06:34:46Z</time></trkpt><trkpt lat="39.56059747038102" lon="15.87660477963565"><ele>40.5</ele><time>2026-04-27T06:34:47Z</time></trkpt><trkpt lat="39.560347305343605" lon="15.876695224291845"><ele>41.0</ele><time>2026-04-27T06:34:48Z</time></trkpt><trkpt lat="39.560110744016605" lon="15.876802130779637"><ele>45.5</ele><time>2026-04-27T06:34:49Z</time></trkpt><trkpt lat="39.55988171090689" lon="15.876882512409074"><ele>50.0</ele><time>2026-04-27T06:34:50Z</time></trkpt><trkpt lat="39.55964763052963" lon="15.87696892649672"><ele>49.0</ele><time>2026-04-27T06:34:51Z</time></trkpt><trkpt lat="39.559395842266035" lon="15.87703888590847"><ele>48.0</ele><time>2026-04-27T06:34:52Z</time></trkpt><trkpt lat="39.55913375907086" lon="15.877134189904025"><ele>48.0</ele><time>2026-04-27T06:34:53Z</time></trkpt><trkpt lat="39.55886640561905" lon="15.877231686819984"><ele>48.0</ele><time>2026-04-27T06:34:54Z</time></trkpt><trkpt lat="39.55863073580543" lon="15.877333276329788"><ele>48.33333333333333</ele><time>2026-04-27T06:34:55Z</time></trkpt><trkpt lat="39.55841352649997" lon="15.877404806271436"><ele>48.666666666666664</ele><time>2026-04-27T06:34:56Z</time></trkpt><trkpt lat="39.55820849549321" lon="15.877475780216699"><ele>49.0</ele><time>2026-04-27T06:34:57Z</time></trkpt><trkpt lat="39.558012960020385" lon="15.877543045130814"><ele>53.33333333333333</ele><time>2026-04-27T06:34:58Z</time></trkpt><trkpt lat="39.55782800988882" lon="15.87760438926282"><ele>57.66666666666667</ele><time>2026-04-27T06:34:59Z</time></trkpt><trkpt lat="39.55765197875616" lon="15.877666845381132"><ele>62.0</ele><time>2026-04-27T06:35:00Z</time></trkpt><trkpt lat="39.55748364407061" lon="15.877735468455228"><ele>62.0</ele><time>2026-04-27T06:35:01Z</time></trkpt><trkpt lat="39.55732772950765" lon="15.877824322919444"><ele>62.0</ele><time>2026-04-27T06:35:02Z</time></trkpt><trkpt lat="39.55718027616266" lon="15.87792469587734"><ele>62.0</ele><time>2026-04-27T06:35:03Z</time></trkpt><trkpt lat="39.557036137041955" lon="15.878033617997048"><ele>63.0</ele><time>2026-04-27T06:35:04Z</time></trkpt><trkpt lat="39.556889723970244" lon="15.878159945361"><ele>64.0</ele><time>2026-04-27T06:35:05Z</time></trkpt><trkpt lat="39.556749987670905" lon="15.878299403039705"><ele>65.0</ele><time>2026-04-27T06:35:06Z</time></trkpt><trkpt lat="39.556612302058674" lon="15.878443031244664"><ele>70.0</ele><time>2026-04-27T06:35:07Z</time></trkpt><trkpt lat="39.55646935593166" lon="15.87858989852939"><ele>75.0</ele><time>2026-04-27T06:35:08Z</time></trkpt><trkpt lat="39.55632880405088" lon="15.878738023648177"><ele>80.0</ele><time>2026-04-27T06:35:09Z</time></trkpt><trkpt lat="39.55619105398114" lon="15.878885832554838"><ele>80.0</ele><time>2026-04-27T06:35:10Z</time></trkpt><trkpt lat="39.55604924641688" lon="15.879033195936259"><ele>80.0</ele><time>2026-04-27T06:35:11Z</time></trkpt><trkpt lat="39.55590323938526" lon="15.879183869279489"><ele>80.0</ele><time>2026-04-27T06:35:12Z</time></trkpt><trkpt lat="39.55575992495623" lon="15.879333292409232"><ele>79.0</ele><time>2026-04-27T06:35:13Z</time></trkpt><trkpt lat="39.555612308255746" lon="15.879488822119681"><ele>78.0</ele><time>2026-04-27T06:35:14.074Z</time></trkpt><trkpt lat="39.555467630850806" lon="15.879640417688226"><ele>77.0</ele><time>2026-04-27T06:35:15.062Z</time></trkpt><trkpt lat="39.55503240782618" lon="15.8800787672823"><ele>76.66666666666667</ele><time>2026-04-27T06:35:18Z</time></trkpt><trkpt lat="39.55489325241712" lon="15.880213771456974"><ele>76.33333333333333</ele><time>2026-04-27T06:35:19Z</time></trkpt><trkpt lat="39.55475542153519" lon="15.880342822114942"><ele>76.0</ele><time>2026-04-27T06:35:20Z</time></trkpt><trkpt lat="39.55461082436256" lon="15.880458985694831"><ele>74.66666666666666</ele><time>2026-04-27T06:35:21Z</time></trkpt><trkpt lat="39.554457588654316" lon="15.88056899734097"><ele>73.33333333333333</ele><time>2026-04-27T06:35:22Z</time></trkpt><trkpt lat="39.55429973330703" lon="15.88066395430471"><ele>72.0</ele><time>2026-04-27T06:35:23Z</time></trkpt><trkpt lat="39.55414250250041" lon="15.880746711434966"><ele>72.0</ele><time>2026-04-27T06:35:24Z</time></trkpt><trkpt lat="39.55398492329889" lon="15.8808245202792"><ele>72.0</ele><time>2026-04-27T06:35:25Z</time></trkpt><trkpt lat="39.55382091625034" lon="15.880904407393647"><ele>72.0</ele><time>2026-04-27T06:35:26Z</time></trkpt><trkpt lat="39.55365249024051" lon="15.880985462828777"><ele>75.66666666666667</ele><time>2026-04-27T06:35:27Z</time></trkpt><trkpt lat="39.5534807079832" lon="15.881065344566379"><ele>79.33333333333334</ele><time>2026-04-27T06:35:28Z</time></trkpt><trkpt lat="39.55330414142612" lon="15.881136435014554"><ele>83.0</ele><time>2026-04-27T06:35:29Z</time></trkpt><trkpt lat="39.55312360489185" lon="15.881188464017443"><ele>83.0</ele><time>2026-04-27T06:35:30Z</time></trkpt><trkpt lat="39.55294405997489" lon="15.881220797258425"><ele>83.0</ele><time>2026-04-27T06:35:31Z</time></trkpt><trkpt lat="39.55276317448647" lon="15.88123340755615"><ele>83.0</ele><time>2026-04-27T06:35:32Z</time></trkpt><trkpt lat="39.55258078259503" lon="15.881234412092946"><ele>84.33333333333334</ele><time>2026-04-27T06:35:33Z</time></trkpt><trkpt lat="39.552398911242165" lon="15.881221084839735"><ele>85.66666666666667</ele><time>2026-04-27T06:35:34Z</time></trkpt><trkpt lat="39.55221688559598" lon="15.881211802538282"><ele>87.0</ele><time>2026-04-27T06:35:35Z</time></trkpt><trkpt lat="39.55203303736937" lon="15.881212653150488"><ele>88.0</ele><time>2026-04-27T06:35:36Z</time></trkpt><trkpt lat="39.55184624417258" lon="15.881212504871522"><ele>89.0</ele><time>2026-04-27T06:35:37Z</time></trkpt><trkpt lat="39.551658481214076" lon="15.881211974296548"><ele>90.0</ele><time>2026-04-27T06:35:38Z</time></trkpt><trkpt lat="39.551469229461695" lon="15.881206218687678"><ele>90.0</ele><time>2026-04-27T06:35:39Z</time></trkpt><trkpt lat="39.55127202459277" lon="15.881202825540145"><ele>90.0</ele><time>2026-04-27T06:35:40Z</time></trkpt><trkpt lat="39.55106891111007" lon="15.881206966587968"><ele>90.0</ele><time>2026-04-27T06:35:41Z</time></trkpt><trkpt lat="39.550867160343174" lon="15.881215188480892"><ele>87.0</ele><time>2026-04-27T06:35:42Z</time></trkpt><trkpt lat="39.55066446295244" lon="15.88123113987401"><ele>84.0</ele><time>2026-04-27T06:35:43Z</time></trkpt><trkpt lat="39.55046375251267" lon="15.881260957716437"><ele>81.0</ele><time>2026-04-27T06:35:44Z</time></trkpt><trkpt lat="39.55026562420543" lon="15.881316606397146"><ele>77.66666666666667</ele><time>2026-04-27T06:35:45Z</time></trkpt><trkpt lat="39.550069128771405" lon="15.881388866950102"><ele>74.33333333333334</ele><time>2026-04-27T06:35:46Z</time></trkpt><trkpt lat="39.549881949793324" lon="15.881473531513016"><ele>71.0</ele><time>2026-04-27T06:35:47Z</time></trkpt><trkpt lat="39.549699028470286" lon="15.881570871396987"><ele>74.66666666666667</ele><time>2026-04-27T06:35:48Z</time></trkpt><trkpt lat="39.54952197927968" lon="15.881684717934627"><ele>78.33333333333333</ele><time>2026-04-27T06:35:49Z</time></trkpt><trkpt lat="39.549344257824416" lon="15.881799498961694"><ele>82.0</ele><time>2026-04-27T06:35:50Z</time></trkpt><trkpt lat="39.549169457039504" lon="15.88191422009223"><ele>82.0</ele><time>2026-04-27T06:35:51Z</time></trkpt><trkpt lat="39.548990668859176" lon="15.882021404049095"><ele>82.0</ele><time>2026-04-27T06:35:52Z</time></trkpt><trkpt lat="39.54881389857121" lon="15.882128943399298"><ele>82.0</ele><time>2026-04-27T06:35:53Z</time></trkpt><trkpt lat="39.54863887529694" lon="15.88223632104866"><ele>77.66666666666666</ele><time>2026-04-27T06:35:54Z</time></trkpt><trkpt lat="39.54846640732459" lon="15.88234234402101"><ele>73.33333333333333</ele><time>2026-04-27T06:35:55Z</time></trkpt><trkpt lat="39.54829764632421" lon="15.882442797812853"><ele>69.0</ele><time>2026-04-27T06:35:56Z</time></trkpt><trkpt lat="39.548129555969666" lon="15.882542278861434"><ele>72.66666666666667</ele><time>2026-04-27T06:35:57Z</time></trkpt><trkpt lat="39.547960594477374" lon="15.882647325100452"><ele>76.33333333333334</ele><time>2026-04-27T06:35:58Z</time></trkpt><trkpt lat="39.5477887219547" lon="15.882755675341594"><ele>80.0</ele><time>2026-04-27T06:35:59Z</time></trkpt><trkpt lat="39.547615999844126" lon="15.882864488732604"><ele>80.0</ele><time>2026-04-27T06:36:00Z</time></trkpt><trkpt lat="39.54744024247304" lon="15.88297326077119"><ele>80.0</ele><time>2026-04-27T06:36:01Z</time></trkpt><trkpt lat="39.547262992224695" lon="15.88308548465336"><ele>80.0</ele><time>2026-04-27T06:36:02Z</time></trkpt><trkpt lat="39.54708618734126" lon="15.88321235427085"><ele>78.0</ele><time>2026-04-27T06:36:03Z</time></trkpt><trkpt lat="39.54691449384748" lon="15.883355876480664"><ele>76.0</ele><time>2026-04-27T06:36:04Z</time></trkpt><trkpt lat="39.54675276398318" lon="15.883514049313744"><ele>74.0</ele><time>2026-04-27T06:36:04.999Z</time></trkpt><trkpt lat="39.54660413741046" lon="15.883691243300191"><ele>74.0</ele><time>2026-04-27T06:36:05.999Z</time></trkpt><trkpt lat="39.54646249465112" lon="15.883880538873164"><ele>74.0</ele><time>2026-04-27T06:36:06.999Z</time></trkpt><trkpt lat="39.546326914256255" lon="15.884081591957843"><ele>74.0</ele><time>2026-04-27T06:36:07.999Z</time></trkpt><trkpt lat="39.546199968363425" lon="15.884287926101273"><ele>83.0</ele><time>2026-04-27T06:36:08.999Z</time></trkpt><trkpt lat="39.54608445032256" lon="15.884497177762867"><ele>92.0</ele><time>2026-04-27T06:36:09.999Z</time></trkpt><trkpt lat="39.54596891859162" lon="15.884703657681525"><ele>101.0</ele><time>2026-04-27T06:36:10.999Z</time></trkpt><trkpt lat="39.54585363132811" lon="15.884896709119952"><ele>101.0</ele><time>2026-04-27T06:36:11.999Z</time></trkpt><trkpt lat="39.54573750556154" lon="15.885091316262171"><ele>101.0</ele><time>2026-04-27T06:36:12.999Z</time></trkpt><trkpt lat="39.545621092724716" lon="15.885287785413988"><ele>101.0</ele><time>2026-04-27T06:36:13.999Z</time></trkpt><trkpt lat="39.54550659423535" lon="15.885484120107725"><ele>100.66666666666666</ele><time>2026-04-27T06:36:14.999Z</time></trkpt><trkpt lat="39.5453946824499" lon="15.88567594533817"><ele>100.33333333333334</ele><time>2026-04-27T06:36:15.999Z</time></trkpt><trkpt lat="39.54528357746583" lon="15.88585979902284"><ele>100.0</ele><time>2026-04-27T06:36:16.999Z</time></trkpt><trkpt lat="39.54517370374799" lon="15.886045394116813"><ele>83.0</ele><time>2026-04-27T06:36:17.999Z</time></trkpt><trkpt lat="39.545042176778196" lon="15.886312029381596"><ele>66.0</ele><time>2026-04-27T06:36:18.999Z</time></trkpt><trkpt lat="39.544931547144564" lon="15.886587927756644"><ele>67.66666666666667</ele><time>2026-04-27T06:36:19.999Z</time></trkpt><trkpt lat="39.54485564672386" lon="15.886818746305066"><ele>69.33333333333334</ele><time>2026-04-27T06:36:20.999Z</time></trkpt><trkpt lat="39.54478669832163" lon="15.88706374188644"><ele>71.0</ele><time>2026-04-27T06:36:21.999Z</time></trkpt><trkpt lat="39.54472549310171" lon="15.887306305531176"><ele>71.0</ele><time>2026-04-27T06:36:22.999Z</time></trkpt><trkpt lat="39.544671042433684" lon="15.887546316944508"><ele>71.0</ele><time>2026-04-27T06:36:23.999Z</time></trkpt><trkpt lat="39.544616612404766" lon="15.887783654758726"><ele>71.0</ele><time>2026-04-27T06:36:24.999Z</time></trkpt><trkpt lat="39.544561772602655" lon="15.888015612552916"><ele>67.66666666666667</ele><time>2026-04-27T06:36:25.999Z</time></trkpt><trkpt lat="39.54450644094191" lon="15.888241171193446"><ele>64.33333333333333</ele><time>2026-04-27T06:36:26.999Z</time></trkpt><trkpt lat="39.544447184622065" lon="15.888464867169487"><ele>61.0</ele><time>2026-04-27T06:36:27.999Z</time></trkpt><trkpt lat="39.54438379160032" lon="15.888689398208507"><ele>61.0</ele><time>2026-04-27T06:36:28.999Z</time></trkpt><trkpt lat="39.54431923360212" lon="15.888919818581599"><ele>61.0</ele><time>2026-04-27T06:36:29.999Z</time></trkpt><trkpt lat="39.544241571678036" lon="15.889141577795144"><ele>61.0</ele><time>2026-04-27T06:36:30.999Z</time></trkpt><trkpt lat="39.54415537418965" lon="15.889352558515146"><ele>66.33333333333333</ele><time>2026-04-27T06:36:31.999Z</time></trkpt><trkpt lat="39.544056487175716" lon="15.889557940262245"><ele>71.66666666666667</ele><time>2026-04-27T06:36:32.999Z</time></trkpt><trkpt lat="39.543944211446465" lon="15.889762833252577"><ele>77.0</ele><time>2026-04-27T06:36:33.999Z</time></trkpt><trkpt lat="39.543822988952165" lon="15.88996521839838"><ele>76.66666666666667</ele><time>2026-04-27T06:36:34.999Z</time></trkpt><trkpt lat="39.54369721783916" lon="15.890166650723637"><ele>76.33333333333333</ele><time>2026-04-27T06:36:35.999Z</time></trkpt><trkpt lat="39.54356952386483" lon="15.890379683509003"><ele>76.0</ele><time>2026-04-27T06:36:36.999Z</time></trkpt><trkpt lat="39.54344212833669" lon="15.890594739123115"><ele>76.0</ele><time>2026-04-27T06:36:37.999Z</time></trkpt><trkpt lat="39.54331495851871" lon="15.890809927158156"><ele>76.0</ele><time>2026-04-27T06:36:38.999Z</time></trkpt><trkpt lat="39.54318730387236" lon="15.891024950505278"><ele>76.0</ele><time>2026-04-27T06:36:39.999Z</time></trkpt><trkpt lat="39.54306032245879" lon="15.891240956302473"><ele>80.0</ele><time>2026-04-27T06:36:40.999Z</time></trkpt><trkpt lat="39.542932736371625" lon="15.89146033428681"><ele>84.0</ele><time>2026-04-27T06:36:41.999Z</time></trkpt><trkpt lat="39.54280229954929" lon="15.891680175709823"><ele>88.0</ele><time>2026-04-27T06:36:42.999Z</time></trkpt><trkpt lat="39.54267059262569" lon="15.891902747884634"><ele>74.66666666666666</ele><time>2026-04-27T06:36:43.999Z</time></trkpt><trkpt lat="39.54254678972978" lon="15.892108653002063"><ele>61.33333333333333</ele><time>2026-04-27T06:36:45Z</time></trkpt><trkpt lat="39.542427826925376" lon="15.892310646289236"><ele>48.0</ele><time>2026-04-27T06:36:46Z</time></trkpt><trkpt lat="39.54231430054694" lon="15.892502550022076"><ele>48.33333333333333</ele><time>2026-04-27T06:36:47Z</time></trkpt><trkpt lat="39.54220036727926" lon="15.892694772411984"><ele>48.666666666666664</ele><time>2026-04-27T06:36:48Z</time></trkpt><trkpt lat="39.542088037368174" lon="15.892887498085166"><ele>49.0</ele><time>2026-04-27T06:36:49Z</time></trkpt><trkpt lat="39.54197418883848" lon="15.893089752403037"><ele>55.33333333333333</ele><time>2026-04-27T06:36:50Z</time></trkpt><trkpt lat="39.54185207835929" lon="15.89328966564161"><ele>61.66666666666667</ele><time>2026-04-27T06:36:51Z</time></trkpt><trkpt lat="39.54172086070809" lon="15.893487777561539"><ele>68.0</ele><time>2026-04-27T06:36:52Z</time></trkpt><trkpt lat="39.54157495667814" lon="15.893681014276309"><ele>74.33333333333334</ele><time>2026-04-27T06:36:53Z</time></trkpt><trkpt lat="39.54141429416383" lon="15.893866825929189"><ele>80.66666666666667</ele><time>2026-04-27T06:36:54Z</time></trkpt><trkpt lat="39.54124139765339" lon="15.894043514356747"><ele>87.0</ele><time>2026-04-27T06:36:55Z</time></trkpt><trkpt lat="39.5410631857425" lon="15.894204591603595"><ele>93.66666666666666</ele><time>2026-04-27T06:36:56Z</time></trkpt><trkpt lat="39.54089521363615" lon="15.894349207041254"><ele>100.33333333333333</ele><time>2026-04-27T06:36:57Z</time></trkpt><trkpt lat="39.54073933993908" lon="15.894481276248415"><ele>107.0</ele><time>2026-04-27T06:36:58Z</time></trkpt><trkpt lat="39.540585888097944" lon="15.894616879094293"><ele>107.0</ele><time>2026-04-27T06:36:59Z</time></trkpt><trkpt lat="39.54043403920587" lon="15.894758441410357"><ele>107.0</ele><time>2026-04-27T06:37:00Z</time></trkpt><trkpt lat="39.540292660135506" lon="15.894899159943272"><ele>107.0</ele><time>2026-04-27T06:37:01Z</time></trkpt><trkpt lat="39.54016402444409" lon="15.895043743525703"><ele>107.33333333333333</ele><time>2026-04-27T06:37:02Z</time></trkpt><trkpt lat="39.54004164811091" lon="15.895201817697938"><ele>107.66666666666666</ele><time>2026-04-27T06:37:03Z</time></trkpt><trkpt lat="39.539929239585334" lon="15.895379167053601"><ele>108.0</ele><time>2026-04-27T06:37:04Z</time></trkpt><trkpt lat="39.53982349445121" lon="15.895568141339748"><ele>108.0</ele><time>2026-04-27T06:37:05Z</time></trkpt><trkpt lat="39.53972723156379" lon="15.895754718997049"><ele>108.0</ele><time>2026-04-27T06:37:06Z</time></trkpt><trkpt lat="39.53964270179048" lon="15.895947659227671"><ele>108.0</ele><time>2026-04-27T06:37:07Z</time></trkpt><trkpt lat="39.53957077514459" lon="15.896129808451892"><ele>101.25</ele><time>2026-04-27T06:37:08Z</time></trkpt><trkpt lat="39.53951419595077" lon="15.896294340455583"><ele>94.5</ele><time>2026-04-27T06:37:09Z</time></trkpt><trkpt lat="39.53946777384506" lon="15.896464633090055"><ele>87.75</ele><time>2026-04-27T06:37:10Z</time></trkpt><trkpt lat="39.53942204835045" lon="15.896642898209995"><ele>81.0</ele><time>2026-04-27T06:37:11Z</time></trkpt><trkpt lat="39.53938030390368" lon="15.896841900503587"><ele>81.0</ele><time>2026-04-27T06:37:12Z</time></trkpt><trkpt lat="39.53934860331452" lon="15.897052490160247"><ele>81.0</ele><time>2026-04-27T06:37:13Z</time></trkpt><trkpt lat="39.539329756626394" lon="15.897258174524726"><ele>81.0</ele><time>2026-04-27T06:37:14Z</time></trkpt><trkpt lat="39.53931027308191" lon="15.897474387563678"><ele>85.0</ele><time>2026-04-27T06:37:15Z</time></trkpt><trkpt lat="39.53929052218743" lon="15.897707075275271"><ele>89.0</ele><time>2026-04-27T06:37:16Z</time></trkpt><trkpt lat="39.53926894564389" lon="15.897953912865857"><ele>93.0</ele><time>2026-04-27T06:37:17Z</time></trkpt><trkpt lat="39.53924299123492" lon="15.898184847440639"><ele>93.0</ele><time>2026-04-27T06:37:18Z</time></trkpt><trkpt lat="39.539216315938276" lon="15.898401739896325"><ele>93.0</ele><time>2026-04-27T06:37:19Z</time></trkpt><trkpt lat="39.5391930556263" lon="15.89861660041304"><ele>93.0</ele><time>2026-04-27T06:37:20Z</time></trkpt><trkpt lat="39.53917347047125" lon="15.898834453751803"><ele>96.33333333333334</ele><time>2026-04-27T06:37:21Z</time></trkpt><trkpt lat="39.53915219814509" lon="15.899054905117302"><ele>99.66666666666667</ele><time>2026-04-27T06:37:22Z</time></trkpt><trkpt lat="39.539127768621626" lon="15.899277146938475"><ele>103.0</ele><time>2026-04-27T06:37:23Z</time></trkpt><trkpt lat="39.53910140020383" lon="15.89950569910935"><ele>105.66666666666667</ele><time>2026-04-27T06:37:24Z</time></trkpt><trkpt lat="39.53906860514298" lon="15.899732085697053"><ele>108.33333333333334</ele><time>2026-04-27T06:37:25Z</time></trkpt><trkpt lat="39.5390281192814" lon="15.899951860853319"><ele>111.0</ele><time>2026-04-27T06:37:26Z</time></trkpt><trkpt lat="39.53898106264564" lon="15.90017124677604"><ele>114.0</ele><time>2026-04-27T06:37:27Z</time></trkpt><trkpt lat="39.53893336039972" lon="15.900389524105071"><ele>117.0</ele><time>2026-04-27T06:37:28Z</time></trkpt><trkpt lat="39.53888713838375" lon="15.90060575483311"><ele>120.0</ele><time>2026-04-27T06:37:29Z</time></trkpt><trkpt lat="39.5388439227768" lon="15.900820702360374"><ele>119.0</ele><time>2026-04-27T06:37:30Z</time></trkpt><trkpt lat="39.53880448923329" lon="15.901024025533381"><ele>118.0</ele><time>2026-04-27T06:37:31Z</time></trkpt><trkpt lat="39.538773463554996" lon="15.901220953742627"><ele>117.0</ele><time>2026-04-27T06:37:32Z</time></trkpt><trkpt lat="39.5387556430086" lon="15.901426054499211"><ele>117.0</ele><time>2026-04-27T06:37:33Z</time></trkpt><trkpt lat="39.53874917058166" lon="15.901654279782369"><ele>117.0</ele><time>2026-04-27T06:37:34Z</time></trkpt><trkpt lat="39.53875544250476" lon="15.901897674361331"><ele>117.0</ele><time>2026-04-27T06:37:35Z</time></trkpt><trkpt lat="39.53874141658938" lon="15.902153578044977"><ele>118.0</ele><time>2026-04-27T06:37:36Z</time></trkpt><trkpt lat="39.538745765239675" lon="15.902412722860351"><ele>119.0</ele><time>2026-04-27T06:37:37Z</time></trkpt><trkpt lat="39.53876674793886" lon="15.902663508486391"><ele>120.0</ele><time>2026-04-27T06:37:38Z</time></trkpt><trkpt lat="39.53876443348256" lon="15.902903165602284"><ele>123.0</ele><time>2026-04-27T06:37:39Z</time></trkpt><trkpt lat="39.5387646785555" lon="15.90313125169374"><ele>126.0</ele><time>2026-04-27T06:37:40Z</time></trkpt><trkpt lat="39.53876861479518" lon="15.90336445071968"><ele>129.0</ele><time>2026-04-27T06:37:41Z</time></trkpt><trkpt lat="39.53877684399178" lon="15.90360488599511"><ele>130.33333333333334</ele><time>2026-04-27T06:37:42Z</time></trkpt><trkpt lat="39.5387819065421" lon="15.90383921108479"><ele>131.66666666666669</ele><time>2026-04-27T06:37:43Z</time></trkpt><trkpt lat="39.53878421177104" lon="15.904063353094704"><ele>133.0</ele><time>2026-04-27T06:37:44Z</time></trkpt><trkpt lat="39.53878686254104" lon="15.904286795806776"><ele>133.0</ele><time>2026-04-27T06:37:45Z</time></trkpt><trkpt lat="39.538792462148194" lon="15.904527490661613"><ele>133.0</ele><time>2026-04-27T06:37:46Z</time></trkpt><trkpt lat="39.538795051996125" lon="15.904765426837413"><ele>133.0</ele><time>2026-04-27T06:37:47Z</time></trkpt><trkpt lat="39.53879174156727" lon="15.9049854157228"><ele>134.66666666666669</ele><time>2026-04-27T06:37:48Z</time></trkpt><trkpt lat="39.53878503629755" lon="15.905189371856773"><ele>136.33333333333334</ele><time>2026-04-27T06:37:49Z</time></trkpt><trkpt lat="39.53877818031396" lon="15.905387296126806"><ele>138.0</ele><time>2026-04-27T06:37:50Z</time></trkpt><trkpt lat="39.53876802183853" lon="15.905580368293958"><ele>138.0</ele><time>2026-04-27T06:37:51Z</time></trkpt><trkpt lat="39.538760777177764" lon="15.905780596035958"><ele>138.0</ele><time>2026-04-27T06:37:52Z</time></trkpt><trkpt lat="39.538755021530314" lon="15.90599263950104"><ele>138.0</ele><time>2026-04-27T06:37:53Z</time></trkpt><trkpt lat="39.53874527530365" lon="15.906192755318484"><ele>137.66666666666666</ele><time>2026-04-27T06:37:54Z</time></trkpt><trkpt lat="39.538722763676645" lon="15.906388323189208"><ele>137.33333333333331</ele><time>2026-04-27T06:37:55Z</time></trkpt><trkpt lat="39.538689713737305" lon="15.90657887485821"><ele>137.0</ele><time>2026-04-27T06:37:56Z</time></trkpt><trkpt lat="39.538649804749745" lon="15.906769145653957"><ele>128.33333333333331</ele><time>2026-04-27T06:37:57Z</time></trkpt><trkpt lat="39.53858292832413" lon="15.906955333751306"><ele>119.66666666666666</ele><time>2026-04-27T06:37:58Z</time></trkpt><trkpt lat="39.538521462487545" lon="15.907162644553921"><ele>111.0</ele><time>2026-04-27T06:37:59Z</time></trkpt><trkpt lat="39.538475284905786" lon="15.907370863854336"><ele>113.33333333333334</ele><time>2026-04-27T06:38:00Z</time></trkpt><trkpt lat="39.53840905716952" lon="15.90757913679046"><ele>115.66666666666667</ele><time>2026-04-27T06:38:01Z</time></trkpt><trkpt lat="39.53834420943684" lon="15.907787740870837"><ele>118.0</ele><time>2026-04-27T06:38:02Z</time></trkpt><trkpt lat="39.53827803117493" lon="15.907996983105978"><ele>118.0</ele><time>2026-04-27T06:38:03Z</time></trkpt><trkpt lat="39.53821241484028" lon="15.908201332215095"><ele>118.0</ele><time>2026-04-27T06:38:04Z</time></trkpt><trkpt lat="39.53814878710041" lon="15.908404019292217"><ele>118.0</ele><time>2026-04-27T06:38:05Z</time></trkpt><trkpt lat="39.53808394462868" lon="15.908610856733171"><ele>116.33333333333334</ele><time>2026-04-27T06:38:06Z</time></trkpt><trkpt lat="39.53802287726058" lon="15.908808007590054"><ele>114.66666666666666</ele><time>2026-04-27T06:38:07Z</time></trkpt><trkpt lat="39.537960848801454" lon="15.909010516116373"><ele>113.0</ele><time>2026-04-27T06:38:08Z</time></trkpt><trkpt lat="39.53789842226515" lon="15.909211601617976"><ele>106.33333333333333</ele><time>2026-04-27T06:38:08.999Z</time></trkpt><trkpt lat="39.537837229296215" lon="15.909411741787082"><ele>99.66666666666666</ele><time>2026-04-27T06:38:09.999Z</time></trkpt><trkpt lat="39.53777808627319" lon="15.90960383667215"><ele>93.0</ele><time>2026-04-27T06:38:10.999Z</time></trkpt><trkpt lat="39.5377228466671" lon="15.909789557635465"><ele>93.0</ele><time>2026-04-27T06:38:11.999Z</time></trkpt><trkpt lat="39.53766595777365" lon="15.909980770551778"><ele>93.0</ele><time>2026-04-27T06:38:12.999Z</time></trkpt><trkpt lat="39.53760702032231" lon="15.91017539479089"><ele>93.0</ele><time>2026-04-27T06:38:13.999Z</time></trkpt><trkpt lat="39.53754659369755" lon="15.910368878856719"><ele>95.0</ele><time>2026-04-27T06:38:14.999Z</time></trkpt><trkpt lat="39.53748546315268" lon="15.910554255841028"><ele>97.0</ele><time>2026-04-27T06:38:15.999Z</time></trkpt><trkpt lat="39.53742825074216" lon="15.910729354342775"><ele>99.0</ele><time>2026-04-27T06:38:16.999Z</time></trkpt><trkpt lat="39.53737416461571" lon="15.910903102981486"><ele>101.0</ele><time>2026-04-27T06:38:17.999Z</time></trkpt><trkpt lat="39.53731609830287" lon="15.911080129865207"><ele>102.0</ele><time>2026-04-27T06:38:18.999Z</time></trkpt><trkpt lat="39.53725361370126" lon="15.91126223570359"><ele>103.0</ele><time>2026-04-27T06:38:19.999Z</time></trkpt><trkpt lat="39.53718639660082" lon="15.91144490391345"><ele>104.0</ele><time>2026-04-27T06:38:20.999Z</time></trkpt><trkpt lat="39.537116079124715" lon="15.91161827244746"><ele>99.25</ele><time>2026-04-27T06:38:21.999Z</time></trkpt><trkpt lat="39.53704371193244" lon="15.911779898155798"><ele>94.5</ele><time>2026-04-27T06:38:22.999Z</time></trkpt><trkpt lat="39.53696912176473" lon="15.911941297198743"><ele>89.75</ele><time>2026-04-27T06:38:23.999Z</time></trkpt><trkpt lat="39.53689206440633" lon="15.912107341369984"><ele>85.0</ele><time>2026-04-27T06:38:24.999Z</time></trkpt><trkpt lat="39.5368165768795" lon="15.912266223567372"><ele>85.0</ele><time>2026-04-27T06:38:25.999Z</time></trkpt><trkpt lat="39.53674329796573" lon="15.912419967525631"><ele>85.0</ele><time>2026-04-27T06:38:26.999Z</time></trkpt><trkpt lat="39.53667219407219" lon="15.912569361266137"><ele>85.0</ele><time>2026-04-27T06:38:27.999Z</time></trkpt><trkpt lat="39.53660270992425" lon="15.912714590655275"><ele>85.0</ele><time>2026-04-27T06:38:28.999Z</time></trkpt><trkpt lat="39.53653276193318" lon="15.91285723566057"><ele>89.0</ele><time>2026-04-27T06:38:29.999Z</time></trkpt><trkpt lat="39.53646039550399" lon="15.913003990861418"><ele>93.0</ele><time>2026-04-27T06:38:30.999Z</time></trkpt><trkpt lat="39.53639180977013" lon="15.9131453568409"><ele>97.0</ele><time>2026-04-27T06:38:31.999Z</time></trkpt><trkpt lat="39.536321909026746" lon="15.913281833113503"><ele>101.0</ele><time>2026-04-27T06:38:32.999Z</time></trkpt><trkpt lat="39.536250564442724" lon="15.913416550251846"><ele>97.8</ele><time>2026-04-27T06:38:33.999Z</time></trkpt><trkpt lat="39.53617717140529" lon="15.913547997387"><ele>94.6</ele><time>2026-04-27T06:38:34.999Z</time></trkpt><trkpt lat="39.53610856947471" lon="15.913660075166776"><ele>91.4</ele><time>2026-04-27T06:38:35.999Z</time></trkpt><trkpt lat="39.5360558749138" lon="15.913740561049272"><ele>88.2</ele><time>2026-04-27T06:38:36.999Z</time></trkpt><trkpt lat="39.536000842336286" lon="15.913789085734896"><ele>85.0</ele><time>2026-04-27T06:38:37.999Z</time></trkpt><trkpt lat="39.53593567409691" lon="15.913872389032159"><ele>85.0</ele><time>2026-04-27T06:38:39.999Z</time></trkpt><trkpt lat="39.535888480455434" lon="15.913930779003989"><ele>85.0</ele><time>2026-04-27T06:38:45.999Z</time></trkpt><trkpt lat="39.53590734939242" lon="15.914013732059734"><ele>85.0</ele><time>2026-04-27T06:38:46.999Z</time></trkpt><trkpt lat="39.535944203231146" lon="15.91412915689746"><ele>85.0</ele><time>2026-04-27T06:38:48.999Z</time></trkpt><trkpt lat="39.535891138383846" lon="15.914229392311793"><ele>85.0</ele><time>2026-04-27T06:38:51Z</time></trkpt><trkpt lat="39.53585680269583" lon="15.914303921533753"><ele>85.0</ele><time>2026-04-27T06:38:52Z</time></trkpt><trkpt lat="39.53577328955182" lon="15.914375062857928"><ele>89.75</ele><time>2026-04-27T06:38:53Z</time></trkpt><trkpt lat="39.535677876810944" lon="15.91446521358247"><ele>94.5</ele><time>2026-04-27T06:38:54Z</time></trkpt><trkpt lat="39.535562762180724" lon="15.914576531720684"><ele>99.25</ele><time>2026-04-27T06:38:55Z</time></trkpt><trkpt lat="39.53546592407931" lon="15.914665345603204"><ele>104.0</ele><time>2026-04-27T06:38:56Z</time></trkpt><trkpt lat="39.53539259710518" lon="15.914755004698867"><ele>104.0</ele><time>2026-04-27T06:38:57Z</time></trkpt><trkpt lat="39.53534214112798" lon="15.91484265603581"><ele>104.0</ele><time>2026-04-27T06:38:58Z</time></trkpt><trkpt lat="39.53534914075362" lon="15.914980070919581"><ele>104.0</ele><time>2026-04-27T06:39:00Z</time></trkpt><trkpt lat="39.535470976319125" lon="15.915012520160118"><ele>104.0</ele><time>2026-04-27T06:39:02Z</time></trkpt><trkpt lat="39.535577034601715" lon="15.914939698488528"><ele>104.0</ele><time>2026-04-27T06:39:03Z</time></trkpt><trkpt lat="39.53565785305086" lon="15.91487196853676"><ele>104.0</ele><time>2026-04-27T06:39:04Z</time></trkpt><trkpt lat="39.53574131202103" lon="15.914789698120686"><ele>104.0</ele><time>2026-04-27T06:39:05Z</time></trkpt><trkpt lat="39.5358440168573" lon="15.914741274592837"><ele>104.0</ele><time>2026-04-27T06:39:06Z</time></trkpt><trkpt lat="39.53594006097985" lon="15.914683926365417"><ele>104.0</ele><time>2026-04-27T06:39:07Z</time></trkpt><trkpt lat="39.53603259048752" lon="15.91462373522349"><ele>104.0</ele><time>2026-04-27T06:39:08Z</time></trkpt><trkpt lat="39.53612194416498" lon="15.914580665089758"><ele>108.0</ele><time>2026-04-27T06:39:09Z</time></trkpt><trkpt lat="39.53622910296571" lon="15.91451490942904"><ele>112.0</ele><time>2026-04-27T06:39:10Z</time></trkpt><trkpt lat="39.53632530467147" lon="15.91440365827234"><ele>116.0</ele><time>2026-04-27T06:39:11Z</time></trkpt><trkpt lat="39.536422003808454" lon="15.914294871746794"><ele>120.0</ele><time>2026-04-27T06:39:12Z</time></trkpt><trkpt lat="39.536521975574246" lon="15.914175944349578"><ele>120.0</ele><time>2026-04-27T06:39:13Z</time></trkpt><trkpt lat="39.53661269903035" lon="15.914069213253857"><ele>120.0</ele><time>2026-04-27T06:39:14Z</time></trkpt><trkpt lat="39.536701699754815" lon="15.913967720308284"><ele>120.0</ele><time>2026-04-27T06:39:15Z</time></trkpt><trkpt lat="39.53679307374333" lon="15.913866035399717"><ele>120.0</ele><time>2026-04-27T06:39:16Z</time></trkpt><trkpt lat="39.53687790370479" lon="15.91375749309792"><ele>120.0</ele><time>2026-04-27T06:39:17Z</time></trkpt><trkpt lat="39.536967408510705" lon="15.913685235857448"><ele>120.0</ele><time>2026-04-27T06:39:18Z</time></trkpt><trkpt lat="39.53706283927693" lon="15.913605829365673"><ele>120.0</ele><time>2026-04-27T06:39:19Z</time></trkpt><trkpt lat="39.53716193091236" lon="15.913529180453445"><ele>120.0</ele><time>2026-04-27T06:39:20Z</time></trkpt><trkpt lat="39.53726371604903" lon="15.913446175189506"><ele>123.0</ele><time>2026-04-27T06:39:21Z</time></trkpt><trkpt lat="39.53737313659449" lon="15.913359682166668"><ele>126.0</ele><time>2026-04-27T06:39:22Z</time></trkpt><trkpt lat="39.53748601213764" lon="15.913281529886252"><ele>129.0</ele><time>2026-04-27T06:39:23Z</time></trkpt><trkpt lat="39.53761644387406" lon="15.913213825527341"><ele>132.0</ele><time>2026-04-27T06:39:24Z</time></trkpt><trkpt lat="39.53773677415764" lon="15.91313778154024"><ele>132.0</ele><time>2026-04-27T06:39:25Z</time></trkpt><trkpt lat="39.53782984942846" lon="15.913028505921245"><ele>132.0</ele><time>2026-04-27T06:39:26Z</time></trkpt><trkpt lat="39.53793248953361" lon="15.912916550741924"><ele>132.0</ele><time>2026-04-27T06:39:27Z</time></trkpt><trkpt lat="39.53801124428827" lon="15.912830788290147"><ele>132.0</ele><time>2026-04-27T06:39:28Z</time></trkpt><trkpt lat="39.53809661461148" lon="15.912752956158798"><ele>134.4</ele><time>2026-04-27T06:39:29Z</time></trkpt><trkpt lat="39.5382027992786" lon="15.912677358163624"><ele>136.79999999999998</ele><time>2026-04-27T06:39:30Z</time></trkpt><trkpt lat="39.53830815276901" lon="15.912618202648051"><ele>139.2</ele><time>2026-04-27T06:39:31Z</time></trkpt><trkpt lat="39.538391927693354" lon="15.912554502121575"><ele>141.6</ele><time>2026-04-27T06:39:32Z</time></trkpt><trkpt lat="39.538447963177624" lon="15.912503092831948"><ele>144.0</ele><time>2026-04-27T06:39:33Z</time></trkpt><trkpt lat="39.5385131198662" lon="15.912453277420454"><ele>149.0</ele><time>2026-04-27T06:39:35Z</time></trkpt><trkpt lat="39.53853396882293" lon="15.912603183980435"><ele>154.0</ele><time>2026-04-27T06:39:37Z</time></trkpt><trkpt lat="39.538467855984514" lon="15.912691466806429"><ele>159.0</ele><time>2026-04-27T06:39:38Z</time></trkpt><trkpt lat="39.53840290842573" lon="15.912834380665956"><ele>164.0</ele><time>2026-04-27T06:39:39Z</time></trkpt><trkpt lat="39.53834068746261" lon="15.912976878836409"><ele>164.0</ele><time>2026-04-27T06:39:40Z</time></trkpt><trkpt lat="39.538279364120875" lon="15.91313608115303"><ele>164.0</ele><time>2026-04-27T06:39:41Z</time></trkpt><trkpt lat="39.53819602410817" lon="15.913287480761896"><ele>164.0</ele><time>2026-04-27T06:39:42Z</time></trkpt><trkpt lat="39.53813403456589" lon="15.913417756622588"><ele>164.0</ele><time>2026-04-27T06:39:43Z</time></trkpt><trkpt lat="39.53805382912631" lon="15.913541974926158"><ele>162.39999999999998</ele><time>2026-04-27T06:39:44Z</time></trkpt><trkpt lat="39.53798119022974" lon="15.91363185246376"><ele>160.79999999999998</ele><time>2026-04-27T06:39:45Z</time></trkpt><trkpt lat="39.53791089157231" lon="15.913722048012705"><ele>159.2</ele><time>2026-04-27T06:39:46Z</time></trkpt><trkpt lat="39.53785158411843" lon="15.913767634569547"><ele>157.6</ele><time>2026-04-27T06:39:47Z</time></trkpt><trkpt lat="39.53786844199667" lon="15.913876581797076"><ele>156.0</ele><time>2026-04-27T06:39:49Z</time></trkpt><trkpt lat="39.5379965249454" lon="15.913833233415424"><ele>158.0</ele><time>2026-04-27T06:39:51Z</time></trkpt><trkpt lat="39.538090491919974" lon="15.913728521398507"><ele>160.0</ele><time>2026-04-27T06:39:52Z</time></trkpt><trkpt lat="39.53820197793098" lon="15.913583267763357"><ele>162.0</ele><time>2026-04-27T06:39:53Z</time></trkpt><trkpt lat="39.538306382984146" lon="15.913458610968746"><ele>164.0</ele><time>2026-04-27T06:39:54Z</time></trkpt><trkpt lat="39.53840900828972" lon="15.913376776798055"><ele>164.0</ele><time>2026-04-27T06:39:55Z</time></trkpt><trkpt lat="39.53853690853991" lon="15.913309201406221"><ele>164.0</ele><time>2026-04-27T06:39:56Z</time></trkpt><trkpt lat="39.538675847567845" lon="15.91325164044442"><ele>164.0</ele><time>2026-04-27T06:39:57Z</time></trkpt><trkpt lat="39.538782685701875" lon="15.913185546769133"><ele>164.0</ele><time>2026-04-27T06:39:58Z</time></trkpt><trkpt lat="39.53889402172922" lon="15.913096048157172"><ele>172.33333333333331</ele><time>2026-04-27T06:39:59Z</time></trkpt><trkpt lat="39.53901334964522" lon="15.912956505816847"><ele>180.66666666666666</ele><time>2026-04-27T06:40:00Z</time></trkpt><trkpt lat="39.539134083014595" lon="15.91280956934324"><ele>189.0</ele><time>2026-04-27T06:40:01Z</time></trkpt><trkpt lat="39.53924171859411" lon="15.912667355846798"><ele>183.33333333333334</ele><time>2026-04-27T06:40:02Z</time></trkpt><trkpt lat="39.53933796914404" lon="15.912507236230315"><ele>177.66666666666669</ele><time>2026-04-27T06:40:03Z</time></trkpt><trkpt lat="39.53945372387569" lon="15.91235089532314"><ele>172.0</ele><time>2026-04-27T06:40:04Z</time></trkpt><trkpt lat="39.53954838025156" lon="15.912194476680092"><ele>180.66666666666669</ele><time>2026-04-27T06:40:05Z</time></trkpt><trkpt lat="39.539626148520746" lon="15.91204268496216"><ele>189.33333333333334</ele><time>2026-04-27T06:40:06Z</time></trkpt><trkpt lat="39.539687368363936" lon="15.911865192074917"><ele>198.0</ele><time>2026-04-27T06:40:07Z</time></trkpt><trkpt lat="39.5397642519191" lon="15.9116716832292"><ele>198.0</ele><time>2026-04-27T06:40:08Z</time></trkpt><trkpt lat="39.53983521684555" lon="15.911456051600188"><ele>198.0</ele><time>2026-04-27T06:40:09Z</time></trkpt><trkpt lat="39.53989959486106" lon="15.91127704471281"><ele>198.0</ele><time>2026-04-27T06:40:10Z</time></trkpt><trkpt lat="39.53996588337305" lon="15.91109912140775"><ele>198.0</ele><time>2026-04-27T06:40:11Z</time></trkpt><trkpt lat="39.54003290102267" lon="15.910919241007916"><ele>198.0</ele><time>2026-04-27T06:40:12Z</time></trkpt><trkpt lat="39.54009645615355" lon="15.910749379736288"><ele>198.0</ele><time>2026-04-27T06:40:13Z</time></trkpt><trkpt lat="39.54012648067627" lon="15.910556956980807"><ele>197.0</ele><time>2026-04-27T06:40:14Z</time></trkpt><trkpt lat="39.54019514399751" lon="15.910372366311071"><ele>196.0</ele><time>2026-04-27T06:40:14.999Z</time></trkpt><trkpt lat="39.54025576049748" lon="15.910204682173042"><ele>195.0</ele><time>2026-04-27T06:40:15.999Z</time></trkpt><trkpt lat="39.54030474319341" lon="15.910073486972175"><ele>194.0</ele><time>2026-04-27T06:40:16.999Z</time></trkpt><trkpt lat="39.540345493677385" lon="15.909943839020398"><ele>200.0</ele><time>2026-04-27T06:40:17.999Z</time></trkpt><trkpt lat="39.54039428290166" lon="15.909795161167114"><ele>206.0</ele><time>2026-04-27T06:40:18.999Z</time></trkpt><trkpt lat="39.540488388934605" lon="15.909693047724154"><ele>212.0</ele><time>2026-04-27T06:40:19.999Z</time></trkpt><trkpt lat="39.54050678407461" lon="15.90958373442416"><ele>218.0</ele><time>2026-04-27T06:40:20.999Z</time></trkpt><trkpt lat="39.54046670524238" lon="15.90944001289864"><ele>218.0</ele><time>2026-04-27T06:40:21.999Z</time></trkpt><trkpt lat="39.54046041943642" lon="15.909267857736161"><ele>218.0</ele><time>2026-04-27T06:40:22.999Z</time></trkpt><trkpt lat="39.54045812277229" lon="15.909130432594411"><ele>218.0</ele><time>2026-04-27T06:40:23.999Z</time></trkpt><trkpt lat="39.540466995213734" lon="15.908984514716387"><ele>218.0</ele><time>2026-04-27T06:40:24.999Z</time></trkpt><trkpt lat="39.54050114951926" lon="15.908837423384362"><ele>217.0</ele><time>2026-04-27T06:40:25.999Z</time></trkpt><trkpt lat="39.54051865485329" lon="15.908706491245702"><ele>216.0</ele><time>2026-04-27T06:40:26.999Z</time></trkpt><trkpt lat="39.54053532111717" lon="15.908599027649885"><ele>215.0</ele><time>2026-04-27T06:40:27.999Z</time></trkpt><trkpt lat="39.54056246140769" lon="15.908487657598872"><ele>214.0</ele><time>2026-04-27T06:40:28.999Z</time></trkpt><trkpt lat="39.54064191691473" lon="15.908403060737603"><ele>213.0</ele><time>2026-04-27T06:40:29.999Z</time></trkpt><trkpt lat="39.540712914952984" lon="15.908289818707681"><ele>210.5</ele><time>2026-04-27T06:40:30.999Z</time></trkpt><trkpt lat="39.54077555138652" lon="15.90818770556361"><ele>208.0</ele><time>2026-04-27T06:40:31.999Z</time></trkpt><trkpt lat="39.54072130241671" lon="15.908008269770464"><ele>205.5</ele><time>2026-04-27T06:40:32.999Z</time></trkpt><trkpt lat="39.54071980112711" lon="15.907887383658352"><ele>203.0</ele><time>2026-04-27T06:40:33.999Z</time></trkpt><trkpt lat="39.54075536631243" lon="15.90775314046932"><ele>203.0</ele><time>2026-04-27T06:40:34.999Z</time></trkpt><trkpt lat="39.54082672181963" lon="15.907614158077628"><ele>203.0</ele><time>2026-04-27T06:40:35.999Z</time></trkpt><trkpt lat="39.54086655599623" lon="15.907469548561323"><ele>203.0</ele><time>2026-04-27T06:40:36.999Z</time></trkpt><trkpt lat="39.54087012093277" lon="15.907338009095927"><ele>203.0</ele><time>2026-04-27T06:40:37.999Z</time></trkpt><trkpt lat="39.54083009068413" lon="15.907192947391358"><ele>203.4</ele><time>2026-04-27T06:40:38.999Z</time></trkpt><trkpt lat="39.54075896352727" lon="15.907039693916772"><ele>203.8</ele><time>2026-04-27T06:40:39.999Z</time></trkpt><trkpt lat="39.54071241035696" lon="15.906930111179305"><ele>204.2</ele><time>2026-04-27T06:40:40.999Z</time></trkpt><trkpt lat="39.540711544300976" lon="15.906828083453432"><ele>204.6</ele><time>2026-04-27T06:40:41.999Z</time></trkpt><trkpt lat="39.54073291123809" lon="15.906749724040854"><ele>205.0</ele><time>2026-04-27T06:40:42.999Z</time></trkpt><trkpt lat="39.540798188515545" lon="15.906676685122545"><ele>205.0</ele><time>2026-04-27T06:40:43.999Z</time></trkpt><trkpt lat="39.54088811506577" lon="15.906603335844851"><ele>205.0</ele><time>2026-04-27T06:40:44.999Z</time></trkpt><trkpt lat="39.54096864453926" lon="15.90650411671178"><ele>205.0</ele><time>2026-04-27T06:40:45.999Z</time></trkpt><trkpt lat="39.54103193497629" lon="15.906391924478037"><ele>205.0</ele><time>2026-04-27T06:40:46.999Z</time></trkpt><trkpt lat="39.541104521738724" lon="15.906257826357944"><ele>205.0</ele><time>2026-04-27T06:40:47.999Z</time></trkpt><trkpt lat="39.54118798588667" lon="15.906094371704038"><ele>205.0</ele><time>2026-04-27T06:40:48.999Z</time></trkpt><trkpt lat="39.54127355047313" lon="15.905930386271939"><ele>205.0</ele><time>2026-04-27T06:40:49.999Z</time></trkpt><trkpt lat="39.54135383203313" lon="15.905792022909983"><ele>205.0</ele><time>2026-04-27T06:40:50.999Z</time></trkpt><trkpt lat="39.541427328280804" lon="15.905683598934148"><ele>210.0</ele><time>2026-04-27T06:40:51.999Z</time></trkpt><trkpt lat="39.54148631786908" lon="15.905608808646953"><ele>215.0</ele><time>2026-04-27T06:40:52.999Z</time></trkpt><trkpt lat="39.541569522253994" lon="15.905555459403676"><ele>220.0</ele><time>2026-04-27T06:40:54.999Z</time></trkpt><trkpt lat="39.54162382079166" lon="15.905679546070791"><ele>225.0</ele><time>2026-04-27T06:40:57Z</time></trkpt><trkpt lat="39.541558740105884" lon="15.905811612484559"><ele>230.0</ele><time>2026-04-27T06:40:58Z</time></trkpt><trkpt lat="39.541555094735926" lon="15.90598378769625"><ele>232.5</ele><time>2026-04-27T06:40:59Z</time></trkpt><trkpt lat="39.54157366982894" lon="15.906162365101958"><ele>235.0</ele><time>2026-04-27T06:41:00Z</time></trkpt><trkpt lat="39.54158504470506" lon="15.906319096038937"><ele>237.5</ele><time>2026-04-27T06:41:01Z</time></trkpt><trkpt lat="39.5415936657301" lon="15.906453386349462"><ele>240.0</ele><time>2026-04-27T06:41:02Z</time></trkpt><trkpt lat="39.54158463418335" lon="15.90658158998182"><ele>240.0</ele><time>2026-04-27T06:41:03Z</time></trkpt><trkpt lat="39.5416022736498" lon="15.906691304957187"><ele>240.0</ele><time>2026-04-27T06:41:04Z</time></trkpt><trkpt lat="39.54160894477316" lon="15.906846087446867"><ele>240.0</ele><time>2026-04-27T06:41:06Z</time></trkpt><trkpt lat="39.54164064676975" lon="15.906937054745752"><ele>240.0</ele><time>2026-04-27T06:41:07Z</time></trkpt><trkpt lat="39.54171588922267" lon="15.9070346157967"><ele>240.0</ele><time>2026-04-27T06:41:08Z</time></trkpt><trkpt lat="39.541799410265455" lon="15.907142498307616"><ele>239.6</ele><time>2026-04-27T06:41:09Z</time></trkpt><trkpt lat="39.541876588734276" lon="15.907255500662801"><ele>239.2</ele><time>2026-04-27T06:41:10Z</time></trkpt><trkpt lat="39.54192952442808" lon="15.907379584382138"><ele>238.8</ele><time>2026-04-27T06:41:11Z</time></trkpt><trkpt lat="39.54195125294446" lon="15.907515076465685"><ele>238.4</ele><time>2026-04-27T06:41:12Z</time></trkpt><trkpt lat="39.54193085056088" lon="15.907663598053155"><ele>238.0</ele><time>2026-04-27T06:41:13Z</time></trkpt><trkpt lat="39.541914715759475" lon="15.907793146402001"><ele>237.2</ele><time>2026-04-27T06:41:14Z</time></trkpt><trkpt lat="39.541927144893954" lon="15.907916139286202"><ele>236.4</ele><time>2026-04-27T06:41:15Z</time></trkpt><trkpt lat="39.54194831514923" lon="15.908023244887524"><ele>235.59999999999997</ele><time>2026-04-27T06:41:16Z</time></trkpt><trkpt lat="39.542019250870204" lon="15.90813154229093"><ele>234.79999999999998</ele><time>2026-04-27T06:41:17Z</time></trkpt><trkpt lat="39.54213105124878" lon="15.908230169817172"><ele>234.0</ele><time>2026-04-27T06:41:18Z</time></trkpt><trkpt lat="39.54224014525659" lon="15.908325860932274"><ele>242.25</ele><time>2026-04-27T06:41:19Z</time></trkpt><trkpt lat="39.54231754893356" lon="15.908452443497271"><ele>250.5</ele><time>2026-04-27T06:41:20Z</time></trkpt><trkpt lat="39.542376077338695" lon="15.908590290489627"><ele>258.75</ele><time>2026-04-27T06:41:21Z</time></trkpt><trkpt lat="39.542437343546275" lon="15.908706547101604"><ele>267.0</ele><time>2026-04-27T06:41:22Z</time></trkpt><trkpt lat="39.54246615249522" lon="15.9088331733836"><ele>267.0</ele><time>2026-04-27T06:41:23Z</time></trkpt><trkpt lat="39.54249117196835" lon="15.90896125179423"><ele>267.0</ele><time>2026-04-27T06:41:24Z</time></trkpt><trkpt lat="39.54253350050496" lon="15.909098878511907"><ele>267.0</ele><time>2026-04-27T06:41:25Z</time></trkpt><trkpt lat="39.54255163311574" lon="15.90921631033748"><ele>267.0</ele><time>2026-04-27T06:41:26Z</time></trkpt><trkpt lat="39.54259162468547" lon="15.90931454660176"><ele>267.0</ele><time>2026-04-27T06:41:27Z</time></trkpt><trkpt lat="39.5426012546626" lon="15.909413575159608"><ele>269.4</ele><time>2026-04-27T06:41:28Z</time></trkpt><trkpt lat="39.542594629810594" lon="15.909512776068256"><ele>271.79999999999995</ele><time>2026-04-27T06:41:29Z</time></trkpt><trkpt lat="39.54253565821626" lon="15.909599599050608"><ele>274.2</ele><time>2026-04-27T06:41:30Z</time></trkpt><trkpt lat="39.54244065345541" lon="15.909681868598232"><ele>276.59999999999997</ele><time>2026-04-27T06:41:31Z</time></trkpt><trkpt lat="39.54231874317074" lon="15.909764607916179"><ele>279.0</ele><time>2026-04-27T06:41:32Z</time></trkpt><trkpt lat="39.542215833874565" lon="15.909840979848836"><ele>279.0</ele><time>2026-04-27T06:41:33Z</time></trkpt><trkpt lat="39.54212799303025" lon="15.909910226466097"><ele>279.0</ele><time>2026-04-27T06:41:34Z</time></trkpt><trkpt lat="39.542046640699304" lon="15.909977356245898"><ele>279.0</ele><time>2026-04-27T06:41:35Z</time></trkpt><trkpt lat="39.54197965161237" lon="15.910088363118115"><ele>279.0</ele><time>2026-04-27T06:41:36Z</time></trkpt><trkpt lat="39.541929354879606" lon="15.910215430565662"><ele>279.0</ele><time>2026-04-27T06:41:37Z</time></trkpt><trkpt lat="39.541924680041284" lon="15.910378907555076"><ele>276.25</ele><time>2026-04-27T06:41:38Z</time></trkpt><trkpt lat="39.54191880905782" lon="15.91053974386447"><ele>273.5</ele><time>2026-04-27T06:41:39Z</time></trkpt><trkpt lat="39.54192450659319" lon="15.910700923031198"><ele>270.75</ele><time>2026-04-27T06:41:40Z</time></trkpt><trkpt lat="39.54192330127227" lon="15.910844463266491"><ele>268.0</ele><time>2026-04-27T06:41:41Z</time></trkpt><trkpt lat="39.541910478175325" lon="15.910972321522824"><ele>268.0</ele><time>2026-04-27T06:41:42Z</time></trkpt><trkpt lat="39.541880397677154" lon="15.911087433832375"><ele>268.0</ele><time>2026-04-27T06:41:43Z</time></trkpt><trkpt lat="39.54186184799517" lon="15.911191568325572"><ele>268.0</ele><time>2026-04-27T06:41:44Z</time></trkpt><trkpt lat="39.541843761526074" lon="15.911305350886945"><ele>268.0</ele><time>2026-04-27T06:41:45Z</time></trkpt><trkpt lat="39.541851505038096" lon="15.91142486914448"><ele>268.0</ele><time>2026-04-27T06:41:46Z</time></trkpt><trkpt lat="39.5418607893681" lon="15.911549440777115"><ele>268.0</ele><time>2026-04-27T06:41:47Z</time></trkpt><trkpt lat="39.541904784012154" lon="15.911692788895236"><ele>268.0</ele><time>2026-04-27T06:41:48Z</time></trkpt><trkpt lat="39.5419431363301" lon="15.911837888554123"><ele>268.0</ele><time>2026-04-27T06:41:49Z</time></trkpt><trkpt lat="39.54191199749833" lon="15.911988166282327"><ele>268.0</ele><time>2026-04-27T06:41:50Z</time></trkpt><trkpt lat="39.54187526101105" lon="15.912160693301068"><ele>268.66666666666663</ele><time>2026-04-27T06:41:51Z</time></trkpt><trkpt lat="39.541834295058464" lon="15.912360802383978"><ele>269.3333333333333</ele><time>2026-04-27T06:41:52Z</time></trkpt><trkpt lat="39.54180161150116" lon="15.912550493728517"><ele>270.0</ele><time>2026-04-27T06:41:53Z</time></trkpt><trkpt lat="39.54176398844315" lon="15.912761764939656"><ele>273.0</ele><time>2026-04-27T06:41:54Z</time></trkpt><trkpt lat="39.54172438342515" lon="15.912976571103039"><ele>276.0</ele><time>2026-04-27T06:41:55Z</time></trkpt><trkpt lat="39.541683313532516" lon="15.91320009842538"><ele>279.0</ele><time>2026-04-27T06:41:56Z</time></trkpt><trkpt lat="39.541661735075174" lon="15.913436341231538"><ele>281.0</ele><time>2026-04-27T06:41:57Z</time></trkpt><trkpt lat="39.54163618566836" lon="15.913661748381639"><ele>283.0</ele><time>2026-04-27T06:41:58Z</time></trkpt><trkpt lat="39.541592709802266" lon="15.913888328112282"><ele>285.0</ele><time>2026-04-27T06:41:59Z</time></trkpt><trkpt lat="39.54157194517851" lon="15.9141096648382"><ele>288.0</ele><time>2026-04-27T06:42:00Z</time></trkpt><trkpt lat="39.54156764037875" lon="15.914323021815475"><ele>291.0</ele><time>2026-04-27T06:42:01Z</time></trkpt><trkpt lat="39.541578475542686" lon="15.914527842602643"><ele>294.0</ele><time>2026-04-27T06:42:02Z</time></trkpt><trkpt lat="39.54153965225373" lon="15.914725586787533"><ele>294.0</ele><time>2026-04-27T06:42:03Z</time></trkpt><trkpt lat="39.541464126079546" lon="15.914915278377784"><ele>294.0</ele><time>2026-04-27T06:42:04Z</time></trkpt><trkpt lat="39.5413934674438" lon="15.915105266737973"><ele>294.0</ele><time>2026-04-27T06:42:05Z</time></trkpt><trkpt lat="39.54135260719623" lon="15.915277386267075"><ele>294.8</ele><time>2026-04-27T06:42:06Z</time></trkpt><trkpt lat="39.54129442703009" lon="15.91541660141527"><ele>295.59999999999997</ele><time>2026-04-27T06:42:07Z</time></trkpt><trkpt lat="39.54123217588767" lon="15.915519892397892"><ele>296.4</ele><time>2026-04-27T06:42:08Z</time></trkpt><trkpt lat="39.541181856446336" lon="15.915606648937294"><ele>297.2</ele><time>2026-04-27T06:42:09Z</time></trkpt><trkpt lat="39.541163224488436" lon="15.915701722411882"><ele>298.0</ele><time>2026-04-27T06:42:10Z</time></trkpt><trkpt lat="39.54118326718439" lon="15.91583162218196"><ele>298.0</ele><time>2026-04-27T06:42:12Z</time></trkpt><trkpt lat="39.54128241277548" lon="15.915876193824834"><ele>298.0</ele><time>2026-04-27T06:42:14Z</time></trkpt><trkpt lat="39.54138962112373" lon="15.9158448860941"><ele>298.0</ele><time>2026-04-27T06:42:16Z</time></trkpt><trkpt lat="39.54144683240482" lon="15.915784348299486"><ele>298.0</ele><time>2026-04-27T06:42:17Z</time></trkpt><trkpt lat="39.541498322036986" lon="15.9157058187898"><ele>298.0</ele><time>2026-04-27T06:42:17.999Z</time></trkpt><trkpt lat="39.541550776755436" lon="15.915636539694045"><ele>298.0</ele><time>2026-04-27T06:42:18.999Z</time></trkpt><trkpt lat="39.541609354042954" lon="15.915555080246351"><ele>298.0</ele><time>2026-04-27T06:42:19.999Z</time></trkpt><trkpt lat="39.541680040132164" lon="15.915466640222792"><ele>298.0</ele><time>2026-04-27T06:42:20.999Z</time></trkpt><trkpt lat="39.5417646476855" lon="15.91538327232084"><ele>298.0</ele><time>2026-04-27T06:42:21.999Z</time></trkpt><trkpt lat="39.541842844697975" lon="15.91529134783646"><ele>298.0</ele><time>2026-04-27T06:42:22.999Z</time></trkpt><trkpt lat="39.54190307647601" lon="15.915164113918374"><ele>298.0</ele><time>2026-04-27T06:42:23.999Z</time></trkpt><trkpt lat="39.541973753766705" lon="15.91502789090557"><ele>304.0</ele><time>2026-04-27T06:42:24.999Z</time></trkpt><trkpt lat="39.542052231257884" lon="15.914903086811593"><ele>310.0</ele><time>2026-04-27T06:42:25.999Z</time></trkpt><trkpt lat="39.54213341759331" lon="15.914802433517142"><ele>316.0</ele><time>2026-04-27T06:42:26.999Z</time></trkpt><trkpt lat="39.54223578663369" lon="15.91470893199152"><ele>322.0</ele><time>2026-04-27T06:42:27.999Z</time></trkpt><trkpt lat="39.54233330784265" lon="15.914621888815915"><ele>322.0</ele><time>2026-04-27T06:42:28.999Z</time></trkpt><trkpt lat="39.54243003601751" lon="15.914525433814184"><ele>322.0</ele><time>2026-04-27T06:42:29.999Z</time></trkpt><trkpt lat="39.542505294599906" lon="15.9144376184924"><ele>322.0</ele><time>2026-04-27T06:42:30.999Z</time></trkpt><trkpt lat="39.54257662062167" lon="15.914317085506188"><ele>322.0</ele><time>2026-04-27T06:42:31.999Z</time></trkpt><trkpt lat="39.54263140194768" lon="15.914169396867328"><ele>321.40000000000003</ele><time>2026-04-27T06:42:32.999Z</time></trkpt><trkpt lat="39.54267868170909" lon="15.914025899967818"><ele>320.8</ele><time>2026-04-27T06:42:33.999Z</time></trkpt><trkpt lat="39.54272191634813" lon="15.91392829781327"><ele>320.2</ele><time>2026-04-27T06:42:34.999Z</time></trkpt><trkpt lat="39.5427655039794" lon="15.913846856718022"><ele>319.6</ele><time>2026-04-27T06:42:35.999Z</time></trkpt><trkpt lat="39.54284242332904" lon="15.913770385563675"><ele>319.0</ele><time>2026-04-27T06:42:36.999Z</time></trkpt><trkpt lat="39.54294709302862" lon="15.913686635849304"><ele>322.6</ele><time>2026-04-27T06:42:37.999Z</time></trkpt><trkpt lat="39.543047098497475" lon="15.913614434365186"><ele>326.2</ele><time>2026-04-27T06:42:38.999Z</time></trkpt><trkpt lat="39.54312220336629" lon="15.913560385719274"><ele>329.8</ele><time>2026-04-27T06:42:39.999Z</time></trkpt><trkpt lat="39.543201856260126" lon="15.913477555180748"><ele>333.40000000000003</ele><time>2026-04-27T06:42:40.999Z</time></trkpt><trkpt lat="39.54327757689591" lon="15.913371148696172"><ele>337.0</ele><time>2026-04-27T06:42:41.999Z</time></trkpt><trkpt lat="39.5433488327439" lon="15.913259609701933"><ele>337.0</ele><time>2026-04-27T06:42:42.999Z</time></trkpt><trkpt lat="39.54342488167063" lon="15.913153749277429"><ele>337.0</ele><time>2026-04-27T06:42:43.999Z</time></trkpt><trkpt lat="39.543446308461256" lon="15.91300175759461"><ele>337.0</ele><time>2026-04-27T06:42:44.999Z</time></trkpt><trkpt lat="39.543470640863994" lon="15.912864672612173"><ele>337.0</ele><time>2026-04-27T06:42:45.999Z</time></trkpt><trkpt lat="39.543500886292435" lon="15.912757045024872"><ele>337.0</ele><time>2026-04-27T06:42:46.999Z</time></trkpt><trkpt lat="39.54353601813447" lon="15.912679257068547"><ele>337.0</ele><time>2026-04-27T06:42:47.999Z</time></trkpt><trkpt lat="39.54357907773277" lon="15.912618468859195"><ele>337.0</ele><time>2026-04-27T06:42:48.999Z</time></trkpt><trkpt lat="39.543629680615666" lon="15.91254806070722"><ele>337.0</ele><time>2026-04-27T06:42:49.999Z</time></trkpt><trkpt lat="39.54369733275488" lon="15.912486372139988"><ele>337.0</ele><time>2026-04-27T06:42:50.999Z</time></trkpt><trkpt lat="39.54376252927323" lon="15.912433947924793"><ele>337.0</ele><time>2026-04-27T06:42:51.999Z</time></trkpt><trkpt lat="39.54382544175948" lon="15.91237413248063"><ele>337.0</ele><time>2026-04-27T06:42:52.999Z</time></trkpt><trkpt lat="39.54389614465474" lon="15.912298889486634"><ele>339.8</ele><time>2026-04-27T06:42:53.999Z</time></trkpt><trkpt lat="39.543975612466745" lon="15.912217401441536"><ele>342.6</ele><time>2026-04-27T06:42:54.999Z</time></trkpt><trkpt lat="39.544068107241664" lon="15.912131856212435"><ele>345.40000000000003</ele><time>2026-04-27T06:42:55.999Z</time></trkpt><trkpt lat="39.544160901849494" lon="15.912038819550812"><ele>348.20000000000005</ele><time>2026-04-27T06:42:56.999Z</time></trkpt><trkpt lat="39.54425177584189" lon="15.911949578086793"><ele>351.0</ele><time>2026-04-27T06:42:57.999Z</time></trkpt><trkpt lat="39.544331996483464" lon="15.911864864915536"><ele>351.0</ele><time>2026-04-27T06:42:58.999Z</time></trkpt><trkpt lat="39.54439664218817" lon="15.911788426732558"><ele>351.0</ele><time>2026-04-27T06:42:59.999Z</time></trkpt><trkpt lat="39.54446383827109" lon="15.9117021243937"><ele>351.0</ele><time>2026-04-27T06:43:00.999Z</time></trkpt><trkpt lat="39.54455103724304" lon="15.911603841397111"><ele>351.0</ele><time>2026-04-27T06:43:01.999Z</time></trkpt><trkpt lat="39.544646629324546" lon="15.911511091739131"><ele>351.0</ele><time>2026-04-27T06:43:03Z</time></trkpt><trkpt lat="39.544722585030065" lon="15.911427305645903"><ele>354.4</ele><time>2026-04-27T06:43:04Z</time></trkpt><trkpt lat="39.54478824364917" lon="15.911331714828362"><ele>357.8</ele><time>2026-04-27T06:43:05Z</time></trkpt><trkpt lat="39.54484734059186" lon="15.911214602039944"><ele>361.2</ele><time>2026-04-27T06:43:06Z</time></trkpt><trkpt lat="39.54489911151144" lon="15.911096479406611"><ele>364.59999999999997</ele><time>2026-04-27T06:43:07Z</time></trkpt><trkpt lat="39.544949360094634" lon="15.911000115360201"><ele>368.0</ele><time>2026-04-27T06:43:08Z</time></trkpt><trkpt lat="39.54500444529619" lon="15.910927768087255"><ele>366.5</ele><time>2026-04-27T06:43:09Z</time></trkpt><trkpt lat="39.54507471256761" lon="15.910876822829744"><ele>365.0</ele><time>2026-04-27T06:43:10Z</time></trkpt><trkpt lat="39.545150562386226" lon="15.910838290605085"><ele>363.5</ele><time>2026-04-27T06:43:11Z</time></trkpt><trkpt lat="39.545214846357844" lon="15.910744779706594"><ele>362.0</ele><time>2026-04-27T06:43:13Z</time></trkpt><trkpt lat="39.54517445977422" lon="15.910639424626114"><ele>360.5</ele><time>2026-04-27T06:43:14Z</time></trkpt><trkpt lat="39.5451456997127" lon="15.910518546619707"><ele>359.0</ele><time>2026-04-27T06:43:15Z</time></trkpt><trkpt lat="39.54512705741209" lon="15.910381178192667"><ele>359.0</ele><time>2026-04-27T06:43:16Z</time></trkpt><trkpt lat="39.54513706924147" lon="15.91024819450597"><ele>359.0</ele><time>2026-04-27T06:43:17Z</time></trkpt><trkpt lat="39.5451629344396" lon="15.910149424430665"><ele>359.0</ele><time>2026-04-27T06:43:18Z</time></trkpt><trkpt lat="39.545220747623524" lon="15.910056775910038"><ele>359.0</ele><time>2026-04-27T06:43:20Z</time></trkpt><trkpt lat="39.545285142464316" lon="15.910062178541375"><ele>359.0</ele><time>2026-04-27T06:44:16Z</time></trkpt><trkpt lat="39.54536067054276" lon="15.91008170505556"><ele>359.0</ele><time>2026-04-27T06:44:19Z</time></trkpt><trkpt lat="39.545431020028474" lon="15.910065254783872"><ele>360.83333333333337</ele><time>2026-04-27T06:44:22Z</time></trkpt><trkpt lat="39.54549662420304" lon="15.910034838434381"><ele>362.6666666666667</ele><time>2026-04-27T06:44:23.999Z</time></trkpt><trkpt lat="39.5455866666883" lon="15.910025367160287"><ele>364.5</ele><time>2026-04-27T06:44:25.999Z</time></trkpt><trkpt lat="39.545679500912534" lon="15.910024626175575"><ele>366.3333333333333</ele><time>2026-04-27T06:44:27.999Z</time></trkpt><trkpt lat="39.545780738650166" lon="15.91007684678579"><ele>368.16666666666663</ele><time>2026-04-27T06:44:29.999Z</time></trkpt><trkpt lat="39.54584478744959" lon="15.910136074031971"><ele>370.0</ele><time>2026-04-27T06:44:30.999Z</time></trkpt><trkpt lat="39.54591239253474" lon="15.91020294071019"><ele>372.5</ele><time>2026-04-27T06:44:31.999Z</time></trkpt><trkpt lat="39.54597715362373" lon="15.910272612575726"><ele>375.0</ele><time>2026-04-27T06:44:32.999Z</time></trkpt><trkpt lat="39.54604358777636" lon="15.910342628875721"><ele>377.5</ele><time>2026-04-27T06:44:33.999Z</time></trkpt><trkpt lat="39.54610514072668" lon="15.910404674693043"><ele>380.0</ele><time>2026-04-27T06:44:34.999Z</time></trkpt><trkpt lat="39.54618066185785" lon="15.910462253819828"><ele>382.50000000000006</ele><time>2026-04-27T06:44:35.999Z</time></trkpt><trkpt lat="39.546259750119" lon="15.910535163749486"><ele>385.0</ele><time>2026-04-27T06:44:36.999Z</time></trkpt><trkpt lat="39.54635068933489" lon="15.91063049942202"><ele>387.0</ele><time>2026-04-27T06:44:37.999Z</time></trkpt><trkpt lat="39.54643189544777" lon="15.910720978478285"><ele>389.0</ele><time>2026-04-27T06:44:38.999Z</time></trkpt><trkpt lat="39.546505936591245" lon="15.910806574069513"><ele>391.0</ele><time>2026-04-27T06:44:39.999Z</time></trkpt><trkpt lat="39.54658564934398" lon="15.91088341701204"><ele>393.0</ele><time>2026-04-27T06:44:40.999Z</time></trkpt><trkpt lat="39.54666744292245" lon="15.9109232131393"><ele>395.0</ele><time>2026-04-27T06:44:41.999Z</time></trkpt><trkpt lat="39.54675339553469" lon="15.910954926576936"><ele>399.75</ele><time>2026-04-27T06:44:42.999Z</time></trkpt><trkpt lat="39.54687396538256" lon="15.91100091012283"><ele>404.5</ele><time>2026-04-27T06:44:43.999Z</time></trkpt><trkpt lat="39.547007587357434" lon="15.91104835755569"><ele>409.25</ele><time>2026-04-27T06:44:44.999Z</time></trkpt><trkpt lat="39.547139830937226" lon="15.911097021723995"><ele>414.0</ele><time>2026-04-27T06:44:45.999Z</time></trkpt><trkpt lat="39.54726018647863" lon="15.911164787983205"><ele>415.4</ele><time>2026-04-27T06:44:46.999Z</time></trkpt><trkpt lat="39.54734378616041" lon="15.911211044709281"><ele>416.79999999999995</ele><time>2026-04-27T06:44:47.999Z</time></trkpt><trkpt lat="39.54741645886255" lon="15.911232083414195"><ele>418.20000000000005</ele><time>2026-04-27T06:44:48.999Z</time></trkpt><trkpt lat="39.54750032676801" lon="15.911224817278558"><ele>419.6</ele><time>2026-04-27T06:44:49.999Z</time></trkpt><trkpt lat="39.54759225069748" lon="15.911200142216211"><ele>421.0</ele><time>2026-04-27T06:44:50.999Z</time></trkpt><trkpt lat="39.54767549101054" lon="15.911100856244639"><ele>421.0</ele><time>2026-04-27T06:44:51.999Z</time></trkpt><trkpt lat="39.54777043552834" lon="15.911009414271446"><ele>421.0</ele><time>2026-04-27T06:44:52.999Z</time></trkpt><trkpt lat="39.547854346621705" lon="15.910973042201855"><ele>421.0</ele><time>2026-04-27T06:44:53.999Z</time></trkpt><trkpt lat="39.54797464529797" lon="15.910988382159594"><ele>421.0</ele><time>2026-04-27T06:44:55.999Z</time></trkpt><trkpt lat="39.54804411708869" lon="15.91100849484196"><ele>421.0</ele><time>2026-04-27T06:44:56.999Z</time></trkpt><trkpt lat="39.54810544418505" lon="15.911135004934414"><ele>421.25</ele><time>2026-04-27T06:44:58.999Z</time></trkpt><trkpt lat="39.54804759200608" lon="15.911280025651072"><ele>421.5</ele><time>2026-04-27T06:45:00.999Z</time></trkpt><trkpt lat="39.548023462172765" lon="15.911410857422899"><ele>421.75</ele><time>2026-04-27T06:45:01.999Z</time></trkpt><trkpt lat="39.547971775911016" lon="15.911557326743578"><ele>422.0</ele><time>2026-04-27T06:45:02.999Z</time></trkpt><trkpt lat="39.5479098890379" lon="15.91168072815652"><ele>425.99999999999994</ele><time>2026-04-27T06:45:03.999Z</time></trkpt><trkpt lat="39.54786853354631" lon="15.911748460718416"><ele>430.0</ele><time>2026-04-27T06:45:04.999Z</time></trkpt><trkpt lat="39.54781572400629" lon="15.911801125163379"><ele>434.0</ele><time>2026-04-27T06:45:05.999Z</time></trkpt><trkpt lat="39.54772864095037" lon="15.911892632363063"><ele>438.0</ele><time>2026-04-27T06:45:06.999Z</time></trkpt><trkpt lat="39.547635964320975" lon="15.91195713179272"><ele>441.99999999999994</ele><time>2026-04-27T06:45:07.999Z</time></trkpt><trkpt lat="39.5475492585581" lon="15.911983324393612"><ele>446.0</ele><time>2026-04-27T06:45:09Z</time></trkpt><trkpt lat="39.54744486506251" lon="15.911944166173171"><ele>446.0</ele><time>2026-04-27T06:45:10Z</time></trkpt><trkpt lat="39.547349507286455" lon="15.911993338068516"><ele>446.0</ele><time>2026-04-27T06:45:11Z</time></trkpt><trkpt lat="39.54723764333359" lon="15.912020739788773"><ele>446.0</ele><time>2026-04-27T06:45:12Z</time></trkpt><trkpt lat="39.547141236277426" lon="15.912049223335655"><ele>446.0</ele><time>2026-04-27T06:45:13Z</time></trkpt><trkpt lat="39.5470774254288" lon="15.912106100512881"><ele>446.0</ele><time>2026-04-27T06:45:15Z</time></trkpt><trkpt lat="39.54711162227849" lon="15.912260263724963"><ele>446.0</ele><time>2026-04-27T06:45:17Z</time></trkpt><trkpt lat="39.547154964806445" lon="15.912357785009936"><ele>446.0</ele><time>2026-04-27T06:45:18Z</time></trkpt><trkpt lat="39.54718989528895" lon="15.912496691875283"><ele>446.0</ele><time>2026-04-27T06:45:19Z</time></trkpt><trkpt lat="39.54724145149697" lon="15.912631198472253"><ele>446.0</ele><time>2026-04-27T06:45:20Z</time></trkpt><trkpt lat="39.54728625913794" lon="15.912744730244164"><ele>446.0</ele><time>2026-04-27T06:45:21Z</time></trkpt><trkpt lat="39.54733054990666" lon="15.912851963470231"><ele>448.4</ele><time>2026-04-27T06:45:22Z</time></trkpt><trkpt lat="39.54736338024796" lon="15.912943062487845"><ele>450.8</ele><time>2026-04-27T06:45:23Z</time></trkpt><trkpt lat="39.547404984630546" lon="15.913035018096492"><ele>453.19999999999993</ele><time>2026-04-27T06:45:24Z</time></trkpt><trkpt lat="39.54739851992555" lon="15.913125099456387"><ele>455.59999999999997</ele><time>2026-04-27T06:45:25Z</time></trkpt><trkpt lat="39.54733932328678" lon="15.913208044762605"><ele>458.0</ele><time>2026-04-27T06:45:26Z</time></trkpt><trkpt lat="39.54715134819737" lon="15.913145228469014"><ele>458.0</ele><time>2026-04-27T06:45:27Z</time></trkpt><trkpt lat="39.547079845895354" lon="15.913279579974255"><ele>457.99999999999994</ele><time>2026-04-27T06:45:29Z</time></trkpt><trkpt lat="39.54711298559059" lon="15.913431992883144"><ele>457.99999999999994</ele><time>2026-04-27T06:45:31Z</time></trkpt><trkpt lat="39.54711013997594" lon="15.913528829984159"><ele>458.0</ele><time>2026-04-27T06:45:32Z</time></trkpt><trkpt lat="39.54716797509861" lon="15.913615515545233"><ele>458.0</ele><time>2026-04-27T06:45:33Z</time></trkpt><trkpt lat="39.54721716515909" lon="15.913694328281975"><ele>459.66666666666663</ele><time>2026-04-27T06:45:34Z</time></trkpt><trkpt lat="39.54726095524804" lon="15.91376448921109"><ele>461.3333333333333</ele><time>2026-04-27T06:45:35Z</time></trkpt><trkpt lat="39.54731695964138" lon="15.913846146370588"><ele>463.0</ele><time>2026-04-27T06:45:36Z</time></trkpt><trkpt lat="39.5473797908514" lon="15.913912993041716"><ele>464.66666666666663</ele><time>2026-04-27T06:45:37Z</time></trkpt><trkpt lat="39.547475990798794" lon="15.913944328200156"><ele>466.3333333333333</ele><time>2026-04-27T06:45:38Z</time></trkpt><trkpt lat="39.54756141834207" lon="15.914004160786208"><ele>468.0</ele><time>2026-04-27T06:45:39Z</time></trkpt><trkpt lat="39.54762408311717" lon="15.914045853543936"><ele>468.0</ele><time>2026-04-27T06:45:40Z</time></trkpt><trkpt lat="39.547687999160026" lon="15.914083476884779"><ele>468.0</ele><time>2026-04-27T06:45:42Z</time></trkpt><trkpt lat="39.54775223980753" lon="15.914098721484553"><ele>468.0</ele><time>2026-04-27T06:45:45Z</time></trkpt><trkpt lat="39.54784184077399" lon="15.914142186491391"><ele>468.0</ele><time>2026-04-27T06:45:47Z</time></trkpt><trkpt lat="39.54785043847918" lon="15.914247368294754"><ele>468.0</ele><time>2026-04-27T06:45:49Z</time></trkpt><trkpt lat="39.54779739108218" lon="15.914303013731406"><ele>468.0</ele><time>2026-04-27T06:45:50Z</time></trkpt><trkpt lat="39.547713307276574" lon="15.914312771050339"><ele>468.8333333333333</ele><time>2026-04-27T06:45:52Z</time></trkpt><trkpt lat="39.547626286414996" lon="15.914361840348395"><ele>469.66666666666663</ele><time>2026-04-27T06:45:53Z</time></trkpt><trkpt lat="39.547578214284805" lon="15.91442936116163"><ele>470.5</ele><time>2026-04-27T06:45:54Z</time></trkpt><trkpt lat="39.54757832277156" lon="15.914511139435785"><ele>471.3333333333333</ele><time>2026-04-27T06:45:55Z</time></trkpt><trkpt lat="39.54761355164149" lon="15.914605789530553"><ele>472.16666666666663</ele><time>2026-04-27T06:45:56Z</time></trkpt><trkpt lat="39.54764262479141" lon="15.914724562281593"><ele>473.0</ele><time>2026-04-27T06:45:57Z</time></trkpt><trkpt lat="39.54767391821421" lon="15.914836406926053"><ele>473.0</ele><time>2026-04-27T06:45:58Z</time></trkpt><trkpt lat="39.547720549832846" lon="15.914939889254617"><ele>472.99999999999994</ele><time>2026-04-27T06:45:59Z</time></trkpt><trkpt lat="39.54776915387164" lon="15.915066188813698"><ele>472.99999999999994</ele><time>2026-04-27T06:46:00Z</time></trkpt><trkpt lat="39.54782766471725" lon="15.915207236322855"><ele>473.0</ele><time>2026-04-27T06:46:01Z</time></trkpt><trkpt lat="39.547885250490864" lon="15.915337320890172"><ele>473.0</ele><time>2026-04-27T06:46:02Z</time></trkpt><trkpt lat="39.54793537492898" lon="15.91544090749748"><ele>476.4</ele><time>2026-04-27T06:46:03Z</time></trkpt><trkpt lat="39.54798564579343" lon="15.915519398174226"><ele>479.79999999999995</ele><time>2026-04-27T06:46:04Z</time></trkpt><trkpt lat="39.54811750108254" lon="15.915575057413612"><ele>483.2</ele><time>2026-04-27T06:46:06Z</time></trkpt><trkpt lat="39.548183950462764" lon="15.91559805921872"><ele>486.6</ele><time>2026-04-27T06:46:08Z</time></trkpt><trkpt lat="39.54826116212504" lon="15.915637546732514"><ele>490.0</ele><time>2026-04-27T06:46:11Z</time></trkpt><trkpt lat="39.54837277534586" lon="15.915747627570783"><ele>490.0</ele><time>2026-04-27T06:46:13Z</time></trkpt><trkpt lat="39.54846618862462" lon="15.915842891818038"><ele>490.0</ele><time>2026-04-27T06:46:14Z</time></trkpt><trkpt lat="39.548547175111075" lon="15.91597049406486"><ele>490.0</ele><time>2026-04-27T06:46:15Z</time></trkpt><trkpt lat="39.548623807666715" lon="15.916061120055945"><ele>490.0</ele><time>2026-04-27T06:46:16Z</time></trkpt><trkpt lat="39.54868653951598" lon="15.91615882173291"><ele>490.0</ele><time>2026-04-27T06:46:17Z</time></trkpt><trkpt lat="39.548727325647405" lon="15.916259957855653"><ele>493.4</ele><time>2026-04-27T06:46:18Z</time></trkpt><trkpt lat="39.548789230085646" lon="15.9163533316512"><ele>496.8</ele><time>2026-04-27T06:46:20Z</time></trkpt><trkpt lat="39.54889311016798" lon="15.916258106813496"><ele>500.20000000000005</ele><time>2026-04-27T06:46:22Z</time></trkpt><trkpt lat="39.548922179589084" lon="15.916182725191687"><ele>503.6</ele><time>2026-04-27T06:46:23Z</time></trkpt><trkpt lat="39.548951036838105" lon="15.916082496750718"><ele>507.0</ele><time>2026-04-27T06:46:24Z</time></trkpt><trkpt lat="39.548976086742385" lon="15.915972369432648"><ele>507.6</ele><time>2026-04-27T06:46:25Z</time></trkpt><trkpt lat="39.54900535764449" lon="15.915845734747176"><ele>508.20000000000005</ele><time>2026-04-27T06:46:26Z</time></trkpt><trkpt lat="39.5490369906286" lon="15.915726087796681"><ele>508.8</ele><time>2026-04-27T06:46:26.999Z</time></trkpt><trkpt lat="39.54906292247509" lon="15.915629588276639"><ele>509.4</ele><time>2026-04-27T06:46:27.999Z</time></trkpt><trkpt lat="39.54913334417404" lon="15.915563448751355"><ele>510.0</ele><time>2026-04-27T06:46:29.999Z</time></trkpt><trkpt lat="39.549210581118636" lon="15.915629604694546"><ele>510.0</ele><time>2026-04-27T06:46:31.999Z</time></trkpt><trkpt lat="39.54926873159197" lon="15.915663108330271"><ele>510.0</ele><time>2026-04-27T06:46:32.999Z</time></trkpt><trkpt lat="39.549326755613556" lon="15.915733854596768"><ele>510.0</ele><time>2026-04-27T06:46:33.999Z</time></trkpt><trkpt lat="39.54938714569946" lon="15.915833428777445"><ele>510.0</ele><time>2026-04-27T06:46:34.999Z</time></trkpt><trkpt lat="39.54945558926075" lon="15.915929794304017"><ele>510.0</ele><time>2026-04-27T06:46:35.999Z</time></trkpt><trkpt lat="39.54951586614293" lon="15.91602547288251"><ele>510.0</ele><time>2026-04-27T06:46:36.999Z</time></trkpt><trkpt lat="39.549564518949914" lon="15.916142995839886"><ele>513.4</ele><time>2026-04-27T06:46:37.999Z</time></trkpt><trkpt lat="39.549641435737875" lon="15.916255112588077"><ele>516.8</ele><time>2026-04-27T06:46:38.999Z</time></trkpt><trkpt lat="39.54971192891708" lon="15.916339847849292"><ele>520.2</ele><time>2026-04-27T06:46:39.999Z</time></trkpt><trkpt lat="39.549781633290564" lon="15.916408958900613"><ele>523.6</ele><time>2026-04-27T06:46:40.999Z</time></trkpt><trkpt lat="39.54986127295316" lon="15.916487721619205"><ele>527.0</ele><time>2026-04-27T06:46:41.999Z</time></trkpt><trkpt lat="39.54994908392475" lon="15.916568012257397"><ele>527.0</ele><time>2026-04-27T06:46:42.999Z</time></trkpt><trkpt lat="39.55002924324605" lon="15.916642624397781"><ele>527.0</ele><time>2026-04-27T06:46:43.999Z</time></trkpt><trkpt lat="39.55011713752069" lon="15.916723376817048"><ele>527.0</ele><time>2026-04-27T06:46:44.999Z</time></trkpt><trkpt lat="39.55020722828015" lon="15.916795485929452"><ele>527.0</ele><time>2026-04-27T06:46:45.999Z</time></trkpt><trkpt lat="39.55030003850781" lon="15.916846039032036"><ele>527.0</ele><time>2026-04-27T06:46:46.999Z</time></trkpt><trkpt lat="39.55039427643869" lon="15.916885832456103"><ele>529.6</ele><time>2026-04-27T06:46:47.999Z</time></trkpt><trkpt lat="39.55046727828322" lon="15.916925385870323"><ele>532.2</ele><time>2026-04-27T06:46:48.999Z</time></trkpt><trkpt lat="39.550570148835654" lon="15.916945974542838"><ele>534.8</ele><time>2026-04-27T06:46:49.999Z</time></trkpt><trkpt lat="39.5506985913395" lon="15.916970757581275"><ele>537.4</ele><time>2026-04-27T06:46:50.999Z</time></trkpt><trkpt lat="39.55081954731249" lon="15.916993985339735"><ele>540.0</ele><time>2026-04-27T06:46:51.999Z</time></trkpt><trkpt lat="39.550920810489195" lon="15.917012314921436"><ele>540.0</ele><time>2026-04-27T06:46:52.999Z</time></trkpt><trkpt lat="39.551016408230595" lon="15.917042709362537"><ele>540.0</ele><time>2026-04-27T06:46:53.999Z</time></trkpt><trkpt lat="39.55110563391554" lon="15.917039899738871"><ele>540.0</ele><time>2026-04-27T06:46:54.999Z</time></trkpt><trkpt lat="39.55118066176516" lon="15.917024709665633"><ele>540.0</ele><time>2026-04-27T06:46:55.999Z</time></trkpt><trkpt lat="39.55130795890501" lon="15.916973116960918"><ele>540.0</ele><time>2026-04-27T06:46:57.999Z</time></trkpt><trkpt lat="39.551414577566725" lon="15.916937431589965"><ele>542.6</ele><time>2026-04-27T06:46:58.999Z</time></trkpt><trkpt lat="39.551535421288044" lon="15.916866209958533"><ele>545.2</ele><time>2026-04-27T06:46:59.999Z</time></trkpt><trkpt lat="39.55164809895859" lon="15.91681131058164"><ele>547.8</ele><time>2026-04-27T06:47:00.999Z</time></trkpt><trkpt lat="39.5517239439651" lon="15.916747857254743"><ele>550.4</ele><time>2026-04-27T06:47:01.999Z</time></trkpt><trkpt lat="39.55176759843602" lon="15.916674826908292"><ele>553.0</ele><time>2026-04-27T06:47:02.999Z</time></trkpt><trkpt lat="39.55181255525593" lon="15.916588652652566"><ele>553.0</ele><time>2026-04-27T06:47:03.999Z</time></trkpt><trkpt lat="39.55185566976249" lon="15.916517747867685"><ele>553.0</ele><time>2026-04-27T06:47:04.999Z</time></trkpt><trkpt lat="39.55192079312742" lon="15.916528499919368"><ele>553.0</ele><time>2026-04-27T06:47:05.999Z</time></trkpt><trkpt lat="39.551995992647655" lon="15.916540408265401"><ele>553.0</ele><time>2026-04-27T06:47:06.999Z</time></trkpt><trkpt lat="39.55208433208977" lon="15.916619530022619"><ele>553.0</ele><time>2026-04-27T06:47:07.999Z</time></trkpt><trkpt lat="39.552184778323" lon="15.916675633087568"><ele>553.0</ele><time>2026-04-27T06:47:08.999Z</time></trkpt><trkpt lat="39.55228730081132" lon="15.916757370456358"><ele>559.25</ele><time>2026-04-27T06:47:09.999Z</time></trkpt><trkpt lat="39.552405750919554" lon="15.91685813055625"><ele>565.5</ele><time>2026-04-27T06:47:10.999Z</time></trkpt><trkpt lat="39.55251062728958" lon="15.9169715909903"><ele>571.75</ele><time>2026-04-27T06:47:11.999Z</time></trkpt><trkpt lat="39.55261412715722" lon="15.917087994138656"><ele>578.0</ele><time>2026-04-27T06:47:12.999Z</time></trkpt><trkpt lat="39.55268773542312" lon="15.917210349834495"><ele>578.0</ele><time>2026-04-27T06:47:14Z</time></trkpt><trkpt lat="39.552760267330136" lon="15.917300312382912"><ele>578.0</ele><time>2026-04-27T06:47:15Z</time></trkpt><trkpt lat="39.552813382843865" lon="15.917362831952907"><ele>578.0</ele><time>2026-04-27T06:47:16Z</time></trkpt><trkpt lat="39.55286564830615" lon="15.917423778812775"><ele>578.0</ele><time>2026-04-27T06:47:18Z</time></trkpt><trkpt lat="39.5528110382869" lon="15.917516280633267"><ele>578.0</ele><time>2026-04-27T06:47:20Z</time></trkpt><trkpt lat="39.55271959367551" lon="15.91745484475397"><ele>578.0</ele><time>2026-04-27T06:47:22Z</time></trkpt><trkpt lat="39.55264097090558" lon="15.917446576783513"><ele>578.0</ele><time>2026-04-27T06:47:23Z</time></trkpt><trkpt lat="39.5525542438167" lon="15.917446487780916"><ele>578.0</ele><time>2026-04-27T06:47:24Z</time></trkpt><trkpt lat="39.55247994352819" lon="15.917468206420052"><ele>578.0</ele><time>2026-04-27T06:47:25Z</time></trkpt><trkpt lat="39.55241438631823" lon="15.917516941957496"><ele>578.0</ele><time>2026-04-27T06:47:26Z</time></trkpt><trkpt lat="39.552362307815145" lon="15.917603044330614"><ele>578.0</ele><time>2026-04-27T06:47:27Z</time></trkpt><trkpt lat="39.552320194323016" lon="15.917711417582117"><ele>578.0</ele><time>2026-04-27T06:47:28Z</time></trkpt><trkpt lat="39.55229209082407" lon="15.917819172380039"><ele>578.25</ele><time>2026-04-27T06:47:29Z</time></trkpt><trkpt lat="39.552305896328605" lon="15.917991549633003"><ele>578.5</ele><time>2026-04-27T06:47:31Z</time></trkpt><trkpt lat="39.552323730315926" lon="15.918085068792765"><ele>578.75</ele><time>2026-04-27T06:47:32Z</time></trkpt><trkpt lat="39.55249188107853" lon="15.918187913761528"><ele>579.0</ele><time>2026-04-27T06:47:34Z</time></trkpt><trkpt lat="39.5525786476756" lon="15.918247084640457"><ele>579.0</ele><time>2026-04-27T06:47:35Z</time></trkpt><trkpt lat="39.552665843946606" lon="15.918298633696955"><ele>579.0</ele><time>2026-04-27T06:47:36Z</time></trkpt><trkpt lat="39.55274632525318" lon="15.918338005361218"><ele>579.0</ele><time>2026-04-27T06:47:37Z</time></trkpt><trkpt lat="39.55283315202887" lon="15.918339885547743"><ele>579.0</ele><time>2026-04-27T06:47:38Z</time></trkpt><trkpt lat="39.55291356948541" lon="15.918333618270433"><ele>579.0</ele><time>2026-04-27T06:47:39Z</time></trkpt><trkpt lat="39.55302996540146" lon="15.918421128679391"><ele>580.5</ele><time>2026-04-27T06:47:41Z</time></trkpt><trkpt lat="39.553123168520926" lon="15.918515165765047"><ele>582.0</ele><time>2026-04-27T06:47:42Z</time></trkpt><trkpt lat="39.55325385038025" lon="15.918618158877754"><ele>583.5</ele><time>2026-04-27T06:47:43Z</time></trkpt><trkpt lat="39.55339218071473" lon="15.918735166652255"><ele>585.0</ele><time>2026-04-27T06:47:44Z</time></trkpt><trkpt lat="39.55354067914415" lon="15.918843938337503"><ele>585.0</ele><time>2026-04-27T06:47:45Z</time></trkpt><trkpt lat="39.55367247715067" lon="15.91894911822924"><ele>585.0</ele><time>2026-04-27T06:47:46Z</time></trkpt><trkpt lat="39.55379734126549" lon="15.919054439348468"><ele>585.0</ele><time>2026-04-27T06:47:47Z</time></trkpt><trkpt lat="39.55392436654936" lon="15.91917607780016"><ele>586.25</ele><time>2026-04-27T06:47:48Z</time></trkpt><trkpt lat="39.554051732748825" lon="15.919295438128206"><ele>587.5</ele><time>2026-04-27T06:47:49Z</time></trkpt><trkpt lat="39.554174689984656" lon="15.919400299796688"><ele>588.75</ele><time>2026-04-27T06:47:50Z</time></trkpt><trkpt lat="39.55428766635866" lon="15.919501166051452"><ele>590.0</ele><time>2026-04-27T06:47:51Z</time></trkpt><trkpt lat="39.55438367699723" lon="15.91960127165927"><ele>590.0</ele><time>2026-04-27T06:47:52Z</time></trkpt><trkpt lat="39.55447029932429" lon="15.919721601574635"><ele>590.0</ele><time>2026-04-27T06:47:53Z</time></trkpt><trkpt lat="39.5545380580528" lon="15.919899014191007"><ele>590.0</ele><time>2026-04-27T06:47:54Z</time></trkpt><trkpt lat="39.55463822848929" lon="15.920021569848688"><ele>590.0</ele><time>2026-04-27T06:47:55Z</time></trkpt><trkpt lat="39.55474461625486" lon="15.92015379267325"><ele>590.75</ele><time>2026-04-27T06:47:56Z</time></trkpt><trkpt lat="39.55486485236761" lon="15.920293027579028"><ele>591.5</ele><time>2026-04-27T06:47:57Z</time></trkpt><trkpt lat="39.55496840211263" lon="15.920425002930799"><ele>592.25</ele><time>2026-04-27T06:47:58Z</time></trkpt><trkpt lat="39.5550651113689" lon="15.920539195869313"><ele>593.0</ele><time>2026-04-27T06:47:59Z</time></trkpt><trkpt lat="39.55517291589232" lon="15.9206308870748"><ele>593.0</ele><time>2026-04-27T06:48:00Z</time></trkpt><trkpt lat="39.55530624248031" lon="15.920723319480256"><ele>593.0</ele><time>2026-04-27T06:48:01Z</time></trkpt><trkpt lat="39.55544912352828" lon="15.920815090373788"><ele>593.0</ele><time>2026-04-27T06:48:02Z</time></trkpt><trkpt lat="39.55556948269759" lon="15.920898098017187"><ele>593.0</ele><time>2026-04-27T06:48:03Z</time></trkpt><trkpt lat="39.55567613456098" lon="15.920974133942774"><ele>595.8</ele><time>2026-04-27T06:48:04Z</time></trkpt><trkpt lat="39.555780672065225" lon="15.921066792749325"><ele>598.5999999999999</ele><time>2026-04-27T06:48:05Z</time></trkpt><trkpt lat="39.55587252821511" lon="15.92117251564991"><ele>601.4000000000001</ele><time>2026-04-27T06:48:06Z</time></trkpt><trkpt lat="39.555952168675155" lon="15.921259222730367"><ele>604.2</ele><time>2026-04-27T06:48:07Z</time></trkpt><trkpt lat="39.55602378212087" lon="15.921339825790312"><ele>607.0</ele><time>2026-04-27T06:48:08Z</time></trkpt><trkpt lat="39.556091634739346" lon="15.921404104495041"><ele>607.0</ele><time>2026-04-27T06:48:09Z</time></trkpt><trkpt lat="39.556147960010726" lon="15.921454794185431"><ele>607.0</ele><time>2026-04-27T06:48:10Z</time></trkpt><trkpt lat="39.55623036568079" lon="15.921532488676753"><ele>607.0</ele><time>2026-04-27T06:48:12Z</time></trkpt><trkpt lat="39.55631048118905" lon="15.921632025355505"><ele>607.0</ele><time>2026-04-27T06:48:14Z</time></trkpt><trkpt lat="39.556351386917996" lon="15.921702439463362"><ele>607.0</ele><time>2026-04-27T06:48:15Z</time></trkpt><trkpt lat="39.556400143877156" lon="15.92178799781007"><ele>607.0</ele><time>2026-04-27T06:48:16Z</time></trkpt><trkpt lat="39.55645620525123" lon="15.921874176023675"><ele>610.6666666666667</ele><time>2026-04-27T06:48:17Z</time></trkpt><trkpt lat="39.5565158953652" lon="15.921964367474796"><ele>614.3333333333334</ele><time>2026-04-27T06:48:18Z</time></trkpt><trkpt lat="39.55657453012106" lon="15.922054024108684"><ele>618.0</ele><time>2026-04-27T06:48:19Z</time></trkpt><trkpt lat="39.5566325357404" lon="15.922145924538349"><ele>621.6666666666666</ele><time>2026-04-27T06:48:20Z</time></trkpt><trkpt lat="39.55669152112802" lon="15.92222041069228"><ele>625.3333333333333</ele><time>2026-04-27T06:48:21Z</time></trkpt><trkpt lat="39.556744259541226" lon="15.922278743745425"><ele>629.0</ele><time>2026-04-27T06:48:22Z</time></trkpt><trkpt lat="39.556795757087365" lon="15.922338005052529"><ele>629.0</ele><time>2026-04-27T06:48:23Z</time></trkpt><trkpt lat="39.5568442075022" lon="15.922393112354708"><ele>629.0</ele><time>2026-04-27T06:48:24Z</time></trkpt><trkpt lat="39.55689794923135" lon="15.92245777857586"><ele>629.0</ele><time>2026-04-27T06:48:25Z</time></trkpt><trkpt lat="39.55696299676468" lon="15.922524040974416"><ele>629.0</ele><time>2026-04-27T06:48:26Z</time></trkpt><trkpt lat="39.55703198254059" lon="15.92256761448429"><ele>629.0</ele><time>2026-04-27T06:48:27Z</time></trkpt><trkpt lat="39.55711253001505" lon="15.922604118601644"><ele>629.0</ele><time>2026-04-27T06:48:28Z</time></trkpt><trkpt lat="39.55717444521207" lon="15.922659300489132"><ele>632.2</ele><time>2026-04-27T06:48:29Z</time></trkpt><trkpt lat="39.55723167283234" lon="15.922743813516032"><ele>635.4</ele><time>2026-04-27T06:48:29.999Z</time></trkpt><trkpt lat="39.55729819280374" lon="15.922852368652306"><ele>638.6</ele><time>2026-04-27T06:48:30.999Z</time></trkpt><trkpt lat="39.557355165254364" lon="15.922947051650752"><ele>641.8</ele><time>2026-04-27T06:48:31.999Z</time></trkpt><trkpt lat="39.5573943410923" lon="15.92303840457876"><ele>645.0</ele><time>2026-04-27T06:48:32.999Z</time></trkpt><trkpt lat="39.557462078150316" lon="15.92310438045427"><ele>645.0</ele><time>2026-04-27T06:48:34.999Z</time></trkpt><trkpt lat="39.557525829445915" lon="15.923098196931534"><ele>645.0</ele><time>2026-04-27T06:48:36.999Z</time></trkpt><trkpt lat="39.55757362978389" lon="15.922958991074607"><ele>645.0</ele><time>2026-04-27T06:48:38.999Z</time></trkpt><trkpt lat="39.5575782058792" lon="15.922854329385089"><ele>645.0</ele><time>2026-04-27T06:48:39.999Z</time></trkpt><trkpt lat="39.557583702280674" lon="15.922718955740084"><ele>645.0</ele><time>2026-04-27T06:48:40.999Z</time></trkpt><trkpt lat="39.55759551690484" lon="15.922560990594116"><ele>645.8</ele><time>2026-04-27T06:48:41.999Z</time></trkpt><trkpt lat="39.55760989745406" lon="15.922415920795736"><ele>646.6</ele><time>2026-04-27T06:48:42.999Z</time></trkpt><trkpt lat="39.557635870294966" lon="15.922287561875542"><ele>647.4000000000001</ele><time>2026-04-27T06:48:43.999Z</time></trkpt><trkpt lat="39.55768685880645" lon="15.922174469949393"><ele>648.2</ele><time>2026-04-27T06:48:44.999Z</time></trkpt><trkpt lat="39.5577212816007" lon="15.922062527271155"><ele>649.0</ele><time>2026-04-27T06:48:45.999Z</time></trkpt><trkpt lat="39.5577413868615" lon="15.9219252910777"><ele>649.0</ele><time>2026-04-27T06:48:46.999Z</time></trkpt><trkpt lat="39.55779098466725" lon="15.921812687855716"><ele>649.0</ele><time>2026-04-27T06:48:47.999Z</time></trkpt><trkpt lat="39.55782895317407" lon="15.921719680665383"><ele>649.0</ele><time>2026-04-27T06:48:48.999Z</time></trkpt><trkpt lat="39.55787251796352" lon="15.921602825716148"><ele>649.0</ele><time>2026-04-27T06:48:49.999Z</time></trkpt><trkpt lat="39.55790936357912" lon="15.921492268734026"><ele>649.0</ele><time>2026-04-27T06:48:50.999Z</time></trkpt><trkpt lat="39.55796793799792" lon="15.921412790130038"><ele>652.8000000000001</ele><time>2026-04-27T06:48:51.999Z</time></trkpt><trkpt lat="39.55801500280192" lon="15.921346673709749"><ele>656.6</ele><time>2026-04-27T06:48:52.999Z</time></trkpt><trkpt lat="39.55807223433296" lon="15.921298198750442"><ele>660.4</ele><time>2026-04-27T06:48:53.999Z</time></trkpt><trkpt lat="39.55818847510241" lon="15.921284880485029"><ele>664.2</ele><time>2026-04-27T06:48:55.999Z</time></trkpt><trkpt lat="39.558273121402344" lon="15.92132571497796"><ele>668.0</ele><time>2026-04-27T06:48:57.999Z</time></trkpt><trkpt lat="39.55835633904518" lon="15.92145456689348"><ele>668.0</ele><time>2026-04-27T06:48:59.999Z</time></trkpt><trkpt lat="39.55835993489278" lon="15.921572987914253"><ele>668.0</ele><time>2026-04-27T06:49:00.999Z</time></trkpt><trkpt lat="39.558383692134946" lon="15.921700703436722"><ele>668.0</ele><time>2026-04-27T06:49:01.999Z</time></trkpt><trkpt lat="39.558414173696484" lon="15.92185411265289"><ele>668.0</ele><time>2026-04-27T06:49:02.999Z</time></trkpt><trkpt lat="39.558457806220325" lon="15.922003290480113"><ele>668.0</ele><time>2026-04-27T06:49:03.999Z</time></trkpt><trkpt lat="39.55847182671765" lon="15.922135123773037"><ele>669.2</ele><time>2026-04-27T06:49:04.999Z</time></trkpt><trkpt lat="39.558445238699534" lon="15.922250742988947"><ele>670.4</ele><time>2026-04-27T06:49:05.999Z</time></trkpt><trkpt lat="39.558455742707366" lon="15.922364686627606"><ele>671.6</ele><time>2026-04-27T06:49:06.999Z</time></trkpt><trkpt lat="39.55850019729517" lon="15.922475353397768"><ele>672.8000000000001</ele><time>2026-04-27T06:49:07.999Z</time></trkpt><trkpt lat="39.558539879167476" lon="15.922597167439854"><ele>674.0</ele><time>2026-04-27T06:49:08.999Z</time></trkpt><trkpt lat="39.558592610449594" lon="15.922724992080576"><ele>674.0</ele><time>2026-04-27T06:49:09.999Z</time></trkpt><trkpt lat="39.55864253406061" lon="15.922852936860435"><ele>674.0</ele><time>2026-04-27T06:49:10.999Z</time></trkpt><trkpt lat="39.5587048956158" lon="15.922982932069283"><ele>674.0</ele><time>2026-04-27T06:49:11.999Z</time></trkpt><trkpt lat="39.55876769311076" lon="15.923104690000486"><ele>674.0</ele><time>2026-04-27T06:49:12.999Z</time></trkpt><trkpt lat="39.55883531113363" lon="15.923213967851934"><ele>676.0</ele><time>2026-04-27T06:49:13.999Z</time></trkpt><trkpt lat="39.558894249902536" lon="15.923317646848226"><ele>678.0</ele><time>2026-04-27T06:49:14.999Z</time></trkpt><trkpt lat="39.55893850652264" lon="15.923408300706107"><ele>680.0</ele><time>2026-04-27T06:49:15.999Z</time></trkpt><trkpt lat="39.558976563940554" lon="15.9234934213351"><ele>682.0</ele><time>2026-04-27T06:49:16.999Z</time></trkpt><trkpt lat="39.5590071973671" lon="15.92358509966364"><ele>684.0</ele><time>2026-04-27T06:49:17.999Z</time></trkpt><trkpt lat="39.55903383643519" lon="15.92367466180099"><ele>686.0</ele><time>2026-04-27T06:49:18.999Z</time></trkpt><trkpt lat="39.55906748581527" lon="15.923757729070958"><ele>686.8</ele><time>2026-04-27T06:49:20Z</time></trkpt><trkpt lat="39.5590959061904" lon="15.923855437556957"><ele>687.5999999999999</ele><time>2026-04-27T06:49:21Z</time></trkpt><trkpt lat="39.559098153875006" lon="15.923962933458382"><ele>688.4</ele><time>2026-04-27T06:49:22Z</time></trkpt><trkpt lat="39.55911200210512" lon="15.924090384642472"><ele>689.2</ele><time>2026-04-27T06:49:23Z</time></trkpt><trkpt lat="39.55913515784449" lon="15.924200810703255"><ele>690.0</ele><time>2026-04-27T06:49:24Z</time></trkpt><trkpt lat="39.559124397580696" lon="15.924349397095733"><ele>690.1666666666666</ele><time>2026-04-27T06:49:26Z</time></trkpt><trkpt lat="39.55913177409259" lon="15.924442768035117"><ele>690.3333333333334</ele><time>2026-04-27T06:49:27Z</time></trkpt><trkpt lat="39.55914089280984" lon="15.92453403778986"><ele>690.5</ele><time>2026-04-27T06:49:28Z</time></trkpt><trkpt lat="39.55915641714038" lon="15.924689421773662"><ele>690.6666666666667</ele><time>2026-04-27T06:49:30Z</time></trkpt><trkpt lat="39.559165924639736" lon="15.924784582506856"><ele>690.8333333333334</ele><time>2026-04-27T06:49:31Z</time></trkpt><trkpt lat="39.559195720851896" lon="15.924858732732556"><ele>691.0</ele><time>2026-04-27T06:49:32Z</time></trkpt><trkpt lat="39.55921783865925" lon="15.924983153568341"><ele>690.0</ele><time>2026-04-27T06:49:34Z</time></trkpt><trkpt lat="39.55926621796543" lon="15.925138566707204"><ele>689.0</ele><time>2026-04-27T06:49:36Z</time></trkpt><trkpt lat="39.55927873979901" lon="15.925227576536853"><ele>688.0</ele><time>2026-04-27T06:49:37Z</time></trkpt><trkpt lat="39.559280186654696" lon="15.925314489809978"><ele>687.0</ele><time>2026-04-27T06:49:38Z</time></trkpt><trkpt lat="39.5593180912296" lon="15.92545380942226"><ele>686.0</ele><time>2026-04-27T06:49:40Z</time></trkpt><trkpt lat="39.55935058773997" lon="15.92554227497205"><ele>686.0</ele><time>2026-04-27T06:49:41Z</time></trkpt><trkpt lat="39.55939713765003" lon="15.925635732852742"><ele>686.0</ele><time>2026-04-27T06:49:42Z</time></trkpt><trkpt lat="39.559453841297056" lon="15.925729318339052"><ele>686.0</ele><time>2026-04-27T06:49:43Z</time></trkpt><trkpt lat="39.559521730587534" lon="15.925824914045933"><ele>686.0</ele><time>2026-04-27T06:49:44Z</time></trkpt><trkpt lat="39.559594679964654" lon="15.925913058661681"><ele>686.0</ele><time>2026-04-27T06:49:45Z</time></trkpt><trkpt lat="39.55967095174489" lon="15.925993677930794"><ele>688.5999999999999</ele><time>2026-04-27T06:49:46Z</time></trkpt><trkpt lat="39.559740974584294" lon="15.926095993892272"><ele>691.2</ele><time>2026-04-27T06:49:47Z</time></trkpt><trkpt lat="39.55982997645781" lon="15.926165995427903"><ele>693.8</ele><time>2026-04-27T06:49:48Z</time></trkpt><trkpt lat="39.55991111185027" lon="15.926241682042109"><ele>696.4000000000001</ele><time>2026-04-27T06:49:49Z</time></trkpt><trkpt lat="39.5599799060601" lon="15.926298144801445"><ele>699.0</ele><time>2026-04-27T06:49:50Z</time></trkpt><trkpt lat="39.56003324240452" lon="15.926361741008703"><ele>699.0</ele><time>2026-04-27T06:49:51Z</time></trkpt><trkpt lat="39.560067275358655" lon="15.926450327732596"><ele>699.0</ele><time>2026-04-27T06:49:52Z</time></trkpt><trkpt lat="39.56007834622577" lon="15.92656255926979"><ele>699.0</ele><time>2026-04-27T06:49:53Z</time></trkpt><trkpt lat="39.560128465385716" lon="15.92668609497632"><ele>699.0</ele><time>2026-04-27T06:49:54Z</time></trkpt><trkpt lat="39.56016547243798" lon="15.92682612347337"><ele>699.0</ele><time>2026-04-27T06:49:55Z</time></trkpt><trkpt lat="39.5602060007911" lon="15.926965325996983"><ele>699.3333333333334</ele><time>2026-04-27T06:49:56Z</time></trkpt><trkpt lat="39.56024482381179" lon="15.927076430666176"><ele>699.6666666666666</ele><time>2026-04-27T06:49:57Z</time></trkpt><trkpt lat="39.56027045892039" lon="15.927157169243953"><ele>700.0</ele><time>2026-04-27T06:49:58Z</time></trkpt><trkpt lat="39.56036174974063" lon="15.92726266368809"><ele>700.3333333333333</ele><time>2026-04-27T06:50:00Z</time></trkpt><trkpt lat="39.56043752138698" lon="15.92732727047516"><ele>700.6666666666666</ele><time>2026-04-27T06:50:01Z</time></trkpt><trkpt lat="39.56047074698449" lon="15.927411849031204"><ele>701.0</ele><time>2026-04-27T06:50:02Z</time></trkpt><trkpt lat="39.560531092770425" lon="15.927495122301492"><ele>704.0</ele><time>2026-04-27T06:50:03Z</time></trkpt><trkpt lat="39.56057506763241" lon="15.9276296080559"><ele>707.0</ele><time>2026-04-27T06:50:04Z</time></trkpt><trkpt lat="39.560605484482814" lon="15.927750611104873"><ele>710.0</ele><time>2026-04-27T06:50:05Z</time></trkpt><trkpt lat="39.560636996026844" lon="15.92785892307362"><ele>713.0</ele><time>2026-04-27T06:50:06Z</time></trkpt><trkpt lat="39.56068471909773" lon="15.92796399869214"><ele>716.0</ele><time>2026-04-27T06:50:07Z</time></trkpt><trkpt lat="39.56071835971908" lon="15.928077558327113"><ele>716.0</ele><time>2026-04-27T06:50:08Z</time></trkpt><trkpt lat="39.56077685377867" lon="15.928201813490448"><ele>716.0</ele><time>2026-04-27T06:50:09Z</time></trkpt><trkpt lat="39.56083463179729" lon="15.928325958219784"><ele>716.0</ele><time>2026-04-27T06:50:10Z</time></trkpt><trkpt lat="39.56087315394092" lon="15.928408446558912"><ele>716.0</ele><time>2026-04-27T06:50:11Z</time></trkpt><trkpt lat="39.56091968462114" lon="15.92847881482587"><ele>716.0</ele><time>2026-04-27T06:50:12Z</time></trkpt><trkpt lat="39.56098173458753" lon="15.9285463529478"><ele>716.3333333333333</ele><time>2026-04-27T06:50:13Z</time></trkpt><trkpt lat="39.56101578833378" lon="15.928636955368257"><ele>716.6666666666666</ele><time>2026-04-27T06:50:14Z</time></trkpt><trkpt lat="39.561054020372076" lon="15.928714320258509"><ele>717.0</ele><time>2026-04-27T06:50:15Z</time></trkpt><trkpt lat="39.56109523847098" lon="15.928825545206852"><ele>717.3333333333334</ele><time>2026-04-27T06:50:16Z</time></trkpt><trkpt lat="39.56114954354703" lon="15.92893655497297"><ele>717.6666666666667</ele><time>2026-04-27T06:50:17Z</time></trkpt><trkpt lat="39.56120713939896" lon="15.929021537639759"><ele>718.0</ele><time>2026-04-27T06:50:18Z</time></trkpt><trkpt lat="39.56125346736072" lon="15.929127863591328"><ele>718.4</ele><time>2026-04-27T06:50:19Z</time></trkpt><trkpt lat="39.561360681678096" lon="15.9291844901452"><ele>718.8</ele><time>2026-04-27T06:50:20Z</time></trkpt><trkpt lat="39.56143621518052" lon="15.929280771095584"><ele>719.2</ele><time>2026-04-27T06:50:21Z</time></trkpt><trkpt lat="39.56150408119836" lon="15.92936735825187"><ele>719.6</ele><time>2026-04-27T06:50:22Z</time></trkpt><trkpt lat="39.561560788779545" lon="15.929436560938235"><ele>720.0</ele><time>2026-04-27T06:50:23Z</time></trkpt><trkpt lat="39.56158791557793" lon="15.929548211912138"><ele>723.2</ele><time>2026-04-27T06:50:25Z</time></trkpt><trkpt lat="39.56157065306457" lon="15.929688260500146"><ele>726.4</ele><time>2026-04-27T06:50:27Z</time></trkpt><trkpt lat="39.56157173923121" lon="15.929771533970838"><ele>729.5999999999999</ele><time>2026-04-27T06:50:28Z</time></trkpt><trkpt lat="39.56157838043508" lon="15.92989651077243"><ele>732.8</ele><time>2026-04-27T06:50:29Z</time></trkpt><trkpt lat="39.56157759286786" lon="15.930032109701877"><ele>736.0</ele><time>2026-04-27T06:50:30Z</time></trkpt><trkpt lat="39.561564940262556" lon="15.930161801191232"><ele>737.3333333333334</ele><time>2026-04-27T06:50:31Z</time></trkpt><trkpt lat="39.56154305109307" lon="15.930288464721539"><ele>738.6666666666667</ele><time>2026-04-27T06:50:32Z</time></trkpt><trkpt lat="39.561528559777074" lon="15.930401990831747"><ele>740.0</ele><time>2026-04-27T06:50:33Z</time></trkpt><trkpt lat="39.561518598742865" lon="15.930498628372378"><ele>741.3333333333334</ele><time>2026-04-27T06:50:34Z</time></trkpt><trkpt lat="39.56152695101792" lon="15.930598018337134"><ele>742.6666666666666</ele><time>2026-04-27T06:50:35Z</time></trkpt><trkpt lat="39.5615636173394" lon="15.930695019318316"><ele>744.0</ele><time>2026-04-27T06:50:35.999Z</time></trkpt><trkpt lat="39.56160834711452" lon="15.9307787129092"><ele>744.0</ele><time>2026-04-27T06:50:36.999Z</time></trkpt><trkpt lat="39.561659527249404" lon="15.930860103872092"><ele>744.0</ele><time>2026-04-27T06:50:37.999Z</time></trkpt><trkpt lat="39.561716918742434" lon="15.930928563993179"><ele>744.0</ele><time>2026-04-27T06:50:38.999Z</time></trkpt><trkpt lat="39.56179091886216" lon="15.931000832743955"><ele>744.0</ele><time>2026-04-27T06:50:39.999Z</time></trkpt><trkpt lat="39.561846922503875" lon="15.931089790868274"><ele>744.0</ele><time>2026-04-27T06:50:40.999Z</time></trkpt><trkpt lat="39.561886019070485" lon="15.931191890129632"><ele>744.0</ele><time>2026-04-27T06:50:41.999Z</time></trkpt><trkpt lat="39.561933763533474" lon="15.931298580826137"><ele>745.2</ele><time>2026-04-27T06:50:42.999Z</time></trkpt><trkpt lat="39.561991233706244" lon="15.93139856264735"><ele>746.4000000000001</ele><time>2026-04-27T06:50:43.999Z</time></trkpt><trkpt lat="39.562055178197184" lon="15.931481175211887"><ele>747.6</ele><time>2026-04-27T06:50:44.999Z</time></trkpt><trkpt lat="39.56213562667135" lon="15.931579510925275"><ele>748.8</ele><time>2026-04-27T06:50:45.999Z</time></trkpt><trkpt lat="39.56221586590694" lon="15.931686865674832"><ele>750.0</ele><time>2026-04-27T06:50:46.999Z</time></trkpt><trkpt lat="39.56228125814544" lon="15.931799268652501"><ele>755.4</ele><time>2026-04-27T06:50:47.999Z</time></trkpt><trkpt lat="39.562326799070846" lon="15.931914183482704"><ele>760.8</ele><time>2026-04-27T06:50:48.999Z</time></trkpt><trkpt lat="39.562367863365324" lon="15.932024190911196"><ele>766.2</ele><time>2026-04-27T06:50:49.999Z</time></trkpt><trkpt lat="39.56240054480214" lon="15.93213670142909"><ele>771.6</ele><time>2026-04-27T06:50:50.999Z</time></trkpt><trkpt lat="39.56242780973581" lon="15.932234183509067"><ele>777.0</ele><time>2026-04-27T06:50:51.999Z</time></trkpt><trkpt lat="39.56246651795562" lon="15.932375219679372"><ele>777.0</ele><time>2026-04-27T06:50:53.999Z</time></trkpt><trkpt lat="39.56247427178134" lon="15.9324715410884"><ele>777.0</ele><time>2026-04-27T06:50:54.999Z</time></trkpt><trkpt lat="39.56248409680042" lon="15.932554775078332"><ele>777.0</ele><time>2026-04-27T06:50:55.999Z</time></trkpt><trkpt lat="39.56249472790003" lon="15.932650791286576"><ele>777.0</ele><time>2026-04-27T06:50:56.999Z</time></trkpt><trkpt lat="39.56251445313082" lon="15.932780239431569"><ele>777.0</ele><time>2026-04-27T06:50:57.999Z</time></trkpt><trkpt lat="39.56253623300153" lon="15.932911505730482"><ele>777.0</ele><time>2026-04-27T06:50:58.999Z</time></trkpt><trkpt lat="39.562546173638246" lon="15.933011752447163"><ele>779.0</ele><time>2026-04-27T06:50:59.999Z</time></trkpt><trkpt lat="39.562540717035986" lon="15.93311314490987"><ele>781.0</ele><time>2026-04-27T06:51:00.999Z</time></trkpt><trkpt lat="39.562528582461724" lon="15.933225635316324"><ele>783.0</ele><time>2026-04-27T06:51:01.999Z</time></trkpt><trkpt lat="39.56250683972507" lon="15.933318251668636"><ele>785.0</ele><time>2026-04-27T06:51:02.999Z</time></trkpt><trkpt lat="39.56246379272244" lon="15.933403535192937"><ele>787.0</ele><time>2026-04-27T06:51:03.999Z</time></trkpt><trkpt lat="39.56243798428209" lon="15.933523858296443"><ele>789.0</ele><time>2026-04-27T06:51:05.999Z</time></trkpt><trkpt lat="39.56252185796879" lon="15.933618894411309"><ele>789.5</ele><time>2026-04-27T06:51:07.999Z</time></trkpt><trkpt lat="39.56258630720467" lon="15.93362078410599"><ele>790.0</ele><time>2026-04-27T06:51:08.999Z</time></trkpt><trkpt lat="39.56264848329412" lon="15.933601077389032"><ele>790.5</ele><time>2026-04-27T06:51:09.999Z</time></trkpt><trkpt lat="39.562714316629844" lon="15.933554948142936"><ele>791.0</ele><time>2026-04-27T06:51:10.999Z</time></trkpt><trkpt lat="39.56278367102866" lon="15.933490288886793"><ele>791.5</ele><time>2026-04-27T06:51:11.999Z</time></trkpt><trkpt lat="39.562859223424276" lon="15.933438038186337"><ele>792.0</ele><time>2026-04-27T06:51:12.999Z</time></trkpt><trkpt lat="39.56293664039134" lon="15.933390234053626"><ele>794.6666666666666</ele><time>2026-04-27T06:51:13.999Z</time></trkpt><trkpt lat="39.56300861008957" lon="15.933324431686353"><ele>797.3333333333333</ele><time>2026-04-27T06:51:14.999Z</time></trkpt><trkpt lat="39.56303985433655" lon="15.933231442829266"><ele>800.0</ele><time>2026-04-27T06:51:15.999Z</time></trkpt><trkpt lat="39.56305307285266" lon="15.933123555392298"><ele>802.6666666666666</ele><time>2026-04-27T06:51:16.999Z</time></trkpt><trkpt lat="39.563066408699314" lon="15.933040992758889"><ele>805.3333333333333</ele><time>2026-04-27T06:51:17.999Z</time></trkpt><trkpt lat="39.56315897616943" lon="15.932987620559656"><ele>808.0</ele><time>2026-04-27T06:51:19.999Z</time></trkpt><trkpt lat="39.56322849495855" lon="15.933014752464613"><ele>807.9999999999999</ele><time>2026-04-27T06:51:20.999Z</time></trkpt><trkpt lat="39.56328168314052" lon="15.933069111495616"><ele>808.0</ele><time>2026-04-27T06:51:21.999Z</time></trkpt><trkpt lat="39.56334904070513" lon="15.933135778175659"><ele>808.0</ele><time>2026-04-27T06:51:22.999Z</time></trkpt><trkpt lat="39.563437575751465" lon="15.93318463024856"><ele>808.0</ele><time>2026-04-27T06:51:23.999Z</time></trkpt><trkpt lat="39.563528100453574" lon="15.933220366484921"><ele>807.9999999999999</ele><time>2026-04-27T06:51:25Z</time></trkpt><trkpt lat="39.56360343578961" lon="15.933278127728798"><ele>808.0</ele><time>2026-04-27T06:51:27Z</time></trkpt><trkpt lat="39.56366150879702" lon="15.933406311595942"><ele>808.0</ele><time>2026-04-27T06:51:29Z</time></trkpt><trkpt lat="39.563683369236344" lon="15.933517695160159"><ele>808.0</ele><time>2026-04-27T06:51:30Z</time></trkpt><trkpt lat="39.56370403868743" lon="15.933639441086271"><ele>808.0</ele><time>2026-04-27T06:51:31Z</time></trkpt><trkpt lat="39.56371161328267" lon="15.933768594823334"><ele>808.0</ele><time>2026-04-27T06:51:32Z</time></trkpt><trkpt lat="39.563702147365404" lon="15.933880643067384"><ele>808.0</ele><time>2026-04-27T06:51:33Z</time></trkpt><trkpt lat="39.56367083363191" lon="15.933981441520395"><ele>809.2</ele><time>2026-04-27T06:51:34Z</time></trkpt><trkpt lat="39.56366148167198" lon="15.934100200554072"><ele>810.4</ele><time>2026-04-27T06:51:35Z</time></trkpt><trkpt lat="39.56366411138733" lon="15.93423622980898"><ele>811.6</ele><time>2026-04-27T06:51:36Z</time></trkpt><trkpt lat="39.563678161682226" lon="15.934386360085224"><ele>812.8000000000001</ele><time>2026-04-27T06:51:37Z</time></trkpt><trkpt lat="39.563703484437525" lon="15.93453402626691"><ele>814.0</ele><time>2026-04-27T06:51:38Z</time></trkpt><trkpt lat="39.563741477301605" lon="15.93465508484797"><ele>817.25</ele><time>2026-04-27T06:51:39Z</time></trkpt><trkpt lat="39.56378958505172" lon="15.93475645538556"><ele>820.5</ele><time>2026-04-27T06:51:40Z</time></trkpt><trkpt lat="39.56386037989294" lon="15.93487067565557"><ele>823.75</ele><time>2026-04-27T06:51:41Z</time></trkpt><trkpt lat="39.56394406063729" lon="15.935019657093898"><ele>827.0</ele><time>2026-04-27T06:51:42Z</time></trkpt><trkpt lat="39.5640244824807" lon="15.93519743371121"><ele>828.25</ele><time>2026-04-27T06:51:43Z</time></trkpt><trkpt lat="39.56411239986042" lon="15.935365470813649"><ele>829.5</ele><time>2026-04-27T06:51:44Z</time></trkpt><trkpt lat="39.56420487960727" lon="15.935517244559396"><ele>830.75</ele><time>2026-04-27T06:51:45Z</time></trkpt><trkpt lat="39.56428283303383" lon="15.935635341371999"><ele>832.0</ele><time>2026-04-27T06:51:46Z</time></trkpt><trkpt lat="39.56434540516607" lon="15.935736787629725"><ele>831.9999999999999</ele><time>2026-04-27T06:51:47Z</time></trkpt><trkpt lat="39.564396851597785" lon="15.935828017757313"><ele>832.0</ele><time>2026-04-27T06:51:48Z</time></trkpt><trkpt lat="39.56443953524547" lon="15.935924794593246"><ele>832.0</ele><time>2026-04-27T06:51:49Z</time></trkpt><trkpt lat="39.564471106412256" lon="15.936024759350431"><ele>832.0</ele><time>2026-04-27T06:51:50Z</time></trkpt><trkpt lat="39.56450433061447" lon="15.936143936123024"><ele>831.9999999999999</ele><time>2026-04-27T06:51:51Z</time></trkpt><trkpt lat="39.56456022666677" lon="15.936239463544137"><ele>832.0</ele><time>2026-04-27T06:51:52Z</time></trkpt><trkpt lat="39.56463173213259" lon="15.93634064371175"><ele>832.75</ele><time>2026-04-27T06:51:53Z</time></trkpt><trkpt lat="39.56470488009737" lon="15.936450597515602"><ele>833.5</ele><time>2026-04-27T06:51:54Z</time></trkpt><trkpt lat="39.56479902357934" lon="15.936594049462007"><ele>834.25</ele><time>2026-04-27T06:51:55Z</time></trkpt><trkpt lat="39.56490454999103" lon="15.936752852977557"><ele>835.0</ele><time>2026-04-27T06:51:56Z</time></trkpt><trkpt lat="39.5649957066354" lon="15.936886199830498"><ele>835.0</ele><time>2026-04-27T06:51:57Z</time></trkpt><trkpt lat="39.565082775461434" lon="15.93699839969022"><ele>835.0</ele><time>2026-04-27T06:51:58Z</time></trkpt><trkpt lat="39.565164684261916" lon="15.937096548731033"><ele>835.0</ele><time>2026-04-27T06:51:59Z</time></trkpt><trkpt lat="39.56523871890662" lon="15.937203398242408"><ele>835.0</ele><time>2026-04-27T06:52:00Z</time></trkpt><trkpt lat="39.56528421364485" lon="15.937315574537237"><ele>835.0</ele><time>2026-04-27T06:52:01Z</time></trkpt><trkpt lat="39.565306311011355" lon="15.93745297732645"><ele>834.25</ele><time>2026-04-27T06:52:02Z</time></trkpt><trkpt lat="39.56533045875442" lon="15.93761490447006"><ele>833.5</ele><time>2026-04-27T06:52:03Z</time></trkpt><trkpt lat="39.56537222885883" lon="15.937806660876438"><ele>832.75</ele><time>2026-04-27T06:52:04Z</time></trkpt><trkpt lat="39.56541882521711" lon="15.938014929094834"><ele>832.0</ele><time>2026-04-27T06:52:05Z</time></trkpt><trkpt lat="39.56544921382293" lon="15.938228836768449"><ele>835.0</ele><time>2026-04-27T06:52:06Z</time></trkpt><trkpt lat="39.56547514877801" lon="15.938425514739727"><ele>838.0</ele><time>2026-04-27T06:52:07Z</time></trkpt><trkpt lat="39.56551563085757" lon="15.938596676019454"><ele>841.0</ele><time>2026-04-27T06:52:08Z</time></trkpt><trkpt lat="39.56558295855714" lon="15.93876878203211"><ele>844.0</ele><time>2026-04-27T06:52:09Z</time></trkpt><trkpt lat="39.56565916856443" lon="15.93896446231628"><ele>844.0</ele><time>2026-04-27T06:52:10Z</time></trkpt><trkpt lat="39.56573673711693" lon="15.93915815556762"><ele>844.0</ele><time>2026-04-27T06:52:11Z</time></trkpt><trkpt lat="39.565804878133996" lon="15.939347996653792"><ele>844.0</ele><time>2026-04-27T06:52:12Z</time></trkpt><trkpt lat="39.56587109523094" lon="15.939535883644107"><ele>843.75</ele><time>2026-04-27T06:52:13Z</time></trkpt><trkpt lat="39.565933601606595" lon="15.939691741180283"><ele>843.5</ele><time>2026-04-27T06:52:14Z</time></trkpt><trkpt lat="39.56600209604316" lon="15.939828947166966"><ele>843.25</ele><time>2026-04-27T06:52:15Z</time></trkpt><trkpt lat="39.56607742798394" lon="15.939966193922391"><ele>843.0</ele><time>2026-04-27T06:52:16Z</time></trkpt><trkpt lat="39.56615558904475" lon="15.940115390297962"><ele>844.25</ele><time>2026-04-27T06:52:17Z</time></trkpt><trkpt lat="39.56622630404661" lon="15.940263456164816"><ele>845.5</ele><time>2026-04-27T06:52:18Z</time></trkpt><trkpt lat="39.56628220557846" lon="15.940390447228427"><ele>846.75</ele><time>2026-04-27T06:52:19Z</time></trkpt><trkpt lat="39.56633316030409" lon="15.940507732258553"><ele>848.0</ele><time>2026-04-27T06:52:20Z</time></trkpt><trkpt lat="39.56639434955489" lon="15.940640690589156"><ele>848.0</ele><time>2026-04-27T06:52:21Z</time></trkpt><trkpt lat="39.56646283379783" lon="15.94076563564066"><ele>848.0</ele><time>2026-04-27T06:52:22Z</time></trkpt><trkpt lat="39.566536250417506" lon="15.940873488342202"><ele>848.0</ele><time>2026-04-27T06:52:23Z</time></trkpt><trkpt lat="39.56659881082221" lon="15.940975524288048"><ele>848.0</ele><time>2026-04-27T06:52:24Z</time></trkpt><trkpt lat="39.56664283596403" lon="15.941068668201105"><ele>848.0</ele><time>2026-04-27T06:52:25Z</time></trkpt><trkpt lat="39.56670285113698" lon="15.941127279042355"><ele>848.0</ele><time>2026-04-27T06:52:33Z</time></trkpt><trkpt lat="39.566762707361555" lon="15.941178362093574"><ele>848.0</ele><time>2026-04-27T06:52:36Z</time></trkpt><trkpt lat="39.5668873349539" lon="15.941265936073211"><ele>848.0</ele><time>2026-04-27T06:52:37Z</time></trkpt><trkpt lat="39.566967588285415" lon="15.941332684061113"><ele>848.0</ele><time>2026-04-27T06:52:38.999Z</time></trkpt><trkpt lat="39.567030325614915" lon="15.94138639008685"><ele>848.0</ele><time>2026-04-27T06:52:41.999Z</time></trkpt><trkpt lat="39.56706870812742" lon="15.941483108819103"><ele>848.0000000000001</ele><time>2026-04-27T06:53:32Z</time></trkpt><trkpt lat="39.56710487246223" lon="15.941562450106947"><ele>848.0</ele><time>2026-04-27T06:53:34Z</time></trkpt><trkpt lat="39.56716236277732" lon="15.941669048895765"><ele>848.0</ele><time>2026-04-27T06:53:36Z</time></trkpt><trkpt lat="39.56720183994476" lon="15.941746752644669"><ele>848.0</ele><time>2026-04-27T06:53:37Z</time></trkpt><trkpt lat="39.56723756052432" lon="15.94183627574221"><ele>848.0000000000001</ele><time>2026-04-27T06:53:38Z</time></trkpt><trkpt lat="39.56727596202343" lon="15.94192985535688"><ele>848.0</ele><time>2026-04-27T06:53:39Z</time></trkpt><trkpt lat="39.567314495583304" lon="15.942016219215443"><ele>847.8</ele><time>2026-04-27T06:53:40Z</time></trkpt><trkpt lat="39.56737812490408" lon="15.94211956037464"><ele>847.5999999999999</ele><time>2026-04-27T06:53:42Z</time></trkpt><trkpt lat="39.56745502750536" lon="15.942250101897107"><ele>847.4000000000001</ele><time>2026-04-27T06:53:44Z</time></trkpt><trkpt lat="39.56750754909198" lon="15.942359106916582"><ele>847.2</ele><time>2026-04-27T06:53:45Z</time></trkpt><trkpt lat="39.56756846354375" lon="15.942462996391292"><ele>847.0</ele><time>2026-04-27T06:53:46Z</time></trkpt><trkpt lat="39.56762262409288" lon="15.94254163420282"><ele>848.3333333333333</ele><time>2026-04-27T06:53:47Z</time></trkpt><trkpt lat="39.56767825566388" lon="15.942608888967042"><ele>849.6666666666666</ele><time>2026-04-27T06:53:48Z</time></trkpt><trkpt lat="39.56775771069916" lon="15.942682878514288"><ele>851.0</ele><time>2026-04-27T06:53:49Z</time></trkpt><trkpt lat="39.567838737132014" lon="15.94274966498065"><ele>852.3333333333333</ele><time>2026-04-27T06:53:50Z</time></trkpt><trkpt lat="39.5679144669853" lon="15.9427969611075"><ele>853.6666666666666</ele><time>2026-04-27T06:53:51Z</time></trkpt><trkpt lat="39.56798762398445" lon="15.942833897710758"><ele>855.0</ele><time>2026-04-27T06:53:52Z</time></trkpt><trkpt lat="39.56807496168973" lon="15.942881667836922"><ele>855.0</ele><time>2026-04-27T06:53:53Z</time></trkpt><trkpt lat="39.568156699584236" lon="15.94296037776641"><ele>855.0</ele><time>2026-04-27T06:53:54Z</time></trkpt><trkpt lat="39.56824199891836" lon="15.943026430150939"><ele>855.0</ele><time>2026-04-27T06:53:55Z</time></trkpt><trkpt lat="39.56831705130088" lon="15.94309917994253"><ele>855.0</ele><time>2026-04-27T06:53:56Z</time></trkpt><trkpt lat="39.56840224848259" lon="15.943179500472882"><ele>855.0</ele><time>2026-04-27T06:53:57Z</time></trkpt><trkpt lat="39.56849040092739" lon="15.943266587451546"><ele>855.0</ele><time>2026-04-27T06:53:58Z</time></trkpt><trkpt lat="39.568561368162435" lon="15.943351812549205"><ele>855.0</ele><time>2026-04-27T06:53:59Z</time></trkpt><trkpt lat="39.56862124562038" lon="15.943443213768743"><ele>855.0</ele><time>2026-04-27T06:54:00Z</time></trkpt><trkpt lat="39.568666166288985" lon="15.943543947433644"><ele>855.0</ele><time>2026-04-27T06:54:01Z</time></trkpt><trkpt lat="39.56872278082121" lon="15.943648565287813"><ele>855.0</ele><time>2026-04-27T06:54:02Z</time></trkpt><trkpt lat="39.568770790010404" lon="15.943736988327734"><ele>858.0</ele><time>2026-04-27T06:54:03Z</time></trkpt><trkpt lat="39.568820549231795" lon="15.943828382695239"><ele>861.0</ele><time>2026-04-27T06:54:04Z</time></trkpt><trkpt lat="39.56889154606182" lon="15.943949296907517"><ele>864.0</ele><time>2026-04-27T06:54:05Z</time></trkpt><trkpt lat="39.568956716517576" lon="15.944072103233195"><ele>867.0</ele><time>2026-04-27T06:54:06Z</time></trkpt><trkpt lat="39.56901506838234" lon="15.944164780645233"><ele>870.0</ele><time>2026-04-27T06:54:07Z</time></trkpt><trkpt lat="39.56908932479408" lon="15.944247168616277"><ele>871.0</ele><time>2026-04-27T06:54:08Z</time></trkpt><trkpt lat="39.56916772760703" lon="15.944334835395791"><ele>872.0</ele><time>2026-04-27T06:54:09Z</time></trkpt><trkpt lat="39.56922828281341" lon="15.94442216944623"><ele>873.0</ele><time>2026-04-27T06:54:10Z</time></trkpt><trkpt lat="39.56925950859632" lon="15.94451159803463"><ele>874.0</ele><time>2026-04-27T06:54:11Z</time></trkpt><trkpt lat="39.56928455040947" lon="15.9446203849144"><ele>875.0</ele><time>2026-04-27T06:54:12Z</time></trkpt><trkpt lat="39.569315711953095" lon="15.944750784380325"><ele>875.0000000000001</ele><time>2026-04-27T06:54:13Z</time></trkpt><trkpt lat="39.569341920360195" lon="15.944882655570227"><ele>875.0</ele><time>2026-04-27T06:54:14Z</time></trkpt><trkpt lat="39.56935890274244" lon="15.944993513492413"><ele>875.0</ele><time>2026-04-27T06:54:15Z</time></trkpt><trkpt lat="39.569382231265784" lon="15.9450956924811"><ele>875.0</ele><time>2026-04-27T06:54:16Z</time></trkpt><trkpt lat="39.569415839794964" lon="15.945166786168732"><ele>875.0000000000001</ele><time>2026-04-27T06:54:17Z</time></trkpt><trkpt lat="39.569507368923254" lon="15.945211559853202"><ele>875.0</ele><time>2026-04-27T06:54:19Z</time></trkpt><trkpt lat="39.569568882800944" lon="15.945252693128166"><ele>877.0</ele><time>2026-04-27T06:54:22Z</time></trkpt><trkpt lat="39.56965249906042" lon="15.945292867020314"><ele>879.0</ele><time>2026-04-27T06:54:24Z</time></trkpt><trkpt lat="39.569746057573894" lon="15.94533357428226"><ele>881.0</ele><time>2026-04-27T06:54:26Z</time></trkpt><trkpt lat="39.5698457691083" lon="15.945399872126083"><ele>883.0</ele><time>2026-04-27T06:54:28Z</time></trkpt><trkpt lat="39.56992371885416" lon="15.945475475236988"><ele>885.0</ele><time>2026-04-27T06:54:29Z</time></trkpt><trkpt lat="39.56999889235909" lon="15.945556826406033"><ele>885.0</ele><time>2026-04-27T06:54:30Z</time></trkpt><trkpt lat="39.57004385601257" lon="15.945638893065949"><ele>885.0</ele><time>2026-04-27T06:54:31Z</time></trkpt><trkpt lat="39.570075741906116" lon="15.945735075117739"><ele>885.0</ele><time>2026-04-27T06:54:32Z</time></trkpt><trkpt lat="39.57009879325237" lon="15.945829642900504"><ele>885.0</ele><time>2026-04-27T06:54:33Z</time></trkpt><trkpt lat="39.57013093436049" lon="15.945938411775462"><ele>885.0</ele><time>2026-04-27T06:54:34Z</time></trkpt><trkpt lat="39.570168948834585" lon="15.946037266563597"><ele>885.0</ele><time>2026-04-27T06:54:35Z</time></trkpt><trkpt lat="39.570209899537474" lon="15.94612675346846"><ele>883.4</ele><time>2026-04-27T06:54:36Z</time></trkpt><trkpt lat="39.57026601543947" lon="15.946218888001296"><ele>881.8</ele><time>2026-04-27T06:54:37Z</time></trkpt><trkpt lat="39.57032802555102" lon="15.946315303576046"><ele>880.2</ele><time>2026-04-27T06:54:38Z</time></trkpt><trkpt lat="39.57039908329739" lon="15.946420625720014"><ele>878.6</ele><time>2026-04-27T06:54:38.999Z</time></trkpt><trkpt lat="39.57047418250875" lon="15.94652261081811"><ele>877.0</ele><time>2026-04-27T06:54:39.999Z</time></trkpt><trkpt lat="39.57053875224838" lon="15.94660575802115"><ele>880.1666666666666</ele><time>2026-04-27T06:54:40.999Z</time></trkpt><trkpt lat="39.57058151963761" lon="15.946686799227411"><ele>883.3333333333333</ele><time>2026-04-27T06:54:41.999Z</time></trkpt><trkpt lat="39.570608945481496" lon="15.94678721853417"><ele>886.5</ele><time>2026-04-27T06:54:42.999Z</time></trkpt><trkpt lat="39.57063299756524" lon="15.946909528437565"><ele>889.6666666666667</ele><time>2026-04-27T06:54:43.999Z</time></trkpt><trkpt lat="39.57065663211313" lon="15.947021782068774"><ele>892.8333333333334</ele><time>2026-04-27T06:54:44.999Z</time></trkpt><trkpt lat="39.57068515764221" lon="15.947128904828197"><ele>896.0</ele><time>2026-04-27T06:54:45.999Z</time></trkpt><trkpt lat="39.57072472336984" lon="15.947241560127123"><ele>896.0000000000001</ele><time>2026-04-27T06:54:46.999Z</time></trkpt><trkpt lat="39.5707651386941" lon="15.947342669970045"><ele>896.0</ele><time>2026-04-27T06:54:47.999Z</time></trkpt><trkpt lat="39.5708034331965" lon="15.947435147511666"><ele>896.0</ele><time>2026-04-27T06:54:48.999Z</time></trkpt><trkpt lat="39.57084727411627" lon="15.947508857527016"><ele>896.0</ele><time>2026-04-27T06:54:49.999Z</time></trkpt><trkpt lat="39.570911473377194" lon="15.947583908758904"><ele>896.0000000000001</ele><time>2026-04-27T06:54:50.999Z</time></trkpt><trkpt lat="39.57097898442454" lon="15.947669880962255"><ele>896.0</ele><time>2026-04-27T06:54:51.999Z</time></trkpt><trkpt lat="39.571013888731756" lon="15.947782474890559"><ele>894.4</ele><time>2026-04-27T06:54:52.999Z</time></trkpt><trkpt lat="39.57102790826281" lon="15.947935288194381"><ele>892.8</ele><time>2026-04-27T06:54:53.999Z</time></trkpt><trkpt lat="39.57103246852893" lon="15.948097587421307"><ele>891.1999999999999</ele><time>2026-04-27T06:54:54.999Z</time></trkpt><trkpt lat="39.57102542133406" lon="15.948231953255341"><ele>889.5999999999999</ele><time>2026-04-27T06:54:55.999Z</time></trkpt><trkpt lat="39.57101649333911" lon="15.948335372499816"><ele>888.0</ele><time>2026-04-27T06:54:56.999Z</time></trkpt><trkpt lat="39.57101998288209" lon="15.948440319584385"><ele>886.1666666666666</ele><time>2026-04-27T06:54:57.999Z</time></trkpt><trkpt lat="39.57104557038903" lon="15.948551878158714"><ele>884.3333333333333</ele><time>2026-04-27T06:54:58.999Z</time></trkpt><trkpt lat="39.57108683554826" lon="15.948647041476438"><ele>882.5</ele><time>2026-04-27T06:54:59.999Z</time></trkpt><trkpt lat="39.57113877303084" lon="15.948738918303976"><ele>880.6666666666666</ele><time>2026-04-27T06:55:00.999Z</time></trkpt><trkpt lat="39.57120633921611" lon="15.948807393885632"><ele>878.8333333333333</ele><time>2026-04-27T06:55:01.999Z</time></trkpt><trkpt lat="39.57127280622516" lon="15.948851303170096"><ele>877.0</ele><time>2026-04-27T06:55:02.999Z</time></trkpt><trkpt lat="39.5713044421957" lon="15.949002026576805"><ele>878.0</ele><time>2026-04-27T06:55:04.999Z</time></trkpt><trkpt lat="39.57129401808223" lon="15.949136946723012"><ele>879.0</ele><time>2026-04-27T06:55:05.999Z</time></trkpt><trkpt lat="39.57130701256829" lon="15.94926748736122"><ele>880.0</ele><time>2026-04-27T06:55:06.999Z</time></trkpt><trkpt lat="39.571361177188386" lon="15.949395213684596"><ele>881.0</ele><time>2026-04-27T06:55:07.999Z</time></trkpt><trkpt lat="39.5714012041249" lon="15.949516622501585"><ele>882.0</ele><time>2026-04-27T06:55:08.999Z</time></trkpt><trkpt lat="39.57144147689514" lon="15.94959858631354"><ele>882.0</ele><time>2026-04-27T06:55:09.999Z</time></trkpt><trkpt lat="39.571540742784684" lon="15.949670385280346"><ele>882.0</ele><time>2026-04-27T06:55:11.999Z</time></trkpt><trkpt lat="39.5716238958222" lon="15.949670721346811"><ele>882.0</ele><time>2026-04-27T06:55:12.999Z</time></trkpt><trkpt lat="39.57174491171379" lon="15.949660968235465"><ele>882.0</ele><time>2026-04-27T06:55:13.999Z</time></trkpt><trkpt lat="39.571875615197705" lon="15.949640510475087"><ele>882.0</ele><time>2026-04-27T06:55:14.999Z</time></trkpt><trkpt lat="39.57198402551614" lon="15.949608373294616"><ele>882.0</ele><time>2026-04-27T06:55:15.999Z</time></trkpt><trkpt lat="39.57211534845428" lon="15.94956420059316"><ele>882.0</ele><time>2026-04-27T06:55:16.999Z</time></trkpt><trkpt lat="39.572228763030054" lon="15.94953483287937"><ele>882.0</ele><time>2026-04-27T06:55:17.999Z</time></trkpt><trkpt lat="39.572318740027036" lon="15.949523229854934"><ele>881.0</ele><time>2026-04-27T06:55:18.999Z</time></trkpt><trkpt lat="39.57242196587982" lon="15.949532271256917"><ele>880.0</ele><time>2026-04-27T06:55:19.999Z</time></trkpt><trkpt lat="39.5725423024725" lon="15.94956069293007"><ele>879.0</ele><time>2026-04-27T06:55:20.999Z</time></trkpt><trkpt lat="39.57267079453372" lon="15.949568737367747"><ele>878.0</ele><time>2026-04-27T06:55:21.999Z</time></trkpt><trkpt lat="39.57278259677638" lon="15.949547542850187"><ele>881.4</ele><time>2026-04-27T06:55:22.999Z</time></trkpt><trkpt lat="39.572874133326515" lon="15.949514114016486"><ele>884.8</ele><time>2026-04-27T06:55:23.999Z</time></trkpt><trkpt lat="39.572968775548894" lon="15.949459157586391"><ele>888.2</ele><time>2026-04-27T06:55:24.999Z</time></trkpt><trkpt lat="39.573068880670554" lon="15.949427545237402"><ele>891.6</ele><time>2026-04-27T06:55:25.999Z</time></trkpt><trkpt lat="39.57315641072769" lon="15.94938515155035"><ele>895.0</ele><time>2026-04-27T06:55:26.999Z</time></trkpt><trkpt lat="39.573251913511776" lon="15.949363772261478"><ele>894.9999999999999</ele><time>2026-04-27T06:55:28.999Z</time></trkpt><trkpt lat="39.57330174792845" lon="15.94943328421093"><ele>895.0</ele><time>2026-04-27T06:55:30.999Z</time></trkpt><trkpt lat="39.57331787890464" lon="15.949516598914494"><ele>895.0</ele><time>2026-04-27T06:55:31.999Z</time></trkpt><trkpt lat="39.57333489994441" lon="15.94963718196206"><ele>895.0</ele><time>2026-04-27T06:55:32.999Z</time></trkpt><trkpt lat="39.57337165810085" lon="15.949768788397668"><ele>894.9999999999999</ele><time>2026-04-27T06:55:33.999Z</time></trkpt><trkpt lat="39.57342078428039" lon="15.949873925561002"><ele>895.0</ele><time>2026-04-27T06:55:34.999Z</time></trkpt><trkpt lat="39.57349169946609" lon="15.949971241846717"><ele>895.0</ele><time>2026-04-27T06:55:35.999Z</time></trkpt><trkpt lat="39.57355862204474" lon="15.950033797745702"><ele>895.0</ele><time>2026-04-27T06:55:37Z</time></trkpt><trkpt lat="39.573619260871816" lon="15.950074701113122"><ele>895.0</ele><time>2026-04-27T06:55:38Z</time></trkpt><trkpt lat="39.57369044827" lon="15.95009194709344"><ele>895.0</ele><time>2026-04-27T06:55:39Z</time></trkpt><trkpt lat="39.57380274184111" lon="15.950115923227699"><ele>895.0</ele><time>2026-04-27T06:55:40Z</time></trkpt><trkpt lat="39.57393883353166" lon="15.950153417164303"><ele>893.0</ele><time>2026-04-27T06:55:41Z</time></trkpt><trkpt lat="39.574064005530445" lon="15.950185803472852"><ele>891.0</ele><time>2026-04-27T06:55:42Z</time></trkpt><trkpt lat="39.57418398688094" lon="15.950204720837677"><ele>889.0</ele><time>2026-04-27T06:55:43Z</time></trkpt><trkpt lat="39.574293929226066" lon="15.950215662798122"><ele>887.0</ele><time>2026-04-27T06:55:44Z</time></trkpt><trkpt lat="39.57437819689213" lon="15.95022400206951"><ele>885.0</ele><time>2026-04-27T06:55:45Z</time></trkpt><trkpt lat="39.574446102392876" lon="15.950237366634742"><ele>885.0</ele><time>2026-04-27T06:55:46Z</time></trkpt><trkpt lat="39.57450218651802" lon="15.950278173608128"><ele>885.0</ele><time>2026-04-27T06:55:47Z</time></trkpt><trkpt lat="39.574561769115704" lon="15.950340649976745"><ele>885.0</ele><time>2026-04-27T06:55:48Z</time></trkpt><trkpt lat="39.57463486048821" lon="15.950449657471275"><ele>885.0</ele><time>2026-04-27T06:55:49Z</time></trkpt><trkpt lat="39.57469141291983" lon="15.950514456926584"><ele>885.0</ele><time>2026-04-27T06:55:50Z</time></trkpt><trkpt lat="39.574763804184094" lon="15.950535327479987"><ele>885.0</ele><time>2026-04-27T06:55:51Z</time></trkpt><trkpt lat="39.57486212588261" lon="15.950527392891802"><ele>885.25</ele><time>2026-04-27T06:55:52Z</time></trkpt><trkpt lat="39.57497934843181" lon="15.950517405873018"><ele>885.5</ele><time>2026-04-27T06:55:53Z</time></trkpt><trkpt lat="39.57512625058707" lon="15.950510042781257"><ele>885.75</ele><time>2026-04-27T06:55:54Z</time></trkpt><trkpt lat="39.57527121310759" lon="15.950490774428024"><ele>886.0</ele><time>2026-04-27T06:55:55Z</time></trkpt><trkpt lat="39.57539210003739" lon="15.950485542584667"><ele>886.0</ele><time>2026-04-27T06:55:56Z</time></trkpt><trkpt lat="39.57551597941213" lon="15.950512853086744"><ele>885.9999999999999</ele><time>2026-04-27T06:55:57Z</time></trkpt><trkpt lat="39.57562833222995" lon="15.950542833997357"><ele>885.9999999999999</ele><time>2026-04-27T06:55:58Z</time></trkpt><trkpt lat="39.57570665091773" lon="15.950590890645408"><ele>886.0</ele><time>2026-04-27T06:55:59Z</time></trkpt><trkpt lat="39.57579276415751" lon="15.950618196173531"><ele>886.0</ele><time>2026-04-27T06:56:00Z</time></trkpt><trkpt lat="39.5758963561668" lon="15.950607802610667"><ele>886.0</ele><time>2026-04-27T06:56:01Z</time></trkpt><trkpt lat="39.57603217750351" lon="15.950572426402836"><ele>886.0</ele><time>2026-04-27T06:56:02Z</time></trkpt><trkpt lat="39.576179083427284" lon="15.950537517587273"><ele>886.0</ele><time>2026-04-27T06:56:03Z</time></trkpt><trkpt lat="39.576263216348394" lon="15.950513607951539"><ele>886.0</ele><time>2026-04-27T06:56:04Z</time></trkpt><trkpt lat="39.57631331873163" lon="15.950428237556164"><ele>889.1666666666666</ele><time>2026-04-27T06:56:06Z</time></trkpt><trkpt lat="39.57633946013586" lon="15.95032888950928"><ele>892.3333333333333</ele><time>2026-04-27T06:56:07Z</time></trkpt><trkpt lat="39.5763663533472" lon="15.950226251161645"><ele>895.5</ele><time>2026-04-27T06:56:08Z</time></trkpt><trkpt lat="39.57640645364307" lon="15.950163090956964"><ele>898.6666666666667</ele><time>2026-04-27T06:56:09Z</time></trkpt><trkpt lat="39.5765043036475" lon="15.950131261671212"><ele>901.8333333333334</ele><time>2026-04-27T06:56:11Z</time></trkpt><trkpt lat="39.5765825977805" lon="15.950196910659301"><ele>905.0</ele><time>2026-04-27T06:56:13Z</time></trkpt><trkpt lat="39.57660924242284" lon="15.950358532646794"><ele>905.0000000000001</ele><time>2026-04-27T06:56:15Z</time></trkpt><trkpt lat="39.57662867088033" lon="15.950446111768478"><ele>905.0</ele><time>2026-04-27T06:56:16Z</time></trkpt><trkpt lat="39.57664812860336" lon="15.950534119232863"><ele>905.0</ele><time>2026-04-27T06:56:17Z</time></trkpt><trkpt lat="39.576690997296396" lon="15.950616713983258"><ele>905.0</ele><time>2026-04-27T06:56:18Z</time></trkpt><trkpt lat="39.57675072833014" lon="15.950689264522032"><ele>905.0000000000001</ele><time>2026-04-27T06:56:19Z</time></trkpt><trkpt lat="39.57681137082751" lon="15.950747867587099"><ele>905.0</ele><time>2026-04-27T06:56:20Z</time></trkpt><trkpt lat="39.57682080136083" lon="15.9508692949386"><ele>906.6</ele><time>2026-04-27T06:56:22Z</time></trkpt><trkpt lat="39.57671736551108" lon="15.950998450447033"><ele>908.2</ele><time>2026-04-27T06:56:24Z</time></trkpt><trkpt lat="39.5766455087803" lon="15.951082017737956"><ele>909.8</ele><time>2026-04-27T06:56:25Z</time></trkpt><trkpt lat="39.57660570132994" lon="15.951162080559813"><ele>911.4</ele><time>2026-04-27T06:56:26Z</time></trkpt><trkpt lat="39.57660098989333" lon="15.951259581395435"><ele>913.0</ele><time>2026-04-27T06:56:27Z</time></trkpt><trkpt lat="39.57660770860158" lon="15.9513634159704"><ele>913.0</ele><time>2026-04-27T06:56:28Z</time></trkpt><trkpt lat="39.57662862786875" lon="15.951468735837524"><ele>913.0</ele><time>2026-04-27T06:56:29Z</time></trkpt><trkpt lat="39.576668541676284" lon="15.951588750290105"><ele>913.0</ele><time>2026-04-27T06:56:30Z</time></trkpt><trkpt lat="39.576714305843744" lon="15.9517351408116"><ele>913.0</ele><time>2026-04-27T06:56:31Z</time></trkpt><trkpt lat="39.576728456974664" lon="15.951852709018704"><ele>913.0</ele><time>2026-04-27T06:56:32Z</time></trkpt><trkpt lat="39.57671583257896" lon="15.951964737199797"><ele>915.0</ele><time>2026-04-27T06:56:33Z</time></trkpt><trkpt lat="39.57668994388484" lon="15.952066366715425"><ele>917.0</ele><time>2026-04-27T06:56:34Z</time></trkpt><trkpt lat="39.576661742411524" lon="15.952183817904057"><ele>919.0</ele><time>2026-04-27T06:56:35Z</time></trkpt><trkpt lat="39.57662304025144" lon="15.95231278769084"><ele>921.0</ele><time>2026-04-27T06:56:36Z</time></trkpt><trkpt lat="39.576596626385154" lon="15.952438944453668"><ele>923.0</ele><time>2026-04-27T06:56:37Z</time></trkpt><trkpt lat="39.5765734359712" lon="15.952562379316523"><ele>923.8333333333334</ele><time>2026-04-27T06:56:38Z</time></trkpt><trkpt lat="39.57657220285402" lon="15.952658143928963"><ele>924.6666666666667</ele><time>2026-04-27T06:56:39Z</time></trkpt><trkpt lat="39.576550609799874" lon="15.952741028451593"><ele>925.5</ele><time>2026-04-27T06:56:41Z</time></trkpt><trkpt lat="39.57649756827587" lon="15.952810414636193"><ele>926.3333333333333</ele><time>2026-04-27T06:57:33.999Z</time></trkpt><trkpt lat="39.57646857825298" lon="15.95292655242171"><ele>927.1666666666666</ele><time>2026-04-27T06:57:41.999Z</time></trkpt><trkpt lat="39.57645176396952" lon="15.95302413940244"><ele>928.0</ele><time>2026-04-27T06:57:43Z</time></trkpt><trkpt lat="39.5764419948543" lon="15.95312560627913"><ele>928.0</ele><time>2026-04-27T06:57:44Z</time></trkpt><trkpt lat="39.57643160785042" lon="15.95324549893605"><ele>928.0</ele><time>2026-04-27T06:57:45Z</time></trkpt><trkpt lat="39.576413610231164" lon="15.953375088921499"><ele>928.0</ele><time>2026-04-27T06:57:46Z</time></trkpt><trkpt lat="39.576407124679676" lon="15.953498096862749"><ele>928.0</ele><time>2026-04-27T06:57:47Z</time></trkpt><trkpt lat="39.57640054780127" lon="15.953602270652036"><ele>928.0</ele><time>2026-04-27T06:57:48Z</time></trkpt><trkpt lat="39.576393191370656" lon="15.953764423172354"><ele>927.0</ele><time>2026-04-27T06:57:50Z</time></trkpt><trkpt lat="39.57638510309175" lon="15.953863017036436"><ele>926.0</ele><time>2026-04-27T06:57:51Z</time></trkpt><trkpt lat="39.576379944318774" lon="15.954001494161869"><ele>925.0</ele><time>2026-04-27T06:57:53Z</time></trkpt><trkpt lat="39.576453483168756" lon="15.954096634921905"><ele>924.0</ele><time>2026-04-27T06:57:55Z</time></trkpt><trkpt lat="39.576535581470374" lon="15.954189012109557"><ele>923.0</ele><time>2026-04-27T06:57:56Z</time></trkpt><trkpt lat="39.57663051252566" lon="15.954314314228851"><ele>923.2</ele><time>2026-04-27T06:57:57Z</time></trkpt><trkpt lat="39.576710358765496" lon="15.954422881642895"><ele>923.4</ele><time>2026-04-27T06:57:58Z</time></trkpt><trkpt lat="39.576780535131" lon="15.954510895835364"><ele>923.6000000000001</ele><time>2026-04-27T06:57:59Z</time></trkpt><trkpt lat="39.576835234946756" lon="15.954579398616227"><ele>923.8000000000001</ele><time>2026-04-27T06:58:00Z</time></trkpt><trkpt lat="39.57692899823289" lon="15.954660537520551"><ele>924.0</ele><time>2026-04-27T06:58:02Z</time></trkpt><trkpt lat="39.57707687550391" lon="15.954650425710275"><ele>924.0</ele><time>2026-04-27T06:58:04Z</time></trkpt><trkpt lat="39.57718182639641" lon="15.9546392914633"><ele>924.0000000000001</ele><time>2026-04-27T06:58:05Z</time></trkpt><trkpt lat="39.57727584480913" lon="15.954669591220341"><ele>924.0000000000001</ele><time>2026-04-27T06:58:07Z</time></trkpt><trkpt lat="39.57732418862441" lon="15.954823041504692"><ele>924.0</ele><time>2026-04-27T06:58:09Z</time></trkpt><trkpt lat="39.577340279083735" lon="15.9549478550181"><ele>924.0</ele><time>2026-04-27T06:58:10Z</time></trkpt><trkpt lat="39.5773448357788" lon="15.95503299993629"><ele>923.2</ele><time>2026-04-27T06:58:11Z</time></trkpt><trkpt lat="39.57730383338621" lon="15.95513008672373"><ele>922.4000000000001</ele><time>2026-04-27T06:58:12Z</time></trkpt><trkpt lat="39.57722768189379" lon="15.955245280876111"><ele>921.6</ele><time>2026-04-27T06:58:13Z</time></trkpt><trkpt lat="39.57715858351942" lon="15.955356171301979"><ele>920.8</ele><time>2026-04-27T06:58:14Z</time></trkpt><trkpt lat="39.57710108476144" lon="15.95546880063344"><ele>920.0</ele><time>2026-04-27T06:58:15Z</time></trkpt><trkpt lat="39.57704490683096" lon="15.955574331858234"><ele>915.8</ele><time>2026-04-27T06:58:16Z</time></trkpt><trkpt lat="39.57696115303784" lon="15.955659216321473"><ele>911.6</ele><time>2026-04-27T06:58:17Z</time></trkpt><trkpt lat="39.57691065572525" lon="15.95572658240448"><ele>907.4000000000001</ele><time>2026-04-27T06:58:18Z</time></trkpt><trkpt lat="39.57688409721223" lon="15.955892197459924"><ele>903.2</ele><time>2026-04-27T06:58:20Z</time></trkpt><trkpt lat="39.57689282679354" lon="15.955985178976022"><ele>899.0</ele><time>2026-04-27T06:58:21Z</time></trkpt><trkpt lat="39.576939762836076" lon="15.956083700153407"><ele>901.75</ele><time>2026-04-27T06:58:22Z</time></trkpt><trkpt lat="39.57702062605894" lon="15.956196286923817"><ele>904.5</ele><time>2026-04-27T06:58:23Z</time></trkpt><trkpt lat="39.57710897460247" lon="15.956310965533499"><ele>907.25</ele><time>2026-04-27T06:58:24Z</time></trkpt><trkpt lat="39.577189322719455" lon="15.956426029289123"><ele>910.0</ele><time>2026-04-27T06:58:25Z</time></trkpt><trkpt lat="39.57727369824795" lon="15.956523655770992"><ele>909.9999999999999</ele><time>2026-04-27T06:58:26Z</time></trkpt><trkpt lat="39.577353624538304" lon="15.95660671635763"><ele>910.0</ele><time>2026-04-27T06:58:27Z</time></trkpt><trkpt lat="39.577423435954294" lon="15.95667895212654"><ele>910.0</ele><time>2026-04-27T06:58:28Z</time></trkpt><trkpt lat="39.57747248965476" lon="15.95673534849215"><ele>910.0</ele><time>2026-04-27T06:58:29Z</time></trkpt><trkpt lat="39.57750957886951" lon="15.956809626580464"><ele>909.9999999999999</ele><time>2026-04-27T06:58:31Z</time></trkpt><trkpt lat="39.577491017784155" lon="15.956900785461425"><ele>910.0</ele><time>2026-04-27T06:58:33Z</time></trkpt><trkpt lat="39.57736352687462" lon="15.956984674839928"><ele>911.8</ele><time>2026-04-27T06:58:35Z</time></trkpt><trkpt lat="39.577277645215254" lon="15.957045625205781"><ele>913.6</ele><time>2026-04-27T06:58:36Z</time></trkpt><trkpt lat="39.577203880145234" lon="15.957122616524018"><ele>915.4000000000001</ele><time>2026-04-27T06:58:37Z</time></trkpt><trkpt lat="39.57716459173195" lon="15.957189098376213"><ele>917.2</ele><time>2026-04-27T06:58:38Z</time></trkpt><trkpt lat="39.577148989150494" lon="15.957330393180557"><ele>919.0</ele><time>2026-04-27T06:58:40Z</time></trkpt><trkpt lat="39.5771587292165" lon="15.957448069647144"><ele>915.6</ele><time>2026-04-27T06:58:41Z</time></trkpt><trkpt lat="39.577157379615485" lon="15.957568762295764"><ele>912.2</ele><time>2026-04-27T06:58:42Z</time></trkpt><trkpt lat="39.57712584801364" lon="15.957678370672546"><ele>908.8000000000001</ele><time>2026-04-27T06:58:43Z</time></trkpt><trkpt lat="39.57706004664854" lon="15.957800156057719"><ele>905.4000000000001</ele><time>2026-04-27T06:58:44Z</time></trkpt><trkpt lat="39.57697893374963" lon="15.95793735404338"><ele>902.0</ele><time>2026-04-27T06:58:45Z</time></trkpt><trkpt lat="39.576913206148724" lon="15.958037753896788"><ele>902.0000000000001</ele><time>2026-04-27T06:58:46Z</time></trkpt><trkpt lat="39.57685394706397" lon="15.95810961991791"><ele>902.0</ele><time>2026-04-27T06:58:47Z</time></trkpt><trkpt lat="39.576811288708" lon="15.958187398331761"><ele>902.0</ele><time>2026-04-27T06:58:48Z</time></trkpt><trkpt lat="39.57678786657252" lon="15.958268737964932"><ele>902.0</ele><time>2026-04-27T06:58:48.999Z</time></trkpt><trkpt lat="39.57674456600269" lon="15.958350506884305"><ele>902.0000000000001</ele><time>2026-04-27T06:58:50.999Z</time></trkpt><trkpt lat="39.57666142269158" lon="15.958353685355059"><ele>902.0</ele><time>2026-04-27T06:58:52.999Z</time></trkpt><trkpt lat="39.57652384089507" lon="15.958385175693062"><ele>907.0</ele><time>2026-04-27T06:58:54.999Z</time></trkpt><trkpt lat="39.57642435453363" lon="15.958416335190757"><ele>912.0</ele><time>2026-04-27T06:58:55.999Z</time></trkpt><trkpt lat="39.576348832138486" lon="15.958437523602443"><ele>917.0</ele><time>2026-04-27T06:58:56.999Z</time></trkpt><trkpt lat="39.57627182379801" lon="15.958556573140218"><ele>922.0</ele><time>2026-04-27T06:58:58.999Z</time></trkpt><trkpt lat="39.57625908821822" lon="15.958656183500045"><ele>927.0</ele><time>2026-04-27T06:58:59.999Z</time></trkpt><trkpt lat="39.576247306203456" lon="15.95879442520154"><ele>927.0</ele><time>2026-04-27T06:59:00.999Z</time></trkpt><trkpt lat="39.576225828401704" lon="15.958936352062576"><ele>927.0</ele><time>2026-04-27T06:59:01.999Z</time></trkpt><trkpt lat="39.57618255665016" lon="15.959073304291294"><ele>927.0</ele><time>2026-04-27T06:59:02.999Z</time></trkpt><trkpt lat="39.576126594654525" lon="15.959199684055196"><ele>927.0</ele><time>2026-04-27T06:59:03.999Z</time></trkpt><trkpt lat="39.57607473580405" lon="15.959324681302657"><ele>927.0</ele><time>2026-04-27T06:59:04.999Z</time></trkpt><trkpt lat="39.576051470804984" lon="15.959420813347018"><ele>923.8</ele><time>2026-04-27T06:59:05.999Z</time></trkpt><trkpt lat="39.57605446191596" lon="15.959529627244766"><ele>920.6</ele><time>2026-04-27T06:59:06.999Z</time></trkpt><trkpt lat="39.57606432351718" lon="15.959672607035575"><ele>917.3999999999999</ele><time>2026-04-27T06:59:07.999Z</time></trkpt><trkpt lat="39.57607338805833" lon="15.959835019395104"><ele>914.1999999999999</ele><time>2026-04-27T06:59:08.999Z</time></trkpt><trkpt lat="39.5760707429838" lon="15.959997881916998"><ele>911.0</ele><time>2026-04-27T06:59:09.999Z</time></trkpt><trkpt lat="39.576057133044145" lon="15.960129149666765"><ele>910.5000000000001</ele><time>2026-04-27T06:59:10.999Z</time></trkpt><trkpt lat="39.57605083151544" lon="15.960232275876603"><ele>910.0</ele><time>2026-04-27T06:59:11.999Z</time></trkpt><trkpt lat="39.576048863945644" lon="15.960315076767676"><ele>909.5</ele><time>2026-04-27T06:59:12.999Z</time></trkpt><trkpt lat="39.576066559873226" lon="15.960402243104307"><ele>909.0</ele><time>2026-04-27T06:59:13.999Z</time></trkpt><trkpt lat="39.57611340166824" lon="15.960469179665937"><ele>908.5000000000001</ele><time>2026-04-27T06:59:14.999Z</time></trkpt><trkpt lat="39.57617864178179" lon="15.960530091036361"><ele>908.0</ele><time>2026-04-27T06:59:15.999Z</time></trkpt><trkpt lat="39.57626211588665" lon="15.960593363661353"><ele>912.0</ele><time>2026-04-27T06:59:16.999Z</time></trkpt><trkpt lat="39.57636159205372" lon="15.960664647714133"><ele>916.0</ele><time>2026-04-27T06:59:17.999Z</time></trkpt><trkpt lat="39.57646395659523" lon="15.96073314782413"><ele>920.0</ele><time>2026-04-27T06:59:18.999Z</time></trkpt><trkpt lat="39.576562457154104" lon="15.960768583832902"><ele>924.0</ele><time>2026-04-27T06:59:19.999Z</time></trkpt><trkpt lat="39.57663972969243" lon="15.960775681161754"><ele>928.0</ele><time>2026-04-27T06:59:20.999Z</time></trkpt><trkpt lat="39.57673080511336" lon="15.960771809276196"><ele>928.0</ele><time>2026-04-27T06:59:21.999Z</time></trkpt><trkpt lat="39.57684155747243" lon="15.960786512284782"><ele>928.0</ele><time>2026-04-27T06:59:22.999Z</time></trkpt><trkpt lat="39.576947491946974" lon="15.960822239647428"><ele>928.0</ele><time>2026-04-27T06:59:23.999Z</time></trkpt><trkpt lat="39.57702280935391" lon="15.96087662613413"><ele>928.0</ele><time>2026-04-27T06:59:24.999Z</time></trkpt><trkpt lat="39.57708866357146" lon="15.960970283719618"><ele>928.0</ele><time>2026-04-27T06:59:25.999Z</time></trkpt><trkpt lat="39.57715629081903" lon="15.961100669359054"><ele>931.75</ele><time>2026-04-27T06:59:26.999Z</time></trkpt><trkpt lat="39.57723644949868" lon="15.961232883749368"><ele>935.5</ele><time>2026-04-27T06:59:27.999Z</time></trkpt><trkpt lat="39.57731299272065" lon="15.961351976201346"><ele>939.25</ele><time>2026-04-27T06:59:28.999Z</time></trkpt><trkpt lat="39.57737509948168" lon="15.961477527087517"><ele>943.0</ele><time>2026-04-27T06:59:29.999Z</time></trkpt><trkpt lat="39.577419704256286" lon="15.961607508958023"><ele>939.3333333333333</ele><time>2026-04-27T06:59:30.999Z</time></trkpt><trkpt lat="39.57747025971747" lon="15.961741911339722"><ele>935.6666666666666</ele><time>2026-04-27T06:59:31.999Z</time></trkpt><trkpt lat="39.577512779789835" lon="15.961854733971505"><ele>932.0</ele><time>2026-04-27T06:59:32.999Z</time></trkpt><trkpt lat="39.57756682497759" lon="15.961926130559732"><ele>928.3333333333333</ele><time>2026-04-27T06:59:33.999Z</time></trkpt><trkpt lat="39.57762356624937" lon="15.96196464222931"><ele>924.6666666666666</ele><time>2026-04-27T06:59:34.999Z</time></trkpt><trkpt lat="39.57768750021157" lon="15.961970523365775"><ele>921.0</ele><time>2026-04-27T06:59:35.999Z</time></trkpt><trkpt lat="39.57776251216374" lon="15.961958425191133"><ele>926.6666666666666</ele><time>2026-04-27T06:59:36.999Z</time></trkpt><trkpt lat="39.577858243309386" lon="15.961947592782746"><ele>932.3333333333333</ele><time>2026-04-27T06:59:37.999Z</time></trkpt><trkpt lat="39.57796341433075" lon="15.961965316354501"><ele>938.0</ele><time>2026-04-27T06:59:38.999Z</time></trkpt><trkpt lat="39.578056040004725" lon="15.961998497548036"><ele>943.6666666666666</ele><time>2026-04-27T06:59:39.999Z</time></trkpt><trkpt lat="39.57813151264667" lon="15.96202215261728"><ele>949.3333333333333</ele><time>2026-04-27T06:59:40.999Z</time></trkpt><trkpt lat="39.57820062432393" lon="15.961993312828644"><ele>955.0</ele><time>2026-04-27T06:59:42.999Z</time></trkpt><trkpt lat="39.57829994813555" lon="15.961868828347182"><ele>955.0</ele><time>2026-04-27T06:59:44.999Z</time></trkpt><trkpt lat="39.57837940389466" lon="15.961768653056954"><ele>955.0</ele><time>2026-04-27T06:59:45.999Z</time></trkpt><trkpt lat="39.57845444720646" lon="15.961689358835356"><ele>955.0</ele><time>2026-04-27T06:59:46.999Z</time></trkpt><trkpt lat="39.57854555577084" lon="15.96172377775075"><ele>955.0</ele><time>2026-04-27T06:59:49Z</time></trkpt><trkpt lat="39.57858701470721" lon="15.961790164905537"><ele>955.0</ele><time>2026-04-27T06:59:50Z</time></trkpt><trkpt lat="39.578607918999445" lon="15.961892791747408"><ele>954.9999999999999</ele><time>2026-04-27T06:59:51Z</time></trkpt><trkpt lat="39.57863207664477" lon="15.962017120929849"><ele>955.0</ele><time>2026-04-27T06:59:52Z</time></trkpt><trkpt lat="39.578690207762" lon="15.962092567501816"><ele>955.0</ele><time>2026-04-27T06:59:53Z</time></trkpt><trkpt lat="39.57876122467636" lon="15.962162337761837"><ele>955.0</ele><time>2026-04-27T06:59:54Z</time></trkpt><trkpt lat="39.57877661110056" lon="15.962273530889803"><ele>954.9999999999999</ele><time>2026-04-27T06:59:56Z</time></trkpt><trkpt lat="39.57873728908402" lon="15.962349037477853"><ele>955.0</ele><time>2026-04-27T06:59:57Z</time></trkpt><trkpt lat="39.57868648251179" lon="15.96244803662038"><ele>958.25</ele><time>2026-04-27T06:59:58Z</time></trkpt><trkpt lat="39.578621692430886" lon="15.962574440272167"><ele>961.5</ele><time>2026-04-27T06:59:59Z</time></trkpt><trkpt lat="39.578563935931705" lon="15.962719111291177"><ele>964.75</ele><time>2026-04-27T07:00:00Z</time></trkpt><trkpt lat="39.57853345345612" lon="15.962853535724356"><ele>968.0</ele><time>2026-04-27T07:00:01Z</time></trkpt><trkpt lat="39.578489851930144" lon="15.962998810583109"><ele>968.0</ele><time>2026-04-27T07:00:02Z</time></trkpt><trkpt lat="39.578441770886485" lon="15.963146780829943"><ele>968.0</ele><time>2026-04-27T07:00:03Z</time></trkpt><trkpt lat="39.578388554534996" lon="15.963274019663604"><ele>968.0</ele><time>2026-04-27T07:00:04Z</time></trkpt><trkpt lat="39.57834735349141" lon="15.963396401797402"><ele>968.0</ele><time>2026-04-27T07:00:05Z</time></trkpt><trkpt lat="39.57834348868952" lon="15.963514688917671"><ele>968.0</ele><time>2026-04-27T07:00:07Z</time></trkpt><trkpt lat="39.578434503741605" lon="15.963555133744586"><ele>968.0</ele><time>2026-04-27T07:00:09Z</time></trkpt><trkpt lat="39.57853758250757" lon="15.963517346507471"><ele>968.0</ele><time>2026-04-27T07:00:11Z</time></trkpt><trkpt lat="39.57859059370168" lon="15.963452749430548"><ele>968.0</ele><time>2026-04-27T07:00:12Z</time></trkpt><trkpt lat="39.57865166438916" lon="15.963366832957165"><ele>968.0</ele><time>2026-04-27T07:00:13Z</time></trkpt><trkpt lat="39.578725428730934" lon="15.96328560209697"><ele>968.0</ele><time>2026-04-27T07:00:14Z</time></trkpt><trkpt lat="39.57881882224656" lon="15.963216771339772"><ele>974.8</ele><time>2026-04-27T07:00:15Z</time></trkpt><trkpt lat="39.57892393765405" lon="15.963134581673424"><ele>981.5999999999999</ele><time>2026-04-27T07:00:16Z</time></trkpt><trkpt lat="39.57902969317641" lon="15.963034212328179"><ele>988.4000000000001</ele><time>2026-04-27T07:00:17Z</time></trkpt><trkpt lat="39.57909280859456" lon="15.962931175199438"><ele>995.2</ele><time>2026-04-27T07:00:18Z</time></trkpt><trkpt lat="39.57914722204392" lon="15.962862396053714"><ele>1002.0</ele><time>2026-04-27T07:00:19Z</time></trkpt><trkpt lat="39.579206861297585" lon="15.962812677661567"><ele>1002.0</ele><time>2026-04-27T07:00:20Z</time></trkpt><trkpt lat="39.57928433432356" lon="15.962766672893311"><ele>1002.0</ele><time>2026-04-27T07:00:21Z</time></trkpt><trkpt lat="39.57938537439627" lon="15.96273607428598"><ele>1002.0</ele><time>2026-04-27T07:00:22Z</time></trkpt><trkpt lat="39.5794935490859" lon="15.962721890576308"><ele>1002.0</ele><time>2026-04-27T07:00:23Z</time></trkpt><trkpt lat="39.579577062549085" lon="15.962715428591311"><ele>1002.0</ele><time>2026-04-27T07:00:24Z</time></trkpt><trkpt lat="39.579653018322254" lon="15.962730150935165"><ele>1003.0</ele><time>2026-04-27T07:00:25Z</time></trkpt><trkpt lat="39.57972173722403" lon="15.962769172078085"><ele>1004.0</ele><time>2026-04-27T07:00:26Z</time></trkpt><trkpt lat="39.57981787547768" lon="15.962766285884284"><ele>1005.0</ele><time>2026-04-27T07:00:28Z</time></trkpt><trkpt lat="39.57987818704127" lon="15.962631602129361"><ele>1006.0</ele><time>2026-04-27T07:00:30Z</time></trkpt><trkpt lat="39.579867954625115" lon="15.962536488346363"><ele>1007.0</ele><time>2026-04-27T07:00:31Z</time></trkpt><trkpt lat="39.579845982072506" lon="15.962406606036913"><ele>1007.0</ele><time>2026-04-27T07:00:32Z</time></trkpt><trkpt lat="39.579804061448826" lon="15.962244278282796"><ele>1007.0</ele><time>2026-04-27T07:00:33Z</time></trkpt><trkpt lat="39.579732078685076" lon="15.962079661255201"><ele>1007.0</ele><time>2026-04-27T07:00:34Z</time></trkpt><trkpt lat="39.57984480381891" lon="15.961786951627554"><ele>1006.4000000000001</ele><time>2026-04-27T07:00:35Z</time></trkpt><trkpt lat="39.57978620531641" lon="15.961652928411048"><ele>1005.8000000000001</ele><time>2026-04-27T07:00:36Z</time></trkpt><trkpt lat="39.57974064758911" lon="15.961533174897871"><ele>1005.2</ele><time>2026-04-27T07:00:37Z</time></trkpt><trkpt lat="39.57970114077941" lon="15.961407046115164"><ele>1004.6</ele><time>2026-04-27T07:00:38Z</time></trkpt><trkpt lat="39.5796727743702" lon="15.961290469336678"><ele>1004.0</ele><time>2026-04-27T07:00:39Z</time></trkpt><trkpt lat="39.57965180826636" lon="15.961204305475952"><ele>1004.0000000000001</ele><time>2026-04-27T07:00:40Z</time></trkpt><trkpt lat="39.57966227776481" lon="15.961284976380064"><ele>1004.0</ele><time>2026-04-27T07:00:47Z</time></trkpt><trkpt lat="39.57966401961577" lon="15.961376879144865"><ele>1004.0</ele><time>2026-04-27T07:00:51.999Z</time></trkpt><trkpt lat="39.579715252559915" lon="15.961509916311044"><ele>1004.0</ele><time>2026-04-27T07:01:30.999Z</time></trkpt><trkpt lat="39.579754562186125" lon="15.961607175904755"><ele>1004.0000000000001</ele><time>2026-04-27T07:01:31.999Z</time></trkpt><trkpt lat="39.57978283207283" lon="15.96173628994914"><ele>1004.0</ele><time>2026-04-27T07:01:32.999Z</time></trkpt><trkpt lat="39.579841408160604" lon="15.961861662748369"><ele>1004.75</ele><time>2026-04-27T07:01:33.999Z</time></trkpt><trkpt lat="39.57991024945812" lon="15.96200678739762"><ele>1005.5</ele><time>2026-04-27T07:01:34.999Z</time></trkpt><trkpt lat="39.579982734071066" lon="15.962159675956421"><ele>1006.25</ele><time>2026-04-27T07:01:35.999Z</time></trkpt><trkpt lat="39.58005473404081" lon="15.962301408985638"><ele>1007.0</ele><time>2026-04-27T07:01:36.999Z</time></trkpt><trkpt lat="39.58009251641904" lon="15.962459707879317"><ele>1010.75</ele><time>2026-04-27T07:01:37.999Z</time></trkpt><trkpt lat="39.58011844134363" lon="15.962605960655893"><ele>1014.5</ele><time>2026-04-27T07:01:38.999Z</time></trkpt><trkpt lat="39.5801361167458" lon="15.962771078201198"><ele>1018.25</ele><time>2026-04-27T07:01:39.999Z</time></trkpt><trkpt lat="39.58014511330871" lon="15.962925424347597"><ele>1022.0</ele><time>2026-04-27T07:01:40.999Z</time></trkpt><trkpt lat="39.580149706224496" lon="15.963037564264031"><ele>1022.0000000000001</ele><time>2026-04-27T07:01:41.999Z</time></trkpt><trkpt lat="39.580152272339014" lon="15.96314567233459"><ele>1022.0</ele><time>2026-04-27T07:01:42.999Z</time></trkpt><trkpt lat="39.58014471628398" lon="15.963242315949264"><ele>1022.0</ele><time>2026-04-27T07:01:43.999Z</time></trkpt><trkpt lat="39.58007183121828" lon="15.963349538667632"><ele>1022.0</ele><time>2026-04-27T07:01:45.999Z</time></trkpt><trkpt lat="39.580016219569345" lon="15.963408993005674"><ele>1022.0000000000001</ele><time>2026-04-27T07:01:46.999Z</time></trkpt><trkpt lat="39.579941777111344" lon="15.963475859527499"><ele>1022.0</ele><time>2026-04-27T07:01:47.999Z</time></trkpt><trkpt lat="39.57988673753219" lon="15.963549947820628"><ele>1024.4</ele><time>2026-04-27T07:01:48.999Z</time></trkpt><trkpt lat="39.579844494996635" lon="15.963624691290173"><ele>1026.8000000000002</ele><time>2026-04-27T07:01:49.999Z</time></trkpt><trkpt lat="39.57981665817308" lon="15.963755941660752"><ele>1029.2</ele><time>2026-04-27T07:01:50.999Z</time></trkpt><trkpt lat="39.57982505162925" lon="15.963864252037988"><ele>1031.6000000000001</ele><time>2026-04-27T07:01:51.999Z</time></trkpt><trkpt lat="39.57985793928633" lon="15.963996129826864"><ele>1034.0</ele><time>2026-04-27T07:01:52.999Z</time></trkpt><trkpt lat="39.57993620822671" lon="15.964108299555951"><ele>1036.0</ele><time>2026-04-27T07:01:54Z</time></trkpt><trkpt lat="39.579986320399634" lon="15.964209570677879"><ele>1038.0</ele><time>2026-04-27T07:01:55Z</time></trkpt><trkpt lat="39.579990396212004" lon="15.96435712036956"><ele>1040.0</ele><time>2026-04-27T07:01:57Z</time></trkpt><trkpt lat="39.57995394846392" lon="15.964449306463424"><ele>1042.0</ele><time>2026-04-27T07:01:58Z</time></trkpt><trkpt lat="39.57986565274269" lon="15.964532432064082"><ele>1044.0</ele><time>2026-04-27T07:01:59Z</time></trkpt><trkpt lat="39.579787045880636" lon="15.964654198541472"><ele>1044.0</ele><time>2026-04-27T07:02:00Z</time></trkpt><trkpt lat="39.57971232485483" lon="15.96479842275295"><ele>1044.0</ele><time>2026-04-27T07:02:01Z</time></trkpt><trkpt lat="39.579665115924925" lon="15.96492596298946"><ele>1044.0</ele><time>2026-04-27T07:02:02Z</time></trkpt><trkpt lat="39.57964804878484" lon="15.96505150662779"><ele>1044.0</ele><time>2026-04-27T07:02:03Z</time></trkpt><trkpt lat="39.579626936158675" lon="15.965155062053215"><ele>1044.0</ele><time>2026-04-27T07:02:04Z</time></trkpt><trkpt lat="39.57961578925737" lon="15.96525408061588"><ele>1043.0</ele><time>2026-04-27T07:02:05Z</time></trkpt><trkpt lat="39.57962419946812" lon="15.965345502091647"><ele>1042.0</ele><time>2026-04-27T07:02:06Z</time></trkpt><trkpt lat="39.579641780132356" lon="15.965438987671376"><ele>1041.0</ele><time>2026-04-27T07:02:07Z</time></trkpt><trkpt lat="39.57967822092039" lon="15.965531903614465"><ele>1040.0</ele><time>2026-04-27T07:02:08Z</time></trkpt><trkpt lat="39.57976447273678" lon="15.965633637263013"><ele>1039.0</ele><time>2026-04-27T07:02:09Z</time></trkpt><trkpt lat="39.57986491609183" lon="15.965762307546942"><ele>1036.6000000000001</ele><time>2026-04-27T07:02:10Z</time></trkpt><trkpt lat="39.579952873253596" lon="15.965892894515106"><ele>1034.2</ele><time>2026-04-27T07:02:11Z</time></trkpt><trkpt lat="39.58000342282322" lon="15.965986210340155"><ele>1031.8000000000002</ele><time>2026-04-27T07:02:12Z</time></trkpt><trkpt lat="39.580036032983635" lon="15.966090725874407"><ele>1029.4</ele><time>2026-04-27T07:02:13Z</time></trkpt><trkpt lat="39.58004709181028" lon="15.966244308284034"><ele>1027.0</ele><time>2026-04-27T07:02:14Z</time></trkpt><trkpt lat="39.58004734907253" lon="15.966420550686527"><ele>1027.0</ele><time>2026-04-27T07:02:15Z</time></trkpt><trkpt lat="39.580054614574756" lon="15.966629459965775"><ele>1027.0</ele><time>2026-04-27T07:02:16Z</time></trkpt><trkpt lat="39.58004030537414" lon="15.966820651346996"><ele>1027.0</ele><time>2026-04-27T07:02:17Z</time></trkpt><trkpt lat="39.58002166726847" lon="15.966970990223905"><ele>1027.0</ele><time>2026-04-27T07:02:18Z</time></trkpt><trkpt lat="39.58001667072252" lon="15.967094619323527"><ele>1026.4</ele><time>2026-04-27T07:02:19Z</time></trkpt><trkpt lat="39.58003284194891" lon="15.967193008164125"><ele>1025.8000000000002</ele><time>2026-04-27T07:02:20Z</time></trkpt><trkpt lat="39.58005437321119" lon="15.967328225388757"><ele>1025.2</ele><time>2026-04-27T07:02:21Z</time></trkpt><trkpt lat="39.580113466458585" lon="15.967425247611008"><ele>1024.6000000000001</ele><time>2026-04-27T07:02:22Z</time></trkpt><trkpt lat="39.580197519311376" lon="15.967580854657148"><ele>1024.0</ele><time>2026-04-27T07:02:23Z</time></trkpt><trkpt lat="39.58029116901714" lon="15.967774209504945"><ele>1023.75</ele><time>2026-04-27T07:02:24Z</time></trkpt><trkpt lat="39.58039836537774" lon="15.96795262320614"><ele>1023.5</ele><time>2026-04-27T07:02:25Z</time></trkpt><trkpt lat="39.580478840948" lon="15.968083110848518"><ele>1023.25</ele><time>2026-04-27T07:02:26Z</time></trkpt><trkpt lat="39.58053169442794" lon="15.968199548519499"><ele>1023.0</ele><time>2026-04-27T07:02:27Z</time></trkpt><trkpt lat="39.58056138401986" lon="15.968304816065366"><ele>1023.5999999999999</ele><time>2026-04-27T07:02:28Z</time></trkpt><trkpt lat="39.580559304983325" lon="15.968396097221362"><ele>1024.1999999999998</ele><time>2026-04-27T07:02:29Z</time></trkpt><trkpt lat="39.58055122723924" lon="15.968506156123292"><ele>1024.8</ele><time>2026-04-27T07:02:30Z</time></trkpt><trkpt lat="39.58051875491342" lon="15.968665559986208"><ele>1025.3999999999999</ele><time>2026-04-27T07:02:31Z</time></trkpt><trkpt lat="39.58048251069792" lon="15.968840453037497"><ele>1026.0</ele><time>2026-04-27T07:02:32Z</time></trkpt><trkpt lat="39.58045398530529" lon="15.969009010043369"><ele>1026.0</ele><time>2026-04-27T07:02:33Z</time></trkpt><trkpt lat="39.58045643463157" lon="15.969150275196409"><ele>1026.0</ele><time>2026-04-27T07:02:34Z</time></trkpt><trkpt lat="39.58046001384712" lon="15.969276585828357"><ele>1026.0</ele><time>2026-04-27T07:02:35Z</time></trkpt><trkpt lat="39.580476145108484" lon="15.969403343196346"><ele>1026.0</ele><time>2026-04-27T07:02:36Z</time></trkpt><trkpt lat="39.58052576629794" lon="15.969551096115614"><ele>1026.0</ele><time>2026-04-27T07:02:37Z</time></trkpt><trkpt lat="39.58056398857103" lon="15.969725277244615"><ele>1024.75</ele><time>2026-04-27T07:02:38Z</time></trkpt><trkpt lat="39.58060123307085" lon="15.9698840829338"><ele>1023.5</ele><time>2026-04-27T07:02:39Z</time></trkpt><trkpt lat="39.580635989078516" lon="15.970032278016177"><ele>1022.25</ele><time>2026-04-27T07:02:40Z</time></trkpt><trkpt lat="39.580675123900825" lon="15.970180447504658"><ele>1021.0</ele><time>2026-04-27T07:02:41Z</time></trkpt><trkpt lat="39.58067027593746" lon="15.970310785207879"><ele>1021.0</ele><time>2026-04-27T07:02:42Z</time></trkpt><trkpt lat="39.58065312357176" lon="15.970417183365136"><ele>1021.0</ele><time>2026-04-27T07:02:43Z</time></trkpt><trkpt lat="39.58060741743245" lon="15.970557432194202"><ele>1021.0</ele><time>2026-04-27T07:02:44Z</time></trkpt><trkpt lat="39.58055170314007" lon="15.970740510581885"><ele>1021.0</ele><time>2026-04-27T07:02:45Z</time></trkpt><trkpt lat="39.58050809866627" lon="15.970910285928571"><ele>1020.5</ele><time>2026-04-27T07:02:46Z</time></trkpt><trkpt lat="39.58049429666854" lon="15.971054881562386"><ele>1020.0</ele><time>2026-04-27T07:02:47Z</time></trkpt><trkpt lat="39.58051865945945" lon="15.971219655668078"><ele>1019.5</ele><time>2026-04-27T07:02:48Z</time></trkpt><trkpt lat="39.58053517394367" lon="15.971429192074847"><ele>1019.0</ele><time>2026-04-27T07:02:49Z</time></trkpt><trkpt lat="39.58056890480312" lon="15.971686594080019"><ele>1018.6666666666667</ele><time>2026-04-27T07:02:50Z</time></trkpt><trkpt lat="39.5806127779287" lon="15.971954133779041"><ele>1018.3333333333333</ele><time>2026-04-27T07:02:51Z</time></trkpt><trkpt lat="39.58065611863436" lon="15.97220573187929"><ele>1018.0</ele><time>2026-04-27T07:02:52Z</time></trkpt><trkpt lat="39.58068376760418" lon="15.97245399665085"><ele>1016.6666666666666</ele><time>2026-04-27T07:02:53Z</time></trkpt><trkpt lat="39.58070592524925" lon="15.972700766091842"><ele>1015.3333333333333</ele><time>2026-04-27T07:02:54Z</time></trkpt><trkpt lat="39.58071813999292" lon="15.972946905323116"><ele>1014.0</ele><time>2026-04-27T07:02:55Z</time></trkpt><trkpt lat="39.58070979089915" lon="15.973205499490986"><ele>1013.0</ele><time>2026-04-27T07:02:55.999Z</time></trkpt><trkpt lat="39.58070416073351" lon="15.973459879361586"><ele>1012.0</ele><time>2026-04-27T07:02:56.999Z</time></trkpt><trkpt lat="39.58069786593155" lon="15.973693344476661"><ele>1011.0</ele><time>2026-04-27T07:02:57.999Z</time></trkpt><trkpt lat="39.58070044420101" lon="15.973947845880376"><ele>1011.0</ele><time>2026-04-27T07:02:58.999Z</time></trkpt><trkpt lat="39.58069096730437" lon="15.9741807721784"><ele>1011.0</ele><time>2026-04-27T07:02:59.999Z</time></trkpt><trkpt lat="39.58068240755232" lon="15.974391234406975"><ele>1011.0</ele><time>2026-04-27T07:03:00.999Z</time></trkpt><trkpt lat="39.580681533685215" lon="15.974578488251854"><ele>1009.5</ele><time>2026-04-27T07:03:01.999Z</time></trkpt><trkpt lat="39.580667121326535" lon="15.974755358950334"><ele>1008.0</ele><time>2026-04-27T07:03:02.999Z</time></trkpt><trkpt lat="39.58066408898902" lon="15.97493573317431"><ele>1006.5</ele><time>2026-04-27T07:03:03.999Z</time></trkpt><trkpt lat="39.58065732531339" lon="15.975097363895195"><ele>1005.0</ele><time>2026-04-27T07:03:04.999Z</time></trkpt><trkpt lat="39.580639330924704" lon="15.975230521786582"><ele>1004.0</ele><time>2026-04-27T07:03:05.999Z</time></trkpt><trkpt lat="39.58060942134701" lon="15.975376155064989"><ele>1003.0</ele><time>2026-04-27T07:03:06.999Z</time></trkpt><trkpt lat="39.58055300685862" lon="15.97557926110474"><ele>1002.0</ele><time>2026-04-27T07:03:07.999Z</time></trkpt><trkpt lat="39.580482194019915" lon="15.97578927939577"><ele>1003.6666666666667</ele><time>2026-04-27T07:03:08.999Z</time></trkpt><trkpt lat="39.580405689290124" lon="15.975995085441454"><ele>1005.3333333333334</ele><time>2026-04-27T07:03:09.999Z</time></trkpt><trkpt lat="39.58033490714908" lon="15.976177278507024"><ele>1007.0</ele><time>2026-04-27T07:03:10.999Z</time></trkpt><trkpt lat="39.58026610500093" lon="15.976350502053444"><ele>1007.0</ele><time>2026-04-27T07:03:11.999Z</time></trkpt><trkpt lat="39.58018333815122" lon="15.976557419190112"><ele>1007.0</ele><time>2026-04-27T07:03:12.999Z</time></trkpt><trkpt lat="39.58008710627358" lon="15.976797998892776"><ele>1007.0</ele><time>2026-04-27T07:03:13.999Z</time></trkpt><trkpt lat="39.58000479956898" lon="15.977003765655372"><ele>1007.6666666666667</ele><time>2026-04-27T07:03:14.999Z</time></trkpt><trkpt lat="39.57993128999403" lon="15.977187847523792"><ele>1008.3333333333333</ele><time>2026-04-27T07:03:15.999Z</time></trkpt><trkpt lat="39.579860604113065" lon="15.977383989640598"><ele>1009.0</ele><time>2026-04-27T07:03:16.999Z</time></trkpt><trkpt lat="39.57980888447743" lon="15.977590342685138"><ele>1010.5</ele><time>2026-04-27T07:03:17.999Z</time></trkpt><trkpt lat="39.5797770855427" lon="15.97776694706542"><ele>1012.0</ele><time>2026-04-27T07:03:18.999Z</time></trkpt><trkpt lat="39.57972745873542" lon="15.977942745351616"><ele>1013.5</ele><time>2026-04-27T07:03:19.999Z</time></trkpt><trkpt lat="39.5796602910125" lon="15.978131412562881"><ele>1015.0</ele><time>2026-04-27T07:03:20.999Z</time></trkpt><trkpt lat="39.579584203850835" lon="15.978343928338171"><ele>1015.75</ele><time>2026-04-27T07:03:21.999Z</time></trkpt><trkpt lat="39.57952133591058" lon="15.978511675878803"><ele>1016.5</ele><time>2026-04-27T07:03:22.999Z</time></trkpt><trkpt lat="39.579480194455684" lon="15.97866331920664"><ele>1017.25</ele><time>2026-04-27T07:03:23.999Z</time></trkpt><trkpt lat="39.57946475444763" lon="15.978778320765997"><ele>1018.0</ele><time>2026-04-27T07:03:24.999Z</time></trkpt><trkpt lat="39.57953139322378" lon="15.978899286865436"><ele>1018.0</ele><time>2026-04-27T07:03:25.999Z</time></trkpt><trkpt lat="39.5795944275922" lon="15.979045944444904"><ele>1018.0</ele><time>2026-04-27T07:03:26.999Z</time></trkpt><trkpt lat="39.57964152821495" lon="15.979230265763942"><ele>1018.0</ele><time>2026-04-27T07:03:27.999Z</time></trkpt><trkpt lat="39.57966530072861" lon="15.979373701337533"><ele>1018.0</ele><time>2026-04-27T07:03:28.999Z</time></trkpt><trkpt lat="39.57967271532096" lon="15.979487971055791"><ele>1017.4999999999999</ele><time>2026-04-27T07:03:29.999Z</time></trkpt><trkpt lat="39.5796708317742" lon="15.979620278791433"><ele>1017.0</ele><time>2026-04-27T07:03:30.999Z</time></trkpt><trkpt lat="39.579642816912965" lon="15.979728337381585"><ele>1016.5</ele><time>2026-04-27T07:03:31.999Z</time></trkpt><trkpt lat="39.57960639741202" lon="15.979821860568878"><ele>1016.0</ele><time>2026-04-27T07:03:32.999Z</time></trkpt><trkpt lat="39.579548568305874" lon="15.979899527224296"><ele>1015.4999999999999</ele><time>2026-04-27T07:03:33.999Z</time></trkpt><trkpt lat="39.57947135517948" lon="15.97995656773637"><ele>1015.0</ele><time>2026-04-27T07:03:34.999Z</time></trkpt><trkpt lat="39.579366452653304" lon="15.980053124690633"><ele>1014.0</ele><time>2026-04-27T07:03:35.999Z</time></trkpt><trkpt lat="39.579254590691285" lon="15.980164986645738"><ele>1013.0</ele><time>2026-04-27T07:03:36.999Z</time></trkpt><trkpt lat="39.579119578467235" lon="15.980299998871029"><ele>1012.0</ele><time>2026-04-27T07:03:37.999Z</time></trkpt><trkpt lat="39.5790104747171" lon="15.980409102608707"><ele>1011.0</ele><time>2026-04-27T07:03:38.999Z</time></trkpt><trkpt lat="39.578926087577294" lon="15.980493489750652"><ele>1011.0</ele><time>2026-04-27T07:03:39.999Z</time></trkpt><trkpt lat="39.578844511555054" lon="15.980594504977821"><ele>1011.0</ele><time>2026-04-27T07:03:40.999Z</time></trkpt><trkpt lat="39.578744104955256" lon="15.980696515000028"><ele>1011.0</ele><time>2026-04-27T07:03:41.999Z</time></trkpt><trkpt lat="39.578638803428674" lon="15.980782158470419"><ele>1011.0</ele><time>2026-04-27T07:03:42.999Z</time></trkpt><trkpt lat="39.578571497596656" lon="15.980876947023285"><ele>1009.8</ele><time>2026-04-27T07:03:43.999Z</time></trkpt><trkpt lat="39.57850587982741" lon="15.980937068438585"><ele>1008.5999999999999</ele><time>2026-04-27T07:03:44.999Z</time></trkpt><trkpt lat="39.578440158869874" lon="15.980993369754762"><ele>1007.4</ele><time>2026-04-27T07:03:45.999Z</time></trkpt><trkpt lat="39.57834980916282" lon="15.981025589421305"><ele>1006.2</ele><time>2026-04-27T07:03:46.999Z</time></trkpt><trkpt lat="39.5782315127718" lon="15.98108458958374"><ele>1005.0</ele><time>2026-04-27T07:03:47.999Z</time></trkpt><trkpt lat="39.57807287337418" lon="15.981146626246177"><ele>1005.0</ele><time>2026-04-27T07:03:48.999Z</time></trkpt><trkpt lat="39.577945624683544" lon="15.981198790556503"><ele>1005.0</ele><time>2026-04-27T07:03:49.999Z</time></trkpt><trkpt lat="39.577852465505494" lon="15.981241092015704"><ele>1005.0</ele><time>2026-04-27T07:03:50.999Z</time></trkpt><trkpt lat="39.577775653635626" lon="15.981290198421297"><ele>1005.0</ele><time>2026-04-27T07:03:51.999Z</time></trkpt><trkpt lat="39.57771360425723" lon="15.981350114517053"><ele>1005.0</ele><time>2026-04-27T07:03:52.999Z</time></trkpt><trkpt lat="39.57765843961523" lon="15.981436462404815"><ele>1003.1666666666666</ele><time>2026-04-27T07:03:53.999Z</time></trkpt><trkpt lat="39.57763621402958" lon="15.981540760334275"><ele>1001.3333333333333</ele><time>2026-04-27T07:03:54.999Z</time></trkpt><trkpt lat="39.577612855798826" lon="15.981632532486255"><ele>999.5</ele><time>2026-04-27T07:03:55.999Z</time></trkpt><trkpt lat="39.57760283569354" lon="15.981741098954616"><ele>997.6666666666666</ele><time>2026-04-27T07:03:56.999Z</time></trkpt><trkpt lat="39.57759629716012" lon="15.981840742505433"><ele>995.8333333333333</ele><time>2026-04-27T07:03:57.999Z</time></trkpt><trkpt lat="39.577604318958485" lon="15.981938885885183"><ele>994.0</ele><time>2026-04-27T07:03:58.999Z</time></trkpt><trkpt lat="39.57765239527743" lon="15.982026958023297"><ele>992.8000000000001</ele><time>2026-04-27T07:04:00Z</time></trkpt><trkpt lat="39.57768269977041" lon="15.982161954526832"><ele>991.6000000000001</ele><time>2026-04-27T07:04:01Z</time></trkpt><trkpt lat="39.577730108339566" lon="15.982274953100344"><ele>990.4</ele><time>2026-04-27T07:04:02Z</time></trkpt><trkpt lat="39.5777451132798" lon="15.982380152836067"><ele>989.2</ele><time>2026-04-27T07:04:03Z</time></trkpt><trkpt lat="39.57772697044147" lon="15.982469504876494"><ele>988.0</ele><time>2026-04-27T07:04:04Z</time></trkpt><trkpt lat="39.57768988782638" lon="15.982597008202383"><ele>987.8</ele><time>2026-04-27T07:04:06Z</time></trkpt><trkpt lat="39.57763023545595" lon="15.982636937852508"><ele>987.5999999999999</ele><time>2026-04-27T07:04:07Z</time></trkpt><trkpt lat="39.577516487995744" lon="15.982594576514856"><ele>987.4000000000001</ele><time>2026-04-27T07:04:08Z</time></trkpt><trkpt lat="39.577402463470364" lon="15.982649800912217"><ele>987.2</ele><time>2026-04-27T07:04:09Z</time></trkpt><trkpt lat="39.57731217545435" lon="15.9827424860947"><ele>987.0</ele><time>2026-04-27T07:04:10Z</time></trkpt><trkpt lat="39.57722353973227" lon="15.982892030292044"><ele>987.0</ele><time>2026-04-27T07:04:11Z</time></trkpt><trkpt lat="39.57714660560105" lon="15.983029459915105"><ele>987.0</ele><time>2026-04-27T07:04:12Z</time></trkpt><trkpt lat="39.57708316976929" lon="15.983150602214769"><ele>987.0</ele><time>2026-04-27T07:04:13Z</time></trkpt><trkpt lat="39.57702912191197" lon="15.983272657260834"><ele>987.0</ele><time>2026-04-27T07:04:14Z</time></trkpt><trkpt lat="39.576981600249056" lon="15.983382736723366"><ele>982.5</ele><time>2026-04-27T07:04:15Z</time></trkpt><trkpt lat="39.57691574489613" lon="15.983462523257701"><ele>978.0</ele><time>2026-04-27T07:04:16Z</time></trkpt><trkpt lat="39.576858788441065" lon="15.98356972590308"><ele>973.5</ele><time>2026-04-27T07:04:17Z</time></trkpt><trkpt lat="39.57682654611257" lon="15.98372338560439"><ele>969.0</ele><time>2026-04-27T07:04:18Z</time></trkpt><trkpt lat="39.576883955448146" lon="15.98391877788087"><ele>969.0</ele><time>2026-04-27T07:04:19Z</time></trkpt><trkpt lat="39.57686722877706" lon="15.98406846422827"><ele>969.0</ele><time>2026-04-27T07:04:20Z</time></trkpt><trkpt lat="39.5768593399419" lon="15.984199556790612"><ele>969.0</ele><time>2026-04-27T07:04:21Z</time></trkpt><trkpt lat="39.57684854406745" lon="15.984351102338136"><ele>969.0</ele><time>2026-04-27T07:04:22Z</time></trkpt><trkpt lat="39.5768333558055" lon="15.984522540524871"><ele>968.25</ele><time>2026-04-27T07:04:23Z</time></trkpt><trkpt lat="39.57681679195918" lon="15.984675977757517"><ele>967.5</ele><time>2026-04-27T07:04:24Z</time></trkpt><trkpt lat="39.576806823469006" lon="15.984846004784686"><ele>966.75</ele><time>2026-04-27T07:04:25Z</time></trkpt><trkpt lat="39.57677281594448" lon="15.985010930090901"><ele>966.0</ele><time>2026-04-27T07:04:26Z</time></trkpt><trkpt lat="39.57676132772316" lon="15.985178594707689"><ele>965.0</ele><time>2026-04-27T07:04:27Z</time></trkpt><trkpt lat="39.576767730606655" lon="15.985329374014293"><ele>963.9999999999999</ele><time>2026-04-27T07:04:28Z</time></trkpt><trkpt lat="39.57679369081763" lon="15.985462588817745"><ele>962.9999999999999</ele><time>2026-04-27T07:04:29Z</time></trkpt><trkpt lat="39.57679074847385" lon="15.985604120211937"><ele>962.0</ele><time>2026-04-27T07:04:30Z</time></trkpt><trkpt lat="39.576774408332916" lon="15.985732999711294"><ele>961.0</ele><time>2026-04-27T07:04:31Z</time></trkpt><trkpt lat="39.57673036934624" lon="15.985870055966373"><ele>961.0</ele><time>2026-04-27T07:04:32Z</time></trkpt><trkpt lat="39.57666826655278" lon="15.98598959076216"><ele>960.9999999999999</ele><time>2026-04-27T07:04:33Z</time></trkpt><trkpt lat="39.57662570344715" lon="15.986123266667693"><ele>960.9999999999999</ele><time>2026-04-27T07:04:34Z</time></trkpt><trkpt lat="39.576563499888536" lon="15.98624011790403"><ele>961.0</ele><time>2026-04-27T07:04:35Z</time></trkpt><trkpt lat="39.57650597885681" lon="15.986326600147615"><ele>961.0</ele><time>2026-04-27T07:04:36Z</time></trkpt><trkpt lat="39.576458337840045" lon="15.986418752474112"><ele>961.0</ele><time>2026-04-27T07:04:37Z</time></trkpt><trkpt lat="39.57640587331564" lon="15.986526256458015"><ele>960.9999999999999</ele><time>2026-04-27T07:04:38Z</time></trkpt><trkpt lat="39.576354366119055" lon="15.986638525124443"><ele>960.9999999999999</ele><time>2026-04-27T07:04:39Z</time></trkpt><trkpt lat="39.57630688798415" lon="15.986762772755496"><ele>961.0</ele><time>2026-04-27T07:04:40Z</time></trkpt><trkpt lat="39.57627684424956" lon="15.98690714879892"><ele>961.0</ele><time>2026-04-27T07:04:41Z</time></trkpt><trkpt lat="39.57624244932876" lon="15.987048826206285"><ele>961.5999999999999</ele><time>2026-04-27T07:04:42Z</time></trkpt><trkpt lat="39.576194647456326" lon="15.987179871737778"><ele>962.1999999999999</ele><time>2026-04-27T07:04:43Z</time></trkpt><trkpt lat="39.576166229949536" lon="15.987303058928225"><ele>962.8000000000001</ele><time>2026-04-27T07:04:44Z</time></trkpt><trkpt lat="39.57614063893118" lon="15.987407001116333"><ele>963.4000000000001</ele><time>2026-04-27T07:04:45Z</time></trkpt><trkpt lat="39.576120597735425" lon="15.987501696512556"><ele>964.0</ele><time>2026-04-27T07:04:46Z</time></trkpt><trkpt lat="39.57611363978592" lon="15.987624184929333"><ele>962.4000000000001</ele><time>2026-04-27T07:04:47Z</time></trkpt><trkpt lat="39.5761289356715" lon="15.987757287072373"><ele>960.8000000000001</ele><time>2026-04-27T07:04:48Z</time></trkpt><trkpt lat="39.576171803886325" lon="15.987885874418579"><ele>959.1999999999999</ele><time>2026-04-27T07:04:49Z</time></trkpt><trkpt lat="39.57619280647437" lon="15.988034830798016"><ele>957.5999999999999</ele><time>2026-04-27T07:04:50Z</time></trkpt><trkpt lat="39.57620777389743" lon="15.988188703931419"><ele>956.0</ele><time>2026-04-27T07:04:51Z</time></trkpt><trkpt lat="39.576214204807194" lon="15.98832833021768"><ele>953.75</ele><time>2026-04-27T07:04:52Z</time></trkpt><trkpt lat="39.57620749096723" lon="15.988503908326848"><ele>951.5</ele><time>2026-04-27T07:04:53Z</time></trkpt><trkpt lat="39.576196879498006" lon="15.98867229177201"><ele>949.25</ele><time>2026-04-27T07:04:54Z</time></trkpt><trkpt lat="39.576179517286135" lon="15.988837751617828"><ele>947.0</ele><time>2026-04-27T07:04:55Z</time></trkpt><trkpt lat="39.576158316462916" lon="15.989003389639649"><ele>941.0</ele><time>2026-04-27T07:04:56Z</time></trkpt><trkpt lat="39.576115217404954" lon="15.98915773084084"><ele>935.0</ele><time>2026-04-27T07:04:57Z</time></trkpt><trkpt lat="39.576077041980376" lon="15.989320901686574"><ele>929.0</ele><time>2026-04-27T07:04:58Z</time></trkpt><trkpt lat="39.57605157239376" lon="15.989499508093415"><ele>923.0</ele><time>2026-04-27T07:04:59Z</time></trkpt><trkpt lat="39.57603692381305" lon="15.98965723030826"><ele>923.0</ele><time>2026-04-27T07:05:00Z</time></trkpt><trkpt lat="39.576022380339154" lon="15.989815325673906"><ele>923.0</ele><time>2026-04-27T07:05:00.999Z</time></trkpt><trkpt lat="39.57600823233109" lon="15.989943925799945"><ele>923.0</ele><time>2026-04-27T07:05:01.999Z</time></trkpt><trkpt lat="39.575990755892164" lon="15.990064810361243"><ele>923.0</ele><time>2026-04-27T07:05:02.999Z</time></trkpt><trkpt lat="39.575945256435304" lon="15.990183229669777"><ele>923.0</ele><time>2026-04-27T07:05:03.999Z</time></trkpt><trkpt lat="39.57590979550737" lon="15.990303885509087"><ele>923.8</ele><time>2026-04-27T07:05:04.999Z</time></trkpt><trkpt lat="39.57586761645947" lon="15.990420392975825"><ele>924.5999999999999</ele><time>2026-04-27T07:05:05.999Z</time></trkpt><trkpt lat="39.57582632388502" lon="15.990553168517364"><ele>925.4000000000001</ele><time>2026-04-27T07:05:06.999Z</time></trkpt><trkpt lat="39.5757627148998" lon="15.990676159864076"><ele>926.2</ele><time>2026-04-27T07:05:07.999Z</time></trkpt><trkpt lat="39.575694509278435" lon="15.990799195099946"><ele>927.0</ele><time>2026-04-27T07:05:08.999Z</time></trkpt><trkpt lat="39.57561533490363" lon="15.990903443137103"><ele>927.8</ele><time>2026-04-27T07:05:09.999Z</time></trkpt><trkpt lat="39.57553089009199" lon="15.991006164332893"><ele>928.6</ele><time>2026-04-27T07:05:10.999Z</time></trkpt><trkpt lat="39.575456522234894" lon="15.991097758873321"><ele>929.3999999999999</ele><time>2026-04-27T07:05:11.999Z</time></trkpt><trkpt lat="39.575379180471664" lon="15.99118458988637"><ele>930.1999999999999</ele><time>2026-04-27T07:05:12.999Z</time></trkpt><trkpt lat="39.57532355856506" lon="15.991301459255931"><ele>931.0</ele><time>2026-04-27T07:05:13.999Z</time></trkpt><trkpt lat="39.57528834149177" lon="15.991425536664782"><ele>925.0</ele><time>2026-04-27T07:05:14.999Z</time></trkpt><trkpt lat="39.57526383634512" lon="15.991563788791165"><ele>919.0</ele><time>2026-04-27T07:05:15.999Z</time></trkpt><trkpt lat="39.57524200901207" lon="15.991707003896568"><ele>913.0</ele><time>2026-04-27T07:05:16.999Z</time></trkpt><trkpt lat="39.57522862216496" lon="15.991863853471914"><ele>907.0</ele><time>2026-04-27T07:05:17.999Z</time></trkpt><trkpt lat="39.57522159070569" lon="15.992014503516877"><ele>907.0</ele><time>2026-04-27T07:05:18.999Z</time></trkpt><trkpt lat="39.57522802522506" lon="15.992148085222313"><ele>907.0</ele><time>2026-04-27T07:05:19.999Z</time></trkpt><trkpt lat="39.57521665184903" lon="15.992285173460038"><ele>907.0</ele><time>2026-04-27T07:05:20.999Z</time></trkpt><trkpt lat="39.57521010307096" lon="15.992417871150034"><ele>907.0</ele><time>2026-04-27T07:05:21.999Z</time></trkpt><trkpt lat="39.575199238479485" lon="15.992542816429845"><ele>907.0</ele><time>2026-04-27T07:05:22.999Z</time></trkpt><trkpt lat="39.5751855181686" lon="15.992671290101722"><ele>908.25</ele><time>2026-04-27T07:05:23.999Z</time></trkpt><trkpt lat="39.57514495487996" lon="15.992797795664611"><ele>909.5</ele><time>2026-04-27T07:05:24.999Z</time></trkpt><trkpt lat="39.57510939567966" lon="15.992949776934045"><ele>910.75</ele><time>2026-04-27T07:05:25.999Z</time></trkpt><trkpt lat="39.57506739924258" lon="15.993105297991589"><ele>912.0</ele><time>2026-04-27T07:05:26.999Z</time></trkpt><trkpt lat="39.575031853824825" lon="15.993229391462254"><ele>914.75</ele><time>2026-04-27T07:05:27.999Z</time></trkpt><trkpt lat="39.575010587333956" lon="15.993351668792686"><ele>917.5</ele><time>2026-04-27T07:05:28.999Z</time></trkpt><trkpt lat="39.574948018632526" lon="15.993496756174219"><ele>920.25</ele><time>2026-04-27T07:05:29.999Z</time></trkpt><trkpt lat="39.57486061183442" lon="15.993629568712707"><ele>923.0</ele><time>2026-04-27T07:05:30.999Z</time></trkpt><trkpt lat="39.57478284676962" lon="15.99375457893073"><ele>923.0</ele><time>2026-04-27T07:05:31.999Z</time></trkpt><trkpt lat="39.574709387068104" lon="15.99387882372162"><ele>923.0</ele><time>2026-04-27T07:05:32.999Z</time></trkpt><trkpt lat="39.57461270986177" lon="15.993976762290622"><ele>923.0</ele><time>2026-04-27T07:05:33.999Z</time></trkpt><trkpt lat="39.57451239248604" lon="15.994047841039796"><ele>923.0</ele><time>2026-04-27T07:05:34.999Z</time></trkpt><trkpt lat="39.57441781460899" lon="15.99411956898682"><ele>925.75</ele><time>2026-04-27T07:05:35.999Z</time></trkpt><trkpt lat="39.5743207663993" lon="15.994211039143721"><ele>928.5</ele><time>2026-04-27T07:05:36.999Z</time></trkpt><trkpt lat="39.574187308931926" lon="15.994276163558196"><ele>931.25</ele><time>2026-04-27T07:05:37.999Z</time></trkpt><trkpt lat="39.57405262380446" lon="15.994363149697508"><ele>934.0</ele><time>2026-04-27T07:05:38.999Z</time></trkpt><trkpt lat="39.57394835324751" lon="15.994440982151689"><ele>934.0</ele><time>2026-04-27T07:05:39.999Z</time></trkpt><trkpt lat="39.57383545586151" lon="15.99451964628981"><ele>934.0</ele><time>2026-04-27T07:05:40.999Z</time></trkpt><trkpt lat="39.573727884050214" lon="15.994601371360881"><ele>934.0</ele><time>2026-04-27T07:05:41.999Z</time></trkpt><trkpt lat="39.573623992997646" lon="15.994678766205489"><ele>934.0</ele><time>2026-04-27T07:05:42.999Z</time></trkpt><trkpt lat="39.57353536935713" lon="15.994758919137604"><ele>937.0</ele><time>2026-04-27T07:05:43.999Z</time></trkpt><trkpt lat="39.57343850013588" lon="15.994833151361899"><ele>940.0</ele><time>2026-04-27T07:05:44.999Z</time></trkpt><trkpt lat="39.573338259800366" lon="15.994912929448224"><ele>943.0</ele><time>2026-04-27T07:05:45.999Z</time></trkpt><trkpt lat="39.57324274787265" lon="15.994986645380589"><ele>946.0</ele><time>2026-04-27T07:05:46.999Z</time></trkpt><trkpt lat="39.573130673012066" lon="15.995045867459096"><ele>946.0</ele><time>2026-04-27T07:05:47.999Z</time></trkpt><trkpt lat="39.573023280935175" lon="15.995111503081935"><ele>946.0</ele><time>2026-04-27T07:05:48.999Z</time></trkpt><trkpt lat="39.572908519298664" lon="15.995170968499712"><ele>946.0</ele><time>2026-04-27T07:05:49.999Z</time></trkpt><trkpt lat="39.572787703006846" lon="15.995250724542965"><ele>946.0</ele><time>2026-04-27T07:05:50.999Z</time></trkpt><trkpt lat="39.57265641910014" lon="15.995333330882852"><ele>942.0</ele><time>2026-04-27T07:05:51.999Z</time></trkpt><trkpt lat="39.5725252708421" lon="15.99542858992309"><ele>938.0</ele><time>2026-04-27T07:05:52.999Z</time></trkpt><trkpt lat="39.57239244640374" lon="15.995513056659254"><ele>934.0</ele><time>2026-04-27T07:05:53.999Z</time></trkpt><trkpt lat="39.572259587943115" lon="15.995601614537918"><ele>930.0</ele><time>2026-04-27T07:05:54.999Z</time></trkpt><trkpt lat="39.572122988184375" lon="15.995690950632808"><ele>931.75</ele><time>2026-04-27T07:05:55.999Z</time></trkpt><trkpt lat="39.57198435721828" lon="15.995768336635209"><ele>933.5</ele><time>2026-04-27T07:05:56.999Z</time></trkpt><trkpt lat="39.57185289356335" lon="15.99583688522146"><ele>935.25</ele><time>2026-04-27T07:05:57.999Z</time></trkpt><trkpt lat="39.57172665145025" lon="15.995906516069175"><ele>937.0</ele><time>2026-04-27T07:05:58.999Z</time></trkpt><trkpt lat="39.57161226296036" lon="15.99597564834071"><ele>937.0</ele><time>2026-04-27T07:05:59.999Z</time></trkpt><trkpt lat="39.571513269262375" lon="15.996048969124912"><ele>937.0</ele><time>2026-04-27T07:06:00.999Z</time></trkpt><trkpt lat="39.57143422176408" lon="15.996121693452816"><ele>937.0</ele><time>2026-04-27T07:06:01.999Z</time></trkpt><trkpt lat="39.571348485532525" lon="15.996209243290535"><ele>937.0</ele><time>2026-04-27T07:06:02.999Z</time></trkpt><trkpt lat="39.57127242182103" lon="15.996332064587483"><ele>937.0</ele><time>2026-04-27T07:06:03.999Z</time></trkpt><trkpt lat="39.57120308348107" lon="15.9964619394065"><ele>936.0</ele><time>2026-04-27T07:06:04.999Z</time></trkpt><trkpt lat="39.57112877220963" lon="15.996593692418815"><ele>935.0</ele><time>2026-04-27T07:06:06Z</time></trkpt><trkpt lat="39.57107146112203" lon="15.996697581253043"><ele>934.0</ele><time>2026-04-27T07:06:07Z</time></trkpt><trkpt lat="39.57100726465932" lon="15.99682224499187"><ele>933.0</ele><time>2026-04-27T07:06:08Z</time></trkpt><trkpt lat="39.57095959095561" lon="15.996921723440988"><ele>932.0</ele><time>2026-04-27T07:06:09Z</time></trkpt><trkpt lat="39.57092967068759" lon="15.997001267170132"><ele>932.0</ele><time>2026-04-27T07:06:10Z</time></trkpt><trkpt lat="39.57093977943771" lon="15.997158902713142"><ele>932.0</ele><time>2026-04-27T07:06:12Z</time></trkpt><trkpt lat="39.57101971129668" lon="15.997250849126358"><ele>932.0</ele><time>2026-04-27T07:06:13Z</time></trkpt><trkpt lat="39.57111501253195" lon="15.99732327389312"><ele>932.0</ele><time>2026-04-27T07:06:14Z</time></trkpt><trkpt lat="39.571172083266134" lon="15.997382327676341"><ele>932.0</ele><time>2026-04-27T07:06:15Z</time></trkpt><trkpt lat="39.57115697132956" lon="15.997475272473547"><ele>935.6</ele><time>2026-04-27T07:06:17Z</time></trkpt><trkpt lat="39.57112657829131" lon="15.997608502189555"><ele>939.2</ele><time>2026-04-27T07:06:19Z</time></trkpt><trkpt lat="39.57108301521822" lon="15.997690587380985"><ele>942.8</ele><time>2026-04-27T07:06:20Z</time></trkpt><trkpt lat="39.57098425762468" lon="15.997726701551755"><ele>946.4</ele><time>2026-04-27T07:06:21Z</time></trkpt><trkpt lat="39.5708877165468" lon="15.997724786396263"><ele>950.0</ele><time>2026-04-27T07:06:22Z</time></trkpt><trkpt lat="39.570803532949476" lon="15.997778556552133"><ele>950.0</ele><time>2026-04-27T07:06:23Z</time></trkpt><trkpt lat="39.57074180979308" lon="15.997861635949345"><ele>950.0</ele><time>2026-04-27T07:06:24Z</time></trkpt><trkpt lat="39.570689990637305" lon="15.99794046527963"><ele>950.0</ele><time>2026-04-27T07:06:25Z</time></trkpt><trkpt lat="39.57063987536936" lon="15.998062400428775"><ele>950.0</ele><time>2026-04-27T07:06:26Z</time></trkpt><trkpt lat="39.57061778430172" lon="15.998203513195723"><ele>950.0</ele><time>2026-04-27T07:06:27Z</time></trkpt><trkpt lat="39.57061252370839" lon="15.998351145261365"><ele>951.8</ele><time>2026-04-27T07:06:28Z</time></trkpt><trkpt lat="39.57062818560479" lon="15.99849178801745"><ele>953.6</ele><time>2026-04-27T07:06:29Z</time></trkpt><trkpt lat="39.5706587993918" lon="15.998620436535337"><ele>955.4000000000001</ele><time>2026-04-27T07:06:30Z</time></trkpt><trkpt lat="39.570708754431536" lon="15.998750355597359"><ele>957.2</ele><time>2026-04-27T07:06:31Z</time></trkpt><trkpt lat="39.570767110218625" lon="15.9988628920731"><ele>959.0</ele><time>2026-04-27T07:06:32Z</time></trkpt><trkpt lat="39.57082321650996" lon="15.99897643638171"><ele>959.0</ele><time>2026-04-27T07:06:33Z</time></trkpt><trkpt lat="39.570871716223415" lon="15.999065642412445"><ele>959.0000000000001</ele><time>2026-04-27T07:06:34Z</time></trkpt><trkpt lat="39.57088912804069" lon="15.9991504611592"><ele>959.0000000000001</ele><time>2026-04-27T07:06:36Z</time></trkpt><trkpt lat="39.570833060772266" lon="15.99923168705571"><ele>959.0</ele><time>2026-04-27T07:06:38Z</time></trkpt><trkpt lat="39.570728322961905" lon="15.999266039424299"><ele>959.0</ele><time>2026-04-27T07:06:40Z</time></trkpt><trkpt lat="39.57062962834571" lon="15.99932518640205"><ele>964.0</ele><time>2026-04-27T07:06:41Z</time></trkpt><trkpt lat="39.57053741357799" lon="15.999344024650178"><ele>969.0000000000001</ele><time>2026-04-27T07:06:42Z</time></trkpt><trkpt lat="39.57046294092797" lon="15.999344869433774"><ele>974.0000000000001</ele><time>2026-04-27T07:06:43Z</time></trkpt><trkpt lat="39.57039194120838" lon="15.999335443695461"><ele>979.0</ele><time>2026-04-27T07:06:44Z</time></trkpt><trkpt lat="39.57030924930948" lon="15.999290300335044"><ele>984.0</ele><time>2026-04-27T07:06:45Z</time></trkpt><trkpt lat="39.570171107256655" lon="15.999214760677713"><ele>978.0</ele><time>2026-04-27T07:06:46Z</time></trkpt><trkpt lat="39.57003124215234" lon="15.999129807325328"><ele>972.0000000000001</ele><time>2026-04-27T07:06:47Z</time></trkpt><trkpt lat="39.56992840088246" lon="15.999086271951088"><ele>966.0000000000001</ele><time>2026-04-27T07:06:48Z</time></trkpt><trkpt lat="39.56984306224091" lon="15.999072018898572"><ele>960.0</ele><time>2026-04-27T07:06:49Z</time></trkpt><trkpt lat="39.569749446503394" lon="15.999070824642189"><ele>954.0</ele><time>2026-04-27T07:06:50Z</time></trkpt><trkpt lat="39.56965267909605" lon="15.999081898953195"><ele>954.0</ele><time>2026-04-27T07:06:51Z</time></trkpt><trkpt lat="39.5695502029727" lon="15.999137495529768"><ele>954.0000000000001</ele><time>2026-04-27T07:06:52Z</time></trkpt><trkpt lat="39.569460580842765" lon="15.999202725847017"><ele>954.0000000000001</ele><time>2026-04-27T07:06:53Z</time></trkpt><trkpt lat="39.56938226851465" lon="15.999281794382417"><ele>954.0</ele><time>2026-04-27T07:06:54Z</time></trkpt><trkpt lat="39.56931786398021" lon="15.999397209628613"><ele>954.0</ele><time>2026-04-27T07:06:55Z</time></trkpt><trkpt lat="39.569231152181096" lon="15.999471941009151"><ele>957.5</ele><time>2026-04-27T07:06:56Z</time></trkpt><trkpt lat="39.569169464739375" lon="15.999542665754653"><ele>961.0</ele><time>2026-04-27T07:06:57Z</time></trkpt><trkpt lat="39.56910022939318" lon="15.999569262493559"><ele>964.5</ele><time>2026-04-27T07:06:58Z</time></trkpt><trkpt lat="39.56902647635048" lon="15.99959260913133"><ele>968.0</ele><time>2026-04-27T07:06:59Z</time></trkpt><trkpt lat="39.56894751071858" lon="15.999638430469636"><ele>971.5</ele><time>2026-04-27T07:07:00Z</time></trkpt><trkpt lat="39.56889874420027" lon="15.999694062189"><ele>975.0</ele><time>2026-04-27T07:07:01Z</time></trkpt><trkpt lat="39.568864021077346" lon="15.999799961966191"><ele>975.0</ele><time>2026-04-27T07:07:03Z</time></trkpt><trkpt lat="39.56888301408568" lon="15.999878126354439"><ele>975.0</ele><time>2026-04-27T07:07:05.999Z</time></trkpt><trkpt lat="39.56888790242353" lon="15.999978437765796"><ele>975.0</ele><time>2026-04-27T07:07:07.999Z</time></trkpt><trkpt lat="39.56891083921755" lon="16.00005832011445"><ele>975.0</ele><time>2026-04-27T07:07:09.999Z</time></trkpt><trkpt lat="39.56895278436352" lon="16.000148601026225"><ele>975.0</ele><time>2026-04-27T07:07:11.999Z</time></trkpt><trkpt lat="39.56900084627867" lon="16.00022848749296"><ele>975.0</ele><time>2026-04-27T07:07:13.999Z</time></trkpt><trkpt lat="39.56904631227833" lon="16.000343883043445"><ele>975.0</ele><time>2026-04-27T07:07:15.999Z</time></trkpt><trkpt lat="39.56908026914889" lon="16.00042025287876"><ele>974.9999999999999</ele><time>2026-04-27T07:07:16.999Z</time></trkpt><trkpt lat="39.569123844252914" lon="16.00049904579433"><ele>975.0</ele><time>2026-04-27T07:07:17.999Z</time></trkpt><trkpt lat="39.56916711398659" lon="16.000574136164698"><ele>975.0</ele><time>2026-04-27T07:07:18.999Z</time></trkpt><trkpt lat="39.56921713993194" lon="16.0006596955178"><ele>974.9999999999999</ele><time>2026-04-27T07:07:19.999Z</time></trkpt><trkpt lat="39.56924753643711" lon="16.00074736801644"><ele>975.0</ele><time>2026-04-27T07:07:20.999Z</time></trkpt><trkpt lat="39.56925276183603" lon="16.00084205446809"><ele>975.0</ele><time>2026-04-27T07:07:21.999Z</time></trkpt><trkpt lat="39.56926123816797" lon="16.000972839197136"><ele>974.6666666666667</ele><time>2026-04-27T07:07:22.999Z</time></trkpt><trkpt lat="39.56928386018608" lon="16.001174687185575"><ele>974.3333333333334</ele><time>2026-04-27T07:07:23.999Z</time></trkpt><trkpt lat="39.569323722063835" lon="16.001401456926857"><ele>974.0</ele><time>2026-04-27T07:07:24.999Z</time></trkpt><trkpt lat="39.56936205628248" lon="16.001606241483483"><ele>972.75</ele><time>2026-04-27T07:07:25.999Z</time></trkpt><trkpt lat="39.56937906400493" lon="16.0017993646536"><ele>971.5</ele><time>2026-04-27T07:07:26.999Z</time></trkpt><trkpt lat="39.56937314632627" lon="16.001983079756396"><ele>970.25</ele><time>2026-04-27T07:07:27.999Z</time></trkpt><trkpt lat="39.56934730934953" lon="16.002161590633303"><ele>969.0</ele><time>2026-04-27T07:07:28.999Z</time></trkpt><trkpt lat="39.56932655622011" lon="16.002328451739075"><ele>969.0</ele><time>2026-04-27T07:07:29.999Z</time></trkpt><trkpt lat="39.56933339236099" lon="16.002481811595594"><ele>969.0</ele><time>2026-04-27T07:07:30.999Z</time></trkpt><trkpt lat="39.569376210776966" lon="16.002613385313555"><ele>969.0</ele><time>2026-04-27T07:07:31.999Z</time></trkpt><trkpt lat="39.56943545636936" lon="16.0027418931375"><ele>969.0</ele><time>2026-04-27T07:07:32.999Z</time></trkpt><trkpt lat="39.56949804429436" lon="16.00286415322502"><ele>969.2</ele><time>2026-04-27T07:07:33.999Z</time></trkpt><trkpt lat="39.569533644962796" lon="16.00298265141482"><ele>969.4000000000001</ele><time>2026-04-27T07:07:34.999Z</time></trkpt><trkpt lat="39.56953930030282" lon="16.003110828872636"><ele>969.6</ele><time>2026-04-27T07:07:35.999Z</time></trkpt><trkpt lat="39.56951753105698" lon="16.003253433342586"><ele>969.8</ele><time>2026-04-27T07:07:36.999Z</time></trkpt><trkpt lat="39.56948786663709" lon="16.003371902539453"><ele>970.0</ele><time>2026-04-27T07:07:37.999Z</time></trkpt><trkpt lat="39.56943760545303" lon="16.003455515602898"><ele>970.0</ele><time>2026-04-27T07:07:38.999Z</time></trkpt><trkpt lat="39.56935569639526" lon="16.003522550905274"><ele>970.0</ele><time>2026-04-27T07:07:39.999Z</time></trkpt><trkpt lat="39.569246255239705" lon="16.00356317266514"><ele>970.0</ele><time>2026-04-27T07:07:40.999Z</time></trkpt><trkpt lat="39.56912469453819" lon="16.00358678540392"><ele>970.0</ele><time>2026-04-27T07:07:41.999Z</time></trkpt><trkpt lat="39.568998255013334" lon="16.003563937042095"><ele>970.0</ele><time>2026-04-27T07:07:42.999Z</time></trkpt><trkpt lat="39.56886846134907" lon="16.00358325759267"><ele>970.0</ele><time>2026-04-27T07:07:43.999Z</time></trkpt><trkpt lat="39.568766012789666" lon="16.003618303981867"><ele>970.0</ele><time>2026-04-27T07:07:44.999Z</time></trkpt><trkpt lat="39.56868256880733" lon="16.003677675180757"><ele>970.0</ele><time>2026-04-27T07:07:45.999Z</time></trkpt><trkpt lat="39.568601627745956" lon="16.003716957727107"><ele>970.0</ele><time>2026-04-27T07:07:46.999Z</time></trkpt><trkpt lat="39.568536085298" lon="16.003780706542468"><ele>968.2</ele><time>2026-04-27T07:07:47.999Z</time></trkpt><trkpt lat="39.568476804543536" lon="16.003863465781002"><ele>966.4</ele><time>2026-04-27T07:07:48.999Z</time></trkpt><trkpt lat="39.56842933575991" lon="16.00395733292955"><ele>964.5999999999999</ele><time>2026-04-27T07:07:49.999Z</time></trkpt><trkpt lat="39.568380872935435" lon="16.00408345269668"><ele>962.8</ele><time>2026-04-27T07:07:50.999Z</time></trkpt><trkpt lat="39.56832675634205" lon="16.004190882896193"><ele>961.0</ele><time>2026-04-27T07:07:51.999Z</time></trkpt><trkpt lat="39.568300534797444" lon="16.004304145502932"><ele>966.0</ele><time>2026-04-27T07:07:52.999Z</time></trkpt><trkpt lat="39.56829661829556" lon="16.004441322635685"><ele>971.0</ele><time>2026-04-27T07:07:53.999Z</time></trkpt><trkpt lat="39.56832233553653" lon="16.004591530080067"><ele>976.0</ele><time>2026-04-27T07:07:54.999Z</time></trkpt><trkpt lat="39.56840248242308" lon="16.00470656697042"><ele>981.0</ele><time>2026-04-27T07:07:55.999Z</time></trkpt><trkpt lat="39.56842905887071" lon="16.004839952194693"><ele>981.0</ele><time>2026-04-27T07:07:56.999Z</time></trkpt><trkpt lat="39.56843850578003" lon="16.004970888105177"><ele>981.0</ele><time>2026-04-27T07:07:57.999Z</time></trkpt><trkpt lat="39.56843358955224" lon="16.00507016903764"><ele>981.0</ele><time>2026-04-27T07:07:58.999Z</time></trkpt><trkpt lat="39.56839985639025" lon="16.005177472168743"><ele>981.0</ele><time>2026-04-27T07:08:00.999Z</time></trkpt><trkpt lat="39.568330229405646" lon="16.005209988799947"><ele>981.0</ele><time>2026-04-27T07:08:02.999Z</time></trkpt><trkpt lat="39.56826187125316" lon="16.005206871501983"><ele>981.0</ele><time>2026-04-27T07:08:03.999Z</time></trkpt><trkpt lat="39.568173022333575" lon="16.005177854343096"><ele>981.0</ele><time>2026-04-27T07:08:04.999Z</time></trkpt><trkpt lat="39.56806233408004" lon="16.005089740502576"><ele>981.0</ele><time>2026-04-27T07:08:05.999Z</time></trkpt><trkpt lat="39.56793193307023" lon="16.004995791893624"><ele>981.0</ele><time>2026-04-27T07:08:06.999Z</time></trkpt><trkpt lat="39.56779967796203" lon="16.004922753624687"><ele>981.0</ele><time>2026-04-27T07:08:07.999Z</time></trkpt><trkpt lat="39.56765074737939" lon="16.004870243490533"><ele>981.25</ele><time>2026-04-27T07:08:08.999Z</time></trkpt><trkpt lat="39.567497424848504" lon="16.004803006102595"><ele>981.5</ele><time>2026-04-27T07:08:09.999Z</time></trkpt><trkpt lat="39.567359420156606" lon="16.00474042153991"><ele>981.75</ele><time>2026-04-27T07:08:11Z</time></trkpt><trkpt lat="39.56723398646661" lon="16.004686829624223"><ele>982.0</ele><time>2026-04-27T07:08:12Z</time></trkpt><trkpt lat="39.567111764111814" lon="16.00463904502993"><ele>983.8</ele><time>2026-04-27T07:08:13Z</time></trkpt><trkpt lat="39.567009914716664" lon="16.004600886958194"><ele>985.6</ele><time>2026-04-27T07:08:14Z</time></trkpt><trkpt lat="39.56692083696117" lon="16.004570898034267"><ele>987.3999999999999</ele><time>2026-04-27T07:08:15Z</time></trkpt><trkpt lat="39.56684801599775" lon="16.0045555880489"><ele>989.1999999999999</ele><time>2026-04-27T07:08:16Z</time></trkpt><trkpt lat="39.5667311192414" lon="16.004663023880852"><ele>991.0</ele><time>2026-04-27T07:08:18Z</time></trkpt><trkpt lat="39.56677413561755" lon="16.004823932483138"><ele>991.0</ele><time>2026-04-27T07:08:19Z</time></trkpt><trkpt lat="39.56687742125329" lon="16.004905405756922"><ele>991.0</ele><time>2026-04-27T07:08:20Z</time></trkpt><trkpt lat="39.56698592569107" lon="16.004987313677038"><ele>991.0</ele><time>2026-04-27T07:08:21Z</time></trkpt><trkpt lat="39.56711524219394" lon="16.005069932239756"><ele>991.0</ele><time>2026-04-27T07:08:22Z</time></trkpt><trkpt lat="39.56723367386967" lon="16.00515845089426"><ele>995.0</ele><time>2026-04-27T07:08:23Z</time></trkpt><trkpt lat="39.56733041612544" lon="16.005283504106156"><ele>999.0</ele><time>2026-04-27T07:08:24Z</time></trkpt><trkpt lat="39.567438824770726" lon="16.00543553350924"><ele>1003.0</ele><time>2026-04-27T07:08:25Z</time></trkpt><trkpt lat="39.567566899277736" lon="16.005532712763884"><ele>1007.0</ele><time>2026-04-27T07:08:26Z</time></trkpt><trkpt lat="39.567662367502365" lon="16.005641322032535"><ele>1007.0</ele><time>2026-04-27T07:08:27Z</time></trkpt><trkpt lat="39.56778354748849" lon="16.0057253200727"><ele>1007.0</ele><time>2026-04-27T07:08:28Z</time></trkpt><trkpt lat="39.56789897638157" lon="16.005762766246797"><ele>1007.0</ele><time>2026-04-27T07:08:29Z</time></trkpt><trkpt lat="39.567983516880176" lon="16.00581323860354"><ele>1007.0</ele><time>2026-04-27T07:08:30Z</time></trkpt><trkpt lat="39.568026998096556" lon="16.005882669378398"><ele>1007.0</ele><time>2026-04-27T07:08:31Z</time></trkpt><trkpt lat="39.56802163661149" lon="16.006001243274916"><ele>1010.4000000000001</ele><time>2026-04-27T07:08:33Z</time></trkpt><trkpt lat="39.56796689865901" lon="16.006047428124138"><ele>1013.8000000000001</ele><time>2026-04-27T07:08:34Z</time></trkpt><trkpt lat="39.56787176592149" lon="16.006041382738584"><ele>1017.2</ele><time>2026-04-27T07:08:35Z</time></trkpt><trkpt lat="39.567758662538566" lon="16.006021834282038"><ele>1020.6</ele><time>2026-04-27T07:08:36Z</time></trkpt><trkpt lat="39.56761683173625" lon="16.00597517974071"><ele>1024.0</ele><time>2026-04-27T07:08:37Z</time></trkpt><trkpt lat="39.56747945280976" lon="16.005949788663376"><ele>1023.25</ele><time>2026-04-27T07:08:38Z</time></trkpt><trkpt lat="39.56736779579115" lon="16.005902720139826"><ele>1022.5</ele><time>2026-04-27T07:08:39Z</time></trkpt><trkpt lat="39.56725387617099" lon="16.00586216598166"><ele>1021.75</ele><time>2026-04-27T07:08:40Z</time></trkpt><trkpt lat="39.567129000147304" lon="16.00581063724387"><ele>1021.0</ele><time>2026-04-27T07:08:41Z</time></trkpt><trkpt lat="39.56700170219971" lon="16.00574422139517"><ele>1021.0</ele><time>2026-04-27T07:08:42Z</time></trkpt><trkpt lat="39.566867399760675" lon="16.005694699700616"><ele>1021.0</ele><time>2026-04-27T07:08:43Z</time></trkpt><trkpt lat="39.56673241702477" lon="16.00564758255865"><ele>1021.0</ele><time>2026-04-27T07:08:44Z</time></trkpt><trkpt lat="39.56660471818936" lon="16.005620264837496"><ele>1021.0</ele><time>2026-04-27T07:08:45Z</time></trkpt><trkpt lat="39.56649674683171" lon="16.005616027640542"><ele>1020.9999999999999</ele><time>2026-04-27T07:08:46Z</time></trkpt><trkpt lat="39.56640800447074" lon="16.00562690561698"><ele>1021.0</ele><time>2026-04-27T07:08:47Z</time></trkpt><trkpt lat="39.56632087799393" lon="16.00564271159848"><ele>1021.0</ele><time>2026-04-27T07:08:48Z</time></trkpt><trkpt lat="39.56625295331358" lon="16.005717511730523"><ele>1021.0</ele><time>2026-04-27T07:08:49Z</time></trkpt><trkpt lat="39.56622107080063" lon="16.00582835076254"><ele>1020.9999999999999</ele><time>2026-04-27T07:08:50Z</time></trkpt><trkpt lat="39.56626047717254" lon="16.00592917929449"><ele>1021.0</ele><time>2026-04-27T07:08:51Z</time></trkpt><trkpt lat="39.566348107289336" lon="16.006033533477314"><ele>1025.5</ele><time>2026-04-27T07:08:53Z</time></trkpt><trkpt lat="39.56642219467441" lon="16.00608452403825"><ele>1030.0</ele><time>2026-04-27T07:08:54Z</time></trkpt><trkpt lat="39.56649717264381" lon="16.006118148874037"><ele>1034.5</ele><time>2026-04-27T07:08:55Z</time></trkpt><trkpt lat="39.56656343323677" lon="16.00615194613941"><ele>1039.0</ele><time>2026-04-27T07:08:56Z</time></trkpt><trkpt lat="39.566629801531285" lon="16.00618524685921"><ele>1043.5</ele><time>2026-04-27T07:08:57Z</time></trkpt><trkpt lat="39.56666179928908" lon="16.006285088503322"><ele>1048.0</ele><time>2026-04-27T07:08:59Z</time></trkpt><trkpt lat="39.566625427513486" lon="16.00643330713574"><ele>1048.0</ele><time>2026-04-27T07:09:01Z</time></trkpt><trkpt lat="39.566563283235546" lon="16.006486114025968"><ele>1048.0</ele><time>2026-04-27T07:09:02Z</time></trkpt><trkpt lat="39.56649193071746" lon="16.00652196740957"><ele>1048.0</ele><time>2026-04-27T07:09:03Z</time></trkpt><trkpt lat="39.5663963804693" lon="16.006508132731845"><ele>1048.0</ele><time>2026-04-27T07:09:04Z</time></trkpt><trkpt lat="39.56628733959528" lon="16.00653721866153"><ele>1048.0</ele><time>2026-04-27T07:09:05Z</time></trkpt><trkpt lat="39.56618246869459" lon="16.00653898616604"><ele>1048.2</ele><time>2026-04-27T07:09:06Z</time></trkpt><trkpt lat="39.566096657395505" lon="16.006547038132485"><ele>1048.4</ele><time>2026-04-27T07:09:06.999Z</time></trkpt><trkpt lat="39.56601497852881" lon="16.00656666087817"><ele>1048.6000000000001</ele><time>2026-04-27T07:09:07.999Z</time></trkpt><trkpt lat="39.56594339994866" lon="16.00660832159587"><ele>1048.8</ele><time>2026-04-27T07:09:08.999Z</time></trkpt><trkpt lat="39.56585150965599" lon="16.006681880276886"><ele>1049.0</ele><time>2026-04-27T07:09:09.999Z</time></trkpt><trkpt lat="39.565743585385896" lon="16.00679145714659"><ele>1053.5</ele><time>2026-04-27T07:09:10.999Z</time></trkpt><trkpt lat="39.56565170091922" lon="16.0068994251913"><ele>1058.0</ele><time>2026-04-27T07:09:11.999Z</time></trkpt><trkpt lat="39.565563332834884" lon="16.007007551855036"><ele>1062.5</ele><time>2026-04-27T07:09:12.999Z</time></trkpt><trkpt lat="39.56548230473889" lon="16.00710726251571"><ele>1067.0</ele><time>2026-04-27T07:09:13.999Z</time></trkpt><trkpt lat="39.565396854303266" lon="16.007212841779204"><ele>1069.6666666666667</ele><time>2026-04-27T07:09:14.999Z</time></trkpt><trkpt lat="39.56528889371998" lon="16.007339074262926"><ele>1072.3333333333333</ele><time>2026-04-27T07:09:15.999Z</time></trkpt><trkpt lat="39.565185882327356" lon="16.007497494208444"><ele>1075.0</ele><time>2026-04-27T07:09:16.999Z</time></trkpt><trkpt lat="39.565072803954415" lon="16.00764570581873"><ele>1075.0</ele><time>2026-04-27T07:09:17.999Z</time></trkpt><trkpt lat="39.56497446044284" lon="16.00776935692166"><ele>1075.0</ele><time>2026-04-27T07:09:18.999Z</time></trkpt><trkpt lat="39.564896809620905" lon="16.00788804654638"><ele>1075.0</ele><time>2026-04-27T07:09:19.999Z</time></trkpt><trkpt lat="39.564836133428" lon="16.00800818106012"><ele>1075.0</ele><time>2026-04-27T07:09:20.999Z</time></trkpt><trkpt lat="39.56479686953932" lon="16.008153112688127"><ele>1076.75</ele><time>2026-04-27T07:09:21.999Z</time></trkpt><trkpt lat="39.56475890548325" lon="16.008336302617373"><ele>1078.5</ele><time>2026-04-27T07:09:22.999Z</time></trkpt><trkpt lat="39.56469679817286" lon="16.008557443272295"><ele>1080.25</ele><time>2026-04-27T07:09:23.999Z</time></trkpt><trkpt lat="39.564663905480515" lon="16.00870097683668"><ele>1082.0</ele><time>2026-04-27T07:09:24.999Z</time></trkpt><trkpt lat="39.564605059071184" lon="16.00879485275895"><ele>1082.0</ele><time>2026-04-27T07:09:25.999Z</time></trkpt><trkpt lat="39.564538986160585" lon="16.008861701837212"><ele>1082.0</ele><time>2026-04-27T07:09:26.999Z</time></trkpt><trkpt lat="39.56444532719517" lon="16.008899289284532"><ele>1082.0</ele><time>2026-04-27T07:09:27.999Z</time></trkpt><trkpt lat="39.56432077063202" lon="16.008939248860443"><ele>1082.0</ele><time>2026-04-27T07:09:28.999Z</time></trkpt><trkpt lat="39.56417686613261" lon="16.008977273588478"><ele>1082.2</ele><time>2026-04-27T07:09:29.999Z</time></trkpt><trkpt lat="39.564044987639505" lon="16.009033709530193"><ele>1082.4</ele><time>2026-04-27T07:09:30.999Z</time></trkpt><trkpt lat="39.56394285934084" lon="16.009075561207233"><ele>1082.6</ele><time>2026-04-27T07:09:31.999Z</time></trkpt><trkpt lat="39.563875233034345" lon="16.00915473630178"><ele>1082.8</ele><time>2026-04-27T07:09:32.999Z</time></trkpt><trkpt lat="39.563809366161486" lon="16.00922037522872"><ele>1083.0</ele><time>2026-04-27T07:09:33.999Z</time></trkpt><trkpt lat="39.56376898389933" lon="16.00935439008778"><ele>1083.0</ele><time>2026-04-27T07:09:34.999Z</time></trkpt><trkpt lat="39.56372732104919" lon="16.00953354055612"><ele>1083.0</ele><time>2026-04-27T07:09:35.999Z</time></trkpt><trkpt lat="39.56368847527839" lon="16.00971417663152"><ele>1083.0</ele><time>2026-04-27T07:09:36.999Z</time></trkpt><trkpt lat="39.56364406439309" lon="16.009877941533038"><ele>1083.0</ele><time>2026-04-27T07:09:37.999Z</time></trkpt><trkpt lat="39.5635778424545" lon="16.010040939048928"><ele>1081.0</ele><time>2026-04-27T07:09:38.999Z</time></trkpt><trkpt lat="39.56352118735925" lon="16.01019516637663"><ele>1079.0</ele><time>2026-04-27T07:09:39.999Z</time></trkpt><trkpt lat="39.56347395075285" lon="16.01032859066229"><ele>1077.0</ele><time>2026-04-27T07:09:40.999Z</time></trkpt><trkpt lat="39.56345382706654" lon="16.01045746471157"><ele>1075.0</ele><time>2026-04-27T07:09:41.999Z</time></trkpt><trkpt lat="39.563426951534545" lon="16.010599901691055"><ele>1075.0</ele><time>2026-04-27T07:09:42.999Z</time></trkpt><trkpt lat="39.563413927053794" lon="16.010760518217918"><ele>1075.0</ele><time>2026-04-27T07:09:43.999Z</time></trkpt><trkpt lat="39.56341007238461" lon="16.010946285080276"><ele>1075.0</ele><time>2026-04-27T07:09:44.999Z</time></trkpt><trkpt lat="39.56340755086907" lon="16.011105318020974"><ele>1075.0</ele><time>2026-04-27T07:09:45.999Z</time></trkpt><trkpt lat="39.56340631055201" lon="16.011261543721876"><ele>1075.5</ele><time>2026-04-27T07:09:46.999Z</time></trkpt><trkpt lat="39.563385613974894" lon="16.011414238081414"><ele>1076.0</ele><time>2026-04-27T07:09:47.999Z</time></trkpt><trkpt lat="39.563409951999645" lon="16.01155997476556"><ele>1076.5</ele><time>2026-04-27T07:09:48.999Z</time></trkpt><trkpt lat="39.56345320157599" lon="16.011719815554915"><ele>1077.0</ele><time>2026-04-27T07:09:49.999Z</time></trkpt><trkpt lat="39.56350101440737" lon="16.01187994021664"><ele>1076.0</ele><time>2026-04-27T07:09:50.999Z</time></trkpt><trkpt lat="39.56353984101644" lon="16.012044953336353"><ele>1075.0</ele><time>2026-04-27T07:09:51.999Z</time></trkpt><trkpt lat="39.563581042262044" lon="16.012220058633456"><ele>1074.0</ele><time>2026-04-27T07:09:52.999Z</time></trkpt><trkpt lat="39.56362348223353" lon="16.012413622210698"><ele>1073.0</ele><time>2026-04-27T07:09:53.999Z</time></trkpt><trkpt lat="39.563668218317005" lon="16.012606994294618"><ele>1071.25</ele><time>2026-04-27T07:09:54.999Z</time></trkpt><trkpt lat="39.56367997546299" lon="16.012796589373846"><ele>1069.5</ele><time>2026-04-27T07:09:55.999Z</time></trkpt><trkpt lat="39.56366724730817" lon="16.012980177236802"><ele>1067.75</ele><time>2026-04-27T07:09:56.999Z</time></trkpt><trkpt lat="39.56364968308788" lon="16.01313650082655"><ele>1066.0</ele><time>2026-04-27T07:09:57.999Z</time></trkpt><trkpt lat="39.563622465129015" lon="16.013287607807385"><ele>1067.75</ele><time>2026-04-27T07:09:58.999Z</time></trkpt><trkpt lat="39.563585413186395" lon="16.01345032979538"><ele>1069.5</ele><time>2026-04-27T07:09:59.999Z</time></trkpt><trkpt lat="39.56350158111499" lon="16.013614598511165"><ele>1071.25</ele><time>2026-04-27T07:10:00.999Z</time></trkpt><trkpt lat="39.563428319352745" lon="16.013755863700727"><ele>1073.0</ele><time>2026-04-27T07:10:01.999Z</time></trkpt><trkpt lat="39.563371229483174" lon="16.013889456161234"><ele>1073.0</ele><time>2026-04-27T07:10:02.999Z</time></trkpt><trkpt lat="39.563333570348334" lon="16.01403144296891"><ele>1073.0</ele><time>2026-04-27T07:10:03.999Z</time></trkpt><trkpt lat="39.56330328955787" lon="16.0141688393109"><ele>1073.0</ele><time>2026-04-27T07:10:04.999Z</time></trkpt><trkpt lat="39.563267129136406" lon="16.01429471151496"><ele>1073.0</ele><time>2026-04-27T07:10:05.999Z</time></trkpt><trkpt lat="39.56323114517916" lon="16.01441996952081"><ele>1073.0</ele><time>2026-04-27T07:10:06.999Z</time></trkpt><trkpt lat="39.56319766772238" lon="16.014530894151225"><ele>1076.0</ele><time>2026-04-27T07:10:07.999Z</time></trkpt><trkpt lat="39.5631619446407" lon="16.014638036312093"><ele>1079.0</ele><time>2026-04-27T07:10:08.999Z</time></trkpt><trkpt lat="39.563109092422486" lon="16.014750753670157"><ele>1082.0</ele><time>2026-04-27T07:10:09.999Z</time></trkpt><trkpt lat="39.563025015150785" lon="16.014888108261054"><ele>1085.0</ele><time>2026-04-27T07:10:10.999Z</time></trkpt><trkpt lat="39.56293379611965" lon="16.015013619067478"><ele>1083.8</ele><time>2026-04-27T07:10:11.999Z</time></trkpt><trkpt lat="39.56283080306843" lon="16.015104476394736"><ele>1082.6</ele><time>2026-04-27T07:10:12.998Z</time></trkpt><trkpt lat="39.56275447405623" lon="16.015203973997817"><ele>1081.4</ele><time>2026-04-27T07:10:13.998Z</time></trkpt><trkpt lat="39.562684972826624" lon="16.015272091331973"><ele>1080.2</ele><time>2026-04-27T07:10:14.998Z</time></trkpt><trkpt lat="39.562594687415285" lon="16.01534084130338"><ele>1079.0</ele><time>2026-04-27T07:10:15.998Z</time></trkpt><trkpt lat="39.56248683201961" lon="16.015430649322592"><ele>1079.0</ele><time>2026-04-27T07:10:17Z</time></trkpt><trkpt lat="39.56237583944795" lon="16.01551529939634"><ele>1079.0</ele><time>2026-04-27T07:10:18Z</time></trkpt><trkpt lat="39.56226388493539" lon="16.015596138474358"><ele>1079.0</ele><time>2026-04-27T07:10:19Z</time></trkpt><trkpt lat="39.562123499431614" lon="16.015697506749216"><ele>1079.0</ele><time>2026-04-27T07:10:20Z</time></trkpt><trkpt lat="39.561992774405816" lon="16.01579748425964"><ele>1079.3333333333335</ele><time>2026-04-27T07:10:21Z</time></trkpt><trkpt lat="39.56185279425849" lon="16.015887193664962"><ele>1079.6666666666667</ele><time>2026-04-27T07:10:22Z</time></trkpt><trkpt lat="39.56172291731518" lon="16.015999846786308"><ele>1080.0</ele><time>2026-04-27T07:10:23Z</time></trkpt><trkpt lat="39.56160677458625" lon="16.016100700171354"><ele>1080.0</ele><time>2026-04-27T07:10:24Z</time></trkpt><trkpt lat="39.561497039278706" lon="16.01620242410343"><ele>1080.0</ele><time>2026-04-27T07:10:25Z</time></trkpt><trkpt lat="39.561390418860896" lon="16.016304102263856"><ele>1080.0</ele><time>2026-04-27T07:10:26Z</time></trkpt><trkpt lat="39.56128773841371" lon="16.01640000892657"><ele>1080.0</ele><time>2026-04-27T07:10:27Z</time></trkpt><trkpt lat="39.561192158347964" lon="16.016492276822174"><ele>1079.0</ele><time>2026-04-27T07:10:28Z</time></trkpt><trkpt lat="39.56110678301786" lon="16.016578923241045"><ele>1078.0</ele><time>2026-04-27T07:10:29Z</time></trkpt><trkpt lat="39.5610334043184" lon="16.016653425148046"><ele>1077.0</ele><time>2026-04-27T07:10:30Z</time></trkpt><trkpt lat="39.560975187506465" lon="16.0167272014546"><ele>1076.0</ele><time>2026-04-27T07:10:31Z</time></trkpt><trkpt lat="39.5609384004628" lon="16.016818421436536"><ele>1075.0</ele><time>2026-04-27T07:10:32Z</time></trkpt><trkpt lat="39.56090348053406" lon="16.016925031251404"><ele>1075.0</ele><time>2026-04-27T07:10:33Z</time></trkpt><trkpt lat="39.56090512395005" lon="16.017068524016675"><ele>1075.0</ele><time>2026-04-27T07:10:34Z</time></trkpt><trkpt lat="39.56092932667782" lon="16.01720005325733"><ele>1075.0</ele><time>2026-04-27T07:10:35Z</time></trkpt><trkpt lat="39.560959896898616" lon="16.017343697354146"><ele>1075.0</ele><time>2026-04-27T07:10:36Z</time></trkpt><trkpt lat="39.56100244659962" lon="16.01749577323765"><ele>1073.25</ele><time>2026-04-27T07:10:37Z</time></trkpt><trkpt lat="39.56104113219552" lon="16.0176344166704"><ele>1071.5</ele><time>2026-04-27T07:10:38Z</time></trkpt><trkpt lat="39.56107205228697" lon="16.017773773367942"><ele>1069.75</ele><time>2026-04-27T07:10:39Z</time></trkpt><trkpt lat="39.5611009224726" lon="16.01791854886388"><ele>1068.0</ele><time>2026-04-27T07:10:40Z</time></trkpt><trkpt lat="39.56113534642684" lon="16.018059334872778"><ele>1068.0</ele><time>2026-04-27T07:10:41Z</time></trkpt><trkpt lat="39.561129405533364" lon="16.018195028519788"><ele>1068.0</ele><time>2026-04-27T07:10:42Z</time></trkpt><trkpt lat="39.56111207725743" lon="16.018319235921894"><ele>1068.0</ele><time>2026-04-27T07:10:43Z</time></trkpt><trkpt lat="39.56108138839886" lon="16.018430474969172"><ele>1068.0</ele><time>2026-04-27T07:10:44Z</time></trkpt><trkpt lat="39.561029285460194" lon="16.01855648745664"><ele>1068.0</ele><time>2026-04-27T07:10:45Z</time></trkpt><trkpt lat="39.560963216957525" lon="16.01869282797611"><ele>1067.25</ele><time>2026-04-27T07:10:46Z</time></trkpt><trkpt lat="39.56087724812448" lon="16.018851060111384"><ele>1066.5</ele><time>2026-04-27T07:10:47Z</time></trkpt><trkpt lat="39.560790553197876" lon="16.01900118860846"><ele>1065.75</ele><time>2026-04-27T07:10:48Z</time></trkpt><trkpt lat="39.56070774820521" lon="16.019128447190585"><ele>1065.0</ele><time>2026-04-27T07:10:49Z</time></trkpt><trkpt lat="39.56062624286708" lon="16.019241470380504"><ele>1064.0</ele><time>2026-04-27T07:10:50Z</time></trkpt><trkpt lat="39.56053795709685" lon="16.01935731392515"><ele>1063.0</ele><time>2026-04-27T07:10:51Z</time></trkpt><trkpt lat="39.56042462218406" lon="16.01948599116855"><ele>1062.0</ele><time>2026-04-27T07:10:52Z</time></trkpt><trkpt lat="39.56029217219782" lon="16.01961502476266"><ele>1061.0</ele><time>2026-04-27T07:10:53Z</time></trkpt><trkpt lat="39.56014367017572" lon="16.019736662961737"><ele>1061.0</ele><time>2026-04-27T07:10:54Z</time></trkpt><trkpt lat="39.55997228555383" lon="16.019873826143325"><ele>1061.0</ele><time>2026-04-27T07:10:55Z</time></trkpt><trkpt lat="39.55980072933655" lon="16.02003239634943"><ele>1061.0</ele><time>2026-04-27T07:10:56Z</time></trkpt><trkpt lat="39.5596515679961" lon="16.02018475450054"><ele>1062.0</ele><time>2026-04-27T07:10:57Z</time></trkpt><trkpt lat="39.55951372186218" lon="16.020330041268082"><ele>1063.0</ele><time>2026-04-27T07:10:58Z</time></trkpt><trkpt lat="39.55937360405182" lon="16.02044710062377"><ele>1064.0</ele><time>2026-04-27T07:10:59Z</time></trkpt><trkpt lat="39.559249161588745" lon="16.02057206789746"><ele>1064.0</ele><time>2026-04-27T07:11:00Z</time></trkpt><trkpt lat="39.55913735603157" lon="16.020703013035657"><ele>1064.0</ele><time>2026-04-27T07:11:01Z</time></trkpt><trkpt lat="39.55900659694221" lon="16.02081775695266"><ele>1064.0</ele><time>2026-04-27T07:11:02Z</time></trkpt><trkpt lat="39.55885824885984" lon="16.020931677797837"><ele>1065.0</ele><time>2026-04-27T07:11:03Z</time></trkpt><trkpt lat="39.55871220600266" lon="16.021019317969735"><ele>1066.0</ele><time>2026-04-27T07:11:04Z</time></trkpt><trkpt lat="39.5585569790988" lon="16.02110569805181"><ele>1067.0</ele><time>2026-04-27T07:11:05Z</time></trkpt><trkpt lat="39.55839542829734" lon="16.02118649123675"><ele>1067.0</ele><time>2026-04-27T07:11:06Z</time></trkpt><trkpt lat="39.55823079653805" lon="16.021260243501388"><ele>1067.0</ele><time>2026-04-27T07:11:07Z</time></trkpt><trkpt lat="39.55806292365607" lon="16.0213256429521"><ele>1067.0</ele><time>2026-04-27T07:11:08Z</time></trkpt><trkpt lat="39.557893984129024" lon="16.0213794154721"><ele>1063.6666666666667</ele><time>2026-04-27T07:11:09Z</time></trkpt><trkpt lat="39.55772180397834" lon="16.021420619043973"><ele>1060.3333333333333</ele><time>2026-04-27T07:11:10Z</time></trkpt><trkpt lat="39.557548002605046" lon="16.02147617895131"><ele>1057.0</ele><time>2026-04-27T07:11:11Z</time></trkpt><trkpt lat="39.5573742401599" lon="16.021522113029352"><ele>1057.0</ele><time>2026-04-27T07:11:11.999Z</time></trkpt><trkpt lat="39.557206917068406" lon="16.021567680234003"><ele>1057.0</ele><time>2026-04-27T07:11:12.999Z</time></trkpt><trkpt lat="39.55705319742979" lon="16.02160880038426"><ele>1057.0</ele><time>2026-04-27T07:11:13.999Z</time></trkpt><trkpt lat="39.55691542025229" lon="16.021637573548297"><ele>1056.25</ele><time>2026-04-27T07:11:14.999Z</time></trkpt><trkpt lat="39.55677567569128" lon="16.021605556402147"><ele>1055.5</ele><time>2026-04-27T07:11:15.999Z</time></trkpt><trkpt lat="39.556656096840726" lon="16.02153689077386"><ele>1054.75</ele><time>2026-04-27T07:11:16.999Z</time></trkpt><trkpt lat="39.55656172835495" lon="16.02142528018938"><ele>1054.0</ele><time>2026-04-27T07:11:17.999Z</time></trkpt><trkpt lat="39.556479563544094" lon="16.02126774897091"><ele>1054.0</ele><time>2026-04-27T07:11:18.999Z</time></trkpt><trkpt lat="39.55641138832784" lon="16.021081334560648"><ele>1054.0</ele><time>2026-04-27T07:11:19.999Z</time></trkpt><trkpt lat="39.55635426423988" lon="16.02091158432845"><ele>1054.0</ele><time>2026-04-27T07:11:20.999Z</time></trkpt><trkpt lat="39.55629651380903" lon="16.02074734573556"><ele>1054.0</ele><time>2026-04-27T07:11:21.999Z</time></trkpt><trkpt lat="39.556229936552064" lon="16.020573476981486"><ele>1058.0</ele><time>2026-04-27T07:11:22.999Z</time></trkpt><trkpt lat="39.55614005340601" lon="16.020398959147663"><ele>1062.0</ele><time>2026-04-27T07:11:23.999Z</time></trkpt><trkpt lat="39.55603250126085" lon="16.020234169450056"><ele>1066.0</ele><time>2026-04-27T07:11:24.999Z</time></trkpt><trkpt lat="39.555921015502406" lon="16.02008624094822"><ele>1065.5</ele><time>2026-04-27T07:11:25.999Z</time></trkpt><trkpt lat="39.55580057955617" lon="16.01996251964002"><ele>1065.0</ele><time>2026-04-27T07:11:26.999Z</time></trkpt><trkpt lat="39.555683250186924" lon="16.01984345311779"><ele>1064.5</ele><time>2026-04-27T07:11:27.999Z</time></trkpt><trkpt lat="39.5555488429941" lon="16.019781712821597"><ele>1064.0</ele><time>2026-04-27T07:11:28.999Z</time></trkpt><trkpt lat="39.55541490325274" lon="16.019736796220293"><ele>1064.75</ele><time>2026-04-27T07:11:29.999Z</time></trkpt><trkpt lat="39.55528301619904" lon="16.01972289620508"><ele>1065.5</ele><time>2026-04-27T07:11:30.999Z</time></trkpt><trkpt lat="39.55515434401466" lon="16.019745463176825"><ele>1066.25</ele><time>2026-04-27T07:11:31.999Z</time></trkpt><trkpt lat="39.55502371602333" lon="16.019800591810064"><ele>1067.0</ele><time>2026-04-27T07:11:32.999Z</time></trkpt><trkpt lat="39.55488969266828" lon="16.01990095609627"><ele>1069.0</ele><time>2026-04-27T07:11:33.999Z</time></trkpt><trkpt lat="39.55475189776513" lon="16.020028767091297"><ele>1071.0</ele><time>2026-04-27T07:11:34.999Z</time></trkpt><trkpt lat="39.55462294099895" lon="16.020153724330328"><ele>1073.0</ele><time>2026-04-27T07:11:35.999Z</time></trkpt><trkpt lat="39.55448274843775" lon="16.02025837207571"><ele>1073.3333333333335</ele><time>2026-04-27T07:11:36.999Z</time></trkpt><trkpt lat="39.554336468735" lon="16.020348501101754"><ele>1073.6666666666667</ele><time>2026-04-27T07:11:37.999Z</time></trkpt><trkpt lat="39.5541705610231" lon="16.020421492564093"><ele>1074.0</ele><time>2026-04-27T07:11:38.999Z</time></trkpt><trkpt lat="39.55398769162923" lon="16.02048980182111"><ele>1074.0</ele><time>2026-04-27T07:11:39.999Z</time></trkpt><trkpt lat="39.553784054633226" lon="16.020549530708223"><ele>1074.0</ele><time>2026-04-27T07:11:40.999Z</time></trkpt><trkpt lat="39.5535796199618" lon="16.020600258279163"><ele>1074.0</ele><time>2026-04-27T07:11:41.999Z</time></trkpt><trkpt lat="39.55338440029175" lon="16.02064573172458"><ele>1074.3333333333333</ele><time>2026-04-27T07:11:42.999Z</time></trkpt><trkpt lat="39.55319157451121" lon="16.020689531058615"><ele>1074.6666666666665</ele><time>2026-04-27T07:11:43.999Z</time></trkpt><trkpt lat="39.553005739716525" lon="16.020725538310206"><ele>1075.0</ele><time>2026-04-27T07:11:44.999Z</time></trkpt><trkpt lat="39.55280813582749" lon="16.020753308442224"><ele>1075.3333333333333</ele><time>2026-04-27T07:11:45.999Z</time></trkpt><trkpt lat="39.55260250691314" lon="16.02076833274091"><ele>1075.6666666666667</ele><time>2026-04-27T07:11:46.999Z</time></trkpt><trkpt lat="39.552428183833094" lon="16.020756774165132"><ele>1076.0</ele><time>2026-04-27T07:11:47.999Z</time></trkpt><trkpt lat="39.552264904332866" lon="16.02073999124942"><ele>1076.0</ele><time>2026-04-27T07:11:48.999Z</time></trkpt><trkpt lat="39.552126093421634" lon="16.020734158430287"><ele>1076.0</ele><time>2026-04-27T07:11:49.999Z</time></trkpt><trkpt lat="39.551998634208864" lon="16.020723496175012"><ele>1076.0</ele><time>2026-04-27T07:11:50.999Z</time></trkpt><trkpt lat="39.55187712231873" lon="16.02075924766751"><ele>1076.0</ele><time>2026-04-27T07:11:51.999Z</time></trkpt><trkpt lat="39.55176531031497" lon="16.020845702083264"><ele>1078.5</ele><time>2026-04-27T07:11:52.999Z</time></trkpt><trkpt lat="39.55167539601558" lon="16.02097769098568"><ele>1081.0</ele><time>2026-04-27T07:11:53.999Z</time></trkpt><trkpt lat="39.55160273089879" lon="16.021125144273242"><ele>1083.5</ele><time>2026-04-27T07:11:54.999Z</time></trkpt><trkpt lat="39.55154500252665" lon="16.021242690714114"><ele>1086.0</ele><time>2026-04-27T07:11:55.999Z</time></trkpt><trkpt lat="39.55149671407129" lon="16.021335130977498"><ele>1086.0</ele><time>2026-04-27T07:11:56.999Z</time></trkpt><trkpt lat="39.55144944861442" lon="16.02142149157568"><ele>1086.0</ele><time>2026-04-27T07:11:57.999Z</time></trkpt><trkpt lat="39.5514085233608" lon="16.021495345251818"><ele>1086.0</ele><time>2026-04-27T07:11:58.999Z</time></trkpt><trkpt lat="39.55136277680304" lon="16.02156368740799"><ele>1086.0</ele><time>2026-04-27T07:11:59.999Z</time></trkpt><trkpt lat="39.55131918565217" lon="16.021624966574752"><ele>1086.0</ele><time>2026-04-27T07:12:00.999Z</time></trkpt><trkpt lat="39.55125313111883" lon="16.02171061317815"><ele>1086.0</ele><time>2026-04-27T07:12:02.999Z</time></trkpt><trkpt lat="39.5511963963757" lon="16.0217941194857"><ele>1086.0</ele><time>2026-04-27T07:12:05.999Z</time></trkpt><trkpt lat="39.55131588401514" lon="16.021684564574024"><ele>1086.0</ele><time>2026-04-27T07:12:10.999Z</time></trkpt><trkpt lat="39.551355113594475" lon="16.02157072166924"><ele>1086.0</ele><time>2026-04-27T07:12:11.999Z</time></trkpt><trkpt lat="39.55143177181767" lon="16.02145498379798"><ele>1086.0</ele><time>2026-04-27T07:12:12.999Z</time></trkpt><trkpt lat="39.55149792727915" lon="16.021343225204905"><ele>1086.0</ele><time>2026-04-27T07:12:13.999Z</time></trkpt><trkpt lat="39.551545426500795" lon="16.021257380658152"><ele>1086.0</ele><time>2026-04-27T07:12:14.999Z</time></trkpt><trkpt lat="39.55158063260072" lon="16.021185314456446"><ele>1086.0</ele><time>2026-04-27T07:12:15.999Z</time></trkpt><trkpt lat="39.55162208419732" lon="16.021090737551837"><ele>1086.0</ele><time>2026-04-27T07:12:18.998Z</time></trkpt><trkpt lat="39.551686901793644" lon="16.021039110117886"><ele>1086.0</ele><time>2026-04-27T07:12:21.998Z</time></trkpt><trkpt lat="39.5516192998173" lon="16.02108073533055"><ele>1086.0</ele><time>2026-04-27T07:12:27Z</time></trkpt><trkpt lat="39.551643962129795" lon="16.02115762719754"><ele>1086.0</ele><time>2026-04-27T07:12:28Z</time></trkpt><trkpt lat="39.551630323312615" lon="16.021318257579825"><ele>1086.0</ele><time>2026-04-27T07:12:30Z</time></trkpt><trkpt lat="39.55161192717186" lon="16.021420755411754"><ele>1086.0</ele><time>2026-04-27T07:12:31Z</time></trkpt><trkpt lat="39.55158161937376" lon="16.02154612161265"><ele>1086.0</ele><time>2026-04-27T07:12:32Z</time></trkpt><trkpt lat="39.55155478665082" lon="16.021685773594772"><ele>1086.0</ele><time>2026-04-27T07:12:33Z</time></trkpt><trkpt lat="39.55152839727351" lon="16.021811176317872"><ele>1086.0</ele><time>2026-04-27T07:12:34Z</time></trkpt><trkpt lat="39.55149450543021" lon="16.02195194580058"><ele>1086.6</ele><time>2026-04-27T07:12:36Z</time></trkpt><trkpt lat="39.55141505327871" lon="16.02205415005957"><ele>1087.1999999999998</ele><time>2026-04-27T07:12:38Z</time></trkpt><trkpt lat="39.55135815725038" lon="16.022152118339886"><ele>1087.8000000000002</ele><time>2026-04-27T07:12:39Z</time></trkpt><trkpt lat="39.55131889335832" lon="16.022220150211513"><ele>1088.4</ele><time>2026-04-27T07:12:40Z</time></trkpt><trkpt lat="39.55129418704353" lon="16.02239621455988"><ele>1089.0</ele><time>2026-04-27T07:12:42Z</time></trkpt><trkpt lat="39.55127866763989" lon="16.022491446547164"><ele>1089.0</ele><time>2026-04-27T07:12:43Z</time></trkpt><trkpt lat="39.551261301318405" lon="16.02257208164245"><ele>1089.0</ele><time>2026-04-27T07:12:44Z</time></trkpt><trkpt lat="39.55122523239517" lon="16.022660748468343"><ele>1089.0</ele><time>2026-04-27T07:12:45Z</time></trkpt><trkpt lat="39.551188063175644" lon="16.022759574447214"><ele>1089.0</ele><time>2026-04-27T07:12:46Z</time></trkpt><trkpt lat="39.5511564081824" lon="16.022860343167537"><ele>1089.0</ele><time>2026-04-27T07:12:47Z</time></trkpt><trkpt lat="39.551133468086846" lon="16.02296474403381"><ele>1089.0</ele><time>2026-04-27T07:12:48Z</time></trkpt><trkpt lat="39.55109597740405" lon="16.023067342504444"><ele>1089.0</ele><time>2026-04-27T07:12:49Z</time></trkpt><trkpt lat="39.55101833857177" lon="16.02318403714006"><ele>1089.0</ele><time>2026-04-27T07:12:50Z</time></trkpt><trkpt lat="39.55093372640692" lon="16.023304516850335"><ele>1089.0</ele><time>2026-04-27T07:12:51Z</time></trkpt><trkpt lat="39.55086769167771" lon="16.023426345566705"><ele>1089.0</ele><time>2026-04-27T07:12:52Z</time></trkpt><trkpt lat="39.55082340266266" lon="16.02350341725005"><ele>1089.0</ele><time>2026-04-27T07:12:53Z</time></trkpt><trkpt lat="39.55077740601224" lon="16.02365085445028"><ele>1089.5</ele><time>2026-04-27T07:12:55Z</time></trkpt><trkpt lat="39.55074862016833" lon="16.023732138077698"><ele>1090.0</ele><time>2026-04-27T07:12:57Z</time></trkpt><trkpt lat="39.550703158577384" lon="16.02379581583579"><ele>1090.5</ele><time>2026-04-27T07:13:02Z</time></trkpt><trkpt lat="39.55065675445617" lon="16.02391629595174"><ele>1091.0</ele><time>2026-04-27T07:13:05Z</time></trkpt><trkpt lat="39.55060723488947" lon="16.024061801382786"><ele>1091.5</ele><time>2026-04-27T07:13:07Z</time></trkpt><trkpt lat="39.55060486751853" lon="16.02414723407526"><ele>1092.0</ele><time>2026-04-27T07:13:08Z</time></trkpt><trkpt lat="39.55061602279693" lon="16.024248568595567"><ele>1092.8333333333333</ele><time>2026-04-27T07:13:09Z</time></trkpt><trkpt lat="39.55062993889431" lon="16.024359590561502"><ele>1093.6666666666667</ele><time>2026-04-27T07:13:10Z</time></trkpt><trkpt lat="39.55066583639387" lon="16.024451986858534"><ele>1094.5</ele><time>2026-04-27T07:13:11Z</time></trkpt><trkpt lat="39.55070582736497" lon="16.024528032383458"><ele>1095.3333333333335</ele><time>2026-04-27T07:13:12Z</time></trkpt><trkpt lat="39.55074999961689" lon="16.024593232059278"><ele>1096.1666666666667</ele><time>2026-04-27T07:13:13Z</time></trkpt><trkpt lat="39.550809062750666" lon="16.024725018661854"><ele>1097.0</ele><time>2026-04-27T07:13:15Z</time></trkpt><trkpt lat="39.55083845738211" lon="16.02480640908276"><ele>1097.0</ele><time>2026-04-27T07:13:16Z</time></trkpt><trkpt lat="39.550834486096804" lon="16.024922993467705"><ele>1097.0</ele><time>2026-04-27T07:13:18Z</time></trkpt><trkpt lat="39.55077455444322" lon="16.02499161666827"><ele>1097.0</ele><time>2026-04-27T07:13:19.999Z</time></trkpt><trkpt lat="39.550700928179495" lon="16.025058282213397"><ele>1097.0</ele><time>2026-04-27T07:13:21.999Z</time></trkpt><trkpt lat="39.550600155165306" lon="16.025115775043236"><ele>1097.0</ele><time>2026-04-27T07:13:23.999Z</time></trkpt><trkpt lat="39.550531044607474" lon="16.025143774816215"><ele>1097.0</ele><time>2026-04-27T07:13:24.999Z</time></trkpt><trkpt lat="39.550421407463354" lon="16.025195285121853"><ele>1098.3333333333335</ele><time>2026-04-27T07:13:26.999Z</time></trkpt><trkpt lat="39.55037228498348" lon="16.02524788571811"><ele>1099.6666666666667</ele><time>2026-04-27T07:13:28.999Z</time></trkpt><trkpt lat="39.550386030000006" lon="16.025335379436328"><ele>1101.0</ele><time>2026-04-27T07:13:30.999Z</time></trkpt><trkpt lat="39.550443846751364" lon="16.025461508065632"><ele>1102.3333333333333</ele><time>2026-04-27T07:13:32.999Z</time></trkpt><trkpt lat="39.550480740536045" lon="16.025569237661813"><ele>1103.6666666666665</ele><time>2026-04-27T07:13:34.999Z</time></trkpt><trkpt lat="39.5505122379842" lon="16.025677156311616"><ele>1105.0</ele><time>2026-04-27T07:13:36.999Z</time></trkpt><trkpt lat="39.55052374163111" lon="16.025809657032855"><ele>1106.8</ele><time>2026-04-27T07:13:38.999Z</time></trkpt><trkpt lat="39.55045198932982" lon="16.02590955864236"><ele>1108.6</ele><time>2026-04-27T07:13:40.999Z</time></trkpt><trkpt lat="39.55043176015699" lon="16.026042421700957"><ele>1110.4</ele><time>2026-04-27T07:13:42.999Z</time></trkpt><trkpt lat="39.550491872840354" lon="16.026144933520335"><ele>1112.2</ele><time>2026-04-27T07:13:44.999Z</time></trkpt><trkpt lat="39.550553171410755" lon="16.026241079149735"><ele>1114.0</ele><time>2026-04-27T07:13:46.999Z</time></trkpt><trkpt lat="39.55051943230488" lon="16.026325881017655"><ele>1114.0</ele><time>2026-04-27T07:13:50.999Z</time></trkpt><trkpt lat="39.55040555242554" lon="16.02639409682266"><ele>1114.0</ele><time>2026-04-27T07:13:53.999Z</time></trkpt><trkpt lat="39.55034872868405" lon="16.02644525336673"><ele>1114.0</ele><time>2026-04-27T07:13:54.999Z</time></trkpt><trkpt lat="39.55027644456873" lon="16.026505958816237"><ele>1114.0</ele><time>2026-04-27T07:13:55.999Z</time></trkpt><trkpt lat="39.55018146393848" lon="16.026561521914893"><ele>1114.0</ele><time>2026-04-27T07:13:57.999Z</time></trkpt><trkpt lat="39.55004796393563" lon="16.02655778609474"><ele>1114.4</ele><time>2026-04-27T07:13:59.999Z</time></trkpt><trkpt lat="39.54994172726944" lon="16.026540772469218"><ele>1114.8000000000002</ele><time>2026-04-27T07:14:00.999Z</time></trkpt><trkpt lat="39.549832097656996" lon="16.026521767995142"><ele>1115.1999999999998</ele><time>2026-04-27T07:14:01.999Z</time></trkpt><trkpt lat="39.549729272877535" lon="16.026513380340127"><ele>1115.6</ele><time>2026-04-27T07:14:02.999Z</time></trkpt><trkpt lat="39.54964880051496" lon="16.026517577871072"><ele>1116.0</ele><time>2026-04-27T07:14:03.999Z</time></trkpt><trkpt lat="39.54952210998541" lon="16.026582391484666"><ele>1114.3999999999999</ele><time>2026-04-27T07:14:05.999Z</time></trkpt><trkpt lat="39.549425902511366" lon="16.02666598970878"><ele>1112.8</ele><time>2026-04-27T07:14:07.999Z</time></trkpt><trkpt lat="39.54934164925633" lon="16.026791937021738"><ele>1111.1999999999998</ele><time>2026-04-27T07:14:09.999Z</time></trkpt><trkpt lat="39.54927756185518" lon="16.026890700276443"><ele>1109.6</ele><time>2026-04-27T07:14:11.999Z</time></trkpt><trkpt lat="39.5491912922132" lon="16.026960943531627"><ele>1108.0</ele><time>2026-04-27T07:14:13.999Z</time></trkpt><trkpt lat="39.54912660768509" lon="16.027015469549873"><ele>1108.0</ele><time>2026-04-27T07:14:16.999Z</time></trkpt><trkpt lat="39.54904777910888" lon="16.027060144551726"><ele>1108.0</ele><time>2026-04-27T07:14:19.999Z</time></trkpt><trkpt lat="39.54899343972645" lon="16.02711869245898"><ele>1108.0</ele><time>2026-04-27T07:14:21.999Z</time></trkpt><trkpt lat="39.54875507446323" lon="16.027309581375206"><ele>1108.0</ele><time>2026-04-27T07:14:23.999Z</time></trkpt><trkpt lat="39.548694883333475" lon="16.027360122069485"><ele>1104.3333333333333</ele><time>2026-04-27T07:14:24.998Z</time></trkpt><trkpt lat="39.54862736625861" lon="16.02744910010446"><ele>1100.6666666666665</ele><time>2026-04-27T07:14:26.998Z</time></trkpt><trkpt lat="39.54856984313134" lon="16.027487912584675"><ele>1097.0</ele><time>2026-04-27T07:14:30Z</time></trkpt><trkpt lat="39.54853227458208" lon="16.027581785090852"><ele>1093.3333333333333</ele><time>2026-04-27T07:14:32Z</time></trkpt><trkpt lat="39.54849972770854" lon="16.027657898530094"><ele>1089.6666666666667</ele><time>2026-04-27T07:14:33Z</time></trkpt><trkpt lat="39.548444459560194" lon="16.027784114298285"><ele>1086.0</ele><time>2026-04-27T07:14:35Z</time></trkpt><trkpt lat="39.54841624053673" lon="16.027865835518725"><ele>1086.0</ele><time>2026-04-27T07:14:37Z</time></trkpt><trkpt lat="39.54836242803436" lon="16.027953026901574"><ele>1086.0</ele><time>2026-04-27T07:14:40Z</time></trkpt><trkpt lat="39.548335178311376" lon="16.02802902961814"><ele>1086.0</ele><time>2026-04-27T07:14:42Z</time></trkpt><trkpt lat="39.54829329302541" lon="16.028126005049053"><ele>1086.0</ele><time>2026-04-27T07:14:45Z</time></trkpt><trkpt lat="39.54820759298556" lon="16.028168571188864"><ele>1086.0</ele><time>2026-04-27T07:14:49Z</time></trkpt><trkpt lat="39.548140722292715" lon="16.028246860868627"><ele>1086.0</ele><time>2026-04-27T07:14:52Z</time></trkpt><trkpt lat="39.54808496543116" lon="16.02833466908144"><ele>1083.25</ele><time>2026-04-27T07:14:55Z</time></trkpt><trkpt lat="39.548044606902856" lon="16.028430256814364"><ele>1080.5</ele><time>2026-04-27T07:14:57Z</time></trkpt><trkpt lat="39.54787889420984" lon="16.028647817268205"><ele>1077.75</ele><time>2026-04-27T07:14:58Z</time></trkpt><trkpt lat="39.547836898908805" lon="16.028712439222193"><ele>1075.0</ele><time>2026-04-27T07:14:59Z</time></trkpt><trkpt lat="39.54775311574951" lon="16.02882463170888"><ele>1072.3333333333333</ele><time>2026-04-27T07:15:01Z</time></trkpt><trkpt lat="39.547713842853" lon="16.0288978525069"><ele>1069.6666666666665</ele><time>2026-04-27T07:15:02Z</time></trkpt><trkpt lat="39.54766663703702" lon="16.028981400832595"><ele>1067.0</ele><time>2026-04-27T07:15:03Z</time></trkpt><trkpt lat="39.54762029041994" lon="16.029068182811507"><ele>1064.3333333333333</ele><time>2026-04-27T07:15:04Z</time></trkpt><trkpt lat="39.54757045624107" lon="16.02916242433252"><ele>1061.6666666666667</ele><time>2026-04-27T07:15:05Z</time></trkpt><trkpt lat="39.547524212028286" lon="16.02924041265959"><ele>1059.0</ele><time>2026-04-27T07:15:06Z</time></trkpt><trkpt lat="39.54748610720383" lon="16.029328641951963"><ele>1058.8333333333333</ele><time>2026-04-27T07:15:07Z</time></trkpt><trkpt lat="39.54745324082343" lon="16.029422163214893"><ele>1058.6666666666667</ele><time>2026-04-27T07:15:08Z</time></trkpt><trkpt lat="39.547425401295605" lon="16.02950710393229"><ele>1058.5</ele><time>2026-04-27T07:15:09Z</time></trkpt><trkpt lat="39.54739760866335" lon="16.02959995855015"><ele>1058.3333333333335</ele><time>2026-04-27T07:15:10Z</time></trkpt><trkpt lat="39.54735422151261" lon="16.02968339094233"><ele>1058.1666666666667</ele><time>2026-04-27T07:15:11Z</time></trkpt><trkpt lat="39.547289013877055" lon="16.029776549524644"><ele>1058.0</ele><time>2026-04-27T07:15:12Z</time></trkpt><trkpt lat="39.54721193246066" lon="16.029902482312686"><ele>1057.6</ele><time>2026-04-27T07:15:13Z</time></trkpt><trkpt lat="39.54715456251742" lon="16.02999567016282"><ele>1057.1999999999998</ele><time>2026-04-27T07:15:14Z</time></trkpt><trkpt lat="39.54709632218719" lon="16.030093339756235"><ele>1056.8</ele><time>2026-04-27T07:15:15Z</time></trkpt><trkpt lat="39.5470511462257" lon="16.030158570713848"><ele>1056.3999999999999</ele><time>2026-04-27T07:15:16Z</time></trkpt><trkpt lat="39.54698506435781" lon="16.030284517431532"><ele>1056.0</ele><time>2026-04-27T07:15:18Z</time></trkpt><trkpt lat="39.54690144718157" lon="16.03041635499153"><ele>1055.8333333333333</ele><time>2026-04-27T07:15:20Z</time></trkpt><trkpt lat="39.5468514768113" lon="16.03050731659467"><ele>1055.6666666666667</ele><time>2026-04-27T07:15:21Z</time></trkpt><trkpt lat="39.54682232725394" lon="16.03060055705184"><ele>1055.5</ele><time>2026-04-27T07:15:22Z</time></trkpt><trkpt lat="39.54681324178402" lon="16.030697598111118"><ele>1055.3333333333335</ele><time>2026-04-27T07:15:23Z</time></trkpt><trkpt lat="39.546766760635464" lon="16.030822220562527"><ele>1055.1666666666667</ele><time>2026-04-27T07:15:25Z</time></trkpt><trkpt lat="39.54673593144799" lon="16.03089721574033"><ele>1055.0</ele><time>2026-04-27T07:15:25.999Z</time></trkpt><trkpt lat="39.546674769847726" lon="16.030961446056327"><ele>1055.3333333333335</ele><time>2026-04-27T07:15:27.999Z</time></trkpt><trkpt lat="39.546617346365494" lon="16.03104525573302"><ele>1055.6666666666667</ele><time>2026-04-27T07:15:30.999Z</time></trkpt><trkpt lat="39.54655152737179" lon="16.03111818118358"><ele>1056.0</ele><time>2026-04-27T07:15:33.999Z</time></trkpt><trkpt lat="39.54648497094554" lon="16.03118669698513"><ele>1056.3333333333333</ele><time>2026-04-27T07:15:35.999Z</time></trkpt><trkpt lat="39.54639701259989" lon="16.03128922558945"><ele>1056.6666666666665</ele><time>2026-04-27T07:15:37.999Z</time></trkpt><trkpt lat="39.546341664544904" lon="16.031346169609957"><ele>1057.0</ele><time>2026-04-27T07:15:38.999Z</time></trkpt><trkpt lat="39.5462367111702" lon="16.031429576964914"><ele>1054.4285714285713</ele><time>2026-04-27T07:15:40.999Z</time></trkpt><trkpt lat="39.546167395112974" lon="16.031448777852624"><ele>1051.857142857143</ele><time>2026-04-27T07:15:41.999Z</time></trkpt><trkpt lat="39.54609777791338" lon="16.031469189442983"><ele>1049.2857142857142</ele><time>2026-04-27T07:15:42.999Z</time></trkpt><trkpt lat="39.54603053863929" lon="16.031499230501417"><ele>1046.7142857142858</ele><time>2026-04-27T07:15:43.999Z</time></trkpt><trkpt lat="39.54597402246094" lon="16.03154849304497"><ele>1044.142857142857</ele><time>2026-04-27T07:15:44.999Z</time></trkpt><trkpt lat="39.545911605403276" lon="16.03160616486733"><ele>1041.5714285714284</ele><time>2026-04-27T07:15:45.999Z</time></trkpt><trkpt lat="39.545843639807" lon="16.03164078165047"><ele>1039.0</ele><time>2026-04-27T07:15:46.999Z</time></trkpt><trkpt lat="39.54577169451288" lon="16.03166686923965"><ele>1038.5</ele><time>2026-04-27T07:15:47.999Z</time></trkpt><trkpt lat="39.545656370352475" lon="16.031682987325016"><ele>1038.0</ele><time>2026-04-27T07:15:49.999Z</time></trkpt><trkpt lat="39.54555675273595" lon="16.031787568672403"><ele>1037.5</ele><time>2026-04-27T07:15:51.999Z</time></trkpt><trkpt lat="39.54548948103293" lon="16.0319005203032"><ele>1037.0</ele><time>2026-04-27T07:15:52.999Z</time></trkpt><trkpt lat="39.54541276794436" lon="16.032007502998663"><ele>1034.6</ele><time>2026-04-27T07:15:53.999Z</time></trkpt><trkpt lat="39.5453290511388" lon="16.0320925923905"><ele>1032.2</ele><time>2026-04-27T07:15:54.999Z</time></trkpt><trkpt lat="39.545241072609095" lon="16.03216100489849"><ele>1029.8</ele><time>2026-04-27T07:15:55.999Z</time></trkpt><trkpt lat="39.545169183762425" lon="16.03220847930557"><ele>1027.4</ele><time>2026-04-27T07:15:56.999Z</time></trkpt><trkpt lat="39.5451054935917" lon="16.03223765504981"><ele>1025.0</ele><time>2026-04-27T07:15:57.999Z</time></trkpt><trkpt lat="39.54498909580059" lon="16.03229247618232"><ele>1025.0</ele><time>2026-04-27T07:15:59.999Z</time></trkpt><trkpt lat="39.54493843204439" lon="16.032356075296768"><ele>1025.0</ele><time>2026-04-27T07:16:00.999Z</time></trkpt><trkpt lat="39.54486507989823" lon="16.032444614936633"><ele>1025.0</ele><time>2026-04-27T07:16:01.999Z</time></trkpt><trkpt lat="39.54478891047564" lon="16.03250255599666"><ele>1025.0</ele><time>2026-04-27T07:16:02.999Z</time></trkpt><trkpt lat="39.54468954008959" lon="16.032595275980384"><ele>1025.0</ele><time>2026-04-27T07:16:04.999Z</time></trkpt><trkpt lat="39.54460395905959" lon="16.0326642052009"><ele>1025.5</ele><time>2026-04-27T07:16:05.999Z</time></trkpt><trkpt lat="39.544519735340714" lon="16.032726007605294"><ele>1026.0</ele><time>2026-04-27T07:16:06.999Z</time></trkpt><trkpt lat="39.54444440121631" lon="16.032768547059735"><ele>1026.5</ele><time>2026-04-27T07:16:07.999Z</time></trkpt><trkpt lat="39.544379801493776" lon="16.032813056106704"><ele>1027.0</ele><time>2026-04-27T07:16:08.999Z</time></trkpt><trkpt lat="39.54432569439405" lon="16.032858844680913"><ele>1027.5</ele><time>2026-04-27T07:16:09.999Z</time></trkpt><trkpt lat="39.54426708980299" lon="16.032925049131833"><ele>1028.0</ele><time>2026-04-27T07:16:10.999Z</time></trkpt><trkpt lat="39.544191284074415" lon="16.033019044873356"><ele>1028.0</ele><time>2026-04-27T07:16:11.999Z</time></trkpt><trkpt lat="39.54411354574937" lon="16.033116804436474"><ele>1028.0</ele><time>2026-04-27T07:16:12.999Z</time></trkpt><trkpt lat="39.54405855493729" lon="16.033209763286692"><ele>1028.0</ele><time>2026-04-27T07:16:13.999Z</time></trkpt><trkpt lat="39.54399562472035" lon="16.03330671317819"><ele>1028.0</ele><time>2026-04-27T07:16:14.999Z</time></trkpt><trkpt lat="39.5439315757686" lon="16.033405164613484"><ele>1028.0</ele><time>2026-04-27T07:16:15.999Z</time></trkpt><trkpt lat="39.54386723254676" lon="16.03349325671319"><ele>1028.5</ele><time>2026-04-27T07:16:16.999Z</time></trkpt><trkpt lat="39.54380331806865" lon="16.033561487599567"><ele>1029.0</ele><time>2026-04-27T07:16:17.999Z</time></trkpt><trkpt lat="39.54373744592317" lon="16.03361078509757"><ele>1029.5</ele><time>2026-04-27T07:16:18.999Z</time></trkpt><trkpt lat="39.543671541464796" lon="16.0336391510795"><ele>1030.0</ele><time>2026-04-27T07:16:19.999Z</time></trkpt><trkpt lat="39.54358920667333" lon="16.033688378368556"><ele>1030.5</ele><time>2026-04-27T07:16:20.999Z</time></trkpt><trkpt lat="39.543512183827765" lon="16.033758063064674"><ele>1031.0</ele><time>2026-04-27T07:16:21.999Z</time></trkpt><trkpt lat="39.543410061819884" lon="16.03377799170294"><ele>1028.8333333333335</ele><time>2026-04-27T07:16:23.999Z</time></trkpt><trkpt lat="39.5433324857614" lon="16.03376578481944"><ele>1026.6666666666667</ele><time>2026-04-27T07:16:24.999Z</time></trkpt><trkpt lat="39.54324743744663" lon="16.033749178179082"><ele>1024.5</ele><time>2026-04-27T07:16:25.999Z</time></trkpt><trkpt lat="39.543176925340326" lon="16.0337403121726"><ele>1022.3333333333333</ele><time>2026-04-27T07:16:26.999Z</time></trkpt><trkpt lat="39.54308537006771" lon="16.033742695650393"><ele>1020.1666666666666</ele><time>2026-04-27T07:16:28.999Z</time></trkpt><trkpt lat="39.54300523056816" lon="16.03376247798365"><ele>1018.0</ele><time>2026-04-27T07:16:30.999Z</time></trkpt><trkpt lat="39.54295527163783" lon="16.033816979673674"><ele>1017.9999999999999</ele><time>2026-04-27T07:16:32.998Z</time></trkpt><trkpt lat="39.54292390230325" lon="16.033938581169092"><ele>1018.0</ele><time>2026-04-27T07:16:35Z</time></trkpt><trkpt lat="39.54290874255067" lon="16.034036991429524"><ele>1018.0</ele><time>2026-04-27T07:16:37Z</time></trkpt><trkpt lat="39.542855600728494" lon="16.03413732203036"><ele>1018.0</ele><time>2026-04-27T07:16:40Z</time></trkpt><trkpt lat="39.54282373886776" lon="16.034221147182254"><ele>1017.9999999999999</ele><time>2026-04-27T07:16:42Z</time></trkpt><trkpt lat="39.542832981064706" lon="16.034305562479094"><ele>1018.0</ele><time>2026-04-27T07:16:44Z</time></trkpt><trkpt lat="39.542868384606706" lon="16.034432497785648"><ele>1017.8</ele><time>2026-04-27T07:16:46Z</time></trkpt><trkpt lat="39.542885280590674" lon="16.034524393008446"><ele>1017.5999999999999</ele><time>2026-04-27T07:16:48Z</time></trkpt><trkpt lat="39.542872010665405" lon="16.03463910763756"><ele>1017.4000000000001</ele><time>2026-04-27T07:16:50Z</time></trkpt><trkpt lat="39.54282924089166" lon="16.034776391992498"><ele>1017.2</ele><time>2026-04-27T07:16:52Z</time></trkpt><trkpt lat="39.542793917253" lon="16.034878074231212"><ele>1017.0</ele><time>2026-04-27T07:16:54Z</time></trkpt><trkpt lat="39.542730766206475" lon="16.03499847651688"><ele>1012.2</ele><time>2026-04-27T07:16:56Z</time></trkpt><trkpt lat="39.54266848673436" lon="16.035125937349697"><ele>1007.4000000000001</ele><time>2026-04-27T07:16:58Z</time></trkpt><trkpt lat="39.54259176068745" lon="16.035222076122018"><ele>1002.5999999999999</ele><time>2026-04-27T07:17:00Z</time></trkpt><trkpt lat="39.54254173688304" lon="16.03530929348805"><ele>997.8</ele><time>2026-04-27T07:17:02Z</time></trkpt><trkpt lat="39.542523327160275" lon="16.035399317452107"><ele>993.0</ele><time>2026-04-27T07:17:04Z</time></trkpt><trkpt lat="39.54248547953579" lon="16.035490135209916"><ele>993.0</ele><time>2026-04-27T07:17:06Z</time></trkpt><trkpt lat="39.54243575262087" lon="16.03558800852549"><ele>993.0</ele><time>2026-04-27T07:17:08Z</time></trkpt><trkpt lat="39.542416808561335" lon="16.0357099915581"><ele>993.0</ele><time>2026-04-27T07:17:10Z</time></trkpt><trkpt lat="39.54240721505198" lon="16.035853352873698"><ele>993.0</ele><time>2026-04-27T07:17:12Z</time></trkpt><trkpt lat="39.54243804925404" lon="16.03598144258971"><ele>993.0</ele><time>2026-04-27T07:17:14Z</time></trkpt><trkpt lat="39.54242403106272" lon="16.03609092436876"><ele>990.8333333333334</ele><time>2026-04-27T07:17:16Z</time></trkpt><trkpt lat="39.54238986853053" lon="16.036235084026778"><ele>988.6666666666667</ele><time>2026-04-27T07:17:18Z</time></trkpt><trkpt lat="39.542356701184225" lon="16.03632768389665"><ele>986.5</ele><time>2026-04-27T07:17:19Z</time></trkpt><trkpt lat="39.54234546957299" lon="16.03641351010542"><ele>984.3333333333334</ele><time>2026-04-27T07:17:20Z</time></trkpt><trkpt lat="39.54233381563596" lon="16.03650342306967"><ele>982.1666666666667</ele><time>2026-04-27T07:17:21Z</time></trkpt><trkpt lat="39.542310497822406" lon="16.03664542870566"><ele>980.0</ele><time>2026-04-27T07:17:23Z</time></trkpt><trkpt lat="39.54228202897158" lon="16.036790929612334"><ele>977.6666666666667</ele><time>2026-04-27T07:17:25Z</time></trkpt><trkpt lat="39.54221765326721" lon="16.036950310755522"><ele>975.3333333333334</ele><time>2026-04-27T07:17:27Z</time></trkpt><trkpt lat="39.542188725106925" lon="16.037035510750606"><ele>973.0</ele><time>2026-04-27T07:17:28Z</time></trkpt><trkpt lat="39.54216275286189" lon="16.037122525795855"><ele>970.6666666666667</ele><time>2026-04-27T07:17:29Z</time></trkpt><trkpt lat="39.542135131531786" lon="16.037213362788968"><ele>968.3333333333334</ele><time>2026-04-27T07:17:29.999Z</time></trkpt><trkpt lat="39.542100979772364" lon="16.037292300538216"><ele>966.0</ele><time>2026-04-27T07:17:30.999Z</time></trkpt><trkpt lat="39.54208193116285" lon="16.037377541061616"><ele>963.0</ele><time>2026-04-27T07:17:31.999Z</time></trkpt><trkpt lat="39.542060813675775" lon="16.03747811438465"><ele>960.0</ele><time>2026-04-27T07:17:32.999Z</time></trkpt><trkpt lat="39.54205059996633" lon="16.037598917724097"><ele>957.0</ele><time>2026-04-27T07:17:33.999Z</time></trkpt><trkpt lat="39.54202984956898" lon="16.03769343753664"><ele>954.0</ele><time>2026-04-27T07:17:34.999Z</time></trkpt><trkpt lat="39.54201061054453" lon="16.037792972355103"><ele>951.0</ele><time>2026-04-27T07:17:35.999Z</time></trkpt><trkpt lat="39.54199965907023" lon="16.03787883839872"><ele>948.0</ele><time>2026-04-27T07:17:36.999Z</time></trkpt><trkpt lat="39.54199961968854" lon="16.038013065584156"><ele>948.0</ele><time>2026-04-27T07:17:38.999Z</time></trkpt><trkpt lat="39.542036250188765" lon="16.03814091186081"><ele>948.0</ele><time>2026-04-27T07:17:41.999Z</time></trkpt><trkpt lat="39.54209847178548" lon="16.03829563155001"><ele>948.0</ele><time>2026-04-27T07:17:43.999Z</time></trkpt><trkpt lat="39.542176256206794" lon="16.03838932516454"><ele>948.0</ele><time>2026-04-27T07:17:45.999Z</time></trkpt><trkpt lat="39.54227578648814" lon="16.03849287047402"><ele>945.6666666666666</ele><time>2026-04-27T07:17:47.999Z</time></trkpt><trkpt lat="39.54227289837275" lon="16.038627684999224"><ele>943.3333333333333</ele><time>2026-04-27T07:17:49.999Z</time></trkpt><trkpt lat="39.54226106000591" lon="16.038712578262544"><ele>941.0</ele><time>2026-04-27T07:17:51.999Z</time></trkpt><trkpt lat="39.542242036662316" lon="16.038799627478515"><ele>938.6666666666666</ele><time>2026-04-27T07:17:57.999Z</time></trkpt><trkpt lat="39.54224170823626" lon="16.03892220465046"><ele>936.3333333333333</ele><time>2026-04-27T07:17:59.999Z</time></trkpt><trkpt lat="39.542230305339906" lon="16.039056728934685"><ele>934.0</ele><time>2026-04-27T07:18:01.999Z</time></trkpt><trkpt lat="39.542305138308514" lon="16.039161495310076"><ele>933.9999999999999</ele><time>2026-04-27T07:18:03.999Z</time></trkpt><trkpt lat="39.542359924601975" lon="16.039208845947485"><ele>934.0</ele><time>2026-04-27T07:18:05.999Z</time></trkpt><trkpt lat="39.54241712024585" lon="16.039142595846766"><ele>934.0</ele><time>2026-04-27T07:18:09.999Z</time></trkpt><trkpt lat="39.542440774014146" lon="16.03901875155315"><ele>934.0</ele><time>2026-04-27T07:18:11.999Z</time></trkpt><trkpt lat="39.54247035147562" lon="16.03893832220318"><ele>933.9999999999999</ele><time>2026-04-27T07:18:12.999Z</time></trkpt><trkpt lat="39.54251443693605" lon="16.038861911603387"><ele>934.0</ele><time>2026-04-27T07:18:13.999Z</time></trkpt><trkpt lat="39.542561295124436" lon="16.03878453725689"><ele>933.9999999999999</ele><time>2026-04-27T07:18:14.999Z</time></trkpt><trkpt lat="39.542615542752756" lon="16.038729614570144"><ele>934.0</ele><time>2026-04-27T07:18:15.999Z</time></trkpt><trkpt lat="39.54267116517919" lon="16.0386831284547"><ele>934.0</ele><time>2026-04-27T07:18:16.999Z</time></trkpt><trkpt lat="39.542732095776564" lon="16.03864691415045"><ele>934.0</ele><time>2026-04-27T07:18:17.999Z</time></trkpt><trkpt lat="39.54283604610701" lon="16.038591788941204"><ele>933.9999999999999</ele><time>2026-04-27T07:18:19.999Z</time></trkpt><trkpt lat="39.54289968271751" lon="16.03855304402815"><ele>934.0</ele><time>2026-04-27T07:18:20.999Z</time></trkpt><trkpt lat="39.54297790380523" lon="16.038504783563788"><ele>931.5714285714284</ele><time>2026-04-27T07:18:22.999Z</time></trkpt><trkpt lat="39.54306798403142" lon="16.03846244952065"><ele>929.1428571428571</ele><time>2026-04-27T07:18:25.999Z</time></trkpt><trkpt lat="39.543128566246416" lon="16.03849450198996"><ele>926.7142857142857</ele><time>2026-04-27T07:18:26.999Z</time></trkpt><trkpt lat="39.54319712677576" lon="16.038527978319372"><ele>924.2857142857142</ele><time>2026-04-27T07:18:27.999Z</time></trkpt><trkpt lat="39.54326067350282" lon="16.038529765948564"><ele>921.8571428571429</ele><time>2026-04-27T07:18:29.999Z</time></trkpt><trkpt lat="39.543300622325965" lon="16.038601570657463"><ele>919.4285714285714</ele><time>2026-04-27T07:18:32.999Z</time></trkpt><trkpt lat="39.54334981005366" lon="16.038686802234388"><ele>917.0</ele><time>2026-04-27T07:18:34.999Z</time></trkpt><trkpt lat="39.5434330337597" lon="16.03875331859074"><ele>917.0000000000001</ele><time>2026-04-27T07:18:36.998Z</time></trkpt><trkpt lat="39.54351442688854" lon="16.038819897554593"><ele>917.0</ele><time>2026-04-27T07:18:38.998Z</time></trkpt><trkpt lat="39.54358507331392" lon="16.038834932864177"><ele>917.0</ele><time>2026-04-27T07:18:41Z</time></trkpt><trkpt lat="39.54370589649363" lon="16.03881490674552"><ele>917.0</ele><time>2026-04-27T07:18:43Z</time></trkpt><trkpt lat="39.54376860130532" lon="16.038801809347547"><ele>917.0000000000001</ele><time>2026-04-27T07:18:44Z</time></trkpt><trkpt lat="39.543856757524246" lon="16.038777790139843"><ele>917.0</ele><time>2026-04-27T07:18:46Z</time></trkpt><trkpt lat="39.54394636427171" lon="16.03872347573494"><ele>912.3333333333334</ele><time>2026-04-27T07:18:48Z</time></trkpt><trkpt lat="39.54402652662423" lon="16.038688049322687"><ele>907.6666666666667</ele><time>2026-04-27T07:18:50Z</time></trkpt><trkpt lat="39.544114504759165" lon="16.038674917335683"><ele>903.0</ele><time>2026-04-27T07:18:52Z</time></trkpt><trkpt lat="39.54423738573817" lon="16.038680420565512"><ele>898.3333333333333</ele><time>2026-04-27T07:18:54Z</time></trkpt><trkpt lat="39.544303919708064" lon="16.038700114413228"><ele>893.6666666666666</ele><time>2026-04-27T07:18:55Z</time></trkpt><trkpt lat="39.544364360622566" lon="16.038737454164004"><ele>889.0</ele><time>2026-04-27T07:18:56Z</time></trkpt><trkpt lat="39.544403033233955" lon="16.03880363775549"><ele>888.9999999999999</ele><time>2026-04-27T07:18:58Z</time></trkpt><trkpt lat="39.54438066501609" lon="16.038913005546025"><ele>889.0</ele><time>2026-04-27T07:19:00Z</time></trkpt><trkpt lat="39.54437632886356" lon="16.039012402605053"><ele>889.0</ele><time>2026-04-27T07:19:01Z</time></trkpt><trkpt lat="39.54438854181967" lon="16.039109273928382"><ele>889.0</ele><time>2026-04-27T07:19:02Z</time></trkpt><trkpt lat="39.54441622706244" lon="16.039201727098614"><ele>888.9999999999999</ele><time>2026-04-27T07:19:03Z</time></trkpt><trkpt lat="39.544435603140926" lon="16.03929823654416"><ele>889.0</ele><time>2026-04-27T07:19:04Z</time></trkpt><trkpt lat="39.54444347678316" lon="16.039382951988262"><ele>888.4999999999999</ele><time>2026-04-27T07:19:05Z</time></trkpt><trkpt lat="39.54445416931521" lon="16.03947886842276"><ele>888.0</ele><time>2026-04-27T07:19:06Z</time></trkpt><trkpt lat="39.54445697938666" lon="16.03958509563881"><ele>887.5</ele><time>2026-04-27T07:19:07Z</time></trkpt><trkpt lat="39.54445229467909" lon="16.039695500326438"><ele>887.0</ele><time>2026-04-27T07:19:08Z</time></trkpt><trkpt lat="39.544454344724514" lon="16.03980352568456"><ele>886.4999999999999</ele><time>2026-04-27T07:19:09Z</time></trkpt><trkpt lat="39.54445466770858" lon="16.039913469500984"><ele>886.0</ele><time>2026-04-27T07:19:10Z</time></trkpt><trkpt lat="39.544457233352745" lon="16.04002466573831"><ele>888.5999999999999</ele><time>2026-04-27T07:19:11Z</time></trkpt><trkpt lat="39.54445745163293" lon="16.040149385522312"><ele>891.1999999999999</ele><time>2026-04-27T07:19:12Z</time></trkpt><trkpt lat="39.544461495099505" lon="16.040269046279125"><ele>893.8000000000001</ele><time>2026-04-27T07:19:13Z</time></trkpt><trkpt lat="39.54447730104736" lon="16.04040628027824"><ele>896.4000000000001</ele><time>2026-04-27T07:19:14Z</time></trkpt><trkpt lat="39.54449576685338" lon="16.04053469722587"><ele>899.0</ele><time>2026-04-27T07:19:15Z</time></trkpt><trkpt lat="39.54451588214011" lon="16.040649899477465"><ele>899.0000000000001</ele><time>2026-04-27T07:19:16Z</time></trkpt><trkpt lat="39.54452819877313" lon="16.040749504844865"><ele>899.0</ele><time>2026-04-27T07:19:17Z</time></trkpt><trkpt lat="39.54454880875208" lon="16.040854341831885"><ele>899.0</ele><time>2026-04-27T07:19:18Z</time></trkpt><trkpt lat="39.5445793372328" lon="16.04093700056011"><ele>899.0</ele><time>2026-04-27T07:19:19Z</time></trkpt><trkpt lat="39.544590530059494" lon="16.041024097787805"><ele>899.0000000000001</ele><time>2026-04-27T07:19:20Z</time></trkpt><trkpt lat="39.54458793482832" lon="16.04117896592714"><ele>899.0</ele><time>2026-04-27T07:19:22Z</time></trkpt><trkpt lat="39.54461300930911" lon="16.04128935398034"><ele>895.1666666666667</ele><time>2026-04-27T07:19:24Z</time></trkpt><trkpt lat="39.54462992011573" lon="16.04137590152649"><ele>891.3333333333334</ele><time>2026-04-27T07:19:26Z</time></trkpt><trkpt lat="39.54465736360815" lon="16.041489650045687"><ele>887.5</ele><time>2026-04-27T07:19:28Z</time></trkpt><trkpt lat="39.54470753931854" lon="16.04159794641872"><ele>883.6666666666667</ele><time>2026-04-27T07:19:30Z</time></trkpt><trkpt lat="39.54473510568867" lon="16.041688957221535"><ele>879.8333333333334</ele><time>2026-04-27T07:19:32Z</time></trkpt><trkpt lat="39.544733567410056" lon="16.041773484644516"><ele>876.0</ele><time>2026-04-27T07:19:34Z</time></trkpt><trkpt lat="39.5447325743424" lon="16.041885162618925"><ele>876.0</ele><time>2026-04-27T07:21:08Z</time></trkpt><trkpt lat="39.54466894516719" lon="16.041996771381076"><ele>876.0</ele><time>2026-04-27T07:21:41Z</time></trkpt><trkpt lat="39.54462955267163" lon="16.042107171248908"><ele>876.0</ele><time>2026-04-27T07:21:41.999Z</time></trkpt><trkpt lat="39.544616372505516" lon="16.04219200513075"><ele>876.0</ele><time>2026-04-27T07:21:42.999Z</time></trkpt><trkpt lat="39.544600169255766" lon="16.042274353973966"><ele>876.0</ele><time>2026-04-27T07:21:43.999Z</time></trkpt><trkpt lat="39.544578444330845" lon="16.042387425567323"><ele>876.0</ele><time>2026-04-27T07:21:45.999Z</time></trkpt><trkpt lat="39.54452310247282" lon="16.042433245409793"><ele>882.1999999999999</ele><time>2026-04-27T07:21:47.999Z</time></trkpt><trkpt lat="39.54445038164663" lon="16.042359076580208"><ele>888.3999999999999</ele><time>2026-04-27T07:21:50.999Z</time></trkpt><trkpt lat="39.54443468486709" lon="16.04227411683152"><ele>894.6</ele><time>2026-04-27T07:21:51.999Z</time></trkpt><trkpt lat="39.54442430799282" lon="16.04215026391629"><ele>900.8</ele><time>2026-04-27T07:21:52.999Z</time></trkpt><trkpt lat="39.544392678542565" lon="16.0420236720189"><ele>907.0</ele><time>2026-04-27T07:21:53.999Z</time></trkpt><trkpt lat="39.54434343367196" lon="16.04190256319549"><ele>907.0</ele><time>2026-04-27T07:21:54.999Z</time></trkpt><trkpt lat="39.544298515789706" lon="16.041810209521994"><ele>907.0</ele><time>2026-04-27T07:21:55.999Z</time></trkpt><trkpt lat="39.54423216870686" lon="16.04173523483216"><ele>907.0</ele><time>2026-04-27T07:21:57.999Z</time></trkpt><trkpt lat="39.54414751336924" lon="16.041778440088514"><ele>907.0</ele><time>2026-04-27T07:21:59.999Z</time></trkpt><trkpt lat="39.544106734029356" lon="16.041962740015872"><ele>907.0</ele><time>2026-04-27T07:22:01.999Z</time></trkpt><trkpt lat="39.544093370465845" lon="16.04211397988212"><ele>907.0</ele><time>2026-04-27T07:22:02.999Z</time></trkpt><trkpt lat="39.54406885479872" lon="16.042277857211104"><ele>907.0</ele><time>2026-04-27T07:22:03.999Z</time></trkpt><trkpt lat="39.544059500517825" lon="16.042426739790315"><ele>907.0</ele><time>2026-04-27T07:22:04.999Z</time></trkpt><trkpt lat="39.54403256520518" lon="16.04252423679301"><ele>907.0</ele><time>2026-04-27T07:22:05.999Z</time></trkpt><trkpt lat="39.54398301990579" lon="16.042659545499447"><ele>907.0</ele><time>2026-04-27T07:22:07.999Z</time></trkpt><trkpt lat="39.54394357034177" lon="16.0428076846851"><ele>905.25</ele><time>2026-04-27T07:22:08.999Z</time></trkpt><trkpt lat="39.543902877456695" lon="16.042956233020796"><ele>903.5</ele><time>2026-04-27T07:22:09.999Z</time></trkpt><trkpt lat="39.543856448117516" lon="16.043091766102364"><ele>901.75</ele><time>2026-04-27T07:22:10.999Z</time></trkpt><trkpt lat="39.5438084673576" lon="16.043234035796665"><ele>900.0</ele><time>2026-04-27T07:22:11.999Z</time></trkpt><trkpt lat="39.543761235888574" lon="16.043346297852693"><ele>899.0</ele><time>2026-04-27T07:22:12.999Z</time></trkpt><trkpt lat="39.54371625826843" lon="16.04345899044187"><ele>898.0</ele><time>2026-04-27T07:22:13.999Z</time></trkpt><trkpt lat="39.54368025283428" lon="16.043559323528275"><ele>897.0</ele><time>2026-04-27T07:22:14.999Z</time></trkpt><trkpt lat="39.54364170326965" lon="16.04364075027398"><ele>896.0</ele><time>2026-04-27T07:22:15.999Z</time></trkpt><trkpt lat="39.54358620327586" lon="16.043728862210514"><ele>895.0</ele><time>2026-04-27T07:22:16.999Z</time></trkpt><trkpt lat="39.54349423606921" lon="16.043825879100417"><ele>895.0</ele><time>2026-04-27T07:22:17.999Z</time></trkpt><trkpt lat="39.543390356501774" lon="16.043917875861588"><ele>895.0</ele><time>2026-04-27T07:22:18.999Z</time></trkpt><trkpt lat="39.54329689159119" lon="16.04400136602226"><ele>895.0</ele><time>2026-04-27T07:22:19.999Z</time></trkpt><trkpt lat="39.543231281442864" lon="16.04407670030777"><ele>895.0</ele><time>2026-04-27T07:22:20.999Z</time></trkpt><trkpt lat="39.54316776420978" lon="16.044187995810137"><ele>895.0</ele><time>2026-04-27T07:22:22.999Z</time></trkpt><trkpt lat="39.54320900853295" lon="16.044293443653515"><ele>891.0</ele><time>2026-04-27T07:22:24.999Z</time></trkpt><trkpt lat="39.54331582375658" lon="16.044313198969952"><ele>887.0</ele><time>2026-04-27T07:22:26.999Z</time></trkpt><trkpt lat="39.54339019487453" lon="16.044266634757964"><ele>883.0</ele><time>2026-04-27T07:22:27.999Z</time></trkpt><trkpt lat="39.54350212704857" lon="16.0441920613136"><ele>879.0</ele><time>2026-04-27T07:22:28.999Z</time></trkpt><trkpt lat="39.54362136110182" lon="16.04414788409022"><ele>875.0</ele><time>2026-04-27T07:22:29.999Z</time></trkpt><trkpt lat="39.54372917621546" lon="16.04413567722946"><ele>878.4</ele><time>2026-04-27T07:22:30.999Z</time></trkpt><trkpt lat="39.543823151653584" lon="16.044113505970323"><ele>881.8</ele><time>2026-04-27T07:22:31.999Z</time></trkpt><trkpt lat="39.54389001134124" lon="16.044083444762904"><ele>885.2</ele><time>2026-04-27T07:22:32.999Z</time></trkpt><trkpt lat="39.54394955313046" lon="16.043965595771095"><ele>888.6</ele><time>2026-04-27T07:22:34.999Z</time></trkpt><trkpt lat="39.54400862220153" lon="16.043924619275437"><ele>892.0</ele><time>2026-04-27T07:22:36.999Z</time></trkpt><trkpt lat="39.54410346022926" lon="16.044069437553325"><ele>888.6</ele><time>2026-04-27T07:22:38.999Z</time></trkpt><trkpt lat="39.54412983169473" lon="16.04419647820654"><ele>885.2</ele><time>2026-04-27T07:22:39.999Z</time></trkpt><trkpt lat="39.54414699348938" lon="16.044362791871087"><ele>881.8</ele><time>2026-04-27T07:22:40.999Z</time></trkpt><trkpt lat="39.5441756149951" lon="16.044492677770602"><ele>878.4</ele><time>2026-04-27T07:22:41.999Z</time></trkpt><trkpt lat="39.54419177978343" lon="16.04459390932911"><ele>875.0</ele><time>2026-04-27T07:22:42.999Z</time></trkpt><trkpt lat="39.544211927409606" lon="16.04467550831229"><ele>875.0000000000001</ele><time>2026-04-27T07:22:43.999Z</time></trkpt><trkpt lat="39.544177201508035" lon="16.044776499857814"><ele>875.0</ele><time>2026-04-27T07:22:46.998Z</time></trkpt><trkpt lat="39.54409341948077" lon="16.04471827125903"><ele>875.0</ele><time>2026-04-27T07:22:48.998Z</time></trkpt><trkpt lat="39.54400814794115" lon="16.04465912546811"><ele>875.0</ele><time>2026-04-27T07:22:49.998Z</time></trkpt><trkpt lat="39.54393142368528" lon="16.044637622151605"><ele>875.0000000000001</ele><time>2026-04-27T07:22:50.998Z</time></trkpt><trkpt lat="39.543845156947775" lon="16.044645422110083"><ele>875.0</ele><time>2026-04-27T07:22:52Z</time></trkpt><trkpt lat="39.54377741124883" lon="16.04467250048405"><ele>875.0</ele><time>2026-04-27T07:22:53Z</time></trkpt><trkpt lat="39.543722126165875" lon="16.04476236726723"><ele>875.0</ele><time>2026-04-27T07:22:55Z</time></trkpt><trkpt lat="39.54377621026006" lon="16.044876361428564"><ele>875.0</ele><time>2026-04-27T07:22:57Z</time></trkpt><trkpt lat="39.54383975512399" lon="16.0449641095299"><ele>875.0</ele><time>2026-04-27T07:22:58Z</time></trkpt><trkpt lat="39.543904271882454" lon="16.04508802707738"><ele>875.0</ele><time>2026-04-27T07:22:59Z</time></trkpt><trkpt lat="39.54393977091777" lon="16.04516404912131"><ele>871.3333333333334</ele><time>2026-04-27T07:23:00Z</time></trkpt><trkpt lat="39.54398845046217" lon="16.045244232527104"><ele>867.6666666666667</ele><time>2026-04-27T07:23:02Z</time></trkpt><trkpt lat="39.543942012838706" lon="16.045315931707222"><ele>864.0</ele><time>2026-04-27T07:23:04Z</time></trkpt><trkpt lat="39.54384753407054" lon="16.04531143981495"><ele>860.3333333333333</ele><time>2026-04-27T07:23:06Z</time></trkpt><trkpt lat="39.54376064192694" lon="16.04530150422137"><ele>856.6666666666666</ele><time>2026-04-27T07:23:08Z</time></trkpt><trkpt lat="39.543646945207584" lon="16.045310659368596"><ele>853.0</ele><time>2026-04-27T07:23:10Z</time></trkpt><trkpt lat="39.543568404917636" lon="16.045287043153905"><ele>851.5999999999999</ele><time>2026-04-27T07:23:11Z</time></trkpt><trkpt lat="39.543486120306625" lon="16.045277792785186"><ele>850.1999999999999</ele><time>2026-04-27T07:23:12Z</time></trkpt><trkpt lat="39.54338900964665" lon="16.045286465125542"><ele>848.8</ele><time>2026-04-27T07:23:13Z</time></trkpt><trkpt lat="39.54328120120163" lon="16.045302077413577"><ele>847.4</ele><time>2026-04-27T07:23:14Z</time></trkpt><trkpt lat="39.54320885138433" lon="16.045317394730187"><ele>846.0</ele><time>2026-04-27T07:23:15Z</time></trkpt><trkpt lat="39.54312450755032" lon="16.045375878307834"><ele>846.0</ele><time>2026-04-27T07:23:17Z</time></trkpt><trkpt lat="39.543132295081804" lon="16.045507888466553"><ele>846.0</ele><time>2026-04-27T07:23:19Z</time></trkpt><trkpt lat="39.54318528559982" lon="16.045569108778"><ele>846.0</ele><time>2026-04-27T07:23:20Z</time></trkpt><trkpt lat="39.54325967016674" lon="16.045616681131428"><ele>846.0</ele><time>2026-04-27T07:23:21Z</time></trkpt><trkpt lat="39.543379905599096" lon="16.045666469873474"><ele>846.0</ele><time>2026-04-27T07:23:22Z</time></trkpt><trkpt lat="39.54351651837718" lon="16.045742176099317"><ele>841.0</ele><time>2026-04-27T07:23:23Z</time></trkpt><trkpt lat="39.5436187427618" lon="16.045817109486233"><ele>836.0</ele><time>2026-04-27T07:23:24Z</time></trkpt><trkpt lat="39.54368710381622" lon="16.04587360454858"><ele>831.0</ele><time>2026-04-27T07:23:26Z</time></trkpt><trkpt lat="39.543647066210376" lon="16.045993597897436"><ele>826.0</ele><time>2026-04-27T07:23:29Z</time></trkpt><trkpt lat="39.54352220432953" lon="16.046021266083038"><ele>821.0</ele><time>2026-04-27T07:23:31Z</time></trkpt><trkpt lat="39.543439931802375" lon="16.04601433312738"><ele>821.0</ele><time>2026-04-27T07:23:32Z</time></trkpt><trkpt lat="39.54334567540128" lon="16.04597963945265"><ele>821.0</ele><time>2026-04-27T07:23:33Z</time></trkpt><trkpt lat="39.543249465957246" lon="16.04592088522771"><ele>821.0</ele><time>2026-04-27T07:23:34Z</time></trkpt><trkpt lat="39.54315989253238" lon="16.045877372322728"><ele>821.0</ele><time>2026-04-27T07:23:35Z</time></trkpt><trkpt lat="39.543073252716574" lon="16.045853169037283"><ele>821.0</ele><time>2026-04-27T07:23:36Z</time></trkpt><trkpt lat="39.54296880943606" lon="16.045831969703656"><ele>818.4</ele><time>2026-04-27T07:23:37Z</time></trkpt><trkpt lat="39.54287212109485" lon="16.045804405799718"><ele>815.8</ele><time>2026-04-27T07:23:38Z</time></trkpt><trkpt lat="39.54276523998842" lon="16.045756850344578"><ele>813.1999999999999</ele><time>2026-04-27T07:23:39Z</time></trkpt><trkpt lat="39.54265404964764" lon="16.045706451031762"><ele>810.5999999999999</ele><time>2026-04-27T07:23:40Z</time></trkpt><trkpt lat="39.54255865827803" lon="16.045671040609466"><ele>808.0</ele><time>2026-04-27T07:23:41Z</time></trkpt><trkpt lat="39.54248382960585" lon="16.045640352721797"><ele>808.4</ele><time>2026-04-27T07:23:42Z</time></trkpt><trkpt lat="39.54240515989253" lon="16.045639531639566"><ele>808.8</ele><time>2026-04-27T07:23:43Z</time></trkpt><trkpt lat="39.5423109945765" lon="16.045664890251082"><ele>809.2</ele><time>2026-04-27T07:23:43.999Z</time></trkpt><trkpt lat="39.54218881353684" lon="16.04570203978015"><ele>809.6</ele><time>2026-04-27T07:23:44.999Z</time></trkpt><trkpt lat="39.54208108964805" lon="16.04575008248884"><ele>810.0</ele><time>2026-04-27T07:23:45.999Z</time></trkpt><trkpt lat="39.5419728715448" lon="16.045797478480743"><ele>810.0</ele><time>2026-04-27T07:23:46.999Z</time></trkpt><trkpt lat="39.54185335971322" lon="16.0458144153751"><ele>810.0</ele><time>2026-04-27T07:23:47.999Z</time></trkpt><trkpt lat="39.54174165571148" lon="16.045845603252562"><ele>810.0</ele><time>2026-04-27T07:23:48.999Z</time></trkpt><trkpt lat="39.54164705282236" lon="16.04586576391922"><ele>810.0</ele><time>2026-04-27T07:23:49.999Z</time></trkpt><trkpt lat="39.54155439244623" lon="16.045908126226117"><ele>810.0</ele><time>2026-04-27T07:23:50.999Z</time></trkpt><trkpt lat="39.54144549493161" lon="16.04598461659557"><ele>810.0</ele><time>2026-04-27T07:23:51.999Z</time></trkpt><trkpt lat="39.54133803052184" lon="16.04606408204757"><ele>810.0</ele><time>2026-04-27T07:23:52.999Z</time></trkpt><trkpt lat="39.541247067050485" lon="16.04614651575847"><ele>810.0</ele><time>2026-04-27T07:23:53.999Z</time></trkpt><trkpt lat="39.54115623360959" lon="16.046207128122344"><ele>810.0</ele><time>2026-04-27T07:23:54.999Z</time></trkpt><trkpt lat="39.541065702331295" lon="16.046258174646905"><ele>810.0</ele><time>2026-04-27T07:23:55.999Z</time></trkpt><trkpt lat="39.54098463550839" lon="16.046311371690088"><ele>813.75</ele><time>2026-04-27T07:23:56.999Z</time></trkpt><trkpt lat="39.54088493158798" lon="16.046341942552377"><ele>817.5</ele><time>2026-04-27T07:23:57.999Z</time></trkpt><trkpt lat="39.54075424714523" lon="16.046361211953307"><ele>821.25</ele><time>2026-04-27T07:23:58.999Z</time></trkpt><trkpt lat="39.540623672637764" lon="16.046385850046967"><ele>825.0</ele><time>2026-04-27T07:23:59.999Z</time></trkpt><trkpt lat="39.54050401417055" lon="16.046402868416184"><ele>825.25</ele><time>2026-04-27T07:24:00.999Z</time></trkpt><trkpt lat="39.540355270044834" lon="16.046429147465943"><ele>825.5</ele><time>2026-04-27T07:24:01.999Z</time></trkpt><trkpt lat="39.54022243453564" lon="16.046449878564907"><ele>825.75</ele><time>2026-04-27T07:24:02.999Z</time></trkpt><trkpt lat="39.540098621840066" lon="16.046482436503126"><ele>826.0</ele><time>2026-04-27T07:24:03.999Z</time></trkpt><trkpt lat="39.53997135200952" lon="16.046522206815077"><ele>826.0</ele><time>2026-04-27T07:24:04.999Z</time></trkpt><trkpt lat="39.53986148663478" lon="16.04655016989249"><ele>826.0</ele><time>2026-04-27T07:24:05.999Z</time></trkpt><trkpt lat="39.53978477326351" lon="16.046565563457797"><ele>826.0</ele><time>2026-04-27T07:24:06.999Z</time></trkpt><trkpt lat="39.53967801486306" lon="16.046628170932973"><ele>826.0</ele><time>2026-04-27T07:24:08.999Z</time></trkpt><trkpt lat="39.53961300492569" lon="16.046699646629"><ele>826.0</ele><time>2026-04-27T07:24:10.999Z</time></trkpt><trkpt lat="39.53949327165359" lon="16.046617416178808"><ele>823.1999999999999</ele><time>2026-04-27T07:24:12.999Z</time></trkpt><trkpt lat="39.53941897549758" lon="16.046537899676"><ele>820.4</ele><time>2026-04-27T07:24:13.999Z</time></trkpt><trkpt lat="39.53934904202118" lon="16.046434826913355"><ele>817.6</ele><time>2026-04-27T07:24:14.999Z</time></trkpt><trkpt lat="39.53929999939799" lon="16.04632529995224"><ele>814.8</ele><time>2026-04-27T07:24:15.999Z</time></trkpt><trkpt lat="39.539267473837384" lon="16.046203222227085"><ele>812.0</ele><time>2026-04-27T07:24:16.999Z</time></trkpt><trkpt lat="39.539240008859906" lon="16.04604798878605"><ele>812.0</ele><time>2026-04-27T07:24:17.999Z</time></trkpt><trkpt lat="39.539210343593844" lon="16.045863673424925"><ele>812.0</ele><time>2026-04-27T07:24:18.999Z</time></trkpt><trkpt lat="39.539175680958465" lon="16.045719807562598"><ele>812.0</ele><time>2026-04-27T07:24:19.999Z</time></trkpt><trkpt lat="39.53914725420392" lon="16.045633527432873"><ele>812.0</ele><time>2026-04-27T07:24:20.999Z</time></trkpt><trkpt lat="39.539050028805654" lon="16.045603999761596"><ele>812.0</ele><time>2026-04-27T07:24:22.999Z</time></trkpt><trkpt lat="39.5389630918717" lon="16.045617614644417"><ele>813.6</ele><time>2026-04-27T07:24:23.999Z</time></trkpt><trkpt lat="39.53887550388604" lon="16.045635148841104"><ele>815.2</ele><time>2026-04-27T07:24:24.999Z</time></trkpt><trkpt lat="39.53879170290733" lon="16.04562368878805"><ele>816.8</ele><time>2026-04-27T07:24:25.999Z</time></trkpt><trkpt lat="39.538678622741664" lon="16.045604090751514"><ele>818.4</ele><time>2026-04-27T07:24:26.999Z</time></trkpt><trkpt lat="39.53855681704406" lon="16.045565103156306"><ele>820.0</ele><time>2026-04-27T07:24:27.999Z</time></trkpt><trkpt lat="39.53847347498458" lon="16.04554020769958"><ele>820.0</ele><time>2026-04-27T07:24:28.999Z</time></trkpt><trkpt lat="39.53838427872084" lon="16.04555703636596"><ele>820.0</ele><time>2026-04-27T07:24:31.999Z</time></trkpt><trkpt lat="39.538394274020405" lon="16.045674291737452"><ele>820.0</ele><time>2026-04-27T07:24:33.999Z</time></trkpt><trkpt lat="39.538461913392034" lon="16.045753406222328"><ele>820.0</ele><time>2026-04-27T07:24:34.999Z</time></trkpt><trkpt lat="39.53857209035532" lon="16.045829969742833"><ele>820.0</ele><time>2026-04-27T07:24:35.999Z</time></trkpt><trkpt lat="39.538694421398546" lon="16.045891637087355"><ele>818.6666666666666</ele><time>2026-04-27T07:24:36.999Z</time></trkpt><trkpt lat="39.538795308312885" lon="16.04595786895224"><ele>817.3333333333333</ele><time>2026-04-27T07:24:37.999Z</time></trkpt><trkpt lat="39.53887602155717" lon="16.04602184712674"><ele>816.0</ele><time>2026-04-27T07:24:38.999Z</time></trkpt><trkpt lat="39.53892963453118" lon="16.046073558497643"><ele>814.6666666666667</ele><time>2026-04-27T07:24:39.999Z</time></trkpt><trkpt lat="39.538971046525184" lon="16.04614281172169"><ele>813.3333333333334</ele><time>2026-04-27T07:24:40.999Z</time></trkpt><trkpt lat="39.53897990028133" lon="16.046246790007313"><ele>812.0</ele><time>2026-04-27T07:24:41.999Z</time></trkpt><trkpt lat="39.538988920186746" lon="16.046393665184176"><ele>812.0</ele><time>2026-04-27T07:24:42.999Z</time></trkpt><trkpt lat="39.53899637959337" lon="16.046588789939925"><ele>812.0</ele><time>2026-04-27T07:24:43.999Z</time></trkpt><trkpt lat="39.53900854016406" lon="16.04676430851319"><ele>812.0</ele><time>2026-04-27T07:24:44.999Z</time></trkpt><trkpt lat="39.538989288008" lon="16.046916400010723"><ele>812.0</ele><time>2026-04-27T07:24:45.999Z</time></trkpt><trkpt lat="39.53893929083818" lon="16.047070313328803"><ele>808.25</ele><time>2026-04-27T07:24:46.999Z</time></trkpt><trkpt lat="39.53885972516851" lon="16.047223479220673"><ele>804.5</ele><time>2026-04-27T07:24:47.999Z</time></trkpt><trkpt lat="39.53878115002294" lon="16.047370648186252"><ele>800.75</ele><time>2026-04-27T07:24:48.999Z</time></trkpt><trkpt lat="39.53872665595606" lon="16.04753099675665"><ele>797.0</ele><time>2026-04-27T07:24:49.998Z</time></trkpt><trkpt lat="39.538699642059626" lon="16.0477284022849"><ele>789.75</ele><time>2026-04-27T07:24:50.998Z</time></trkpt><trkpt lat="39.538689725284385" lon="16.047930060197515"><ele>782.5</ele><time>2026-04-27T07:24:51.998Z</time></trkpt><trkpt lat="39.53869359673825" lon="16.04811335168003"><ele>775.25</ele><time>2026-04-27T07:24:52.998Z</time></trkpt><trkpt lat="39.5386864181633" lon="16.048286934153197"><ele>768.0</ele><time>2026-04-27T07:24:53.998Z</time></trkpt><trkpt lat="39.53865771474831" lon="16.048457714484286"><ele>767.0</ele><time>2026-04-27T07:24:54.998Z</time></trkpt><trkpt lat="39.538622477645376" lon="16.04862826210896"><ele>766.0</ele><time>2026-04-27T07:24:55.998Z</time></trkpt><trkpt lat="39.53857236528412" lon="16.048823907057184"><ele>765.0</ele><time>2026-04-27T07:24:56.998Z</time></trkpt><trkpt lat="39.53850819507794" lon="16.04901507836767"><ele>766.6666666666667</ele><time>2026-04-27T07:24:58Z</time></trkpt><trkpt lat="39.538448775174295" lon="16.049194357311272"><ele>768.3333333333334</ele><time>2026-04-27T07:24:59Z</time></trkpt><trkpt lat="39.538400803064064" lon="16.04939128593511"><ele>770.0</ele><time>2026-04-27T07:25:00Z</time></trkpt><trkpt lat="39.53837241140657" lon="16.049589241860886"><ele>770.0</ele><time>2026-04-27T07:25:01Z</time></trkpt><trkpt lat="39.53835472454488" lon="16.049800600860028"><ele>770.0</ele><time>2026-04-27T07:25:02Z</time></trkpt><trkpt lat="39.538338003771116" lon="16.050027509063117"><ele>770.0</ele><time>2026-04-27T07:25:03Z</time></trkpt><trkpt lat="39.53832008260405" lon="16.050238078436347"><ele>769.75</ele><time>2026-04-27T07:25:04Z</time></trkpt><trkpt lat="39.53829360873866" lon="16.050408747128426"><ele>769.5</ele><time>2026-04-27T07:25:05Z</time></trkpt><trkpt lat="39.53824187480432" lon="16.050571014544083"><ele>769.25</ele><time>2026-04-27T07:25:06Z</time></trkpt><trkpt lat="39.538157960518724" lon="16.05071555836181"><ele>769.0</ele><time>2026-04-27T07:25:07Z</time></trkpt><trkpt lat="39.5380505454092" lon="16.050848672778788"><ele>768.5</ele><time>2026-04-27T07:25:08Z</time></trkpt><trkpt lat="39.537936622450566" lon="16.0509663372804"><ele>768.0</ele><time>2026-04-27T07:25:09Z</time></trkpt><trkpt lat="39.537820561687674" lon="16.051065805343477"><ele>767.5</ele><time>2026-04-27T07:25:10Z</time></trkpt><trkpt lat="39.537705739301096" lon="16.051153544055893"><ele>767.0</ele><time>2026-04-27T07:25:11Z</time></trkpt><trkpt lat="39.537609643149864" lon="16.051245827485015"><ele>767.0</ele><time>2026-04-27T07:25:12Z</time></trkpt><trkpt lat="39.5375324352382" lon="16.05137557805262"><ele>767.0</ele><time>2026-04-27T07:25:13Z</time></trkpt><trkpt lat="39.53746584813927" lon="16.051576590792074"><ele>767.0</ele><time>2026-04-27T07:25:14Z</time></trkpt><trkpt lat="39.53739698131835" lon="16.051794481321853"><ele>764.2</ele><time>2026-04-27T07:25:15Z</time></trkpt><trkpt lat="39.53733710227055" lon="16.051951615111918"><ele>761.4000000000001</ele><time>2026-04-27T07:25:16Z</time></trkpt><trkpt lat="39.53727105156732" lon="16.05208010818748"><ele>758.5999999999999</ele><time>2026-04-27T07:25:17Z</time></trkpt><trkpt lat="39.53719068469865" lon="16.052175182979383"><ele>755.8</ele><time>2026-04-27T07:25:18Z</time></trkpt><trkpt lat="39.5371157946577" lon="16.052199329245642"><ele>753.0</ele><time>2026-04-27T07:25:19Z</time></trkpt><trkpt lat="39.53704354630693" lon="16.05216357643058"><ele>749.25</ele><time>2026-04-27T07:25:20Z</time></trkpt><trkpt lat="39.536972961497874" lon="16.052071542593794"><ele>745.5</ele><time>2026-04-27T07:25:21Z</time></trkpt><trkpt lat="39.53692842760454" lon="16.051927841248368"><ele>741.75</ele><time>2026-04-27T07:25:22Z</time></trkpt><trkpt lat="39.536938695077346" lon="16.051748998978642"><ele>738.0</ele><time>2026-04-27T07:25:23Z</time></trkpt><trkpt lat="39.536968948975385" lon="16.051584684427592"><ele>737.2</ele><time>2026-04-27T07:25:24Z</time></trkpt><trkpt lat="39.5369745846831" lon="16.051456721235233"><ele>736.4</ele><time>2026-04-27T07:25:25Z</time></trkpt><trkpt lat="39.53693667911898" lon="16.051363432557174"><ele>735.6</ele><time>2026-04-27T07:25:26Z</time></trkpt><trkpt lat="39.53686405091782" lon="16.051309351745054"><ele>734.8000000000001</ele><time>2026-04-27T07:25:27Z</time></trkpt><trkpt lat="39.536764816988224" lon="16.051319582605096"><ele>734.0</ele><time>2026-04-27T07:25:28Z</time></trkpt><trkpt lat="39.53666255282893" lon="16.05141004500916"><ele>734.0</ele><time>2026-04-27T07:25:29Z</time></trkpt><trkpt lat="39.536550443101035" lon="16.051557048101643"><ele>734.0</ele><time>2026-04-27T07:25:30Z</time></trkpt><trkpt lat="39.53643104233768" lon="16.051685029293232"><ele>734.0</ele><time>2026-04-27T07:25:31Z</time></trkpt><trkpt lat="39.53631808943884" lon="16.051783932837118"><ele>728.0</ele><time>2026-04-27T07:25:32Z</time></trkpt><trkpt lat="39.53621407639392" lon="16.051888792274145"><ele>722.0</ele><time>2026-04-27T07:25:33Z</time></trkpt><trkpt lat="39.53612606703518" lon="16.052023347968813"><ele>716.0</ele><time>2026-04-27T07:25:34Z</time></trkpt><trkpt lat="39.53607132536973" lon="16.052167934854246"><ele>710.0</ele><time>2026-04-27T07:25:35Z</time></trkpt><trkpt lat="39.53605604178629" lon="16.052302825083352"><ele>710.0</ele><time>2026-04-27T07:25:36Z</time></trkpt><trkpt lat="39.536073324041844" lon="16.052414189049554"><ele>710.0</ele><time>2026-04-27T07:25:37Z</time></trkpt><trkpt lat="39.53615345094398" lon="16.052513431586565"><ele>710.0</ele><time>2026-04-27T07:25:38Z</time></trkpt><trkpt lat="39.5362714603575" lon="16.05259458702669"><ele>710.0</ele><time>2026-04-27T07:25:39Z</time></trkpt><trkpt lat="39.536413182102436" lon="16.05267696908797"><ele>718.6666666666666</ele><time>2026-04-27T07:25:40Z</time></trkpt><trkpt lat="39.536558236548686" lon="16.052766969788937"><ele>727.3333333333334</ele><time>2026-04-27T07:25:41Z</time></trkpt><trkpt lat="39.53669879222816" lon="16.05286640612198"><ele>736.0</ele><time>2026-04-27T07:25:42Z</time></trkpt><trkpt lat="39.5368319308834" lon="16.052963362324437"><ele>736.0</ele><time>2026-04-27T07:25:43Z</time></trkpt><trkpt lat="39.5369649652798" lon="16.053055225294553"><ele>736.0</ele><time>2026-04-27T07:25:44Z</time></trkpt><trkpt lat="39.5370857067068" lon="16.05313645890764"><ele>736.0</ele><time>2026-04-27T07:25:45Z</time></trkpt><trkpt lat="39.537172880839115" lon="16.053195837524516"><ele>736.0</ele><time>2026-04-27T07:25:46Z</time></trkpt><trkpt lat="39.537231132872506" lon="16.053251338688295"><ele>733.1999999999999</ele><time>2026-04-27T07:25:47Z</time></trkpt><trkpt lat="39.537256981077086" lon="16.053390136450954"><ele>730.4</ele><time>2026-04-27T07:25:49Z</time></trkpt><trkpt lat="39.53720389815891" lon="16.05344274588619"><ele>727.6</ele><time>2026-04-27T07:25:49.999Z</time></trkpt><trkpt lat="39.53709368095746" lon="16.05346323171356"><ele>724.8</ele><time>2026-04-27T07:25:50.999Z</time></trkpt><trkpt lat="39.53696116400542" lon="16.053456611070423"><ele>722.0</ele><time>2026-04-27T07:25:51.999Z</time></trkpt><trkpt lat="39.536826510067876" lon="16.05345264600721"><ele>720.6</ele><time>2026-04-27T07:25:52.999Z</time></trkpt><trkpt lat="39.5367102786958" lon="16.053457558684585"><ele>719.2</ele><time>2026-04-27T07:25:53.999Z</time></trkpt><trkpt lat="39.53659664101039" lon="16.053458693034308"><ele>717.8</ele><time>2026-04-27T07:25:54.999Z</time></trkpt><trkpt lat="39.53648927401313" lon="16.053467094115906"><ele>716.4</ele><time>2026-04-27T07:25:55.999Z</time></trkpt><trkpt lat="39.53638063094027" lon="16.053458655171024"><ele>715.0</ele><time>2026-04-27T07:25:56.999Z</time></trkpt><trkpt lat="39.53628621714435" lon="16.05344988518938"><ele>715.0</ele><time>2026-04-27T07:25:57.999Z</time></trkpt><trkpt lat="39.536216719110314" lon="16.05345941557152"><ele>715.0</ele><time>2026-04-27T07:25:58.999Z</time></trkpt><trkpt lat="39.53615694399721" lon="16.05357748408785"><ele>715.0</ele><time>2026-04-27T07:26:00.999Z</time></trkpt><trkpt lat="39.53618969244303" lon="16.05366984963869"><ele>715.0</ele><time>2026-04-27T07:26:01.999Z</time></trkpt><trkpt lat="39.536288030501716" lon="16.053748140916266"><ele>715.0</ele><time>2026-04-27T07:26:02.999Z</time></trkpt><trkpt lat="39.53642765901533" lon="16.05382021156363"><ele>715.0</ele><time>2026-04-27T07:26:03.999Z</time></trkpt><trkpt lat="39.536574326289276" lon="16.053891014827478"><ele>715.0</ele><time>2026-04-27T07:26:04.999Z</time></trkpt><trkpt lat="39.53670685508937" lon="16.053961971258797"><ele>715.0</ele><time>2026-04-27T07:26:05.999Z</time></trkpt><trkpt lat="39.53681955693802" lon="16.054036003293376"><ele>715.0</ele><time>2026-04-27T07:26:06.999Z</time></trkpt><trkpt lat="39.536905227440116" lon="16.05409524605599"><ele>711.2</ele><time>2026-04-27T07:26:07.999Z</time></trkpt><trkpt lat="39.536963786245764" lon="16.054148104686647"><ele>707.4</ele><time>2026-04-27T07:26:08.999Z</time></trkpt><trkpt lat="39.53701753555494" lon="16.05427538910159"><ele>703.5999999999999</ele><time>2026-04-27T07:26:10.999Z</time></trkpt><trkpt lat="39.53699412443852" lon="16.05435843210436"><ele>699.8</ele><time>2026-04-27T07:26:11.999Z</time></trkpt><trkpt lat="39.53691349441918" lon="16.054436888978408"><ele>696.0</ele><time>2026-04-27T07:26:12.999Z</time></trkpt><trkpt lat="39.53678498056905" lon="16.054449236152006"><ele>696.0</ele><time>2026-04-27T07:26:13.999Z</time></trkpt><trkpt lat="39.53664320958605" lon="16.054469255370606"><ele>696.0</ele><time>2026-04-27T07:26:14.999Z</time></trkpt><trkpt lat="39.53649522608503" lon="16.054480985981524"><ele>696.0</ele><time>2026-04-27T07:26:15.999Z</time></trkpt><trkpt lat="39.53635677834841" lon="16.054495984177073"><ele>696.0</ele><time>2026-04-27T07:26:16.999Z</time></trkpt><trkpt lat="39.53622434291969" lon="16.054483635099086"><ele>692.75</ele><time>2026-04-27T07:26:17.999Z</time></trkpt><trkpt lat="39.53610563493527" lon="16.05445925331196"><ele>689.5</ele><time>2026-04-27T07:26:18.999Z</time></trkpt><trkpt lat="39.53599835701961" lon="16.05441150834324"><ele>686.25</ele><time>2026-04-27T07:26:19.999Z</time></trkpt><trkpt lat="39.53592257585081" lon="16.054284141921922"><ele>683.0</ele><time>2026-04-27T07:26:20.999Z</time></trkpt><trkpt lat="39.53583428907681" lon="16.054180593818618"><ele>683.0</ele><time>2026-04-27T07:26:21.999Z</time></trkpt><trkpt lat="39.535776375582" lon="16.054078807433317"><ele>683.0</ele><time>2026-04-27T07:26:22.999Z</time></trkpt><trkpt lat="39.53572448766086" lon="16.05400956723315"><ele>683.0</ele><time>2026-04-27T07:26:23.999Z</time></trkpt><trkpt lat="39.53565982300072" lon="16.053968263933786"><ele>683.0</ele><time>2026-04-27T07:26:25.999Z</time></trkpt><trkpt lat="39.53558662117439" lon="16.054105500774615"><ele>683.0</ele><time>2026-04-27T07:26:28.999Z</time></trkpt><trkpt lat="39.535594157646386" lon="16.05419290429754"><ele>683.0</ele><time>2026-04-27T07:26:29.999Z</time></trkpt><trkpt lat="39.53559983898532" lon="16.054328227485957"><ele>683.0</ele><time>2026-04-27T07:26:30.999Z</time></trkpt><trkpt lat="39.53559629310098" lon="16.05447053252523"><ele>683.0</ele><time>2026-04-27T07:26:31.999Z</time></trkpt><trkpt lat="39.53559572166486" lon="16.054621276371304"><ele>683.0</ele><time>2026-04-27T07:26:32.999Z</time></trkpt><trkpt lat="39.535616894963695" lon="16.054786747751745"><ele>683.0</ele><time>2026-04-27T07:26:33.999Z</time></trkpt><trkpt lat="39.535684977069295" lon="16.054936718907122"><ele>679.5</ele><time>2026-04-27T07:26:34.999Z</time></trkpt><trkpt lat="39.53576368298" lon="16.055063751782722"><ele>676.0</ele><time>2026-04-27T07:26:35.999Z</time></trkpt><trkpt lat="39.535866534034014" lon="16.055157466980916"><ele>672.5</ele><time>2026-04-27T07:26:36.999Z</time></trkpt><trkpt lat="39.53599341336917" lon="16.055231979764347"><ele>669.0</ele><time>2026-04-27T07:26:37.999Z</time></trkpt><trkpt lat="39.53615179320292" lon="16.055259546967086"><ele>672.25</ele><time>2026-04-27T07:26:38.999Z</time></trkpt><trkpt lat="39.536299823067345" lon="16.055294563370282"><ele>675.5</ele><time>2026-04-27T07:26:39.999Z</time></trkpt><trkpt lat="39.53642769049575" lon="16.05538151729689"><ele>678.75</ele><time>2026-04-27T07:26:40.999Z</time></trkpt><trkpt lat="39.536537819934054" lon="16.05547681021241"><ele>682.0</ele><time>2026-04-27T07:26:41.999Z</time></trkpt><trkpt lat="39.536628384536414" lon="16.05559333798936"><ele>682.0</ele><time>2026-04-27T07:26:42.999Z</time></trkpt><trkpt lat="39.53669067113739" lon="16.055748862717753"><ele>682.0</ele><time>2026-04-27T07:26:43.999Z</time></trkpt><trkpt lat="39.536697481992356" lon="16.05591773877882"><ele>682.0</ele><time>2026-04-27T07:26:44.999Z</time></trkpt><trkpt lat="39.536697569313745" lon="16.056107589958938"><ele>682.0</ele><time>2026-04-27T07:26:45.999Z</time></trkpt><trkpt lat="39.536708987897356" lon="16.056280386387304"><ele>677.0</ele><time>2026-04-27T07:26:46.999Z</time></trkpt><trkpt lat="39.53677401228691" lon="16.056447517333915"><ele>672.0</ele><time>2026-04-27T07:26:47.999Z</time></trkpt><trkpt lat="39.53689276160658" lon="16.056587231625464"><ele>667.0</ele><time>2026-04-27T07:26:48.999Z</time></trkpt><trkpt lat="39.53704142467844" lon="16.05672825329744"><ele>666.6666666666667</ele><time>2026-04-27T07:26:49.999Z</time></trkpt><trkpt lat="39.537212532136586" lon="16.056854301842325"><ele>666.3333333333334</ele><time>2026-04-27T07:26:50.999Z</time></trkpt><trkpt lat="39.53737329639388" lon="16.05696733199271"><ele>666.0</ele><time>2026-04-27T07:26:51.999Z</time></trkpt><trkpt lat="39.53752791460393" lon="16.057070247508456"><ele>666.0</ele><time>2026-04-27T07:26:52.999Z</time></trkpt><trkpt lat="39.53768625497905" lon="16.057140150561402"><ele>666.0</ele><time>2026-04-27T07:26:53.999Z</time></trkpt><trkpt lat="39.53782817260172" lon="16.05716107141509"><ele>666.0</ele><time>2026-04-27T07:26:54.998Z</time></trkpt><trkpt lat="39.53794685386501" lon="16.057151533246056"><ele>666.0</ele><time>2026-04-27T07:26:55.998Z</time></trkpt><trkpt lat="39.53805334123509" lon="16.057106020606966"><ele>665.5</ele><time>2026-04-27T07:26:56.998Z</time></trkpt><trkpt lat="39.53815238180513" lon="16.057004764888138"><ele>665.0</ele><time>2026-04-27T07:26:57.998Z</time></trkpt><trkpt lat="39.53824019159404" lon="16.056910949807698"><ele>664.5</ele><time>2026-04-27T07:26:58.998Z</time></trkpt><trkpt lat="39.53833983412376" lon="16.056875795177564"><ele>664.0</ele><time>2026-04-27T07:26:59.998Z</time></trkpt><trkpt lat="39.53845262784493" lon="16.056896205755315"><ele>664.0</ele><time>2026-04-27T07:27:00.998Z</time></trkpt><trkpt lat="39.53856543780771" lon="16.056989977093448"><ele>664.0</ele><time>2026-04-27T07:27:01.998Z</time></trkpt><trkpt lat="39.53870809457256" lon="16.05706810499096"><ele>664.0</ele><time>2026-04-27T07:27:02.998Z</time></trkpt><trkpt lat="39.53885551763122" lon="16.05718601391563"><ele>664.6666666666667</ele><time>2026-04-27T07:27:04Z</time></trkpt><trkpt lat="39.53900394625325" lon="16.05730343150868"><ele>665.3333333333334</ele><time>2026-04-27T07:27:05Z</time></trkpt><trkpt lat="39.53914221393247" lon="16.057418917777113"><ele>666.0</ele><time>2026-04-27T07:27:06Z</time></trkpt><trkpt lat="39.53926026085084" lon="16.057538653957423"><ele>661.75</ele><time>2026-04-27T07:27:07Z</time></trkpt><trkpt lat="39.539348316166226" lon="16.05768366180153"><ele>657.5</ele><time>2026-04-27T07:27:08Z</time></trkpt><trkpt lat="39.539450614300854" lon="16.057797371668823"><ele>653.25</ele><time>2026-04-27T07:27:09Z</time></trkpt><trkpt lat="39.53953381684" lon="16.057899087558777"><ele>649.0</ele><time>2026-04-27T07:27:10Z</time></trkpt><trkpt lat="39.53963983669644" lon="16.05794114230657"><ele>649.0</ele><time>2026-04-27T07:27:11Z</time></trkpt><trkpt lat="39.53976594687603" lon="16.057865936516897"><ele>649.0</ele><time>2026-04-27T07:27:12Z</time></trkpt><trkpt lat="39.53988182432724" lon="16.057770203290417"><ele>649.0</ele><time>2026-04-27T07:27:13Z</time></trkpt><trkpt lat="39.54000788896758" lon="16.057693612678"><ele>649.0</ele><time>2026-04-27T07:27:14Z</time></trkpt><trkpt lat="39.54013588931092" lon="16.05764628712991"><ele>649.0</ele><time>2026-04-27T07:27:15Z</time></trkpt><trkpt lat="39.54027807309268" lon="16.057633475114095"><ele>649.0</ele><time>2026-04-27T07:27:16Z</time></trkpt><trkpt lat="39.540419457367726" lon="16.05763088887889"><ele>649.0</ele><time>2026-04-27T07:27:17Z</time></trkpt><trkpt lat="39.5405449029962" lon="16.057577751600995"><ele>649.0</ele><time>2026-04-27T07:27:18Z</time></trkpt><trkpt lat="39.54067693912818" lon="16.057452410196277"><ele>653.3333333333334</ele><time>2026-04-27T07:27:19Z</time></trkpt><trkpt lat="39.540804181421706" lon="16.057307639195564"><ele>657.6666666666666</ele><time>2026-04-27T07:27:20Z</time></trkpt><trkpt lat="39.54093355178597" lon="16.05718827047131"><ele>662.0</ele><time>2026-04-27T07:27:21Z</time></trkpt><trkpt lat="39.54106548401448" lon="16.057090452492325"><ele>662.0</ele><time>2026-04-27T07:27:22Z</time></trkpt><trkpt lat="39.54119091338862" lon="16.057017159953034"><ele>662.0</ele><time>2026-04-27T07:27:23Z</time></trkpt><trkpt lat="39.54130314389652" lon="16.05693482153456"><ele>662.0</ele><time>2026-04-27T07:27:24Z</time></trkpt><trkpt lat="39.54137982789573" lon="16.05680694172883"><ele>662.0</ele><time>2026-04-27T07:27:25Z</time></trkpt><trkpt lat="39.54141722162049" lon="16.05663574267891"><ele>655.6666666666666</ele><time>2026-04-27T07:27:26Z</time></trkpt><trkpt lat="39.54143590869724" lon="16.056435088681816"><ele>649.3333333333334</ele><time>2026-04-27T07:27:27Z</time></trkpt><trkpt lat="39.54145530537751" lon="16.056228664816608"><ele>643.0</ele><time>2026-04-27T07:27:28Z</time></trkpt><trkpt lat="39.54147245838832" lon="16.05602186288967"><ele>643.0</ele><time>2026-04-27T07:27:29Z</time></trkpt><trkpt lat="39.54148241921244" lon="16.055867915058997"><ele>643.0</ele><time>2026-04-27T07:27:30Z</time></trkpt><trkpt lat="39.54149318800586" lon="16.055772278409613"><ele>643.0</ele><time>2026-04-27T07:27:31Z</time></trkpt><trkpt lat="39.541525614402524" lon="16.055662543845276"><ele>643.0</ele><time>2026-04-27T07:27:33Z</time></trkpt><trkpt lat="39.54153626261708" lon="16.055582083478708"><ele>643.0</ele><time>2026-04-27T07:27:40Z</time></trkpt><trkpt lat="39.54146476611668" lon="16.05583399460767"><ele>643.0</ele><time>2026-04-27T07:27:44Z</time></trkpt><trkpt lat="39.5414510436106" lon="16.0560223866797"><ele>643.0</ele><time>2026-04-27T07:27:45Z</time></trkpt><trkpt lat="39.541431420208355" lon="16.056220781883756"><ele>643.0</ele><time>2026-04-27T07:27:46Z</time></trkpt><trkpt lat="39.541408395374724" lon="16.056413118519192"><ele>643.0</ele><time>2026-04-27T07:27:47Z</time></trkpt><trkpt lat="39.541387176117006" lon="16.056582224365147"><ele>643.0</ele><time>2026-04-27T07:27:48Z</time></trkpt><trkpt lat="39.54137149639865" lon="16.056708023136764"><ele>643.0</ele><time>2026-04-27T07:27:49Z</time></trkpt><trkpt lat="39.54135662013727" lon="16.056791112487296"><ele>643.0</ele><time>2026-04-27T07:27:50Z</time></trkpt><trkpt lat="39.541334439425505" lon="16.056911039088003"><ele>643.0</ele><time>2026-04-27T07:27:52Z</time></trkpt><trkpt lat="39.54132385247578" lon="16.05700930519034"><ele>640.5</ele><time>2026-04-27T07:27:52.999Z</time></trkpt><trkpt lat="39.541219606534156" lon="16.057139743567983"><ele>638.0</ele><time>2026-04-27T07:27:54.999Z</time></trkpt><trkpt lat="39.541104637498044" lon="16.05718698469781"><ele>635.5</ele><time>2026-04-27T07:27:55.999Z</time></trkpt><trkpt lat="39.541002633859875" lon="16.057271588049336"><ele>633.0</ele><time>2026-04-27T07:27:56.999Z</time></trkpt><trkpt lat="39.54092398354181" lon="16.05739847154442"><ele>634.4</ele><time>2026-04-27T07:27:57.999Z</time></trkpt><trkpt lat="39.540859325263895" lon="16.057508471642574"><ele>635.8</ele><time>2026-04-27T07:27:58.999Z</time></trkpt><trkpt lat="39.54079417897664" lon="16.057593677696012"><ele>637.2</ele><time>2026-04-27T07:27:59.999Z</time></trkpt><trkpt lat="39.540751115723836" lon="16.057659431709418"><ele>638.6</ele><time>2026-04-27T07:28:00.999Z</time></trkpt><trkpt lat="39.54074322174118" lon="16.057815506924502"><ele>640.0</ele><time>2026-04-27T07:28:02.999Z</time></trkpt><trkpt lat="39.540843176298125" lon="16.05786291797709"><ele>640.0</ele><time>2026-04-27T07:28:03.999Z</time></trkpt><trkpt lat="39.54094078223456" lon="16.05781089070729"><ele>640.0</ele><time>2026-04-27T07:28:04.999Z</time></trkpt><trkpt lat="39.54105002024712" lon="16.05773274963388"><ele>640.0</ele><time>2026-04-27T07:28:05.999Z</time></trkpt><trkpt lat="39.5411464045158" lon="16.057665995605152"><ele>640.0</ele><time>2026-04-27T07:28:06.999Z</time></trkpt><trkpt lat="39.54124076590647" lon="16.057607221075205"><ele>640.0</ele><time>2026-04-27T07:28:07.999Z</time></trkpt><trkpt lat="39.54132861024328" lon="16.057550659779068"><ele>638.6</ele><time>2026-04-27T07:28:08.999Z</time></trkpt><trkpt lat="39.54140146660469" lon="16.057483170606883"><ele>637.2</ele><time>2026-04-27T07:28:09.999Z</time></trkpt><trkpt lat="39.541451385193895" lon="16.05741164008151"><ele>635.8</ele><time>2026-04-27T07:28:10.999Z</time></trkpt><trkpt lat="39.54155622540238" lon="16.057383747361207"><ele>634.4</ele><time>2026-04-27T07:28:12.999Z</time></trkpt><trkpt lat="39.54155157455268" lon="16.057534019451218"><ele>633.0</ele><time>2026-04-27T07:28:14.999Z</time></trkpt><trkpt lat="39.541499601106274" lon="16.057627874267894"><ele>630.5</ele><time>2026-04-27T07:28:15.999Z</time></trkpt><trkpt lat="39.54145143599441" lon="16.057773229673128"><ele>628.0</ele><time>2026-04-27T07:28:16.999Z</time></trkpt><trkpt lat="39.54143501682063" lon="16.05792030694261"><ele>625.5</ele><time>2026-04-27T07:28:17.999Z</time></trkpt><trkpt lat="39.541476594137336" lon="16.05806628588664"><ele>623.0</ele><time>2026-04-27T07:28:18.999Z</time></trkpt><trkpt lat="39.54150031189821" lon="16.05820589821491"><ele>621.4</ele><time>2026-04-27T07:28:19.999Z</time></trkpt><trkpt lat="39.54152627467034" lon="16.058335361880342"><ele>619.8</ele><time>2026-04-27T07:28:20.999Z</time></trkpt><trkpt lat="39.541529938841855" lon="16.05847605903394"><ele>618.2</ele><time>2026-04-27T07:28:21.999Z</time></trkpt><trkpt lat="39.54151320750152" lon="16.058606778236147"><ele>616.6</ele><time>2026-04-27T07:28:22.999Z</time></trkpt><trkpt lat="39.541476667378355" lon="16.058716959512346"><ele>615.0</ele><time>2026-04-27T07:28:23.999Z</time></trkpt><trkpt lat="39.541429864890375" lon="16.058825486973273"><ele>615.0</ele><time>2026-04-27T07:28:24.999Z</time></trkpt><trkpt lat="39.54136514233646" lon="16.058898611234078"><ele>615.0</ele><time>2026-04-27T07:28:25.999Z</time></trkpt><trkpt lat="39.54129397915665" lon="16.058969666152997"><ele>615.0</ele><time>2026-04-27T07:28:26.999Z</time></trkpt><trkpt lat="39.54122191650738" lon="16.059042276936953"><ele>615.0</ele><time>2026-04-27T07:28:27.999Z</time></trkpt><trkpt lat="39.54112830493164" lon="16.05908725510841"><ele>615.0</ele><time>2026-04-27T07:28:28.999Z</time></trkpt><trkpt lat="39.541017138811746" lon="16.05910521901995"><ele>614.5</ele><time>2026-04-27T07:28:29.999Z</time></trkpt><trkpt lat="39.540880383179235" lon="16.05915757106324"><ele>614.0</ele><time>2026-04-27T07:28:30.999Z</time></trkpt><trkpt lat="39.54073247669661" lon="16.059178247222782"><ele>613.5</ele><time>2026-04-27T07:28:31.999Z</time></trkpt><trkpt lat="39.5405865707599" lon="16.059172504278514"><ele>613.0</ele><time>2026-04-27T07:28:32.999Z</time></trkpt><trkpt lat="39.54044577582711" lon="16.059151932495205"><ele>613.6666666666667</ele><time>2026-04-27T07:28:33.999Z</time></trkpt><trkpt lat="39.54030251757951" lon="16.059120002205766"><ele>614.3333333333334</ele><time>2026-04-27T07:28:34.999Z</time></trkpt><trkpt lat="39.54015181175457" lon="16.05908059602169"><ele>615.0</ele><time>2026-04-27T07:28:35.999Z</time></trkpt><trkpt lat="39.53999918327873" lon="16.059037676151185"><ele>619.25</ele><time>2026-04-27T07:28:36.999Z</time></trkpt><trkpt lat="39.53985924245612" lon="16.058996199065547"><ele>623.5</ele><time>2026-04-27T07:28:37.999Z</time></trkpt><trkpt lat="39.53973255668136" lon="16.058928712796643"><ele>627.75</ele><time>2026-04-27T07:28:38.999Z</time></trkpt><trkpt lat="39.53960517917457" lon="16.058902836046034"><ele>632.0</ele><time>2026-04-27T07:28:39.999Z</time></trkpt><trkpt lat="39.53950173059072" lon="16.058855193613073"><ele>632.0</ele><time>2026-04-27T07:28:40.999Z</time></trkpt><trkpt lat="39.53941967474236" lon="16.058796434658923"><ele>632.0</ele><time>2026-04-27T07:28:41.999Z</time></trkpt><trkpt lat="39.539361998324516" lon="16.058747308672995"><ele>632.0</ele><time>2026-04-27T07:28:42.999Z</time></trkpt><trkpt lat="39.5392429074441" lon="16.05873189876696"><ele>632.0</ele><time>2026-04-27T07:28:44.999Z</time></trkpt><trkpt lat="39.53918542809918" lon="16.05883537536622"><ele>632.0</ele><time>2026-04-27T07:28:45.999Z</time></trkpt><trkpt lat="39.53916377099218" lon="16.05894048195693"><ele>632.0</ele><time>2026-04-27T07:28:46.999Z</time></trkpt><trkpt lat="39.53915713882845" lon="16.05903197727254"><ele>632.0</ele><time>2026-04-27T07:28:48.999Z</time></trkpt><trkpt lat="39.539241838916574" lon="16.059157581168066"><ele>632.0</ele><time>2026-04-27T07:28:50.999Z</time></trkpt><trkpt lat="39.53933019012153" lon="16.05918515976866"><ele>632.0</ele><time>2026-04-27T07:28:51.999Z</time></trkpt><trkpt lat="39.53940770218607" lon="16.059207348685028"><ele>632.0</ele><time>2026-04-27T07:28:52.999Z</time></trkpt><trkpt lat="39.539499815038205" lon="16.05918841908832"><ele>632.1666666666666</ele><time>2026-04-27T07:28:53.999Z</time></trkpt><trkpt lat="39.53956957677202" lon="16.059198028670526"><ele>632.3333333333333</ele><time>2026-04-27T07:28:54.999Z</time></trkpt><trkpt lat="39.5396929436641" lon="16.05924573242134"><ele>632.5</ele><time>2026-04-27T07:28:55.999Z</time></trkpt><trkpt lat="39.53977329521458" lon="16.05924049839093"><ele>632.6666666666666</ele><time>2026-04-27T07:28:59.998Z</time></trkpt><trkpt lat="39.53983481332458" lon="16.059258317877937"><ele>632.8333333333334</ele><time>2026-04-27T07:29:03.998Z</time></trkpt><trkpt lat="39.53976828420414" lon="16.05925899923868"><ele>633.0</ele><time>2026-04-27T07:29:11Z</time></trkpt><trkpt lat="39.53972486841854" lon="16.05909762535322"><ele>633.0</ele><time>2026-04-27T07:29:13Z</time></trkpt><trkpt lat="39.539643879853685" lon="16.059069828697947"><ele>633.0</ele><time>2026-04-27T07:29:14Z</time></trkpt><trkpt lat="39.53955800294736" lon="16.059040490182955"><ele>633.0</ele><time>2026-04-27T07:29:15Z</time></trkpt><trkpt lat="39.53947935458835" lon="16.059013728295355"><ele>633.0</ele><time>2026-04-27T07:29:16Z</time></trkpt><trkpt lat="39.53941241731992" lon="16.058990951351223"><ele>633.0</ele><time>2026-04-27T07:29:17Z</time></trkpt><trkpt lat="39.5393264289632" lon="16.058961691856613"><ele>633.0</ele><time>2026-04-27T07:29:18Z</time></trkpt><trkpt lat="39.53926150204111" lon="16.058939598991564"><ele>632.8</ele><time>2026-04-27T07:29:19Z</time></trkpt><trkpt lat="39.53911533368319" lon="16.058892773127933"><ele>632.5999999999999</ele><time>2026-04-27T07:29:21Z</time></trkpt><trkpt lat="39.53903644428079" lon="16.05887312434525"><ele>632.4000000000001</ele><time>2026-04-27T07:29:22Z</time></trkpt><trkpt lat="39.53897277875768" lon="16.058840400783478"><ele>632.2</ele><time>2026-04-27T07:29:23Z</time></trkpt><trkpt lat="39.53888975909492" lon="16.058811705573845"><ele>632.0</ele><time>2026-04-27T07:29:24Z</time></trkpt><trkpt lat="39.53881971321606" lon="16.05878749463797"><ele>632.0</ele><time>2026-04-27T07:29:25Z</time></trkpt><trkpt lat="39.53871000308909" lon="16.058781136664624"><ele>632.0</ele><time>2026-04-27T07:29:27Z</time></trkpt><trkpt lat="39.53864301259615" lon="16.058778600257575"><ele>632.0</ele><time>2026-04-27T07:29:28Z</time></trkpt><trkpt lat="39.53854693910474" lon="16.058772724896823"><ele>632.0</ele><time>2026-04-27T07:29:29Z</time></trkpt><trkpt lat="39.538275799211455" lon="16.05951602872511"><ele>628.5</ele><time>2026-04-27T07:29:30Z</time></trkpt><trkpt lat="39.53815095043346" lon="16.05957912185293"><ele>625.0</ele><time>2026-04-27T07:29:31Z</time></trkpt><trkpt lat="39.538023189936496" lon="16.059632464822"><ele>621.5</ele><time>2026-04-27T07:29:32Z</time></trkpt><trkpt lat="39.53788489489382" lon="16.059666061795223"><ele>618.0</ele><time>2026-04-27T07:29:33Z</time></trkpt><trkpt lat="39.53778137727971" lon="16.05969193135274"><ele>618.0</ele><time>2026-04-27T07:29:34Z</time></trkpt><trkpt lat="39.537703224344" lon="16.05970277618582"><ele>618.0</ele><time>2026-04-27T07:29:35Z</time></trkpt><trkpt lat="39.53761921632285" lon="16.059695812038896"><ele>618.0</ele><time>2026-04-27T07:29:36Z</time></trkpt><trkpt lat="39.53751217729782" lon="16.059669371947294"><ele>618.0</ele><time>2026-04-27T07:29:37Z</time></trkpt><trkpt lat="39.53738390122071" lon="16.059634333507972"><ele>618.0</ele><time>2026-04-27T07:29:38Z</time></trkpt><trkpt lat="39.53726212213518" lon="16.05961895372042"><ele>618.0</ele><time>2026-04-27T07:29:39Z</time></trkpt><trkpt lat="39.537155011457266" lon="16.05962195272758"><ele>618.0</ele><time>2026-04-27T07:29:40Z</time></trkpt><trkpt lat="39.537047850053376" lon="16.059651071467734"><ele>618.0</ele><time>2026-04-27T07:29:41Z</time></trkpt><trkpt lat="39.536936255768225" lon="16.059690431450996"><ele>618.0</ele><time>2026-04-27T07:29:42Z</time></trkpt><trkpt lat="39.53684530900907" lon="16.059687048608073"><ele>618.0</ele><time>2026-04-27T07:29:43Z</time></trkpt><trkpt lat="39.536735066410984" lon="16.05966245383746"><ele>617.5</ele><time>2026-04-27T07:29:44Z</time></trkpt><trkpt lat="39.53660341314226" lon="16.05960977701563"><ele>617.0</ele><time>2026-04-27T07:29:45Z</time></trkpt><trkpt lat="39.53645902046828" lon="16.059564522675004"><ele>616.5</ele><time>2026-04-27T07:29:46Z</time></trkpt><trkpt lat="39.53636215083558" lon="16.059537793532368"><ele>616.0</ele><time>2026-04-27T07:29:47Z</time></trkpt><trkpt lat="39.53628448661062" lon="16.059534299145508"><ele>616.0</ele><time>2026-04-27T07:29:48Z</time></trkpt><trkpt lat="39.53622187210227" lon="16.059564051420693"><ele>616.0</ele><time>2026-04-27T07:29:49Z</time></trkpt><trkpt lat="39.53618023570226" lon="16.059630672875993"><ele>616.0</ele><time>2026-04-27T07:29:50Z</time></trkpt><trkpt lat="39.53617145139693" lon="16.059717392383746"><ele>616.0</ele><time>2026-04-27T07:29:51Z</time></trkpt><trkpt lat="39.53621925090263" lon="16.059802612014234"><ele>616.0</ele><time>2026-04-27T07:29:52Z</time></trkpt><trkpt lat="39.536323266912824" lon="16.059841957952578"><ele>616.0</ele><time>2026-04-27T07:29:53Z</time></trkpt><trkpt lat="39.536410068314815" lon="16.05982552218376"><ele>616.0</ele><time>2026-04-27T07:29:54Z</time></trkpt><trkpt lat="39.53642106586292" lon="16.059916495162792"><ele>616.0</ele><time>2026-04-27T07:29:56Z</time></trkpt><trkpt lat="39.536343722320176" lon="16.059919391097186"><ele>616.0</ele><time>2026-04-27T07:29:57Z</time></trkpt><trkpt lat="39.53626701390861" lon="16.059900482377266"><ele>616.0</ele><time>2026-04-27T07:29:58Z</time></trkpt><trkpt lat="39.53613520472273" lon="16.059895110162053"><ele>616.0</ele><time>2026-04-27T07:29:59Z</time></trkpt><trkpt lat="39.535978259693714" lon="16.059897846565825"><ele>615.0</ele><time>2026-04-27T07:30:00Z</time></trkpt><trkpt lat="39.53579279914825" lon="16.05986600272437"><ele>614.0</ele><time>2026-04-27T07:30:00.999Z</time></trkpt><trkpt lat="39.53560255741528" lon="16.0598263314857"><ele>613.0</ele><time>2026-04-27T07:30:01.999Z</time></trkpt><trkpt lat="39.5354295896346" lon="16.0597844419598"><ele>611.0</ele><time>2026-04-27T07:30:02.999Z</time></trkpt><trkpt lat="39.535272466302956" lon="16.05977877653013"><ele>609.0</ele><time>2026-04-27T07:30:03.999Z</time></trkpt><trkpt lat="39.53512323152665" lon="16.05977270713679"><ele>607.0</ele><time>2026-04-27T07:30:04.999Z</time></trkpt><trkpt lat="39.53498110281242" lon="16.059781564034655"><ele>605.0</ele><time>2026-04-27T07:30:05.999Z</time></trkpt><trkpt lat="39.53484058971506" lon="16.05977521235629"><ele>605.0</ele><time>2026-04-27T07:30:06.999Z</time></trkpt><trkpt lat="39.534712559275874" lon="16.059800829911033"><ele>605.0</ele><time>2026-04-27T07:30:07.999Z</time></trkpt><trkpt lat="39.53460913758224" lon="16.059803821414373"><ele>605.0</ele><time>2026-04-27T07:30:08.999Z</time></trkpt><trkpt lat="39.53450063241235" lon="16.059776915715215"><ele>605.0</ele><time>2026-04-27T07:30:09.999Z</time></trkpt><trkpt lat="39.534386861395056" lon="16.059680675532416"><ele>602.2</ele><time>2026-04-27T07:30:10.999Z</time></trkpt><trkpt lat="39.53426841007011" lon="16.05962116033058"><ele>599.4</ele><time>2026-04-27T07:30:11.999Z</time></trkpt><trkpt lat="39.53415989654081" lon="16.059595022130722"><ele>596.6</ele><time>2026-04-27T07:30:12.999Z</time></trkpt><trkpt lat="39.53407004544838" lon="16.059536017398514"><ele>593.8</ele><time>2026-04-27T07:30:13.999Z</time></trkpt><trkpt lat="39.534025097528364" lon="16.05944714046038"><ele>591.0</ele><time>2026-04-27T07:30:14.999Z</time></trkpt><trkpt lat="39.533952079801224" lon="16.059359753714777"><ele>591.0</ele><time>2026-04-27T07:30:16.999Z</time></trkpt><trkpt lat="39.53386774979953" lon="16.059340144623373"><ele>591.0</ele><time>2026-04-27T07:30:18.999Z</time></trkpt><trkpt lat="39.53383355384225" lon="16.059511191838286"><ele>591.0</ele><time>2026-04-27T07:30:19.999Z</time></trkpt><trkpt lat="39.5339159756287" lon="16.059660306037205"><ele>591.0</ele><time>2026-04-27T07:30:20.999Z</time></trkpt><trkpt lat="39.53396261082449" lon="16.059767697724403"><ele>591.0</ele><time>2026-04-27T07:30:21.999Z</time></trkpt><trkpt lat="39.533991434719155" lon="16.059846459468968"><ele>591.0</ele><time>2026-04-27T07:30:22.999Z</time></trkpt><trkpt lat="39.5339832167063" lon="16.059975523962727"><ele>591.0</ele><time>2026-04-27T07:30:24.999Z</time></trkpt><trkpt lat="39.53387177267638" lon="16.060043066569882"><ele>591.0</ele><time>2026-04-27T07:30:26.999Z</time></trkpt><trkpt lat="39.53377890636171" lon="16.06002643496691"><ele>591.0</ele><time>2026-04-27T07:30:27.999Z</time></trkpt><trkpt lat="39.53369722962145" lon="16.059949651507065"><ele>584.25</ele><time>2026-04-27T07:30:28.999Z</time></trkpt><trkpt lat="39.53363626402485" lon="16.059823904526862"><ele>577.5</ele><time>2026-04-27T07:30:29.999Z</time></trkpt><trkpt lat="39.5335952106507" lon="16.05966623269069"><ele>570.75</ele><time>2026-04-27T07:30:30.999Z</time></trkpt><trkpt lat="39.533560016453386" lon="16.0595226835214"><ele>564.0</ele><time>2026-04-27T07:30:31.999Z</time></trkpt><trkpt lat="39.533517787373604" lon="16.059398537053305"><ele>564.0</ele><time>2026-04-27T07:30:32.999Z</time></trkpt><trkpt lat="39.53347246115771" lon="16.059283393065243"><ele>564.0</ele><time>2026-04-27T07:30:33.999Z</time></trkpt><trkpt lat="39.53342379338068" lon="16.05917297458077"><ele>564.0</ele><time>2026-04-27T07:30:34.999Z</time></trkpt><trkpt lat="39.53337005532645" lon="16.059064579875432"><ele>564.0</ele><time>2026-04-27T07:30:35.999Z</time></trkpt><trkpt lat="39.53329908826116" lon="16.05895468409978"><ele>564.0</ele><time>2026-04-27T07:30:36.999Z</time></trkpt><trkpt lat="39.53321425747974" lon="16.058851950811125"><ele>566.2</ele><time>2026-04-27T07:30:37.999Z</time></trkpt><trkpt lat="39.533122872987434" lon="16.05876694376057"><ele>568.4</ele><time>2026-04-27T07:30:38.999Z</time></trkpt><trkpt lat="39.5330288026821" lon="16.05868834919059"><ele>570.6</ele><time>2026-04-27T07:30:39.999Z</time></trkpt><trkpt lat="39.53293757011879" lon="16.05861575143115"><ele>572.8</ele><time>2026-04-27T07:30:40.999Z</time></trkpt><trkpt lat="39.53284790536833" lon="16.05854245872493"><ele>575.0</ele><time>2026-04-27T07:30:41.999Z</time></trkpt><trkpt lat="39.532756587657566" lon="16.058477134392046"><ele>571.6</ele><time>2026-04-27T07:30:42.999Z</time></trkpt><trkpt lat="39.532670894979915" lon="16.058395618506452"><ele>568.2</ele><time>2026-04-27T07:30:43.999Z</time></trkpt><trkpt lat="39.532577681591036" lon="16.058357377512205"><ele>564.8</ele><time>2026-04-27T07:30:44.999Z</time></trkpt><trkpt lat="39.5325052195822" lon="16.058288934767685"><ele>561.4</ele><time>2026-04-27T07:30:45.999Z</time></trkpt><trkpt lat="39.53243625473193" lon="16.05824133892538"><ele>558.0</ele><time>2026-04-27T07:30:46.999Z</time></trkpt><trkpt lat="39.532335618595994" lon="16.058183296223017"><ele>558.0</ele><time>2026-04-27T07:30:48.999Z</time></trkpt><trkpt lat="39.532222376905196" lon="16.058242253502748"><ele>558.0</ele><time>2026-04-27T07:30:50.999Z</time></trkpt><trkpt lat="39.53218886752645" lon="16.058390263113484"><ele>558.0</ele><time>2026-04-27T07:30:51.999Z</time></trkpt><trkpt lat="39.53221864784893" lon="16.05853867806561"><ele>558.0</ele><time>2026-04-27T07:30:52.999Z</time></trkpt><trkpt lat="39.532250357792286" lon="16.058680923314824"><ele>556.8</ele><time>2026-04-27T07:30:53.999Z</time></trkpt><trkpt lat="39.532292675576805" lon="16.058810271420732"><ele>555.5999999999999</ele><time>2026-04-27T07:30:54.999Z</time></trkpt><trkpt lat="39.53231912572197" lon="16.058905795386465"><ele>554.4000000000001</ele><time>2026-04-27T07:30:55.999Z</time></trkpt><trkpt lat="39.532304675059976" lon="16.059013337212114"><ele>553.2</ele><time>2026-04-27T07:30:57.999Z</time></trkpt><trkpt lat="39.53219124441792" lon="16.058989421637268"><ele>552.0</ele><time>2026-04-27T07:30:59.999Z</time></trkpt><trkpt lat="39.532115618549135" lon="16.058870517234425"><ele>552.0</ele><time>2026-04-27T07:31:00.999Z</time></trkpt><trkpt lat="39.532058732471164" lon="16.05875050238402"><ele>552.0</ele><time>2026-04-27T07:31:01.999Z</time></trkpt><trkpt lat="39.532032790120624" lon="16.058642346592627"><ele>552.0</ele><time>2026-04-27T07:31:02.999Z</time></trkpt><trkpt lat="39.532051547647335" lon="16.058512570656255"><ele>552.0</ele><time>2026-04-27T07:31:03.999Z</time></trkpt><trkpt lat="39.532087141721334" lon="16.058363202296395"><ele>552.0</ele><time>2026-04-27T07:31:04.999Z</time></trkpt><trkpt lat="39.532090788361636" lon="16.05821011753741"><ele>544.75</ele><time>2026-04-27T07:31:05.999Z</time></trkpt><trkpt lat="39.53205302712272" lon="16.058054801574272"><ele>537.5</ele><time>2026-04-27T07:31:06.998Z</time></trkpt><trkpt lat="39.53201303464536" lon="16.057897767938154"><ele>530.25</ele><time>2026-04-27T07:31:07.998Z</time></trkpt><trkpt lat="39.53198436066328" lon="16.057736359725812"><ele>523.0</ele><time>2026-04-27T07:31:08.998Z</time></trkpt><trkpt lat="39.53195858289137" lon="16.057577361604118"><ele>522.0</ele><time>2026-04-27T07:31:09.998Z</time></trkpt><trkpt lat="39.531943156742635" lon="16.05742348626143"><ele>521.0</ele><time>2026-04-27T07:31:10.998Z</time></trkpt><trkpt lat="39.531929357715924" lon="16.057272919940594"><ele>520.0</ele><time>2026-04-27T07:31:11.998Z</time></trkpt><trkpt lat="39.531905350515295" lon="16.057128655953843"><ele>519.0</ele><time>2026-04-27T07:31:12.998Z</time></trkpt><trkpt lat="39.53186682951626" lon="16.057003267055997"><ele>519.0</ele><time>2026-04-27T07:31:13.998Z</time></trkpt><trkpt lat="39.53184833635123" lon="16.056872665690282"><ele>519.0</ele><time>2026-04-27T07:31:15Z</time></trkpt><trkpt lat="39.53187203794737" lon="16.056738229762505"><ele>519.0</ele><time>2026-04-27T07:31:16Z</time></trkpt><trkpt lat="39.53192553641625" lon="16.05660481801572"><ele>519.0</ele><time>2026-04-27T07:31:17Z</time></trkpt><trkpt lat="39.53199474413541" lon="16.056458699718284"><ele>518.5</ele><time>2026-04-27T07:31:18Z</time></trkpt><trkpt lat="39.53205421101467" lon="16.05629842322312"><ele>518.0</ele><time>2026-04-27T07:31:19Z</time></trkpt><trkpt lat="39.53210380042538" lon="16.056148430062215"><ele>517.5</ele><time>2026-04-27T07:31:20Z</time></trkpt><trkpt lat="39.53215055967315" lon="16.056011433567274"><ele>517.0</ele><time>2026-04-27T07:31:21Z</time></trkpt><trkpt lat="39.53220333727666" lon="16.05588683501271"><ele>522.2</ele><time>2026-04-27T07:31:22Z</time></trkpt><trkpt lat="39.5322557432299" lon="16.05576752525125"><ele>527.4000000000001</ele><time>2026-04-27T07:31:23Z</time></trkpt><trkpt lat="39.53229277421716" lon="16.055649377824558"><ele>532.5999999999999</ele><time>2026-04-27T07:31:24Z</time></trkpt><trkpt lat="39.53230686508269" lon="16.055548788694573"><ele>537.8</ele><time>2026-04-27T07:31:25Z</time></trkpt><trkpt lat="39.53228309983001" lon="16.055413366035854"><ele>543.0</ele><time>2026-04-27T07:31:27Z</time></trkpt><trkpt lat="39.532246908092006" lon="16.055330396024658"><ele>543.0</ele><time>2026-04-27T07:31:28Z</time></trkpt><trkpt lat="39.532186952369976" lon="16.05527157985585"><ele>543.0</ele><time>2026-04-27T07:31:29Z</time></trkpt><trkpt lat="39.53211804590234" lon="16.055236738923085"><ele>543.0</ele><time>2026-04-27T07:31:30Z</time></trkpt><trkpt lat="39.53202638224206" lon="16.05523556519035"><ele>543.0</ele><time>2026-04-27T07:31:31Z</time></trkpt><trkpt lat="39.53194610658045" lon="16.055229738682034"><ele>543.0</ele><time>2026-04-27T07:31:32Z</time></trkpt><trkpt lat="39.53188115649051" lon="16.055208727499505"><ele>543.0</ele><time>2026-04-27T07:31:33Z</time></trkpt><trkpt lat="39.53180322873313" lon="16.055175963068955"><ele>544.0</ele><time>2026-04-27T07:31:34Z</time></trkpt><trkpt lat="39.53171904546095" lon="16.055138522448477"><ele>545.0</ele><time>2026-04-27T07:31:35Z</time></trkpt><trkpt lat="39.531633454602556" lon="16.055126253193556"><ele>546.0</ele><time>2026-04-27T07:31:36Z</time></trkpt><trkpt lat="39.531566321930846" lon="16.055083574650187"><ele>547.0</ele><time>2026-04-27T07:31:37Z</time></trkpt><trkpt lat="39.53148071059393" lon="16.055056519645234"><ele>548.0</ele><time>2026-04-27T07:31:38Z</time></trkpt><trkpt lat="39.53139107921202" lon="16.055053535950982"><ele>549.0</ele><time>2026-04-27T07:31:39Z</time></trkpt><trkpt lat="39.53130091843842" lon="16.055084879106357"><ele>549.2</ele><time>2026-04-27T07:31:40Z</time></trkpt><trkpt lat="39.531213228484" lon="16.0551396287592"><ele>549.4</ele><time>2026-04-27T07:31:41Z</time></trkpt><trkpt lat="39.53111045273686" lon="16.055216205403873"><ele>549.6</ele><time>2026-04-27T07:31:42Z</time></trkpt><trkpt lat="39.53100464336743" lon="16.05529587245131"><ele>549.8</ele><time>2026-04-27T07:31:43Z</time></trkpt><trkpt lat="39.5309122289512" lon="16.055362227028386"><ele>550.0</ele><time>2026-04-27T07:31:44Z</time></trkpt><trkpt lat="39.5308424774283" lon="16.055439580663844"><ele>550.0</ele><time>2026-04-27T07:31:45Z</time></trkpt><trkpt lat="39.5307556198943" lon="16.05548178163523"><ele>550.0</ele><time>2026-04-27T07:31:46Z</time></trkpt><trkpt lat="39.53064150258957" lon="16.05550916425539"><ele>550.0</ele><time>2026-04-27T07:31:47Z</time></trkpt><trkpt lat="39.53049304484574" lon="16.055488914199316"><ele>550.0</ele><time>2026-04-27T07:31:48Z</time></trkpt><trkpt lat="39.530373713321445" lon="16.055518041900452"><ele>550.25</ele><time>2026-04-27T07:31:49Z</time></trkpt><trkpt lat="39.53025240227798" lon="16.055586046939105"><ele>550.5</ele><time>2026-04-27T07:31:50Z</time></trkpt><trkpt lat="39.53013926662382" lon="16.05566717217268"><ele>550.75</ele><time>2026-04-27T07:31:51Z</time></trkpt><trkpt lat="39.53002668037998" lon="16.05576648842866"><ele>551.0</ele><time>2026-04-27T07:31:52Z</time></trkpt><trkpt lat="39.52990686458055" lon="16.055891836397528"><ele>552.25</ele><time>2026-04-27T07:31:53Z</time></trkpt><trkpt lat="39.52980284942074" lon="16.056001626348213"><ele>553.5</ele><time>2026-04-27T07:31:54Z</time></trkpt><trkpt lat="39.5296895581863" lon="16.05611107182804"><ele>554.75</ele><time>2026-04-27T07:31:55Z</time></trkpt><trkpt lat="39.529566535627026" lon="16.05622821351333"><ele>556.0</ele><time>2026-04-27T07:31:56Z</time></trkpt><trkpt lat="39.52944329859401" lon="16.056345559360455"><ele>556.0</ele><time>2026-04-27T07:31:57Z</time></trkpt><trkpt lat="39.52931821238536" lon="16.056441270641326"><ele>556.0</ele><time>2026-04-27T07:31:58Z</time></trkpt><trkpt lat="39.5292056521956" lon="16.056502516944605"><ele>556.0</ele><time>2026-04-27T07:31:59Z</time></trkpt><trkpt lat="39.52910270055743" lon="16.056521165608853"><ele>556.0</ele><time>2026-04-27T07:32:00Z</time></trkpt><trkpt lat="39.52900082992303" lon="16.05652314331266"><ele>556.0</ele><time>2026-04-27T07:32:01Z</time></trkpt><trkpt lat="39.528877396929" lon="16.0565217812948"><ele>556.0</ele><time>2026-04-27T07:32:02Z</time></trkpt><trkpt lat="39.528755320213406" lon="16.05650930013781"><ele>556.0</ele><time>2026-04-27T07:32:02.999Z</time></trkpt><trkpt lat="39.52863422701265" lon="16.056494089317948"><ele>556.0</ele><time>2026-04-27T07:32:03.999Z</time></trkpt><trkpt lat="39.528508363694854" lon="16.05647301280107"><ele>555.75</ele><time>2026-04-27T07:32:04.999Z</time></trkpt><trkpt lat="39.528371953038615" lon="16.05644862114534"><ele>555.5</ele><time>2026-04-27T07:32:05.999Z</time></trkpt><trkpt lat="39.52824856850584" lon="16.05644037921294"><ele>555.25</ele><time>2026-04-27T07:32:06.999Z</time></trkpt><trkpt lat="39.52812684069441" lon="16.056463672651002"><ele>555.0</ele><time>2026-04-27T07:32:07.999Z</time></trkpt><trkpt lat="39.52802082222932" lon="16.056499050512215"><ele>554.5</ele><time>2026-04-27T07:32:08.999Z</time></trkpt><trkpt lat="39.52789252271554" lon="16.056543326756557"><ele>554.0</ele><time>2026-04-27T07:32:09.999Z</time></trkpt><trkpt lat="39.527753247301554" lon="16.056591472917017"><ele>553.5</ele><time>2026-04-27T07:32:10.999Z</time></trkpt><trkpt lat="39.52764350667604" lon="16.056631126587483"><ele>553.0</ele><time>2026-04-27T07:32:11.999Z</time></trkpt><trkpt lat="39.52753383662065" lon="16.05666998295583"><ele>547.75</ele><time>2026-04-27T07:32:12.999Z</time></trkpt><trkpt lat="39.52741304455806" lon="16.056707594445307"><ele>542.5</ele><time>2026-04-27T07:32:13.999Z</time></trkpt><trkpt lat="39.52728655864691" lon="16.05673871303079"><ele>537.25</ele><time>2026-04-27T07:32:14.999Z</time></trkpt><trkpt lat="39.52717726242122" lon="16.056766600731386"><ele>532.0</ele><time>2026-04-27T07:32:15.999Z</time></trkpt><trkpt lat="39.527063634906625" lon="16.056802844507057"><ele>535.2</ele><time>2026-04-27T07:32:16.999Z</time></trkpt><trkpt lat="39.52695376300441" lon="16.056846753753998"><ele>538.4000000000001</ele><time>2026-04-27T07:32:17.999Z</time></trkpt><trkpt lat="39.52683934277091" lon="16.056888801622655"><ele>541.5999999999999</ele><time>2026-04-27T07:32:18.999Z</time></trkpt><trkpt lat="39.52674740109506" lon="16.05690505455676"><ele>544.8</ele><time>2026-04-27T07:32:19.999Z</time></trkpt><trkpt lat="39.52665095330694" lon="16.05691299615864"><ele>548.0</ele><time>2026-04-27T07:32:20.999Z</time></trkpt><trkpt lat="39.5265459788542" lon="16.056925120268925"><ele>548.0</ele><time>2026-04-27T07:32:21.999Z</time></trkpt><trkpt lat="39.52644610989562" lon="16.05695030497104"><ele>548.0</ele><time>2026-04-27T07:32:22.999Z</time></trkpt><trkpt lat="39.52635932040942" lon="16.05699557160883"><ele>548.0</ele><time>2026-04-27T07:32:23.999Z</time></trkpt><trkpt lat="39.526266858901856" lon="16.057075725460646"><ele>548.0</ele><time>2026-04-27T07:32:24.999Z</time></trkpt><trkpt lat="39.52617592539567" lon="16.057156925819292"><ele>548.0</ele><time>2026-04-27T07:32:25.999Z</time></trkpt><trkpt lat="39.52607675429996" lon="16.0572467230275"><ele>547.1666666666666</ele><time>2026-04-27T07:32:26.999Z</time></trkpt><trkpt lat="39.525994393103055" lon="16.057319956690183"><ele>546.3333333333333</ele><time>2026-04-27T07:32:27.999Z</time></trkpt><trkpt lat="39.52591758358614" lon="16.057366372178972"><ele>545.5</ele><time>2026-04-27T07:32:28.999Z</time></trkpt><trkpt lat="39.52584582767512" lon="16.057376874374704"><ele>544.6666666666666</ele><time>2026-04-27T07:32:29.999Z</time></trkpt><trkpt lat="39.52575664983484" lon="16.057399572801472"><ele>543.8333333333334</ele><time>2026-04-27T07:32:30.999Z</time></trkpt><trkpt lat="39.52568005041131" lon="16.057437282993654"><ele>543.0</ele><time>2026-04-27T07:32:31.999Z</time></trkpt><trkpt lat="39.52560683451772" lon="16.057509184610982"><ele>543.0</ele><time>2026-04-27T07:32:32.999Z</time></trkpt><trkpt lat="39.52554351314542" lon="16.057605797882964"><ele>543.0</ele><time>2026-04-27T07:32:33.999Z</time></trkpt><trkpt lat="39.525477219050224" lon="16.057663051744136"><ele>543.0</ele><time>2026-04-27T07:32:34.999Z</time></trkpt><trkpt lat="39.52540780577362" lon="16.05767970488733"><ele>543.0</ele><time>2026-04-27T07:32:35.999Z</time></trkpt><trkpt lat="39.52531346330871" lon="16.057679387618087"><ele>543.0</ele><time>2026-04-27T07:32:36.999Z</time></trkpt><trkpt lat="39.525192607035365" lon="16.057667523222374"><ele>544.0</ele><time>2026-04-27T07:32:37.999Z</time></trkpt><trkpt lat="39.525085182000964" lon="16.057639878929628"><ele>545.0</ele><time>2026-04-27T07:32:38.999Z</time></trkpt><trkpt lat="39.5249879141217" lon="16.057625982004"><ele>546.0</ele><time>2026-04-27T07:32:39.999Z</time></trkpt><trkpt lat="39.524880319453175" lon="16.057610194385447"><ele>547.0</ele><time>2026-04-27T07:32:40.999Z</time></trkpt><trkpt lat="39.52475233822461" lon="16.057598430658487"><ele>548.0</ele><time>2026-04-27T07:32:41.999Z</time></trkpt><trkpt lat="39.52462615097779" lon="16.05758541841678"><ele>549.5</ele><time>2026-04-27T07:32:42.999Z</time></trkpt><trkpt lat="39.52451717447116" lon="16.05755723889841"><ele>551.0</ele><time>2026-04-27T07:32:43.999Z</time></trkpt><trkpt lat="39.52439436491506" lon="16.05751698681565"><ele>552.5</ele><time>2026-04-27T07:32:44.999Z</time></trkpt><trkpt lat="39.524276868283614" lon="16.057475511145523"><ele>554.0</ele><time>2026-04-27T07:32:45.999Z</time></trkpt><trkpt lat="39.52417343249308" lon="16.05743942228834"><ele>557.3333333333333</ele><time>2026-04-27T07:32:46.999Z</time></trkpt><trkpt lat="39.52408128675336" lon="16.057407642568478"><ele>560.6666666666666</ele><time>2026-04-27T07:32:47.999Z</time></trkpt><trkpt lat="39.52399219299749" lon="16.057381196393504"><ele>564.0</ele><time>2026-04-27T07:32:48.999Z</time></trkpt><trkpt lat="39.52391796894823" lon="16.0573700419006"><ele>567.3333333333334</ele><time>2026-04-27T07:32:49.999Z</time></trkpt><trkpt lat="39.52382399741212" lon="16.05736124521"><ele>570.6666666666667</ele><time>2026-04-27T07:32:51.999Z</time></trkpt><trkpt lat="39.523757256478746" lon="16.057364129823803"><ele>574.0</ele><time>2026-04-27T07:32:52.999Z</time></trkpt><trkpt lat="39.523693904880275" lon="16.05737573456"><ele>573.0</ele><time>2026-04-27T07:32:53.999Z</time></trkpt><trkpt lat="39.523627167617036" lon="16.05740582035092"><ele>572.0</ele><time>2026-04-27T07:32:54.999Z</time></trkpt><trkpt lat="39.523564437306234" lon="16.057444718199278"><ele>571.0</ele><time>2026-04-27T07:32:55.999Z</time></trkpt><trkpt lat="39.52350309970463" lon="16.057488389574033"><ele>570.0</ele><time>2026-04-27T07:32:56.999Z</time></trkpt><trkpt lat="39.52343520165522" lon="16.05754562533665"><ele>569.0</ele><time>2026-04-27T07:32:57.999Z</time></trkpt><trkpt lat="39.52336679546521" lon="16.057612424868765"><ele>568.0</ele><time>2026-04-27T07:32:58.999Z</time></trkpt><trkpt lat="39.52328170302724" lon="16.057700230137527"><ele>568.0</ele><time>2026-04-27T07:32:59.999Z</time></trkpt><trkpt lat="39.52319255869956" lon="16.057790271127566"><ele>568.0</ele><time>2026-04-27T07:33:00.999Z</time></trkpt><trkpt lat="39.523100802246404" lon="16.057870057351163"><ele>568.0</ele><time>2026-04-27T07:33:01.999Z</time></trkpt><trkpt lat="39.522999173657816" lon="16.057938558928214"><ele>568.0</ele><time>2026-04-27T07:33:02.999Z</time></trkpt><trkpt lat="39.52288464375744" lon="16.05800994498228"><ele>569.75</ele><time>2026-04-27T07:33:03.999Z</time></trkpt><trkpt lat="39.522777352010834" lon="16.058080571262206"><ele>571.5</ele><time>2026-04-27T07:33:04.999Z</time></trkpt><trkpt lat="39.52267783407026" lon="16.058147834237662"><ele>573.25</ele><time>2026-04-27T07:33:05.999Z</time></trkpt><trkpt lat="39.52258985192701" lon="16.058241677361792"><ele>575.0</ele><time>2026-04-27T07:33:06.999Z</time></trkpt><trkpt lat="39.52251927448604" lon="16.058357052351262"><ele>575.0</ele><time>2026-04-27T07:33:07.999Z</time></trkpt><trkpt lat="39.52246609617744" lon="16.058449352026027"><ele>575.0</ele><time>2026-04-27T07:33:08.998Z</time></trkpt><trkpt lat="39.52241292175514" lon="16.058539185060233"><ele>575.0</ele><time>2026-04-27T07:33:09.998Z</time></trkpt><trkpt lat="39.52235467655111" lon="16.058622011034057"><ele>575.0</ele><time>2026-04-27T07:33:10.998Z</time></trkpt><trkpt lat="39.52229341077683" lon="16.058692716649656"><ele>575.0</ele><time>2026-04-27T07:33:11.998Z</time></trkpt><trkpt lat="39.52221181620309" lon="16.05874563577478"><ele>575.0</ele><time>2026-04-27T07:33:12.998Z</time></trkpt><trkpt lat="39.52212274677674" lon="16.058769587018514"><ele>581.5</ele><time>2026-04-27T07:33:13.998Z</time></trkpt><trkpt lat="39.521998191079504" lon="16.05879710610114"><ele>588.0</ele><time>2026-04-27T07:33:14.998Z</time></trkpt><trkpt lat="39.52186400238947" lon="16.058812659599155"><ele>594.5</ele><time>2026-04-27T07:33:15.998Z</time></trkpt><trkpt lat="39.521742430426094" lon="16.058873906275497"><ele>601.0</ele><time>2026-04-27T07:33:16.998Z</time></trkpt><trkpt lat="39.52164715188941" lon="16.05897595405091"><ele>601.0</ele><time>2026-04-27T07:33:17.998Z</time></trkpt><trkpt lat="39.521584747440556" lon="16.059070260364912"><ele>601.0</ele><time>2026-04-27T07:33:18.998Z</time></trkpt><trkpt lat="39.5215383493216" lon="16.059171725601814"><ele>601.0</ele><time>2026-04-27T07:33:19.998Z</time></trkpt><trkpt lat="39.52148313550151" lon="16.05930794089514"><ele>601.0</ele><time>2026-04-27T07:33:21Z</time></trkpt><trkpt lat="39.52143225136068" lon="16.059466577164294"><ele>601.0</ele><time>2026-04-27T07:33:22Z</time></trkpt><trkpt lat="39.52140226757628" lon="16.059587030690942"><ele>600.1666666666667</ele><time>2026-04-27T07:33:23Z</time></trkpt><trkpt lat="39.5213771288642" lon="16.059663589733756"><ele>599.3333333333334</ele><time>2026-04-27T07:33:24Z</time></trkpt><trkpt lat="39.52133272138401" lon="16.059749065548193"><ele>598.5</ele><time>2026-04-27T07:33:26Z</time></trkpt><trkpt lat="39.52123580483962" lon="16.059659249307167"><ele>597.6666666666666</ele><time>2026-04-27T07:33:28Z</time></trkpt><trkpt lat="39.5212060855101" lon="16.059571504810553"><ele>596.8333333333333</ele><time>2026-04-27T07:33:29Z</time></trkpt><trkpt lat="39.521191877691244" lon="16.0594658627731"><ele>596.0</ele><time>2026-04-27T07:33:30Z</time></trkpt><trkpt lat="39.52119562333649" lon="16.05935049765548"><ele>596.0</ele><time>2026-04-27T07:33:31Z</time></trkpt><trkpt lat="39.52120552151488" lon="16.059239763264664"><ele>596.0</ele><time>2026-04-27T07:33:32Z</time></trkpt><trkpt lat="39.52123100610589" lon="16.05911812894065"><ele>596.0</ele><time>2026-04-27T07:33:33Z</time></trkpt><trkpt lat="39.521260654381265" lon="16.0589924866399"><ele>596.0</ele><time>2026-04-27T07:33:34Z</time></trkpt><trkpt lat="39.52128718673228" lon="16.0588855380977"><ele>596.0</ele><time>2026-04-27T07:33:35Z</time></trkpt><trkpt lat="39.521300091556526" lon="16.058801721364937"><ele>596.0</ele><time>2026-04-27T07:33:36Z</time></trkpt><trkpt lat="39.52130577016634" lon="16.05867021133675"><ele>596.8333333333333</ele><time>2026-04-27T07:33:38Z</time></trkpt><trkpt lat="39.52129277914941" lon="16.05859035254712"><ele>597.6666666666666</ele><time>2026-04-27T07:33:39Z</time></trkpt><trkpt lat="39.521248747989624" lon="16.05852161076717"><ele>598.5</ele><time>2026-04-27T07:33:40Z</time></trkpt><trkpt lat="39.52118299457136" lon="16.058485047104288"><ele>599.3333333333334</ele><time>2026-04-27T07:33:41Z</time></trkpt><trkpt lat="39.52111593995098" lon="16.058489550474167"><ele>600.1666666666667</ele><time>2026-04-27T07:33:42Z</time></trkpt><trkpt lat="39.52099569405233" lon="16.05856540648575"><ele>601.0</ele><time>2026-04-27T07:33:44Z</time></trkpt><trkpt lat="39.52091085196882" lon="16.05864396428151"><ele>603.0</ele><time>2026-04-27T07:33:45Z</time></trkpt><trkpt lat="39.52083525824322" lon="16.058724600949255"><ele>605.0</ele><time>2026-04-27T07:33:46Z</time></trkpt><trkpt lat="39.52077817720111" lon="16.058804739262268"><ele>607.0</ele><time>2026-04-27T07:33:47Z</time></trkpt><trkpt lat="39.52074812304491" lon="16.058891850658952"><ele>609.0</ele><time>2026-04-27T07:33:48Z</time></trkpt><trkpt lat="39.52066930474081" lon="16.058898110066874"><ele>611.0</ele><time>2026-04-27T07:33:50Z</time></trkpt><trkpt lat="39.520594484659384" lon="16.058799104969207"><ele>613.0</ele><time>2026-04-27T07:33:52Z</time></trkpt><trkpt lat="39.5205933005007" lon="16.05871401179846"><ele>613.0</ele><time>2026-04-27T07:33:53Z</time></trkpt><trkpt lat="39.5206098984391" lon="16.058594087565695"><ele>613.0</ele><time>2026-04-27T07:33:54Z</time></trkpt><trkpt lat="39.52062203710955" lon="16.058437185865806"><ele>613.0</ele><time>2026-04-27T07:33:55Z</time></trkpt><trkpt lat="39.52060949499572" lon="16.05830951092423"><ele>613.0</ele><time>2026-04-27T07:33:56Z</time></trkpt><trkpt lat="39.52058709019848" lon="16.058217408644282"><ele>613.0</ele><time>2026-04-27T07:33:57Z</time></trkpt><trkpt lat="39.52063763013079" lon="16.05808900820925"><ele>619.4</ele><time>2026-04-27T07:33:59Z</time></trkpt><trkpt lat="39.52071541250307" lon="16.057991679545538"><ele>625.8</ele><time>2026-04-27T07:34:00Z</time></trkpt><trkpt lat="39.52079324492285" lon="16.057902081081906"><ele>632.2</ele><time>2026-04-27T07:34:01Z</time></trkpt><trkpt lat="39.520878727565915" lon="16.057838607952913"><ele>638.6</ele><time>2026-04-27T07:34:02Z</time></trkpt><trkpt lat="39.52098261108498" lon="16.057793114145905"><ele>645.0</ele><time>2026-04-27T07:34:03Z</time></trkpt><trkpt lat="39.521100457288966" lon="16.057760250142277"><ele>645.0</ele><time>2026-04-27T07:34:04Z</time></trkpt><trkpt lat="39.521199840246474" lon="16.05771250133446"><ele>645.0</ele><time>2026-04-27T07:34:05Z</time></trkpt><trkpt lat="39.52128864016281" lon="16.057661007237375"><ele>645.0</ele><time>2026-04-27T07:34:06Z</time></trkpt><trkpt lat="39.521393906544844" lon="16.057603155924767"><ele>645.0</ele><time>2026-04-27T07:34:07Z</time></trkpt><trkpt lat="39.521496153669695" lon="16.057540472698783"><ele>645.0</ele><time>2026-04-27T07:34:08Z</time></trkpt><trkpt lat="39.521587557584084" lon="16.057470361047173"><ele>647.25</ele><time>2026-04-27T07:34:08.999Z</time></trkpt><trkpt lat="39.52167211926209" lon="16.057379397498824"><ele>649.5</ele><time>2026-04-27T07:34:09.999Z</time></trkpt><trkpt lat="39.521754062361666" lon="16.057249862478585"><ele>651.75</ele><time>2026-04-27T07:34:10.999Z</time></trkpt><trkpt lat="39.52183272517793" lon="16.057111643643967"><ele>654.0</ele><time>2026-04-27T07:34:11.999Z</time></trkpt><trkpt lat="39.52191216705233" lon="16.056991421239314"><ele>654.0</ele><time>2026-04-27T07:34:12.999Z</time></trkpt><trkpt lat="39.521983172273906" lon="16.056883099734115"><ele>654.0</ele><time>2026-04-27T07:34:13.999Z</time></trkpt><trkpt lat="39.522035312104485" lon="16.056795769730424"><ele>654.0</ele><time>2026-04-27T07:34:14.999Z</time></trkpt><trkpt lat="39.52206236583853" lon="16.0567195416285"><ele>654.0</ele><time>2026-04-27T07:34:15.999Z</time></trkpt><trkpt lat="39.522078609355994" lon="16.05662414782727"><ele>654.0</ele><time>2026-04-27T07:34:16.999Z</time></trkpt><trkpt lat="39.52207767186029" lon="16.056516255148594"><ele>654.0</ele><time>2026-04-27T07:34:17.999Z</time></trkpt><trkpt lat="39.52203785573273" lon="16.056393075750222"><ele>655.6</ele><time>2026-04-27T07:34:18.999Z</time></trkpt><trkpt lat="39.521988276621684" lon="16.05625823190386"><ele>657.2</ele><time>2026-04-27T07:34:19.999Z</time></trkpt><trkpt lat="39.52193436889705" lon="16.056125302289242"><ele>658.8000000000001</ele><time>2026-04-27T07:34:20.999Z</time></trkpt><trkpt lat="39.52189572506355" lon="16.055987383762073"><ele>660.4000000000001</ele><time>2026-04-27T07:34:21.999Z</time></trkpt><trkpt lat="39.52185939118415" lon="16.05587023005129"><ele>662.0</ele><time>2026-04-27T07:34:22.999Z</time></trkpt><trkpt lat="39.521836331392116" lon="16.055761657816497"><ele>664.2</ele><time>2026-04-27T07:34:23.999Z</time></trkpt><trkpt lat="39.5218315757733" lon="16.05566430508047"><ele>666.4000000000001</ele><time>2026-04-27T07:34:24.999Z</time></trkpt><trkpt lat="39.521861218245704" lon="16.055568984276338"><ele>668.5999999999999</ele><time>2026-04-27T07:34:25.999Z</time></trkpt><trkpt lat="39.521885142037455" lon="16.05545472494782"><ele>670.8</ele><time>2026-04-27T07:34:26.999Z</time></trkpt><trkpt lat="39.52192963468922" lon="16.05531004293728"><ele>673.0</ele><time>2026-04-27T07:34:27.999Z</time></trkpt><trkpt lat="39.52196839534678" lon="16.055163093428753"><ele>673.0</ele><time>2026-04-27T07:34:28.999Z</time></trkpt><trkpt lat="39.52198174660398" lon="16.055061456251316"><ele>673.0</ele><time>2026-04-27T07:34:29.999Z</time></trkpt><trkpt lat="39.52197236473877" lon="16.054963237077665"><ele>673.0</ele><time>2026-04-27T07:34:30.999Z</time></trkpt><trkpt lat="39.52194242139702" lon="16.05485271334835"><ele>673.0</ele><time>2026-04-27T07:34:31.999Z</time></trkpt><trkpt lat="39.521912721973685" lon="16.054732506214904"><ele>673.0</ele><time>2026-04-27T07:34:32.999Z</time></trkpt><trkpt lat="39.52188004448151" lon="16.054632623562043"><ele>673.0</ele><time>2026-04-27T07:34:33.999Z</time></trkpt><trkpt lat="39.52183320647525" lon="16.05453642252891"><ele>672.0</ele><time>2026-04-27T07:34:34.999Z</time></trkpt><trkpt lat="39.521808564653035" lon="16.054416156366955"><ele>671.0</ele><time>2026-04-27T07:34:36.999Z</time></trkpt><trkpt lat="39.52190910068289" lon="16.054323032772626"><ele>670.0</ele><time>2026-04-27T07:34:38.999Z</time></trkpt><trkpt lat="39.52200055937403" lon="16.05428916091174"><ele>669.0</ele><time>2026-04-27T07:34:39.999Z</time></trkpt><trkpt lat="39.52210325814276" lon="16.05426823842309"><ele>668.0</ele><time>2026-04-27T07:34:40.999Z</time></trkpt><trkpt lat="39.52221663010676" lon="16.054216358335175"><ele>668.0</ele><time>2026-04-27T07:34:41.999Z</time></trkpt><trkpt lat="39.52233436346188" lon="16.05414183214917"><ele>668.0</ele><time>2026-04-27T07:34:42.999Z</time></trkpt><trkpt lat="39.52241323526801" lon="16.05404355994912"><ele>668.0</ele><time>2026-04-27T07:34:43.999Z</time></trkpt><trkpt lat="39.52246481781099" lon="16.053962610903135"><ele>668.0</ele><time>2026-04-27T07:34:44.999Z</time></trkpt><trkpt lat="39.52249060902322" lon="16.05387307511406"><ele>668.0</ele><time>2026-04-27T07:34:45.999Z</time></trkpt><trkpt lat="39.52249203371256" lon="16.05378254453507"><ele>670.3333333333333</ele><time>2026-04-27T07:34:46.999Z</time></trkpt><trkpt lat="39.52247004646509" lon="16.05368969517128"><ele>672.6666666666666</ele><time>2026-04-27T07:34:47.999Z</time></trkpt><trkpt lat="39.52240889966575" lon="16.05357673839585"><ele>675.0</ele><time>2026-04-27T07:34:48.999Z</time></trkpt><trkpt lat="39.52236029630683" lon="16.05346609455651"><ele>677.3333333333334</ele><time>2026-04-27T07:34:49.999Z</time></trkpt><trkpt lat="39.52232917135372" lon="16.053361610462268"><ele>679.6666666666667</ele><time>2026-04-27T07:34:50.999Z</time></trkpt><trkpt lat="39.522325672095185" lon="16.053266087090734"><ele>682.0</ele><time>2026-04-27T07:34:51.999Z</time></trkpt><trkpt lat="39.52233313446183" lon="16.053170376178944"><ele>687.1666666666667</ele><time>2026-04-27T07:34:52.999Z</time></trkpt><trkpt lat="39.52235472360764" lon="16.053087461088538"><ele>692.3333333333334</ele><time>2026-04-27T07:34:53.999Z</time></trkpt><trkpt lat="39.52233648380751" lon="16.05299615042671"><ele>697.5</ele><time>2026-04-27T07:34:55.999Z</time></trkpt><trkpt lat="39.52226782268021" lon="16.05299354486955"><ele>702.6666666666666</ele><time>2026-04-27T07:34:56.999Z</time></trkpt><trkpt lat="39.52219833911421" lon="16.053031700483817"><ele>707.8333333333333</ele><time>2026-04-27T07:34:57.999Z</time></trkpt><trkpt lat="39.52214035109505" lon="16.053091126946736"><ele>713.0</ele><time>2026-04-27T07:34:58.999Z</time></trkpt><trkpt lat="39.522085515089934" lon="16.053186115964646"><ele>714.5</ele><time>2026-04-27T07:34:59.999Z</time></trkpt><trkpt lat="39.522030208607184" lon="16.053303217541224"><ele>716.0</ele><time>2026-04-27T07:35:00.999Z</time></trkpt><trkpt lat="39.521989022917055" lon="16.05339133290963"><ele>717.5</ele><time>2026-04-27T07:35:01.999Z</time></trkpt><trkpt lat="39.52192962491963" lon="16.053447937530173"><ele>719.0</ele><time>2026-04-27T07:35:03.999Z</time></trkpt><trkpt lat="39.52188334236769" lon="16.053377779645235"><ele>720.5</ele><time>2026-04-27T07:35:05.999Z</time></trkpt><trkpt lat="39.521870649475396" lon="16.053291178918116"><ele>722.0</ele><time>2026-04-27T07:35:06.999Z</time></trkpt><trkpt lat="39.521872056890096" lon="16.053185710395752"><ele>722.0</ele><time>2026-04-27T07:35:07.999Z</time></trkpt><trkpt lat="39.521893986896565" lon="16.05306885711991"><ele>722.0</ele><time>2026-04-27T07:35:08.999Z</time></trkpt><trkpt lat="39.52194707461689" lon="16.052945626676298"><ele>722.0</ele><time>2026-04-27T07:35:09.999Z</time></trkpt><trkpt lat="39.52200358344674" lon="16.05285314211772"><ele>722.0</ele><time>2026-04-27T07:35:10.999Z</time></trkpt><trkpt lat="39.52207467674337" lon="16.052804364850804"><ele>722.0</ele><time>2026-04-27T07:35:11.999Z</time></trkpt><trkpt lat="39.52216539728195" lon="16.05275933816804"><ele>719.75</ele><time>2026-04-27T07:35:12.999Z</time></trkpt><trkpt lat="39.522286373928125" lon="16.052707727092102"><ele>717.5</ele><time>2026-04-27T07:35:13.999Z</time></trkpt><trkpt lat="39.52242239924803" lon="16.05264470954259"><ele>715.25</ele><time>2026-04-27T07:35:14.999Z</time></trkpt><trkpt lat="39.52253283388987" lon="16.052574719269156"><ele>713.0</ele><time>2026-04-27T07:35:15.998Z</time></trkpt><trkpt lat="39.52261162836901" lon="16.052511333676918"><ele>713.0</ele><time>2026-04-27T07:35:16.998Z</time></trkpt><trkpt lat="39.52270498707832" lon="16.052463076259365"><ele>713.0</ele><time>2026-04-27T07:35:17.998Z</time></trkpt><trkpt lat="39.522803792717994" lon="16.05241316382472"><ele>713.0</ele><time>2026-04-27T07:35:18.998Z</time></trkpt><trkpt lat="39.52291148063795" lon="16.052369310422666"><ele>713.0</ele><time>2026-04-27T07:35:19.998Z</time></trkpt><trkpt lat="39.523029645740046" lon="16.052339672289943"><ele>713.0</ele><time>2026-04-27T07:35:20.998Z</time></trkpt><trkpt lat="39.52312565145317" lon="16.052322204529275"><ele>712.0</ele><time>2026-04-27T07:35:21.998Z</time></trkpt><trkpt lat="39.52321760566389" lon="16.052310584526065"><ele>711.0</ele><time>2026-04-27T07:35:22.998Z</time></trkpt><trkpt lat="39.523304190793255" lon="16.0523201573694"><ele>710.0</ele><time>2026-04-27T07:35:23.998Z</time></trkpt><trkpt lat="39.523386325734386" lon="16.05236327375453"><ele>709.0</ele><time>2026-04-27T07:35:24.998Z</time></trkpt><trkpt lat="39.523472584551136" lon="16.052419507060126"><ele>708.0</ele><time>2026-04-27T07:35:25.998Z</time></trkpt><trkpt lat="39.52355917533637" lon="16.05247684171266"><ele>708.0</ele><time>2026-04-27T07:35:27Z</time></trkpt><trkpt lat="39.52363083018882" lon="16.05248902575169"><ele>708.0</ele><time>2026-04-27T07:35:28Z</time></trkpt><trkpt lat="39.523701843677216" lon="16.052469577880288"><ele>708.0</ele><time>2026-04-27T07:35:29Z</time></trkpt><trkpt lat="39.523751199994415" lon="16.05241077380278"><ele>708.0</ele><time>2026-04-27T07:35:30Z</time></trkpt><trkpt lat="39.52378032861366" lon="16.052325875952636"><ele>708.0</ele><time>2026-04-27T07:35:31Z</time></trkpt><trkpt lat="39.523787288654574" lon="16.05215145640714"><ele>708.0</ele><time>2026-04-27T07:35:33Z</time></trkpt><trkpt lat="39.52380818711724" lon="16.05204858691147"><ele>713.4</ele><time>2026-04-27T07:35:34Z</time></trkpt><trkpt lat="39.52390445640105" lon="16.05194802055261"><ele>718.8</ele><time>2026-04-27T07:35:36Z</time></trkpt><trkpt lat="39.52398738339125" lon="16.05191896184856"><ele>724.2</ele><time>2026-04-27T07:35:37Z</time></trkpt><trkpt lat="39.524085169694814" lon="16.051876035498704"><ele>729.6</ele><time>2026-04-27T07:35:38Z</time></trkpt><trkpt lat="39.524169101380295" lon="16.051812575569897"><ele>735.0</ele><time>2026-04-27T07:35:39Z</time></trkpt><trkpt lat="39.52421489046228" lon="16.05174575984206"><ele>735.0</ele><time>2026-04-27T07:35:41Z</time></trkpt><trkpt lat="39.524160611542904" lon="16.051668528582375"><ele>735.0</ele><time>2026-04-27T07:35:43Z</time></trkpt><trkpt lat="39.524033634288195" lon="16.051695889349094"><ele>735.0</ele><time>2026-04-27T07:35:45Z</time></trkpt><trkpt lat="39.52394962413671" lon="16.051733687497098"><ele>735.0</ele><time>2026-04-27T07:35:46Z</time></trkpt><trkpt lat="39.523849835544624" lon="16.051759166593296"><ele>735.0</ele><time>2026-04-27T07:35:47Z</time></trkpt><trkpt lat="39.523749609509025" lon="16.0518173955874"><ele>736.4</ele><time>2026-04-27T07:35:48Z</time></trkpt><trkpt lat="39.523663203632246" lon="16.051871079718854"><ele>737.8</ele><time>2026-04-27T07:35:49Z</time></trkpt><trkpt lat="39.523595373333606" lon="16.051925025193302"><ele>739.2</ele><time>2026-04-27T07:35:50Z</time></trkpt><trkpt lat="39.52348879784362" lon="16.051943264668896"><ele>740.6</ele><time>2026-04-27T07:35:52Z</time></trkpt><trkpt lat="39.523410912375965" lon="16.05191174445022"><ele>742.0</ele><time>2026-04-27T07:35:53Z</time></trkpt><trkpt lat="39.52331087589128" lon="16.05185164263707"><ele>742.0</ele><time>2026-04-27T07:35:54Z</time></trkpt><trkpt lat="39.52317668434211" lon="16.051785981043583"><ele>742.0</ele><time>2026-04-27T07:35:55Z</time></trkpt><trkpt lat="39.52305443865506" lon="16.051743328738755"><ele>742.0</ele><time>2026-04-27T07:35:56Z</time></trkpt><trkpt lat="39.52295763908338" lon="16.0517144912348"><ele>742.0</ele><time>2026-04-27T07:35:57Z</time></trkpt><trkpt lat="39.522868509498046" lon="16.051664301166156"><ele>747.8</ele><time>2026-04-27T07:35:58Z</time></trkpt><trkpt lat="39.52279066515212" lon="16.051598801670806"><ele>753.6</ele><time>2026-04-27T07:35:59Z</time></trkpt><trkpt lat="39.522696308730325" lon="16.051530215472965"><ele>759.4</ele><time>2026-04-27T07:36:00Z</time></trkpt><trkpt lat="39.52258916960509" lon="16.051486930884245"><ele>765.1999999999999</ele><time>2026-04-27T07:36:01Z</time></trkpt><trkpt lat="39.522515487335454" lon="16.051475289440152"><ele>771.0</ele><time>2026-04-27T07:36:02Z</time></trkpt><trkpt lat="39.522447932710044" lon="16.051502592485953"><ele>771.0</ele><time>2026-04-27T07:36:03Z</time></trkpt><trkpt lat="39.52235990277615" lon="16.051565428579966"><ele>771.0</ele><time>2026-04-27T07:36:04Z</time></trkpt><trkpt lat="39.52225533868073" lon="16.051613701051327"><ele>771.0</ele><time>2026-04-27T07:36:05Z</time></trkpt><trkpt lat="39.522146827607266" lon="16.051632730232818"><ele>771.0</ele><time>2026-04-27T07:36:06Z</time></trkpt><trkpt lat="39.522041325915716" lon="16.051628283397516"><ele>771.0</ele><time>2026-04-27T07:36:07Z</time></trkpt><trkpt lat="39.521931600060626" lon="16.05160302508813"><ele>773.1999999999999</ele><time>2026-04-27T07:36:08Z</time></trkpt><trkpt lat="39.52181826097754" lon="16.05157504926284"><ele>775.4</ele><time>2026-04-27T07:36:09Z</time></trkpt><trkpt lat="39.52170753300248" lon="16.051553608664666"><ele>777.6</ele><time>2026-04-27T07:36:10Z</time></trkpt><trkpt lat="39.52161613275048" lon="16.05153073249506"><ele>779.8</ele><time>2026-04-27T07:36:11Z</time></trkpt><trkpt lat="39.521532713726856" lon="16.051476968598806"><ele>782.0</ele><time>2026-04-27T07:36:11.999Z</time></trkpt><trkpt lat="39.52143073527977" lon="16.051391715563376"><ele>782.0</ele><time>2026-04-27T07:36:12.999Z</time></trkpt><trkpt lat="39.52134582090295" lon="16.051301861107202"><ele>782.0</ele><time>2026-04-27T07:36:13.999Z</time></trkpt><trkpt lat="39.52125712783688" lon="16.051196047566346"><ele>782.0</ele><time>2026-04-27T07:36:14.999Z</time></trkpt><trkpt lat="39.52117388551034" lon="16.051087020401084"><ele>782.0</ele><time>2026-04-27T07:36:15.999Z</time></trkpt><trkpt lat="39.52108785934224" lon="16.05099609287674"><ele>781.2</ele><time>2026-04-27T07:36:16.999Z</time></trkpt><trkpt lat="39.52101479490225" lon="16.05094470675325"><ele>780.4000000000001</ele><time>2026-04-27T07:36:17.999Z</time></trkpt><trkpt lat="39.52092516871084" lon="16.050932332664527"><ele>779.5999999999999</ele><time>2026-04-27T07:36:19.999Z</time></trkpt><trkpt lat="39.5208690484517" lon="16.050970938409503"><ele>778.8</ele><time>2026-04-27T07:36:20.999Z</time></trkpt><trkpt lat="39.52076637875213" lon="16.05101859778144"><ele>778.0</ele><time>2026-04-27T07:36:21.999Z</time></trkpt><trkpt lat="39.52064705407415" lon="16.05110992981607"><ele>778.0</ele><time>2026-04-27T07:36:22.999Z</time></trkpt><trkpt lat="39.520536805597914" lon="16.0511997871528"><ele>778.0</ele><time>2026-04-27T07:36:23.999Z</time></trkpt><trkpt lat="39.520449677399796" lon="16.05125541386829"><ele>778.0</ele><time>2026-04-27T07:36:24.999Z</time></trkpt><trkpt lat="39.52038731501922" lon="16.051297313720607"><ele>778.0</ele><time>2026-04-27T07:36:25.999Z</time></trkpt><trkpt lat="39.52027253779803" lon="16.051310048000673"><ele>778.0</ele><time>2026-04-27T07:36:27.999Z</time></trkpt><trkpt lat="39.52020676340177" lon="16.05127954251925"><ele>777.25</ele><time>2026-04-27T07:36:28.999Z</time></trkpt><trkpt lat="39.52014189031177" lon="16.05123032275118"><ele>776.5</ele><time>2026-04-27T07:36:29.999Z</time></trkpt><trkpt lat="39.52008551872169" lon="16.05114268940905"><ele>775.75</ele><time>2026-04-27T07:36:30.999Z</time></trkpt><trkpt lat="39.520001621812355" lon="16.05098968288397"><ele>775.0</ele><time>2026-04-27T07:36:31.999Z</time></trkpt><trkpt lat="39.51990954285796" lon="16.050834670038288"><ele>778.8</ele><time>2026-04-27T07:36:32.999Z</time></trkpt><trkpt lat="39.519827334792296" lon="16.0507027316838"><ele>782.6</ele><time>2026-04-27T07:36:33.999Z</time></trkpt><trkpt lat="39.51973419014278" lon="16.050605451923303"><ele>786.4000000000001</ele><time>2026-04-27T07:36:34.999Z</time></trkpt><trkpt lat="39.51964910298226" lon="16.050537689185457"><ele>790.2</ele><time>2026-04-27T07:36:35.999Z</time></trkpt><trkpt lat="39.51959613921296" lon="16.050488079392593"><ele>794.0</ele><time>2026-04-27T07:36:36.999Z</time></trkpt><trkpt lat="39.51950808130898" lon="16.05044344302131"><ele>794.0000000000001</ele><time>2026-04-27T07:36:38.999Z</time></trkpt><trkpt lat="39.51943317169018" lon="16.05047711737533"><ele>794.0</ele><time>2026-04-27T07:36:39.999Z</time></trkpt><trkpt lat="39.51937600922693" lon="16.050526469871752"><ele>794.0</ele><time>2026-04-27T07:36:40.999Z</time></trkpt><trkpt lat="39.5192988421409" lon="16.05063242302352"><ele>794.0</ele><time>2026-04-27T07:36:42.999Z</time></trkpt><trkpt lat="39.51921885844071" lon="16.05060403125932"><ele>794.0000000000001</ele><time>2026-04-27T07:36:45.999Z</time></trkpt><trkpt lat="39.519186399379365" lon="16.05052711861983"><ele>794.0</ele><time>2026-04-27T07:36:46.999Z</time></trkpt><trkpt lat="39.51913803200728" lon="16.05042633619807"><ele>794.0</ele><time>2026-04-27T07:36:47.999Z</time></trkpt><trkpt lat="39.51906994127305" lon="16.050310171617657"><ele>794.0</ele><time>2026-04-27T07:36:48.999Z</time></trkpt><trkpt lat="39.518994319987215" lon="16.050207715904005"><ele>794.0</ele><time>2026-04-27T07:36:49.999Z</time></trkpt><trkpt lat="39.51893300780937" lon="16.050118805840658"><ele>794.0</ele><time>2026-04-27T07:36:50.999Z</time></trkpt><trkpt lat="39.51889054041717" lon="16.0500555893796"><ele>794.0</ele><time>2026-04-27T07:36:51.999Z</time></trkpt><trkpt lat="39.51886764790207" lon="16.04996501322875"><ele>797.5000000000001</ele><time>2026-04-27T07:36:52.999Z</time></trkpt><trkpt lat="39.51884103681408" lon="16.049864627691285"><ele>801.0</ele><time>2026-04-27T07:36:53.999Z</time></trkpt><trkpt lat="39.518794665434044" lon="16.049802073506285"><ele>804.5</ele><time>2026-04-27T07:36:54.999Z</time></trkpt><trkpt lat="39.51872247075761" lon="16.049790794838472"><ele>808.0</ele><time>2026-04-27T07:36:55.999Z</time></trkpt><trkpt lat="39.51864471362241" lon="16.04981590261639"><ele>811.5000000000001</ele><time>2026-04-27T07:36:56.999Z</time></trkpt><trkpt lat="39.51855951992888" lon="16.049876145368433"><ele>815.0</ele><time>2026-04-27T07:36:57.999Z</time></trkpt><trkpt lat="39.51849688973572" lon="16.049942404565307"><ele>815.0</ele><time>2026-04-27T07:36:58.999Z</time></trkpt><trkpt lat="39.518416354018356" lon="16.049940134927713"><ele>815.0</ele><time>2026-04-27T07:37:00.999Z</time></trkpt><trkpt lat="39.518353235874834" lon="16.049773990925313"><ele>815.0</ele><time>2026-04-27T07:37:02.999Z</time></trkpt><trkpt lat="39.518321501894675" lon="16.0496629209191"><ele>815.0</ele><time>2026-04-27T07:37:03.999Z</time></trkpt><trkpt lat="39.51828416361953" lon="16.049593572296118"><ele>815.0</ele><time>2026-04-27T07:37:04.999Z</time></trkpt><trkpt lat="39.5181429201155" lon="16.049640589791885"><ele>815.0000000000001</ele><time>2026-04-27T07:37:06.999Z</time></trkpt><trkpt lat="39.518053504545314" lon="16.04967014857665"><ele>815.0</ele><time>2026-04-27T07:37:07.999Z</time></trkpt><trkpt lat="39.51796571005631" lon="16.049682955967484"><ele>815.0</ele><time>2026-04-27T07:37:08.999Z</time></trkpt><trkpt lat="39.51789266015396" lon="16.04965649802875"><ele>815.0</ele><time>2026-04-27T07:37:09.999Z</time></trkpt><trkpt lat="39.517820678677374" lon="16.049620891234543"><ele>815.0000000000001</ele><time>2026-04-27T07:37:10.999Z</time></trkpt><trkpt lat="39.51770875003989" lon="16.049640780104802"><ele>815.0</ele><time>2026-04-27T07:37:12.999Z</time></trkpt><trkpt lat="39.51765042318951" lon="16.049771639905092"><ele>816.3333333333334</ele><time>2026-04-27T07:37:14.999Z</time></trkpt><trkpt lat="39.51757241662887" lon="16.049873251619438"><ele>817.6666666666667</ele><time>2026-04-27T07:37:16.999Z</time></trkpt><trkpt lat="39.51750987143997" lon="16.049892726772125"><ele>819.0</ele><time>2026-04-27T07:37:17.999Z</time></trkpt><trkpt lat="39.51744370771377" lon="16.049859589425175"><ele>820.3333333333333</ele><time>2026-04-27T07:37:18.999Z</time></trkpt><trkpt lat="39.517375340570986" lon="16.04983212553421"><ele>821.6666666666666</ele><time>2026-04-27T07:37:19.998Z</time></trkpt><trkpt lat="39.51730222566625" lon="16.049760731949124"><ele>823.0</ele><time>2026-04-27T07:37:20.998Z</time></trkpt><trkpt lat="39.517223203221484" lon="16.049669934412723"><ele>823.0</ele><time>2026-04-27T07:37:21.998Z</time></trkpt><trkpt lat="39.517110356805404" lon="16.049553505522663"><ele>823.0</ele><time>2026-04-27T07:37:22.998Z</time></trkpt><trkpt lat="39.51700517875874" lon="16.049460219500297"><ele>823.0</ele><time>2026-04-27T07:37:23.998Z</time></trkpt><trkpt lat="39.51689131243217" lon="16.049401935814814"><ele>823.0</ele><time>2026-04-27T07:37:24.998Z</time></trkpt><trkpt lat="39.516772895351544" lon="16.049340910620714"><ele>823.8</ele><time>2026-04-27T07:37:25.998Z</time></trkpt><trkpt lat="39.516667556983684" lon="16.049299146085726"><ele>824.5999999999999</ele><time>2026-04-27T07:37:26.998Z</time></trkpt><trkpt lat="39.51659817067121" lon="16.04926409052057"><ele>825.4000000000001</ele><time>2026-04-27T07:37:27.998Z</time></trkpt><trkpt lat="39.516518653814366" lon="16.04920376427066"><ele>826.2</ele><time>2026-04-27T07:37:28.998Z</time></trkpt><trkpt lat="39.51644830393116" lon="16.04913487574892"><ele>827.0</ele><time>2026-04-27T07:37:29.998Z</time></trkpt><trkpt lat="39.516416240619336" lon="16.049018394884765"><ele>827.0</ele><time>2026-04-27T07:37:30.998Z</time></trkpt><trkpt lat="39.516400887250256" lon="16.04886580040946"><ele>827.0</ele><time>2026-04-27T07:37:31.998Z</time></trkpt><trkpt lat="39.51634401004097" lon="16.048763681490765"><ele>827.0</ele><time>2026-04-27T07:37:33Z</time></trkpt><trkpt lat="39.51628275673578" lon="16.04868838781597"><ele>827.0</ele><time>2026-04-27T07:37:34Z</time></trkpt><trkpt lat="39.51620863863313" lon="16.04864426737513"><ele>827.0</ele><time>2026-04-27T07:37:35Z</time></trkpt><trkpt lat="39.51610602558296" lon="16.048618561573786"><ele>824.5</ele><time>2026-04-27T07:37:36Z</time></trkpt><trkpt lat="39.5159441364507" lon="16.048575790099488"><ele>822.0</ele><time>2026-04-27T07:37:37Z</time></trkpt><trkpt lat="39.51581536508747" lon="16.048546066928807"><ele>819.5</ele><time>2026-04-27T07:37:38Z</time></trkpt><trkpt lat="39.515698101609544" lon="16.048518817272026"><ele>817.0</ele><time>2026-04-27T07:37:39Z</time></trkpt><trkpt lat="39.515599981587215" lon="16.048492745961877"><ele>817.0</ele><time>2026-04-27T07:37:40Z</time></trkpt><trkpt lat="39.51548630305517" lon="16.048471413564762"><ele>817.0</ele><time>2026-04-27T07:37:41Z</time></trkpt><trkpt lat="39.515379641566795" lon="16.04847554952852"><ele>817.0</ele><time>2026-04-27T07:37:42Z</time></trkpt><trkpt lat="39.51525242507648" lon="16.048527229159955"><ele>817.0</ele><time>2026-04-27T07:37:43Z</time></trkpt><trkpt lat="39.5151247165123" lon="16.048568730699436"><ele>816.0</ele><time>2026-04-27T07:37:44Z</time></trkpt><trkpt lat="39.515013986718714" lon="16.048614610243085"><ele>815.0</ele><time>2026-04-27T07:37:45Z</time></trkpt><trkpt lat="39.51490794914204" lon="16.04864601659067"><ele>814.0</ele><time>2026-04-27T07:37:46Z</time></trkpt><trkpt lat="39.51480670609675" lon="16.04865274115784"><ele>813.0</ele><time>2026-04-27T07:37:47Z</time></trkpt><trkpt lat="39.514682136280136" lon="16.048635519550363"><ele>812.0</ele><time>2026-04-27T07:37:48Z</time></trkpt><trkpt lat="39.514555204069545" lon="16.048618466198043"><ele>811.0</ele><time>2026-04-27T07:37:49Z</time></trkpt><trkpt lat="39.51442963673524" lon="16.048632161080388"><ele>810.0</ele><time>2026-04-27T07:37:50Z</time></trkpt><trkpt lat="39.514293165520215" lon="16.04867155487905"><ele>809.0</ele><time>2026-04-27T07:37:51Z</time></trkpt><trkpt lat="39.51417291962841" lon="16.04871842461902"><ele>809.0</ele><time>2026-04-27T07:37:52Z</time></trkpt><trkpt lat="39.51405805288859" lon="16.04877263035926"><ele>809.0</ele><time>2026-04-27T07:37:53Z</time></trkpt><trkpt lat="39.51393901945018" lon="16.048833668709808"><ele>809.0</ele><time>2026-04-27T07:37:54Z</time></trkpt><trkpt lat="39.51380347727446" lon="16.048935813153708"><ele>809.0</ele><time>2026-04-27T07:37:55Z</time></trkpt><trkpt lat="39.513663094116" lon="16.0490366955049"><ele>812.25</ele><time>2026-04-27T07:37:56Z</time></trkpt><trkpt lat="39.51353001830761" lon="16.049128426835278"><ele>815.5</ele><time>2026-04-27T07:37:57Z</time></trkpt><trkpt lat="39.513404710443965" lon="16.049188892505654"><ele>818.75</ele><time>2026-04-27T07:37:58Z</time></trkpt><trkpt lat="39.513306179973384" lon="16.049215634713264"><ele>822.0</ele><time>2026-04-27T07:37:59Z</time></trkpt><trkpt lat="39.513215294449054" lon="16.049235445038413"><ele>822.0</ele><time>2026-04-27T07:38:00Z</time></trkpt><trkpt lat="39.51313534876916" lon="16.049239730491983"><ele>822.0</ele><time>2026-04-27T07:38:01Z</time></trkpt><trkpt lat="39.51305739207256" lon="16.04920942230053"><ele>822.0</ele><time>2026-04-27T07:38:02Z</time></trkpt><trkpt lat="39.51299061637662" lon="16.04915107637848"><ele>822.0</ele><time>2026-04-27T07:38:03Z</time></trkpt><trkpt lat="39.51290349784671" lon="16.049079366032508"><ele>822.0</ele><time>2026-04-27T07:38:04Z</time></trkpt><trkpt lat="39.51282109713003" lon="16.049035308707907"><ele>822.0</ele><time>2026-04-27T07:38:05Z</time></trkpt><trkpt lat="39.51271118380416" lon="16.049006247624025"><ele>823.4000000000001</ele><time>2026-04-27T07:38:06Z</time></trkpt><trkpt lat="39.51260068416007" lon="16.048970330193598"><ele>824.8000000000001</ele><time>2026-04-27T07:38:07Z</time></trkpt><trkpt lat="39.51249968777894" lon="16.048920026786956"><ele>826.2</ele><time>2026-04-27T07:38:08Z</time></trkpt><trkpt lat="39.51240685671996" lon="16.048845823501697"><ele>827.6</ele><time>2026-04-27T07:38:09Z</time></trkpt><trkpt lat="39.512324938009684" lon="16.048779282766365"><ele>829.0</ele><time>2026-04-27T07:38:10Z</time></trkpt><trkpt lat="39.51225188315455" lon="16.04871110712227"><ele>829.0</ele><time>2026-04-27T07:38:11Z</time></trkpt><trkpt lat="39.512174753907935" lon="16.048635087505378"><ele>829.0</ele><time>2026-04-27T07:38:12Z</time></trkpt><trkpt lat="39.5120866711048" lon="16.048535190180136"><ele>829.0</ele><time>2026-04-27T07:38:13Z</time></trkpt><trkpt lat="39.51200111618942" lon="16.048464843917213"><ele>829.0</ele><time>2026-04-27T07:38:14Z</time></trkpt><trkpt lat="39.51191986721943" lon="16.048433015615167"><ele>829.0</ele><time>2026-04-27T07:38:15Z</time></trkpt><trkpt lat="39.51183997389094" lon="16.048423701094634"><ele>832.2</ele><time>2026-04-27T07:38:16Z</time></trkpt><trkpt lat="39.51176624738676" lon="16.048433484382027"><ele>835.4000000000001</ele><time>2026-04-27T07:38:17Z</time></trkpt><trkpt lat="39.51169144804416" lon="16.048483703193064"><ele>838.6</ele><time>2026-04-27T07:38:18Z</time></trkpt><trkpt lat="39.5116089882633" lon="16.048551152258067"><ele>841.8</ele><time>2026-04-27T07:38:18.999Z</time></trkpt><trkpt lat="39.511500853248535" lon="16.04861680182247"><ele>845.0</ele><time>2026-04-27T07:38:19.999Z</time></trkpt><trkpt lat="39.511359749446896" lon="16.04869907248991"><ele>843.0</ele><time>2026-04-27T07:38:20.999Z</time></trkpt><trkpt lat="39.51122479736583" lon="16.048782019799823"><ele>841.0</ele><time>2026-04-27T07:38:21.999Z</time></trkpt><trkpt lat="39.511114573512316" lon="16.04883579647634"><ele>839.0</ele><time>2026-04-27T07:38:22.999Z</time></trkpt><trkpt lat="39.51101240495443" lon="16.048890477173465"><ele>837.0</ele><time>2026-04-27T07:38:23.999Z</time></trkpt><trkpt lat="39.510897896584794" lon="16.048948504095627"><ele>837.0</ele><time>2026-04-27T07:38:24.999Z</time></trkpt><trkpt lat="39.51077450084161" lon="16.048993148936873"><ele>837.0</ele><time>2026-04-27T07:38:25.999Z</time></trkpt><trkpt lat="39.51065116028402" lon="16.049014667097673"><ele>837.0</ele><time>2026-04-27T07:38:26.999Z</time></trkpt><trkpt lat="39.51053955771923" lon="16.04903328761827"><ele>837.0</ele><time>2026-04-27T07:38:27.999Z</time></trkpt><trkpt lat="39.510427990449536" lon="16.04904487069991"><ele>837.8</ele><time>2026-04-27T07:38:28.999Z</time></trkpt><trkpt lat="39.510312322548536" lon="16.049054444209478"><ele>838.6</ele><time>2026-04-27T07:38:29.999Z</time></trkpt><trkpt lat="39.5102054093005" lon="16.049071151153164"><ele>839.4</ele><time>2026-04-27T07:38:30.999Z</time></trkpt><trkpt lat="39.510106254884285" lon="16.049083264419405"><ele>840.1999999999999</ele><time>2026-04-27T07:38:31.999Z</time></trkpt><trkpt lat="39.51002303988864" lon="16.04906647795326"><ele>841.0</ele><time>2026-04-27T07:38:32.999Z</time></trkpt><trkpt lat="39.50994510755014" lon="16.04904037100201"><ele>840.9999999999999</ele><time>2026-04-27T07:38:33.999Z</time></trkpt><trkpt lat="39.5098602391327" lon="16.04902145780589"><ele>841.0</ele><time>2026-04-27T07:38:34.999Z</time></trkpt><trkpt lat="39.509782335624266" lon="16.04903064605995"><ele>841.0</ele><time>2026-04-27T07:38:35.999Z</time></trkpt><trkpt lat="39.50968080060108" lon="16.049073376855272"><ele>841.0</ele><time>2026-04-27T07:38:36.999Z</time></trkpt><trkpt lat="39.50959333527154" lon="16.04912732391226"><ele>840.9999999999999</ele><time>2026-04-27T07:38:37.999Z</time></trkpt><trkpt lat="39.509526615479075" lon="16.049167912578625"><ele>841.0</ele><time>2026-04-27T07:38:38.999Z</time></trkpt><trkpt lat="39.50949222660161" lon="16.049281810055582"><ele>846.0</ele><time>2026-04-27T07:38:40.999Z</time></trkpt><trkpt lat="39.50961500016414" lon="16.04938500015542"><ele>851.0</ele><time>2026-04-27T07:38:42.999Z</time></trkpt><trkpt lat="39.50970632359082" lon="16.049423705687044"><ele>855.9999999999999</ele><time>2026-04-27T07:38:43.999Z</time></trkpt><trkpt lat="39.50979648239444" lon="16.049422292239672"><ele>861.0</ele><time>2026-04-27T07:38:44.999Z</time></trkpt><trkpt lat="39.50990492537578" lon="16.049430507837105"><ele>866.0</ele><time>2026-04-27T07:38:45.999Z</time></trkpt><trkpt lat="39.51005330381597" lon="16.049453208835267"><ele>866.0</ele><time>2026-04-27T07:38:46.999Z</time></trkpt><trkpt lat="39.51017060449405" lon="16.049485880407946"><ele>865.9999999999999</ele><time>2026-04-27T07:38:47.999Z</time></trkpt><trkpt lat="39.510262120956796" lon="16.04949363380414"><ele>865.9999999999999</ele><time>2026-04-27T07:38:48.999Z</time></trkpt><trkpt lat="39.51035187732887" lon="16.049494565199705"><ele>866.0</ele><time>2026-04-27T07:38:49.999Z</time></trkpt><trkpt lat="39.51041557009669" lon="16.04950731694807"><ele>866.0</ele><time>2026-04-27T07:38:50.999Z</time></trkpt><trkpt lat="39.51046214552103" lon="16.04960804620119"><ele>866.0</ele><time>2026-04-27T07:38:52.999Z</time></trkpt><trkpt lat="39.51041576820261" lon="16.049710428708096"><ele>865.9999999999999</ele><time>2026-04-27T07:38:54.999Z</time></trkpt><trkpt lat="39.51034795506867" lon="16.049742720851825"><ele>865.9999999999999</ele><time>2026-04-27T07:38:56.999Z</time></trkpt><trkpt lat="39.510249381762314" lon="16.04978222446687"><ele>866.0</ele><time>2026-04-27T07:38:57.999Z</time></trkpt><trkpt lat="39.5101406663774" lon="16.049832004784466"><ele>866.0</ele><time>2026-04-27T07:38:58.999Z</time></trkpt><trkpt lat="39.51001925511519" lon="16.04989359292066"><ele>868.5</ele><time>2026-04-27T07:38:59.999Z</time></trkpt><trkpt lat="39.50987167791562" lon="16.04999369964071"><ele>871.0</ele><time>2026-04-27T07:39:00.999Z</time></trkpt><trkpt lat="39.50974406734295" lon="16.050069800584996"><ele>873.5</ele><time>2026-04-27T07:39:01.999Z</time></trkpt><trkpt lat="39.5096228082798" lon="16.05010833644014"><ele>876.0</ele><time>2026-04-27T07:39:02.999Z</time></trkpt><trkpt lat="39.50949229245353" lon="16.050137301270787"><ele>876.8</ele><time>2026-04-27T07:39:03.999Z</time></trkpt><trkpt lat="39.509364333636626" lon="16.05016922942812"><ele>877.5999999999999</ele><time>2026-04-27T07:39:04.999Z</time></trkpt><trkpt lat="39.50925794641566" lon="16.050222616531034"><ele>878.4</ele><time>2026-04-27T07:39:05.999Z</time></trkpt><trkpt lat="39.509151358842765" lon="16.050293871838562"><ele>879.2</ele><time>2026-04-27T07:39:06.999Z</time></trkpt><trkpt lat="39.50909094891986" lon="16.050357140332757"><ele>880.0</ele><time>2026-04-27T07:39:07.999Z</time></trkpt><trkpt lat="39.50902210903869" lon="16.05042090317712"><ele>880.0</ele><time>2026-04-27T07:39:08.999Z</time></trkpt><trkpt lat="39.5089421802911" lon="16.050487611983808"><ele>880.0</ele><time>2026-04-27T07:39:09.999Z</time></trkpt><trkpt lat="39.50883015050601" lon="16.050570750999405"><ele>880.0</ele><time>2026-04-27T07:39:10.999Z</time></trkpt><trkpt lat="39.5087161424871" lon="16.05065461642165"><ele>880.0</ele><time>2026-04-27T07:39:11.999Z</time></trkpt><trkpt lat="39.50860622927044" lon="16.050727553976127"><ele>881.2</ele><time>2026-04-27T07:39:12.999Z</time></trkpt><trkpt lat="39.50851174821527" lon="16.050808483324637"><ele>882.4</ele><time>2026-04-27T07:39:13.999Z</time></trkpt><trkpt lat="39.508438068914316" lon="16.05090169529608"><ele>883.5999999999999</ele><time>2026-04-27T07:39:14.999Z</time></trkpt><trkpt lat="39.50834817505759" lon="16.05099511464053"><ele>884.8</ele><time>2026-04-27T07:39:15.999Z</time></trkpt><trkpt lat="39.50826073764765" lon="16.051089211090883"><ele>886.0</ele><time>2026-04-27T07:39:16.999Z</time></trkpt><trkpt lat="39.50818220597931" lon="16.05119037269044"><ele>886.0</ele><time>2026-04-27T07:39:17.999Z</time></trkpt><trkpt lat="39.50812302247567" lon="16.05129875779412"><ele>885.9999999999999</ele><time>2026-04-27T07:39:18.999Z</time></trkpt><trkpt lat="39.508062427795664" lon="16.051411399625348"><ele>885.9999999999999</ele><time>2026-04-27T07:39:19.999Z</time></trkpt><trkpt lat="39.508018511480934" lon="16.05151537147897"><ele>886.0</ele><time>2026-04-27T07:39:20.999Z</time></trkpt><trkpt lat="39.50797503970695" lon="16.05159697006085"><ele>886.0</ele><time>2026-04-27T07:39:21.999Z</time></trkpt><trkpt lat="39.507923081654" lon="16.051671620699196"><ele>885.4999999999999</ele><time>2026-04-27T07:39:23.999Z</time></trkpt><trkpt lat="39.50787667919378" lon="16.051735072182016"><ele>885.0</ele><time>2026-04-27T07:39:25.999Z</time></trkpt><trkpt lat="39.507851271304226" lon="16.05181862387075"><ele>884.5</ele><time>2026-04-27T07:39:28.998Z</time></trkpt><trkpt lat="39.50788043910303" lon="16.051935155005673"><ele>884.0</ele><time>2026-04-27T07:39:30.998Z</time></trkpt><trkpt lat="39.50791497444263" lon="16.052090527050137"><ele>883.4999999999999</ele><time>2026-04-27T07:39:32.998Z</time></trkpt><trkpt lat="39.50795486069737" lon="16.05218730932316"><ele>883.0</ele><time>2026-04-27T07:39:33.998Z</time></trkpt><trkpt lat="39.508002052925164" lon="16.052290530205262"><ele>883.0</ele><time>2026-04-27T07:39:34.998Z</time></trkpt><trkpt lat="39.508053362446134" lon="16.052377144898344"><ele>883.0</ele><time>2026-04-27T07:39:35.998Z</time></trkpt><trkpt lat="39.50810883458229" lon="16.052476735759047"><ele>883.0</ele><time>2026-04-27T07:39:36.998Z</time></trkpt><trkpt lat="39.50816539539056" lon="16.052606480694372"><ele>883.0</ele><time>2026-04-27T07:39:37.998Z</time></trkpt><trkpt lat="39.50823734376272" lon="16.052750131858907"><ele>883.0</ele><time>2026-04-27T07:39:39Z</time></trkpt><trkpt lat="39.50830172063423" lon="16.052889488227024"><ele>884.2</ele><time>2026-04-27T07:39:40Z</time></trkpt><trkpt lat="39.5083626145764" lon="16.052996022845402"><ele>885.4</ele><time>2026-04-27T07:39:41Z</time></trkpt><trkpt lat="39.508415121456586" lon="16.053085320749418"><ele>886.6000000000001</ele><time>2026-04-27T07:39:42Z</time></trkpt><trkpt lat="39.50843871158873" lon="16.053194910704608"><ele>887.8000000000001</ele><time>2026-04-27T07:39:43Z</time></trkpt><trkpt lat="39.50845106661324" lon="16.053323251425883"><ele>889.0</ele><time>2026-04-27T07:39:44Z</time></trkpt><trkpt lat="39.50845410862906" lon="16.053457908139045"><ele>891.8000000000001</ele><time>2026-04-27T07:39:45Z</time></trkpt><trkpt lat="39.5084732972328" lon="16.053618115264236"><ele>894.6000000000001</ele><time>2026-04-27T07:39:46Z</time></trkpt><trkpt lat="39.50850527940059" lon="16.053764648419858"><ele>897.4</ele><time>2026-04-27T07:39:47Z</time></trkpt><trkpt lat="39.50855129003127" lon="16.053904298464374"><ele>900.2</ele><time>2026-04-27T07:39:48Z</time></trkpt><trkpt lat="39.50857109298479" lon="16.054006561140465"><ele>903.0</ele><time>2026-04-27T07:39:49Z</time></trkpt><trkpt lat="39.50857477864326" lon="16.054153607278565"><ele>903.0</ele><time>2026-04-27T07:39:51Z</time></trkpt><trkpt lat="39.508489105862225" lon="16.054236500476335"><ele>903.0</ele><time>2026-04-27T07:39:53Z</time></trkpt><trkpt lat="39.508358897558495" lon="16.054178078353896"><ele>903.0</ele><time>2026-04-27T07:39:55Z</time></trkpt><trkpt lat="39.50827892625064" lon="16.05412630876908"><ele>903.0</ele><time>2026-04-27T07:39:56Z</time></trkpt><trkpt lat="39.5082045608378" lon="16.0540772835531"><ele>903.0</ele><time>2026-04-27T07:39:57Z</time></trkpt><trkpt lat="39.50810662610035" lon="16.054001331655215"><ele>903.0</ele><time>2026-04-27T07:39:58Z</time></trkpt><trkpt lat="39.50801276937333" lon="16.053947433740483"><ele>903.0</ele><time>2026-04-27T07:39:59Z</time></trkpt><trkpt lat="39.50795364139657" lon="16.053895670227696"><ele>903.0</ele><time>2026-04-27T07:40:00Z</time></trkpt><trkpt lat="39.507869241430114" lon="16.05380205767455"><ele>903.0</ele><time>2026-04-27T07:40:01Z</time></trkpt><trkpt lat="39.50776839479283" lon="16.053702204041087"><ele>903.0</ele><time>2026-04-27T07:40:02Z</time></trkpt><trkpt lat="39.50767101435128" lon="16.053631683979734"><ele>906.8</ele><time>2026-04-27T07:40:03Z</time></trkpt><trkpt lat="39.5075805278368" lon="16.053566934255308"><ele>910.5999999999999</ele><time>2026-04-27T07:40:04Z</time></trkpt><trkpt lat="39.5074940842869" lon="16.053504269563163"><ele>914.4000000000001</ele><time>2026-04-27T07:40:05Z</time></trkpt><trkpt lat="39.50736491696451" lon="16.053437922050595"><ele>918.2</ele><time>2026-04-27T07:40:07Z</time></trkpt><trkpt lat="39.50729949975827" lon="16.053461321723645"><ele>922.0</ele><time>2026-04-27T07:40:08Z</time></trkpt><trkpt lat="39.50720618658472" lon="16.053511124039865"><ele>922.0</ele><time>2026-04-27T07:40:09Z</time></trkpt><trkpt lat="39.507102429073555" lon="16.053593917425182"><ele>922.0</ele><time>2026-04-27T07:40:10Z</time></trkpt><trkpt lat="39.50701929196087" lon="16.05368322718341"><ele>922.0</ele><time>2026-04-27T07:40:11Z</time></trkpt><trkpt lat="39.50693837121727" lon="16.05370611556551"><ele>922.0</ele><time>2026-04-27T07:40:12Z</time></trkpt><trkpt lat="39.506871920781194" lon="16.053697777304496"><ele>922.0</ele><time>2026-04-27T07:40:13Z</time></trkpt><trkpt lat="39.50678276053876" lon="16.05367091810774"><ele>923.4999999999999</ele><time>2026-04-27T07:40:14Z</time></trkpt><trkpt lat="39.50668913745316" lon="16.053634245258202"><ele>925.0</ele><time>2026-04-27T07:40:15Z</time></trkpt><trkpt lat="39.506594887408184" lon="16.05364606234431"><ele>926.5</ele><time>2026-04-27T07:40:16Z</time></trkpt><trkpt lat="39.506520262889794" lon="16.053703978969843"><ele>928.0</ele><time>2026-04-27T07:40:17Z</time></trkpt><trkpt lat="39.50647248344989" lon="16.053768987924773"><ele>929.4999999999999</ele><time>2026-04-27T07:40:18Z</time></trkpt><trkpt lat="39.50640760678828" lon="16.0538333193771"><ele>931.0</ele><time>2026-04-27T07:40:19Z</time></trkpt><trkpt lat="39.50635683628777" lon="16.053890117054838"><ele>930.9999999999999</ele><time>2026-04-27T07:40:20Z</time></trkpt><trkpt lat="39.506292840703075" lon="16.05393532949979"><ele>931.0</ele><time>2026-04-27T07:40:21Z</time></trkpt><trkpt lat="39.506223847524474" lon="16.05398051107373"><ele>931.0</ele><time>2026-04-27T07:40:22Z</time></trkpt><trkpt lat="39.5061722117575" lon="16.054071947613796"><ele>931.0</ele><time>2026-04-27T07:40:23Z</time></trkpt><trkpt lat="39.50615640812101" lon="16.054200394003534"><ele>930.9999999999999</ele><time>2026-04-27T07:40:24Z</time></trkpt><trkpt lat="39.506143733594115" lon="16.05431497546405"><ele>931.0</ele><time>2026-04-27T07:40:24.999Z</time></trkpt><trkpt lat="39.50611994370705" lon="16.05444042323467"><ele>933.6666666666666</ele><time>2026-04-27T07:40:25.999Z</time></trkpt><trkpt lat="39.506100542733364" lon="16.054568566914348"><ele>936.3333333333333</ele><time>2026-04-27T07:40:26.999Z</time></trkpt><trkpt lat="39.50604953959719" lon="16.05465551926693"><ele>939.0</ele><time>2026-04-27T07:40:27.999Z</time></trkpt><trkpt lat="39.50599674179723" lon="16.054734172323037"><ele>941.6666666666667</ele><time>2026-04-27T07:40:28.999Z</time></trkpt><trkpt lat="39.50592856660144" lon="16.05479946778805"><ele>944.3333333333334</ele><time>2026-04-27T07:40:29.999Z</time></trkpt><trkpt lat="39.50585266346528" lon="16.054845172376094"><ele>947.0</ele><time>2026-04-27T07:40:30.999Z</time></trkpt><trkpt lat="39.50573498612757" lon="16.054856370624147"><ele>947.0</ele><time>2026-04-27T07:40:32.999Z</time></trkpt><trkpt lat="39.50564215092356" lon="16.054825428032647"><ele>947.0</ele><time>2026-04-27T07:40:33.999Z</time></trkpt><trkpt lat="39.505540996058635" lon="16.054776717714233"><ele>947.0</ele><time>2026-04-27T07:40:34.999Z</time></trkpt><trkpt lat="39.50544357684214" lon="16.05473682312152"><ele>947.0</ele><time>2026-04-27T07:40:35.999Z</time></trkpt><trkpt lat="39.505355146341955" lon="16.054747632696774"><ele>947.0</ele><time>2026-04-27T07:40:36.999Z</time></trkpt><trkpt lat="39.505267651336894" lon="16.054796098500738"><ele>951.4000000000001</ele><time>2026-04-27T07:40:37.999Z</time></trkpt><trkpt lat="39.50520451214631" lon="16.054847847651676"><ele>955.8000000000001</ele><time>2026-04-27T07:40:38.999Z</time></trkpt><trkpt lat="39.5051437877147" lon="16.0548968617271"><ele>960.2</ele><time>2026-04-27T07:40:39.999Z</time></trkpt><trkpt lat="39.50502825429259" lon="16.05494148946078"><ele>964.6</ele><time>2026-04-27T07:40:41.999Z</time></trkpt><trkpt lat="39.50496150703376" lon="16.05494400861962"><ele>969.0</ele><time>2026-04-27T07:40:42.999Z</time></trkpt><trkpt lat="39.50484583748099" lon="16.054918242057592"><ele>969.0</ele><time>2026-04-27T07:40:43.999Z</time></trkpt><trkpt lat="39.50472297597816" lon="16.054894022733173"><ele>969.0000000000001</ele><time>2026-04-27T07:40:44.999Z</time></trkpt><trkpt lat="39.50463148868581" lon="16.054865033479743"><ele>969.0000000000001</ele><time>2026-04-27T07:40:45.999Z</time></trkpt><trkpt lat="39.50454375926425" lon="16.05481534513757"><ele>969.0</ele><time>2026-04-27T07:40:46.999Z</time></trkpt><trkpt lat="39.50443289083789" lon="16.054738883087875"><ele>969.0</ele><time>2026-04-27T07:40:47.999Z</time></trkpt><trkpt lat="39.50432330574796" lon="16.05466201389468"><ele>970.0</ele><time>2026-04-27T07:40:48.999Z</time></trkpt><trkpt lat="39.50422933013143" lon="16.054636395160554"><ele>971.0</ele><time>2026-04-27T07:40:49.999Z</time></trkpt><trkpt lat="39.50414190726981" lon="16.054626334930965"><ele>972.0</ele><time>2026-04-27T07:40:50.999Z</time></trkpt><trkpt lat="39.50404330331826" lon="16.054641741412528"><ele>973.0</ele><time>2026-04-27T07:40:51.999Z</time></trkpt><trkpt lat="39.5039482095297" lon="16.054673113415554"><ele>974.0</ele><time>2026-04-27T07:40:52.999Z</time></trkpt><trkpt lat="39.50388962564266" lon="16.054716423938533"><ele>975.0</ele><time>2026-04-27T07:40:53.999Z</time></trkpt><trkpt lat="39.503828081383965" lon="16.054791375616137"><ele>975.0</ele><time>2026-04-27T07:40:54.999Z</time></trkpt><trkpt lat="39.5037961236969" lon="16.05486217324206"><ele>975.0</ele><time>2026-04-27T07:40:55.999Z</time></trkpt><trkpt lat="39.50374920908748" lon="16.05493785337381"><ele>975.0</ele><time>2026-04-27T07:40:56.999Z</time></trkpt><trkpt lat="39.50373548121118" lon="16.05503772761947"><ele>975.0</ele><time>2026-04-27T07:40:57.999Z</time></trkpt><trkpt lat="39.50375431618961" lon="16.055166498093822"><ele>975.0</ele><time>2026-04-27T07:40:58.999Z</time></trkpt><trkpt lat="39.50378548242146" lon="16.055332555764302"><ele>975.0</ele><time>2026-04-27T07:40:59.999Z</time></trkpt><trkpt lat="39.50381461146627" lon="16.055519074294416"><ele>969.6</ele><time>2026-04-27T07:41:00.999Z</time></trkpt><trkpt lat="39.50382584550509" lon="16.055670739202267"><ele>964.2</ele><time>2026-04-27T07:41:01.999Z</time></trkpt><trkpt lat="39.503846316136986" lon="16.05579386706536"><ele>958.8</ele><time>2026-04-27T07:41:02.999Z</time></trkpt><trkpt lat="39.50385009979042" lon="16.05588304537977"><ele>953.4</ele><time>2026-04-27T07:41:03.999Z</time></trkpt><trkpt lat="39.50381797819104" lon="16.056009561550457"><ele>948.0</ele><time>2026-04-27T07:41:05.999Z</time></trkpt><trkpt lat="39.50374693911973" lon="16.05610250629844"><ele>953.75</ele><time>2026-04-27T07:41:06.999Z</time></trkpt><trkpt lat="39.50363169064647" lon="16.05624357537212"><ele>959.5</ele><time>2026-04-27T07:41:07.999Z</time></trkpt><trkpt lat="39.50351156202118" lon="16.056370176087814"><ele>965.25</ele><time>2026-04-27T07:41:08.999Z</time></trkpt><trkpt lat="39.50341833950195" lon="16.056451215981998"><ele>971.0</ele><time>2026-04-27T07:41:09.999Z</time></trkpt><trkpt lat="39.50333234808752" lon="16.05653099646129"><ele>971.0</ele><time>2026-04-27T07:41:10.999Z</time></trkpt><trkpt lat="39.503245598794585" lon="16.056599177426467"><ele>971.0</ele><time>2026-04-27T07:41:11.999Z</time></trkpt><trkpt lat="39.503137365750746" lon="16.056646773392565"><ele>971.0</ele><time>2026-04-27T07:41:12.999Z</time></trkpt><trkpt lat="39.50299910076055" lon="16.056675890311627"><ele>971.0</ele><time>2026-04-27T07:41:13.999Z</time></trkpt><trkpt lat="39.502857163600915" lon="16.05670252493579"><ele>969.25</ele><time>2026-04-27T07:41:14.999Z</time></trkpt><trkpt lat="39.50273850297147" lon="16.056741235118672"><ele>967.5</ele><time>2026-04-27T07:41:15.999Z</time></trkpt><trkpt lat="39.5026543967822" lon="16.056764687251615"><ele>965.75</ele><time>2026-04-27T07:41:16.999Z</time></trkpt><trkpt lat="39.502544930805485" lon="16.056758784630773"><ele>964.0</ele><time>2026-04-27T07:41:17.999Z</time></trkpt><trkpt lat="39.50240015957196" lon="16.056730175265454"><ele>964.0</ele><time>2026-04-27T07:41:18.999Z</time></trkpt><trkpt lat="39.50225054734137" lon="16.05671233217148"><ele>964.0</ele><time>2026-04-27T07:41:19.999Z</time></trkpt><trkpt lat="39.50212365449159" lon="16.056743005479145"><ele>964.0</ele><time>2026-04-27T07:41:20.999Z</time></trkpt><trkpt lat="39.502008792111624" lon="16.056818362959476"><ele>964.0</ele><time>2026-04-27T07:41:21.999Z</time></trkpt><trkpt lat="39.50187217363023" lon="16.05690640683994"><ele>964.9999999999999</ele><time>2026-04-27T07:41:22.999Z</time></trkpt><trkpt lat="39.5017665577902" lon="16.05698133486867"><ele>966.0</ele><time>2026-04-27T07:41:23.999Z</time></trkpt><trkpt lat="39.501688451060716" lon="16.057040698938255"><ele>967.0</ele><time>2026-04-27T07:41:24.999Z</time></trkpt><trkpt lat="39.501627534687486" lon="16.057072223268374"><ele>968.0</ele><time>2026-04-27T07:41:25.999Z</time></trkpt><trkpt lat="39.50156211261023" lon="16.057068204245407"><ele>968.9999999999999</ele><time>2026-04-27T07:41:26.999Z</time></trkpt><trkpt lat="39.50147415640745" lon="16.05704308300884"><ele>970.0</ele><time>2026-04-27T07:41:27.999Z</time></trkpt><trkpt lat="39.50136628346629" lon="16.05698656662162"><ele>968.75</ele><time>2026-04-27T07:41:28.999Z</time></trkpt><trkpt lat="39.501238065742015" lon="16.056928054278902"><ele>967.5</ele><time>2026-04-27T07:41:29.999Z</time></trkpt><trkpt lat="39.501116540156005" lon="16.056891592176438"><ele>966.25</ele><time>2026-04-27T07:41:30.999Z</time></trkpt><trkpt lat="39.50101739590243" lon="16.056845685718745"><ele>965.0</ele><time>2026-04-27T07:41:31.999Z</time></trkpt><trkpt lat="39.500917857314604" lon="16.05677386641532"><ele>965.0</ele><time>2026-04-27T07:41:32.999Z</time></trkpt><trkpt lat="39.50081648725929" lon="16.05665871136132"><ele>965.0</ele><time>2026-04-27T07:41:33.998Z</time></trkpt><trkpt lat="39.50070507682405" lon="16.056560272653893"><ele>965.0</ele><time>2026-04-27T07:41:34.998Z</time></trkpt><trkpt lat="39.500607745160785" lon="16.056477699733243"><ele>965.0</ele><time>2026-04-27T07:41:35.998Z</time></trkpt><trkpt lat="39.50052185620388" lon="16.056424638370224"><ele>969.25</ele><time>2026-04-27T07:41:36.998Z</time></trkpt><trkpt lat="39.500402651131616" lon="16.056397466499515"><ele>973.5</ele><time>2026-04-27T07:41:37.998Z</time></trkpt><trkpt lat="39.50026473626384" lon="16.056388258416604"><ele>977.75</ele><time>2026-04-27T07:41:38.998Z</time></trkpt><trkpt lat="39.50013694185818" lon="16.056367490180303"><ele>982.0</ele><time>2026-04-27T07:41:39.998Z</time></trkpt><trkpt lat="39.5000104027752" lon="16.056312998720564"><ele>981.9999999999999</ele><time>2026-04-27T07:41:40.998Z</time></trkpt><trkpt lat="39.49991371443466" lon="16.056249148193462"><ele>982.0</ele><time>2026-04-27T07:41:41.998Z</time></trkpt><trkpt lat="39.49983512657439" lon="16.056201777794108"><ele>982.0</ele><time>2026-04-27T07:41:42.998Z</time></trkpt><trkpt lat="39.49975618462747" lon="16.056195801863666"><ele>982.0</ele><time>2026-04-27T07:41:43.998Z</time></trkpt><trkpt lat="39.4997031088767" lon="16.056251415086432"><ele>981.9999999999999</ele><time>2026-04-27T07:41:45Z</time></trkpt><trkpt lat="39.49966885606931" lon="16.056351951051557"><ele>982.0</ele><time>2026-04-27T07:41:46Z</time></trkpt><trkpt lat="39.4996571520081" lon="16.056498340803532"><ele>978.0</ele><time>2026-04-27T07:41:47Z</time></trkpt><trkpt lat="39.49965587738904" lon="16.05662840502278"><ele>974.0</ele><time>2026-04-27T07:41:48Z</time></trkpt><trkpt lat="39.49957737109273" lon="16.0567240099934"><ele>970.0</ele><time>2026-04-27T07:41:50Z</time></trkpt><trkpt lat="39.499494139142094" lon="16.056724077178675"><ele>966.0</ele><time>2026-04-27T07:41:51Z</time></trkpt><trkpt lat="39.49940480267318" lon="16.05669740082358"><ele>962.0</ele><time>2026-04-27T07:41:52Z</time></trkpt><trkpt lat="39.499307850815235" lon="16.056635051103324"><ele>966.0</ele><time>2026-04-27T07:41:53Z</time></trkpt><trkpt lat="39.49922013887216" lon="16.056556333729045"><ele>970.0</ele><time>2026-04-27T07:41:54Z</time></trkpt><trkpt lat="39.499125168472005" lon="16.056506226476742"><ele>974.0</ele><time>2026-04-27T07:41:55Z</time></trkpt><trkpt lat="39.4990520988224" lon="16.05650957581216"><ele>978.0</ele><time>2026-04-27T07:41:56Z</time></trkpt><trkpt lat="39.49896947374759" lon="16.056522508671236"><ele>982.0</ele><time>2026-04-27T07:41:57Z</time></trkpt><trkpt lat="39.498868177766994" lon="16.05654228507575"><ele>982.0</ele><time>2026-04-27T07:41:58Z</time></trkpt><trkpt lat="39.49877012797147" lon="16.05650320843545"><ele>982.0</ele><time>2026-04-27T07:41:59Z</time></trkpt><trkpt lat="39.498613519256004" lon="16.05645555782457"><ele>982.0</ele><time>2026-04-27T07:42:01Z</time></trkpt><trkpt lat="39.49852145866593" lon="16.056421220576095"><ele>982.0</ele><time>2026-04-27T07:42:02Z</time></trkpt><trkpt lat="39.4984325334148" lon="16.05640086099144"><ele>983.6</ele><time>2026-04-27T07:42:03Z</time></trkpt><trkpt lat="39.498351821616644" lon="16.05640736057696"><ele>985.2</ele><time>2026-04-27T07:42:04Z</time></trkpt><trkpt lat="39.498261536346256" lon="16.05643644153262"><ele>986.8</ele><time>2026-04-27T07:42:05Z</time></trkpt><trkpt lat="39.49815524586855" lon="16.056492634208958"><ele>988.4</ele><time>2026-04-27T07:42:06Z</time></trkpt><trkpt lat="39.49805635615191" lon="16.056571473279757"><ele>990.0</ele><time>2026-04-27T07:42:07Z</time></trkpt><trkpt lat="39.497953915082675" lon="16.056658054657312"><ele>985.4</ele><time>2026-04-27T07:42:08Z</time></trkpt><trkpt lat="39.49785917376683" lon="16.05672569449011"><ele>980.8</ele><time>2026-04-27T07:42:09Z</time></trkpt><trkpt lat="39.49777725963286" lon="16.056757681684285"><ele>976.2</ele><time>2026-04-27T07:42:10Z</time></trkpt><trkpt lat="39.497680478140815" lon="16.056761585183654"><ele>971.6</ele><time>2026-04-27T07:42:11Z</time></trkpt><trkpt lat="39.497580651670596" lon="16.056766018815388"><ele>967.0</ele><time>2026-04-27T07:42:12Z</time></trkpt><trkpt lat="39.49747925266702" lon="16.056761400990805"><ele>967.0</ele><time>2026-04-27T07:42:13Z</time></trkpt><trkpt lat="39.49738316702136" lon="16.056759364888656"><ele>967.0</ele><time>2026-04-27T07:42:14Z</time></trkpt><trkpt lat="39.4972926350213" lon="16.0567572016375"><ele>967.0</ele><time>2026-04-27T07:42:15Z</time></trkpt><trkpt lat="39.49719692868271" lon="16.056728947445205"><ele>967.0</ele><time>2026-04-27T07:42:16Z</time></trkpt><trkpt lat="39.49710425358645" lon="16.056724236184625"><ele>967.0</ele><time>2026-04-27T07:42:17Z</time></trkpt><trkpt lat="39.497004836747585" lon="16.056729410587913"><ele>969.9999999999999</ele><time>2026-04-27T07:42:18Z</time></trkpt><trkpt lat="39.496907425269164" lon="16.056724773616263"><ele>973.0</ele><time>2026-04-27T07:42:19Z</time></trkpt><trkpt lat="39.496801622767364" lon="16.056695347458422"><ele>976.0</ele><time>2026-04-27T07:42:21Z</time></trkpt><trkpt lat="39.4967433730074" lon="16.05673021103261"><ele>979.0</ele><time>2026-04-27T07:42:23Z</time></trkpt><trkpt lat="39.496726469948804" lon="16.056824929781726"><ele>981.9999999999999</ele><time>2026-04-27T07:42:25Z</time></trkpt><trkpt lat="39.49675349974383" lon="16.056913610310815"><ele>985.0</ele><time>2026-04-27T07:42:26Z</time></trkpt><trkpt lat="39.49677151440156" lon="16.057019738585225"><ele>985.0</ele><time>2026-04-27T07:42:27Z</time></trkpt><trkpt lat="39.49676470215086" lon="16.057142974308956"><ele>985.0</ele><time>2026-04-27T07:42:28Z</time></trkpt><trkpt lat="39.49673962281596" lon="16.057269109239794"><ele>985.0</ele><time>2026-04-27T07:42:29Z</time></trkpt><trkpt lat="39.496712664681084" lon="16.057395802189856"><ele>985.0</ele><time>2026-04-27T07:42:31Z</time></trkpt><trkpt lat="39.49666045260312" lon="16.05744495101919"><ele>985.0</ele><time>2026-04-27T07:42:31.999Z</time></trkpt><trkpt lat="39.496574047191764" lon="16.057485408210212"><ele>982.3333333333333</ele><time>2026-04-27T07:42:32.999Z</time></trkpt><trkpt lat="39.496505937592" lon="16.0575370463929"><ele>979.6666666666666</ele><time>2026-04-27T07:42:33.999Z</time></trkpt><trkpt lat="39.49648003146591" lon="16.05761243886632"><ele>977.0</ele><time>2026-04-27T07:42:34.999Z</time></trkpt><trkpt lat="39.496485670893364" lon="16.057723565526295"><ele>974.3333333333333</ele><time>2026-04-27T07:42:35.999Z</time></trkpt><trkpt lat="39.49651107312778" lon="16.05785702548473"><ele>971.6666666666666</ele><time>2026-04-27T07:42:36.999Z</time></trkpt><trkpt lat="39.496517150203175" lon="16.05797605825057"><ele>969.0</ele><time>2026-04-27T07:42:37.999Z</time></trkpt><trkpt lat="39.49648908874461" lon="16.058097629732167"><ele>969.0</ele><time>2026-04-27T07:42:39.999Z</time></trkpt><trkpt lat="39.4964400971246" lon="16.058155232387854"><ele>969.0000000000001</ele><time>2026-04-27T07:42:40.999Z</time></trkpt><trkpt lat="39.49635576050518" lon="16.05819984356375"><ele>969.0000000000001</ele><time>2026-04-27T07:42:41.999Z</time></trkpt><trkpt lat="39.49624806857063" lon="16.058248156707837"><ele>969.0</ele><time>2026-04-27T07:42:42.999Z</time></trkpt><trkpt lat="39.496146760693904" lon="16.058294027471263"><ele>969.0</ele><time>2026-04-27T07:42:43.999Z</time></trkpt><trkpt lat="39.49606945904092" lon="16.058365554788917"><ele>969.3333333333334</ele><time>2026-04-27T07:42:44.999Z</time></trkpt><trkpt lat="39.49601565583353" lon="16.058452448953034"><ele>969.6666666666667</ele><time>2026-04-27T07:42:46.999Z</time></trkpt><trkpt lat="39.495933799092676" lon="16.058507668467215"><ele>970.0</ele><time>2026-04-27T07:42:49.999Z</time></trkpt><trkpt lat="39.49585060348402" lon="16.058516068726558"><ele>970.3333333333334</ele><time>2026-04-27T07:42:51.999Z</time></trkpt><trkpt lat="39.495775385970475" lon="16.0584729415825"><ele>970.6666666666667</ele><time>2026-04-27T07:42:53.999Z</time></trkpt><trkpt lat="39.495680600586326" lon="16.05842469009268"><ele>971.0</ele><time>2026-04-27T07:42:55.999Z</time></trkpt><trkpt lat="39.49559259774498" lon="16.058438598582025"><ele>971.0000000000001</ele><time>2026-04-27T07:42:57.999Z</time></trkpt><trkpt lat="39.495522528093495" lon="16.05844969025639"><ele>971.0</ele><time>2026-04-27T07:42:59.999Z</time></trkpt><trkpt lat="39.49545858930658" lon="16.058460403199327"><ele>971.0</ele><time>2026-04-27T07:43:01.999Z</time></trkpt><trkpt lat="39.49541232859857" lon="16.05855240657461"><ele>971.0</ele><time>2026-04-27T07:43:05.999Z</time></trkpt><trkpt lat="39.495418647494965" lon="16.058700682820575"><ele>971.0000000000001</ele><time>2026-04-27T07:43:07.999Z</time></trkpt><trkpt lat="39.49544951114099" lon="16.05881777500664"><ele>971.0</ele><time>2026-04-27T07:43:08.999Z</time></trkpt><trkpt lat="39.49546908858718" lon="16.05892838121703"><ele>971.0</ele><time>2026-04-27T07:43:09.999Z</time></trkpt><trkpt lat="39.49546544278696" lon="16.05904621006015"><ele>970.9999999999999</ele><time>2026-04-27T07:43:10.999Z</time></trkpt><trkpt lat="39.49545923269971" lon="16.0592073856824"><ele>970.9999999999999</ele><time>2026-04-27T07:43:11.999Z</time></trkpt><trkpt lat="39.49545663302875" lon="16.059325091115916"><ele>971.0</ele><time>2026-04-27T07:43:12.999Z</time></trkpt><trkpt lat="39.495487792250266" lon="16.059433555366535"><ele>971.0</ele><time>2026-04-27T07:43:13.999Z</time></trkpt><trkpt lat="39.49553445489161" lon="16.05953698387298"><ele>971.8</ele><time>2026-04-27T07:43:14.999Z</time></trkpt><trkpt lat="39.49556521882357" lon="16.059616117440996"><ele>972.5999999999999</ele><time>2026-04-27T07:43:15.999Z</time></trkpt><trkpt lat="39.49556456690589" lon="16.05974679040422"><ele>973.4</ele><time>2026-04-27T07:43:17.999Z</time></trkpt><trkpt lat="39.4954711819128" lon="16.059867997571388"><ele>974.2</ele><time>2026-04-27T07:43:19.999Z</time></trkpt><trkpt lat="39.495397907351915" lon="16.059968215990164"><ele>975.0</ele><time>2026-04-27T07:43:20.999Z</time></trkpt><trkpt lat="39.49530458009284" lon="16.060092438955806"><ele>975.0</ele><time>2026-04-27T07:43:21.999Z</time></trkpt><trkpt lat="39.49521145577371" lon="16.060197753379903"><ele>975.0</ele><time>2026-04-27T07:43:22.999Z</time></trkpt><trkpt lat="39.49512905120675" lon="16.06023599392676"><ele>975.0</ele><time>2026-04-27T07:43:23.999Z</time></trkpt><trkpt lat="39.49504394502303" lon="16.0603148695967"><ele>975.0</ele><time>2026-04-27T07:43:24.999Z</time></trkpt><trkpt lat="39.4949662796317" lon="16.060379700834705"><ele>975.0</ele><time>2026-04-27T07:43:25.999Z</time></trkpt><trkpt lat="39.494886505661405" lon="16.06044844035687"><ele>975.0</ele><time>2026-04-27T07:43:26.999Z</time></trkpt><trkpt lat="39.49482250672684" lon="16.060478558114408"><ele>975.0</ele><time>2026-04-27T07:43:27.999Z</time></trkpt><trkpt lat="39.49475959079376" lon="16.06051133081498"><ele>975.0</ele><time>2026-04-27T07:43:28.999Z</time></trkpt><trkpt lat="39.49467779234415" lon="16.060524745142423"><ele>975.0</ele><time>2026-04-27T07:43:29.999Z</time></trkpt><trkpt lat="39.49459782321791" lon="16.060522566907974"><ele>975.0</ele><time>2026-04-27T07:43:30.999Z</time></trkpt><trkpt lat="39.494517959662176" lon="16.060516689709335"><ele>975.0</ele><time>2026-04-27T07:43:32.999Z</time></trkpt><trkpt lat="39.49445013603577" lon="16.060550087645723"><ele>973.3333333333334</ele><time>2026-04-27T07:43:34.999Z</time></trkpt><trkpt lat="39.4944142823665" lon="16.06062676174428"><ele>971.6666666666667</ele><time>2026-04-27T07:43:38.999Z</time></trkpt><trkpt lat="39.49445156052596" lon="16.060737016481482"><ele>970.0</ele><time>2026-04-27T07:43:41.998Z</time></trkpt><trkpt lat="39.49451017773264" lon="16.06080047726796"><ele>968.3333333333334</ele><time>2026-04-27T07:43:42.998Z</time></trkpt><trkpt lat="39.4946135592151" lon="16.06087028597887"><ele>966.6666666666667</ele><time>2026-04-27T07:43:43.998Z</time></trkpt><trkpt lat="39.49467035445132" lon="16.060941894581152"><ele>965.0</ele><time>2026-04-27T07:43:44.998Z</time></trkpt><trkpt lat="39.49471350165641" lon="16.061011851949836"><ele>965.0000000000001</ele><time>2026-04-27T07:43:45.998Z</time></trkpt><trkpt lat="39.49476724916351" lon="16.061085625483347"><ele>965.0</ele><time>2026-04-27T07:43:46.998Z</time></trkpt><trkpt lat="39.4948211686187" lon="16.06115366843736"><ele>965.0</ele><time>2026-04-27T07:43:47.998Z</time></trkpt><trkpt lat="39.49488725217157" lon="16.06121981979486"><ele>965.0</ele><time>2026-04-27T07:43:48.998Z</time></trkpt><trkpt lat="39.49495956274506" lon="16.061249897228947"><ele>965.0000000000001</ele><time>2026-04-27T07:43:49.998Z</time></trkpt><trkpt lat="39.49503252979283" lon="16.061288314245292"><ele>965.0</ele><time>2026-04-27T07:43:51Z</time></trkpt><trkpt lat="39.49511696804147" lon="16.061381903914405"><ele>965.0000000000001</ele><time>2026-04-27T07:43:53Z</time></trkpt><trkpt lat="39.495143094585806" lon="16.0614734715661"><ele>965.0</ele><time>2026-04-27T07:43:54Z</time></trkpt><trkpt lat="39.49517260591053" lon="16.061574263000306"><ele>965.0</ele><time>2026-04-27T07:43:55Z</time></trkpt><trkpt lat="39.49526491970094" lon="16.061662317668727"><ele>965.0</ele><time>2026-04-27T07:43:57Z</time></trkpt><trkpt lat="39.49532982427825" lon="16.06167792655294"><ele>965.0000000000001</ele><time>2026-04-27T07:43:58Z</time></trkpt><trkpt lat="39.49541270497208" lon="16.061657193071724"><ele>965.0</ele><time>2026-04-27T07:43:59Z</time></trkpt><trkpt lat="39.495529024978964" lon="16.061623809756124"><ele>963.5000000000001</ele><time>2026-04-27T07:44:00Z</time></trkpt><trkpt lat="39.49560784992068" lon="16.06162949532677"><ele>962.0</ele><time>2026-04-27T07:44:01Z</time></trkpt><trkpt lat="39.495691641900905" lon="16.061653766596084"><ele>960.5</ele><time>2026-04-27T07:44:02Z</time></trkpt><trkpt lat="39.49579736638725" lon="16.061675472086264"><ele>959.0</ele><time>2026-04-27T07:44:03Z</time></trkpt><trkpt lat="39.495890836422845" lon="16.0616744110493"><ele>957.5000000000001</ele><time>2026-04-27T07:44:04Z</time></trkpt><trkpt lat="39.49596790193525" lon="16.06167109656404"><ele>956.0</ele><time>2026-04-27T07:44:05Z</time></trkpt><trkpt lat="39.49610302302856" lon="16.061694479607425"><ele>956.0000000000001</ele><time>2026-04-27T07:44:07Z</time></trkpt><trkpt lat="39.49617509980184" lon="16.061731443654327"><ele>956.0</ele><time>2026-04-27T07:44:08Z</time></trkpt><trkpt lat="39.49622777155702" lon="16.06178006828592"><ele>956.0</ele><time>2026-04-27T07:44:09Z</time></trkpt><trkpt lat="39.49627929084113" lon="16.061845857445405"><ele>956.0</ele><time>2026-04-27T07:44:10Z</time></trkpt><trkpt lat="39.49631514365123" lon="16.061932585027165"><ele>956.0000000000001</ele><time>2026-04-27T07:44:11Z</time></trkpt><trkpt lat="39.49636586452107" lon="16.062069774066877"><ele>956.0</ele><time>2026-04-27T07:44:12Z</time></trkpt><trkpt lat="39.49640334649519" lon="16.062243136928302"><ele>954.5999999999999</ele><time>2026-04-27T07:44:13Z</time></trkpt><trkpt lat="39.496428385179804" lon="16.06239196842217"><ele>953.1999999999999</ele><time>2026-04-27T07:44:14Z</time></trkpt><trkpt lat="39.4964399493795" lon="16.0625165958663"><ele>951.8000000000001</ele><time>2026-04-27T07:44:15Z</time></trkpt><trkpt lat="39.496449808736806" lon="16.062658069613274"><ele>950.4000000000001</ele><time>2026-04-27T07:44:16Z</time></trkpt><trkpt lat="39.496506849954365" lon="16.062785137324706"><ele>949.0</ele><time>2026-04-27T07:44:17Z</time></trkpt><trkpt lat="39.49654036880831" lon="16.062897637953775"><ele>949.0</ele><time>2026-04-27T07:44:18Z</time></trkpt><trkpt lat="39.496581858569904" lon="16.063002613406596"><ele>949.0000000000001</ele><time>2026-04-27T07:44:19Z</time></trkpt><trkpt lat="39.49665467895714" lon="16.063088344115346"><ele>949.0000000000001</ele><time>2026-04-27T07:44:20Z</time></trkpt><trkpt lat="39.49675600238143" lon="16.063186763757702"><ele>949.0</ele><time>2026-04-27T07:44:21Z</time></trkpt><trkpt lat="39.49684597951955" lon="16.06327018680199"><ele>949.0</ele><time>2026-04-27T07:44:22Z</time></trkpt><trkpt lat="39.49689583077381" lon="16.06335517666345"><ele>950.4000000000001</ele><time>2026-04-27T07:44:23Z</time></trkpt><trkpt lat="39.49694733330414" lon="16.063459414418574"><ele>951.8000000000001</ele><time>2026-04-27T07:44:24Z</time></trkpt><trkpt lat="39.49699449031803" lon="16.06358761643157"><ele>953.1999999999999</ele><time>2026-04-27T07:44:25Z</time></trkpt><trkpt lat="39.49704874823979" lon="16.063675850651475"><ele>954.5999999999999</ele><time>2026-04-27T07:44:26Z</time></trkpt><trkpt lat="39.49713960873359" lon="16.06373762895168"><ele>956.0</ele><time>2026-04-27T07:44:27Z</time></trkpt><trkpt lat="39.497247442128774" lon="16.0638001871519"><ele>952.3333333333334</ele><time>2026-04-27T07:44:28Z</time></trkpt><trkpt lat="39.497319881505014" lon="16.063852176713297"><ele>948.6666666666667</ele><time>2026-04-27T07:44:29Z</time></trkpt><trkpt lat="39.497380293562784" lon="16.063895706729678"><ele>945.0</ele><time>2026-04-27T07:44:30Z</time></trkpt><trkpt lat="39.49745109674961" lon="16.06401670271414"><ele>941.3333333333333</ele><time>2026-04-27T07:44:31Z</time></trkpt><trkpt lat="39.4974428686947" lon="16.064162283994527"><ele>937.6666666666666</ele><time>2026-04-27T07:44:33Z</time></trkpt><trkpt lat="39.49739530127357" lon="16.06422427626788"><ele>934.0</ele><time>2026-04-27T07:44:34Z</time></trkpt><trkpt lat="39.497326161347054" lon="16.064265134558276"><ele>934.0</ele><time>2026-04-27T07:44:35Z</time></trkpt><trkpt lat="39.49722623470142" lon="16.064320721528784"><ele>934.0</ele><time>2026-04-27T07:44:36Z</time></trkpt><trkpt lat="39.497157482094444" lon="16.064397892669216"><ele>934.0</ele><time>2026-04-27T07:44:37Z</time></trkpt><trkpt lat="39.496999034614596" lon="16.064503291364584"><ele>934.0</ele><time>2026-04-27T07:44:37.999Z</time></trkpt><trkpt lat="39.49688255872676" lon="16.064584679403666"><ele>936.25</ele><time>2026-04-27T07:44:38.999Z</time></trkpt><trkpt lat="39.4967852895672" lon="16.064705756780874"><ele>938.5</ele><time>2026-04-27T07:44:39.999Z</time></trkpt><trkpt lat="39.49670072150034" lon="16.064837049516314"><ele>940.75</ele><time>2026-04-27T07:44:40.999Z</time></trkpt><trkpt lat="39.4966164381383" lon="16.064963920102283"><ele>943.0</ele><time>2026-04-27T07:44:41.999Z</time></trkpt><trkpt lat="39.49652561365981" lon="16.06509854423545"><ele>943.0</ele><time>2026-04-27T07:44:42.999Z</time></trkpt><trkpt lat="39.49643646193763" lon="16.065230194825183"><ele>943.0</ele><time>2026-04-27T07:44:43.999Z</time></trkpt><trkpt lat="39.49634930965491" lon="16.065347952506116"><ele>943.0</ele><time>2026-04-27T07:44:44.999Z</time></trkpt><trkpt lat="39.496267992333834" lon="16.06544988720367"><ele>943.0</ele><time>2026-04-27T07:44:45.999Z</time></trkpt><trkpt lat="39.49618858717929" lon="16.065552187931335"><ele>943.4999999999999</ele><time>2026-04-27T07:44:46.999Z</time></trkpt><trkpt lat="39.496103258032115" lon="16.065659475933384"><ele>944.0</ele><time>2026-04-27T07:44:47.999Z</time></trkpt><trkpt lat="39.49604261731102" lon="16.0657333614625"><ele>944.5</ele><time>2026-04-27T07:44:48.999Z</time></trkpt><trkpt lat="39.49597345011693" lon="16.06579082919314"><ele>945.0</ele><time>2026-04-27T07:44:49.999Z</time></trkpt><trkpt lat="39.49590352061959" lon="16.0657965428459"><ele>945.4999999999999</ele><time>2026-04-27T07:44:52.999Z</time></trkpt><trkpt lat="39.495870117823216" lon="16.06570537522151"><ele>946.0</ele><time>2026-04-27T08:00:11.999Z</time></trkpt><trkpt lat="39.495895876311245" lon="16.065618940005812"><ele>949.1666666666666</ele><time>2026-04-27T08:00:12.999Z</time></trkpt><trkpt lat="39.495928147229314" lon="16.06551274225853"><ele>952.3333333333333</ele><time>2026-04-27T08:00:14.999Z</time></trkpt><trkpt lat="39.4959595963653" lon="16.065385517896463"><ele>955.5</ele><time>2026-04-27T08:00:16.999Z</time></trkpt><trkpt lat="39.49599878248142" lon="16.06530872103974"><ele>958.6666666666667</ele><time>2026-04-27T08:00:17.999Z</time></trkpt><trkpt lat="39.49603259455379" lon="16.065237682130515"><ele>961.8333333333334</ele><time>2026-04-27T08:00:18.999Z</time></trkpt><trkpt lat="39.49607053045315" lon="16.065144880709934"><ele>965.0</ele><time>2026-04-27T08:00:20.999Z</time></trkpt><trkpt lat="39.496113759541025" lon="16.065009422437072"><ele>967.0000000000001</ele><time>2026-04-27T08:00:22.999Z</time></trkpt><trkpt lat="39.496133799845005" lon="16.064919690202373"><ele>969.0</ele><time>2026-04-27T08:00:23.999Z</time></trkpt><trkpt lat="39.49615265680072" lon="16.064807219321132"><ele>971.0</ele><time>2026-04-27T08:00:24.999Z</time></trkpt><trkpt lat="39.496151671431" lon="16.064692365794787"><ele>973.0</ele><time>2026-04-27T08:00:25.999Z</time></trkpt><trkpt lat="39.49613990382127" lon="16.06458572607879"><ele>975.0000000000001</ele><time>2026-04-27T08:00:26.999Z</time></trkpt><trkpt lat="39.4961526345574" lon="16.064495506223956"><ele>977.0</ele><time>2026-04-27T08:00:27.999Z</time></trkpt><trkpt lat="39.49616796497435" lon="16.064399357445907"><ele>977.0000000000001</ele><time>2026-04-27T08:00:28.999Z</time></trkpt><trkpt lat="39.496198851503486" lon="16.064281050677216"><ele>977.0</ele><time>2026-04-27T08:00:29.999Z</time></trkpt><trkpt lat="39.49622816631153" lon="16.064179800923426"><ele>977.0</ele><time>2026-04-27T08:00:30.999Z</time></trkpt><trkpt lat="39.49626448675087" lon="16.06410665670007"><ele>977.0</ele><time>2026-04-27T08:00:31.999Z</time></trkpt><trkpt lat="39.49631074194067" lon="16.064050588125276"><ele>977.0000000000001</ele><time>2026-04-27T08:00:32.999Z</time></trkpt><trkpt lat="39.496374779220226" lon="16.064017829644563"><ele>977.0</ele><time>2026-04-27T08:00:33.999Z</time></trkpt><trkpt lat="39.49647934056099" lon="16.063983959125558"><ele>972.8</ele><time>2026-04-27T08:00:35.999Z</time></trkpt><trkpt lat="39.49653874855053" lon="16.06389466179544"><ele>968.6</ele><time>2026-04-27T08:00:37.999Z</time></trkpt><trkpt lat="39.4965181386991" lon="16.063765181524936"><ele>964.3999999999999</ele><time>2026-04-27T08:00:40Z</time></trkpt><trkpt lat="39.496462518898454" lon="16.063634383537824"><ele>960.1999999999999</ele><time>2026-04-27T08:00:42Z</time></trkpt><trkpt lat="39.49640397687761" lon="16.06355479801311"><ele>956.0</ele><time>2026-04-27T08:00:43Z</time></trkpt><trkpt lat="39.496343343338744" lon="16.063461931325946"><ele>956.0000000000001</ele><time>2026-04-27T08:00:44Z</time></trkpt><trkpt lat="39.49627923642493" lon="16.063385912859665"><ele>956.0</ele><time>2026-04-27T08:00:45Z</time></trkpt><trkpt lat="39.49619999656849" lon="16.063312059445163"><ele>956.0</ele><time>2026-04-27T08:00:46Z</time></trkpt><trkpt lat="39.49612429745697" lon="16.063250358968663"><ele>956.0</ele><time>2026-04-27T08:00:47Z</time></trkpt><trkpt lat="39.49606156591215" lon="16.063181364781464"><ele>956.0000000000001</ele><time>2026-04-27T08:00:48Z</time></trkpt><trkpt lat="39.49598964877089" lon="16.063118999468806"><ele>956.0</ele><time>2026-04-27T08:00:49Z</time></trkpt><trkpt lat="39.49593080958178" lon="16.063062453409156"><ele>960.75</ele><time>2026-04-27T08:00:50Z</time></trkpt><trkpt lat="39.495838866118525" lon="16.06299941826672"><ele>965.5</ele><time>2026-04-27T08:00:52Z</time></trkpt><trkpt lat="39.495746726067686" lon="16.06309533193246"><ele>970.25</ele><time>2026-04-27T08:00:54Z</time></trkpt><trkpt lat="39.495652938895645" lon="16.063192175050094"><ele>975.0</ele><time>2026-04-27T08:00:56Z</time></trkpt><trkpt lat="39.495597206384225" lon="16.063311842404808"><ele>976.4</ele><time>2026-04-27T08:00:57Z</time></trkpt><trkpt lat="39.49552435396158" lon="16.063398420331623"><ele>977.8</ele><time>2026-04-27T08:00:58Z</time></trkpt><trkpt lat="39.49545877833876" lon="16.06347806022145"><ele>979.2</ele><time>2026-04-27T08:00:59Z</time></trkpt><trkpt lat="39.495377948417875" lon="16.063538648441806"><ele>980.6</ele><time>2026-04-27T08:01:00Z</time></trkpt><trkpt lat="39.49531605018202" lon="16.063637646695415"><ele>982.0</ele><time>2026-04-27T08:01:01Z</time></trkpt><trkpt lat="39.49525665755061" lon="16.063745452705824"><ele>984.1666666666666</ele><time>2026-04-27T08:01:02Z</time></trkpt><trkpt lat="39.49520776340882" lon="16.06386780931337"><ele>986.3333333333333</ele><time>2026-04-27T08:01:03Z</time></trkpt><trkpt lat="39.49517273992576" lon="16.063980664255972"><ele>988.5</ele><time>2026-04-27T08:01:04Z</time></trkpt><trkpt lat="39.49513409451668" lon="16.064077869465912"><ele>990.6666666666667</ele><time>2026-04-27T08:01:05Z</time></trkpt><trkpt lat="39.49510023769669" lon="16.06414943370558"><ele>992.8333333333334</ele><time>2026-04-27T08:01:06Z</time></trkpt><trkpt lat="39.49504525454598" lon="16.064203534975746"><ele>995.0</ele><time>2026-04-27T08:01:07Z</time></trkpt><trkpt lat="39.49498049199431" lon="16.064265765198503"><ele>995.1666666666667</ele><time>2026-04-27T08:01:08Z</time></trkpt><trkpt lat="39.494889365881235" lon="16.064330009992712"><ele>995.3333333333334</ele><time>2026-04-27T08:01:09Z</time></trkpt><trkpt lat="39.49481671038065" lon="16.064367314374515"><ele>995.5</ele><time>2026-04-27T08:01:10Z</time></trkpt><trkpt lat="39.49475102480498" lon="16.064395429474136"><ele>995.6666666666667</ele><time>2026-04-27T08:01:11Z</time></trkpt><trkpt lat="39.494682175454734" lon="16.064417693080525"><ele>995.8333333333334</ele><time>2026-04-27T08:01:12Z</time></trkpt><trkpt lat="39.49460254344927" lon="16.06442958900623"><ele>996.0</ele><time>2026-04-27T08:01:13Z</time></trkpt><trkpt lat="39.49452660913592" lon="16.06442187723696"><ele>998.0</ele><time>2026-04-27T08:01:14Z</time></trkpt><trkpt lat="39.49444983405404" lon="16.06439907178205"><ele>999.9999999999999</ele><time>2026-04-27T08:01:15Z</time></trkpt><trkpt lat="39.49437943279279" lon="16.06437761516441"><ele>1001.9999999999999</ele><time>2026-04-27T08:01:16Z</time></trkpt><trkpt lat="39.49430588747078" lon="16.064338288677522"><ele>1004.0</ele><time>2026-04-27T08:01:17Z</time></trkpt><trkpt lat="39.49420001661137" lon="16.0642661940023"><ele>1006.0</ele><time>2026-04-27T08:01:18Z</time></trkpt><trkpt lat="39.49410340752733" lon="16.064198291639112"><ele>1006.0</ele><time>2026-04-27T08:01:19Z</time></trkpt><trkpt lat="39.49399886222145" lon="16.06413013357893"><ele>1005.9999999999999</ele><time>2026-04-27T08:01:20Z</time></trkpt><trkpt lat="39.493905550695274" lon="16.064111675339966"><ele>1005.9999999999999</ele><time>2026-04-27T08:01:21Z</time></trkpt><trkpt lat="39.49382084570751" lon="16.064104479255835"><ele>1006.0</ele><time>2026-04-27T08:01:22Z</time></trkpt><trkpt lat="39.49374971282869" lon="16.064079349638988"><ele>1006.0</ele><time>2026-04-27T08:01:23Z</time></trkpt><trkpt lat="39.49367739063947" lon="16.06403518020203"><ele>1009.1999999999999</ele><time>2026-04-27T08:01:24Z</time></trkpt><trkpt lat="39.49355982592527" lon="16.06395654301405"><ele>1012.3999999999999</ele><time>2026-04-27T08:01:25Z</time></trkpt><trkpt lat="39.49348369941858" lon="16.063882301264655"><ele>1015.6</ele><time>2026-04-27T08:01:26Z</time></trkpt><trkpt lat="39.49339940157752" lon="16.063795967677557"><ele>1018.8</ele><time>2026-04-27T08:01:27Z</time></trkpt><trkpt lat="39.493315453006886" lon="16.063711478763988"><ele>1022.0</ele><time>2026-04-27T08:01:28Z</time></trkpt><trkpt lat="39.49321085946378" lon="16.063643083054004"><ele>1022.0</ele><time>2026-04-27T08:01:29Z</time></trkpt><trkpt lat="39.49310793957482" lon="16.06360216008036"><ele>1022.0</ele><time>2026-04-27T08:01:30Z</time></trkpt><trkpt lat="39.49299707867247" lon="16.063568213879122"><ele>1022.0</ele><time>2026-04-27T08:01:31Z</time></trkpt><trkpt lat="39.492874889765986" lon="16.063538862642385"><ele>1022.0</ele><time>2026-04-27T08:01:32Z</time></trkpt><trkpt lat="39.49278374636508" lon="16.063516686127798"><ele>1022.0</ele><time>2026-04-27T08:01:33Z</time></trkpt><trkpt lat="39.49269740570073" lon="16.063514799831164"><ele>1024.4</ele><time>2026-04-27T08:01:34Z</time></trkpt><trkpt lat="39.49260577299546" lon="16.06355900465756"><ele>1026.8000000000002</ele><time>2026-04-27T08:01:35Z</time></trkpt><trkpt lat="39.492520655173685" lon="16.063633252679157"><ele>1029.2</ele><time>2026-04-27T08:01:36Z</time></trkpt><trkpt lat="39.492455164392474" lon="16.063737657341537"><ele>1031.6000000000001</ele><time>2026-04-27T08:01:36.999Z</time></trkpt><trkpt lat="39.49239456280437" lon="16.06388794732623"><ele>1034.0</ele><time>2026-04-27T08:01:37.999Z</time></trkpt><trkpt lat="39.492325852811916" lon="16.06398076832582"><ele>1034.0</ele><time>2026-04-27T08:01:38.999Z</time></trkpt><trkpt lat="39.492286451097435" lon="16.064044555299592"><ele>1034.0</ele><time>2026-04-27T08:01:40.999Z</time></trkpt><trkpt lat="39.492208547812204" lon="16.06404820177188"><ele>1034.0</ele><time>2026-04-27T08:01:42.999Z</time></trkpt><trkpt lat="39.4921772639481" lon="16.063914767279137"><ele>1034.0</ele><time>2026-04-27T08:01:44.999Z</time></trkpt><trkpt lat="39.49214870351968" lon="16.06378807426935"><ele>1034.0</ele><time>2026-04-27T08:01:45.999Z</time></trkpt><trkpt lat="39.492102242641664" lon="16.063648629562064"><ele>1036.75</ele><time>2026-04-27T08:01:46.999Z</time></trkpt><trkpt lat="39.49205785499718" lon="16.063460945924124"><ele>1039.5</ele><time>2026-04-27T08:01:47.999Z</time></trkpt><trkpt lat="39.49202386682842" lon="16.063292223216287"><ele>1042.25</ele><time>2026-04-27T08:01:48.999Z</time></trkpt><trkpt lat="39.491970702056065" lon="16.063116610370095"><ele>1045.0</ele><time>2026-04-27T08:01:49.999Z</time></trkpt><trkpt lat="39.49191667997859" lon="16.06295918225094"><ele>1045.75</ele><time>2026-04-27T08:01:50.999Z</time></trkpt><trkpt lat="39.49184834783987" lon="16.06281266814167"><ele>1046.5</ele><time>2026-04-27T08:01:51.999Z</time></trkpt><trkpt lat="39.49177603133857" lon="16.062661374605703"><ele>1047.25</ele><time>2026-04-27T08:01:52.999Z</time></trkpt><trkpt lat="39.491722723938224" lon="16.062528769879698"><ele>1048.0</ele><time>2026-04-27T08:01:53.999Z</time></trkpt><trkpt lat="39.49167845534369" lon="16.062391692678684"><ele>1050.0</ele><time>2026-04-27T08:01:54.999Z</time></trkpt><trkpt lat="39.49164771217115" lon="16.062252257615157"><ele>1052.0</ele><time>2026-04-27T08:01:55.999Z</time></trkpt><trkpt lat="39.491615784054346" lon="16.062121770603948"><ele>1054.0</ele><time>2026-04-27T08:01:56.999Z</time></trkpt><trkpt lat="39.49158514933927" lon="16.062019046978044"><ele>1056.0</ele><time>2026-04-27T08:01:57.999Z</time></trkpt><trkpt lat="39.491547225200925" lon="16.061938144344886"><ele>1058.0</ele><time>2026-04-27T08:01:58.999Z</time></trkpt><trkpt lat="39.49143940006595" lon="16.061884709300067"><ele>1058.0</ele><time>2026-04-27T08:02:00.999Z</time></trkpt><trkpt lat="39.49136637625263" lon="16.061869979280488"><ele>1058.0</ele><time>2026-04-27T08:02:01.999Z</time></trkpt><trkpt lat="39.49125198113624" lon="16.06187806271443"><ele>1058.0</ele><time>2026-04-27T08:02:03.999Z</time></trkpt><trkpt lat="39.491153631594585" lon="16.06191341618969"><ele>1058.0</ele><time>2026-04-27T08:02:04.999Z</time></trkpt><trkpt lat="39.49102946488422" lon="16.061933398722964"><ele>1058.0</ele><time>2026-04-27T08:02:05.999Z</time></trkpt><trkpt lat="39.49092068325234" lon="16.06195405205037"><ele>1062.25</ele><time>2026-04-27T08:02:06.999Z</time></trkpt><trkpt lat="39.49078347005019" lon="16.061969654901453"><ele>1066.5</ele><time>2026-04-27T08:02:07.999Z</time></trkpt><trkpt lat="39.490655658735974" lon="16.061974091212353"><ele>1070.75</ele><time>2026-04-27T08:02:08.999Z</time></trkpt><trkpt lat="39.49053682226483" lon="16.06197375446981"><ele>1075.0</ele><time>2026-04-27T08:02:09.999Z</time></trkpt><trkpt lat="39.490394024565525" lon="16.061982065777144"><ele>1077.75</ele><time>2026-04-27T08:02:10.999Z</time></trkpt><trkpt lat="39.490253719978824" lon="16.062027908856848"><ele>1080.5</ele><time>2026-04-27T08:02:11.999Z</time></trkpt><trkpt lat="39.49013839876097" lon="16.062044267766037"><ele>1083.25</ele><time>2026-04-27T08:02:12.999Z</time></trkpt><trkpt lat="39.49002990440883" lon="16.06207597400229"><ele>1086.0</ele><time>2026-04-27T08:02:13.999Z</time></trkpt><trkpt lat="39.489905812653454" lon="16.062114450937678"><ele>1086.0</ele><time>2026-04-27T08:02:14.999Z</time></trkpt><trkpt lat="39.48978082855083" lon="16.06215680313661"><ele>1086.0</ele><time>2026-04-27T08:02:15.999Z</time></trkpt><trkpt lat="39.489664984046904" lon="16.06218164760701"><ele>1086.0</ele><time>2026-04-27T08:02:16.999Z</time></trkpt><trkpt lat="39.48958863311582" lon="16.062193774677755"><ele>1086.0</ele><time>2026-04-27T08:02:17.999Z</time></trkpt><trkpt lat="39.48950582332052" lon="16.062188439579224"><ele>1086.0</ele><time>2026-04-27T08:02:18.999Z</time></trkpt><trkpt lat="39.48939765864078" lon="16.06216090225947"><ele>1089.0</ele><time>2026-04-27T08:02:19.999Z</time></trkpt><trkpt lat="39.48928908043153" lon="16.062118387468317"><ele>1092.0</ele><time>2026-04-27T08:02:20.999Z</time></trkpt><trkpt lat="39.489166974343455" lon="16.062056571861415"><ele>1095.0</ele><time>2026-04-27T08:02:21.999Z</time></trkpt><trkpt lat="39.4890059208302" lon="16.061999559905097"><ele>1098.0</ele><time>2026-04-27T08:02:22.999Z</time></trkpt><trkpt lat="39.488864321746874" lon="16.06196761921508"><ele>1100.8333333333333</ele><time>2026-04-27T08:02:23.999Z</time></trkpt><trkpt lat="39.48875745621607" lon="16.061960067344508"><ele>1103.6666666666667</ele><time>2026-04-27T08:02:24.999Z</time></trkpt><trkpt lat="39.48866449058309" lon="16.061959574630126"><ele>1106.5</ele><time>2026-04-27T08:02:25.999Z</time></trkpt><trkpt lat="39.48858032463335" lon="16.061966312918564"><ele>1109.3333333333335</ele><time>2026-04-27T08:02:26.999Z</time></trkpt><trkpt lat="39.48851561087127" lon="16.06198382743307"><ele>1112.1666666666667</ele><time>2026-04-27T08:02:27.999Z</time></trkpt><trkpt lat="39.48846100741156" lon="16.062030859334335"><ele>1115.0</ele><time>2026-04-27T08:02:28.999Z</time></trkpt><trkpt lat="39.48842673579006" lon="16.06210804554756"><ele>1115.0</ele><time>2026-04-27T08:02:29.999Z</time></trkpt><trkpt lat="39.488383840533594" lon="16.06223914701976"><ele>1115.0</ele><time>2026-04-27T08:02:30.999Z</time></trkpt><trkpt lat="39.488350276984754" lon="16.062390240209496"><ele>1115.0</ele><time>2026-04-27T08:02:31.999Z</time></trkpt><trkpt lat="39.48833690559242" lon="16.062542657197383"><ele>1115.0</ele><time>2026-04-27T08:02:32.999Z</time></trkpt><trkpt lat="39.48831691253503" lon="16.06266075622368"><ele>1115.0</ele><time>2026-04-27T08:02:33.999Z</time></trkpt><trkpt lat="39.48829587495181" lon="16.062749019646816"><ele>1114.1666666666667</ele><time>2026-04-27T08:02:34.999Z</time></trkpt><trkpt lat="39.48822973500579" lon="16.062875795407674"><ele>1113.3333333333335</ele><time>2026-04-27T08:02:36.999Z</time></trkpt><trkpt lat="39.48817130827348" lon="16.062907316199635"><ele>1112.5</ele><time>2026-04-27T08:02:37.999Z</time></trkpt><trkpt lat="39.48810409259791" lon="16.062921643609123"><ele>1111.6666666666667</ele><time>2026-04-27T08:02:38.999Z</time></trkpt><trkpt lat="39.48803544938078" lon="16.062950331091205"><ele>1110.8333333333333</ele><time>2026-04-27T08:02:39.999Z</time></trkpt><trkpt lat="39.48792330185289" lon="16.062938402259075"><ele>1110.0</ele><time>2026-04-27T08:02:41.999Z</time></trkpt><trkpt lat="39.4878254615704" lon="16.062931906886593"><ele>1110.0</ele><time>2026-04-27T08:02:42.999Z</time></trkpt><trkpt lat="39.487704063716485" lon="16.06294591948519"><ele>1110.0</ele><time>2026-04-27T08:02:43.999Z</time></trkpt><trkpt lat="39.487635650152036" lon="16.06292915478665"><ele>1110.0</ele><time>2026-04-27T08:02:45Z</time></trkpt><trkpt lat="39.48758053410936" lon="16.062879979017325"><ele>1110.0</ele><time>2026-04-27T08:02:47Z</time></trkpt><trkpt lat="39.48757019819485" lon="16.062761470662448"><ele>1110.0</ele><time>2026-04-27T08:02:49Z</time></trkpt><trkpt lat="39.48760391361133" lon="16.062618943184592"><ele>1110.0</ele><time>2026-04-27T08:02:51Z</time></trkpt><trkpt lat="39.4876505335785" lon="16.06250204074015"><ele>1110.0</ele><time>2026-04-27T08:02:52Z</time></trkpt><trkpt lat="39.48769238064801" lon="16.062398431378885"><ele>1110.0</ele><time>2026-04-27T08:02:53Z</time></trkpt><trkpt lat="39.487703248946865" lon="16.06230716220998"><ele>1110.0</ele><time>2026-04-27T08:02:54Z</time></trkpt><trkpt lat="39.48767357529432" lon="16.062174192855657"><ele>1110.0</ele><time>2026-04-27T08:02:55Z</time></trkpt><trkpt lat="39.487635941384255" lon="16.062055811070262"><ele>1114.0</ele><time>2026-04-27T08:02:56Z</time></trkpt><trkpt lat="39.48760021902076" lon="16.061931314118077"><ele>1118.0</ele><time>2026-04-27T08:02:57Z</time></trkpt><trkpt lat="39.4875142153163" lon="16.061838692645505"><ele>1122.0</ele><time>2026-04-27T08:02:59Z</time></trkpt><trkpt lat="39.48744914267939" lon="16.061857727448544"><ele>1126.0</ele><time>2026-04-27T08:03:00Z</time></trkpt><trkpt lat="39.487327869771136" lon="16.06190787173617"><ele>1130.0</ele><time>2026-04-27T08:03:02Z</time></trkpt><trkpt lat="39.48724867537318" lon="16.06196248563101"><ele>1130.0</ele><time>2026-04-27T08:03:03Z</time></trkpt><trkpt lat="39.48717206257085" lon="16.06200776812615"><ele>1130.0</ele><time>2026-04-27T08:03:04Z</time></trkpt><trkpt lat="39.487089666415145" lon="16.062050940531147"><ele>1130.0</ele><time>2026-04-27T08:03:05Z</time></trkpt><trkpt lat="39.4870221461849" lon="16.062121906635006"><ele>1130.0</ele><time>2026-04-27T08:03:06Z</time></trkpt><trkpt lat="39.48696832378669" lon="16.06218446791765"><ele>1130.0</ele><time>2026-04-27T08:03:07Z</time></trkpt><trkpt lat="39.48690992964099" lon="16.06223987829953"><ele>1130.0</ele><time>2026-04-27T08:03:08Z</time></trkpt><trkpt lat="39.486848000346306" lon="16.062282734690168"><ele>1129.0</ele><time>2026-04-27T08:03:10Z</time></trkpt><trkpt lat="39.48676820072745" lon="16.062294842009692"><ele>1128.0</ele><time>2026-04-27T08:03:11Z</time></trkpt><trkpt lat="39.48668426541726" lon="16.062280691093452"><ele>1127.0</ele><time>2026-04-27T08:03:12Z</time></trkpt><trkpt lat="39.48661490662342" lon="16.062278115921405"><ele>1126.0</ele><time>2026-04-27T08:03:13Z</time></trkpt><trkpt lat="39.48654410602123" lon="16.062405529462318"><ele>1125.0</ele><time>2026-04-27T08:03:15Z</time></trkpt><trkpt lat="39.48650038983811" lon="16.06251417875416"><ele>1125.0</ele><time>2026-04-27T08:03:16Z</time></trkpt><trkpt lat="39.486390069881445" lon="16.062579936713682"><ele>1125.0</ele><time>2026-04-27T08:03:18Z</time></trkpt><trkpt lat="39.48632408326973" lon="16.062586939513604"><ele>1125.0</ele><time>2026-04-27T08:03:19Z</time></trkpt><trkpt lat="39.48625673250413" lon="16.062568044366632"><ele>1125.0</ele><time>2026-04-27T08:03:20Z</time></trkpt><trkpt lat="39.48613357571162" lon="16.062575734807943"><ele>1125.0</ele><time>2026-04-27T08:03:22Z</time></trkpt><trkpt lat="39.48606037577087" lon="16.06261880590537"><ele>1128.5</ele><time>2026-04-27T08:03:23Z</time></trkpt><trkpt lat="39.4860169799344" lon="16.062690363070846"><ele>1132.0</ele><time>2026-04-27T08:03:24Z</time></trkpt><trkpt lat="39.48594838338822" lon="16.062793449732453"><ele>1135.5</ele><time>2026-04-27T08:03:26Z</time></trkpt><trkpt lat="39.48586664641683" lon="16.062809456086065"><ele>1139.0</ele><time>2026-04-27T08:03:28Z</time></trkpt><trkpt lat="39.4857578069132" lon="16.062747607835117"><ele>1142.5</ele><time>2026-04-27T08:03:30Z</time></trkpt><trkpt lat="39.48569555923177" lon="16.062712302303254"><ele>1146.0</ele><time>2026-04-27T08:03:31Z</time></trkpt><trkpt lat="39.485589508555826" lon="16.06271458801831"><ele>1146.0</ele><time>2026-04-27T08:03:33Z</time></trkpt><trkpt lat="39.485492774343435" lon="16.062837508190828"><ele>1146.0</ele><time>2026-04-27T08:03:35Z</time></trkpt><trkpt lat="39.48545197436855" lon="16.062925221779594"><ele>1146.0</ele><time>2026-04-27T08:03:36Z</time></trkpt><trkpt lat="39.485403304741936" lon="16.063035996766832"><ele>1146.0</ele><time>2026-04-27T08:03:37Z</time></trkpt><trkpt lat="39.485365748704204" lon="16.063154641089888"><ele>1146.0</ele><time>2026-04-27T08:03:38Z</time></trkpt><trkpt lat="39.48532279747804" lon="16.063248898552192"><ele>1146.6666666666667</ele><time>2026-04-27T08:03:39Z</time></trkpt><trkpt lat="39.48529487029228" lon="16.063333395208524"><ele>1147.3333333333333</ele><time>2026-04-27T08:03:40Z</time></trkpt><trkpt lat="39.485208197134895" lon="16.063439704540453"><ele>1148.0</ele><time>2026-04-27T08:03:42Z</time></trkpt><trkpt lat="39.485141798010226" lon="16.063454718556514"><ele>1148.6666666666665</ele><time>2026-04-27T08:03:43Z</time></trkpt><trkpt lat="39.48506364154493" lon="16.06345491321351"><ele>1149.3333333333333</ele><time>2026-04-27T08:03:44Z</time></trkpt><trkpt lat="39.484970800170565" lon="16.063462123062287"><ele>1150.0</ele><time>2026-04-27T08:03:45Z</time></trkpt><trkpt lat="39.484882547706306" lon="16.063481196698387"><ele>1150.0</ele><time>2026-04-27T08:03:46Z</time></trkpt><trkpt lat="39.48477447433682" lon="16.06352940528361"><ele>1150.0</ele><time>2026-04-27T08:03:47Z</time></trkpt><trkpt lat="39.48467761811081" lon="16.063611902223272"><ele>1150.0</ele><time>2026-04-27T08:03:48Z</time></trkpt><trkpt lat="39.48460288134241" lon="16.06372405335461"><ele>1150.0</ele><time>2026-04-27T08:03:48.999Z</time></trkpt><trkpt lat="39.48450294622899" lon="16.063808241705917"><ele>1154.8</ele><time>2026-04-27T08:03:49.999Z</time></trkpt><trkpt lat="39.48440698193969" lon="16.063848841188392"><ele>1159.6</ele><time>2026-04-27T08:03:50.999Z</time></trkpt><trkpt lat="39.484306624681366" lon="16.063890397184952"><ele>1164.4</ele><time>2026-04-27T08:03:51.999Z</time></trkpt><trkpt lat="39.48420517393645" lon="16.06388916862534"><ele>1169.2</ele><time>2026-04-27T08:03:52.999Z</time></trkpt><trkpt lat="39.48411101348348" lon="16.06397978083413"><ele>1174.0</ele><time>2026-04-27T08:03:54.999Z</time></trkpt><trkpt lat="39.48406762136977" lon="16.064050072967078"><ele>1175.4</ele><time>2026-04-27T08:03:55.999Z</time></trkpt><trkpt lat="39.48402714612172" lon="16.06412897155444"><ele>1176.8000000000002</ele><time>2026-04-27T08:03:56.999Z</time></trkpt><trkpt lat="39.48395719263912" lon="16.064178258150864"><ele>1178.1999999999998</ele><time>2026-04-27T08:03:57.999Z</time></trkpt><trkpt lat="39.48388135274938" lon="16.06423147540959"><ele>1179.6</ele><time>2026-04-27T08:03:58.999Z</time></trkpt><trkpt lat="39.48376031983328" lon="16.064368739590215"><ele>1181.0</ele><time>2026-04-27T08:03:59.999Z</time></trkpt><trkpt lat="39.48365558444752" lon="16.064513117181512"><ele>1181.0</ele><time>2026-04-27T08:04:00.999Z</time></trkpt><trkpt lat="39.48358864710108" lon="16.06464823973311"><ele>1181.0</ele><time>2026-04-27T08:04:01.999Z</time></trkpt><trkpt lat="39.483528709277266" lon="16.06474821868459"><ele>1181.0</ele><time>2026-04-27T08:04:02.999Z</time></trkpt><trkpt lat="39.48348013217631" lon="16.06483832797539"><ele>1181.0</ele><time>2026-04-27T08:04:03.999Z</time></trkpt><trkpt lat="39.48342489575478" lon="16.064906799897503"><ele>1181.0</ele><time>2026-04-27T08:04:04.999Z</time></trkpt><trkpt lat="39.48336990124497" lon="16.06498908857104"><ele>1177.3999999999999</ele><time>2026-04-27T08:04:05.999Z</time></trkpt><trkpt lat="39.48330207590332" lon="16.0650641997132"><ele>1173.8</ele><time>2026-04-27T08:04:06.999Z</time></trkpt><trkpt lat="39.48324395938533" lon="16.065121853453658"><ele>1170.1999999999998</ele><time>2026-04-27T08:04:07.999Z</time></trkpt><trkpt lat="39.48317884547388" lon="16.065187737791984"><ele>1166.6</ele><time>2026-04-27T08:04:08.999Z</time></trkpt><trkpt lat="39.48310677173186" lon="16.065278989729144"><ele>1163.0</ele><time>2026-04-27T08:04:09.999Z</time></trkpt><trkpt lat="39.483000723161474" lon="16.065342579782786"><ele>1163.0</ele><time>2026-04-27T08:04:10.999Z</time></trkpt><trkpt lat="39.482931449437935" lon="16.06539988207047"><ele>1163.0</ele><time>2026-04-27T08:04:11.999Z</time></trkpt><trkpt lat="39.48284474453884" lon="16.065424463526778"><ele>1163.0</ele><time>2026-04-27T08:04:12.999Z</time></trkpt><trkpt lat="39.48276998041287" lon="16.065440529583977"><ele>1163.0</ele><time>2026-04-27T08:04:13.999Z</time></trkpt><trkpt lat="39.48268178083118" lon="16.065416973036637"><ele>1163.0</ele><time>2026-04-27T08:04:14.999Z</time></trkpt><trkpt lat="39.4825984113832" lon="16.065360286151062"><ele>1163.0</ele><time>2026-04-27T08:04:15.999Z</time></trkpt><trkpt lat="39.482468585499625" lon="16.06529558259876"><ele>1164.75</ele><time>2026-04-27T08:04:16.999Z</time></trkpt><trkpt lat="39.4823326188076" lon="16.065244018531295"><ele>1166.5</ele><time>2026-04-27T08:04:17.999Z</time></trkpt><trkpt lat="39.48221832221549" lon="16.06522881231597"><ele>1168.25</ele><time>2026-04-27T08:04:18.999Z</time></trkpt><trkpt lat="39.48210942367659" lon="16.06524795905063"><ele>1170.0</ele><time>2026-04-27T08:04:19.999Z</time></trkpt><trkpt lat="39.48199277421184" lon="16.065233366557273"><ele>1170.0</ele><time>2026-04-27T08:04:20.999Z</time></trkpt><trkpt lat="39.481855428116056" lon="16.06519307327208"><ele>1170.0</ele><time>2026-04-27T08:04:21.999Z</time></trkpt><trkpt lat="39.4817242838609" lon="16.065150506561558"><ele>1170.0</ele><time>2026-04-27T08:04:22.999Z</time></trkpt><trkpt lat="39.48162158683033" lon="16.065121388866803"><ele>1170.0</ele><time>2026-04-27T08:04:23.999Z</time></trkpt><trkpt lat="39.48150187863289" lon="16.06507933421913"><ele>1170.0</ele><time>2026-04-27T08:04:24.999Z</time></trkpt><trkpt lat="39.481373206881386" lon="16.065032270802693"><ele>1170.0</ele><time>2026-04-27T08:04:25.999Z</time></trkpt><trkpt lat="39.481284620826735" lon="16.064987716752583"><ele>1170.0</ele><time>2026-04-27T08:04:26.999Z</time></trkpt><trkpt lat="39.48121311425609" lon="16.064955797783067"><ele>1170.0</ele><time>2026-04-27T08:04:27.999Z</time></trkpt><trkpt lat="39.48111725890741" lon="16.064924603122286"><ele>1170.0</ele><time>2026-04-27T08:04:28.999Z</time></trkpt><trkpt lat="39.481016939936914" lon="16.064831452107885"><ele>1172.8</ele><time>2026-04-27T08:04:29.999Z</time></trkpt><trkpt lat="39.48092730504724" lon="16.0647029437943"><ele>1175.6</ele><time>2026-04-27T08:04:30.999Z</time></trkpt><trkpt lat="39.480855126038804" lon="16.064608996300095"><ele>1178.4</ele><time>2026-04-27T08:04:31.999Z</time></trkpt><trkpt lat="39.48077191560012" lon="16.064540887960188"><ele>1181.2</ele><time>2026-04-27T08:04:32.999Z</time></trkpt><trkpt lat="39.48067168939215" lon="16.064514889565874"><ele>1184.0</ele><time>2026-04-27T08:04:33.999Z</time></trkpt><trkpt lat="39.48058072989324" lon="16.064456927803292"><ele>1184.0</ele><time>2026-04-27T08:04:34.999Z</time></trkpt><trkpt lat="39.48048158629882" lon="16.064352087157797"><ele>1184.0</ele><time>2026-04-27T08:04:35.999Z</time></trkpt><trkpt lat="39.48038712141903" lon="16.064227869463583"><ele>1184.0</ele><time>2026-04-27T08:04:36.999Z</time></trkpt><trkpt lat="39.4803048210506" lon="16.06412000804803"><ele>1184.0</ele><time>2026-04-27T08:04:37.999Z</time></trkpt><trkpt lat="39.48020365574524" lon="16.064053569434012"><ele>1183.0</ele><time>2026-04-27T08:04:38.999Z</time></trkpt><trkpt lat="39.480097820437365" lon="16.064002321702965"><ele>1182.0</ele><time>2026-04-27T08:04:39.999Z</time></trkpt><trkpt lat="39.47996259009392" lon="16.063933408097128"><ele>1181.0</ele><time>2026-04-27T08:04:40.999Z</time></trkpt><trkpt lat="39.479853464033326" lon="16.06388717757254"><ele>1180.0</ele><time>2026-04-27T08:04:41.999Z</time></trkpt><trkpt lat="39.479759468062966" lon="16.063856612266537"><ele>1180.0</ele><time>2026-04-27T08:04:42.999Z</time></trkpt><trkpt lat="39.47967504122105" lon="16.063826285099417"><ele>1180.0</ele><time>2026-04-27T08:04:43.999Z</time></trkpt><trkpt lat="39.479575205884665" lon="16.063797550681343"><ele>1180.0</ele><time>2026-04-27T08:04:44.999Z</time></trkpt><trkpt lat="39.479488805716414" lon="16.063791536741558"><ele>1180.0</ele><time>2026-04-27T08:04:45.999Z</time></trkpt><trkpt lat="39.47938733892746" lon="16.063778792490194"><ele>1180.0</ele><time>2026-04-27T08:04:46.999Z</time></trkpt><trkpt lat="39.47929276389974" lon="16.063761790967856"><ele>1175.4</ele><time>2026-04-27T08:04:47.999Z</time></trkpt><trkpt lat="39.47919766108966" lon="16.06374406502025"><ele>1170.8</ele><time>2026-04-27T08:04:48.999Z</time></trkpt><trkpt lat="39.47910543186931" lon="16.063743080535097"><ele>1166.2</ele><time>2026-04-27T08:04:49.999Z</time></trkpt><trkpt lat="39.4790146538399" lon="16.063731170555663"><ele>1161.6</ele><time>2026-04-27T08:04:51Z</time></trkpt><trkpt lat="39.478917790508866" lon="16.063737398557706"><ele>1157.0</ele><time>2026-04-27T08:04:52Z</time></trkpt><trkpt lat="39.47881809395923" lon="16.063751634033576"><ele>1153.6</ele><time>2026-04-27T08:04:53Z</time></trkpt><trkpt lat="39.478725982523926" lon="16.063788690490572"><ele>1150.2</ele><time>2026-04-27T08:04:54Z</time></trkpt><trkpt lat="39.47863808184645" lon="16.063837119890394"><ele>1146.8</ele><time>2026-04-27T08:04:55Z</time></trkpt><trkpt lat="39.478533529937344" lon="16.063886859204022"><ele>1143.4</ele><time>2026-04-27T08:04:56Z</time></trkpt><trkpt lat="39.4784434156184" lon="16.06391224812576"><ele>1140.0</ele><time>2026-04-27T08:04:57Z</time></trkpt><trkpt lat="39.478334573401284" lon="16.06391736292558"><ele>1140.0</ele><time>2026-04-27T08:04:58Z</time></trkpt><trkpt lat="39.478218794942784" lon="16.06392206971488"><ele>1140.0</ele><time>2026-04-27T08:04:59Z</time></trkpt><trkpt lat="39.47810966387505" lon="16.063927135958114"><ele>1140.0</ele><time>2026-04-27T08:05:00Z</time></trkpt><trkpt lat="39.47803223196821" lon="16.063937191153446"><ele>1140.0</ele><time>2026-04-27T08:05:01Z</time></trkpt><trkpt lat="39.47796863167846" lon="16.063933762275596"><ele>1140.0</ele><time>2026-04-27T08:05:02Z</time></trkpt><trkpt lat="39.477885986141644" lon="16.06393387901104"><ele>1140.0</ele><time>2026-04-27T08:05:04Z</time></trkpt><trkpt lat="39.47778949926604" lon="16.06399177575588"><ele>1140.0</ele><time>2026-04-27T08:05:06Z</time></trkpt><trkpt lat="39.477740063218945" lon="16.064092876747292"><ele>1140.0</ele><time>2026-04-27T08:05:08Z</time></trkpt><trkpt lat="39.477700826772946" lon="16.0641628510599"><ele>1140.0</ele><time>2026-04-27T08:05:09Z</time></trkpt><trkpt lat="39.47769113464117" lon="16.06425949648433"><ele>1140.0</ele><time>2026-04-27T08:05:10Z</time></trkpt><trkpt lat="39.47767349088154" lon="16.064349155965548"><ele>1140.0</ele><time>2026-04-27T08:05:11Z</time></trkpt><trkpt lat="39.47765500167718" lon="16.064428243383727"><ele>1140.0</ele><time>2026-04-27T08:05:12Z</time></trkpt><trkpt lat="39.47763049056415" lon="16.064581607969863"><ele>1140.0</ele><time>2026-04-27T08:05:14Z</time></trkpt><trkpt lat="39.47757002572568" lon="16.064672163300425"><ele>1140.0</ele><time>2026-04-27T08:05:15Z</time></trkpt><trkpt lat="39.477483632225805" lon="16.064741644561753"><ele>1140.0</ele><time>2026-04-27T08:05:16Z</time></trkpt><trkpt lat="39.47738487069682" lon="16.064836261165144"><ele>1140.0</ele><time>2026-04-27T08:05:17Z</time></trkpt><trkpt lat="39.477298912212646" lon="16.06492025873488"><ele>1140.0</ele><time>2026-04-27T08:05:18Z</time></trkpt><trkpt lat="39.477227111277365" lon="16.06499419609549"><ele>1140.6</ele><time>2026-04-27T08:05:19Z</time></trkpt><trkpt lat="39.477148783202885" lon="16.065097772092514"><ele>1141.2</ele><time>2026-04-27T08:05:20Z</time></trkpt><trkpt lat="39.477057673024824" lon="16.065188275488808"><ele>1141.8</ele><time>2026-04-27T08:05:21Z</time></trkpt><trkpt lat="39.47700501914758" lon="16.065287886116092"><ele>1142.4</ele><time>2026-04-27T08:05:22Z</time></trkpt><trkpt lat="39.47697275494367" lon="16.065388621526544"><ele>1143.0</ele><time>2026-04-27T08:05:23Z</time></trkpt><trkpt lat="39.476929980330205" lon="16.06549301337575"><ele>1143.0</ele><time>2026-04-27T08:05:24Z</time></trkpt><trkpt lat="39.47688060027842" lon="16.06558515981339"><ele>1143.0</ele><time>2026-04-27T08:05:25Z</time></trkpt><trkpt lat="39.476830735136254" lon="16.065697293563236"><ele>1143.0</ele><time>2026-04-27T08:05:26Z</time></trkpt><trkpt lat="39.4767693870295" lon="16.06579569544796"><ele>1143.0</ele><time>2026-04-27T08:05:27Z</time></trkpt><trkpt lat="39.47670430929192" lon="16.065873113260427"><ele>1143.0</ele><time>2026-04-27T08:05:28Z</time></trkpt><trkpt lat="39.47662784132352" lon="16.065932882670484"><ele>1142.3333333333333</ele><time>2026-04-27T08:05:29Z</time></trkpt><trkpt lat="39.476560851901255" lon="16.065997491806037"><ele>1141.6666666666667</ele><time>2026-04-27T08:05:30Z</time></trkpt><trkpt lat="39.47649352275923" lon="16.066083744618798"><ele>1141.0</ele><time>2026-04-27T08:05:31Z</time></trkpt><trkpt lat="39.476426046845546" lon="16.066169433713924"><ele>1140.3333333333335</ele><time>2026-04-27T08:05:32Z</time></trkpt><trkpt lat="39.47638174720819" lon="16.066236575555813"><ele>1139.6666666666667</ele><time>2026-04-27T08:05:33Z</time></trkpt><trkpt lat="39.47631084346149" lon="16.066286287713446"><ele>1139.0</ele><time>2026-04-27T08:05:34Z</time></trkpt><trkpt lat="39.4762585209382" lon="16.066343215593797"><ele>1139.0</ele><time>2026-04-27T08:05:35Z</time></trkpt><trkpt lat="39.476199207457675" lon="16.06640693330495"><ele>1139.0</ele><time>2026-04-27T08:05:36Z</time></trkpt><trkpt lat="39.47611429208657" lon="16.066463159176767"><ele>1139.0</ele><time>2026-04-27T08:05:37Z</time></trkpt><trkpt lat="39.47601841805188" lon="16.06651529107581"><ele>1139.0</ele><time>2026-04-27T08:05:38Z</time></trkpt><trkpt lat="39.475937214556176" lon="16.066554405282158"><ele>1139.0</ele><time>2026-04-27T08:05:39Z</time></trkpt><trkpt lat="39.4758462650244" lon="16.066617124023413"><ele>1133.0</ele><time>2026-04-27T08:05:40Z</time></trkpt><trkpt lat="39.47576087567359" lon="16.06667318729533"><ele>1127.0</ele><time>2026-04-27T08:05:41Z</time></trkpt><trkpt lat="39.47568699943993" lon="16.066736276018695"><ele>1121.0</ele><time>2026-04-27T08:05:42Z</time></trkpt><trkpt lat="39.47562616691089" lon="16.06686162355368"><ele>1115.0</ele><time>2026-04-27T08:05:43Z</time></trkpt><trkpt lat="39.47558269363958" lon="16.066950613365574"><ele>1109.0</ele><time>2026-04-27T08:05:44Z</time></trkpt><trkpt lat="39.47550269189351" lon="16.067061225838685"><ele>1108.75</ele><time>2026-04-27T08:05:45Z</time></trkpt><trkpt lat="39.47542529182386" lon="16.067198667532946"><ele>1108.5</ele><time>2026-04-27T08:05:46Z</time></trkpt><trkpt lat="39.47535541457548" lon="16.067303900679164"><ele>1108.25</ele><time>2026-04-27T08:05:47Z</time></trkpt><trkpt lat="39.47527881373389" lon="16.067438905131247"><ele>1108.0</ele><time>2026-04-27T08:05:48Z</time></trkpt><trkpt lat="39.47520202804077" lon="16.067551908134778"><ele>1108.0</ele><time>2026-04-27T08:05:49Z</time></trkpt><trkpt lat="39.47512732680845" lon="16.067641209232267"><ele>1108.0</ele><time>2026-04-27T08:05:50Z</time></trkpt><trkpt lat="39.47504918789689" lon="16.06773481348252"><ele>1108.0</ele><time>2026-04-27T08:05:51Z</time></trkpt><trkpt lat="39.47496523056871" lon="16.067820991738806"><ele>1108.0</ele><time>2026-04-27T08:05:52Z</time></trkpt><trkpt lat="39.4748388102395" lon="16.06789490076544"><ele>1108.0</ele><time>2026-04-27T08:05:53Z</time></trkpt><trkpt lat="39.474762106170594" lon="16.067983785145643"><ele>1108.0</ele><time>2026-04-27T08:05:53.999Z</time></trkpt><trkpt lat="39.47468740772673" lon="16.068046178661195"><ele>1108.0</ele><time>2026-04-27T08:05:54.999Z</time></trkpt><trkpt lat="39.47462111919112" lon="16.068121009194396"><ele>1108.0</ele><time>2026-04-27T08:05:55.999Z</time></trkpt><trkpt lat="39.474547045614514" lon="16.068255720921183"><ele>1108.0</ele><time>2026-04-27T08:05:56.999Z</time></trkpt><trkpt lat="39.474466409713166" lon="16.068387028702244"><ele>1108.25</ele><time>2026-04-27T08:05:57.999Z</time></trkpt><trkpt lat="39.474394999335786" lon="16.068502231634078"><ele>1108.5</ele><time>2026-04-27T08:05:58.999Z</time></trkpt><trkpt lat="39.474315400943844" lon="16.06862700885852"><ele>1108.75</ele><time>2026-04-27T08:05:59.999Z</time></trkpt><trkpt lat="39.47424370354315" lon="16.06874343564409"><ele>1109.0</ele><time>2026-04-27T08:06:00.999Z</time></trkpt><trkpt lat="39.47415582298946" lon="16.068843920614988"><ele>1109.0</ele><time>2026-04-27T08:06:01.999Z</time></trkpt><trkpt lat="39.474086322148565" lon="16.06892763858962"><ele>1109.0</ele><time>2026-04-27T08:06:02.999Z</time></trkpt><trkpt lat="39.47399172478412" lon="16.0689914954001"><ele>1109.0</ele><time>2026-04-27T08:06:03.999Z</time></trkpt><trkpt lat="39.47389356496197" lon="16.069094424465046"><ele>1109.0</ele><time>2026-04-27T08:06:04.999Z</time></trkpt><trkpt lat="39.47378097230173" lon="16.069200032459808"><ele>1107.8</ele><time>2026-04-27T08:06:05.999Z</time></trkpt><trkpt lat="39.473695822896" lon="16.069289773515116"><ele>1106.6000000000001</ele><time>2026-04-27T08:06:06.999Z</time></trkpt><trkpt lat="39.47361360524163" lon="16.06935874830458"><ele>1105.4</ele><time>2026-04-27T08:06:07.999Z</time></trkpt><trkpt lat="39.47355595497701" lon="16.069430749350822"><ele>1104.2</ele><time>2026-04-27T08:06:08.999Z</time></trkpt><trkpt lat="39.47353108055974" lon="16.06953374005204"><ele>1103.0</ele><time>2026-04-27T08:06:09.999Z</time></trkpt><trkpt lat="39.47349732112788" lon="16.06965185827586"><ele>1103.0</ele><time>2026-04-27T08:06:10.999Z</time></trkpt><trkpt lat="39.47346439490214" lon="16.069732576955467"><ele>1103.0</ele><time>2026-04-27T08:06:11.999Z</time></trkpt><trkpt lat="39.47340903986278" lon="16.069821762930562"><ele>1103.0</ele><time>2026-04-27T08:06:12.999Z</time></trkpt><trkpt lat="39.47334659102255" lon="16.06989595986534"><ele>1103.0</ele><time>2026-04-27T08:06:13.999Z</time></trkpt><trkpt lat="39.47327225225059" lon="16.069979289979322"><ele>1103.0</ele><time>2026-04-27T08:06:14.999Z</time></trkpt><trkpt lat="39.47318548675915" lon="16.070021208599503"><ele>1103.0</ele><time>2026-04-27T08:06:15.999Z</time></trkpt><trkpt lat="39.473082648982796" lon="16.070065876330183"><ele>1102.6</ele><time>2026-04-27T08:06:16.999Z</time></trkpt><trkpt lat="39.47299476797212" lon="16.070135196147405"><ele>1102.1999999999998</ele><time>2026-04-27T08:06:17.999Z</time></trkpt><trkpt lat="39.47292617424286" lon="16.070248686198326"><ele>1101.8</ele><time>2026-04-27T08:06:18.999Z</time></trkpt><trkpt lat="39.47285937522333" lon="16.070325832865205"><ele>1101.3999999999999</ele><time>2026-04-27T08:06:19.999Z</time></trkpt><trkpt lat="39.47281130856801" lon="16.070400981180317"><ele>1101.0</ele><time>2026-04-27T08:06:20.999Z</time></trkpt><trkpt lat="39.47276797650237" lon="16.070490482663946"><ele>1101.0</ele><time>2026-04-27T08:06:21.999Z</time></trkpt><trkpt lat="39.472702176788324" lon="16.070568873686025"><ele>1101.0</ele><time>2026-04-27T08:06:22.999Z</time></trkpt><trkpt lat="39.47262538549278" lon="16.07063544396612"><ele>1101.0</ele><time>2026-04-27T08:06:23.999Z</time></trkpt><trkpt lat="39.47255182157766" lon="16.070680424110257"><ele>1101.0</ele><time>2026-04-27T08:06:24.999Z</time></trkpt><trkpt lat="39.47247646984354" lon="16.07069799282722"><ele>1101.0</ele><time>2026-04-27T08:06:25.999Z</time></trkpt><trkpt lat="39.47238991494645" lon="16.070711427492583"><ele>1101.0</ele><time>2026-04-27T08:06:26.999Z</time></trkpt><trkpt lat="39.4723047502262" lon="16.070708670184292"><ele>1101.0</ele><time>2026-04-27T08:06:27.999Z</time></trkpt><trkpt lat="39.472204344731075" lon="16.07073720706676"><ele>1101.0</ele><time>2026-04-27T08:06:29.999Z</time></trkpt><trkpt lat="39.47216605870759" lon="16.070827344204943"><ele>1101.0</ele><time>2026-04-27T08:06:30.999Z</time></trkpt><trkpt lat="39.47213901733022" lon="16.070937837571766"><ele>1101.0</ele><time>2026-04-27T08:06:31.999Z</time></trkpt><trkpt lat="39.47209671439699" lon="16.07099901022533"><ele>1101.0</ele><time>2026-04-27T08:06:32.999Z</time></trkpt><trkpt lat="39.47199665161335" lon="16.07114728069326"><ele>1098.0</ele><time>2026-04-27T08:06:34.999Z</time></trkpt><trkpt lat="39.4719165077789" lon="16.0712436174099"><ele>1095.0</ele><time>2026-04-27T08:06:35.999Z</time></trkpt><trkpt lat="39.47179690678034" lon="16.07135352763862"><ele>1092.0</ele><time>2026-04-27T08:06:36.999Z</time></trkpt><trkpt lat="39.47171508421602" lon="16.07142501508877"><ele>1089.0</ele><time>2026-04-27T08:06:37.999Z</time></trkpt><trkpt lat="39.47166425089231" lon="16.071483320885402"><ele>1086.0</ele><time>2026-04-27T08:06:38.999Z</time></trkpt><trkpt lat="39.47155279641408" lon="16.071561952461412"><ele>1086.0</ele><time>2026-04-27T08:06:40.999Z</time></trkpt><trkpt lat="39.47148116692877" lon="16.07160030147169"><ele>1086.0</ele><time>2026-04-27T08:06:41.999Z</time></trkpt><trkpt lat="39.471398132252006" lon="16.071595522411915"><ele>1086.0</ele><time>2026-04-27T08:06:42.999Z</time></trkpt><trkpt lat="39.47127517799464" lon="16.071567936523213"><ele>1086.0</ele><time>2026-04-27T08:06:43.999Z</time></trkpt><trkpt lat="39.47115301217131" lon="16.07154774426474"><ele>1086.0</ele><time>2026-04-27T08:06:44.999Z</time></trkpt><trkpt lat="39.47103898294154" lon="16.07153935718513"><ele>1087.6</ele><time>2026-04-27T08:06:45.999Z</time></trkpt><trkpt lat="39.47094345472096" lon="16.071558204606625"><ele>1089.1999999999998</ele><time>2026-04-27T08:06:46.999Z</time></trkpt><trkpt lat="39.47083398383565" lon="16.071585302518166"><ele>1090.8000000000002</ele><time>2026-04-27T08:06:47.999Z</time></trkpt><trkpt lat="39.47072595992277" lon="16.071622392608496"><ele>1092.4</ele><time>2026-04-27T08:06:48.999Z</time></trkpt><trkpt lat="39.470621333199986" lon="16.071656213953688"><ele>1094.0</ele><time>2026-04-27T08:06:49.999Z</time></trkpt><trkpt lat="39.47051238884239" lon="16.07168564086459"><ele>1090.1666666666667</ele><time>2026-04-27T08:06:50.999Z</time></trkpt><trkpt lat="39.47040460369368" lon="16.07171148775381"><ele>1086.3333333333335</ele><time>2026-04-27T08:06:51.999Z</time></trkpt><trkpt lat="39.47033814138406" lon="16.071739948200722"><ele>1082.5</ele><time>2026-04-27T08:06:52.999Z</time></trkpt><trkpt lat="39.47027358272187" lon="16.071763436417836"><ele>1078.6666666666667</ele><time>2026-04-27T08:06:53.999Z</time></trkpt><trkpt lat="39.47023870812731" lon="16.071840295033525"><ele>1074.8333333333333</ele><time>2026-04-27T08:06:54.999Z</time></trkpt><trkpt lat="39.470183578426955" lon="16.07196872086796"><ele>1071.0</ele><time>2026-04-27T08:06:58Z</time></trkpt><trkpt lat="39.470136630962585" lon="16.072069171300452"><ele>1071.0</ele><time>2026-04-27T08:06:59Z</time></trkpt><trkpt lat="39.47010002155417" lon="16.07219929643362"><ele>1071.0</ele><time>2026-04-27T08:07:01Z</time></trkpt><trkpt lat="39.47007248451621" lon="16.072314996569954"><ele>1071.0</ele><time>2026-04-27T08:07:03Z</time></trkpt><trkpt lat="39.470042608355804" lon="16.07240377595935"><ele>1071.0</ele><time>2026-04-27T08:07:08Z</time></trkpt><trkpt lat="39.46999068056534" lon="16.072466855012443"><ele>1071.0</ele><time>2026-04-27T08:07:12Z</time></trkpt><trkpt lat="39.469944870482806" lon="16.072524856364087"><ele>1071.0</ele><time>2026-04-27T08:07:14Z</time></trkpt><trkpt lat="39.4698795790628" lon="16.072631739732845"><ele>1068.3333333333333</ele><time>2026-04-27T08:07:16Z</time></trkpt><trkpt lat="39.46980827725656" lon="16.07268457472375"><ele>1065.6666666666667</ele><time>2026-04-27T08:07:18Z</time></trkpt><trkpt lat="39.469785534341284" lon="16.072763069888218"><ele>1063.0</ele><time>2026-04-27T08:07:20Z</time></trkpt><trkpt lat="39.46974391036492" lon="16.07282926664707"><ele>1060.3333333333335</ele><time>2026-04-27T08:07:22Z</time></trkpt><trkpt lat="39.46970748349088" lon="16.072914301775423"><ele>1057.6666666666667</ele><time>2026-04-27T08:07:25Z</time></trkpt><trkpt lat="39.46965960639436" lon="16.072981342710225"><ele>1055.0</ele><time>2026-04-27T08:07:28Z</time></trkpt><trkpt lat="39.46923219956797" lon="16.073555388194556"><ele>1055.8</ele><time>2026-04-27T08:07:32Z</time></trkpt><trkpt lat="39.46910025219885" lon="16.073593400750585"><ele>1056.6</ele><time>2026-04-27T08:07:34Z</time></trkpt><trkpt lat="39.46900238163689" lon="16.07362594306938"><ele>1057.4</ele><time>2026-04-27T08:07:35Z</time></trkpt><trkpt lat="39.46890034146427" lon="16.07364671855219"><ele>1058.2</ele><time>2026-04-27T08:07:36Z</time></trkpt><trkpt lat="39.46879893142879" lon="16.0736644897131"><ele>1059.0</ele><time>2026-04-27T08:07:37Z</time></trkpt><trkpt lat="39.46868694584051" lon="16.073686926189588"><ele>1059.0</ele><time>2026-04-27T08:07:38Z</time></trkpt><trkpt lat="39.468593193474774" lon="16.07371174157732"><ele>1059.0</ele><time>2026-04-27T08:07:39Z</time></trkpt><trkpt lat="39.46851689721836" lon="16.073744106075026"><ele>1059.0</ele><time>2026-04-27T08:07:40Z</time></trkpt><trkpt lat="39.46845283451162" lon="16.07378447518717"><ele>1059.0</ele><time>2026-04-27T08:07:41Z</time></trkpt><trkpt lat="39.46839605948961" lon="16.073820250524413"><ele>1059.0</ele><time>2026-04-27T08:07:42Z</time></trkpt><trkpt lat="39.46830084022709" lon="16.07389622639097"><ele>1059.0</ele><time>2026-04-27T08:07:44Z</time></trkpt><trkpt lat="39.468247020193964" lon="16.07395492243448"><ele>1059.0</ele><time>2026-04-27T08:07:46Z</time></trkpt><trkpt lat="39.468310286346075" lon="16.074024697654895"><ele>1059.0</ele><time>2026-04-27T08:07:49Z</time></trkpt><trkpt lat="39.4683711062774" lon="16.07404578747763"><ele>1059.0</ele><time>2026-04-27T08:07:51Z</time></trkpt><trkpt lat="39.4684681833254" lon="16.074018014745086"><ele>1059.0</ele><time>2026-04-27T08:07:53Z</time></trkpt><trkpt lat="39.468545478246185" lon="16.073989857298596"><ele>1059.0</ele><time>2026-04-27T08:07:54Z</time></trkpt><trkpt lat="39.46861094802068" lon="16.074022989237747"><ele>1059.0</ele><time>2026-04-27T08:07:56Z</time></trkpt><trkpt lat="39.46868232190457" lon="16.074042952872578"><ele>1047.6666666666667</ele><time>2026-04-27T08:07:58Z</time></trkpt><trkpt lat="39.468794152494134" lon="16.074137769235282"><ele>1036.3333333333335</ele><time>2026-04-27T08:07:59.999Z</time></trkpt><trkpt lat="39.46889653773652" lon="16.07420743749338"><ele>1025.0</ele><time>2026-04-27T08:08:01.999Z</time></trkpt><trkpt lat="39.469193193704726" lon="16.07440298843583"><ele>1025.0</ele><time>2026-04-27T08:08:03.999Z</time></trkpt><trkpt lat="39.469272416770465" lon="16.07443241806749"><ele>1025.0</ele><time>2026-04-27T08:08:04.999Z</time></trkpt><trkpt lat="39.46939715096482" lon="16.07440601442874"><ele>1025.0</ele><time>2026-04-27T08:08:06.999Z</time></trkpt><trkpt lat="39.46947457540378" lon="16.074405492323358"><ele>1025.0</ele><time>2026-04-27T08:08:07.999Z</time></trkpt><trkpt lat="39.46953716750079" lon="16.07439465101053"><ele>1025.0</ele><time>2026-04-27T08:08:08.999Z</time></trkpt><trkpt lat="39.46964650603536" lon="16.074372031421984"><ele>1022.8333333333334</ele><time>2026-04-27T08:08:10.999Z</time></trkpt><trkpt lat="39.469737758198946" lon="16.074357483541103"><ele>1020.6666666666667</ele><time>2026-04-27T08:08:12.999Z</time></trkpt><trkpt lat="39.46982127693279" lon="16.074390478504807"><ele>1018.5</ele><time>2026-04-27T08:08:14.999Z</time></trkpt><trkpt lat="39.4698842188999" lon="16.074422211764254"><ele>1016.3333333333333</ele><time>2026-04-27T08:08:15.999Z</time></trkpt><trkpt lat="39.46994837944898" lon="16.07445331444691"><ele>1014.1666666666666</ele><time>2026-04-27T08:08:16.999Z</time></trkpt><trkpt lat="39.470007953405464" lon="16.074493917983634"><ele>1012.0</ele><time>2026-04-27T08:08:17.999Z</time></trkpt><trkpt lat="39.47007207855749" lon="16.074540524819163"><ele>1012.0</ele><time>2026-04-27T08:08:18.999Z</time></trkpt><trkpt lat="39.4701332811188" lon="16.074625966984662"><ele>1012.0</ele><time>2026-04-27T08:08:19.999Z</time></trkpt><trkpt lat="39.4701850344569" lon="16.074713420876474"><ele>1012.0</ele><time>2026-04-27T08:08:20.999Z</time></trkpt><trkpt lat="39.47022617690614" lon="16.074800331169442"><ele>1012.0</ele><time>2026-04-27T08:08:21.999Z</time></trkpt><trkpt lat="39.4702584576899" lon="16.07489708997668"><ele>1012.0</ele><time>2026-04-27T08:08:22.999Z</time></trkpt><trkpt lat="39.470345043044716" lon="16.075012037689163"><ele>1011.4999999999999</ele><time>2026-04-27T08:08:24.999Z</time></trkpt><trkpt lat="39.470411349657084" lon="16.07500370048943"><ele>1011.0</ele><time>2026-04-27T08:08:25.999Z</time></trkpt><trkpt lat="39.47046982389454" lon="16.074953681926615"><ele>1010.5</ele><time>2026-04-27T08:08:28.999Z</time></trkpt><trkpt lat="39.470542781958564" lon="16.074928317376198"><ele>1010.0</ele><time>2026-04-27T08:08:30.999Z</time></trkpt><trkpt lat="39.47064933342614" lon="16.074926179880205"><ele>1009.4999999999999</ele><time>2026-04-27T08:08:33.999Z</time></trkpt><trkpt lat="39.47063605038441" lon="16.075021159973748"><ele>1009.0</ele><time>2026-04-27T08:08:37.999Z</time></trkpt><trkpt lat="39.47058759492351" lon="16.075106935750565"><ele>1008.9999999999999</ele><time>2026-04-27T08:08:40.999Z</time></trkpt><trkpt lat="39.47051326913317" lon="16.07515381094207"><ele>1009.0</ele><time>2026-04-27T08:08:44.999Z</time></trkpt><trkpt lat="39.47044988961358" lon="16.075184425433406"><ele>1009.0</ele><time>2026-04-27T08:08:48.999Z</time></trkpt><trkpt lat="39.47035508576817" lon="16.07522451023411"><ele>1009.0</ele><time>2026-04-27T08:08:52.999Z</time></trkpt><trkpt lat="39.470289375821" lon="16.075289204706618"><ele>1008.9999999999999</ele><time>2026-04-27T08:08:56.999Z</time></trkpt><trkpt lat="39.47030406619706" lon="16.075373796523614"><ele>1009.0</ele><time>2026-04-27T08:08:59.999Z</time></trkpt><trkpt lat="39.47035504863359" lon="16.075422163060885"><ele>1008.9999999999999</ele><time>2026-04-27T08:09:02Z</time></trkpt><trkpt lat="39.470435445210185" lon="16.07546961414804"><ele>1009.0</ele><time>2026-04-27T08:09:05Z</time></trkpt><trkpt lat="39.47048909411138" lon="16.075520410271114"><ele>1009.0</ele><time>2026-04-27T08:09:07Z</time></trkpt><trkpt lat="39.470534751769854" lon="16.07558513544906"><ele>1009.0</ele><time>2026-04-27T08:09:11Z</time></trkpt><trkpt lat="39.47061599262846" lon="16.075687663262567"><ele>1008.9999999999999</ele><time>2026-04-27T08:09:23Z</time></trkpt><trkpt lat="39.470698493571575" lon="16.075709673787177"><ele>1009.0</ele><time>2026-04-27T08:09:26Z</time></trkpt><trkpt lat="39.47103316288461" lon="16.07580551405643"><ele>1006.25</ele><time>2026-04-27T08:09:30Z</time></trkpt><trkpt lat="39.47113087742338" lon="16.07584046630174"><ele>1003.5</ele><time>2026-04-27T08:09:31Z</time></trkpt><trkpt lat="39.471254970642725" lon="16.075913446140316"><ele>1000.75</ele><time>2026-04-27T08:09:32Z</time></trkpt><trkpt lat="39.47135921257769" lon="16.075970248672228"><ele>998.0</ele><time>2026-04-27T08:09:33Z</time></trkpt><trkpt lat="39.47147568092358" lon="16.076025716256456"><ele>995.25</ele><time>2026-04-27T08:09:34Z</time></trkpt><trkpt lat="39.471598595588986" lon="16.076097132354267"><ele>992.5</ele><time>2026-04-27T08:09:35Z</time></trkpt><trkpt lat="39.471702366107344" lon="16.076159170759496"><ele>989.75</ele><time>2026-04-27T08:09:36Z</time></trkpt><trkpt lat="39.471786300757856" lon="16.07622838345053"><ele>987.0</ele><time>2026-04-27T08:09:37Z</time></trkpt><trkpt lat="39.47187222849196" lon="16.07630997501223"><ele>987.0</ele><time>2026-04-27T08:09:38Z</time></trkpt><trkpt lat="39.47194718202769" lon="16.076375270629402"><ele>987.0</ele><time>2026-04-27T08:09:39Z</time></trkpt><trkpt lat="39.472026383949306" lon="16.076429491860146"><ele>987.0</ele><time>2026-04-27T08:09:41Z</time></trkpt><trkpt lat="39.47208941889633" lon="16.076505804345217"><ele>987.0</ele><time>2026-04-27T08:09:59Z</time></trkpt><trkpt lat="39.47213886108134" lon="16.076584077822734"><ele>987.0</ele><time>2026-04-27T08:10:00.999Z</time></trkpt><trkpt lat="39.47221892762311" lon="16.076638010386937"><ele>987.0</ele><time>2026-04-27T08:10:02.999Z</time></trkpt><trkpt lat="39.472283629481055" lon="16.076691930004973"><ele>989.2857142857142</ele><time>2026-04-27T08:10:04.999Z</time></trkpt><trkpt lat="39.47234017202159" lon="16.07672948236664"><ele>991.5714285714286</ele><time>2026-04-27T08:10:06.999Z</time></trkpt><trkpt lat="39.472390221915774" lon="16.07678250934624"><ele>993.8571428571429</ele><time>2026-04-27T08:10:59.999Z</time></trkpt><trkpt lat="39.47246148921509" lon="16.07678565947153"><ele>996.1428571428571</ele><time>2026-04-27T08:11:02.999Z</time></trkpt><trkpt lat="39.47252645048708" lon="16.076736028816573"><ele>998.4285714285713</ele><time>2026-04-27T08:11:05.999Z</time></trkpt><trkpt lat="39.472472107142686" lon="16.076786902806752"><ele>1000.7142857142857</ele><time>2026-04-27T08:11:17Z</time></trkpt><trkpt lat="39.472396799277654" lon="16.076783716221225"><ele>1003.0</ele><time>2026-04-27T08:11:20Z</time></trkpt><trkpt lat="39.472338639415476" lon="16.076724661440167"><ele>1002.9999999999999</ele><time>2026-04-27T08:11:22Z</time></trkpt><trkpt lat="39.472264092847006" lon="16.076670667995113"><ele>1003.0</ele><time>2026-04-27T08:11:24Z</time></trkpt><trkpt lat="39.47218225048486" lon="16.07662526150908"><ele>1003.0</ele><time>2026-04-27T08:11:26Z</time></trkpt><trkpt lat="39.4721454081116" lon="16.076549941468528"><ele>1003.0</ele><time>2026-04-27T08:11:30Z</time></trkpt><trkpt lat="39.4720893619599" lon="16.076494548355054"><ele>1002.9999999999999</ele><time>2026-04-27T08:11:34Z</time></trkpt><trkpt lat="39.47215639574756" lon="16.076552863812964"><ele>1003.0</ele><time>2026-04-27T08:11:49Z</time></trkpt><trkpt lat="39.47222321885449" lon="16.076586385644507"><ele>1003.0</ele><time>2026-04-27T08:11:52Z</time></trkpt><trkpt lat="39.47228725387559" lon="16.076599439444973"><ele>1002.9999999999999</ele><time>2026-04-27T08:12:01Z</time></trkpt><trkpt lat="39.47235064102239" lon="16.076602399559167"><ele>1003.0</ele><time>2026-04-27T08:12:04Z</time></trkpt><trkpt lat="39.472264376272086" lon="16.076571533422836"><ele>1003.0</ele><time>2026-04-27T08:12:28.999Z</time></trkpt><trkpt lat="39.472205570616026" lon="16.07652256538401"><ele>1002.9999999999999</ele><time>2026-04-27T08:12:31.999Z</time></trkpt><trkpt lat="39.4721417906525" lon="16.07655658097496"><ele>1003.0</ele><time>2026-04-27T08:12:35.999Z</time></trkpt><trkpt lat="39.472196974596976" lon="16.076597688387825"><ele>1003.0</ele><time>2026-04-27T08:12:39.999Z</time></trkpt><trkpt lat="39.47227633428168" lon="16.076634465311805"><ele>1002.9999999999999</ele><time>2026-04-27T08:12:41.999Z</time></trkpt><trkpt lat="39.472342591716284" lon="16.076679747932154"><ele>1003.0</ele><time>2026-04-27T08:12:44.999Z</time></trkpt><trkpt lat="39.472421860220265" lon="16.076684984827246"><ele>1003.0</ele><time>2026-04-27T08:12:46.999Z</time></trkpt><trkpt lat="39.47250051329021" lon="16.076703960485958"><ele>1003.0</ele><time>2026-04-27T08:12:48.999Z</time></trkpt><trkpt lat="39.47259018930394" lon="16.076757898214584"><ele>1002.9999999999999</ele><time>2026-04-27T08:12:50.999Z</time></trkpt><trkpt lat="39.47263876144446" lon="16.07681700303678"><ele>1003.0</ele><time>2026-04-27T08:12:51.999Z</time></trkpt><trkpt lat="39.472719827150016" lon="16.07687040593194"><ele>1002.9999999999999</ele><time>2026-04-27T08:12:52.999Z</time></trkpt><trkpt lat="39.472800844214696" lon="16.076912390659"><ele>1003.0</ele><time>2026-04-27T08:12:53.999Z</time></trkpt><trkpt lat="39.47289663957733" lon="16.076940964269717"><ele>1003.0</ele><time>2026-04-27T08:12:54.999Z</time></trkpt><trkpt lat="39.47297088965638" lon="16.076985257546855"><ele>1003.0</ele><time>2026-04-27T08:12:55.999Z</time></trkpt><trkpt lat="39.47303996113156" lon="16.077029344750528"><ele>1002.9999999999999</ele><time>2026-04-27T08:12:56.999Z</time></trkpt><trkpt lat="39.473119521533604" lon="16.077094141652214"><ele>1003.0</ele><time>2026-04-27T08:12:57.999Z</time></trkpt><trkpt lat="39.47320196541457" lon="16.077183546053284"><ele>1000.2</ele><time>2026-04-27T08:12:58.999Z</time></trkpt><trkpt lat="39.47328301578837" lon="16.077280235157207"><ele>997.4</ele><time>2026-04-27T08:12:59.999Z</time></trkpt><trkpt lat="39.473360562886484" lon="16.077335415506585"><ele>994.6000000000001</ele><time>2026-04-27T08:13:00.999Z</time></trkpt><trkpt lat="39.47343558160116" lon="16.077380796009777"><ele>991.8000000000001</ele><time>2026-04-27T08:13:01.999Z</time></trkpt><trkpt lat="39.47351162780337" lon="16.07741412551167"><ele>989.0</ele><time>2026-04-27T08:13:02.999Z</time></trkpt><trkpt lat="39.473594751725194" lon="16.077461808170725"><ele>992.4000000000001</ele><time>2026-04-27T08:13:03.999Z</time></trkpt><trkpt lat="39.473671629913774" lon="16.077525493419635"><ele>995.8000000000001</ele><time>2026-04-27T08:13:04.999Z</time></trkpt><trkpt lat="39.47374109527591" lon="16.07759132974254"><ele>999.1999999999999</ele><time>2026-04-27T08:13:05.999Z</time></trkpt><trkpt lat="39.47380954709404" lon="16.077642628119808"><ele>1002.5999999999999</ele><time>2026-04-27T08:13:06.999Z</time></trkpt><trkpt lat="39.473872607111986" lon="16.077765690543103"><ele>1006.0</ele><time>2026-04-27T08:13:08.999Z</time></trkpt><trkpt lat="39.4738985669986" lon="16.077895470893772"><ele>1006.0</ele><time>2026-04-27T08:13:09.999Z</time></trkpt><trkpt lat="39.473930315117116" lon="16.078024837439216"><ele>1005.9999999999999</ele><time>2026-04-27T08:13:10.999Z</time></trkpt><trkpt lat="39.47396211803804" lon="16.078161330956476"><ele>1005.9999999999999</ele><time>2026-04-27T08:13:11.999Z</time></trkpt><trkpt lat="39.47398894694954" lon="16.078271247295447"><ele>1006.0</ele><time>2026-04-27T08:13:12.999Z</time></trkpt><trkpt lat="39.47403307505703" lon="16.078362907574604"><ele>1006.0</ele><time>2026-04-27T08:13:14Z</time></trkpt><trkpt lat="39.474079128057824" lon="16.07849301512901"><ele>1009.1999999999999</ele><time>2026-04-27T08:13:15Z</time></trkpt><trkpt lat="39.47413782158012" lon="16.078624312201704"><ele>1012.3999999999999</ele><time>2026-04-27T08:13:16Z</time></trkpt><trkpt lat="39.47418881899584" lon="16.078711225068353"><ele>1015.6</ele><time>2026-04-27T08:13:17Z</time></trkpt><trkpt lat="39.47427171434386" lon="16.078811008924333"><ele>1018.8</ele><time>2026-04-27T08:13:18Z</time></trkpt><trkpt lat="39.47434461544293" lon="16.078923595379653"><ele>1022.0</ele><time>2026-04-27T08:13:19Z</time></trkpt><trkpt lat="39.474393770511256" lon="16.079017909940276"><ele>1019.4000000000001</ele><time>2026-04-27T08:13:20Z</time></trkpt><trkpt lat="39.47443649030125" lon="16.07911850429566"><ele>1016.8000000000001</ele><time>2026-04-27T08:13:21Z</time></trkpt><trkpt lat="39.474492300268565" lon="16.07925832802435"><ele>1014.2</ele><time>2026-04-27T08:13:22Z</time></trkpt><trkpt lat="39.474565159613874" lon="16.079389380783443"><ele>1011.6</ele><time>2026-04-27T08:13:23Z</time></trkpt><trkpt lat="39.47462751189288" lon="16.07948911680409"><ele>1009.0</ele><time>2026-04-27T08:13:24Z</time></trkpt><trkpt lat="39.47466888386553" lon="16.079562923464845"><ele>1008.9999999999999</ele><time>2026-04-27T08:13:25Z</time></trkpt><trkpt lat="39.47469791169158" lon="16.07963810930388"><ele>1009.0</ele><time>2026-04-27T08:13:26Z</time></trkpt><trkpt lat="39.474720453219454" lon="16.07976363734801"><ele>1009.0</ele><time>2026-04-27T08:13:28Z</time></trkpt><trkpt lat="39.47472161254174" lon="16.079919129733646"><ele>1009.0</ele><time>2026-04-27T08:13:30Z</time></trkpt><trkpt lat="39.47469897524142" lon="16.08000113803842"><ele>1008.9999999999999</ele><time>2026-04-27T08:13:31Z</time></trkpt><trkpt lat="39.47468426911231" lon="16.080095221556476"><ele>1009.0</ele><time>2026-04-27T08:13:32Z</time></trkpt><trkpt lat="39.474696421846474" lon="16.080267644991153"><ele>1010.4999999999999</ele><time>2026-04-27T08:13:34Z</time></trkpt><trkpt lat="39.47472598150965" lon="16.080339729251193"><ele>1012.0</ele><time>2026-04-27T08:13:35Z</time></trkpt><trkpt lat="39.474775273256995" lon="16.08039101998253"><ele>1013.5</ele><time>2026-04-27T08:13:36Z</time></trkpt><trkpt lat="39.474850779962956" lon="16.080437516113733"><ele>1015.0</ele><time>2026-04-27T08:13:37Z</time></trkpt><trkpt lat="39.47495274553475" lon="16.0804758482512"><ele>1016.4999999999999</ele><time>2026-04-27T08:13:39Z</time></trkpt><trkpt lat="39.47501643709773" lon="16.080528731637823"><ele>1018.0</ele><time>2026-04-27T08:13:41Z</time></trkpt><trkpt lat="39.47508918120579" lon="16.080559796578676"><ele>1017.9999999999999</ele><time>2026-04-27T08:13:43Z</time></trkpt><trkpt lat="39.47514178057516" lon="16.08060649578236"><ele>1018.0</ele><time>2026-04-27T08:13:46Z</time></trkpt><trkpt lat="39.47514610834752" lon="16.080699155310647"><ele>1018.0</ele><time>2026-04-27T08:14:02Z</time></trkpt><trkpt lat="39.475073018748525" lon="16.08069137371929"><ele>1018.0</ele><time>2026-04-27T08:14:04Z</time></trkpt><trkpt lat="39.47493763000579" lon="16.08072436538786"><ele>1017.9999999999999</ele><time>2026-04-27T08:14:06Z</time></trkpt><trkpt lat="39.47484647171659" lon="16.080732786590957"><ele>1018.0</ele><time>2026-04-27T08:14:07Z</time></trkpt><trkpt lat="39.47475518359205" lon="16.08073450476052"><ele>1018.0</ele><time>2026-04-27T08:14:08Z</time></trkpt><trkpt lat="39.47467988679406" lon="16.080735790545724"><ele>1018.0</ele><time>2026-04-27T08:14:08.999Z</time></trkpt><trkpt lat="39.47461114490883" lon="16.080733138967"><ele>1018.0</ele><time>2026-04-27T08:14:09.999Z</time></trkpt><trkpt lat="39.47452305420048" lon="16.08069940641375"><ele>1018.0</ele><time>2026-04-27T08:14:10.999Z</time></trkpt><trkpt lat="39.47440783122577" lon="16.080659400190218"><ele>1018.0</ele><time>2026-04-27T08:14:11.999Z</time></trkpt><trkpt lat="39.47430853920547" lon="16.08062891698298"><ele>1021.9999999999999</ele><time>2026-04-27T08:14:12.999Z</time></trkpt><trkpt lat="39.47424726961981" lon="16.080600245144034"><ele>1026.0</ele><time>2026-04-27T08:14:13.999Z</time></trkpt><trkpt lat="39.47417702052275" lon="16.080562724814296"><ele>1030.0</ele><time>2026-04-27T08:14:14.999Z</time></trkpt><trkpt lat="39.47406377661338" lon="16.08053105781729"><ele>1034.0</ele><time>2026-04-27T08:14:16.999Z</time></trkpt><trkpt lat="39.4739877216593" lon="16.080579616114953"><ele>1038.0</ele><time>2026-04-27T08:14:18.999Z</time></trkpt><trkpt lat="39.47391171976518" lon="16.080588127013733"><ele>1042.0</ele><time>2026-04-27T08:14:21.999Z</time></trkpt><trkpt lat="39.47387165502635" lon="16.080518690697264"><ele>1042.0</ele><time>2026-04-27T08:14:24.999Z</time></trkpt><trkpt lat="39.47382398566286" lon="16.080445266346377"><ele>1042.0</ele><time>2026-04-27T08:14:38.999Z</time></trkpt><trkpt lat="39.47384528529572" lon="16.08029759849193"><ele>1042.0</ele><time>2026-04-27T08:14:40.999Z</time></trkpt><trkpt lat="39.47383821317566" lon="16.080185766269285"><ele>1042.0</ele><time>2026-04-27T08:14:42.999Z</time></trkpt><trkpt lat="39.473809979394275" lon="16.080110571765182"><ele>1042.0</ele><time>2026-04-27T08:14:43.999Z</time></trkpt><trkpt lat="39.473743117709276" lon="16.080066181439534"><ele>1042.0</ele><time>2026-04-27T08:14:45.999Z</time></trkpt><trkpt lat="39.473667476273555" lon="16.080126837812024"><ele>1045.6</ele><time>2026-04-27T08:14:47.999Z</time></trkpt><trkpt lat="39.47359972138994" lon="16.080228221606227"><ele>1049.2</ele><time>2026-04-27T08:14:48.999Z</time></trkpt><trkpt lat="39.47353888280551" lon="16.08033363227577"><ele>1052.8</ele><time>2026-04-27T08:14:49.999Z</time></trkpt><trkpt lat="39.47350106946426" lon="16.080421926491695"><ele>1056.4</ele><time>2026-04-27T08:14:50.999Z</time></trkpt><trkpt lat="39.473409379863725" lon="16.080487585908966"><ele>1060.0</ele><time>2026-04-27T08:14:52.999Z</time></trkpt><trkpt lat="39.473345293868405" lon="16.080531749718446"><ele>1060.0</ele><time>2026-04-27T08:14:53.999Z</time></trkpt><trkpt lat="39.4732827111607" lon="16.080569049934635"><ele>1060.0</ele><time>2026-04-27T08:14:54.999Z</time></trkpt><trkpt lat="39.47319511507387" lon="16.080583550504503"><ele>1060.0</ele><time>2026-04-27T08:14:56.999Z</time></trkpt><trkpt lat="39.4731877144505" lon="16.08049500029129"><ele>1060.0</ele><time>2026-04-27T08:14:58.999Z</time></trkpt><trkpt lat="39.47320548487883" lon="16.080392665378366"><ele>1060.0</ele><time>2026-04-27T08:14:59.999Z</time></trkpt><trkpt lat="39.47320304839845" lon="16.08027142143087"><ele>1060.0</ele><time>2026-04-27T08:15:00.999Z</time></trkpt><trkpt lat="39.473164260992526" lon="16.080190304119583"><ele>1060.0</ele><time>2026-04-27T08:15:02.999Z</time></trkpt><trkpt lat="39.472959524501995" lon="16.07997214398499"><ele>1060.0</ele><time>2026-04-27T08:15:07.999Z</time></trkpt><trkpt lat="39.47290490339663" lon="16.079902375649674"><ele>1060.0</ele><time>2026-04-27T08:15:08.999Z</time></trkpt><trkpt lat="39.472835855792084" lon="16.07983501282401"><ele>1060.0</ele><time>2026-04-27T08:15:09.999Z</time></trkpt><trkpt lat="39.47275368470303" lon="16.079773428919104"><ele>1061.1666666666665</ele><time>2026-04-27T08:15:10.999Z</time></trkpt><trkpt lat="39.47267028528252" lon="16.07974546852182"><ele>1062.3333333333333</ele><time>2026-04-27T08:15:11.999Z</time></trkpt><trkpt lat="39.47257350858137" lon="16.07970988466923"><ele>1063.5</ele><time>2026-04-27T08:15:12.999Z</time></trkpt><trkpt lat="39.47250064195828" lon="16.07967835307752"><ele>1064.6666666666667</ele><time>2026-04-27T08:15:13.999Z</time></trkpt><trkpt lat="39.472436945280364" lon="16.07966359485609"><ele>1065.8333333333335</ele><time>2026-04-27T08:15:14.999Z</time></trkpt><trkpt lat="39.47234876438358" lon="16.07972509230713"><ele>1067.0</ele><time>2026-04-27T08:15:16.999Z</time></trkpt><trkpt lat="39.4723067980319" lon="16.079790708912466"><ele>1067.0</ele><time>2026-04-27T08:15:17.999Z</time></trkpt><trkpt lat="39.472274767456646" lon="16.079868049457485"><ele>1067.0</ele><time>2026-04-27T08:15:18.999Z</time></trkpt><trkpt lat="39.47223289996014" lon="16.07994889662128"><ele>1067.0</ele><time>2026-04-27T08:15:20Z</time></trkpt><trkpt lat="39.4721881974695" lon="16.080019954377338"><ele>1067.0</ele><time>2026-04-27T08:15:21Z</time></trkpt><trkpt lat="39.472108521351345" lon="16.080101802778074"><ele>1067.0</ele><time>2026-04-27T08:15:23Z</time></trkpt><trkpt lat="39.47203260761755" lon="16.080081741931995"><ele>1067.0</ele><time>2026-04-27T08:15:25Z</time></trkpt><trkpt lat="39.47198515026166" lon="16.080019853474738"><ele>1071.8</ele><time>2026-04-27T08:15:26Z</time></trkpt><trkpt lat="39.471942978358264" lon="16.079950730107043"><ele>1076.6</ele><time>2026-04-27T08:15:27Z</time></trkpt><trkpt lat="39.47186506086683" lon="16.079792692189947"><ele>1081.3999999999999</ele><time>2026-04-27T08:15:29Z</time></trkpt><trkpt lat="39.47182444692083" lon="16.079661007764923"><ele>1086.2</ele><time>2026-04-27T08:15:30Z</time></trkpt><trkpt lat="39.47176530704769" lon="16.079550234432354"><ele>1091.0</ele><time>2026-04-27T08:15:31Z</time></trkpt><trkpt lat="39.47170144411897" lon="16.079458657025793"><ele>1091.0</ele><time>2026-04-27T08:15:32Z</time></trkpt><trkpt lat="39.471642693407894" lon="16.079393759323988"><ele>1091.0</ele><time>2026-04-27T08:15:33Z</time></trkpt><trkpt lat="39.471571805975266" lon="16.07930600992032"><ele>1091.0</ele><time>2026-04-27T08:15:34Z</time></trkpt><trkpt lat="39.471516372120746" lon="16.07922685926211"><ele>1091.0</ele><time>2026-04-27T08:15:35Z</time></trkpt><trkpt lat="39.47147657648877" lon="16.07915217699119"><ele>1091.0</ele><time>2026-04-27T08:15:36Z</time></trkpt><trkpt lat="39.471434978024114" lon="16.079082053762644"><ele>1091.0</ele><time>2026-04-27T08:15:37Z</time></trkpt><trkpt lat="39.47137742222589" lon="16.079016654113865"><ele>1091.6</ele><time>2026-04-27T08:15:39Z</time></trkpt><trkpt lat="39.47126855212983" lon="16.078982294180143"><ele>1092.1999999999998</ele><time>2026-04-27T08:15:41Z</time></trkpt><trkpt lat="39.471168230697664" lon="16.079008729740906"><ele>1092.8000000000002</ele><time>2026-04-27T08:15:43Z</time></trkpt><trkpt lat="39.47109824045035" lon="16.079068067879113"><ele>1093.4</ele><time>2026-04-27T08:15:45Z</time></trkpt><trkpt lat="39.47105057086151" lon="16.07914132398524"><ele>1094.0</ele><time>2026-04-27T08:15:47Z</time></trkpt><trkpt lat="39.47097791811078" lon="16.079190195469167"><ele>1098.75</ele><time>2026-04-27T08:15:49Z</time></trkpt><trkpt lat="39.47084642683839" lon="16.07924852165629"><ele>1103.5</ele><time>2026-04-27T08:15:51Z</time></trkpt><trkpt lat="39.47074313126908" lon="16.079259357625315"><ele>1108.25</ele><time>2026-04-27T08:15:52Z</time></trkpt><trkpt lat="39.47061981810085" lon="16.07928101090155"><ele>1113.0</ele><time>2026-04-27T08:15:53Z</time></trkpt><trkpt lat="39.47053445290967" lon="16.07926860765177"><ele>1113.0</ele><time>2026-04-27T08:15:54Z</time></trkpt><trkpt lat="39.470469622204426" lon="16.079264159363838"><ele>1113.0</ele><time>2026-04-27T08:15:55Z</time></trkpt><trkpt lat="39.47037712734331" lon="16.079252489287573"><ele>1113.0</ele><time>2026-04-27T08:15:56Z</time></trkpt><trkpt lat="39.47026800012528" lon="16.079263019066218"><ele>1113.0</ele><time>2026-04-27T08:15:57Z</time></trkpt><trkpt lat="39.47018494807517" lon="16.07927549453002"><ele>1113.0</ele><time>2026-04-27T08:15:58Z</time></trkpt><trkpt lat="39.470058724154896" lon="16.079304131033474"><ele>1114.1666666666667</ele><time>2026-04-27T08:16:00Z</time></trkpt><trkpt lat="39.469996126669024" lon="16.07934159576307"><ele>1115.3333333333333</ele><time>2026-04-27T08:16:01Z</time></trkpt><trkpt lat="39.4699123168762" lon="16.079381251095814"><ele>1116.5</ele><time>2026-04-27T08:16:02Z</time></trkpt><trkpt lat="39.46982398103497" lon="16.079401435457857"><ele>1117.6666666666665</ele><time>2026-04-27T08:16:03Z</time></trkpt><trkpt lat="39.469739382488775" lon="16.079439635552838"><ele>1118.8333333333333</ele><time>2026-04-27T08:16:04Z</time></trkpt><trkpt lat="39.46965762078582" lon="16.079496008579078"><ele>1120.0</ele><time>2026-04-27T08:16:04.999Z</time></trkpt><trkpt lat="39.469564163465044" lon="16.07954898194973"><ele>1122.0</ele><time>2026-04-27T08:16:05.999Z</time></trkpt><trkpt lat="39.46947624363813" lon="16.079586528919908"><ele>1124.0</ele><time>2026-04-27T08:16:06.999Z</time></trkpt><trkpt lat="39.469349320035995" lon="16.07961979369355"><ele>1126.0</ele><time>2026-04-27T08:16:08.999Z</time></trkpt><trkpt lat="39.469285454590846" lon="16.07963898624101"><ele>1128.0</ele><time>2026-04-27T08:16:09.999Z</time></trkpt><trkpt lat="39.46918638068316" lon="16.07965193848694"><ele>1130.0</ele><time>2026-04-27T08:16:10.999Z</time></trkpt><trkpt lat="39.46909368177937" lon="16.079654572220885"><ele>1130.0</ele><time>2026-04-27T08:16:11.999Z</time></trkpt><trkpt lat="39.4690117344363" lon="16.079651659512702"><ele>1130.0</ele><time>2026-04-27T08:16:12.999Z</time></trkpt><trkpt lat="39.46894469113962" lon="16.079645587727327"><ele>1130.0</ele><time>2026-04-27T08:16:13.999Z</time></trkpt><trkpt lat="39.46887811922128" lon="16.07962747743106"><ele>1130.0</ele><time>2026-04-27T08:16:14.999Z</time></trkpt><trkpt lat="39.46876851356036" lon="16.079588034767774"><ele>1130.0</ele><time>2026-04-27T08:16:16.999Z</time></trkpt><trkpt lat="39.46871035603284" lon="16.079505419719105"><ele>1130.0</ele><time>2026-04-27T08:16:18.999Z</time></trkpt><trkpt lat="39.46863463053603" lon="16.07947124875245"><ele>1132.8333333333335</ele><time>2026-04-27T08:16:20.999Z</time></trkpt><trkpt lat="39.46856682035128" lon="16.079412977143555"><ele>1135.6666666666667</ele><time>2026-04-27T08:16:22.999Z</time></trkpt><trkpt lat="39.468508376294054" lon="16.07938141345552"><ele>1138.5</ele><time>2026-04-27T08:16:23.999Z</time></trkpt><trkpt lat="39.46842002885621" lon="16.079365155374227"><ele>1141.3333333333333</ele><time>2026-04-27T08:16:25.999Z</time></trkpt><trkpt lat="39.468359163652664" lon="16.07924139300538"><ele>1144.1666666666665</ele><time>2026-04-27T08:16:27.999Z</time></trkpt><trkpt lat="39.4683337466134" lon="16.079154197358147"><ele>1147.0</ele><time>2026-04-27T08:16:28.999Z</time></trkpt><trkpt lat="39.46829739602641" lon="16.07907243821285"><ele>1147.0</ele><time>2026-04-27T08:16:29.999Z</time></trkpt><trkpt lat="39.46825419838833" lon="16.07901093670861"><ele>1147.0</ele><time>2026-04-27T08:16:30.999Z</time></trkpt><trkpt lat="39.468202499294875" lon="16.07889932740459"><ele>1147.0</ele><time>2026-04-27T08:16:32.999Z</time></trkpt><trkpt lat="39.46814012972616" lon="16.078821132984423"><ele>1147.0</ele><time>2026-04-27T08:16:34.999Z</time></trkpt><trkpt lat="39.46800424165083" lon="16.07874456979255"><ele>1147.0</ele><time>2026-04-27T08:16:36.999Z</time></trkpt><trkpt lat="39.467914216957716" lon="16.078698975006755"><ele>1148.6666666666665</ele><time>2026-04-27T08:16:37.999Z</time></trkpt><trkpt lat="39.46784739570019" lon="16.078641637818702"><ele>1150.3333333333333</ele><time>2026-04-27T08:16:38.999Z</time></trkpt><trkpt lat="39.46777856288892" lon="16.078608231678814"><ele>1152.0</ele><time>2026-04-27T08:16:39.999Z</time></trkpt><trkpt lat="39.46768975004243" lon="16.07857411272737"><ele>1153.6666666666667</ele><time>2026-04-27T08:16:40.999Z</time></trkpt><trkpt lat="39.46760201723079" lon="16.078546527115826"><ele>1155.3333333333335</ele><time>2026-04-27T08:16:41.999Z</time></trkpt><trkpt lat="39.467540057812165" lon="16.07853170949747"><ele>1157.0</ele><time>2026-04-27T08:16:42.999Z</time></trkpt><trkpt lat="39.46743210674932" lon="16.078518452808236"><ele>1157.0</ele><time>2026-04-27T08:16:44.999Z</time></trkpt><trkpt lat="39.467372612935335" lon="16.07848611614066"><ele>1157.0</ele><time>2026-04-27T08:16:45.999Z</time></trkpt><trkpt lat="39.46730331061947" lon="16.078422782568058"><ele>1157.0</ele><time>2026-04-27T08:16:46.999Z</time></trkpt><trkpt lat="39.4672236249569" lon="16.07834151621327"><ele>1157.0</ele><time>2026-04-27T08:16:47.999Z</time></trkpt><trkpt lat="39.46716791556376" lon="16.078246453811598"><ele>1157.0</ele><time>2026-04-27T08:16:48.999Z</time></trkpt><trkpt lat="39.467119378311374" lon="16.07814910683277"><ele>1157.0</ele><time>2026-04-27T08:16:49.999Z</time></trkpt><trkpt lat="39.46703901584974" lon="16.077969890556172"><ele>1156.2</ele><time>2026-04-27T08:16:50.999Z</time></trkpt><trkpt lat="39.46694659313302" lon="16.077839687728943"><ele>1155.4</ele><time>2026-04-27T08:16:51.999Z</time></trkpt><trkpt lat="39.46688148443381" lon="16.077748003297398"><ele>1154.6</ele><time>2026-04-27T08:16:52.999Z</time></trkpt><trkpt lat="39.466826858314434" lon="16.077675842533232"><ele>1153.8</ele><time>2026-04-27T08:16:53.999Z</time></trkpt><trkpt lat="39.466731723479306" lon="16.077604613380252"><ele>1153.0</ele><time>2026-04-27T08:16:54.999Z</time></trkpt><trkpt lat="39.46662529666115" lon="16.077514095302806"><ele>1153.0</ele><time>2026-04-27T08:16:55.999Z</time></trkpt><trkpt lat="39.46651345483656" lon="16.077463447752603"><ele>1153.0</ele><time>2026-04-27T08:16:56.999Z</time></trkpt><trkpt lat="39.46638181501438" lon="16.077405251134365"><ele>1153.0</ele><time>2026-04-27T08:16:57.999Z</time></trkpt><trkpt lat="39.46626629103337" lon="16.077343395110997"><ele>1153.0</ele><time>2026-04-27T08:16:58.999Z</time></trkpt><trkpt lat="39.46616207224859" lon="16.077271845953405"><ele>1153.0</ele><time>2026-04-27T08:16:59.999Z</time></trkpt><trkpt lat="39.46607882896617" lon="16.077212367704306"><ele>1153.0</ele><time>2026-04-27T08:17:00.999Z</time></trkpt><trkpt lat="39.466010081598384" lon="16.07718516157317"><ele>1153.0</ele><time>2026-04-27T08:17:01.999Z</time></trkpt><trkpt lat="39.465873650288955" lon="16.077167629106494"><ele>1153.0</ele><time>2026-04-27T08:17:02.999Z</time></trkpt><trkpt lat="39.465742897942185" lon="16.077144452627795"><ele>1153.0</ele><time>2026-04-27T08:17:03.999Z</time></trkpt><trkpt lat="39.46564601416262" lon="16.077097872762582"><ele>1153.0</ele><time>2026-04-27T08:17:04.999Z</time></trkpt><trkpt lat="39.46558473028146" lon="16.07703633770912"><ele>1153.0</ele><time>2026-04-27T08:17:05.999Z</time></trkpt><trkpt lat="39.46553365715797" lon="16.07694150183494"><ele>1153.0</ele><time>2026-04-27T08:17:06.999Z</time></trkpt><trkpt lat="39.46546525414694" lon="16.076839299005062"><ele>1153.0</ele><time>2026-04-27T08:17:07.999Z</time></trkpt><trkpt lat="39.46539477548371" lon="16.076724663274874"><ele>1153.0</ele><time>2026-04-27T08:17:08.999Z</time></trkpt><trkpt lat="39.465343889405894" lon="16.0766443946728"><ele>1154.6</ele><time>2026-04-27T08:17:09.999Z</time></trkpt><trkpt lat="39.465281554372694" lon="16.076600785913747"><ele>1156.1999999999998</ele><time>2026-04-27T08:17:10.999Z</time></trkpt><trkpt lat="39.46518427815487" lon="16.076532333348194"><ele>1157.8</ele><time>2026-04-27T08:17:12.999Z</time></trkpt><trkpt lat="39.465057942492415" lon="16.076546446683793"><ele>1159.3999999999999</ele><time>2026-04-27T08:17:14.998Z</time></trkpt><trkpt lat="39.46499649008244" lon="16.07656414167593"><ele>1161.0</ele><time>2026-04-27T08:17:15.998Z</time></trkpt><trkpt lat="39.46487201279557" lon="16.076604275279273"><ele>1164.1666666666667</ele><time>2026-04-27T08:17:17.998Z</time></trkpt><trkpt lat="39.46480290928285" lon="16.076617703562714"><ele>1167.3333333333333</ele><time>2026-04-27T08:17:18.998Z</time></trkpt><trkpt lat="39.46468705783066" lon="16.07663530285029"><ele>1170.5</ele><time>2026-04-27T08:17:20.998Z</time></trkpt><trkpt lat="39.464614997900654" lon="16.07663777159693"><ele>1173.6666666666665</ele><time>2026-04-27T08:17:21.998Z</time></trkpt><trkpt lat="39.46453874197248" lon="16.07662174675895"><ele>1176.8333333333333</ele><time>2026-04-27T08:17:22.998Z</time></trkpt><trkpt lat="39.464460243468345" lon="16.076639727106784"><ele>1180.0</ele><time>2026-04-27T08:17:23.998Z</time></trkpt><trkpt lat="39.4643617772275" lon="16.076609493045837"><ele>1180.0</ele><time>2026-04-27T08:17:26Z</time></trkpt><trkpt lat="39.46425559732417" lon="16.076485756554746"><ele>1180.0</ele><time>2026-04-27T08:17:28Z</time></trkpt><trkpt lat="39.46415947874587" lon="16.076424579015097"><ele>1180.0</ele><time>2026-04-27T08:17:29Z</time></trkpt><trkpt lat="39.46403834823638" lon="16.076331632454586"><ele>1180.0</ele><time>2026-04-27T08:17:30Z</time></trkpt><trkpt lat="39.463902336977256" lon="16.076246944505836"><ele>1180.0</ele><time>2026-04-27T08:17:31Z</time></trkpt><trkpt lat="39.46378615248699" lon="16.076178481745067"><ele>1180.0</ele><time>2026-04-27T08:17:32Z</time></trkpt><trkpt lat="39.46369228688035" lon="16.076138166242398"><ele>1180.0</ele><time>2026-04-27T08:17:33Z</time></trkpt><trkpt lat="39.4636117010058" lon="16.0761078413914"><ele>1180.0</ele><time>2026-04-27T08:17:35Z</time></trkpt><trkpt lat="39.46353109739875" lon="16.076082305731454"><ele>1180.0</ele><time>2026-04-27T08:17:37Z</time></trkpt><trkpt lat="39.46346126388789" lon="16.076064653878074"><ele>1182.8333333333333</ele><time>2026-04-27T08:17:39Z</time></trkpt><trkpt lat="39.46339312577132" lon="16.076063327563162"><ele>1185.6666666666665</ele><time>2026-04-27T08:17:40Z</time></trkpt><trkpt lat="39.46331895938652" lon="16.07607866023078"><ele>1188.5</ele><time>2026-04-27T08:17:41Z</time></trkpt><trkpt lat="39.463251205158755" lon="16.07607440183521"><ele>1191.3333333333333</ele><time>2026-04-27T08:17:42Z</time></trkpt><trkpt lat="39.463129426830115" lon="16.076063867412184"><ele>1194.1666666666667</ele><time>2026-04-27T08:17:43Z</time></trkpt><trkpt lat="39.46303433554991" lon="16.076063709339383"><ele>1197.0</ele><time>2026-04-27T08:17:44Z</time></trkpt><trkpt lat="39.462906793124986" lon="16.076107742519905"><ele>1201.4</ele><time>2026-04-27T08:17:46Z</time></trkpt><trkpt lat="39.46282916407534" lon="16.07615025188306"><ele>1205.8000000000002</ele><time>2026-04-27T08:17:47Z</time></trkpt><trkpt lat="39.46274899536538" lon="16.076168305480678"><ele>1210.2</ele><time>2026-04-27T08:17:48Z</time></trkpt><trkpt lat="39.462675823809704" lon="16.076190476316054"><ele>1214.6000000000001</ele><time>2026-04-27T08:17:49Z</time></trkpt><trkpt lat="39.46256197136618" lon="16.076193899921975"><ele>1219.0</ele><time>2026-04-27T08:17:51Z</time></trkpt><trkpt lat="39.4624530881054" lon="16.076152112384033"><ele>1219.0</ele><time>2026-04-27T08:17:53Z</time></trkpt><trkpt lat="39.462350631723496" lon="16.07609831212394"><ele>1219.0</ele><time>2026-04-27T08:17:55Z</time></trkpt><trkpt lat="39.462280815003105" lon="16.07606943276322"><ele>1219.0</ele><time>2026-04-27T08:17:56Z</time></trkpt><trkpt lat="39.46221116889571" lon="16.07606261777683"><ele>1219.0</ele><time>2026-04-27T08:17:57Z</time></trkpt><trkpt lat="39.462126011625216" lon="16.07607524113379"><ele>1219.0</ele><time>2026-04-27T08:17:59Z</time></trkpt><trkpt lat="39.462047539507005" lon="16.076112005667902"><ele>1219.0</ele><time>2026-04-27T08:18:00Z</time></trkpt><trkpt lat="39.46198277419174" lon="16.07609170222605"><ele>1223.1666666666665</ele><time>2026-04-27T08:18:01Z</time></trkpt><trkpt lat="39.46194313205787" lon="16.076010292386336"><ele>1227.3333333333333</ele><time>2026-04-27T08:18:03Z</time></trkpt><trkpt lat="39.461863168920395" lon="16.075955697412944"><ele>1231.5</ele><time>2026-04-27T08:18:04.999Z</time></trkpt><trkpt lat="39.4617709429014" lon="16.075953614300754"><ele>1235.6666666666667</ele><time>2026-04-27T08:18:06.999Z</time></trkpt><trkpt lat="39.46169271276646" lon="16.075912490923724"><ele>1239.8333333333335</ele><time>2026-04-27T08:18:08.999Z</time></trkpt><trkpt lat="39.46162600047188" lon="16.07587159832459"><ele>1244.0</ele><time>2026-04-27T08:18:09.999Z</time></trkpt><trkpt lat="39.46152454404634" lon="16.075832588137292"><ele>1243.75</ele><time>2026-04-27T08:18:10.999Z</time></trkpt><trkpt lat="39.46141298728801" lon="16.075756912394926"><ele>1243.5</ele><time>2026-04-27T08:18:11.999Z</time></trkpt><trkpt lat="39.46129573492311" lon="16.075663633070683"><ele>1243.25</ele><time>2026-04-27T08:18:12.999Z</time></trkpt><trkpt lat="39.46121126681315" lon="16.075574082661767"><ele>1243.0</ele><time>2026-04-27T08:18:13.999Z</time></trkpt><trkpt lat="39.46113538942289" lon="16.075517622317793"><ele>1243.0</ele><time>2026-04-27T08:18:14.999Z</time></trkpt><trkpt lat="39.461025048031615" lon="16.07545106051284"><ele>1243.0</ele><time>2026-04-27T08:18:15.999Z</time></trkpt><trkpt lat="39.460925745168026" lon="16.075418874414435"><ele>1243.0</ele><time>2026-04-27T08:18:16.999Z</time></trkpt><trkpt lat="39.46083343805651" lon="16.07541783253334"><ele>1243.0</ele><time>2026-04-27T08:18:17.999Z</time></trkpt><trkpt lat="39.46075724641156" lon="16.07541943691098"><ele>1243.0</ele><time>2026-04-27T08:18:18.999Z</time></trkpt><trkpt lat="39.46067005055951" lon="16.07542119186463"><ele>1243.0</ele><time>2026-04-27T08:18:19.999Z</time></trkpt><trkpt lat="39.460599731115515" lon="16.075407637452905"><ele>1243.0</ele><time>2026-04-27T08:18:20.999Z</time></trkpt><trkpt lat="39.46053369806408" lon="16.075306005023872"><ele>1243.0</ele><time>2026-04-27T08:18:22.999Z</time></trkpt><trkpt lat="39.46049251050702" lon="16.07523556832902"><ele>1243.0</ele><time>2026-04-27T08:18:23.999Z</time></trkpt><trkpt lat="39.46044801354826" lon="16.07516544615511"><ele>1243.0</ele><time>2026-04-27T08:18:24.999Z</time></trkpt><trkpt lat="39.460344321922925" lon="16.07506320992396"><ele>1243.0</ele><time>2026-04-27T08:18:26.999Z</time></trkpt><trkpt lat="39.46017746073567" lon="16.074971498502244"><ele>1248.8</ele><time>2026-04-27T08:18:28.999Z</time></trkpt><trkpt lat="39.460104369200195" lon="16.074954540416968"><ele>1254.6</ele><time>2026-04-27T08:18:29.999Z</time></trkpt><trkpt lat="39.460015642025446" lon="16.074952124092867"><ele>1260.4</ele><time>2026-04-27T08:18:30.999Z</time></trkpt><trkpt lat="39.45992036935303" lon="16.07495126169259"><ele>1266.2</ele><time>2026-04-27T08:18:31.999Z</time></trkpt><trkpt lat="39.459798908076024" lon="16.07494592205677"><ele>1272.0</ele><time>2026-04-27T08:18:32.999Z</time></trkpt><trkpt lat="39.45965872415945" lon="16.07493899957947"><ele>1275.8</ele><time>2026-04-27T08:18:33.999Z</time></trkpt><trkpt lat="39.45953858452038" lon="16.07494570962557"><ele>1279.6</ele><time>2026-04-27T08:18:34.999Z</time></trkpt><trkpt lat="39.45944223755448" lon="16.074952004251553"><ele>1283.3999999999999</ele><time>2026-04-27T08:18:35.999Z</time></trkpt><trkpt lat="39.459367213573984" lon="16.074951681526983"><ele>1287.2</ele><time>2026-04-27T08:18:36.999Z</time></trkpt><trkpt lat="39.45926206506752" lon="16.074974942396356"><ele>1291.0</ele><time>2026-04-27T08:18:37.999Z</time></trkpt><trkpt lat="39.45915694145504" lon="16.0749890834508"><ele>1291.0</ele><time>2026-04-27T08:18:38.999Z</time></trkpt><trkpt lat="39.45904797233402" lon="16.0750156798027"><ele>1291.0</ele><time>2026-04-27T08:18:39.999Z</time></trkpt><trkpt lat="39.458951289005" lon="16.0750245451228"><ele>1291.0</ele><time>2026-04-27T08:18:40.999Z</time></trkpt><trkpt lat="39.4588626995977" lon="16.075040345752523"><ele>1291.0</ele><time>2026-04-27T08:18:41.999Z</time></trkpt><trkpt lat="39.45879114116679" lon="16.075034159097417"><ele>1291.0</ele><time>2026-04-27T08:18:42.999Z</time></trkpt><trkpt lat="39.45872061737272" lon="16.075042530904938"><ele>1291.0</ele><time>2026-04-27T08:18:43.999Z</time></trkpt><trkpt lat="39.45861636123409" lon="16.07504353668001"><ele>1291.0</ele><time>2026-04-27T08:18:45.999Z</time></trkpt><trkpt lat="39.45853501133128" lon="16.075011062219378"><ele>1291.0</ele><time>2026-04-27T08:18:47.999Z</time></trkpt><trkpt lat="39.45847216225374" lon="16.07506039829205"><ele>1291.0</ele><time>2026-04-27T08:19:32Z</time></trkpt><trkpt lat="39.458451970584534" lon="16.075164132056678"><ele>1291.0</ele><time>2026-04-27T08:19:34Z</time></trkpt><trkpt lat="39.45842976300306" lon="16.075280910052815"><ele>1291.0</ele><time>2026-04-27T08:19:36Z</time></trkpt><trkpt lat="39.45842035398663" lon="16.07537515412426"><ele>1291.0</ele><time>2026-04-27T08:19:37Z</time></trkpt><trkpt lat="39.45840499550563" lon="16.075473286046453"><ele>1291.0</ele><time>2026-04-27T08:19:38Z</time></trkpt><trkpt lat="39.45837651386268" lon="16.07557909937931"><ele>1291.0</ele><time>2026-04-27T08:19:39Z</time></trkpt><trkpt lat="39.45835224464465" lon="16.075695013037844"><ele>1291.0</ele><time>2026-04-27T08:19:40Z</time></trkpt><trkpt lat="39.45833237381431" lon="16.075781845257964"><ele>1291.0</ele><time>2026-04-27T08:19:41Z</time></trkpt><trkpt lat="39.45832889233328" lon="16.075869325572395"><ele>1291.0</ele><time>2026-04-27T08:19:42Z</time></trkpt><trkpt lat="39.458328526255144" lon="16.075960281441247"><ele>1291.0</ele><time>2026-04-27T08:19:43Z</time></trkpt><trkpt lat="39.45833021925681" lon="16.076046720710767"><ele>1290.8</ele><time>2026-04-27T08:19:44Z</time></trkpt><trkpt lat="39.4583346348111" lon="16.0761805095081"><ele>1290.6</ele><time>2026-04-27T08:19:46Z</time></trkpt><trkpt lat="39.458344434208946" lon="16.076266751749472"><ele>1290.4</ele><time>2026-04-27T08:19:47Z</time></trkpt><trkpt lat="39.45837953854429" lon="16.07638308309284"><ele>1290.2</ele><time>2026-04-27T08:19:48Z</time></trkpt><trkpt lat="39.458394777235746" lon="16.07650028092429"><ele>1290.0</ele><time>2026-04-27T08:19:49Z</time></trkpt><trkpt lat="39.45839276270777" lon="16.076620624189633"><ele>1290.0</ele><time>2026-04-27T08:19:50Z</time></trkpt><trkpt lat="39.45838511893061" lon="16.07676716448582"><ele>1290.0</ele><time>2026-04-27T08:19:51Z</time></trkpt><trkpt lat="39.458354050488055" lon="16.07690148873606"><ele>1290.0</ele><time>2026-04-27T08:19:52Z</time></trkpt><trkpt lat="39.45833949828236" lon="16.07702069062002"><ele>1290.0</ele><time>2026-04-27T08:19:53Z</time></trkpt><trkpt lat="39.4583111899829" lon="16.077161803220072"><ele>1290.0</ele><time>2026-04-27T08:19:54Z</time></trkpt><trkpt lat="39.45828342512227" lon="16.077253341628307"><ele>1290.0</ele><time>2026-04-27T08:19:55Z</time></trkpt><trkpt lat="39.4582542411438" lon="16.0773611323386"><ele>1290.0</ele><time>2026-04-27T08:19:56Z</time></trkpt><trkpt lat="39.45823807852337" lon="16.07746038236433"><ele>1290.0</ele><time>2026-04-27T08:19:57Z</time></trkpt><trkpt lat="39.45822173687673" lon="16.07760644764141"><ele>1290.0</ele><time>2026-04-27T08:19:59Z</time></trkpt><trkpt lat="39.4582493249502" lon="16.077707080502424"><ele>1290.0</ele><time>2026-04-27T08:20:00Z</time></trkpt><trkpt lat="39.45830320920839" lon="16.07781971149186"><ele>1290.1666666666667</ele><time>2026-04-27T08:20:02Z</time></trkpt><trkpt lat="39.45830740652165" lon="16.077925065087587"><ele>1290.3333333333333</ele><time>2026-04-27T08:20:04Z</time></trkpt><trkpt lat="39.45831586734663" lon="16.07802715924589"><ele>1290.5</ele><time>2026-04-27T08:20:06Z</time></trkpt><trkpt lat="39.458326928343894" lon="16.078107896144573"><ele>1290.6666666666665</ele><time>2026-04-27T08:20:07Z</time></trkpt><trkpt lat="39.45835205019612" lon="16.078198088771295"><ele>1290.8333333333333</ele><time>2026-04-27T08:20:08Z</time></trkpt><trkpt lat="39.45837654455815" lon="16.07827502209206"><ele>1291.0</ele><time>2026-04-27T08:20:08.999Z</time></trkpt><trkpt lat="39.45837519562334" lon="16.07840985726762"><ele>1289.5</ele><time>2026-04-27T08:20:10.999Z</time></trkpt><trkpt lat="39.458384638793966" lon="16.078518195680665"><ele>1288.0</ele><time>2026-04-27T08:20:12.999Z</time></trkpt><trkpt lat="39.458351330946044" lon="16.07861119013649"><ele>1286.5</ele><time>2026-04-27T08:20:15.999Z</time></trkpt><trkpt lat="39.45825785943903" lon="16.078714920010995"><ele>1285.0</ele><time>2026-04-27T08:20:17.999Z</time></trkpt><trkpt lat="39.45820685072717" lon="16.078784302996294"><ele>1283.5</ele><time>2026-04-27T08:20:18.999Z</time></trkpt><trkpt lat="39.45818560264273" lon="16.078866733914886"><ele>1282.0</ele><time>2026-04-27T08:20:19.999Z</time></trkpt><trkpt lat="39.45810456100025" lon="16.078965679169585"><ele>1282.0</ele><time>2026-04-27T08:20:21.999Z</time></trkpt><trkpt lat="39.45804797118769" lon="16.079025966869377"><ele>1282.0</ele><time>2026-04-27T08:20:22.999Z</time></trkpt><trkpt lat="39.457993359879076" lon="16.07911885944208"><ele>1282.0</ele><time>2026-04-27T08:20:23.999Z</time></trkpt><trkpt lat="39.457952284005096" lon="16.079195582307857"><ele>1282.0</ele><time>2026-04-27T08:20:24.999Z</time></trkpt><trkpt lat="39.45791016149459" lon="16.07928131292539"><ele>1282.0</ele><time>2026-04-27T08:20:25.999Z</time></trkpt><trkpt lat="39.457837629584034" lon="16.07942305751687"><ele>1282.0</ele><time>2026-04-27T08:20:27.999Z</time></trkpt><trkpt lat="39.45779014162156" lon="16.0795316421854"><ele>1277.0</ele><time>2026-04-27T08:20:29.999Z</time></trkpt><trkpt lat="39.457715851985064" lon="16.079647505749318"><ele>1272.0</ele><time>2026-04-27T08:20:31.999Z</time></trkpt><trkpt lat="39.457671543106045" lon="16.079748534656026"><ele>1267.0</ele><time>2026-04-27T08:20:33.999Z</time></trkpt><trkpt lat="39.45765735126546" lon="16.079848329197034"><ele>1262.0</ele><time>2026-04-27T08:20:35.999Z</time></trkpt><trkpt lat="39.45760680690128" lon="16.07999469918379"><ele>1257.0</ele><time>2026-04-27T08:20:37.999Z</time></trkpt><trkpt lat="39.45758189865483" lon="16.080073597096003"><ele>1255.5</ele><time>2026-04-27T08:20:38.999Z</time></trkpt><trkpt lat="39.45756281451523" lon="16.08017099058476"><ele>1254.0</ele><time>2026-04-27T08:20:39.999Z</time></trkpt><trkpt lat="39.45754924497931" lon="16.080259789490093"><ele>1252.5</ele><time>2026-04-27T08:20:40.999Z</time></trkpt><trkpt lat="39.457494032005584" lon="16.08038515820358"><ele>1251.0</ele><time>2026-04-27T08:20:42.999Z</time></trkpt><trkpt lat="39.45745072403216" lon="16.08049591834981"><ele>1249.5</ele><time>2026-04-27T08:20:44.999Z</time></trkpt><trkpt lat="39.457431050318306" lon="16.080586272661204"><ele>1248.0</ele><time>2026-04-27T08:20:46.999Z</time></trkpt><trkpt lat="39.45744255894804" lon="16.080717220115872"><ele>1247.3333333333333</ele><time>2026-04-27T08:20:48.999Z</time></trkpt><trkpt lat="39.457419476147464" lon="16.080832586674525"><ele>1246.6666666666667</ele><time>2026-04-27T08:20:50.999Z</time></trkpt><trkpt lat="39.457387392314395" lon="16.080917747590167"><ele>1246.0</ele><time>2026-04-27T08:20:51.999Z</time></trkpt><trkpt lat="39.45732082124638" lon="16.0810447500599"><ele>1245.3333333333335</ele><time>2026-04-27T08:20:53.999Z</time></trkpt><trkpt lat="39.45729500981305" lon="16.081139835650312"><ele>1244.6666666666667</ele><time>2026-04-27T08:20:54.999Z</time></trkpt><trkpt lat="39.45729506700857" lon="16.08124121376206"><ele>1244.0</ele><time>2026-04-27T08:20:55.999Z</time></trkpt><trkpt lat="39.45730678389384" lon="16.081333939811735"><ele>1244.0</ele><time>2026-04-27T08:20:56.999Z</time></trkpt><trkpt lat="39.45732928694311" lon="16.081418409365074"><ele>1244.0</ele><time>2026-04-27T08:20:57.999Z</time></trkpt><trkpt lat="39.45736975802571" lon="16.08153006031982"><ele>1244.0</ele><time>2026-04-27T08:20:59.999Z</time></trkpt><trkpt lat="39.457428198098405" lon="16.08160379953846"><ele>1244.0</ele><time>2026-04-27T08:21:01.999Z</time></trkpt><trkpt lat="39.457494153496945" lon="16.081605497702057"><ele>1244.0</ele><time>2026-04-27T08:21:02.999Z</time></trkpt><trkpt lat="39.45762192296265" lon="16.081638686590342"><ele>1244.0</ele><time>2026-04-27T08:21:04.999Z</time></trkpt><trkpt lat="39.45773815970528" lon="16.08163796392237"><ele>1244.0</ele><time>2026-04-27T08:21:06.999Z</time></trkpt><trkpt lat="39.457817849902945" lon="16.0816293724816"><ele>1244.0</ele><time>2026-04-27T08:21:08.999Z</time></trkpt><trkpt lat="39.457926266356026" lon="16.081589759978296"><ele>1244.0</ele><time>2026-04-27T08:21:10.999Z</time></trkpt><trkpt lat="39.45802499867689" lon="16.081568556315613"><ele>1244.0</ele><time>2026-04-27T08:21:12.999Z</time></trkpt><trkpt lat="39.458147060702025" lon="16.08150070576032"><ele>1244.0</ele><time>2026-04-27T08:21:14.999Z</time></trkpt><trkpt lat="39.4582082354644" lon="16.08146576375575"><ele>1243.5</ele><time>2026-04-27T08:21:15.999Z</time></trkpt><trkpt lat="39.45829280756731" lon="16.081438683385976"><ele>1243.0</ele><time>2026-04-27T08:21:17.998Z</time></trkpt><trkpt lat="39.45836268387002" lon="16.081451733411303"><ele>1242.5</ele><time>2026-04-27T08:21:18.998Z</time></trkpt><trkpt lat="39.458439120420714" lon="16.081443172877684"><ele>1242.0</ele><time>2026-04-27T08:21:19.998Z</time></trkpt><trkpt lat="39.45851582942994" lon="16.081427213229677"><ele>1241.5</ele><time>2026-04-27T08:21:20.998Z</time></trkpt><trkpt lat="39.458645739631024" lon="16.081445669806886"><ele>1241.0</ele><time>2026-04-27T08:21:22.998Z</time></trkpt><trkpt lat="39.45871878126652" lon="16.081486833144332"><ele>1239.1666666666667</ele><time>2026-04-27T08:21:23.998Z</time></trkpt><trkpt lat="39.45880277176205" lon="16.081528211974717"><ele>1237.3333333333335</ele><time>2026-04-27T08:21:24.998Z</time></trkpt><trkpt lat="39.45887533811928" lon="16.081574144228792"><ele>1235.5</ele><time>2026-04-27T08:21:25.998Z</time></trkpt><trkpt lat="39.458939263176944" lon="16.0815902031925"><ele>1233.6666666666667</ele><time>2026-04-27T08:21:26.998Z</time></trkpt><trkpt lat="39.45900158435645" lon="16.08160656690527"><ele>1231.8333333333333</ele><time>2026-04-27T08:21:27.998Z</time></trkpt><trkpt lat="39.4591218646581" lon="16.081610461877386"><ele>1230.0</ele><time>2026-04-27T08:21:29.998Z</time></trkpt><trkpt lat="39.45921605948477" lon="16.081546183343402"><ele>1230.0</ele><time>2026-04-27T08:21:31.998Z</time></trkpt><trkpt lat="39.45929831971275" lon="16.08148226691095"><ele>1230.0</ele><time>2026-04-27T08:21:33.998Z</time></trkpt><trkpt lat="39.459380333544146" lon="16.081471311769068"><ele>1230.0</ele><time>2026-04-27T08:21:35.998Z</time></trkpt><trkpt lat="39.45945549852215" lon="16.081549240249416"><ele>1230.0</ele><time>2026-04-27T08:21:38Z</time></trkpt><trkpt lat="39.45952695268628" lon="16.081595481913396"><ele>1230.0</ele><time>2026-04-27T08:21:40Z</time></trkpt><trkpt lat="39.45962338697295" lon="16.08155875021622"><ele>1227.8333333333333</ele><time>2026-04-27T08:21:42Z</time></trkpt><trkpt lat="39.45967460291092" lon="16.081503099781013"><ele>1225.6666666666667</ele><time>2026-04-27T08:21:43Z</time></trkpt><trkpt lat="39.459716919130535" lon="16.08141922741069"><ele>1223.5</ele><time>2026-04-27T08:21:44Z</time></trkpt><trkpt lat="39.45977454141924" lon="16.081324292671358"><ele>1221.3333333333335</ele><time>2026-04-27T08:21:46Z</time></trkpt><trkpt lat="39.4598305853719" lon="16.081263654676928"><ele>1219.1666666666667</ele><time>2026-04-27T08:21:49Z</time></trkpt><trkpt lat="39.45991829217074" lon="16.081226789694465"><ele>1217.0</ele><time>2026-04-27T08:21:51Z</time></trkpt><trkpt lat="39.45998750479788" lon="16.08120598104263"><ele>1217.0</ele><time>2026-04-27T08:21:52Z</time></trkpt><trkpt lat="39.46008276482024" lon="16.08117552401004"><ele>1217.0</ele><time>2026-04-27T08:21:55Z</time></trkpt><trkpt lat="39.4601703383811" lon="16.081170245638486"><ele>1217.0</ele><time>2026-04-27T08:21:57Z</time></trkpt><trkpt lat="39.46026416707081" lon="16.081179954798547"><ele>1217.0</ele><time>2026-04-27T08:21:59Z</time></trkpt><trkpt lat="39.46035558510211" lon="16.081144254934546"><ele>1217.0</ele><time>2026-04-27T08:22:01Z</time></trkpt><trkpt lat="39.46042210820982" lon="16.08112959819815"><ele>1217.0</ele><time>2026-04-27T08:22:02Z</time></trkpt><trkpt lat="39.460502012345664" lon="16.081117386726095"><ele>1217.0</ele><time>2026-04-27T08:22:03Z</time></trkpt><trkpt lat="39.46060242238327" lon="16.081117692815976"><ele>1217.0</ele><time>2026-04-27T08:22:05Z</time></trkpt><trkpt lat="39.460663818331376" lon="16.081157968940367"><ele>1217.0</ele><time>2026-04-27T08:22:07Z</time></trkpt><trkpt lat="39.46071407218968" lon="16.081247380245465"><ele>1217.0</ele><time>2026-04-27T08:22:09Z</time></trkpt><trkpt lat="39.46077148705959" lon="16.08136193011309"><ele>1217.0</ele><time>2026-04-27T08:22:11Z</time></trkpt><trkpt lat="39.46083111991044" lon="16.081460622100654"><ele>1217.0</ele><time>2026-04-27T08:22:13Z</time></trkpt><trkpt lat="39.4608799809861" lon="16.081531965975422"><ele>1217.0</ele><time>2026-04-27T08:22:15Z</time></trkpt><trkpt lat="39.4609217518391" lon="16.081598991873054"><ele>1217.0</ele><time>2026-04-27T08:22:16.999Z</time></trkpt><trkpt lat="39.46097629467453" lon="16.081684353651706"><ele>1217.0</ele><time>2026-04-27T08:22:18.999Z</time></trkpt><trkpt lat="39.461056966407895" lon="16.081775295606835"><ele>1217.0</ele><time>2026-04-27T08:22:21.999Z</time></trkpt><trkpt lat="39.4611195016758" lon="16.08181207857302"><ele>1217.0</ele><time>2026-04-27T08:22:23.999Z</time></trkpt><trkpt lat="39.4611929794988" lon="16.081811801673172"><ele>1213.8333333333335</ele><time>2026-04-27T08:22:25.999Z</time></trkpt><trkpt lat="39.4612530389348" lon="16.081773025318583"><ele>1210.6666666666667</ele><time>2026-04-27T08:22:27.999Z</time></trkpt><trkpt lat="39.46134069866487" lon="16.081774053582148"><ele>1207.5</ele><time>2026-04-27T08:22:29.999Z</time></trkpt><trkpt lat="39.46142869457544" lon="16.081805131723076"><ele>1204.3333333333333</ele><time>2026-04-27T08:22:31.999Z</time></trkpt><trkpt lat="39.461494165339836" lon="16.081853356225253"><ele>1201.1666666666665</ele><time>2026-04-27T08:22:33.999Z</time></trkpt><trkpt lat="39.46156559518492" lon="16.081933341918248"><ele>1198.0</ele><time>2026-04-27T08:22:35.999Z</time></trkpt><trkpt lat="39.4616612818595" lon="16.081993796529325"><ele>1198.0</ele><time>2026-04-27T08:22:37.999Z</time></trkpt><trkpt lat="39.46173503765241" lon="16.082015313486245"><ele>1198.0</ele><time>2026-04-27T08:22:38.999Z</time></trkpt><trkpt lat="39.46183443196314" lon="16.08206063303136"><ele>1198.0</ele><time>2026-04-27T08:22:40.999Z</time></trkpt><trkpt lat="39.461860050183056" lon="16.08219422053995"><ele>1198.0</ele><time>2026-04-27T08:22:42.999Z</time></trkpt><trkpt lat="39.46185840752392" lon="16.0823114791336"><ele>1198.0</ele><time>2026-04-27T08:22:43.999Z</time></trkpt><trkpt lat="39.46185923228139" lon="16.082421577030885"><ele>1193.75</ele><time>2026-04-27T08:22:44.999Z</time></trkpt><trkpt lat="39.46190558571927" lon="16.08253920469492"><ele>1189.5</ele><time>2026-04-27T08:22:46.999Z</time></trkpt><trkpt lat="39.46200705108021" lon="16.082642502300583"><ele>1185.25</ele><time>2026-04-27T08:22:48.999Z</time></trkpt><trkpt lat="39.462149022622775" lon="16.082671848385036"><ele>1181.0</ele><time>2026-04-27T08:22:50.999Z</time></trkpt><trkpt lat="39.46224265711792" lon="16.082690307543835"><ele>1181.0</ele><time>2026-04-27T08:22:51.999Z</time></trkpt><trkpt lat="39.46232693009901" lon="16.082695890750024"><ele>1181.0</ele><time>2026-04-27T08:22:52.999Z</time></trkpt><trkpt lat="39.46239204006835" lon="16.08268744241381"><ele>1181.0</ele><time>2026-04-27T08:22:53.999Z</time></trkpt><trkpt lat="39.46245429704608" lon="16.08271646257127"><ele>1181.0</ele><time>2026-04-27T08:22:54.999Z</time></trkpt><trkpt lat="39.46253002110006" lon="16.08278688343661"><ele>1181.0</ele><time>2026-04-27T08:22:56.999Z</time></trkpt><trkpt lat="39.462561049063844" lon="16.082870203560987"><ele>1181.0</ele><time>2026-04-27T08:22:57.999Z</time></trkpt><trkpt lat="39.4626069944316" lon="16.083007950900605"><ele>1181.0</ele><time>2026-04-27T08:22:58.999Z</time></trkpt><trkpt lat="39.46263520689147" lon="16.083124641202115"><ele>1181.0</ele><time>2026-04-27T08:22:59.999Z</time></trkpt><trkpt lat="39.46265583122043" lon="16.083230902182315"><ele>1181.0</ele><time>2026-04-27T08:23:00.999Z</time></trkpt><trkpt lat="39.462672956343425" lon="16.08331573875752"><ele>1181.0</ele><time>2026-04-27T08:23:01.999Z</time></trkpt><trkpt lat="39.46269720408322" lon="16.08345156297298"><ele>1181.0</ele><time>2026-04-27T08:23:03.999Z</time></trkpt><trkpt lat="39.4627475111531" lon="16.083571412608205"><ele>1177.857142857143</ele><time>2026-04-27T08:23:05.999Z</time></trkpt><trkpt lat="39.462775170984656" lon="16.08364803636025"><ele>1174.7142857142858</ele><time>2026-04-27T08:23:06.999Z</time></trkpt><trkpt lat="39.46283823923702" lon="16.083717882758755"><ele>1171.5714285714287</ele><time>2026-04-27T08:23:08.999Z</time></trkpt><trkpt lat="39.46287737948122" lon="16.083785486325258"><ele>1168.4285714285716</ele><time>2026-04-27T08:24:01Z</time></trkpt><trkpt lat="39.46283680938558" lon="16.083722650037924"><ele>1165.2857142857142</ele><time>2026-04-27T08:24:21Z</time></trkpt><trkpt lat="39.462779168152615" lon="16.083644490397955"><ele>1162.1428571428573</ele><time>2026-04-27T08:24:22.999Z</time></trkpt><trkpt lat="39.46274642939101" lon="16.083538445787088"><ele>1159.0</ele><time>2026-04-27T08:24:24.999Z</time></trkpt><trkpt lat="39.46271828241143" lon="16.08343993670718"><ele>1159.0</ele><time>2026-04-27T08:24:26.999Z</time></trkpt><trkpt lat="39.46270072507307" lon="16.083303117539394"><ele>1159.0</ele><time>2026-04-27T08:24:28.999Z</time></trkpt><trkpt lat="39.46268434081266" lon="16.08317520598901"><ele>1159.0</ele><time>2026-04-27T08:24:30.999Z</time></trkpt><trkpt lat="39.46262306054921" lon="16.08307568920131"><ele>1159.0</ele><time>2026-04-27T08:24:32.999Z</time></trkpt><trkpt lat="39.46259378132197" lon="16.082956229372723"><ele>1159.0</ele><time>2026-04-27T08:24:34.999Z</time></trkpt><trkpt lat="39.46256015942774" lon="16.082874501990762"><ele>1160.1666666666665</ele><time>2026-04-27T08:24:36.999Z</time></trkpt><trkpt lat="39.46250316486198" lon="16.08283180944388"><ele>1161.3333333333333</ele><time>2026-04-27T08:24:38.999Z</time></trkpt><trkpt lat="39.46242911732689" lon="16.08286655960353"><ele>1162.5</ele><time>2026-04-27T08:24:40.999Z</time></trkpt><trkpt lat="39.462319190024154" lon="16.08294935766715"><ele>1163.6666666666667</ele><time>2026-04-27T08:24:42.999Z</time></trkpt><trkpt lat="39.462253640051614" lon="16.0829888149708"><ele>1164.8333333333335</ele><time>2026-04-27T08:24:43.999Z</time></trkpt><trkpt lat="39.46218173994614" lon="16.083035244908395"><ele>1166.0</ele><time>2026-04-27T08:24:44.999Z</time></trkpt><trkpt lat="39.462110341985365" lon="16.083074416242738"><ele>1166.0</ele><time>2026-04-27T08:24:45.999Z</time></trkpt><trkpt lat="39.4620368752708" lon="16.083102668967474"><ele>1166.0</ele><time>2026-04-27T08:24:46.999Z</time></trkpt><trkpt lat="39.46197427607469" lon="16.08312254606987"><ele>1166.0</ele><time>2026-04-27T08:24:47.999Z</time></trkpt><trkpt lat="39.46190915560833" lon="16.083145012593267"><ele>1166.0</ele><time>2026-04-27T08:24:48.999Z</time></trkpt><trkpt lat="39.461794305754566" lon="16.083164440087852"><ele>1166.0</ele><time>2026-04-27T08:24:50.999Z</time></trkpt><trkpt lat="39.4616852268863" lon="16.083097358429395"><ele>1166.0</ele><time>2026-04-27T08:24:52.999Z</time></trkpt><trkpt lat="39.46162409746177" lon="16.083009130331543"><ele>1166.0</ele><time>2026-04-27T08:24:53.999Z</time></trkpt><trkpt lat="39.46156566849565" lon="16.08292510583505"><ele>1166.0</ele><time>2026-04-27T08:24:54.999Z</time></trkpt><trkpt lat="39.46150704486541" lon="16.082820511966553"><ele>1166.0</ele><time>2026-04-27T08:24:55.999Z</time></trkpt><trkpt lat="39.46145462473258" lon="16.082714903136488"><ele>1166.0</ele><time>2026-04-27T08:24:56.999Z</time></trkpt><trkpt lat="39.46141173178915" lon="16.08261227900684"><ele>1166.0</ele><time>2026-04-27T08:24:57.999Z</time></trkpt><trkpt lat="39.4613739495141" lon="16.08252964214401"><ele>1166.0</ele><time>2026-04-27T08:24:58.999Z</time></trkpt><trkpt lat="39.46132187280434" lon="16.082455462113494"><ele>1168.0</ele><time>2026-04-27T08:25:00.999Z</time></trkpt><trkpt lat="39.461235546782646" lon="16.082427319402335"><ele>1170.0</ele><time>2026-04-27T08:25:03.999Z</time></trkpt><trkpt lat="39.46115524104624" lon="16.082486991769105"><ele>1172.0</ele><time>2026-04-27T08:25:05.999Z</time></trkpt><trkpt lat="39.46109182082407" lon="16.08251371791732"><ele>1174.0</ele><time>2026-04-27T08:25:06.999Z</time></trkpt><trkpt lat="39.46102666449113" lon="16.08252216034672"><ele>1176.0</ele><time>2026-04-27T08:25:07.999Z</time></trkpt><trkpt lat="39.460958998160905" lon="16.082509684365945"><ele>1178.0</ele><time>2026-04-27T08:25:08.999Z</time></trkpt><trkpt lat="39.46087084030543" lon="16.082404662485807"><ele>1178.0</ele><time>2026-04-27T08:25:10.999Z</time></trkpt><trkpt lat="39.460799239003165" lon="16.082309164333406"><ele>1178.0</ele><time>2026-04-27T08:25:11.999Z</time></trkpt><trkpt lat="39.460739764533194" lon="16.082234597944908"><ele>1178.0</ele><time>2026-04-27T08:25:12.999Z</time></trkpt><trkpt lat="39.46064146304216" lon="16.082168279617548"><ele>1178.0</ele><time>2026-04-27T08:25:14.999Z</time></trkpt><trkpt lat="39.46055231472421" lon="16.08221389551164"><ele>1178.0</ele><time>2026-04-27T08:25:16.999Z</time></trkpt><trkpt lat="39.46050015331066" lon="16.08232307263551"><ele>1178.8333333333335</ele><time>2026-04-27T08:25:18.999Z</time></trkpt><trkpt lat="39.46044539554021" lon="16.082380815731177"><ele>1179.6666666666667</ele><time>2026-04-27T08:25:19.999Z</time></trkpt><trkpt lat="39.46037688400169" lon="16.08243495057021"><ele>1180.5</ele><time>2026-04-27T08:25:20.999Z</time></trkpt><trkpt lat="39.46031817463148" lon="16.082491042685067"><ele>1181.3333333333333</ele><time>2026-04-27T08:25:21.999Z</time></trkpt><trkpt lat="39.46025256338433" lon="16.08253632213045"><ele>1182.1666666666665</ele><time>2026-04-27T08:25:23.999Z</time></trkpt><trkpt lat="39.46013285456248" lon="16.082519416298336"><ele>1183.0</ele><time>2026-04-27T08:25:25.999Z</time></trkpt><trkpt lat="39.46006508746624" lon="16.08251250718109"><ele>1177.0</ele><time>2026-04-27T08:25:26.999Z</time></trkpt><trkpt lat="39.45995917973409" lon="16.082548267901952"><ele>1171.0</ele><time>2026-04-27T08:25:28.999Z</time></trkpt><trkpt lat="39.4598887815716" lon="16.08260786254732"><ele>1165.0</ele><time>2026-04-27T08:25:29.998Z</time></trkpt><trkpt lat="39.45983562428882" lon="16.082665301579297"><ele>1159.0</ele><time>2026-04-27T08:25:30.998Z</time></trkpt><trkpt lat="39.45978146387064" lon="16.082711642261394"><ele>1153.0</ele><time>2026-04-27T08:25:31.998Z</time></trkpt><trkpt lat="39.459732494309414" lon="16.082791294800906"><ele>1147.0</ele><time>2026-04-27T08:25:32.998Z</time></trkpt><trkpt lat="39.45967371266175" lon="16.082878062098317"><ele>1147.0</ele><time>2026-04-27T08:25:33.998Z</time></trkpt><trkpt lat="39.459629009150895" lon="16.082968976336165"><ele>1147.0</ele><time>2026-04-27T08:25:34.998Z</time></trkpt><trkpt lat="39.45958379474783" lon="16.08304157115266"><ele>1147.0</ele><time>2026-04-27T08:25:35.998Z</time></trkpt><trkpt lat="39.45953532483782" lon="16.083107776198574"><ele>1147.0</ele><time>2026-04-27T08:25:36.998Z</time></trkpt><trkpt lat="39.45942820664239" lon="16.08320987828884"><ele>1147.0</ele><time>2026-04-27T08:25:38.998Z</time></trkpt><trkpt lat="39.459352833249106" lon="16.083256339534035"><ele>1147.0</ele><time>2026-04-27T08:25:39.998Z</time></trkpt><trkpt lat="39.45927336846391" lon="16.083278668191557"><ele>1145.0</ele><time>2026-04-27T08:25:40.998Z</time></trkpt><trkpt lat="39.459192309778736" lon="16.08331366593892"><ele>1143.0</ele><time>2026-04-27T08:25:41.998Z</time></trkpt><trkpt lat="39.459113588237805" lon="16.083351312046283"><ele>1141.0</ele><time>2026-04-27T08:25:42.998Z</time></trkpt><trkpt lat="39.45902088740588" lon="16.083442163662745"><ele>1139.0</ele><time>2026-04-27T08:25:44.998Z</time></trkpt><trkpt lat="39.45897179293714" lon="16.083561092859917"><ele>1137.0</ele><time>2026-04-27T08:25:46.998Z</time></trkpt><trkpt lat="39.458931540061805" lon="16.08364141813069"><ele>1137.0</ele><time>2026-04-27T08:25:49Z</time></trkpt><trkpt lat="39.45886860117165" lon="16.083669678774374"><ele>1137.0</ele><time>2026-04-27T08:25:50Z</time></trkpt><trkpt lat="39.45880815467" lon="16.083711038853508"><ele>1137.0</ele><time>2026-04-27T08:25:51Z</time></trkpt><trkpt lat="39.45876724368071" lon="16.083817939894992"><ele>1137.0</ele><time>2026-04-27T08:25:53Z</time></trkpt><trkpt lat="39.45878286346539" lon="16.083927873114558"><ele>1137.0</ele><time>2026-04-27T08:25:54Z</time></trkpt><trkpt lat="39.458776891255376" lon="16.084063341765944"><ele>1137.0</ele><time>2026-04-27T08:25:56Z</time></trkpt><trkpt lat="39.458723880087625" lon="16.08423310521875"><ele>1138.0</ele><time>2026-04-27T08:25:58Z</time></trkpt><trkpt lat="39.45869333204677" lon="16.084348136744374"><ele>1139.0</ele><time>2026-04-27T08:25:59Z</time></trkpt><trkpt lat="39.458664703872124" lon="16.084428659797208"><ele>1140.0</ele><time>2026-04-27T08:26:00Z</time></trkpt><trkpt lat="39.45862738839724" lon="16.08450276824479"><ele>1141.0</ele><time>2026-04-27T08:26:01Z</time></trkpt><trkpt lat="39.45859199160213" lon="16.084578038554923"><ele>1142.0</ele><time>2026-04-27T08:26:02Z</time></trkpt><trkpt lat="39.45850464156248" lon="16.08470546404707"><ele>1143.0</ele><time>2026-04-27T08:26:04Z</time></trkpt><trkpt lat="39.45842889997267" lon="16.084766972145697"><ele>1143.0</ele><time>2026-04-27T08:26:05Z</time></trkpt><trkpt lat="39.45836728449275" lon="16.084808885528705"><ele>1143.0</ele><time>2026-04-27T08:26:06Z</time></trkpt><trkpt lat="39.45828443055613" lon="16.084860244832225"><ele>1143.0</ele><time>2026-04-27T08:26:07Z</time></trkpt><trkpt lat="39.45820993370927" lon="16.084869142011552"><ele>1143.0</ele><time>2026-04-27T08:26:08Z</time></trkpt><trkpt lat="39.458117998246756" lon="16.085014379256986"><ele>1143.0</ele><time>2026-04-27T08:26:10Z</time></trkpt><trkpt lat="39.4580698141148" lon="16.085085736246416"><ele>1143.8333333333333</ele><time>2026-04-27T08:26:11Z</time></trkpt><trkpt lat="39.458011638344324" lon="16.08516338714034"><ele>1144.6666666666667</ele><time>2026-04-27T08:26:12Z</time></trkpt><trkpt lat="39.45795637598562" lon="16.08522645382053"><ele>1145.5</ele><time>2026-04-27T08:26:13Z</time></trkpt><trkpt lat="39.45790875095831" lon="16.085280848883322"><ele>1146.3333333333335</ele><time>2026-04-27T08:26:14Z</time></trkpt><trkpt lat="39.45785508456396" lon="16.085390391049923"><ele>1147.1666666666667</ele><time>2026-04-27T08:26:16Z</time></trkpt><trkpt lat="39.45786170095743" lon="16.085551625364282"><ele>1148.0</ele><time>2026-04-27T08:26:18Z</time></trkpt><trkpt lat="39.45782697088768" lon="16.085692672238306"><ele>1144.4</ele><time>2026-04-27T08:26:20Z</time></trkpt><trkpt lat="39.457768602633095" lon="16.085814210688355"><ele>1140.8</ele><time>2026-04-27T08:26:21Z</time></trkpt><trkpt lat="39.45773676749625" lon="16.08593980182015"><ele>1137.2</ele><time>2026-04-27T08:26:22Z</time></trkpt><trkpt lat="39.45771796879925" lon="16.08605145388875"><ele>1133.6</ele><time>2026-04-27T08:26:23Z</time></trkpt><trkpt lat="39.457727217510055" lon="16.08617193696852"><ele>1130.0</ele><time>2026-04-27T08:26:24Z</time></trkpt><trkpt lat="39.457730594531675" lon="16.08629720289981"><ele>1130.0</ele><time>2026-04-27T08:26:25Z</time></trkpt><trkpt lat="39.457710051330174" lon="16.086427513554817"><ele>1130.0</ele><time>2026-04-27T08:26:25.999Z</time></trkpt><trkpt lat="39.45768070732063" lon="16.086552242146748"><ele>1130.0</ele><time>2026-04-27T08:26:26.999Z</time></trkpt><trkpt lat="39.45764334535288" lon="16.08667600392897"><ele>1130.0</ele><time>2026-04-27T08:26:27.999Z</time></trkpt><trkpt lat="39.45761487778534" lon="16.08677239197975"><ele>1130.0</ele><time>2026-04-27T08:26:28.999Z</time></trkpt><trkpt lat="39.45757949425781" lon="16.08684716018248"><ele>1127.6666666666667</ele><time>2026-04-27T08:26:29.999Z</time></trkpt><trkpt lat="39.457528566349886" lon="16.08693420823949"><ele>1125.3333333333335</ele><time>2026-04-27T08:26:30.999Z</time></trkpt><trkpt lat="39.45747499861828" lon="16.087028038895554"><ele>1123.0</ele><time>2026-04-27T08:26:31.999Z</time></trkpt><trkpt lat="39.457440507497196" lon="16.0871121270519"><ele>1120.6666666666667</ele><time>2026-04-27T08:26:32.999Z</time></trkpt><trkpt lat="39.45740579566828" lon="16.087209568900875"><ele>1118.3333333333333</ele><time>2026-04-27T08:26:33.999Z</time></trkpt><trkpt lat="39.4574231306053" lon="16.087329677114656"><ele>1116.0</ele><time>2026-04-27T08:26:34.999Z</time></trkpt><trkpt lat="39.457438130100925" lon="16.087441389390033"><ele>1115.3333333333333</ele><time>2026-04-27T08:26:35.999Z</time></trkpt><trkpt lat="39.4574664765976" lon="16.087568505684025"><ele>1114.6666666666667</ele><time>2026-04-27T08:26:36.999Z</time></trkpt><trkpt lat="39.457487345195425" lon="16.087694571861913"><ele>1114.0</ele><time>2026-04-27T08:26:37.999Z</time></trkpt><trkpt lat="39.45751171509271" lon="16.087808266721662"><ele>1113.3333333333335</ele><time>2026-04-27T08:26:38.999Z</time></trkpt><trkpt lat="39.45752150161298" lon="16.087905763233042"><ele>1112.6666666666667</ele><time>2026-04-27T08:26:39.999Z</time></trkpt><trkpt lat="39.45752762371521" lon="16.087996132820138"><ele>1112.0</ele><time>2026-04-27T08:26:40.999Z</time></trkpt><trkpt lat="39.45749790760404" lon="16.08812241647081"><ele>1112.0</ele><time>2026-04-27T08:26:42.999Z</time></trkpt><trkpt lat="39.457445531203575" lon="16.088191076514672"><ele>1112.0</ele><time>2026-04-27T08:26:43.999Z</time></trkpt><trkpt lat="39.45734546945057" lon="16.088262435407387"><ele>1112.0</ele><time>2026-04-27T08:26:44.999Z</time></trkpt><trkpt lat="39.45722949320905" lon="16.088313076970714"><ele>1112.0</ele><time>2026-04-27T08:26:45.999Z</time></trkpt><trkpt lat="39.45713493078285" lon="16.08832587578735"><ele>1112.0</ele><time>2026-04-27T08:26:46.999Z</time></trkpt><trkpt lat="39.45705175360842" lon="16.088332031351253"><ele>1111.8</ele><time>2026-04-27T08:26:47.999Z</time></trkpt><trkpt lat="39.456931903318484" lon="16.088317403582217"><ele>1111.6</ele><time>2026-04-27T08:26:49.999Z</time></trkpt><trkpt lat="39.45686254587147" lon="16.088269612949965"><ele>1111.3999999999999</ele><time>2026-04-27T08:26:50.999Z</time></trkpt><trkpt lat="39.45677548378815" lon="16.088181502965053"><ele>1111.2</ele><time>2026-04-27T08:26:51.999Z</time></trkpt><trkpt lat="39.45668488490049" lon="16.08809506720584"><ele>1111.0</ele><time>2026-04-27T08:26:52.999Z</time></trkpt><trkpt lat="39.45661851487314" lon="16.0880468896553"><ele>1113.3333333333333</ele><time>2026-04-27T08:26:53.999Z</time></trkpt><trkpt lat="39.45654073468392" lon="16.088021566464228"><ele>1115.6666666666665</ele><time>2026-04-27T08:26:54.999Z</time></trkpt><trkpt lat="39.45646312107125" lon="16.088023038180765"><ele>1118.0</ele><time>2026-04-27T08:26:55.999Z</time></trkpt><trkpt lat="39.45637680805136" lon="16.088057879404364"><ele>1120.3333333333333</ele><time>2026-04-27T08:26:56.999Z</time></trkpt><trkpt lat="39.456291288838464" lon="16.08810121656306"><ele>1122.6666666666667</ele><time>2026-04-27T08:26:57.999Z</time></trkpt><trkpt lat="39.456218629606084" lon="16.088150172655094"><ele>1125.0</ele><time>2026-04-27T08:26:58.999Z</time></trkpt><trkpt lat="39.45615719977379" lon="16.08818109727159"><ele>1124.0</ele><time>2026-04-27T08:26:59.999Z</time></trkpt><trkpt lat="39.45614498383163" lon="16.0882912273191"><ele>1123.0</ele><time>2026-04-27T08:27:00.999Z</time></trkpt><trkpt lat="39.45611360144602" lon="16.088380946085067"><ele>1122.0</ele><time>2026-04-27T08:27:01.999Z</time></trkpt><trkpt lat="39.45607858299469" lon="16.08849471115933"><ele>1121.0</ele><time>2026-04-27T08:27:02.999Z</time></trkpt><trkpt lat="39.45606017115909" lon="16.088647543267005"><ele>1120.0</ele><time>2026-04-27T08:27:03.999Z</time></trkpt><trkpt lat="39.45605094334164" lon="16.08878121389578"><ele>1120.0</ele><time>2026-04-27T08:27:04.999Z</time></trkpt><trkpt lat="39.456027749830575" lon="16.088894708633752"><ele>1120.0</ele><time>2026-04-27T08:27:05.999Z</time></trkpt><trkpt lat="39.455999043942754" lon="16.08904980335864"><ele>1120.0</ele><time>2026-04-27T08:27:07.999Z</time></trkpt><trkpt lat="39.455967030632195" lon="16.089151633456257"><ele>1120.0</ele><time>2026-04-27T08:27:08.999Z</time></trkpt><trkpt lat="39.45593039446643" lon="16.089256655533276"><ele>1120.0</ele><time>2026-04-27T08:27:09.999Z</time></trkpt><trkpt lat="39.45587895527052" lon="16.08933376638714"><ele>1117.6</ele><time>2026-04-27T08:27:10.999Z</time></trkpt><trkpt lat="39.45578777642187" lon="16.089402109521743"><ele>1115.2</ele><time>2026-04-27T08:27:12.999Z</time></trkpt><trkpt lat="39.455730532636736" lon="16.089448047236864"><ele>1112.8</ele><time>2026-04-27T08:27:13.999Z</time></trkpt><trkpt lat="39.45562061415162" lon="16.08952381131686"><ele>1110.4</ele><time>2026-04-27T08:27:15.999Z</time></trkpt><trkpt lat="39.45553836248293" lon="16.089567790837123"><ele>1108.0</ele><time>2026-04-27T08:27:16.999Z</time></trkpt><trkpt lat="39.45545329316987" lon="16.08955043712701"><ele>1107.6</ele><time>2026-04-27T08:27:17.999Z</time></trkpt><trkpt lat="39.4553872981728" lon="16.089521657032464"><ele>1107.1999999999998</ele><time>2026-04-27T08:27:18.999Z</time></trkpt><trkpt lat="39.455292552066936" lon="16.08944222820771"><ele>1106.8</ele><time>2026-04-27T08:27:20.999Z</time></trkpt><trkpt lat="39.45524982539977" lon="16.089348969971116"><ele>1106.3999999999999</ele><time>2026-04-27T08:27:21.999Z</time></trkpt><trkpt lat="39.45519028105192" lon="16.089228833634863"><ele>1106.0</ele><time>2026-04-27T08:27:22.999Z</time></trkpt><trkpt lat="39.455134222863" lon="16.089129153183762"><ele>1107.1666666666667</ele><time>2026-04-27T08:27:23.999Z</time></trkpt><trkpt lat="39.45509241037004" lon="16.089015728458275"><ele>1108.3333333333335</ele><time>2026-04-27T08:27:24.999Z</time></trkpt><trkpt lat="39.45504630649907" lon="16.088914989228062"><ele>1109.5</ele><time>2026-04-27T08:27:25.999Z</time></trkpt><trkpt lat="39.45500221102645" lon="16.08883562233411"><ele>1110.6666666666667</ele><time>2026-04-27T08:27:26.999Z</time></trkpt><trkpt lat="39.45495367262899" lon="16.08875097478465"><ele>1111.8333333333333</ele><time>2026-04-27T08:27:27.999Z</time></trkpt><trkpt lat="39.454908988304894" lon="16.088679451336922"><ele>1113.0</ele><time>2026-04-27T08:27:28.999Z</time></trkpt><trkpt lat="39.45484344381562" lon="16.088545905536943"><ele>1113.0</ele><time>2026-04-27T08:27:30.999Z</time></trkpt><trkpt lat="39.45480995088887" lon="16.088471826649855"><ele>1113.0</ele><time>2026-04-27T08:27:31.999Z</time></trkpt><trkpt lat="39.45477559662941" lon="16.0883729331483"><ele>1113.0</ele><time>2026-04-27T08:27:33.998Z</time></trkpt><trkpt lat="39.45473445764481" lon="16.08829002789922"><ele>1113.0</ele><time>2026-04-27T08:27:34.998Z</time></trkpt><trkpt lat="39.454667379688" lon="16.088203087361112"><ele>1113.0</ele><time>2026-04-27T08:27:35.998Z</time></trkpt><trkpt lat="39.45461650073215" lon="16.088127002307562"><ele>1113.0</ele><time>2026-04-27T08:27:36.998Z</time></trkpt><trkpt lat="39.454558571639005" lon="16.088029212552396"><ele>1108.0</ele><time>2026-04-27T08:27:38.998Z</time></trkpt><trkpt lat="39.454540223967264" lon="16.08794090061783"><ele>1103.0</ele><time>2026-04-27T08:27:39.998Z</time></trkpt><trkpt lat="39.45452187082224" lon="16.08785631972766"><ele>1098.0</ele><time>2026-04-27T08:27:40.998Z</time></trkpt><trkpt lat="39.45445867539143" lon="16.08772281037823"><ele>1093.0</ele><time>2026-04-27T08:27:42.998Z</time></trkpt><trkpt lat="39.45438941531291" lon="16.08758181165631"><ele>1088.0</ele><time>2026-04-27T08:27:44.998Z</time></trkpt><trkpt lat="39.45433506435526" lon="16.08752014085126"><ele>1087.9999999999998</ele><time>2026-04-27T08:27:45.998Z</time></trkpt><trkpt lat="39.45427920217082" lon="16.08746898262531"><ele>1088.0</ele><time>2026-04-27T08:27:46.998Z</time></trkpt><trkpt lat="39.45421926417302" lon="16.087415089400288"><ele>1088.0</ele><time>2026-04-27T08:27:47.998Z</time></trkpt><trkpt lat="39.454154045805275" lon="16.087362215516755"><ele>1088.0</ele><time>2026-04-27T08:27:48.998Z</time></trkpt><trkpt lat="39.45409957206178" lon="16.087294814719407"><ele>1088.0</ele><time>2026-04-27T08:27:49.998Z</time></trkpt><trkpt lat="39.45404860364825" lon="16.087222624225287"><ele>1087.9999999999998</ele><time>2026-04-27T08:27:50.998Z</time></trkpt><trkpt lat="39.45399901868416" lon="16.087154458072593"><ele>1088.0</ele><time>2026-04-27T08:27:51.998Z</time></trkpt><trkpt lat="39.45393131568131" lon="16.08704251300423"><ele>1090.1666666666667</ele><time>2026-04-27T08:27:53.998Z</time></trkpt><trkpt lat="39.45389615076275" lon="16.08696203049358"><ele>1092.3333333333335</ele><time>2026-04-27T08:27:55Z</time></trkpt><trkpt lat="39.45383696156632" lon="16.086874808869872"><ele>1094.5</ele><time>2026-04-27T08:27:56Z</time></trkpt><trkpt lat="39.45378336827654" lon="16.0868084890309"><ele>1096.6666666666667</ele><time>2026-04-27T08:27:57Z</time></trkpt><trkpt lat="39.45370859413322" lon="16.08673325856684"><ele>1098.8333333333333</ele><time>2026-04-27T08:27:59Z</time></trkpt><trkpt lat="39.453634858055565" lon="16.08673260832162"><ele>1101.0</ele><time>2026-04-27T08:28:01Z</time></trkpt><trkpt lat="39.45359363850049" lon="16.086860031288488"><ele>1095.0</ele><time>2026-04-27T08:28:03Z</time></trkpt><trkpt lat="39.4535953585878" lon="16.086958166456338"><ele>1089.0</ele><time>2026-04-27T08:28:04Z</time></trkpt><trkpt lat="39.453614970636465" lon="16.08704904520149"><ele>1083.0</ele><time>2026-04-27T08:28:05Z</time></trkpt><trkpt lat="39.45366016044352" lon="16.087153402528056"><ele>1077.0</ele><time>2026-04-27T08:28:07Z</time></trkpt><trkpt lat="39.45371212147874" lon="16.08723363957943"><ele>1071.0</ele><time>2026-04-27T08:28:09Z</time></trkpt><trkpt lat="39.453676856194804" lon="16.087319163609525"><ele>1065.0</ele><time>2026-04-27T08:28:12Z</time></trkpt><trkpt lat="39.45360200393553" lon="16.087258851282545"><ele>1065.0</ele><time>2026-04-27T08:28:14Z</time></trkpt><trkpt lat="39.453547116334" lon="16.087193734775767"><ele>1065.0</ele><time>2026-04-27T08:28:15Z</time></trkpt><trkpt lat="39.453489352864324" lon="16.087133637212947"><ele>1065.0</ele><time>2026-04-27T08:28:16Z</time></trkpt><trkpt lat="39.45339953022439" lon="16.087093776213564"><ele>1065.0</ele><time>2026-04-27T08:28:17Z</time></trkpt><trkpt lat="39.45331283057624" lon="16.087081083770858"><ele>1065.0</ele><time>2026-04-27T08:28:18Z</time></trkpt><trkpt lat="39.45324471069954" lon="16.08705697245864"><ele>1065.0</ele><time>2026-04-27T08:28:19Z</time></trkpt><trkpt lat="39.45317867289555" lon="16.08705050973409"><ele>1065.0</ele><time>2026-04-27T08:28:20Z</time></trkpt><trkpt lat="39.4531068123788" lon="16.086989262916"><ele>1065.0</ele><time>2026-04-27T08:28:22Z</time></trkpt><trkpt lat="39.45308621310767" lon="16.086853803666703"><ele>1065.0</ele><time>2026-04-27T08:28:24Z</time></trkpt><trkpt lat="39.45308430700131" lon="16.086767999990702"><ele>1065.0</ele><time>2026-04-27T08:28:25Z</time></trkpt><trkpt lat="39.453076642916464" lon="16.08668556961297"><ele>1065.0</ele><time>2026-04-27T08:28:26Z</time></trkpt><trkpt lat="39.45310424450363" lon="16.086544873741225"><ele>1065.0</ele><time>2026-04-27T08:28:28Z</time></trkpt><trkpt lat="39.453123133938256" lon="16.086424097702597"><ele>1067.1666666666667</ele><time>2026-04-27T08:28:30Z</time></trkpt><trkpt lat="39.45306124069268" lon="16.086338403181298"><ele>1069.3333333333333</ele><time>2026-04-27T08:28:31.999Z</time></trkpt><trkpt lat="39.45300946869845" lon="16.086290546321955"><ele>1071.5</ele><time>2026-04-27T08:28:32.999Z</time></trkpt><trkpt lat="39.45293340503026" lon="16.08629699877087"><ele>1073.6666666666665</ele><time>2026-04-27T08:28:33.999Z</time></trkpt><trkpt lat="39.45285504606549" lon="16.086285628340043"><ele>1075.8333333333333</ele><time>2026-04-27T08:28:35.999Z</time></trkpt><trkpt lat="39.452787593017284" lon="16.08624022222896"><ele>1078.0</ele><time>2026-04-27T08:28:37.999Z</time></trkpt><trkpt lat="39.45277336328059" lon="16.086070899570082"><ele>1074.1666666666665</ele><time>2026-04-27T08:28:39.999Z</time></trkpt><trkpt lat="39.45277460552447" lon="16.085947777170833"><ele>1070.3333333333333</ele><time>2026-04-27T08:28:40.999Z</time></trkpt><trkpt lat="39.452756311732735" lon="16.085825862260346"><ele>1066.5</ele><time>2026-04-27T08:28:42.999Z</time></trkpt><trkpt lat="39.45269593986089" lon="16.08575519632151"><ele>1062.6666666666667</ele><time>2026-04-27T08:28:43.999Z</time></trkpt><trkpt lat="39.4526399429396" lon="16.085696063787612"><ele>1058.8333333333335</ele><time>2026-04-27T08:28:44.999Z</time></trkpt><trkpt lat="39.45259752221077" lon="16.08560513030481"><ele>1055.0</ele><time>2026-04-27T08:28:46.999Z</time></trkpt><trkpt lat="39.45257206903384" lon="16.08551791149444"><ele>1055.0</ele><time>2026-04-27T08:28:48.999Z</time></trkpt><trkpt lat="39.4525994334903" lon="16.085412435574735"><ele>1055.0</ele><time>2026-04-27T08:28:50.999Z</time></trkpt><trkpt lat="39.45263035087767" lon="16.08531481810416"><ele>1055.0</ele><time>2026-04-27T08:28:53.999Z</time></trkpt><trkpt lat="39.45256392415429" lon="16.085257677854603"><ele>1055.0</ele><time>2026-04-27T08:28:56.999Z</time></trkpt><trkpt lat="39.4524728926783" lon="16.085228611417577"><ele>1055.0</ele><time>2026-04-27T08:28:59.999Z</time></trkpt><trkpt lat="39.45237241694664" lon="16.085150003673103"><ele>1055.0</ele><time>2026-04-27T08:29:01.999Z</time></trkpt><trkpt lat="39.452305084289016" lon="16.085033740804985"><ele>1055.0</ele><time>2026-04-27T08:29:03.999Z</time></trkpt><trkpt lat="39.452270046654405" lon="16.08491041411129"><ele>1055.0</ele><time>2026-04-27T08:29:04.999Z</time></trkpt><trkpt lat="39.45223541274258" lon="16.08479516090763"><ele>1055.0</ele><time>2026-04-27T08:29:05.999Z</time></trkpt><trkpt lat="39.452190684344124" lon="16.0847104197758"><ele>1055.0</ele><time>2026-04-27T08:29:06.999Z</time></trkpt><trkpt lat="39.452168715223266" lon="16.08463282969091"><ele>1050.0</ele><time>2026-04-27T08:29:07.999Z</time></trkpt><trkpt lat="39.45212037728122" lon="16.08452127345773"><ele>1045.0</ele><time>2026-04-27T08:29:09.999Z</time></trkpt><trkpt lat="39.452090324956096" lon="16.08441339922685"><ele>1040.0</ele><time>2026-04-27T08:29:11.999Z</time></trkpt><trkpt lat="39.452064724623064" lon="16.084287795944405"><ele>1035.0</ele><time>2026-04-27T08:29:13.999Z</time></trkpt><trkpt lat="39.45204613470553" lon="16.084165389866364"><ele>1030.0</ele><time>2026-04-27T08:29:14.999Z</time></trkpt><trkpt lat="39.45202605984913" lon="16.084042123987007"><ele>1030.0</ele><time>2026-04-27T08:29:15.999Z</time></trkpt><trkpt lat="39.452014616065235" lon="16.083926309711103"><ele>1030.0</ele><time>2026-04-27T08:29:16.999Z</time></trkpt><trkpt lat="39.45200953022013" lon="16.08381917062154"><ele>1030.0</ele><time>2026-04-27T08:29:17.999Z</time></trkpt><trkpt lat="39.45199765409007" lon="16.083706549543894"><ele>1030.0</ele><time>2026-04-27T08:29:18.999Z</time></trkpt><trkpt lat="39.45199727392018" lon="16.08360621398097"><ele>1030.0</ele><time>2026-04-27T08:29:19.999Z</time></trkpt><trkpt lat="39.451985586028044" lon="16.083496304950096"><ele>1030.0</ele><time>2026-04-27T08:29:20.999Z</time></trkpt><trkpt lat="39.45196721318605" lon="16.083372870593173"><ele>1031.0</ele><time>2026-04-27T08:29:21.999Z</time></trkpt><trkpt lat="39.451966224163186" lon="16.083247208423845"><ele>1032.0</ele><time>2026-04-27T08:29:22.999Z</time></trkpt><trkpt lat="39.45195067878564" lon="16.08314529907031"><ele>1033.0</ele><time>2026-04-27T08:29:23.999Z</time></trkpt><trkpt lat="39.45192885972867" lon="16.083033003405482"><ele>1034.0</ele><time>2026-04-27T08:29:24.999Z</time></trkpt><trkpt lat="39.451940774695494" lon="16.082897208947237"><ele>1035.0</ele><time>2026-04-27T08:29:25.999Z</time></trkpt><trkpt lat="39.45193805872372" lon="16.082759457205103"><ele>1035.0</ele><time>2026-04-27T08:29:26.999Z</time></trkpt><trkpt lat="39.45194512256746" lon="16.0826331004973"><ele>1035.0</ele><time>2026-04-27T08:29:27.999Z</time></trkpt><trkpt lat="39.45196477756365" lon="16.08250310615037"><ele>1035.0</ele><time>2026-04-27T08:29:28.999Z</time></trkpt><trkpt lat="39.45195890286799" lon="16.082382027516974"><ele>1035.0</ele><time>2026-04-27T08:29:29.999Z</time></trkpt><trkpt lat="39.45196388361569" lon="16.082281685074328"><ele>1035.0</ele><time>2026-04-27T08:29:30.999Z</time></trkpt><trkpt lat="39.45198081872324" lon="16.08219402979841"><ele>1035.0</ele><time>2026-04-27T08:29:31.999Z</time></trkpt><trkpt lat="39.45199458533727" lon="16.08210875351416"><ele>1036.6</ele><time>2026-04-27T08:29:32.999Z</time></trkpt><trkpt lat="39.452010268195934" lon="16.08199607756256"><ele>1038.2</ele><time>2026-04-27T08:29:34.999Z</time></trkpt><trkpt lat="39.45203622067043" lon="16.081898959238412"><ele>1039.8</ele><time>2026-04-27T08:29:36.999Z</time></trkpt><trkpt lat="39.45201230849981" lon="16.0818234509481"><ele>1041.4</ele><time>2026-04-27T08:29:38.998Z</time></trkpt><trkpt lat="39.45193542966259" lon="16.08181243650994"><ele>1043.0</ele><time>2026-04-27T08:29:41.998Z</time></trkpt><trkpt lat="39.45175290125683" lon="16.08174379836974"><ele>1043.0</ele><time>2026-04-27T08:29:44.998Z</time></trkpt><trkpt lat="39.45165682339652" lon="16.081713011993454"><ele>1043.0</ele><time>2026-04-27T08:29:45.998Z</time></trkpt><trkpt lat="39.45158818691802" lon="16.081672410422442"><ele>1043.0</ele><time>2026-04-27T08:29:46.998Z</time></trkpt><trkpt lat="39.45154908212711" lon="16.08154730656453"><ele>1043.0</ele><time>2026-04-27T08:29:49.998Z</time></trkpt><trkpt lat="39.451525532157" lon="16.081460408806926"><ele>1043.0</ele><time>2026-04-27T08:29:50.998Z</time></trkpt><trkpt lat="39.451537818132856" lon="16.081329275456017"><ele>1044.5</ele><time>2026-04-27T08:29:51.998Z</time></trkpt><trkpt lat="39.45153762414572" lon="16.08121249822943"><ele>1046.0</ele><time>2026-04-27T08:29:52.998Z</time></trkpt><trkpt lat="39.45153336835418" lon="16.08110841621069"><ele>1047.5</ele><time>2026-04-27T08:29:53.998Z</time></trkpt><trkpt lat="39.45152040697356" lon="16.081005824269504"><ele>1049.0</ele><time>2026-04-27T08:29:54.998Z</time></trkpt><trkpt lat="39.45149726347687" lon="16.080916051917917"><ele>1050.5</ele><time>2026-04-27T08:29:55.998Z</time></trkpt><trkpt lat="39.45145943202602" lon="16.080848990755634"><ele>1052.0</ele><time>2026-04-27T08:29:56.998Z</time></trkpt><trkpt lat="39.45143009678423" lon="16.080744132559264"><ele>1053.2</ele><time>2026-04-27T08:29:57.998Z</time></trkpt><trkpt lat="39.45141120278987" lon="16.080623447879002"><ele>1054.4</ele><time>2026-04-27T08:29:58.998Z</time></trkpt><trkpt lat="39.45140335097789" lon="16.080538894196785"><ele>1055.6</ele><time>2026-04-27T08:29:59.998Z</time></trkpt><trkpt lat="39.45138065827284" lon="16.08044097184891"><ele>1056.8</ele><time>2026-04-27T08:30:01Z</time></trkpt><trkpt lat="39.45132556177684" lon="16.08032769531532"><ele>1058.0</ele><time>2026-04-27T08:30:02Z</time></trkpt><trkpt lat="39.45134944118989" lon="16.080190591610314"><ele>1058.0</ele><time>2026-04-27T08:30:04Z</time></trkpt><trkpt lat="39.45133828372052" lon="16.080081840236645"><ele>1058.0</ele><time>2026-04-27T08:30:06Z</time></trkpt><trkpt lat="39.451319160353144" lon="16.079959525871256"><ele>1058.0</ele><time>2026-04-27T08:30:09Z</time></trkpt><trkpt lat="39.45132760277046" lon="16.079871136342735"><ele>1058.0</ele><time>2026-04-27T08:30:11Z</time></trkpt><trkpt lat="39.451379343650785" lon="16.079806710104293"><ele>1058.0</ele><time>2026-04-27T08:30:14Z</time></trkpt><trkpt lat="39.451338295742964" lon="16.079730982605504"><ele>1058.0</ele><time>2026-04-27T08:30:17Z</time></trkpt><trkpt lat="39.45126632505893" lon="16.07976382452931"><ele>1059.6666666666667</ele><time>2026-04-27T08:30:19Z</time></trkpt><trkpt lat="39.45122301291013" lon="16.07982352564027"><ele>1061.3333333333335</ele><time>2026-04-27T08:30:20Z</time></trkpt><trkpt lat="39.451161718917035" lon="16.079957765377525"><ele>1063.0</ele><time>2026-04-27T08:30:22Z</time></trkpt><trkpt lat="39.45112470994586" lon="16.080037895339515"><ele>1064.6666666666667</ele><time>2026-04-27T08:30:23Z</time></trkpt><trkpt lat="39.4510971447375" lon="16.080120574629866"><ele>1066.3333333333333</ele><time>2026-04-27T08:30:24Z</time></trkpt><trkpt lat="39.45104417161297" lon="16.08017153125906"><ele>1068.0</ele><time>2026-04-27T08:30:25Z</time></trkpt><trkpt lat="39.45098627779382" lon="16.080248263202712"><ele>1062.1666666666667</ele><time>2026-04-27T08:30:26Z</time></trkpt><trkpt lat="39.45092092768328" lon="16.080335572944108"><ele>1056.3333333333333</ele><time>2026-04-27T08:30:27Z</time></trkpt><trkpt lat="39.450884754418546" lon="16.080416755388292"><ele>1050.5</ele><time>2026-04-27T08:30:28Z</time></trkpt><trkpt lat="39.450850762560606" lon="16.08049478823978"><ele>1044.6666666666665</ele><time>2026-04-27T08:30:29Z</time></trkpt><trkpt lat="39.45080899508706" lon="16.080557704549793"><ele>1038.8333333333333</ele><time>2026-04-27T08:30:30Z</time></trkpt><trkpt lat="39.45076401057201" lon="16.080674358083957"><ele>1033.0</ele><time>2026-04-27T08:30:32Z</time></trkpt><trkpt lat="39.45073548551578" lon="16.080750918765307"><ele>1032.6666666666665</ele><time>2026-04-27T08:30:34Z</time></trkpt><trkpt lat="39.45070676391034" lon="16.08084366962261"><ele>1032.3333333333333</ele><time>2026-04-27T08:30:35.999Z</time></trkpt><trkpt lat="39.45068654629512" lon="16.080930514146736"><ele>1032.0</ele><time>2026-04-27T08:30:37.999Z</time></trkpt><trkpt lat="39.45064260671981" lon="16.081006822644223"><ele>1031.6666666666667</ele><time>2026-04-27T08:30:40.999Z</time></trkpt><trkpt lat="39.45056166013493" lon="16.080889228169358"><ele>1031.3333333333335</ele><time>2026-04-27T08:30:43.999Z</time></trkpt><trkpt lat="39.450518133597896" lon="16.08079897945753"><ele>1031.0</ele><time>2026-04-27T08:30:45.999Z</time></trkpt><trkpt lat="39.45042839591725" lon="16.080838180833098"><ele>1031.0</ele><time>2026-04-27T08:30:48.999Z</time></trkpt><trkpt lat="39.45039469885992" lon="16.0809086973908"><ele>1031.0</ele><time>2026-04-27T08:30:49.999Z</time></trkpt><trkpt lat="39.45033601210245" lon="16.081048366262287"><ele>1031.0</ele><time>2026-04-27T08:30:50.999Z</time></trkpt><trkpt lat="39.45028042071088" lon="16.08120005663338"><ele>1031.0</ele><time>2026-04-27T08:30:51.999Z</time></trkpt><trkpt lat="39.45024941890768" lon="16.081319176651984"><ele>1031.0</ele><time>2026-04-27T08:30:52.999Z</time></trkpt><trkpt lat="39.450225668599934" lon="16.081418093650985"><ele>1031.0</ele><time>2026-04-27T08:30:53.999Z</time></trkpt><trkpt lat="39.450178385848936" lon="16.081498284325047"><ele>1031.0</ele><time>2026-04-27T08:30:56.999Z</time></trkpt><trkpt lat="39.450013093364" lon="16.081494129740985"><ele>1031.0</ele><time>2026-04-27T08:30:58.999Z</time></trkpt><trkpt lat="39.449903827119165" lon="16.081524861323956"><ele>1031.0</ele><time>2026-04-27T08:30:59.999Z</time></trkpt><trkpt lat="39.4498014330815" lon="16.081576466421"><ele>1031.6666666666667</ele><time>2026-04-27T08:31:00.999Z</time></trkpt><trkpt lat="39.449719438293926" lon="16.08162949662235"><ele>1032.3333333333335</ele><time>2026-04-27T08:31:01.999Z</time></trkpt><trkpt lat="39.449663674395794" lon="16.081672451866478"><ele>1033.0</ele><time>2026-04-27T08:31:02.999Z</time></trkpt><trkpt lat="39.44957501173699" lon="16.081700699627213"><ele>1033.6666666666667</ele><time>2026-04-27T08:31:03.999Z</time></trkpt><trkpt lat="39.44947542240609" lon="16.08173357509647"><ele>1034.3333333333333</ele><time>2026-04-27T08:31:04.999Z</time></trkpt><trkpt lat="39.449397565289146" lon="16.081749184008004"><ele>1035.0</ele><time>2026-04-27T08:31:05.999Z</time></trkpt><trkpt lat="39.44930359386047" lon="16.081752107210615"><ele>1035.0</ele><time>2026-04-27T08:31:06.999Z</time></trkpt><trkpt lat="39.44920781031543" lon="16.08176033403464"><ele>1035.0</ele><time>2026-04-27T08:31:07.999Z</time></trkpt><trkpt lat="39.44913702647957" lon="16.081755020705714"><ele>1035.0</ele><time>2026-04-27T08:31:08.999Z</time></trkpt><trkpt lat="39.44905151943813" lon="16.08182891901896"><ele>1035.0</ele><time>2026-04-27T08:31:10.999Z</time></trkpt><trkpt lat="39.44904977898646" lon="16.081955262698806"><ele>1035.0</ele><time>2026-04-27T08:31:12.999Z</time></trkpt><trkpt lat="39.44912625304342" lon="16.082014822939474"><ele>1035.0</ele><time>2026-04-27T08:31:14.999Z</time></trkpt><trkpt lat="39.449230832603384" lon="16.082050023726303"><ele>1035.0</ele><time>2026-04-27T08:31:16.999Z</time></trkpt><trkpt lat="39.44933834743633" lon="16.082100769562526"><ele>1035.0</ele><time>2026-04-27T08:31:18.999Z</time></trkpt><trkpt lat="39.44939842605341" lon="16.082131678303774"><ele>1035.0</ele><time>2026-04-27T08:31:19.999Z</time></trkpt><trkpt lat="39.449489958910604" lon="16.082208316599573"><ele>1035.0</ele><time>2026-04-27T08:31:21.999Z</time></trkpt><trkpt lat="39.44954413996955" lon="16.08234087049205"><ele>1034.5</ele><time>2026-04-27T08:31:23.999Z</time></trkpt><trkpt lat="39.449555894843364" lon="16.082481288434092"><ele>1034.0</ele><time>2026-04-27T08:31:24.999Z</time></trkpt><trkpt lat="39.44956141628211" lon="16.08264310144699"><ele>1033.5</ele><time>2026-04-27T08:31:25.999Z</time></trkpt><trkpt lat="39.44957130837472" lon="16.08282229550265"><ele>1033.0</ele><time>2026-04-27T08:31:26.999Z</time></trkpt><trkpt lat="39.44959063377856" lon="16.082968356110836"><ele>1033.0</ele><time>2026-04-27T08:31:27.999Z</time></trkpt><trkpt lat="39.44960199547341" lon="16.083080186595375"><ele>1033.0</ele><time>2026-04-27T08:31:28.999Z</time></trkpt><trkpt lat="39.44959925540345" lon="16.08318141809017"><ele>1033.0</ele><time>2026-04-27T08:31:29.999Z</time></trkpt><trkpt lat="39.44960002585307" lon="16.083274449294525"><ele>1033.0</ele><time>2026-04-27T08:31:30.999Z</time></trkpt><trkpt lat="39.44959406130074" lon="16.083387504656486"><ele>1033.0</ele><time>2026-04-27T08:31:31.999Z</time></trkpt><trkpt lat="39.44958277895759" lon="16.083525408468965"><ele>1033.0</ele><time>2026-04-27T08:31:32.999Z</time></trkpt><trkpt lat="39.44958598117136" lon="16.0836856348324"><ele>1034.6</ele><time>2026-04-27T08:31:33.999Z</time></trkpt><trkpt lat="39.44958672464095" lon="16.083801592350685"><ele>1036.1999999999998</ele><time>2026-04-27T08:31:34.999Z</time></trkpt><trkpt lat="39.449552261437034" lon="16.08397784709331"><ele>1037.8</ele><time>2026-04-27T08:31:36.999Z</time></trkpt><trkpt lat="39.44952302947086" lon="16.08411001922383"><ele>1039.3999999999999</ele><time>2026-04-27T08:31:37.999Z</time></trkpt><trkpt lat="39.4495266081725" lon="16.084220685062633"><ele>1041.0</ele><time>2026-04-27T08:31:38.999Z</time></trkpt><trkpt lat="39.44953090535153" lon="16.08432271126088"><ele>1041.6</ele><time>2026-04-27T08:31:39.999Z</time></trkpt><trkpt lat="39.44954952734649" lon="16.084410210596765"><ele>1042.1999999999998</ele><time>2026-04-27T08:31:40.998Z</time></trkpt><trkpt lat="39.44959030635054" lon="16.08448709548398"><ele>1042.8000000000002</ele><time>2026-04-27T08:31:41.998Z</time></trkpt><trkpt lat="39.44966355102743" lon="16.084621969926648"><ele>1043.4</ele><time>2026-04-27T08:31:43.998Z</time></trkpt><trkpt lat="39.44967604210113" lon="16.084743940540854"><ele>1044.0</ele><time>2026-04-27T08:31:44.998Z</time></trkpt><trkpt lat="39.44967606457595" lon="16.084894262080187"><ele>1043.8</ele><time>2026-04-27T08:31:45.998Z</time></trkpt><trkpt lat="39.44965923162358" lon="16.085016557440145"><ele>1043.6000000000001</ele><time>2026-04-27T08:31:46.998Z</time></trkpt><trkpt lat="39.44965276700036" lon="16.085129914094082"><ele>1043.4</ele><time>2026-04-27T08:31:47.998Z</time></trkpt><trkpt lat="39.44963644024183" lon="16.08525048905197"><ele>1043.2</ele><time>2026-04-27T08:31:48.998Z</time></trkpt><trkpt lat="39.44959113382483" lon="16.085373642209053"><ele>1043.0</ele><time>2026-04-27T08:31:49.998Z</time></trkpt><trkpt lat="39.44953900150343" lon="16.08551847011945"><ele>1043.0</ele><time>2026-04-27T08:31:50.998Z</time></trkpt><trkpt lat="39.449512163845554" lon="16.08567355759165"><ele>1043.0</ele><time>2026-04-27T08:31:51.998Z</time></trkpt><trkpt lat="39.449530734770235" lon="16.08579105795306"><ele>1043.0</ele><time>2026-04-27T08:31:52.998Z</time></trkpt><trkpt lat="39.449533854598826" lon="16.085895698125107"><ele>1043.0</ele><time>2026-04-27T08:31:53.998Z</time></trkpt><trkpt lat="39.449506340144204" lon="16.08598484937324"><ele>1043.0</ele><time>2026-04-27T08:31:54.998Z</time></trkpt><trkpt lat="39.44946071083256" lon="16.08608042483378"><ele>1040.6</ele><time>2026-04-27T08:31:55.998Z</time></trkpt><trkpt lat="39.449396558616705" lon="16.086169996435572"><ele>1038.1999999999998</ele><time>2026-04-27T08:31:56.998Z</time></trkpt><trkpt lat="39.44932021408857" lon="16.08623532814905"><ele>1035.8</ele><time>2026-04-27T08:31:57.998Z</time></trkpt><trkpt lat="39.44922889543772" lon="16.086278223341115"><ele>1033.3999999999999</ele><time>2026-04-27T08:31:58.998Z</time></trkpt><trkpt lat="39.44912936527525" lon="16.086332259576213"><ele>1031.0</ele><time>2026-04-27T08:31:59.998Z</time></trkpt><trkpt lat="39.449030042405454" lon="16.08639477414747"><ele>1031.0</ele><time>2026-04-27T08:32:00.998Z</time></trkpt><trkpt lat="39.4489327393806" lon="16.086515865073245"><ele>1031.0</ele><time>2026-04-27T08:32:01.998Z</time></trkpt><trkpt lat="39.448832434926985" lon="16.08663764948336"><ele>1031.0</ele><time>2026-04-27T08:32:02.998Z</time></trkpt><trkpt lat="39.44873987001095" lon="16.086723890647363"><ele>1031.0</ele><time>2026-04-27T08:32:03.998Z</time></trkpt><trkpt lat="39.44866535128153" lon="16.086816513578682"><ele>1030.75</ele><time>2026-04-27T08:32:04.998Z</time></trkpt><trkpt lat="39.448581135858056" lon="16.086914374690764"><ele>1030.5</ele><time>2026-04-27T08:32:06Z</time></trkpt><trkpt lat="39.44847871081998" lon="16.08702000871242"><ele>1030.25</ele><time>2026-04-27T08:32:07Z</time></trkpt><trkpt lat="39.44837486750683" lon="16.087096964091675"><ele>1030.0</ele><time>2026-04-27T08:32:08Z</time></trkpt><trkpt lat="39.44829495108509" lon="16.087151535895924"><ele>1030.0</ele><time>2026-04-27T08:32:09Z</time></trkpt><trkpt lat="39.44823762625583" lon="16.087223491881893"><ele>1030.0</ele><time>2026-04-27T08:32:10Z</time></trkpt><trkpt lat="39.44820579355692" lon="16.087309324567837"><ele>1030.0</ele><time>2026-04-27T08:32:11Z</time></trkpt><trkpt lat="39.448165939773546" lon="16.087377915240015"><ele>1030.0</ele><time>2026-04-27T08:32:12Z</time></trkpt><trkpt lat="39.44807011923635" lon="16.087459308167915"><ele>1030.0</ele><time>2026-04-27T08:32:14Z</time></trkpt><trkpt lat="39.44798445901208" lon="16.087494123723722"><ele>1030.0</ele><time>2026-04-27T08:32:15Z</time></trkpt><trkpt lat="39.44790032211352" lon="16.08752260888931"><ele>1030.4285714285716</ele><time>2026-04-27T08:32:16Z</time></trkpt><trkpt lat="39.44781971604146" lon="16.087545111715265"><ele>1030.857142857143</ele><time>2026-04-27T08:32:17Z</time></trkpt><trkpt lat="39.44774975803716" lon="16.087580477357168"><ele>1031.2857142857142</ele><time>2026-04-27T08:32:18Z</time></trkpt><trkpt lat="39.4476914058591" lon="16.08763360017043"><ele>1031.7142857142858</ele><time>2026-04-27T08:32:19Z</time></trkpt><trkpt lat="39.44765585563816" lon="16.087707553030054"><ele>1032.142857142857</ele><time>2026-04-27T08:32:20Z</time></trkpt><trkpt lat="39.44762621899349" lon="16.087791524350525"><ele>1032.5714285714287</ele><time>2026-04-27T08:32:21Z</time></trkpt><trkpt lat="39.44758471999435" lon="16.08787927502713"><ele>1033.0</ele><time>2026-04-27T08:32:22Z</time></trkpt><trkpt lat="39.447534816945634" lon="16.087942719438196"><ele>1033.0</ele><time>2026-04-27T08:32:23Z</time></trkpt><trkpt lat="39.44747217964712" lon="16.087989696219328"><ele>1033.0</ele><time>2026-04-27T08:32:24Z</time></trkpt><trkpt lat="39.44738819457305" lon="16.088031826293737"><ele>1033.0</ele><time>2026-04-27T08:32:25Z</time></trkpt><trkpt lat="39.4472942529731" lon="16.088074905986666"><ele>1033.0</ele><time>2026-04-27T08:32:26Z</time></trkpt><trkpt lat="39.44722462359126" lon="16.088099340157058"><ele>1033.0</ele><time>2026-04-27T08:32:27Z</time></trkpt><trkpt lat="39.44714897341618" lon="16.088121401053495"><ele>1033.0</ele><time>2026-04-27T08:32:29Z</time></trkpt><trkpt lat="39.447129843485335" lon="16.088255357188242"><ele>1030.2</ele><time>2026-04-27T08:32:32Z</time></trkpt><trkpt lat="39.447143574409054" lon="16.088396548361104"><ele>1027.4</ele><time>2026-04-27T08:32:34Z</time></trkpt><trkpt lat="39.44709974480195" lon="16.088501770553073"><ele>1024.6000000000001</ele><time>2026-04-27T08:32:36Z</time></trkpt><trkpt lat="39.44712263347706" lon="16.08864506453197"><ele>1021.8000000000001</ele><time>2026-04-27T08:32:38Z</time></trkpt><trkpt lat="39.44716972933256" lon="16.088778978011373"><ele>1019.0</ele><time>2026-04-27T08:32:39Z</time></trkpt><trkpt lat="39.447200921862084" lon="16.088892328185697"><ele>1019.0000000000001</ele><time>2026-04-27T08:32:40Z</time></trkpt><trkpt lat="39.447230954890635" lon="16.088999902357553"><ele>1019.0</ele><time>2026-04-27T08:32:40.999Z</time></trkpt><trkpt lat="39.447263340586595" lon="16.089110453327663"><ele>1019.0</ele><time>2026-04-27T08:32:41.999Z</time></trkpt><trkpt lat="39.44726525661476" lon="16.08920444886343"><ele>1019.0</ele><time>2026-04-27T08:32:42.999Z</time></trkpt><trkpt lat="39.44725171504594" lon="16.089305732571553"><ele>1019.0000000000001</ele><time>2026-04-27T08:32:43.999Z</time></trkpt><trkpt lat="39.44721479342253" lon="16.089429569282625"><ele>1019.0</ele><time>2026-04-27T08:32:44.999Z</time></trkpt><trkpt lat="39.44717050687209" lon="16.089568764800912"><ele>1018.6</ele><time>2026-04-27T08:32:45.999Z</time></trkpt><trkpt lat="39.44714044599621" lon="16.089725835380666"><ele>1018.2</ele><time>2026-04-27T08:32:46.999Z</time></trkpt><trkpt lat="39.44713122360371" lon="16.08988836120708"><ele>1017.8000000000001</ele><time>2026-04-27T08:32:47.999Z</time></trkpt><trkpt lat="39.44713810571507" lon="16.090007070345276"><ele>1017.4000000000001</ele><time>2026-04-27T08:32:48.999Z</time></trkpt><trkpt lat="39.44712671299621" lon="16.090115013727416"><ele>1017.0</ele><time>2026-04-27T08:32:49.999Z</time></trkpt><trkpt lat="39.44709937401982" lon="16.0902237292011"><ele>1022.5</ele><time>2026-04-27T08:32:50.999Z</time></trkpt><trkpt lat="39.44705148902804" lon="16.090338356175476"><ele>1028.0</ele><time>2026-04-27T08:32:51.999Z</time></trkpt><trkpt lat="39.44701033002202" lon="16.090427612151913"><ele>1033.5</ele><time>2026-04-27T08:32:52.999Z</time></trkpt><trkpt lat="39.44695692000407" lon="16.090501785303832"><ele>1039.0</ele><time>2026-04-27T08:32:53.999Z</time></trkpt><trkpt lat="39.446880483387126" lon="16.0905694701762"><ele>1044.5</ele><time>2026-04-27T08:32:54.999Z</time></trkpt><trkpt lat="39.446792185402956" lon="16.09061860537167"><ele>1050.0</ele><time>2026-04-27T08:32:55.999Z</time></trkpt><trkpt lat="39.446705408261145" lon="16.090630185157885"><ele>1050.0</ele><time>2026-04-27T08:32:56.999Z</time></trkpt><trkpt lat="39.44659355719854" lon="16.090637520176266"><ele>1050.0</ele><time>2026-04-27T08:32:57.999Z</time></trkpt><trkpt lat="39.446459536337436" lon="16.090671445869834"><ele>1050.0</ele><time>2026-04-27T08:32:58.999Z</time></trkpt><trkpt lat="39.44636080988047" lon="16.09068392090407"><ele>1050.0</ele><time>2026-04-27T08:32:59.999Z</time></trkpt><trkpt lat="39.44625707027987" lon="16.09071593588426"><ele>1050.6</ele><time>2026-04-27T08:33:00.999Z</time></trkpt><trkpt lat="39.446171697996846" lon="16.090765340835606"><ele>1051.2</ele><time>2026-04-27T08:33:01.999Z</time></trkpt><trkpt lat="39.44611383976717" lon="16.090845551594054"><ele>1051.8</ele><time>2026-04-27T08:33:02.999Z</time></trkpt><trkpt lat="39.44604146527047" lon="16.090943463171854"><ele>1052.4</ele><time>2026-04-27T08:33:03.999Z</time></trkpt><trkpt lat="39.445981547312414" lon="16.0910373342852"><ele>1053.0</ele><time>2026-04-27T08:33:04.999Z</time></trkpt><trkpt lat="39.44592987033121" lon="16.09112127783332"><ele>1053.0</ele><time>2026-04-27T08:33:05.999Z</time></trkpt><trkpt lat="39.44588170472017" lon="16.091195244263826"><ele>1053.0</ele><time>2026-04-27T08:33:06.999Z</time></trkpt><trkpt lat="39.44582314334717" lon="16.091263007363334"><ele>1053.0</ele><time>2026-04-27T08:33:07.999Z</time></trkpt><trkpt lat="39.445733512790376" lon="16.091347710562005"><ele>1053.0</ele><time>2026-04-27T08:33:08.999Z</time></trkpt><trkpt lat="39.44563846401946" lon="16.09140670716813"><ele>1053.0</ele><time>2026-04-27T08:33:09.999Z</time></trkpt><trkpt lat="39.44556366401355" lon="16.09150703454557"><ele>1052.2</ele><time>2026-04-27T08:33:10.999Z</time></trkpt><trkpt lat="39.44550129215436" lon="16.09161800510335"><ele>1051.4</ele><time>2026-04-27T08:33:11.999Z</time></trkpt><trkpt lat="39.44543978883816" lon="16.091706361967503"><ele>1050.6000000000001</ele><time>2026-04-27T08:33:12.999Z</time></trkpt><trkpt lat="39.44538480694568" lon="16.0917911089667"><ele>1049.8</ele><time>2026-04-27T08:33:13.999Z</time></trkpt><trkpt lat="39.44533492396174" lon="16.091875578924768"><ele>1049.0</ele><time>2026-04-27T08:33:14.999Z</time></trkpt><trkpt lat="39.44530571016143" lon="16.09199981860618"><ele>1049.0</ele><time>2026-04-27T08:33:15.999Z</time></trkpt><trkpt lat="39.44526496128702" lon="16.0921195503475"><ele>1049.0</ele><time>2026-04-27T08:33:16.999Z</time></trkpt><trkpt lat="39.44523054713356" lon="16.092226399905652"><ele>1049.0</ele><time>2026-04-27T08:33:17.999Z</time></trkpt><trkpt lat="39.44518434717657" lon="16.092329613894425"><ele>1049.0</ele><time>2026-04-27T08:33:18.999Z</time></trkpt><trkpt lat="39.44513980518895" lon="16.09242706787531"><ele>1049.0</ele><time>2026-04-27T08:33:19.999Z</time></trkpt><trkpt lat="39.44509552628088" lon="16.092523370160674"><ele>1044.6000000000001</ele><time>2026-04-27T08:33:20.999Z</time></trkpt><trkpt lat="39.44504861732313" lon="16.092640884694234"><ele>1040.2</ele><time>2026-04-27T08:33:21.999Z</time></trkpt><trkpt lat="39.444989911077236" lon="16.092747170799377"><ele>1035.8000000000002</ele><time>2026-04-27T08:33:22.999Z</time></trkpt><trkpt lat="39.44491730600725" lon="16.09285968022329"><ele>1031.4</ele><time>2026-04-27T08:33:23.999Z</time></trkpt><trkpt lat="39.44485518085833" lon="16.092958262378218"><ele>1027.0</ele><time>2026-04-27T08:33:24.999Z</time></trkpt><trkpt lat="39.44479973212123" lon="16.09304310466842"><ele>1027.0</ele><time>2026-04-27T08:33:25.999Z</time></trkpt><trkpt lat="39.44473636146057" lon="16.093121530663744"><ele>1027.0</ele><time>2026-04-27T08:33:26.999Z</time></trkpt><trkpt lat="39.444674072656355" lon="16.0932316161618"><ele>1027.0</ele><time>2026-04-27T08:33:27.999Z</time></trkpt><trkpt lat="39.44461990709408" lon="16.09331233846262"><ele>1027.0</ele><time>2026-04-27T08:33:28.999Z</time></trkpt><trkpt lat="39.4445774560508" lon="16.09337992415692"><ele>1027.0</ele><time>2026-04-27T08:33:29.999Z</time></trkpt><trkpt lat="39.444532700458474" lon="16.093446212621018"><ele>1027.0</ele><time>2026-04-27T08:33:30.999Z</time></trkpt><trkpt lat="39.44447981322087" lon="16.093506892809447"><ele>1026.2</ele><time>2026-04-27T08:33:31.999Z</time></trkpt><trkpt lat="39.44442249224598" lon="16.093546331193867"><ele>1025.4</ele><time>2026-04-27T08:33:32.999Z</time></trkpt><trkpt lat="39.444322173518444" lon="16.09357501883788"><ele>1024.6</ele><time>2026-04-27T08:33:34.999Z</time></trkpt><trkpt lat="39.44432002068176" lon="16.093759159485742"><ele>1023.8</ele><time>2026-04-27T08:33:36.999Z</time></trkpt><trkpt lat="39.44435756477589" lon="16.093886261255467"><ele>1023.0</ele><time>2026-04-27T08:33:37.999Z</time></trkpt><trkpt lat="39.44438960057914" lon="16.094007129849988"><ele>1019.0</ele><time>2026-04-27T08:33:38.999Z</time></trkpt><trkpt lat="39.44442854382324" lon="16.09412211834118"><ele>1015.0</ele><time>2026-04-27T08:33:39.999Z</time></trkpt><trkpt lat="39.444471910728836" lon="16.094225709326196"><ele>1011.0</ele><time>2026-04-27T08:33:40.999Z</time></trkpt><trkpt lat="39.44451039549749" lon="16.0943190587746"><ele>1007.0</ele><time>2026-04-27T08:33:41.999Z</time></trkpt><trkpt lat="39.44455099703765" lon="16.094413539991713"><ele>1003.0</ele><time>2026-04-27T08:33:42.999Z</time></trkpt><trkpt lat="39.44460944012317" lon="16.094517953874938"><ele>999.4999999999999</ele><time>2026-04-27T08:33:43.999Z</time></trkpt><trkpt lat="39.444664645358316" lon="16.09461772417235"><ele>996.0</ele><time>2026-04-27T08:33:44.999Z</time></trkpt><trkpt lat="39.44472424639515" lon="16.094677859855338"><ele>992.5</ele><time>2026-04-27T08:33:45.999Z</time></trkpt><trkpt lat="39.44479286881028" lon="16.094720998940616"><ele>989.0</ele><time>2026-04-27T08:33:46.999Z</time></trkpt><trkpt lat="39.444869631438394" lon="16.09482026459346"><ele>985.4999999999999</ele><time>2026-04-27T08:33:48.998Z</time></trkpt><trkpt lat="39.44488428618059" lon="16.094904073317878"><ele>982.0</ele><time>2026-04-27T08:33:49.998Z</time></trkpt><trkpt lat="39.44487467006042" lon="16.095016209857263"><ele>980.0</ele><time>2026-04-27T08:33:50.998Z</time></trkpt><trkpt lat="39.4448704907922" lon="16.095193436965594"><ele>978.0</ele><time>2026-04-27T08:33:51.998Z</time></trkpt><trkpt lat="39.444860120538706" lon="16.095347484452404"><ele>976.0</ele><time>2026-04-27T08:33:52.998Z</time></trkpt><trkpt lat="39.44483913696458" lon="16.095470891256785"><ele>974.0</ele><time>2026-04-27T08:33:53.998Z</time></trkpt><trkpt lat="39.444811678822404" lon="16.095575551235523"><ele>972.0</ele><time>2026-04-27T08:33:54.998Z</time></trkpt><trkpt lat="39.44477727100174" lon="16.095664257964906"><ele>972.0</ele><time>2026-04-27T08:33:55.998Z</time></trkpt><trkpt lat="39.44472468314242" lon="16.095735812058795"><ele>972.0</ele><time>2026-04-27T08:33:56.998Z</time></trkpt><trkpt lat="39.44464812178289" lon="16.095800345646015"><ele>972.0</ele><time>2026-04-27T08:33:57.998Z</time></trkpt><trkpt lat="39.444580362200725" lon="16.095866725021082"><ele>972.0</ele><time>2026-04-27T08:33:58.998Z</time></trkpt><trkpt lat="39.4445378106884" lon="16.095944033795842"><ele>972.0</ele><time>2026-04-27T08:33:59.998Z</time></trkpt><trkpt lat="39.44452534829486" lon="16.096043041857683"><ele>972.0</ele><time>2026-04-27T08:34:00.998Z</time></trkpt><trkpt lat="39.44453410550354" lon="16.09613319351294"><ele>973.2</ele><time>2026-04-27T08:34:01.998Z</time></trkpt><trkpt lat="39.444457447833116" lon="16.09625469666985"><ele>974.4000000000001</ele><time>2026-04-27T08:34:03.998Z</time></trkpt><trkpt lat="39.44437175170258" lon="16.096327883363685"><ele>975.5999999999999</ele><time>2026-04-27T08:34:04.998Z</time></trkpt><trkpt lat="39.444285931245524" lon="16.096384843703287"><ele>976.8</ele><time>2026-04-27T08:34:05.998Z</time></trkpt><trkpt lat="39.44420587928568" lon="16.096432681928363"><ele>978.0</ele><time>2026-04-27T08:34:06.998Z</time></trkpt><trkpt lat="39.44414761865342" lon="16.096466349888054"><ele>974.4</ele><time>2026-04-27T08:34:07.998Z</time></trkpt><trkpt lat="39.44409718310479" lon="16.09658777514715"><ele>970.8</ele><time>2026-04-27T08:34:09.998Z</time></trkpt><trkpt lat="39.44409584632931" lon="16.096678492554503"><ele>967.2</ele><time>2026-04-27T08:34:11Z</time></trkpt><trkpt lat="39.44404120241216" lon="16.096816515265346"><ele>963.6</ele><time>2026-04-27T08:34:13Z</time></trkpt><trkpt lat="39.44397090352616" lon="16.096906534681498"><ele>960.0</ele><time>2026-04-27T08:34:14Z</time></trkpt><trkpt lat="39.443877715713555" lon="16.097015952519563"><ele>960.0</ele><time>2026-04-27T08:34:15Z</time></trkpt><trkpt lat="39.443820624753556" lon="16.09716269460092"><ele>960.0</ele><time>2026-04-27T08:34:16Z</time></trkpt><trkpt lat="39.44377800941615" lon="16.097327141562744"><ele>960.0</ele><time>2026-04-27T08:34:17Z</time></trkpt><trkpt lat="39.44373346017046" lon="16.09747730970661"><ele>960.0</ele><time>2026-04-27T08:34:18Z</time></trkpt><trkpt lat="39.44367713327711" lon="16.09761392763085"><ele>962.6</ele><time>2026-04-27T08:34:19Z</time></trkpt><trkpt lat="39.44360878932771" lon="16.097728656253523"><ele>965.2</ele><time>2026-04-27T08:34:20Z</time></trkpt><trkpt lat="39.44354812091507" lon="16.097818509869434"><ele>967.8</ele><time>2026-04-27T08:34:21Z</time></trkpt><trkpt lat="39.44351722901888" lon="16.097927013389214"><ele>970.4</ele><time>2026-04-27T08:34:22Z</time></trkpt><trkpt lat="39.44351368686432" lon="16.098101191632626"><ele>973.0</ele><time>2026-04-27T08:34:23Z</time></trkpt><trkpt lat="39.443517699303015" lon="16.098331735786264"><ele>973.0</ele><time>2026-04-27T08:34:24Z</time></trkpt><trkpt lat="39.44351583740755" lon="16.098546245094724"><ele>973.0</ele><time>2026-04-27T08:34:25Z</time></trkpt><trkpt lat="39.44348912192541" lon="16.098713205874322"><ele>973.0</ele><time>2026-04-27T08:34:26Z</time></trkpt><trkpt lat="39.44342833046316" lon="16.098864757854603"><ele>973.0</ele><time>2026-04-27T08:34:27Z</time></trkpt><trkpt lat="39.44331658522792" lon="16.099007634136047"><ele>970.6666666666666</ele><time>2026-04-27T08:34:28Z</time></trkpt><trkpt lat="39.443165435068586" lon="16.09916625981048"><ele>968.3333333333333</ele><time>2026-04-27T08:34:29Z</time></trkpt><trkpt lat="39.44299201636151" lon="16.099336741322084"><ele>966.0</ele><time>2026-04-27T08:34:30Z</time></trkpt><trkpt lat="39.44282989548289" lon="16.099479075355998"><ele>970.75</ele><time>2026-04-27T08:34:31Z</time></trkpt><trkpt lat="39.442692020796805" lon="16.099586134489343"><ele>975.5</ele><time>2026-04-27T08:34:32Z</time></trkpt><trkpt lat="39.44256356836419" lon="16.0996721097092"><ele>980.25</ele><time>2026-04-27T08:34:33Z</time></trkpt><trkpt lat="39.442439022199494" lon="16.099736527359106"><ele>985.0</ele><time>2026-04-27T08:34:34Z</time></trkpt><trkpt lat="39.442302379097555" lon="16.09975448931586"><ele>985.0</ele><time>2026-04-27T08:34:35Z</time></trkpt><trkpt lat="39.44215878917119" lon="16.09971493453914"><ele>985.0</ele><time>2026-04-27T08:34:36Z</time></trkpt><trkpt lat="39.442023083551305" lon="16.0996455915735"><ele>985.0</ele><time>2026-04-27T08:34:37Z</time></trkpt><trkpt lat="39.44190804279095" lon="16.099564992188373"><ele>985.0</ele><time>2026-04-27T08:34:38Z</time></trkpt><trkpt lat="39.44182167873987" lon="16.099467497814466"><ele>986.5</ele><time>2026-04-27T08:34:39Z</time></trkpt><trkpt lat="39.441773091030484" lon="16.09932738852616"><ele>988.0</ele><time>2026-04-27T08:34:40Z</time></trkpt><trkpt lat="39.441737034559516" lon="16.099158554124447"><ele>989.5</ele><time>2026-04-27T08:34:41Z</time></trkpt><trkpt lat="39.441653471348026" lon="16.09902714680666"><ele>991.0</ele><time>2026-04-27T08:34:42Z</time></trkpt><trkpt lat="39.441518394236375" lon="16.09895574416783"><ele>998.6666666666666</ele><time>2026-04-27T08:34:43Z</time></trkpt><trkpt lat="39.44135952861927" lon="16.098925425637745"><ele>1006.3333333333333</ele><time>2026-04-27T08:34:44Z</time></trkpt><trkpt lat="39.44119533406192" lon="16.09891831432369"><ele>1014.0</ele><time>2026-04-27T08:34:45Z</time></trkpt><trkpt lat="39.44102200881671" lon="16.098901718272693"><ele>1014.0</ele><time>2026-04-27T08:34:45.999Z</time></trkpt><trkpt lat="39.44084739000477" lon="16.098868121300004"><ele>1014.0</ele><time>2026-04-27T08:34:46.999Z</time></trkpt><trkpt lat="39.440681941779914" lon="16.09884781096114"><ele>1014.0</ele><time>2026-04-27T08:34:47.999Z</time></trkpt><trkpt lat="39.44054422209928" lon="16.098814953141357"><ele>1012.25</ele><time>2026-04-27T08:34:48.999Z</time></trkpt><trkpt lat="39.44043992741962" lon="16.098726468729765"><ele>1010.5</ele><time>2026-04-27T08:34:49.999Z</time></trkpt><trkpt lat="39.44034711620518" lon="16.09859148280084"><ele>1008.75</ele><time>2026-04-27T08:34:50.999Z</time></trkpt><trkpt lat="39.44027644938496" lon="16.098395024031465"><ele>1007.0</ele><time>2026-04-27T08:34:51.999Z</time></trkpt><trkpt lat="39.440225041087174" lon="16.0981667324912"><ele>1007.0</ele><time>2026-04-27T08:34:52.999Z</time></trkpt><trkpt lat="39.440155304367856" lon="16.097947214079543"><ele>1007.0</ele><time>2026-04-27T08:34:53.999Z</time></trkpt><trkpt lat="39.440069642515525" lon="16.097764909267823"><ele>1007.0</ele><time>2026-04-27T08:34:54.999Z</time></trkpt><trkpt lat="39.44000548332066" lon="16.097585092520536"><ele>1009.3333333333334</ele><time>2026-04-27T08:34:55.999Z</time></trkpt><trkpt lat="39.439971985213" lon="16.097379897644103"><ele>1011.6666666666667</ele><time>2026-04-27T08:34:56.999Z</time></trkpt><trkpt lat="39.439973178708684" lon="16.097146093373006"><ele>1014.0</ele><time>2026-04-27T08:34:57.999Z</time></trkpt><trkpt lat="39.439997761563156" lon="16.096902308130606"><ele>1014.0</ele><time>2026-04-27T08:34:58.999Z</time></trkpt><trkpt lat="39.44001931544914" lon="16.096673277253245"><ele>1014.0</ele><time>2026-04-27T08:34:59.999Z</time></trkpt><trkpt lat="39.440011853518214" lon="16.096452103323283"><ele>1014.0</ele><time>2026-04-27T08:35:00.999Z</time></trkpt><trkpt lat="39.439963842037926" lon="16.096226301336998"><ele>1017.3333333333333</ele><time>2026-04-27T08:35:01.999Z</time></trkpt><trkpt lat="39.43989020365677" lon="16.095999351277502"><ele>1020.6666666666666</ele><time>2026-04-27T08:35:02.999Z</time></trkpt><trkpt lat="39.43982253232031" lon="16.095783114501028"><ele>1024.0</ele><time>2026-04-27T08:35:03.999Z</time></trkpt><trkpt lat="39.439779414947914" lon="16.095550381165136"><ele>1028.6666666666665</ele><time>2026-04-27T08:35:04.999Z</time></trkpt><trkpt lat="39.43970449281318" lon="16.09532439646618"><ele>1033.3333333333333</ele><time>2026-04-27T08:35:05.999Z</time></trkpt><trkpt lat="39.43962585413389" lon="16.095125406768712"><ele>1038.0</ele><time>2026-04-27T08:35:06.999Z</time></trkpt><trkpt lat="39.43957576023335" lon="16.094934316460726"><ele>1028.0</ele><time>2026-04-27T08:35:07.999Z</time></trkpt><trkpt lat="39.43956621169563" lon="16.094737617861412"><ele>1018.0</ele><time>2026-04-27T08:35:08.999Z</time></trkpt><trkpt lat="39.43957981247626" lon="16.094532026548844"><ele>1008.0</ele><time>2026-04-27T08:35:09.999Z</time></trkpt><trkpt lat="39.43961178612049" lon="16.094302185955126"><ele>1021.3333333333333</ele><time>2026-04-27T08:35:10.999Z</time></trkpt><trkpt lat="39.43965581111078" lon="16.09407365370048"><ele>1034.6666666666665</ele><time>2026-04-27T08:35:11.999Z</time></trkpt><trkpt lat="39.43969829169492" lon="16.09388016934751"><ele>1048.0</ele><time>2026-04-27T08:35:12.999Z</time></trkpt><trkpt lat="39.43974382342174" lon="16.093725328504675"><ele>1048.0</ele><time>2026-04-27T08:35:13.999Z</time></trkpt><trkpt lat="39.43977567290152" lon="16.093572743836756"><ele>1048.0</ele><time>2026-04-27T08:35:14.999Z</time></trkpt><trkpt lat="39.439766991728796" lon="16.09341315389335"><ele>1048.0</ele><time>2026-04-27T08:35:15.999Z</time></trkpt><trkpt lat="39.43970011360498" lon="16.09326939822697"><ele>1048.0</ele><time>2026-04-27T08:35:16.999Z</time></trkpt><trkpt lat="39.43959595120423" lon="16.093150590733877"><ele>1042.6666666666665</ele><time>2026-04-27T08:35:17.999Z</time></trkpt><trkpt lat="39.439505485462256" lon="16.092990556703906"><ele>1037.3333333333333</ele><time>2026-04-27T08:35:18.999Z</time></trkpt><trkpt lat="39.43944579648638" lon="16.09278306296242"><ele>1032.0</ele><time>2026-04-27T08:35:19.999Z</time></trkpt><trkpt lat="39.439382371928744" lon="16.092563313621103"><ele>1037.0</ele><time>2026-04-27T08:35:20.999Z</time></trkpt><trkpt lat="39.43929803417587" lon="16.09236852052023"><ele>1042.0</ele><time>2026-04-27T08:35:21.999Z</time></trkpt><trkpt lat="39.439214865607156" lon="16.092176786469494"><ele>1047.0</ele><time>2026-04-27T08:35:22.999Z</time></trkpt><trkpt lat="39.43916458254965" lon="16.09196816299309"><ele>1047.0</ele><time>2026-04-27T08:35:23.999Z</time></trkpt><trkpt lat="39.43912137449416" lon="16.091764049944718"><ele>1047.0</ele><time>2026-04-27T08:35:24.999Z</time></trkpt><trkpt lat="39.43908356874638" lon="16.091588060693994"><ele>1047.0</ele><time>2026-04-27T08:35:25.999Z</time></trkpt><trkpt lat="39.43909716708782" lon="16.091412990973893"><ele>1047.0</ele><time>2026-04-27T08:35:26.999Z</time></trkpt><trkpt lat="39.43906965542667" lon="16.09123012392661"><ele>1045.0</ele><time>2026-04-27T08:35:27.999Z</time></trkpt><trkpt lat="39.43898246296626" lon="16.09109736076585"><ele>1043.0</ele><time>2026-04-27T08:35:28.999Z</time></trkpt><trkpt lat="39.4388622325486" lon="16.09103417685943"><ele>1041.0</ele><time>2026-04-27T08:35:29.999Z</time></trkpt><trkpt lat="39.43874385459018" lon="16.091006381113903"><ele>1039.0</ele><time>2026-04-27T08:35:30.999Z</time></trkpt><trkpt lat="39.4386417044071" lon="16.090959128854227"><ele>1039.0</ele><time>2026-04-27T08:35:31.999Z</time></trkpt><trkpt lat="39.43854404322417" lon="16.090893358183756"><ele>1039.0</ele><time>2026-04-27T08:35:32.999Z</time></trkpt><trkpt lat="39.438444334017426" lon="16.09078369129321"><ele>1039.0</ele><time>2026-04-27T08:35:33.999Z</time></trkpt><trkpt lat="39.43834106270342" lon="16.090650699682993"><ele>1039.0</ele><time>2026-04-27T08:35:34.999Z</time></trkpt><trkpt lat="39.43823502764695" lon="16.090511652466066"><ele>1043.25</ele><time>2026-04-27T08:35:35.999Z</time></trkpt><trkpt lat="39.43810876389934" lon="16.090415855106666"><ele>1047.5</ele><time>2026-04-27T08:35:36.999Z</time></trkpt><trkpt lat="39.43797555921986" lon="16.090363337070542"><ele>1051.75</ele><time>2026-04-27T08:35:37.999Z</time></trkpt><trkpt lat="39.437825387437336" lon="16.090369208873003"><ele>1056.0</ele><time>2026-04-27T08:35:38.999Z</time></trkpt><trkpt lat="39.437689164899375" lon="16.09032217500001"><ele>1056.0</ele><time>2026-04-27T08:35:39.999Z</time></trkpt><trkpt lat="39.437579601510045" lon="16.090222409950286"><ele>1056.0</ele><time>2026-04-27T08:35:40.999Z</time></trkpt><trkpt lat="39.43747649721579" lon="16.09007011147827"><ele>1056.0</ele><time>2026-04-27T08:35:41.999Z</time></trkpt><trkpt lat="39.43735457597962" lon="16.08998082120828"><ele>1056.0</ele><time>2026-04-27T08:35:42.999Z</time></trkpt><trkpt lat="39.43722615210477" lon="16.08993963133628"><ele>1052.6666666666667</ele><time>2026-04-27T08:35:43.999Z</time></trkpt><trkpt lat="39.43706123690738" lon="16.089961905245055"><ele>1049.3333333333335</ele><time>2026-04-27T08:35:44.999Z</time></trkpt><trkpt lat="39.436898956507314" lon="16.089945454778118"><ele>1046.0</ele><time>2026-04-27T08:35:45.999Z</time></trkpt><trkpt lat="39.4367554028517" lon="16.0899242046221"><ele>1053.0</ele><time>2026-04-27T08:35:46.999Z</time></trkpt><trkpt lat="39.436627303695886" lon="16.08986867813351"><ele>1060.0</ele><time>2026-04-27T08:35:47.999Z</time></trkpt><trkpt lat="39.43654571096821" lon="16.089734506937983"><ele>1067.0</ele><time>2026-04-27T08:35:48.999Z</time></trkpt><trkpt lat="39.436459605545146" lon="16.08958472322812"><ele>1074.0</ele><time>2026-04-27T08:35:49.999Z</time></trkpt><trkpt lat="39.436386073939744" lon="16.08940820279397"><ele>1077.3333333333333</ele><time>2026-04-27T08:35:50.999Z</time></trkpt><trkpt lat="39.43627783739642" lon="16.08927214404437"><ele>1080.6666666666665</ele><time>2026-04-27T08:35:51.998Z</time></trkpt><trkpt lat="39.436151706295284" lon="16.08912671446978"><ele>1084.0</ele><time>2026-04-27T08:35:52.998Z</time></trkpt><trkpt lat="39.43599780868813" lon="16.088987647080064"><ele>1084.0</ele><time>2026-04-27T08:35:53.998Z</time></trkpt><trkpt lat="39.43583732328757" lon="16.088842077703713"><ele>1084.0</ele><time>2026-04-27T08:35:54.998Z</time></trkpt><trkpt lat="39.43567908660715" lon="16.088703847223822"><ele>1084.0</ele><time>2026-04-27T08:35:55.998Z</time></trkpt><trkpt lat="39.435538989655974" lon="16.088559180956512"><ele>1083.6666666666665</ele><time>2026-04-27T08:35:56.998Z</time></trkpt><trkpt lat="39.43540619844466" lon="16.088444408238175"><ele>1083.3333333333333</ele><time>2026-04-27T08:35:57.998Z</time></trkpt><trkpt lat="39.4352933381704" lon="16.088323996504364"><ele>1083.0</ele><time>2026-04-27T08:35:58.998Z</time></trkpt><trkpt lat="39.435193770678474" lon="16.088172739870206"><ele>1083.0</ele><time>2026-04-27T08:35:59.998Z</time></trkpt><trkpt lat="39.43515656153654" lon="16.08799970562188"><ele>1083.0</ele><time>2026-04-27T08:36:00.998Z</time></trkpt><trkpt lat="39.43516478314694" lon="16.087847161565147"><ele>1083.0</ele><time>2026-04-27T08:36:01.998Z</time></trkpt><trkpt lat="39.43520142651715" lon="16.08774066958818"><ele>1083.0</ele><time>2026-04-27T08:36:02.998Z</time></trkpt><trkpt lat="39.43528736005821" lon="16.087665322412324"><ele>1083.0</ele><time>2026-04-27T08:36:03.998Z</time></trkpt><trkpt lat="39.43535817427296" lon="16.08757932168732"><ele>1083.0</ele><time>2026-04-27T08:36:04.998Z</time></trkpt><trkpt lat="39.435426062680534" lon="16.087513140643495"><ele>1083.0</ele><time>2026-04-27T08:36:05.998Z</time></trkpt><trkpt lat="39.435460807959664" lon="16.087406010596766"><ele>1083.0</ele><time>2026-04-27T08:36:06.998Z</time></trkpt><trkpt lat="39.43545451603606" lon="16.087314255787415"><ele>1083.0</ele><time>2026-04-27T08:36:07.998Z</time></trkpt><trkpt lat="39.43541052855433" lon="16.0872356764222"><ele>1083.0</ele><time>2026-04-27T08:36:08.998Z</time></trkpt><trkpt lat="39.435334456548645" lon="16.08718327790093"><ele>1088.75</ele><time>2026-04-27T08:36:09.998Z</time></trkpt><trkpt lat="39.43525130461927" lon="16.08716613254632"><ele>1094.5</ele><time>2026-04-27T08:36:10.998Z</time></trkpt><trkpt lat="39.43513486465384" lon="16.087126132000485"><ele>1100.25</ele><time>2026-04-27T08:36:11.998Z</time></trkpt><trkpt lat="39.435012036107615" lon="16.087116038137406"><ele>1106.0</ele><time>2026-04-27T08:36:12.998Z</time></trkpt><trkpt lat="39.43488290009827" lon="16.08705931497561"><ele>1106.0</ele><time>2026-04-27T08:36:13.998Z</time></trkpt><trkpt lat="39.43474456460618" lon="16.086964722691437"><ele>1106.0</ele><time>2026-04-27T08:36:14.998Z</time></trkpt><trkpt lat="39.43463094261025" lon="16.086815951367953"><ele>1106.0</ele><time>2026-04-27T08:36:15.998Z</time></trkpt><trkpt lat="39.434511593046466" lon="16.086675795650525"><ele>1115.0</ele><time>2026-04-27T08:36:17Z</time></trkpt><trkpt lat="39.434383143863045" lon="16.086583384829844"><ele>1124.0</ele><time>2026-04-27T08:36:18Z</time></trkpt><trkpt lat="39.434248844254135" lon="16.0865081407842"><ele>1133.0</ele><time>2026-04-27T08:36:19Z</time></trkpt><trkpt lat="39.43409446264726" lon="16.086463983221062"><ele>1133.0</ele><time>2026-04-27T08:36:20Z</time></trkpt><trkpt lat="39.433939689681935" lon="16.0863892032163"><ele>1133.0</ele><time>2026-04-27T08:36:21Z</time></trkpt><trkpt lat="39.43379578139056" lon="16.08636025144039"><ele>1133.0</ele><time>2026-04-27T08:36:22Z</time></trkpt><trkpt lat="39.43367437921248" lon="16.086323286631984"><ele>1133.0</ele><time>2026-04-27T08:36:23Z</time></trkpt><trkpt lat="39.4335542262131" lon="16.08629689168231"><ele>1132.5</ele><time>2026-04-27T08:36:24Z</time></trkpt><trkpt lat="39.43342109138034" lon="16.08629886090482"><ele>1132.0</ele><time>2026-04-27T08:36:25Z</time></trkpt><trkpt lat="39.43330464505188" lon="16.086367004837843"><ele>1131.5</ele><time>2026-04-27T08:36:26Z</time></trkpt><trkpt lat="39.433195940986536" lon="16.086372246235094"><ele>1131.0</ele><time>2026-04-27T08:36:27Z</time></trkpt><trkpt lat="39.43307704630415" lon="16.08633098768956"><ele>1128.75</ele><time>2026-04-27T08:36:28Z</time></trkpt><trkpt lat="39.43294669937757" lon="16.086280562188296"><ele>1126.5</ele><time>2026-04-27T08:36:29Z</time></trkpt><trkpt lat="39.43282643138751" lon="16.086221490104535"><ele>1124.25</ele><time>2026-04-27T08:36:30Z</time></trkpt><trkpt lat="39.432729010345454" lon="16.086109266432977"><ele>1122.0</ele><time>2026-04-27T08:36:31Z</time></trkpt><trkpt lat="39.432624944648026" lon="16.085983380685192"><ele>1122.0</ele><time>2026-04-27T08:36:32Z</time></trkpt><trkpt lat="39.43250381382368" lon="16.08588420705339"><ele>1122.0</ele><time>2026-04-27T08:36:33Z</time></trkpt><trkpt lat="39.43234813855149" lon="16.085871180722524"><ele>1122.0</ele><time>2026-04-27T08:36:34Z</time></trkpt><trkpt lat="39.43220034075964" lon="16.085834231318675"><ele>1128.75</ele><time>2026-04-27T08:36:35Z</time></trkpt><trkpt lat="39.43209175130666" lon="16.085755315400185"><ele>1135.5</ele><time>2026-04-27T08:36:36Z</time></trkpt><trkpt lat="39.4319927218587" lon="16.08567200452585"><ele>1142.25</ele><time>2026-04-27T08:36:37Z</time></trkpt><trkpt lat="39.431877348985246" lon="16.085621396383196"><ele>1149.0</ele><time>2026-04-27T08:36:38Z</time></trkpt><trkpt lat="39.43172301446876" lon="16.085678325121044"><ele>1149.0</ele><time>2026-04-27T08:36:39Z</time></trkpt><trkpt lat="39.431558111341616" lon="16.085699250715013"><ele>1149.0</ele><time>2026-04-27T08:36:40Z</time></trkpt><trkpt lat="39.431367866082525" lon="16.08575080110352"><ele>1149.0</ele><time>2026-04-27T08:36:41Z</time></trkpt><trkpt lat="39.431180340142305" lon="16.085793448881184"><ele>1141.0</ele><time>2026-04-27T08:36:42Z</time></trkpt><trkpt lat="39.431002443311975" lon="16.08583607822262"><ele>1133.0</ele><time>2026-04-27T08:36:43Z</time></trkpt><trkpt lat="39.43084209118018" lon="16.08587562676924"><ele>1125.0</ele><time>2026-04-27T08:36:44Z</time></trkpt><trkpt lat="39.43072049537988" lon="16.08590449233649"><ele>1125.0</ele><time>2026-04-27T08:36:45Z</time></trkpt><trkpt lat="39.430610135846216" lon="16.0859225557183"><ele>1125.0</ele><time>2026-04-27T08:36:46Z</time></trkpt><trkpt lat="39.43051760518842" lon="16.085918315425303"><ele>1125.0</ele><time>2026-04-27T08:36:47Z</time></trkpt><trkpt lat="39.43042595446355" lon="16.085850355008965"><ele>1125.0</ele><time>2026-04-27T08:36:48Z</time></trkpt><trkpt lat="39.430317744258794" lon="16.085731508383397"><ele>1128.0</ele><time>2026-04-27T08:36:49Z</time></trkpt><trkpt lat="39.43021980234835" lon="16.085603021217075"><ele>1131.0</ele><time>2026-04-27T08:36:50Z</time></trkpt><trkpt lat="39.430129215357766" lon="16.085454341632847"><ele>1134.0</ele><time>2026-04-27T08:36:50.999Z</time></trkpt><trkpt lat="39.43004242663336" lon="16.08530543558304"><ele>1137.0</ele><time>2026-04-27T08:36:51.999Z</time></trkpt><trkpt lat="39.42994186213558" lon="16.085163427211075"><ele>1137.0</ele><time>2026-04-27T08:36:52.999Z</time></trkpt><trkpt lat="39.42985900676694" lon="16.085052294032167"><ele>1137.0</ele><time>2026-04-27T08:36:53.999Z</time></trkpt><trkpt lat="39.429794425033236" lon="16.084928647955305"><ele>1137.0</ele><time>2026-04-27T08:36:54.999Z</time></trkpt><trkpt lat="39.42970983719251" lon="16.084833344625725"><ele>1137.0</ele><time>2026-04-27T08:36:55.999Z</time></trkpt><trkpt lat="39.42957836298548" lon="16.084763863725733"><ele>1143.6666666666667</ele><time>2026-04-27T08:36:56.999Z</time></trkpt><trkpt lat="39.429419347046974" lon="16.084712085311068"><ele>1150.3333333333335</ele><time>2026-04-27T08:36:57.999Z</time></trkpt><trkpt lat="39.42925075552536" lon="16.084718782974992"><ele>1157.0</ele><time>2026-04-27T08:36:58.999Z</time></trkpt><trkpt lat="39.42907148191115" lon="16.084762681385367"><ele>1157.0</ele><time>2026-04-27T08:36:59.999Z</time></trkpt><trkpt lat="39.428910400869356" lon="16.08479401177352"><ele>1157.0</ele><time>2026-04-27T08:37:00.999Z</time></trkpt><trkpt lat="39.42876665843122" lon="16.08477993587864"><ele>1157.0</ele><time>2026-04-27T08:37:01.999Z</time></trkpt><trkpt lat="39.428594924393416" lon="16.084775042317567"><ele>1157.6666666666667</ele><time>2026-04-27T08:37:02.999Z</time></trkpt><trkpt lat="39.42839640686491" lon="16.0847913338309"><ele>1158.3333333333333</ele><time>2026-04-27T08:37:03.999Z</time></trkpt><trkpt lat="39.42820071952953" lon="16.08480629410722"><ele>1159.0</ele><time>2026-04-27T08:37:04.999Z</time></trkpt><trkpt lat="39.42801061019188" lon="16.084829642669213"><ele>1157.75</ele><time>2026-04-27T08:37:05.999Z</time></trkpt><trkpt lat="39.42784244234873" lon="16.08490769740417"><ele>1156.5</ele><time>2026-04-27T08:37:06.999Z</time></trkpt><trkpt lat="39.42770068862522" lon="16.084985430248143"><ele>1155.25</ele><time>2026-04-27T08:37:07.999Z</time></trkpt><trkpt lat="39.427598005147736" lon="16.08505650149002"><ele>1154.0</ele><time>2026-04-27T08:37:08.999Z</time></trkpt><trkpt lat="39.427507514573485" lon="16.085067504695388"><ele>1154.0</ele><time>2026-04-27T08:37:09.999Z</time></trkpt><trkpt lat="39.427402927604696" lon="16.08505375970895"><ele>1154.0</ele><time>2026-04-27T08:37:10.999Z</time></trkpt><trkpt lat="39.427305850545594" lon="16.085002139581952"><ele>1154.0</ele><time>2026-04-27T08:37:11.999Z</time></trkpt><trkpt lat="39.427226513329835" lon="16.08495209463018"><ele>1154.0</ele><time>2026-04-27T08:37:12.999Z</time></trkpt><trkpt lat="39.4271662155854" lon="16.084908820269316"><ele>1154.0</ele><time>2026-04-27T08:37:13.999Z</time></trkpt><trkpt lat="39.42708924708767" lon="16.084889660675547"><ele>1154.0</ele><time>2026-04-27T08:37:15.999Z</time></trkpt><trkpt lat="39.42704867360189" lon="16.084987461879653"><ele>1152.4</ele><time>2026-04-27T08:37:18.999Z</time></trkpt><trkpt lat="39.42694364252616" lon="16.08497444602209"><ele>1150.8000000000002</ele><time>2026-04-27T08:37:21.999Z</time></trkpt><trkpt lat="39.42684899394359" lon="16.08501927467284"><ele>1149.1999999999998</ele><time>2026-04-27T08:37:23.999Z</time></trkpt><trkpt lat="39.42677495954983" lon="16.08502285691186"><ele>1147.6</ele><time>2026-04-27T08:37:26.999Z</time></trkpt><trkpt lat="39.42669548945393" lon="16.085089110449495"><ele>1146.0</ele><time>2026-04-27T08:42:03.998Z</time></trkpt><trkpt lat="39.42678700998808" lon="16.085055256089166"><ele>1146.0</ele><time>2026-04-27T08:42:55.999Z</time></trkpt><trkpt lat="39.426711736629805" lon="16.08508997060748"><ele>1146.0</ele><time>2026-04-27T09:01:38Z</time></trkpt><trkpt lat="39.4266499034119" lon="16.085140918937757"><ele>1146.0</ele><time>2026-04-27T09:01:40Z</time></trkpt><trkpt lat="39.42657808628094" lon="16.0851940584908"><ele>1146.0</ele><time>2026-04-27T09:01:42Z</time></trkpt><trkpt lat="39.42647348046742" lon="16.08528006863847"><ele>1146.0</ele><time>2026-04-27T09:01:44Z</time></trkpt><trkpt lat="39.426396210906475" lon="16.085326252025432"><ele>1146.0</ele><time>2026-04-27T09:01:45Z</time></trkpt><trkpt lat="39.426318482751135" lon="16.085375493359617"><ele>1145.6</ele><time>2026-04-27T09:01:46Z</time></trkpt><trkpt lat="39.42622919108496" lon="16.08532841578318"><ele>1145.1999999999998</ele><time>2026-04-27T09:01:47Z</time></trkpt><trkpt lat="39.426144319197604" lon="16.08535723461607"><ele>1144.8000000000002</ele><time>2026-04-27T09:01:48Z</time></trkpt><trkpt lat="39.42604981093447" lon="16.085388767071276"><ele>1144.4</ele><time>2026-04-27T09:01:49Z</time></trkpt><trkpt lat="39.425950708804294" lon="16.085421594183202"><ele>1144.0</ele><time>2026-04-27T09:01:50Z</time></trkpt><trkpt lat="39.42582609971079" lon="16.085462559783164"><ele>1144.0</ele><time>2026-04-27T09:01:51Z</time></trkpt><trkpt lat="39.425714360627346" lon="16.085497806599932"><ele>1144.0</ele><time>2026-04-27T09:01:52Z</time></trkpt><trkpt lat="39.425607689204625" lon="16.0855470564632"><ele>1144.0</ele><time>2026-04-27T09:01:53Z</time></trkpt><trkpt lat="39.425494328286085" lon="16.08555944627222"><ele>1144.0</ele><time>2026-04-27T09:01:54Z</time></trkpt><trkpt lat="39.425388536742936" lon="16.08555337833664"><ele>1144.0</ele><time>2026-04-27T09:01:55Z</time></trkpt><trkpt lat="39.42527273304491" lon="16.08552485319232"><ele>1146.3333333333333</ele><time>2026-04-27T09:01:56Z</time></trkpt><trkpt lat="39.425177563429" lon="16.085495138286763"><ele>1148.6666666666665</ele><time>2026-04-27T09:01:57Z</time></trkpt><trkpt lat="39.42509859455772" lon="16.085457921069032"><ele>1151.0</ele><time>2026-04-27T09:01:58Z</time></trkpt><trkpt lat="39.42503918481669" lon="16.085410396857608"><ele>1153.3333333333333</ele><time>2026-04-27T09:01:58.999Z</time></trkpt><trkpt lat="39.424964250375105" lon="16.085388424404748"><ele>1155.6666666666667</ele><time>2026-04-27T09:01:59.999Z</time></trkpt><trkpt lat="39.424861717064765" lon="16.08537792395866"><ele>1158.0</ele><time>2026-04-27T09:02:00.999Z</time></trkpt><trkpt lat="39.42473960604018" lon="16.08544325245303"><ele>1158.0</ele><time>2026-04-27T09:02:01.999Z</time></trkpt><trkpt lat="39.42465690057114" lon="16.085515342467342"><ele>1158.0</ele><time>2026-04-27T09:02:02.999Z</time></trkpt><trkpt lat="39.424597381135335" lon="16.08557606680128"><ele>1158.0</ele><time>2026-04-27T09:02:03.999Z</time></trkpt><trkpt lat="39.424622396178925" lon="16.08575622540598"><ele>1158.0</ele><time>2026-04-27T09:02:04.999Z</time></trkpt><trkpt lat="39.42456373848717" lon="16.08583469511559"><ele>1158.0</ele><time>2026-04-27T09:02:05.999Z</time></trkpt><trkpt lat="39.42446492795828" lon="16.085910037766453"><ele>1159.0</ele><time>2026-04-27T09:02:06.999Z</time></trkpt><trkpt lat="39.42435822786851" lon="16.085959659533366"><ele>1160.0</ele><time>2026-04-27T09:02:07.999Z</time></trkpt><trkpt lat="39.42424902136931" lon="16.085997856384015"><ele>1161.0</ele><time>2026-04-27T09:02:08.999Z</time></trkpt><trkpt lat="39.42412766525157" lon="16.086039142054094"><ele>1162.0</ele><time>2026-04-27T09:02:09.999Z</time></trkpt><trkpt lat="39.42402599929522" lon="16.086086876460556"><ele>1162.0</ele><time>2026-04-27T09:02:10.999Z</time></trkpt><trkpt lat="39.42391358033436" lon="16.08615054351489"><ele>1162.0</ele><time>2026-04-27T09:02:11.999Z</time></trkpt><trkpt lat="39.42378885487791" lon="16.086241152850807"><ele>1162.0</ele><time>2026-04-27T09:02:12.999Z</time></trkpt><trkpt lat="39.42365997682427" lon="16.086289838009062"><ele>1162.0</ele><time>2026-04-27T09:02:13.999Z</time></trkpt><trkpt lat="39.42352917535391" lon="16.0863391987527"><ele>1159.4</ele><time>2026-04-27T09:02:14.999Z</time></trkpt><trkpt lat="39.42340378314631" lon="16.086438561910157"><ele>1156.8000000000002</ele><time>2026-04-27T09:02:15.999Z</time></trkpt><trkpt lat="39.42330728940494" lon="16.086528974411106"><ele>1154.2</ele><time>2026-04-27T09:02:16.999Z</time></trkpt><trkpt lat="39.42322323273077" lon="16.086593747323423"><ele>1151.6000000000001</ele><time>2026-04-27T09:02:17.999Z</time></trkpt><trkpt lat="39.42315551081735" lon="16.086617567027602"><ele>1149.0</ele><time>2026-04-27T09:02:18.999Z</time></trkpt><trkpt lat="39.42307787407604" lon="16.086636826207634"><ele>1150.4</ele><time>2026-04-27T09:02:19.999Z</time></trkpt><trkpt lat="39.422965052573" lon="16.086661251410128"><ele>1151.8000000000002</ele><time>2026-04-27T09:02:20.999Z</time></trkpt><trkpt lat="39.42284598342339" lon="16.08668417815831"><ele>1153.1999999999998</ele><time>2026-04-27T09:02:21.999Z</time></trkpt><trkpt lat="39.422751935653444" lon="16.086689718813933"><ele>1154.6</ele><time>2026-04-27T09:02:22.999Z</time></trkpt><trkpt lat="39.42267328860815" lon="16.086678290564876"><ele>1156.0</ele><time>2026-04-27T09:02:23.999Z</time></trkpt><trkpt lat="39.42259821967721" lon="16.08663982155822"><ele>1156.0</ele><time>2026-04-27T09:02:24.999Z</time></trkpt><trkpt lat="39.42250413781138" lon="16.08660755584032"><ele>1156.0</ele><time>2026-04-27T09:02:25.999Z</time></trkpt><trkpt lat="39.422387421663856" lon="16.08658604866314"><ele>1156.0</ele><time>2026-04-27T09:02:26.999Z</time></trkpt><trkpt lat="39.42229344978926" lon="16.086588510752335"><ele>1156.0</ele><time>2026-04-27T09:02:27.999Z</time></trkpt><trkpt lat="39.42222515335276" lon="16.086598374816578"><ele>1156.0</ele><time>2026-04-27T09:02:28.999Z</time></trkpt><trkpt lat="39.42215494245485" lon="16.08663400425378"><ele>1157.6666666666665</ele><time>2026-04-27T09:02:29.999Z</time></trkpt><trkpt lat="39.42208036057342" lon="16.08666924811591"><ele>1159.3333333333333</ele><time>2026-04-27T09:02:30.999Z</time></trkpt><trkpt lat="39.42199825222802" lon="16.08671148978208"><ele>1161.0</ele><time>2026-04-27T09:02:31.999Z</time></trkpt><trkpt lat="39.421922708217764" lon="16.08673230226174"><ele>1162.6666666666667</ele><time>2026-04-27T09:02:32.999Z</time></trkpt><trkpt lat="39.42185872259325" lon="16.086724518867534"><ele>1164.3333333333335</ele><time>2026-04-27T09:02:33.999Z</time></trkpt><trkpt lat="39.4217801546213" lon="16.086716956689408"><ele>1166.0</ele><time>2026-04-27T09:02:34.999Z</time></trkpt><trkpt lat="39.421664015058994" lon="16.08670449404071"><ele>1166.0</ele><time>2026-04-27T09:02:35.999Z</time></trkpt><trkpt lat="39.42153687892671" lon="16.08668950040156"><ele>1166.0</ele><time>2026-04-27T09:02:36.999Z</time></trkpt><trkpt lat="39.421410255690546" lon="16.086691870618903"><ele>1166.0</ele><time>2026-04-27T09:02:37.999Z</time></trkpt><trkpt lat="39.42130896259018" lon="16.086739642648613"><ele>1166.0</ele><time>2026-04-27T09:02:38.999Z</time></trkpt><trkpt lat="39.42121514281354" lon="16.086748347553684"><ele>1166.5</ele><time>2026-04-27T09:02:39.999Z</time></trkpt><trkpt lat="39.421103220805996" lon="16.086752679957005"><ele>1167.0</ele><time>2026-04-27T09:02:40.999Z</time></trkpt><trkpt lat="39.42097796208482" lon="16.086755076390453"><ele>1167.5</ele><time>2026-04-27T09:02:41.999Z</time></trkpt><trkpt lat="39.420823509890866" lon="16.08675800542982"><ele>1168.0</ele><time>2026-04-27T09:02:42.999Z</time></trkpt><trkpt lat="39.42066475248095" lon="16.086765933536952"><ele>1168.0</ele><time>2026-04-27T09:02:43.999Z</time></trkpt><trkpt lat="39.42052723736712" lon="16.086781794558668"><ele>1168.0</ele><time>2026-04-27T09:02:44.999Z</time></trkpt><trkpt lat="39.42040450172179" lon="16.086777720213888"><ele>1168.0</ele><time>2026-04-27T09:02:45.999Z</time></trkpt><trkpt lat="39.4202926412424" lon="16.086770291392387"><ele>1168.0</ele><time>2026-04-27T09:02:46.999Z</time></trkpt><trkpt lat="39.420185458415006" lon="16.086762221583886"><ele>1169.5</ele><time>2026-04-27T09:02:47.999Z</time></trkpt><trkpt lat="39.420078404773434" lon="16.08675812031813"><ele>1171.0</ele><time>2026-04-27T09:02:48.999Z</time></trkpt><trkpt lat="39.41996483474858" lon="16.086776323249026"><ele>1172.5</ele><time>2026-04-27T09:02:49.999Z</time></trkpt><trkpt lat="39.41985173479201" lon="16.086796286547905"><ele>1174.0</ele><time>2026-04-27T09:02:50.999Z</time></trkpt><trkpt lat="39.419735526808395" lon="16.086817545252266"><ele>1176.2</ele><time>2026-04-27T09:02:51.999Z</time></trkpt><trkpt lat="39.4196104817951" lon="16.086849092646055"><ele>1178.4</ele><time>2026-04-27T09:02:52.999Z</time></trkpt><trkpt lat="39.419493055849195" lon="16.086901460394667"><ele>1180.6</ele><time>2026-04-27T09:02:53.999Z</time></trkpt><trkpt lat="39.41939171675512" lon="16.086948181050726"><ele>1182.8</ele><time>2026-04-27T09:02:54.999Z</time></trkpt><trkpt lat="39.41931823969561" lon="16.08696903133621"><ele>1185.0</ele><time>2026-04-27T09:02:55.999Z</time></trkpt><trkpt lat="39.41924566760425" lon="16.08696816535043"><ele>1185.0</ele><time>2026-04-27T09:02:56.999Z</time></trkpt><trkpt lat="39.41916285031549" lon="16.086930170453083"><ele>1185.0</ele><time>2026-04-27T09:02:57.999Z</time></trkpt><trkpt lat="39.41906479791851" lon="16.086925869087313"><ele>1185.0</ele><time>2026-04-27T09:02:58.999Z</time></trkpt><trkpt lat="39.418953782752915" lon="16.08692115123247"><ele>1185.0</ele><time>2026-04-27T09:02:59.999Z</time></trkpt><trkpt lat="39.418835825538736" lon="16.086921720365275"><ele>1185.0</ele><time>2026-04-27T09:03:00.999Z</time></trkpt><trkpt lat="39.41870720643355" lon="16.086941851259986"><ele>1184.75</ele><time>2026-04-27T09:03:01.999Z</time></trkpt><trkpt lat="39.418605708278385" lon="16.086972826892993"><ele>1184.5</ele><time>2026-04-27T09:03:02.999Z</time></trkpt><trkpt lat="39.4185050200935" lon="16.087012282691987"><ele>1184.25</ele><time>2026-04-27T09:03:03.999Z</time></trkpt><trkpt lat="39.41838907564961" lon="16.087067731454276"><ele>1184.0</ele><time>2026-04-27T09:03:04.999Z</time></trkpt><trkpt lat="39.41824468508442" lon="16.087150595039596"><ele>1184.0</ele><time>2026-04-27T09:03:05.999Z</time></trkpt><trkpt lat="39.418119179074374" lon="16.087227589285394"><ele>1184.0</ele><time>2026-04-27T09:03:06.999Z</time></trkpt><trkpt lat="39.41800185266159" lon="16.087299565628594"><ele>1184.0</ele><time>2026-04-27T09:03:07.999Z</time></trkpt><trkpt lat="39.41789437551735" lon="16.08736527964067"><ele>1184.0</ele><time>2026-04-27T09:03:08.998Z</time></trkpt><trkpt lat="39.417792759614244" lon="16.08741688285884"><ele>1182.2</ele><time>2026-04-27T09:03:09.998Z</time></trkpt><trkpt lat="39.41768931924357" lon="16.087447983304415"><ele>1180.4</ele><time>2026-04-27T09:03:10.998Z</time></trkpt><trkpt lat="39.41758102569283" lon="16.08745823170031"><ele>1178.6</ele><time>2026-04-27T09:03:11.998Z</time></trkpt><trkpt lat="39.417475182427864" lon="16.087474604454467"><ele>1176.8</ele><time>2026-04-27T09:03:12.998Z</time></trkpt><trkpt lat="39.41739227819727" lon="16.087504242961963"><ele>1175.0</ele><time>2026-04-27T09:03:13.998Z</time></trkpt><trkpt lat="39.417313541788644" lon="16.087538330613654"><ele>1175.0</ele><time>2026-04-27T09:03:14.998Z</time></trkpt><trkpt lat="39.4172349787552" lon="16.087597882472767"><ele>1175.0</ele><time>2026-04-27T09:03:15.998Z</time></trkpt><trkpt lat="39.41715728203233" lon="16.087639167051794"><ele>1175.0</ele><time>2026-04-27T09:03:16.998Z</time></trkpt><trkpt lat="39.417093957216736" lon="16.087699971366266"><ele>1175.0</ele><time>2026-04-27T09:03:17.998Z</time></trkpt><trkpt lat="39.41702867752251" lon="16.087760134360014"><ele>1175.0</ele><time>2026-04-27T09:03:18.998Z</time></trkpt><trkpt lat="39.41696006494288" lon="16.087822372009207"><ele>1175.0</ele><time>2026-04-27T09:03:19.998Z</time></trkpt><trkpt lat="39.41689783312079" lon="16.087870702694378"><ele>1175.0</ele><time>2026-04-27T09:03:20.998Z</time></trkpt><trkpt lat="39.416821070157795" lon="16.08791469190538"><ele>1175.0</ele><time>2026-04-27T09:03:21.998Z</time></trkpt><trkpt lat="39.41673814188103" lon="16.087894448941867"><ele>1175.0</ele><time>2026-04-27T09:03:22.998Z</time></trkpt><trkpt lat="39.416646925442514" lon="16.087916773689194"><ele>1175.0</ele><time>2026-04-27T09:03:23.998Z</time></trkpt><trkpt lat="39.416502097921004" lon="16.087909614698365"><ele>1175.0</ele><time>2026-04-27T09:03:24.998Z</time></trkpt><trkpt lat="39.41638341497373" lon="16.08791613023553"><ele>1176.4</ele><time>2026-04-27T09:03:25.998Z</time></trkpt><trkpt lat="39.41625785952072" lon="16.087928511978973"><ele>1177.8</ele><time>2026-04-27T09:03:26.998Z</time></trkpt><trkpt lat="39.416159690276125" lon="16.08794674656444"><ele>1179.2</ele><time>2026-04-27T09:03:27.998Z</time></trkpt><trkpt lat="39.4160684470405" lon="16.087955639105303"><ele>1180.6</ele><time>2026-04-27T09:03:28.998Z</time></trkpt><trkpt lat="39.41599971076569" lon="16.088017693844453"><ele>1182.0</ele><time>2026-04-27T09:03:29.998Z</time></trkpt><trkpt lat="39.41592689523859" lon="16.08809832778654"><ele>1182.0</ele><time>2026-04-27T09:03:30.998Z</time></trkpt><trkpt lat="39.41583332868674" lon="16.08817766248597"><ele>1182.0</ele><time>2026-04-27T09:03:31.998Z</time></trkpt><trkpt lat="39.41575641636095" lon="16.088226250032424"><ele>1182.0</ele><time>2026-04-27T09:03:33Z</time></trkpt><trkpt lat="39.41565761662133" lon="16.088235802971198"><ele>1182.0</ele><time>2026-04-27T09:03:34Z</time></trkpt><trkpt lat="39.41552279823565" lon="16.088275416634065"><ele>1182.0</ele><time>2026-04-27T09:03:35Z</time></trkpt><trkpt lat="39.41539703186031" lon="16.088355948560537"><ele>1181.8333333333333</ele><time>2026-04-27T09:03:36Z</time></trkpt><trkpt lat="39.4153008076589" lon="16.088398785386666"><ele>1181.6666666666667</ele><time>2026-04-27T09:03:37Z</time></trkpt><trkpt lat="39.415220614319374" lon="16.08839465868158"><ele>1181.5</ele><time>2026-04-27T09:03:38Z</time></trkpt><trkpt lat="39.41515744752586" lon="16.08837152521349"><ele>1181.3333333333335</ele><time>2026-04-27T09:03:39Z</time></trkpt><trkpt lat="39.41507693856087" lon="16.088313640266197"><ele>1181.1666666666667</ele><time>2026-04-27T09:03:40Z</time></trkpt><trkpt lat="39.4150114649869" lon="16.088247981540338"><ele>1181.0</ele><time>2026-04-27T09:03:41Z</time></trkpt><trkpt lat="39.41495585312963" lon="16.088160444784194"><ele>1181.0</ele><time>2026-04-27T09:03:42Z</time></trkpt><trkpt lat="39.414876004478764" lon="16.08803408624265"><ele>1181.0</ele><time>2026-04-27T09:03:43Z</time></trkpt><trkpt lat="39.41477921753707" lon="16.087932878246846"><ele>1181.0</ele><time>2026-04-27T09:03:44Z</time></trkpt><trkpt lat="39.41468550606645" lon="16.087864822246285"><ele>1181.0</ele><time>2026-04-27T09:03:45Z</time></trkpt><trkpt lat="39.41457661776983" lon="16.08782607396933"><ele>1180.8</ele><time>2026-04-27T09:03:46Z</time></trkpt><trkpt lat="39.41446923876964" lon="16.087809842885722"><ele>1180.6</ele><time>2026-04-27T09:03:47Z</time></trkpt><trkpt lat="39.414348833587276" lon="16.087840658516352"><ele>1180.4</ele><time>2026-04-27T09:03:48Z</time></trkpt><trkpt lat="39.41424034239266" lon="16.087829495412908"><ele>1180.2</ele><time>2026-04-27T09:03:49Z</time></trkpt><trkpt lat="39.41414656853266" lon="16.087871675579965"><ele>1180.0</ele><time>2026-04-27T09:03:50Z</time></trkpt><trkpt lat="39.4140429618614" lon="16.087921272630485"><ele>1180.0</ele><time>2026-04-27T09:03:51Z</time></trkpt><trkpt lat="39.41392797872357" lon="16.088012636280162"><ele>1180.0</ele><time>2026-04-27T09:03:52Z</time></trkpt><trkpt lat="39.41380108539674" lon="16.088087509813796"><ele>1180.0</ele><time>2026-04-27T09:03:53Z</time></trkpt><trkpt lat="39.413702759273434" lon="16.088118855518413"><ele>1180.0</ele><time>2026-04-27T09:03:54Z</time></trkpt><trkpt lat="39.41361669684971" lon="16.088106084561943"><ele>1181.0</ele><time>2026-04-27T09:03:55Z</time></trkpt><trkpt lat="39.41351300275925" lon="16.088101220573233"><ele>1182.0</ele><time>2026-04-27T09:03:56Z</time></trkpt><trkpt lat="39.41339374735506" lon="16.08809903703635"><ele>1183.0</ele><time>2026-04-27T09:03:57Z</time></trkpt><trkpt lat="39.41324483290192" lon="16.08810005350597"><ele>1184.0</ele><time>2026-04-27T09:03:58Z</time></trkpt><trkpt lat="39.413086502243715" lon="16.08812562399416"><ele>1184.75</ele><time>2026-04-27T09:03:59Z</time></trkpt><trkpt lat="39.412945565649395" lon="16.08817881922196"><ele>1185.5</ele><time>2026-04-27T09:04:00Z</time></trkpt><trkpt lat="39.41282831199457" lon="16.088232231211983"><ele>1186.25</ele><time>2026-04-27T09:04:01Z</time></trkpt><trkpt lat="39.41271663344056" lon="16.088277918301188"><ele>1187.0</ele><time>2026-04-27T09:04:02Z</time></trkpt><trkpt lat="39.4125988179335" lon="16.08832446800822"><ele>1184.75</ele><time>2026-04-27T09:04:03Z</time></trkpt><trkpt lat="39.412468971138445" lon="16.08839406311487"><ele>1182.5</ele><time>2026-04-27T09:04:03.999Z</time></trkpt><trkpt lat="39.41233313534983" lon="16.088434661548668"><ele>1180.25</ele><time>2026-04-27T09:04:04.999Z</time></trkpt><trkpt lat="39.4122029371101" lon="16.088494927304946"><ele>1178.0</ele><time>2026-04-27T09:04:05.999Z</time></trkpt><trkpt lat="39.41207430529279" lon="16.08855742037357"><ele>1178.0</ele><time>2026-04-27T09:04:06.999Z</time></trkpt><trkpt lat="39.411944720650396" lon="16.08862437011402"><ele>1178.0</ele><time>2026-04-27T09:04:07.999Z</time></trkpt><trkpt lat="39.41181426945802" lon="16.088652915300788"><ele>1178.0</ele><time>2026-04-27T09:04:08.999Z</time></trkpt><trkpt lat="39.41164753283809" lon="16.088705681427815"><ele>1178.0</ele><time>2026-04-27T09:04:09.999Z</time></trkpt><trkpt lat="39.41149296568976" lon="16.088746705971694"><ele>1178.0</ele><time>2026-04-27T09:04:10.999Z</time></trkpt><trkpt lat="39.41134291653486" lon="16.08878680302093"><ele>1178.0</ele><time>2026-04-27T09:04:11.999Z</time></trkpt><trkpt lat="39.411182892183504" lon="16.08885258119308"><ele>1178.0</ele><time>2026-04-27T09:04:12.999Z</time></trkpt><trkpt lat="39.41103909621588" lon="16.08888208100388"><ele>1180.75</ele><time>2026-04-27T09:04:13.999Z</time></trkpt><trkpt lat="39.41090839194318" lon="16.08892197400106"><ele>1183.5</ele><time>2026-04-27T09:04:14.999Z</time></trkpt><trkpt lat="39.41077287682125" lon="16.088972810651235"><ele>1186.25</ele><time>2026-04-27T09:04:15.999Z</time></trkpt><trkpt lat="39.410629778560995" lon="16.089037240190027"><ele>1189.0</ele><time>2026-04-27T09:04:16.999Z</time></trkpt><trkpt lat="39.410494853979344" lon="16.089081424117815"><ele>1182.75</ele><time>2026-04-27T09:04:17.999Z</time></trkpt><trkpt lat="39.41037095105107" lon="16.08914053025676"><ele>1176.5</ele><time>2026-04-27T09:04:18.999Z</time></trkpt><trkpt lat="39.41024243216193" lon="16.08919267367626"><ele>1170.25</ele><time>2026-04-27T09:04:19.999Z</time></trkpt><trkpt lat="39.41010414020313" lon="16.089228369531494"><ele>1164.0</ele><time>2026-04-27T09:04:20.999Z</time></trkpt><trkpt lat="39.409957249971825" lon="16.08925770524541"><ele>1164.0</ele><time>2026-04-27T09:04:21.999Z</time></trkpt><trkpt lat="39.409820458549675" lon="16.089291301883645"><ele>1164.0</ele><time>2026-04-27T09:04:22.999Z</time></trkpt><trkpt lat="39.4096877730611" lon="16.089342729285462"><ele>1164.0</ele><time>2026-04-27T09:04:23.999Z</time></trkpt><trkpt lat="39.40955298414155" lon="16.089408746713456"><ele>1164.0</ele><time>2026-04-27T09:04:24.999Z</time></trkpt><trkpt lat="39.40943132367912" lon="16.089488938507444"><ele>1163.0</ele><time>2026-04-27T09:04:25.999Z</time></trkpt><trkpt lat="39.409338106454584" lon="16.089556351597416"><ele>1162.0</ele><time>2026-04-27T09:04:26.999Z</time></trkpt><trkpt lat="39.409260089689816" lon="16.089621626106478"><ele>1161.0</ele><time>2026-04-27T09:04:27.999Z</time></trkpt><trkpt lat="39.40919850854047" lon="16.08967660766977"><ele>1160.0</ele><time>2026-04-27T09:04:28.999Z</time></trkpt><trkpt lat="39.409145792952344" lon="16.089747314609735"><ele>1159.0</ele><time>2026-04-27T09:04:29.999Z</time></trkpt><trkpt lat="39.40909949717984" lon="16.089820162140477"><ele>1158.0</ele><time>2026-04-27T09:04:30.999Z</time></trkpt><trkpt lat="39.40909807257351" lon="16.089933692086788"><ele>1154.2</ele><time>2026-04-27T09:04:31.999Z</time></trkpt><trkpt lat="39.409135020890595" lon="16.09002842033506"><ele>1150.4</ele><time>2026-04-27T09:04:32.999Z</time></trkpt><trkpt lat="39.409158502248474" lon="16.090144118435813"><ele>1146.6000000000001</ele><time>2026-04-27T09:04:34.999Z</time></trkpt><trkpt lat="39.40908697426841" lon="16.090175903313803"><ele>1142.8</ele><time>2026-04-27T09:04:36.999Z</time></trkpt><trkpt lat="39.409023953589916" lon="16.090109916403186"><ele>1139.0</ele><time>2026-04-27T09:04:38.999Z</time></trkpt><trkpt lat="39.408916349376334" lon="16.0899652072133"><ele>1142.0</ele><time>2026-04-27T09:04:40.999Z</time></trkpt><trkpt lat="39.40883861835648" lon="16.08983476887344"><ele>1145.0</ele><time>2026-04-27T09:04:41.999Z</time></trkpt><trkpt lat="39.40874134809945" lon="16.089718992293164"><ele>1148.0</ele><time>2026-04-27T09:04:42.999Z</time></trkpt><trkpt lat="39.408625879383585" lon="16.08961027063502"><ele>1151.0</ele><time>2026-04-27T09:04:43.999Z</time></trkpt><trkpt lat="39.40850717906308" lon="16.08950685686666"><ele>1151.0</ele><time>2026-04-27T09:04:44.999Z</time></trkpt><trkpt lat="39.40840041534497" lon="16.089413814292786"><ele>1151.0</ele><time>2026-04-27T09:04:45.999Z</time></trkpt><trkpt lat="39.408309087331084" lon="16.08932289179028"><ele>1151.0</ele><time>2026-04-27T09:04:46.999Z</time></trkpt><trkpt lat="39.408220154725214" lon="16.08927320126971"><ele>1151.0</ele><time>2026-04-27T09:04:47.999Z</time></trkpt><trkpt lat="39.408139702678326" lon="16.08925870278785"><ele>1151.0</ele><time>2026-04-27T09:04:48.999Z</time></trkpt><trkpt lat="39.40803981974479" lon="16.089349291388924"><ele>1150.2</ele><time>2026-04-27T09:04:49.999Z</time></trkpt><trkpt lat="39.40793486363688" lon="16.08937002599456"><ele>1149.3999999999999</ele><time>2026-04-27T09:04:50.999Z</time></trkpt><trkpt lat="39.40784519302108" lon="16.08936552320219"><ele>1148.6</ele><time>2026-04-27T09:04:51.999Z</time></trkpt><trkpt lat="39.40774075258867" lon="16.089348814461637"><ele>1147.8</ele><time>2026-04-27T09:04:52.999Z</time></trkpt><trkpt lat="39.407607308926195" lon="16.089371417130064"><ele>1147.0</ele><time>2026-04-27T09:04:53.999Z</time></trkpt><trkpt lat="39.407464087896855" lon="16.089379285023266"><ele>1147.0</ele><time>2026-04-27T09:04:54.999Z</time></trkpt><trkpt lat="39.40734433321273" lon="16.08934184583267"><ele>1147.0</ele><time>2026-04-27T09:04:55.999Z</time></trkpt><trkpt lat="39.40723012825653" lon="16.08927775420942"><ele>1147.0</ele><time>2026-04-27T09:04:56.999Z</time></trkpt><trkpt lat="39.40710593459049" lon="16.08921095341367"><ele>1147.0</ele><time>2026-04-27T09:04:57.999Z</time></trkpt><trkpt lat="39.4069706333748" lon="16.08913554227086"><ele>1155.6666666666665</ele><time>2026-04-27T09:04:58.999Z</time></trkpt><trkpt lat="39.406822919779586" lon="16.089046930807136"><ele>1164.3333333333333</ele><time>2026-04-27T09:04:59.999Z</time></trkpt><trkpt lat="39.406688327131526" lon="16.088963613358732"><ele>1173.0</ele><time>2026-04-27T09:05:00.999Z</time></trkpt><trkpt lat="39.40655286551972" lon="16.088905891979117"><ele>1173.0</ele><time>2026-04-27T09:05:01.999Z</time></trkpt><trkpt lat="39.40642755796613" lon="16.088900887985787"><ele>1173.0</ele><time>2026-04-27T09:05:02.999Z</time></trkpt><trkpt lat="39.40631464271384" lon="16.088866361234317"><ele>1173.0</ele><time>2026-04-27T09:05:03.999Z</time></trkpt><trkpt lat="39.40621405064736" lon="16.088823539897753"><ele>1173.0</ele><time>2026-04-27T09:05:04.999Z</time></trkpt><trkpt lat="39.406094752170645" lon="16.088735520490538"><ele>1168.5</ele><time>2026-04-27T09:05:05.999Z</time></trkpt><trkpt lat="39.40596605488145" lon="16.088641914922245"><ele>1164.0</ele><time>2026-04-27T09:05:06.999Z</time></trkpt><trkpt lat="39.405840623101824" lon="16.088545978215304"><ele>1159.5</ele><time>2026-04-27T09:05:07.999Z</time></trkpt><trkpt lat="39.405729219650446" lon="16.08845447977752"><ele>1155.0</ele><time>2026-04-27T09:05:08.999Z</time></trkpt><trkpt lat="39.40562532395922" lon="16.088361100310035"><ele>1155.0</ele><time>2026-04-27T09:05:09.999Z</time></trkpt><trkpt lat="39.40553778450989" lon="16.08828572162641"><ele>1155.0</ele><time>2026-04-27T09:05:10.999Z</time></trkpt><trkpt lat="39.40544290465697" lon="16.088218572632023"><ele>1155.0</ele><time>2026-04-27T09:05:11.999Z</time></trkpt><trkpt lat="39.40533841881342" lon="16.08819007861269"><ele>1155.0</ele><time>2026-04-27T09:05:12.999Z</time></trkpt><trkpt lat="39.40523175428915" lon="16.088209107188888"><ele>1155.0</ele><time>2026-04-27T09:05:13.998Z</time></trkpt><trkpt lat="39.40512029397553" lon="16.088232139842713"><ele>1154.6</ele><time>2026-04-27T09:05:14.998Z</time></trkpt><trkpt lat="39.40503052151814" lon="16.088255031778885"><ele>1154.2</ele><time>2026-04-27T09:05:15.998Z</time></trkpt><trkpt lat="39.4049253581847" lon="16.088297078845144"><ele>1153.8</ele><time>2026-04-27T09:05:16.998Z</time></trkpt><trkpt lat="39.40481866607254" lon="16.08831616444574"><ele>1153.4</ele><time>2026-04-27T09:05:17.998Z</time></trkpt><trkpt lat="39.40473145622225" lon="16.088333168179695"><ele>1153.0</ele><time>2026-04-27T09:05:18.998Z</time></trkpt><trkpt lat="39.404646539314726" lon="16.088339800650942"><ele>1153.0</ele><time>2026-04-27T09:05:19.998Z</time></trkpt><trkpt lat="39.40456522939601" lon="16.088322926862027"><ele>1153.0</ele><time>2026-04-27T09:05:20.998Z</time></trkpt><trkpt lat="39.4045096470297" lon="16.088275221680135"><ele>1153.0</ele><time>2026-04-27T09:05:21.998Z</time></trkpt><trkpt lat="39.404431225744695" lon="16.08821018782999"><ele>1153.0</ele><time>2026-04-27T09:05:22.998Z</time></trkpt><trkpt lat="39.40432315152814" lon="16.08816386728391"><ele>1153.0</ele><time>2026-04-27T09:05:23.998Z</time></trkpt><trkpt lat="39.40419759979934" lon="16.088205433442468"><ele>1153.0</ele><time>2026-04-27T09:05:25.998Z</time></trkpt><trkpt lat="39.40416161351644" lon="16.088325436514257"><ele>1153.0</ele><time>2026-04-27T09:05:26.998Z</time></trkpt><trkpt lat="39.40412758110228" lon="16.0884298354187"><ele>1153.0</ele><time>2026-04-27T09:05:27.998Z</time></trkpt><trkpt lat="39.40409897122924" lon="16.088570478662163"><ele>1153.0</ele><time>2026-04-27T09:05:28.998Z</time></trkpt><trkpt lat="39.404037286496326" lon="16.088718253316706"><ele>1153.0</ele><time>2026-04-27T09:05:29.998Z</time></trkpt><trkpt lat="39.40399737738527" lon="16.0888343645151"><ele>1153.0</ele><time>2026-04-27T09:05:30.998Z</time></trkpt><trkpt lat="39.4039573028384" lon="16.088923157103316"><ele>1153.0</ele><time>2026-04-27T09:05:31.998Z</time></trkpt><trkpt lat="39.40387791902353" lon="16.08900892184065"><ele>1153.0</ele><time>2026-04-27T09:05:33.998Z</time></trkpt><trkpt lat="39.40378487928596" lon="16.08908736489229"><ele>1153.0</ele><time>2026-04-27T09:05:35.998Z</time></trkpt><trkpt lat="39.40372588895734" lon="16.089128967829094"><ele>1153.0</ele><time>2026-04-27T09:05:36.998Z</time></trkpt><trkpt lat="39.40364296866865" lon="16.089196310174458"><ele>1156.6</ele><time>2026-04-27T09:05:37.998Z</time></trkpt><trkpt lat="39.40357584130949" lon="16.089301252316652"><ele>1160.1999999999998</ele><time>2026-04-27T09:05:39Z</time></trkpt><trkpt lat="39.403532843690456" lon="16.08937336623735"><ele>1163.8</ele><time>2026-04-27T09:05:40Z</time></trkpt><trkpt lat="39.403487711595375" lon="16.08944507894899"><ele>1167.3999999999999</ele><time>2026-04-27T09:05:41Z</time></trkpt><trkpt lat="39.403397126258724" lon="16.089514501381572"><ele>1171.0</ele><time>2026-04-27T09:05:43Z</time></trkpt><trkpt lat="39.403268785599366" lon="16.089516676235654"><ele>1171.0</ele><time>2026-04-27T09:05:45Z</time></trkpt><trkpt lat="39.40316469018996" lon="16.08954299812498"><ele>1171.0</ele><time>2026-04-27T09:05:46Z</time></trkpt><trkpt lat="39.40302175506995" lon="16.089620401248215"><ele>1171.0</ele><time>2026-04-27T09:05:47Z</time></trkpt><trkpt lat="39.40291685747847" lon="16.089733876038085"><ele>1171.0</ele><time>2026-04-27T09:05:48Z</time></trkpt><trkpt lat="39.40284766507235" lon="16.089824237625376"><ele>1172.25</ele><time>2026-04-27T09:05:49Z</time></trkpt><trkpt lat="39.4027451742052" lon="16.08993328339696"><ele>1173.5</ele><time>2026-04-27T09:05:51Z</time></trkpt><trkpt lat="39.402681184819464" lon="16.089981411474415"><ele>1174.75</ele><time>2026-04-27T09:05:52Z</time></trkpt><trkpt lat="39.40256607146321" lon="16.090079915987282"><ele>1176.0</ele><time>2026-04-27T09:05:53Z</time></trkpt><trkpt lat="39.40247854588908" lon="16.09017371964037"><ele>1176.0</ele><time>2026-04-27T09:05:54Z</time></trkpt><trkpt lat="39.40240951764504" lon="16.090251551678932"><ele>1176.0</ele><time>2026-04-27T09:05:55Z</time></trkpt><trkpt lat="39.4023299439021" lon="16.090351362148567"><ele>1176.0</ele><time>2026-04-27T09:05:56Z</time></trkpt><trkpt lat="39.40225833665816" lon="16.09046996635365"><ele>1176.0</ele><time>2026-04-27T09:05:57Z</time></trkpt><trkpt lat="39.40222177844202" lon="16.09063411336273"><ele>1172.8</ele><time>2026-04-27T09:05:58Z</time></trkpt><trkpt lat="39.40227689091329" lon="16.090806377015745"><ele>1169.6</ele><time>2026-04-27T09:05:59Z</time></trkpt><trkpt lat="39.402374716945864" lon="16.09088094732024"><ele>1166.4</ele><time>2026-04-27T09:06:00Z</time></trkpt><trkpt lat="39.402408726211824" lon="16.090994790386855"><ele>1163.2</ele><time>2026-04-27T09:06:01Z</time></trkpt><trkpt lat="39.4024437072151" lon="16.09110786422483"><ele>1160.0</ele><time>2026-04-27T09:06:02Z</time></trkpt><trkpt lat="39.402466975274194" lon="16.09119179337142"><ele>1160.0</ele><time>2026-04-27T09:06:03Z</time></trkpt><trkpt lat="39.40243016506643" lon="16.091261937740367"><ele>1160.0</ele><time>2026-04-27T09:06:05Z</time></trkpt><trkpt lat="39.402348749568546" lon="16.091297650421478"><ele>1160.0</ele><time>2026-04-27T09:06:07Z</time></trkpt><trkpt lat="39.40228263252723" lon="16.091339373609774"><ele>1160.0</ele><time>2026-04-27T09:06:08Z</time></trkpt><trkpt lat="39.40220573933529" lon="16.091366635969347"><ele>1160.0</ele><time>2026-04-27T09:06:09Z</time></trkpt><trkpt lat="39.40212882082672" lon="16.091372520050886"><ele>1160.0</ele><time>2026-04-27T09:06:09.999Z</time></trkpt><trkpt lat="39.402024557933395" lon="16.091354475638994"><ele>1168.0</ele><time>2026-04-27T09:06:11.999Z</time></trkpt><trkpt lat="39.401898920047614" lon="16.091273346404645"><ele>1176.0</ele><time>2026-04-27T09:06:13.999Z</time></trkpt><trkpt lat="39.401815629959" lon="16.091239272897035"><ele>1184.0</ele><time>2026-04-27T09:06:14.999Z</time></trkpt><trkpt lat="39.40168837096587" lon="16.091227647306532"><ele>1192.0</ele><time>2026-04-27T09:06:15.999Z</time></trkpt><trkpt lat="39.40155391697714" lon="16.091353888320615"><ele>1192.0</ele><time>2026-04-27T09:06:16.999Z</time></trkpt><trkpt lat="39.40148656981499" lon="16.09147988360488"><ele>1192.0</ele><time>2026-04-27T09:06:17.999Z</time></trkpt><trkpt lat="39.401423829306836" lon="16.091607848140967"><ele>1192.0</ele><time>2026-04-27T09:06:18.999Z</time></trkpt><trkpt lat="39.40137906916171" lon="16.091696475756507"><ele>1192.0</ele><time>2026-04-27T09:06:19.999Z</time></trkpt><trkpt lat="39.40133440530553" lon="16.091781893156135"><ele>1192.0</ele><time>2026-04-27T09:06:20.999Z</time></trkpt><trkpt lat="39.40129716907333" lon="16.091850822540692"><ele>1196.0</ele><time>2026-04-27T09:06:21.999Z</time></trkpt><trkpt lat="39.40125879041837" lon="16.09191849267274"><ele>1200.0</ele><time>2026-04-27T09:06:22.999Z</time></trkpt><trkpt lat="39.40119550445043" lon="16.091830511809412"><ele>1204.0</ele><time>2026-04-27T09:06:27.999Z</time></trkpt><trkpt lat="39.40124060462966" lon="16.091675599348445"><ele>1208.0</ele><time>2026-04-27T09:06:28.999Z</time></trkpt><trkpt lat="39.40127393991221" lon="16.091562225120423"><ele>1212.0</ele><time>2026-04-27T09:06:29.999Z</time></trkpt><trkpt lat="39.40129272664138" lon="16.0914480824835"><ele>1215.0</ele><time>2026-04-27T09:06:30.999Z</time></trkpt><trkpt lat="39.401302025626244" lon="16.09135911340258"><ele>1218.0</ele><time>2026-04-27T09:06:31.999Z</time></trkpt><trkpt lat="39.401310174829845" lon="16.091240585202158"><ele>1221.0</ele><time>2026-04-27T09:06:32.999Z</time></trkpt><trkpt lat="39.401313221025816" lon="16.091093083794856"><ele>1224.0</ele><time>2026-04-27T09:06:33.999Z</time></trkpt><trkpt lat="39.401328456535616" lon="16.090941005079724"><ele>1227.0</ele><time>2026-04-27T09:06:34.999Z</time></trkpt><trkpt lat="39.40135391023487" lon="16.0908020410649"><ele>1228.4</ele><time>2026-04-27T09:06:35.999Z</time></trkpt><trkpt lat="39.40136052472777" lon="16.09067558492465"><ele>1229.8000000000002</ele><time>2026-04-27T09:06:36.999Z</time></trkpt><trkpt lat="39.40136975402628" lon="16.09055914248698"><ele>1231.2</ele><time>2026-04-27T09:06:37.999Z</time></trkpt><trkpt lat="39.4013486777615" lon="16.09042122627713"><ele>1232.6000000000001</ele><time>2026-04-27T09:06:38.999Z</time></trkpt><trkpt lat="39.40132001854148" lon="16.09029431612453"><ele>1234.0</ele><time>2026-04-27T09:06:39.999Z</time></trkpt><trkpt lat="39.40129958854056" lon="16.090191393409075"><ele>1234.0</ele><time>2026-04-27T09:06:40.999Z</time></trkpt><trkpt lat="39.401302350828466" lon="16.090054400665764"><ele>1234.0</ele><time>2026-04-27T09:06:42.999Z</time></trkpt><trkpt lat="39.401377647678395" lon="16.08996559468654"><ele>1234.0</ele><time>2026-04-27T09:06:43.999Z</time></trkpt><trkpt lat="39.40149218267989" lon="16.089841896121037"><ele>1234.0</ele><time>2026-04-27T09:06:44.999Z</time></trkpt><trkpt lat="39.40158353814664" lon="16.08968249431504"><ele>1233.0</ele><time>2026-04-27T09:06:45.999Z</time></trkpt><trkpt lat="39.40167265098444" lon="16.08957544860638"><ele>1232.0</ele><time>2026-04-27T09:06:46.999Z</time></trkpt><trkpt lat="39.40176093572935" lon="16.089500462046836"><ele>1231.0</ele><time>2026-04-27T09:06:47.999Z</time></trkpt><trkpt lat="39.40187607253501" lon="16.089418375334937"><ele>1230.0</ele><time>2026-04-27T09:06:48.999Z</time></trkpt><trkpt lat="39.40199003493054" lon="16.089328137525232"><ele>1230.0</ele><time>2026-04-27T09:06:49.999Z</time></trkpt><trkpt lat="39.40209108521863" lon="16.089241352518307"><ele>1230.0</ele><time>2026-04-27T09:06:50.999Z</time></trkpt><trkpt lat="39.402177023068454" lon="16.08917295006752"><ele>1230.0</ele><time>2026-04-27T09:06:51.999Z</time></trkpt><trkpt lat="39.40225654313821" lon="16.089079265465287"><ele>1230.0</ele><time>2026-04-27T09:06:52.999Z</time></trkpt><trkpt lat="39.40229488398045" lon="16.088951297092787"><ele>1230.0</ele><time>2026-04-27T09:06:53.999Z</time></trkpt><trkpt lat="39.40234212111806" lon="16.088819444466"><ele>1229.2</ele><time>2026-04-27T09:06:54.999Z</time></trkpt><trkpt lat="39.402404514834025" lon="16.088720141939376"><ele>1228.4</ele><time>2026-04-27T09:06:55.999Z</time></trkpt><trkpt lat="39.40248732456389" lon="16.088663432099285"><ele>1227.6</ele><time>2026-04-27T09:06:56.999Z</time></trkpt><trkpt lat="39.40259138082321" lon="16.088615996723913"><ele>1226.8</ele><time>2026-04-27T09:06:57.999Z</time></trkpt><trkpt lat="39.40266773536347" lon="16.088545973842532"><ele>1226.0</ele><time>2026-04-27T09:06:58.999Z</time></trkpt><trkpt lat="39.402728700904454" lon="16.08846564704977"><ele>1226.0</ele><time>2026-04-27T09:06:59.999Z</time></trkpt><trkpt lat="39.40278512272607" lon="16.088390749584867"><ele>1226.0</ele><time>2026-04-27T09:07:00.999Z</time></trkpt><trkpt lat="39.40280812431188" lon="16.08828754278356"><ele>1226.0</ele><time>2026-04-27T09:07:01.999Z</time></trkpt><trkpt lat="39.40282802450918" lon="16.088175217060932"><ele>1226.0</ele><time>2026-04-27T09:07:02.999Z</time></trkpt><trkpt lat="39.40283179875491" lon="16.088064977687015"><ele>1226.0</ele><time>2026-04-27T09:07:03.999Z</time></trkpt><trkpt lat="39.40281331312273" lon="16.087938391229862"><ele>1226.0</ele><time>2026-04-27T09:07:04.999Z</time></trkpt><trkpt lat="39.40278775854565" lon="16.087793193779113"><ele>1227.5</ele><time>2026-04-27T09:07:05.999Z</time></trkpt><trkpt lat="39.40274475614003" lon="16.08761042779785"><ele>1229.0</ele><time>2026-04-27T09:07:06.999Z</time></trkpt><trkpt lat="39.40267319183092" lon="16.087482063516795"><ele>1230.5</ele><time>2026-04-27T09:07:07.999Z</time></trkpt><trkpt lat="39.40262429690862" lon="16.08734171745575"><ele>1232.0</ele><time>2026-04-27T09:07:08.999Z</time></trkpt><trkpt lat="39.40259142875112" lon="16.087216479296107"><ele>1233.8333333333335</ele><time>2026-04-27T09:07:09.999Z</time></trkpt><trkpt lat="39.402574814634015" lon="16.08711510988083"><ele>1235.6666666666667</ele><time>2026-04-27T09:07:10.999Z</time></trkpt><trkpt lat="39.4025845540948" lon="16.087000601424258"><ele>1237.5</ele><time>2026-04-27T09:07:11.999Z</time></trkpt><trkpt lat="39.40259037386057" lon="16.08688777358892"><ele>1239.3333333333333</ele><time>2026-04-27T09:07:12.999Z</time></trkpt><trkpt lat="39.40262596658912" lon="16.086807479066543"><ele>1241.1666666666665</ele><time>2026-04-27T09:07:13.999Z</time></trkpt><trkpt lat="39.40260700676669" lon="16.08671151342621"><ele>1243.0</ele><time>2026-04-27T09:07:15.999Z</time></trkpt><trkpt lat="39.40245304204428" lon="16.086677724846304"><ele>1243.0</ele><time>2026-04-27T09:07:17.999Z</time></trkpt><trkpt lat="39.40243005174192" lon="16.086858337266428"><ele>1243.0</ele><time>2026-04-27T09:07:18.998Z</time></trkpt><trkpt lat="39.402403782462805" lon="16.087010774078028"><ele>1243.0</ele><time>2026-04-27T09:07:19.998Z</time></trkpt><trkpt lat="39.40238551991857" lon="16.087154417213252"><ele>1243.0</ele><time>2026-04-27T09:07:20.998Z</time></trkpt><trkpt lat="39.402398694042134" lon="16.087302190500175"><ele>1241.1666666666665</ele><time>2026-04-27T09:07:21.998Z</time></trkpt><trkpt lat="39.4024270222316" lon="16.087427301684492"><ele>1239.3333333333333</ele><time>2026-04-27T09:07:22.998Z</time></trkpt><trkpt lat="39.40243351438352" lon="16.087549195958072"><ele>1237.5</ele><time>2026-04-27T09:07:23.998Z</time></trkpt><trkpt lat="39.40245282713738" lon="16.08763697547255"><ele>1235.6666666666667</ele><time>2026-04-27T09:07:24.998Z</time></trkpt><trkpt lat="39.402412532034724" lon="16.08773248570054"><ele>1233.8333333333335</ele><time>2026-04-27T09:07:25.998Z</time></trkpt><trkpt lat="39.40238083372968" lon="16.087851371731556"><ele>1232.0</ele><time>2026-04-27T09:07:26.998Z</time></trkpt><trkpt lat="39.40233587863582" lon="16.087996170456073"><ele>1232.0</ele><time>2026-04-27T09:07:27.998Z</time></trkpt><trkpt lat="39.40227368744238" lon="16.088136987888173"><ele>1232.0</ele><time>2026-04-27T09:07:28.998Z</time></trkpt><trkpt lat="39.40220117914341" lon="16.08825003015855"><ele>1232.0</ele><time>2026-04-27T09:07:29.998Z</time></trkpt><trkpt lat="39.40212496407467" lon="16.088363574427568"><ele>1232.0</ele><time>2026-04-27T09:07:30.998Z</time></trkpt><trkpt lat="39.40202858699721" lon="16.088494522550082"><ele>1237.25</ele><time>2026-04-27T09:07:31.998Z</time></trkpt><trkpt lat="39.40193117056417" lon="16.088625475662646"><ele>1242.5</ele><time>2026-04-27T09:07:32.998Z</time></trkpt><trkpt lat="39.40183720609756" lon="16.08874028061945"><ele>1247.75</ele><time>2026-04-27T09:07:33.998Z</time></trkpt><trkpt lat="39.40174464968152" lon="16.088830398047744"><ele>1253.0</ele><time>2026-04-27T09:07:34.998Z</time></trkpt><trkpt lat="39.40164203428125" lon="16.08889523491912"><ele>1253.0</ele><time>2026-04-27T09:07:35.998Z</time></trkpt><trkpt lat="39.40154301882409" lon="16.08892732813779"><ele>1253.0</ele><time>2026-04-27T09:07:36.998Z</time></trkpt><trkpt lat="39.401463596111874" lon="16.088937130021908"><ele>1253.0</ele><time>2026-04-27T09:07:37.998Z</time></trkpt><trkpt lat="39.401358465860916" lon="16.08896064838081"><ele>1253.0</ele><time>2026-04-27T09:07:38.998Z</time></trkpt><trkpt lat="39.401245735584126" lon="16.08900030220354"><ele>1253.0</ele><time>2026-04-27T09:07:39.998Z</time></trkpt><trkpt lat="39.40113542665579" lon="16.089047240782342"><ele>1252.8</ele><time>2026-04-27T09:07:40.998Z</time></trkpt><trkpt lat="39.40104457416903" lon="16.089090046108137"><ele>1252.6</ele><time>2026-04-27T09:07:41.998Z</time></trkpt><trkpt lat="39.40095458406841" lon="16.089138301461936"><ele>1252.4</ele><time>2026-04-27T09:07:42.998Z</time></trkpt><trkpt lat="39.40085786486503" lon="16.08919610391744"><ele>1252.2</ele><time>2026-04-27T09:07:43.998Z</time></trkpt><trkpt lat="39.40075208150286" lon="16.08927694009449"><ele>1252.0</ele><time>2026-04-27T09:07:45Z</time></trkpt><trkpt lat="39.4006348492975" lon="16.08937815442506"><ele>1252.0</ele><time>2026-04-27T09:07:46Z</time></trkpt><trkpt lat="39.40052726179697" lon="16.08949185387973"><ele>1252.0</ele><time>2026-04-27T09:07:47Z</time></trkpt><trkpt lat="39.40040834805191" lon="16.089555172764268"><ele>1252.0</ele><time>2026-04-27T09:07:48Z</time></trkpt><trkpt lat="39.40031086262009" lon="16.089613416676215"><ele>1252.0</ele><time>2026-04-27T09:07:49Z</time></trkpt><trkpt lat="39.400230412022296" lon="16.089684651358105"><ele>1254.0</ele><time>2026-04-27T09:07:50Z</time></trkpt><trkpt lat="39.400177759981545" lon="16.08978611367068"><ele>1256.0</ele><time>2026-04-27T09:07:52Z</time></trkpt><trkpt lat="39.40018310546719" lon="16.08987827920446"><ele>1258.0</ele><time>2026-04-27T09:07:53Z</time></trkpt><trkpt lat="39.40019424009819" lon="16.08999128343048"><ele>1260.0</ele><time>2026-04-27T09:07:54Z</time></trkpt><trkpt lat="39.40019478205481" lon="16.090114196947287"><ele>1262.0</ele><time>2026-04-27T09:07:55Z</time></trkpt><trkpt lat="39.40020200230863" lon="16.090211149074957"><ele>1264.0</ele><time>2026-04-27T09:07:56Z</time></trkpt><trkpt lat="39.4002066401076" lon="16.090294267898077"><ele>1264.0</ele><time>2026-04-27T09:07:57Z</time></trkpt><trkpt lat="39.40015840875924" lon="16.09041482261407"><ele>1264.0</ele><time>2026-04-27T09:07:59Z</time></trkpt><trkpt lat="39.40008356518755" lon="16.090324462306835"><ele>1264.0</ele><time>2026-04-27T09:08:01Z</time></trkpt><trkpt lat="39.40004358049939" lon="16.090246227195138"><ele>1264.0</ele><time>2026-04-27T09:08:03Z</time></trkpt><trkpt lat="39.39996793946106" lon="16.09013244661816"><ele>1264.0</ele><time>2026-04-27T09:08:05Z</time></trkpt><trkpt lat="39.399898076301014" lon="16.090012219891136"><ele>1266.8</ele><time>2026-04-27T09:08:06Z</time></trkpt><trkpt lat="39.399844989793394" lon="16.089898780790833"><ele>1269.6000000000001</ele><time>2026-04-27T09:08:07Z</time></trkpt><trkpt lat="39.39980363049136" lon="16.0897758818885"><ele>1272.4</ele><time>2026-04-27T09:08:08Z</time></trkpt><trkpt lat="39.39977839483718" lon="16.089668393277037"><ele>1275.2</ele><time>2026-04-27T09:08:09Z</time></trkpt><trkpt lat="39.39980758241973" lon="16.089546071041323"><ele>1278.0</ele><time>2026-04-27T09:08:10Z</time></trkpt><trkpt lat="39.39985062955792" lon="16.089434546461767"><ele>1278.0</ele><time>2026-04-27T09:08:11Z</time></trkpt><trkpt lat="39.399883100963166" lon="16.089308372949642"><ele>1278.0</ele><time>2026-04-27T09:08:12Z</time></trkpt><trkpt lat="39.3999623410021" lon="16.089175701322162"><ele>1278.0</ele><time>2026-04-27T09:08:12.999Z</time></trkpt><trkpt lat="39.40008029369266" lon="16.089061795492775"><ele>1278.0</ele><time>2026-04-27T09:08:13.999Z</time></trkpt><trkpt lat="39.40020357373779" lon="16.08898162156955"><ele>1279.0</ele><time>2026-04-27T09:08:14.999Z</time></trkpt><trkpt lat="39.40031375632664" lon="16.088923552446005"><ele>1280.0</ele><time>2026-04-27T09:08:15.999Z</time></trkpt><trkpt lat="39.40040843021066" lon="16.088846775870547"><ele>1281.0</ele><time>2026-04-27T09:08:16.999Z</time></trkpt><trkpt lat="39.40050095227534" lon="16.08876606170211"><ele>1282.0</ele><time>2026-04-27T09:08:17.999Z</time></trkpt><trkpt lat="39.40060668234" lon="16.0886666314316"><ele>1282.0</ele><time>2026-04-27T09:08:18.999Z</time></trkpt><trkpt lat="39.40071993895588" lon="16.088543700686923"><ele>1282.0</ele><time>2026-04-27T09:08:19.999Z</time></trkpt><trkpt lat="39.40084554305728" lon="16.08844897553052"><ele>1282.0</ele><time>2026-04-27T09:08:20.999Z</time></trkpt><trkpt lat="39.40095836779173" lon="16.08833691614501"><ele>1282.0</ele><time>2026-04-27T09:08:21.999Z</time></trkpt><trkpt lat="39.40107292861448" lon="16.088196547571755"><ele>1279.0</ele><time>2026-04-27T09:08:22.999Z</time></trkpt><trkpt lat="39.401179442072355" lon="16.08807513956181"><ele>1276.0</ele><time>2026-04-27T09:08:23.999Z</time></trkpt><trkpt lat="39.401255848379876" lon="16.087928111461537"><ele>1273.0</ele><time>2026-04-27T09:08:24.999Z</time></trkpt><trkpt lat="39.40130974358991" lon="16.087809074540367"><ele>1270.0</ele><time>2026-04-27T09:08:25.999Z</time></trkpt><trkpt lat="39.40133719016678" lon="16.087690891306927"><ele>1270.0</ele><time>2026-04-27T09:08:26.999Z</time></trkpt><trkpt lat="39.401351850938006" lon="16.08756642173938"><ele>1270.0</ele><time>2026-04-27T09:08:27.999Z</time></trkpt><trkpt lat="39.40136632395365" lon="16.08745066642307"><ele>1270.0</ele><time>2026-04-27T09:08:28.999Z</time></trkpt><trkpt lat="39.40136677430331" lon="16.08732238355756"><ele>1270.0</ele><time>2026-04-27T09:08:30.999Z</time></trkpt><trkpt lat="39.401276240554445" lon="16.08727444284829"><ele>1270.0</ele><time>2026-04-27T09:08:32.999Z</time></trkpt><trkpt lat="39.4011799944304" lon="16.087372738465294"><ele>1275.5</ele><time>2026-04-27T09:08:33.999Z</time></trkpt><trkpt lat="39.401118619850855" lon="16.087428427728117"><ele>1281.0</ele><time>2026-04-27T09:08:34.999Z</time></trkpt><trkpt lat="39.40105853810653" lon="16.08747416620724"><ele>1286.5</ele><time>2026-04-27T09:08:35.999Z</time></trkpt><trkpt lat="39.4009847161445" lon="16.08750629499675"><ele>1292.0</ele><time>2026-04-27T09:08:36.999Z</time></trkpt><trkpt lat="39.400909687825525" lon="16.087556238691917"><ele>1297.5</ele><time>2026-04-27T09:08:37.999Z</time></trkpt><trkpt lat="39.400840732338914" lon="16.087620719516764"><ele>1303.0</ele><time>2026-04-27T09:08:38.999Z</time></trkpt><trkpt lat="39.400783349561756" lon="16.087683195823377"><ele>1303.0</ele><time>2026-04-27T09:08:39.999Z</time></trkpt><trkpt lat="39.400719893186576" lon="16.08771515822761"><ele>1303.0</ele><time>2026-04-27T09:08:40.999Z</time></trkpt><trkpt lat="39.40063342967589" lon="16.087808372054916"><ele>1303.0</ele><time>2026-04-27T09:08:42.999Z</time></trkpt><trkpt lat="39.40054142503263" lon="16.08785845565419"><ele>1303.0</ele><time>2026-04-27T09:08:44.999Z</time></trkpt><trkpt lat="39.4005361503409" lon="16.087644107880124"><ele>1303.0</ele><time>2026-04-27T09:08:48.999Z</time></trkpt><trkpt lat="39.40058870468813" lon="16.087549002855514"><ele>1303.0</ele><time>2026-04-27T09:08:49.999Z</time></trkpt><trkpt lat="39.40065118310977" lon="16.087444992091186"><ele>1303.0</ele><time>2026-04-27T09:08:50.999Z</time></trkpt><trkpt lat="39.40071323365516" lon="16.08733158991015"><ele>1303.0</ele><time>2026-04-27T09:08:51.999Z</time></trkpt><trkpt lat="39.400775180017774" lon="16.08724151656049"><ele>1303.0</ele><time>2026-04-27T09:08:52.999Z</time></trkpt><trkpt lat="39.40081513539105" lon="16.08713529800236"><ele>1303.0</ele><time>2026-04-27T09:08:53.999Z</time></trkpt><trkpt lat="39.40084670715884" lon="16.08699507422319"><ele>1306.75</ele><time>2026-04-27T09:08:54.999Z</time></trkpt><trkpt lat="39.400877522920716" lon="16.086822799155122"><ele>1310.5</ele><time>2026-04-27T09:08:55.999Z</time></trkpt><trkpt lat="39.40090769845565" lon="16.086643809200716"><ele>1314.25</ele><time>2026-04-27T09:08:56.999Z</time></trkpt><trkpt lat="39.400947696180516" lon="16.086488405620837"><ele>1318.0</ele><time>2026-04-27T09:08:57.999Z</time></trkpt><trkpt lat="39.40099873954875" lon="16.08636432834893"><ele>1322.5</ele><time>2026-04-27T09:08:58.999Z</time></trkpt><trkpt lat="39.40107043528805" lon="16.086244900380986"><ele>1327.0</ele><time>2026-04-27T09:08:59.999Z</time></trkpt><trkpt lat="39.401139349093675" lon="16.086111151191165"><ele>1331.5</ele><time>2026-04-27T09:09:00.999Z</time></trkpt><trkpt lat="39.40120982725513" lon="16.08595889972331"><ele>1336.0</ele><time>2026-04-27T09:09:01.999Z</time></trkpt><trkpt lat="39.40128185400015" lon="16.085808885114893"><ele>1333.0</ele><time>2026-04-27T09:09:02.999Z</time></trkpt><trkpt lat="39.401352223975344" lon="16.085671013490934"><ele>1330.0</ele><time>2026-04-27T09:09:03.999Z</time></trkpt><trkpt lat="39.40140661137411" lon="16.08555864438047"><ele>1327.0</ele><time>2026-04-27T09:09:04.999Z</time></trkpt><trkpt lat="39.40145025985775" lon="16.08543536410306"><ele>1324.0</ele><time>2026-04-27T09:09:05.999Z</time></trkpt><trkpt lat="39.401479675288414" lon="16.085313180063718"><ele>1321.0</ele><time>2026-04-27T09:09:06.999Z</time></trkpt><trkpt lat="39.4014954577419" lon="16.085191709582492"><ele>1321.0</ele><time>2026-04-27T09:09:07.999Z</time></trkpt><trkpt lat="39.40150675231794" lon="16.08505759472138"><ele>1321.0</ele><time>2026-04-27T09:09:08.999Z</time></trkpt><trkpt lat="39.401525019411444" lon="16.084922028948835"><ele>1321.0</ele><time>2026-04-27T09:09:09.999Z</time></trkpt><trkpt lat="39.401535770329644" lon="16.084805611272312"><ele>1321.0</ele><time>2026-04-27T09:09:10.999Z</time></trkpt><trkpt lat="39.40152608506033" lon="16.08471492581801"><ele>1321.0</ele><time>2026-04-27T09:09:12.999Z</time></trkpt><trkpt lat="39.40142363574468" lon="16.084727501183522"><ele>1320.8</ele><time>2026-04-27T09:09:15.999Z</time></trkpt><trkpt lat="39.40136645264966" lon="16.084793274605154"><ele>1320.6</ele><time>2026-04-27T09:09:16.999Z</time></trkpt><trkpt lat="39.40131790575707" lon="16.08490377585031"><ele>1320.4</ele><time>2026-04-27T09:09:17.999Z</time></trkpt><trkpt lat="39.40127799691439" lon="16.085031323901337"><ele>1320.2</ele><time>2026-04-27T09:09:18.998Z</time></trkpt><trkpt lat="39.401224000346026" lon="16.08514951740389"><ele>1320.0</ele><time>2026-04-27T09:09:19.998Z</time></trkpt><trkpt lat="39.401158945355604" lon="16.085241807718273"><ele>1322.2</ele><time>2026-04-27T09:09:20.998Z</time></trkpt><trkpt lat="39.40109797967291" lon="16.085299716365817"><ele>1324.4</ele><time>2026-04-27T09:09:21.998Z</time></trkpt><trkpt lat="39.40097479961555" lon="16.08538597941155"><ele>1326.6</ele><time>2026-04-27T09:09:23.998Z</time></trkpt><trkpt lat="39.40089340854541" lon="16.08543735685195"><ele>1328.8</ele><time>2026-04-27T09:09:24.998Z</time></trkpt><trkpt lat="39.40081831930414" lon="16.08546977553276"><ele>1331.0</ele><time>2026-04-27T09:09:25.998Z</time></trkpt><trkpt lat="39.400752385512746" lon="16.08551420063378"><ele>1331.0</ele><time>2026-04-27T09:09:26.998Z</time></trkpt><trkpt lat="39.40068369608575" lon="16.085552811324845"><ele>1331.0</ele><time>2026-04-27T09:09:27.998Z</time></trkpt><trkpt lat="39.400610533798876" lon="16.085596939011943"><ele>1331.0</ele><time>2026-04-27T09:09:28.998Z</time></trkpt><trkpt lat="39.4005475170601" lon="16.085638391936815"><ele>1331.0</ele><time>2026-04-27T09:09:29.998Z</time></trkpt><trkpt lat="39.40043955105289" lon="16.085709412923627"><ele>1331.0</ele><time>2026-04-27T09:09:31.998Z</time></trkpt><trkpt lat="39.40036254749931" lon="16.08576105651149"><ele>1331.0</ele><time>2026-04-27T09:09:32.998Z</time></trkpt><trkpt lat="39.40027876006567" lon="16.085822659979712"><ele>1335.1999999999998</ele><time>2026-04-27T09:09:33.998Z</time></trkpt><trkpt lat="39.40020768592719" lon="16.08587973758867"><ele>1339.3999999999999</ele><time>2026-04-27T09:09:34.998Z</time></trkpt><trkpt lat="39.400139455817346" lon="16.085942615340006"><ele>1343.6</ele><time>2026-04-27T09:09:35.998Z</time></trkpt><trkpt lat="39.40007579542899" lon="16.086060930760908"><ele>1347.8</ele><time>2026-04-27T09:09:36.998Z</time></trkpt><trkpt lat="39.400018464890806" lon="16.086212605506798"><ele>1352.0</ele><time>2026-04-27T09:09:37.998Z</time></trkpt><trkpt lat="39.39995832806362" lon="16.08637119741615"><ele>1352.0</ele><time>2026-04-27T09:09:38.998Z</time></trkpt><trkpt lat="39.39989030251123" lon="16.086503575503595"><ele>1352.0</ele><time>2026-04-27T09:09:39.998Z</time></trkpt><trkpt lat="39.39983111194998" lon="16.08657978039982"><ele>1352.0</ele><time>2026-04-27T09:09:40.998Z</time></trkpt><trkpt lat="39.39977873430519" lon="16.08663618974665"><ele>1352.0</ele><time>2026-04-27T09:09:41.998Z</time></trkpt><trkpt lat="39.39967747182567" lon="16.086725904437987"><ele>1352.0</ele><time>2026-04-27T09:09:43.998Z</time></trkpt><trkpt lat="39.399621556503845" lon="16.086778579218425"><ele>1356.0</ele><time>2026-04-27T09:09:44.998Z</time></trkpt><trkpt lat="39.399552542218615" lon="16.086834130769887"><ele>1360.0</ele><time>2026-04-27T09:09:45.998Z</time></trkpt><trkpt lat="39.399474560651164" lon="16.08688772134205"><ele>1364.0</ele><time>2026-04-27T09:09:46.998Z</time></trkpt><trkpt lat="39.39935008454593" lon="16.08693862768164"><ele>1368.0</ele><time>2026-04-27T09:09:48.998Z</time></trkpt><trkpt lat="39.399274797915616" lon="16.086956704091097"><ele>1372.0</ele><time>2026-04-27T09:09:49.998Z</time></trkpt><trkpt lat="39.39920244957405" lon="16.086959562888406"><ele>1376.0</ele><time>2026-04-27T09:09:51Z</time></trkpt><trkpt lat="39.399116097070866" lon="16.086958490696983"><ele>1376.0</ele><time>2026-04-27T09:09:52Z</time></trkpt><trkpt lat="39.39902914869118" lon="16.08696165736778"><ele>1376.0</ele><time>2026-04-27T09:09:53Z</time></trkpt><trkpt lat="39.398940306065285" lon="16.086991990817978"><ele>1376.0</ele><time>2026-04-27T09:09:54Z</time></trkpt><trkpt lat="39.398873186637175" lon="16.087050800118686"><ele>1376.0</ele><time>2026-04-27T09:09:55Z</time></trkpt><trkpt lat="39.39881633167361" lon="16.087105870367825"><ele>1376.0</ele><time>2026-04-27T09:09:56Z</time></trkpt><trkpt lat="39.39873735400661" lon="16.0871461691178"><ele>1376.0</ele><time>2026-04-27T09:09:58Z</time></trkpt><trkpt lat="39.39864547311098" lon="16.08713506396911"><ele>1377.6</ele><time>2026-04-27T09:10:00Z</time></trkpt><trkpt lat="39.39850102730636" lon="16.087069764724692"><ele>1379.1999999999998</ele><time>2026-04-27T09:10:02Z</time></trkpt><trkpt lat="39.398447897731714" lon="16.08699230271028"><ele>1380.8000000000002</ele><time>2026-04-27T09:10:03Z</time></trkpt><trkpt lat="39.39841715334325" lon="16.08687230161149"><ele>1382.4</ele><time>2026-04-27T09:10:04Z</time></trkpt><trkpt lat="39.398328096629086" lon="16.08677887663296"><ele>1384.0</ele><time>2026-04-27T09:10:05Z</time></trkpt><trkpt lat="39.39835314382942" lon="16.086693911445085"><ele>1384.0</ele><time>2026-04-27T09:10:06Z</time></trkpt><trkpt lat="39.39811207658632" lon="16.0867250266502"><ele>1384.0</ele><time>2026-04-27T09:10:07Z</time></trkpt><trkpt lat="39.39800546350033" lon="16.086704832861084"><ele>1384.0</ele><time>2026-04-27T09:10:08Z</time></trkpt><trkpt lat="39.39790196556358" lon="16.086688605524238"><ele>1382.4</ele><time>2026-04-27T09:10:09Z</time></trkpt><trkpt lat="39.397802550747954" lon="16.086666859292034"><ele>1380.8000000000002</ele><time>2026-04-27T09:10:10Z</time></trkpt><trkpt lat="39.397695687790325" lon="16.086615381563952"><ele>1379.1999999999998</ele><time>2026-04-27T09:10:11Z</time></trkpt><trkpt lat="39.39758114231175" lon="16.086595298409144"><ele>1377.6</ele><time>2026-04-27T09:10:12Z</time></trkpt><trkpt lat="39.39747191387206" lon="16.086576198521506"><ele>1376.0</ele><time>2026-04-27T09:10:13Z</time></trkpt><trkpt lat="39.39738322950481" lon="16.08658194965916"><ele>1376.0</ele><time>2026-04-27T09:10:14Z</time></trkpt><trkpt lat="39.39730521595632" lon="16.086598180779195"><ele>1376.0</ele><time>2026-04-27T09:10:15Z</time></trkpt><trkpt lat="39.397224610145614" lon="16.086600635321993"><ele>1376.0</ele><time>2026-04-27T09:10:16Z</time></trkpt><trkpt lat="39.39712141761911" lon="16.08660050813779"><ele>1376.0</ele><time>2026-04-27T09:10:17Z</time></trkpt><trkpt lat="39.397016825920126" lon="16.086611210149854"><ele>1376.0</ele><time>2026-04-27T09:10:17.999Z</time></trkpt><trkpt lat="39.396917576919776" lon="16.086625467177864"><ele>1376.0</ele><time>2026-04-27T09:10:18.999Z</time></trkpt><trkpt lat="39.39680717692492" lon="16.08660751949114"><ele>1376.0</ele><time>2026-04-27T09:10:19.999Z</time></trkpt><trkpt lat="39.39667737595834" lon="16.08655263389075"><ele>1376.0</ele><time>2026-04-27T09:10:20.999Z</time></trkpt><trkpt lat="39.39655371004103" lon="16.086497324855532"><ele>1376.0</ele><time>2026-04-27T09:10:21.999Z</time></trkpt><trkpt lat="39.396479242231855" lon="16.08648733157203"><ele>1375.1666666666667</ele><time>2026-04-27T09:10:22.999Z</time></trkpt><trkpt lat="39.39639477260012" lon="16.08644414707481"><ele>1374.3333333333335</ele><time>2026-04-27T09:10:23.999Z</time></trkpt><trkpt lat="39.396302643325406" lon="16.08640234951937"><ele>1373.5</ele><time>2026-04-27T09:10:24.999Z</time></trkpt><trkpt lat="39.39621700443107" lon="16.08635799749708"><ele>1372.6666666666667</ele><time>2026-04-27T09:10:25.999Z</time></trkpt><trkpt lat="39.39615114394921" lon="16.0863216755077"><ele>1371.8333333333333</ele><time>2026-04-27T09:10:26.999Z</time></trkpt><trkpt lat="39.39605845197" lon="16.0863014921287"><ele>1371.0</ele><time>2026-04-27T09:10:27.999Z</time></trkpt><trkpt lat="39.39596723764065" lon="16.08626298880403"><ele>1372.6666666666667</ele><time>2026-04-27T09:10:28.999Z</time></trkpt><trkpt lat="39.39588458198942" lon="16.086221245475134"><ele>1374.3333333333333</ele><time>2026-04-27T09:10:29.999Z</time></trkpt><trkpt lat="39.39580761244817" lon="16.086168130419455"><ele>1376.0</ele><time>2026-04-27T09:10:30.999Z</time></trkpt><trkpt lat="39.39574736044949" lon="16.08611181722355"><ele>1377.6666666666665</ele><time>2026-04-27T09:10:31.999Z</time></trkpt><trkpt lat="39.39568648890583" lon="16.086078015169488"><ele>1379.3333333333333</ele><time>2026-04-27T09:10:32.999Z</time></trkpt><trkpt lat="39.395597774329154" lon="16.085998743761486"><ele>1381.0</ele><time>2026-04-27T09:10:34.999Z</time></trkpt><trkpt lat="39.39553623253869" lon="16.085952712465623"><ele>1379.8</ele><time>2026-04-27T09:10:36.999Z</time></trkpt><trkpt lat="39.395470658058" lon="16.08595030438843"><ele>1378.6</ele><time>2026-04-27T09:11:15.999Z</time></trkpt><trkpt lat="39.39536858350641" lon="16.085920032218606"><ele>1377.4</ele><time>2026-04-27T09:11:19.999Z</time></trkpt><trkpt lat="39.395245566488676" lon="16.085913193342595"><ele>1376.2</ele><time>2026-04-27T09:11:21.999Z</time></trkpt><trkpt lat="39.39515605672776" lon="16.085883160490713"><ele>1375.0</ele><time>2026-04-27T09:11:23.999Z</time></trkpt><trkpt lat="39.39506253216041" lon="16.085874408805864"><ele>1375.0</ele><time>2026-04-27T09:11:25.998Z</time></trkpt><trkpt lat="39.394964392748264" lon="16.08587912712837"><ele>1375.0</ele><time>2026-04-27T09:11:28.998Z</time></trkpt><trkpt lat="39.3948401401638" lon="16.085860490404936"><ele>1375.0</ele><time>2026-04-27T09:11:30.998Z</time></trkpt><trkpt lat="39.394741322366485" lon="16.08588402294112"><ele>1375.0</ele><time>2026-04-27T09:11:32.998Z</time></trkpt><trkpt lat="39.39462639426125" lon="16.08591470350094"><ele>1375.0</ele><time>2026-04-27T09:11:34.998Z</time></trkpt><trkpt lat="39.39453397090681" lon="16.085961011117956"><ele>1372.6</ele><time>2026-04-27T09:11:36.998Z</time></trkpt><trkpt lat="39.39441978058586" lon="16.085982769219296"><ele>1370.2</ele><time>2026-04-27T09:11:38.998Z</time></trkpt><trkpt lat="39.39434161237154" lon="16.086023378326928"><ele>1367.8000000000002</ele><time>2026-04-27T09:11:40.998Z</time></trkpt><trkpt lat="39.39424546748078" lon="16.086091001153896"><ele>1365.4</ele><time>2026-04-27T09:11:42.998Z</time></trkpt><trkpt lat="39.39417543780894" lon="16.08618913480908"><ele>1363.0</ele><time>2026-04-27T09:11:44.998Z</time></trkpt><trkpt lat="39.39408409943945" lon="16.086239078320396"><ele>1363.0</ele><time>2026-04-27T09:11:46.998Z</time></trkpt><trkpt lat="39.39396364913828" lon="16.086237867815285"><ele>1363.0</ele><time>2026-04-27T09:11:48.998Z</time></trkpt><trkpt lat="39.39385737764467" lon="16.086223509538343"><ele>1363.0</ele><time>2026-04-27T09:11:50.998Z</time></trkpt><trkpt lat="39.39375003855551" lon="16.086196841384467"><ele>1363.0</ele><time>2026-04-27T09:11:52.998Z</time></trkpt><trkpt lat="39.39364776393488" lon="16.086204713882452"><ele>1363.0</ele><time>2026-04-27T09:11:54.998Z</time></trkpt><trkpt lat="39.39356573726754" lon="16.086240082353314"><ele>1361.142857142857</ele><time>2026-04-27T09:11:57Z</time></trkpt><trkpt lat="39.393496354810196" lon="16.08622652804577"><ele>1359.2857142857144</ele><time>2026-04-27T09:11:59Z</time></trkpt><trkpt lat="39.39343286612814" lon="16.086220434146345"><ele>1357.4285714285716</ele><time>2026-04-27T09:12:01Z</time></trkpt><trkpt lat="39.393361131981635" lon="16.086161224203963"><ele>1355.5714285714284</ele><time>2026-04-27T09:12:04Z</time></trkpt><trkpt lat="39.39328004617569" lon="16.086164635876106"><ele>1353.7142857142858</ele><time>2026-04-27T09:12:07Z</time></trkpt><trkpt lat="39.39320300813737" lon="16.086168557930332"><ele>1351.857142857143</ele><time>2026-04-27T09:12:10Z</time></trkpt><trkpt lat="39.39313939892432" lon="16.08616683157716"><ele>1350.0</ele><time>2026-04-27T09:12:12Z</time></trkpt><trkpt lat="39.39306683047701" lon="16.086160970083185"><ele>1345.3333333333333</ele><time>2026-04-27T09:12:14Z</time></trkpt><trkpt lat="39.39299825906122" lon="16.08614212750034"><ele>1340.6666666666667</ele><time>2026-04-27T09:12:17Z</time></trkpt><trkpt lat="39.392900858544266" lon="16.086122966025624"><ele>1336.0</ele><time>2026-04-27T09:12:20Z</time></trkpt><trkpt lat="39.39280363069022" lon="16.08611078192382"><ele>1331.3333333333335</ele><time>2026-04-27T09:12:23Z</time></trkpt><trkpt lat="39.392732534689316" lon="16.08610699823868"><ele>1326.6666666666667</ele><time>2026-04-27T09:12:24.999Z</time></trkpt><trkpt lat="39.3926394501303" lon="16.08613524177505"><ele>1322.0</ele><time>2026-04-27T09:12:26.999Z</time></trkpt><trkpt lat="39.39255240474876" lon="16.08617494673022"><ele>1322.0</ele><time>2026-04-27T09:12:28.999Z</time></trkpt><trkpt lat="39.39250457840051" lon="16.086244823125924"><ele>1322.0</ele><time>2026-04-27T09:12:29.999Z</time></trkpt><trkpt lat="39.39240156931309" lon="16.086281654952078"><ele>1322.0</ele><time>2026-04-27T09:12:31.999Z</time></trkpt><trkpt lat="39.392295701383745" lon="16.086304042515938"><ele>1322.0</ele><time>2026-04-27T09:12:33.999Z</time></trkpt><trkpt lat="39.39215897179734" lon="16.086302330309977"><ele>1322.0</ele><time>2026-04-27T09:12:35.999Z</time></trkpt><trkpt lat="39.392088860502646" lon="16.08633125747385"><ele>1318.857142857143</ele><time>2026-04-27T09:12:36.999Z</time></trkpt><trkpt lat="39.392017603084845" lon="16.086331462482992"><ele>1315.7142857142858</ele><time>2026-04-27T09:12:37.999Z</time></trkpt><trkpt lat="39.39195392083604" lon="16.0863513133633"><ele>1312.5714285714284</ele><time>2026-04-27T09:12:38.999Z</time></trkpt><trkpt lat="39.391853522585606" lon="16.086336934093694"><ele>1309.4285714285716</ele><time>2026-04-27T09:12:40.999Z</time></trkpt><trkpt lat="39.39178692293052" lon="16.08634553547451"><ele>1306.2857142857144</ele><time>2026-04-27T09:12:42.999Z</time></trkpt><trkpt lat="39.391726715710774" lon="16.086392682317708"><ele>1303.142857142857</ele><time>2026-04-27T09:12:44.999Z</time></trkpt><trkpt lat="39.39167519782513" lon="16.086457370300074"><ele>1300.0</ele><time>2026-04-27T09:12:46.999Z</time></trkpt><trkpt lat="39.39158781344323" lon="16.08652589517163"><ele>1299.6</ele><time>2026-04-27T09:12:48.999Z</time></trkpt><trkpt lat="39.39149688013631" lon="16.086611451301746"><ele>1299.2</ele><time>2026-04-27T09:12:50.999Z</time></trkpt><trkpt lat="39.39144182857949" lon="16.086673057455503"><ele>1298.8000000000002</ele><time>2026-04-27T09:12:52.999Z</time></trkpt><trkpt lat="39.391363344332056" lon="16.086731278662473"><ele>1298.4</ele><time>2026-04-27T09:12:55.999Z</time></trkpt><trkpt lat="39.39127443302363" lon="16.086775983854537"><ele>1298.0</ele><time>2026-04-27T09:12:58.999Z</time></trkpt><trkpt lat="39.39092930235392" lon="16.08693762046255"><ele>1292.0</ele><time>2026-04-27T09:12:59.999Z</time></trkpt><trkpt lat="39.39122839669737" lon="16.086847724360606"><ele>1286.0</ele><time>2026-04-27T09:13:02.999Z</time></trkpt><trkpt lat="39.39064261669497" lon="16.087180279283086"><ele>1286.0</ele><time>2026-04-27T09:13:04.999Z</time></trkpt><trkpt lat="39.390566043218215" lon="16.087183638366263"><ele>1286.0</ele><time>2026-04-27T09:13:06.999Z</time></trkpt><trkpt lat="39.39042263114916" lon="16.087167983218887"><ele>1286.0</ele><time>2026-04-27T09:13:08.999Z</time></trkpt><trkpt lat="39.39033685388486" lon="16.08719323923189"><ele>1286.0</ele><time>2026-04-27T09:13:09.999Z</time></trkpt><trkpt lat="39.390251070398826" lon="16.087202566899133"><ele>1286.0</ele><time>2026-04-27T09:13:10.999Z</time></trkpt><trkpt lat="39.390181427579066" lon="16.087187165492903"><ele>1283.0</ele><time>2026-04-27T09:13:11.999Z</time></trkpt><trkpt lat="39.39011385462321" lon="16.087167879955746"><ele>1280.0</ele><time>2026-04-27T09:13:12.999Z</time></trkpt><trkpt lat="39.38998243680621" lon="16.087166352293888"><ele>1277.0</ele><time>2026-04-27T09:13:14.999Z</time></trkpt><trkpt lat="39.389912124918396" lon="16.087184771651078"><ele>1274.0</ele><time>2026-04-27T09:13:15.999Z</time></trkpt><trkpt lat="39.38979467227679" lon="16.087279109069"><ele>1271.0</ele><time>2026-04-27T09:13:17.999Z</time></trkpt><trkpt lat="39.38971713281979" lon="16.087349418290827"><ele>1271.3333333333335</ele><time>2026-04-27T09:13:18.999Z</time></trkpt><trkpt lat="39.389657017571565" lon="16.087412112016843"><ele>1271.6666666666667</ele><time>2026-04-27T09:13:19.999Z</time></trkpt><trkpt lat="39.3896134458299" lon="16.08747448483158"><ele>1272.0</ele><time>2026-04-27T09:13:20.999Z</time></trkpt><trkpt lat="39.3895820191334" lon="16.087549773894562"><ele>1272.3333333333333</ele><time>2026-04-27T09:13:21.999Z</time></trkpt><trkpt lat="39.389715408131586" lon="16.08758599081549"><ele>1272.6666666666665</ele><time>2026-04-27T09:13:22.999Z</time></trkpt><trkpt lat="39.38962678065976" lon="16.087642966622933"><ele>1273.0</ele><time>2026-04-27T09:13:23.999Z</time></trkpt><trkpt lat="39.38947981503956" lon="16.087725928894674"><ele>1273.6</ele><time>2026-04-27T09:13:25.999Z</time></trkpt><trkpt lat="39.38931913521116" lon="16.0878060287919"><ele>1274.1999999999998</ele><time>2026-04-27T09:13:26.999Z</time></trkpt><trkpt lat="39.389272651224665" lon="16.087871565981644"><ele>1274.8</ele><time>2026-04-27T09:13:27.998Z</time></trkpt><trkpt lat="39.389226817257395" lon="16.08794608152564"><ele>1275.3999999999999</ele><time>2026-04-27T09:13:29.998Z</time></trkpt><trkpt lat="39.38918094087999" lon="16.088054208052768"><ele>1276.0</ele><time>2026-04-27T09:13:31.998Z</time></trkpt><trkpt lat="39.389096484860595" lon="16.088160833414506"><ele>1276.0</ele><time>2026-04-27T09:13:33.998Z</time></trkpt><trkpt lat="39.38900963092791" lon="16.08825763278225"><ele>1276.0</ele><time>2026-04-27T09:13:35.998Z</time></trkpt><trkpt lat="39.38897052002462" lon="16.08833467142707"><ele>1276.0</ele><time>2026-04-27T09:13:36.998Z</time></trkpt><trkpt lat="39.388910147932506" lon="16.08841821518028"><ele>1276.0</ele><time>2026-04-27T09:13:37.998Z</time></trkpt><trkpt lat="39.388849633342936" lon="16.088537281716516"><ele>1276.0</ele><time>2026-04-27T09:13:38.998Z</time></trkpt><trkpt lat="39.388795374375796" lon="16.08865351404833"><ele>1278.1999999999998</ele><time>2026-04-27T09:13:39.998Z</time></trkpt><trkpt lat="39.38871705378157" lon="16.08876093490261"><ele>1280.3999999999999</ele><time>2026-04-27T09:13:40.998Z</time></trkpt><trkpt lat="39.388651800854895" lon="16.088859969806357"><ele>1282.6</ele><time>2026-04-27T09:13:41.998Z</time></trkpt><trkpt lat="39.38858769469353" lon="16.088966999398288"><ele>1284.8</ele><time>2026-04-27T09:13:42.998Z</time></trkpt><trkpt lat="39.38853025652841" lon="16.08906539064125"><ele>1287.0</ele><time>2026-04-27T09:13:43.998Z</time></trkpt><trkpt lat="39.38847594625911" lon="16.089162288677958"><ele>1287.5</ele><time>2026-04-27T09:13:44.998Z</time></trkpt><trkpt lat="39.388414523537456" lon="16.089235474928433"><ele>1288.0</ele><time>2026-04-27T09:13:45.998Z</time></trkpt><trkpt lat="39.388348737841305" lon="16.089268106549945"><ele>1288.5</ele><time>2026-04-27T09:13:46.998Z</time></trkpt><trkpt lat="39.38824753272403" lon="16.089267679647698"><ele>1289.0</ele><time>2026-04-27T09:13:47.998Z</time></trkpt><trkpt lat="39.38814827143168" lon="16.089258098193017"><ele>1289.5</ele><time>2026-04-27T09:13:48.998Z</time></trkpt><trkpt lat="39.38805578181515" lon="16.08925305279223"><ele>1290.0</ele><time>2026-04-27T09:13:49.998Z</time></trkpt><trkpt lat="39.387954133594285" lon="16.089276632261715"><ele>1288.5</ele><time>2026-04-27T09:13:50.998Z</time></trkpt><trkpt lat="39.387867735430596" lon="16.089290979942287"><ele>1287.0</ele><time>2026-04-27T09:13:51.998Z</time></trkpt><trkpt lat="39.3877896464006" lon="16.0893007293342"><ele>1285.5</ele><time>2026-04-27T09:13:52.998Z</time></trkpt><trkpt lat="39.38771341319199" lon="16.08928814537561"><ele>1284.0</ele><time>2026-04-27T09:13:53.998Z</time></trkpt><trkpt lat="39.38762746925973" lon="16.089268264316683"><ele>1282.5</ele><time>2026-04-27T09:13:54.998Z</time></trkpt><trkpt lat="39.38753023882305" lon="16.089286351236392"><ele>1281.0</ele><time>2026-04-27T09:13:55.998Z</time></trkpt><trkpt lat="39.38746751818749" lon="16.089296626630382"><ele>1281.0</ele><time>2026-04-27T09:13:56.998Z</time></trkpt><trkpt lat="39.387382930912985" lon="16.089384241850173"><ele>1281.0</ele><time>2026-04-27T09:13:58.998Z</time></trkpt><trkpt lat="39.387310860356514" lon="16.0895105583659"><ele>1281.0</ele><time>2026-04-27T09:14:00.998Z</time></trkpt><trkpt lat="39.38729947983583" lon="16.08963258939494"><ele>1281.0</ele><time>2026-04-27T09:14:03Z</time></trkpt><trkpt lat="39.38727078212798" lon="16.08976830150558"><ele>1281.0</ele><time>2026-04-27T09:14:05Z</time></trkpt><trkpt lat="39.38725027574438" lon="16.08985912508412"><ele>1280.6666666666667</ele><time>2026-04-27T09:14:06Z</time></trkpt><trkpt lat="39.387220629478655" lon="16.089939832527964"><ele>1280.3333333333333</ele><time>2026-04-27T09:14:07Z</time></trkpt><trkpt lat="39.387179141380386" lon="16.090002736920372"><ele>1280.0</ele><time>2026-04-27T09:14:08Z</time></trkpt><trkpt lat="39.38712266335947" lon="16.09006652499753"><ele>1279.6666666666665</ele><time>2026-04-27T09:14:09Z</time></trkpt><trkpt lat="39.3870348734756" lon="16.090122245754245"><ele>1279.3333333333333</ele><time>2026-04-27T09:14:10Z</time></trkpt><trkpt lat="39.38692846740676" lon="16.090165755014283"><ele>1279.0</ele><time>2026-04-27T09:14:12Z</time></trkpt><trkpt lat="39.38681398814129" lon="16.090222875713803"><ele>1278.1666666666665</ele><time>2026-04-27T09:14:14Z</time></trkpt><trkpt lat="39.386711793397666" lon="16.090270862290975"><ele>1277.3333333333333</ele><time>2026-04-27T09:14:16Z</time></trkpt><trkpt lat="39.38662433474622" lon="16.09031662571903"><ele>1276.5</ele><time>2026-04-27T09:14:18Z</time></trkpt><trkpt lat="39.38655802596831" lon="16.090355948224857"><ele>1275.6666666666667</ele><time>2026-04-27T09:14:23Z</time></trkpt><trkpt lat="39.386642056206604" lon="16.090394393327237"><ele>1274.8333333333335</ele><time>2026-04-27T09:15:00.999Z</time></trkpt><trkpt lat="39.386724391796704" lon="16.090372428354627"><ele>1274.0</ele><time>2026-04-27T09:15:02.999Z</time></trkpt><trkpt lat="39.38678317846554" lon="16.090335054195744"><ele>1274.0</ele><time>2026-04-27T09:15:04.999Z</time></trkpt><trkpt lat="39.3868477242326" lon="16.090294716900946"><ele>1274.0</ele><time>2026-04-27T09:15:07.999Z</time></trkpt><trkpt lat="39.386909738622904" lon="16.090228877962215"><ele>1274.0</ele><time>2026-04-27T09:15:09.999Z</time></trkpt><trkpt lat="39.38672960978686" lon="16.090076930381297"><ele>1274.0</ele><time>2026-04-27T09:15:17.999Z</time></trkpt><trkpt lat="39.38666907120876" lon="16.090046490508605"><ele>1274.0</ele><time>2026-04-27T09:15:19.999Z</time></trkpt><trkpt lat="39.386589665922735" lon="16.089990406682855"><ele>1272.0</ele><time>2026-04-27T09:15:21.999Z</time></trkpt><trkpt lat="39.3865490514611" lon="16.08991652587973"><ele>1270.0</ele><time>2026-04-27T09:15:22.999Z</time></trkpt><trkpt lat="39.386463866234315" lon="16.08984359973588"><ele>1268.0</ele><time>2026-04-27T09:15:24.999Z</time></trkpt><trkpt lat="39.386394828111136" lon="16.089775544685534"><ele>1266.0</ele><time>2026-04-27T09:15:26.999Z</time></trkpt><trkpt lat="39.38635483193803" lon="16.089690053833436"><ele>1264.0</ele><time>2026-04-27T09:15:28.999Z</time></trkpt><trkpt lat="39.38631303998115" lon="16.089598231029235"><ele>1262.0</ele><time>2026-04-27T09:15:30.999Z</time></trkpt><trkpt lat="39.38629253835869" lon="16.089448959218874"><ele>1257.0</ele><time>2026-04-27T09:15:32.999Z</time></trkpt><trkpt lat="39.3862714565176" lon="16.08933165705438"><ele>1252.0</ele><time>2026-04-27T09:15:34.998Z</time></trkpt><trkpt lat="39.3862543844218" lon="16.089238412984724"><ele>1247.0</ele><time>2026-04-27T09:15:35.998Z</time></trkpt><trkpt lat="39.386259726525026" lon="16.08914789477983"><ele>1242.0</ele><time>2026-04-27T09:15:36.998Z</time></trkpt><trkpt lat="39.38625665945342" lon="16.089001054072938"><ele>1237.0</ele><time>2026-04-27T09:15:38.998Z</time></trkpt><trkpt lat="39.38622400634732" lon="16.088856924369193"><ele>1235.6</ele><time>2026-04-27T09:15:40.998Z</time></trkpt><trkpt lat="39.38618917765185" lon="16.088738082775663"><ele>1234.2</ele><time>2026-04-27T09:15:42.998Z</time></trkpt><trkpt lat="39.38611230889029" lon="16.088603912479915"><ele>1232.8</ele><time>2026-04-27T09:15:44.998Z</time></trkpt><trkpt lat="39.38606396993779" lon="16.088537457414812"><ele>1231.4</ele><time>2026-04-27T09:15:45.998Z</time></trkpt><trkpt lat="39.386026043119344" lon="16.08846203380273"><ele>1230.0</ele><time>2026-04-27T09:15:46.998Z</time></trkpt><trkpt lat="39.3859900846241" lon="16.088320361628092"><ele>1226.0</ele><time>2026-04-27T09:15:48.998Z</time></trkpt><trkpt lat="39.38589105607878" lon="16.088204299962545"><ele>1222.0</ele><time>2026-04-27T09:15:50.998Z</time></trkpt><trkpt lat="39.38582934715707" lon="16.088161527910806"><ele>1218.0</ele><time>2026-04-27T09:15:51.998Z</time></trkpt><trkpt lat="39.385728621510125" lon="16.088114757210988"><ele>1214.0</ele><time>2026-04-27T09:15:53.998Z</time></trkpt><trkpt lat="39.385664584698304" lon="16.088113000816797"><ele>1210.0</ele><time>2026-04-27T09:15:54.998Z</time></trkpt><trkpt lat="39.38556206244008" lon="16.088148536068996"><ele>1209.0</ele><time>2026-04-27T09:15:56.998Z</time></trkpt><trkpt lat="39.38547472251423" lon="16.0882174236419"><ele>1208.0</ele><time>2026-04-27T09:15:58.998Z</time></trkpt><trkpt lat="39.38542820424238" lon="16.0882829933329"><ele>1207.0</ele><time>2026-04-27T09:15:59.998Z</time></trkpt><trkpt lat="39.38540089370547" lon="16.08840040753447"><ele>1206.0</ele><time>2026-04-27T09:16:01.998Z</time></trkpt><trkpt lat="39.38542003155397" lon="16.08854064575976"><ele>1205.0</ele><time>2026-04-27T09:16:04.998Z</time></trkpt><trkpt lat="39.38543701828205" lon="16.088719640278214"><ele>1205.0</ele><time>2026-04-27T09:16:06.998Z</time></trkpt><trkpt lat="39.38546268904384" lon="16.088845319257196"><ele>1205.0</ele><time>2026-04-27T09:16:07.998Z</time></trkpt><trkpt lat="39.38548857811944" lon="16.088980345495298"><ele>1205.0</ele><time>2026-04-27T09:16:09Z</time></trkpt><trkpt lat="39.38549499243361" lon="16.089063464517974"><ele>1205.0</ele><time>2026-04-27T09:16:10Z</time></trkpt><trkpt lat="39.38547014367224" lon="16.089185994147158"><ele>1205.0</ele><time>2026-04-27T09:16:12Z</time></trkpt><trkpt lat="39.38541337640512" lon="16.089224646900643"><ele>1205.0</ele><time>2026-04-27T09:16:13Z</time></trkpt><trkpt lat="39.38530872071568" lon="16.089246580759237"><ele>1206.6</ele><time>2026-04-27T09:16:14Z</time></trkpt><trkpt lat="39.38518624903438" lon="16.08927116923211"><ele>1208.2</ele><time>2026-04-27T09:16:15Z</time></trkpt><trkpt lat="39.38508876695209" lon="16.08929104977142"><ele>1209.8</ele><time>2026-04-27T09:16:16Z</time></trkpt><trkpt lat="39.38499381911015" lon="16.08930186845354"><ele>1211.4</ele><time>2026-04-27T09:16:17Z</time></trkpt><trkpt lat="39.38490396675447" lon="16.089306206775003"><ele>1213.0</ele><time>2026-04-27T09:16:18Z</time></trkpt><trkpt lat="39.38482063437518" lon="16.089306277427042"><ele>1213.0</ele><time>2026-04-27T09:16:19Z</time></trkpt><trkpt lat="39.384737843635975" lon="16.08933003872163"><ele>1213.0</ele><time>2026-04-27T09:16:20Z</time></trkpt><trkpt lat="39.38465729705076" lon="16.089367570988035"><ele>1213.0</ele><time>2026-04-27T09:16:21Z</time></trkpt><trkpt lat="39.38456241720162" lon="16.089425185448295"><ele>1213.0</ele><time>2026-04-27T09:16:22Z</time></trkpt><trkpt lat="39.3844909257081" lon="16.089473401156294"><ele>1213.0</ele><time>2026-04-27T09:16:23Z</time></trkpt><trkpt lat="39.38442782800922" lon="16.089526278802886"><ele>1213.0</ele><time>2026-04-27T09:16:24Z</time></trkpt><trkpt lat="39.38435968290823" lon="16.089617267033066"><ele>1210.4</ele><time>2026-04-27T09:16:25Z</time></trkpt><trkpt lat="39.384299594543435" lon="16.089704881391793"><ele>1207.8</ele><time>2026-04-27T09:16:26Z</time></trkpt><trkpt lat="39.384240788136424" lon="16.089794398982924"><ele>1205.2</ele><time>2026-04-27T09:16:27Z</time></trkpt><trkpt lat="39.384183726214005" lon="16.089885677088702"><ele>1202.6</ele><time>2026-04-27T09:16:28Z</time></trkpt><trkpt lat="39.384090841747714" lon="16.089992633403188"><ele>1200.0</ele><time>2026-04-27T09:16:30Z</time></trkpt><trkpt lat="39.38406672368922" lon="16.09007670115147"><ele>1200.0</ele><time>2026-04-27T09:16:31Z</time></trkpt><trkpt lat="39.38403958470932" lon="16.090177802121698"><ele>1200.0</ele><time>2026-04-27T09:16:32Z</time></trkpt><trkpt lat="39.38403641902155" lon="16.090338096840576"><ele>1200.0</ele><time>2026-04-27T09:16:32.999Z</time></trkpt><trkpt lat="39.38402699045604" lon="16.09049333740718"><ele>1200.0</ele><time>2026-04-27T09:16:33.999Z</time></trkpt><trkpt lat="39.383992278994505" lon="16.09060956418847"><ele>1200.0</ele><time>2026-04-27T09:16:34.999Z</time></trkpt><trkpt lat="39.383951801866786" lon="16.090735273965734"><ele>1202.0</ele><time>2026-04-27T09:16:36.999Z</time></trkpt><trkpt lat="39.38388873139203" lon="16.09080398725648"><ele>1204.0</ele><time>2026-04-27T09:16:38.999Z</time></trkpt><trkpt lat="39.38375979807499" lon="16.09081809374122"><ele>1206.0</ele><time>2026-04-27T09:16:40.999Z</time></trkpt><trkpt lat="39.38367409700371" lon="16.09083507113455"><ele>1208.0</ele><time>2026-04-27T09:16:41.999Z</time></trkpt><trkpt lat="39.383590000749884" lon="16.09085271024747"><ele>1210.0</ele><time>2026-04-27T09:16:42.999Z</time></trkpt><trkpt lat="39.383497655569585" lon="16.09087749836003"><ele>1205.6</ele><time>2026-04-27T09:16:43.999Z</time></trkpt><trkpt lat="39.38342130726477" lon="16.09090657998727"><ele>1201.2</ele><time>2026-04-27T09:16:44.999Z</time></trkpt><trkpt lat="39.38333255598343" lon="16.090960135415855"><ele>1196.8</ele><time>2026-04-27T09:16:45.999Z</time></trkpt><trkpt lat="39.38323943352015" lon="16.091024759426364"><ele>1192.4</ele><time>2026-04-27T09:16:46.999Z</time></trkpt><trkpt lat="39.38315898794444" lon="16.091092724167243"><ele>1188.0</ele><time>2026-04-27T09:16:47.999Z</time></trkpt><trkpt lat="39.38306750005793" lon="16.09116850831586"><ele>1183.0</ele><time>2026-04-27T09:16:48.999Z</time></trkpt><trkpt lat="39.3829897297772" lon="16.091243967467104"><ele>1178.0</ele><time>2026-04-27T09:16:49.999Z</time></trkpt><trkpt lat="39.38291227575071" lon="16.091290324323325"><ele>1173.0</ele><time>2026-04-27T09:16:50.999Z</time></trkpt><trkpt lat="39.382848156814994" lon="16.09134764188647"><ele>1168.0</ele><time>2026-04-27T09:16:51.999Z</time></trkpt><trkpt lat="39.38277446193681" lon="16.091425768428316"><ele>1163.0</ele><time>2026-04-27T09:16:52.999Z</time></trkpt><trkpt lat="39.382712262260576" lon="16.091524670472747"><ele>1165.6666666666667</ele><time>2026-04-27T09:16:53.999Z</time></trkpt><trkpt lat="39.38264982792052" lon="16.091625384500293"><ele>1168.3333333333335</ele><time>2026-04-27T09:16:54.999Z</time></trkpt><trkpt lat="39.38258186078791" lon="16.091698192932988"><ele>1171.0</ele><time>2026-04-27T09:16:55.999Z</time></trkpt><trkpt lat="39.38254189864549" lon="16.091767350293576"><ele>1173.6666666666667</ele><time>2026-04-27T09:16:56.999Z</time></trkpt><trkpt lat="39.382485084230524" lon="16.09183805568144"><ele>1176.3333333333333</ele><time>2026-04-27T09:16:57.999Z</time></trkpt><trkpt lat="39.382441959014685" lon="16.091905071103206"><ele>1179.0</ele><time>2026-04-27T09:16:58.999Z</time></trkpt><trkpt lat="39.38236535213804" lon="16.09197819567086"><ele>1179.0</ele><time>2026-04-27T09:17:00.999Z</time></trkpt><trkpt lat="39.3823016865409" lon="16.092008499752975"><ele>1179.0</ele><time>2026-04-27T09:17:01.999Z</time></trkpt><trkpt lat="39.382208952069334" lon="16.092014441804434"><ele>1179.0</ele><time>2026-04-27T09:17:02.999Z</time></trkpt><trkpt lat="39.38211457563089" lon="16.092035055454552"><ele>1179.0</ele><time>2026-04-27T09:17:03.999Z</time></trkpt><trkpt lat="39.382010930807326" lon="16.09202972967208"><ele>1179.0</ele><time>2026-04-27T09:17:04.999Z</time></trkpt><trkpt lat="39.38190095323699" lon="16.092021144827694"><ele>1176.3333333333333</ele><time>2026-04-27T09:17:05.999Z</time></trkpt><trkpt lat="39.38181012557393" lon="16.092018360030174"><ele>1173.6666666666667</ele><time>2026-04-27T09:17:06.999Z</time></trkpt><trkpt lat="39.38172559848173" lon="16.09203631336893"><ele>1171.0</ele><time>2026-04-27T09:17:07.999Z</time></trkpt><trkpt lat="39.38163990155964" lon="16.09204281985263"><ele>1168.3333333333335</ele><time>2026-04-27T09:17:08.999Z</time></trkpt><trkpt lat="39.38154433627826" lon="16.092038028057313"><ele>1165.6666666666667</ele><time>2026-04-27T09:17:09.999Z</time></trkpt><trkpt lat="39.38146634363883" lon="16.09202736022762"><ele>1163.0</ele><time>2026-04-27T09:17:10.999Z</time></trkpt><trkpt lat="39.38139675389013" lon="16.092068216027208"><ele>1162.0</ele><time>2026-04-27T09:17:11.999Z</time></trkpt><trkpt lat="39.38132491008015" lon="16.0921287926021"><ele>1161.0</ele><time>2026-04-27T09:17:12.999Z</time></trkpt><trkpt lat="39.38124050818932" lon="16.09221672657801"><ele>1160.0</ele><time>2026-04-27T09:17:13.999Z</time></trkpt><trkpt lat="39.3811512362216" lon="16.09231446831054"><ele>1159.0</ele><time>2026-04-27T09:17:14.999Z</time></trkpt><trkpt lat="39.3810495162747" lon="16.09238447659196"><ele>1158.0</ele><time>2026-04-27T09:17:15.999Z</time></trkpt><trkpt lat="39.380932602242375" lon="16.092418166709844"><ele>1159.75</ele><time>2026-04-27T09:17:16.999Z</time></trkpt><trkpt lat="39.380824824128155" lon="16.092440959047863"><ele>1161.5</ele><time>2026-04-27T09:17:17.999Z</time></trkpt><trkpt lat="39.38070654822133" lon="16.092466605837178"><ele>1163.25</ele><time>2026-04-27T09:17:18.999Z</time></trkpt><trkpt lat="39.380559122467915" lon="16.092489523081095"><ele>1165.0</ele><time>2026-04-27T09:17:19.999Z</time></trkpt><trkpt lat="39.38039889201278" lon="16.09251403992257"><ele>1165.0</ele><time>2026-04-27T09:17:20.999Z</time></trkpt><trkpt lat="39.38025156304068" lon="16.092534673187846"><ele>1165.0</ele><time>2026-04-27T09:17:21.999Z</time></trkpt><trkpt lat="39.380129016003664" lon="16.092587518817034"><ele>1165.0</ele><time>2026-04-27T09:17:22.999Z</time></trkpt><trkpt lat="39.38000655060699" lon="16.09263410089425"><ele>1165.0</ele><time>2026-04-27T09:17:23.999Z</time></trkpt><trkpt lat="39.379892437190065" lon="16.092643452219097"><ele>1165.0</ele><time>2026-04-27T09:17:24.999Z</time></trkpt><trkpt lat="39.37979741427007" lon="16.09267879983869"><ele>1165.0</ele><time>2026-04-27T09:17:25.999Z</time></trkpt><trkpt lat="39.37969886848942" lon="16.092706038569332"><ele>1165.0</ele><time>2026-04-27T09:17:26.999Z</time></trkpt><trkpt lat="39.37959719532261" lon="16.092769469359396"><ele>1165.0</ele><time>2026-04-27T09:17:27.999Z</time></trkpt><trkpt lat="39.37951146756715" lon="16.092822180373798"><ele>1165.0</ele><time>2026-04-27T09:17:28.999Z</time></trkpt><trkpt lat="39.37942395269206" lon="16.092867549732386"><ele>1164.1666666666665</ele><time>2026-04-27T09:17:29.999Z</time></trkpt><trkpt lat="39.37934605932538" lon="16.092899543571804"><ele>1163.3333333333333</ele><time>2026-04-27T09:17:30.999Z</time></trkpt><trkpt lat="39.37927300377932" lon="16.092933670137434"><ele>1162.5</ele><time>2026-04-27T09:17:31.999Z</time></trkpt><trkpt lat="39.3791751728401" lon="16.0929379969285"><ele>1161.6666666666667</ele><time>2026-04-27T09:17:32.999Z</time></trkpt><trkpt lat="39.37907736797242" lon="16.09292807622017"><ele>1160.8333333333335</ele><time>2026-04-27T09:17:33.999Z</time></trkpt><trkpt lat="39.378998185853355" lon="16.09291792729311"><ele>1160.0</ele><time>2026-04-27T09:17:34.999Z</time></trkpt><trkpt lat="39.37890827557641" lon="16.092914398438516"><ele>1159.3333333333335</ele><time>2026-04-27T09:17:35.999Z</time></trkpt><trkpt lat="39.37883976862368" lon="16.09294268763687"><ele>1158.6666666666667</ele><time>2026-04-27T09:17:36.998Z</time></trkpt><trkpt lat="39.37878247258161" lon="16.09298740068611"><ele>1158.0</ele><time>2026-04-27T09:17:37.998Z</time></trkpt><trkpt lat="39.37873145908844" lon="16.09304054492253"><ele>1157.3333333333333</ele><time>2026-04-27T09:17:38.998Z</time></trkpt><trkpt lat="39.37862822955807" lon="16.09302552830972"><ele>1156.6666666666665</ele><time>2026-04-27T09:17:40.998Z</time></trkpt><trkpt lat="39.37854075253753" lon="16.09297079522518"><ele>1156.0</ele><time>2026-04-27T09:17:41.998Z</time></trkpt><trkpt lat="39.37842853558459" lon="16.0928969166508"><ele>1156.0</ele><time>2026-04-27T09:17:42.998Z</time></trkpt><trkpt lat="39.37830974305066" lon="16.092831010130197"><ele>1156.0</ele><time>2026-04-27T09:17:43.998Z</time></trkpt><trkpt lat="39.378173310125234" lon="16.092768648745174"><ele>1156.0</ele><time>2026-04-27T09:17:44.998Z</time></trkpt><trkpt lat="39.37806213068926" lon="16.09272837092596"><ele>1156.0</ele><time>2026-04-27T09:17:45.998Z</time></trkpt><trkpt lat="39.37798269115002" lon="16.092656805250666"><ele>1156.3999999999999</ele><time>2026-04-27T09:17:46.998Z</time></trkpt><trkpt lat="39.377891026276444" lon="16.092581225834618"><ele>1156.8</ele><time>2026-04-27T09:17:47.998Z</time></trkpt><trkpt lat="39.37781604555993" lon="16.092472560387797"><ele>1157.1999999999998</ele><time>2026-04-27T09:17:48.998Z</time></trkpt><trkpt lat="39.377726150363884" lon="16.092375665926035"><ele>1157.6</ele><time>2026-04-27T09:17:49.998Z</time></trkpt><trkpt lat="39.37764584637389" lon="16.092281155020174"><ele>1158.0</ele><time>2026-04-27T09:17:50.998Z</time></trkpt><trkpt lat="39.37759775408321" lon="16.092209984034525"><ele>1155.4</ele><time>2026-04-27T09:17:51.998Z</time></trkpt><trkpt lat="39.377527702017545" lon="16.092133838609705"><ele>1152.8</ele><time>2026-04-27T09:17:53.998Z</time></trkpt><trkpt lat="39.37741975806338" lon="16.09219659900306"><ele>1150.2</ele><time>2026-04-27T09:17:55.998Z</time></trkpt><trkpt lat="39.37732590948256" lon="16.09225916272401"><ele>1147.6</ele><time>2026-04-27T09:17:56.998Z</time></trkpt><trkpt lat="39.377199043450005" lon="16.09230344333656"><ele>1145.0</ele><time>2026-04-27T09:17:57.998Z</time></trkpt><trkpt lat="39.37707052873476" lon="16.09232200298847"><ele>1145.0</ele><time>2026-04-27T09:17:58.998Z</time></trkpt><trkpt lat="39.376963017553706" lon="16.09230632488026"><ele>1145.0</ele><time>2026-04-27T09:17:59.998Z</time></trkpt><trkpt lat="39.37684569649386" lon="16.092260219103057"><ele>1145.0</ele><time>2026-04-27T09:18:00.998Z</time></trkpt><trkpt lat="39.37672047163802" lon="16.09225101884133"><ele>1145.0</ele><time>2026-04-27T09:18:01.998Z</time></trkpt><trkpt lat="39.37658723081438" lon="16.092243488134145"><ele>1145.0</ele><time>2026-04-27T09:18:02.998Z</time></trkpt><trkpt lat="39.37645390752895" lon="16.092215499965697"><ele>1145.0</ele><time>2026-04-27T09:18:03.998Z</time></trkpt><trkpt lat="39.37632041922324" lon="16.092219751157334"><ele>1145.0</ele><time>2026-04-27T09:18:04.998Z</time></trkpt><trkpt lat="39.37617215300664" lon="16.09222992985174"><ele>1145.0</ele><time>2026-04-27T09:18:05.998Z</time></trkpt><trkpt lat="39.376010691596704" lon="16.092249075505073"><ele>1145.0</ele><time>2026-04-27T09:18:06.998Z</time></trkpt><trkpt lat="39.37582825051495" lon="16.092273977108857"><ele>1145.0</ele><time>2026-04-27T09:18:07.998Z</time></trkpt><trkpt lat="39.37565505143593" lon="16.092306472183846"><ele>1145.0</ele><time>2026-04-27T09:18:08.998Z</time></trkpt><trkpt lat="39.37550951043792" lon="16.092352721709567"><ele>1145.0</ele><time>2026-04-27T09:18:09.998Z</time></trkpt><trkpt lat="39.375382642727885" lon="16.092382770050207"><ele>1145.0</ele><time>2026-04-27T09:18:10.998Z</time></trkpt><trkpt lat="39.37524833513588" lon="16.0923931653998"><ele>1145.0</ele><time>2026-04-27T09:18:11.998Z</time></trkpt><trkpt lat="39.37510766831221" lon="16.092393226209804"><ele>1145.0</ele><time>2026-04-27T09:18:12.998Z</time></trkpt><trkpt lat="39.37497986319081" lon="16.09241960139242"><ele>1146.75</ele><time>2026-04-27T09:18:13.998Z</time></trkpt><trkpt lat="39.37486123453222" lon="16.09245209954799"><ele>1148.5</ele><time>2026-04-27T09:18:15Z</time></trkpt><trkpt lat="39.37474782387487" lon="16.092502619306277"><ele>1150.25</ele><time>2026-04-27T09:18:16Z</time></trkpt><trkpt lat="39.37464542031196" lon="16.092570868793608"><ele>1152.0</ele><time>2026-04-27T09:18:17Z</time></trkpt><trkpt lat="39.374528315782015" lon="16.09265444106634"><ele>1152.0</ele><time>2026-04-27T09:18:18Z</time></trkpt><trkpt lat="39.374394104866724" lon="16.09277447327838"><ele>1152.0</ele><time>2026-04-27T09:18:19Z</time></trkpt><trkpt lat="39.37427650495623" lon="16.092864645834787"><ele>1152.0</ele><time>2026-04-27T09:18:20Z</time></trkpt><trkpt lat="39.3741459912937" lon="16.092940956282494"><ele>1152.0</ele><time>2026-04-27T09:18:21Z</time></trkpt><trkpt lat="39.37400867589872" lon="16.09300769446189"><ele>1152.0</ele><time>2026-04-27T09:18:22Z</time></trkpt><trkpt lat="39.373857340270014" lon="16.093068569105"><ele>1152.0</ele><time>2026-04-27T09:18:23Z</time></trkpt><trkpt lat="39.37369847251907" lon="16.093104784909517"><ele>1152.0</ele><time>2026-04-27T09:18:24Z</time></trkpt><trkpt lat="39.373534708523835" lon="16.093104853108592"><ele>1152.5</ele><time>2026-04-27T09:18:25Z</time></trkpt><trkpt lat="39.37340065301855" lon="16.09312289502598"><ele>1153.0</ele><time>2026-04-27T09:18:26Z</time></trkpt><trkpt lat="39.37326057039931" lon="16.093164868699766"><ele>1153.5</ele><time>2026-04-27T09:18:27Z</time></trkpt><trkpt lat="39.373154279103986" lon="16.09323908071659"><ele>1154.0</ele><time>2026-04-27T09:18:28Z</time></trkpt><trkpt lat="39.37304714662103" lon="16.093308279632915"><ele>1150.5</ele><time>2026-04-27T09:18:29Z</time></trkpt><trkpt lat="39.37293795673922" lon="16.09341302341439"><ele>1147.0</ele><time>2026-04-27T09:18:30Z</time></trkpt><trkpt lat="39.37283146554434" lon="16.09351274780089"><ele>1143.5</ele><time>2026-04-27T09:18:31Z</time></trkpt><trkpt lat="39.372732334533914" lon="16.09360100741024"><ele>1140.0</ele><time>2026-04-27T09:18:32Z</time></trkpt><trkpt lat="39.37261652208856" lon="16.093688336718163"><ele>1140.0</ele><time>2026-04-27T09:18:33Z</time></trkpt><trkpt lat="39.37249943680378" lon="16.0937709101685"><ele>1140.0</ele><time>2026-04-27T09:18:34Z</time></trkpt><trkpt lat="39.37237702357689" lon="16.09384592494491"><ele>1140.0</ele><time>2026-04-27T09:18:35Z</time></trkpt><trkpt lat="39.37226058736422" lon="16.09392298379264"><ele>1140.0</ele><time>2026-04-27T09:18:36Z</time></trkpt><trkpt lat="39.37212992044489" lon="16.093984366898347"><ele>1139.6</ele><time>2026-04-27T09:18:37Z</time></trkpt><trkpt lat="39.37203809095181" lon="16.09402082609486"><ele>1139.2</ele><time>2026-04-27T09:18:37.999Z</time></trkpt><trkpt lat="39.37194722995355" lon="16.09403467307589"><ele>1138.8</ele><time>2026-04-27T09:18:38.999Z</time></trkpt><trkpt lat="39.3718515494323" lon="16.094010783683572"><ele>1138.4</ele><time>2026-04-27T09:18:39.999Z</time></trkpt><trkpt lat="39.37174524925761" lon="16.093959771879607"><ele>1138.0</ele><time>2026-04-27T09:18:40.999Z</time></trkpt><trkpt lat="39.37163559264929" lon="16.093910554290005"><ele>1138.0</ele><time>2026-04-27T09:18:41.999Z</time></trkpt><trkpt lat="39.37150699676192" lon="16.093890317156234"><ele>1138.0</ele><time>2026-04-27T09:18:42.999Z</time></trkpt><trkpt lat="39.3713607973821" lon="16.093922130595143"><ele>1138.0</ele><time>2026-04-27T09:18:43.999Z</time></trkpt><trkpt lat="39.37122939992303" lon="16.09396511640465"><ele>1138.0</ele><time>2026-04-27T09:18:44.999Z</time></trkpt><trkpt lat="39.37111118044136" lon="16.094012402542578"><ele>1135.75</ele><time>2026-04-27T09:18:45.999Z</time></trkpt><trkpt lat="39.37097054458725" lon="16.09407641972464"><ele>1133.5</ele><time>2026-04-27T09:18:46.999Z</time></trkpt><trkpt lat="39.37083429993415" lon="16.094142043498323"><ele>1131.25</ele><time>2026-04-27T09:18:47.999Z</time></trkpt><trkpt lat="39.37068880313527" lon="16.094173615397846"><ele>1129.0</ele><time>2026-04-27T09:18:48.999Z</time></trkpt><trkpt lat="39.370540773289186" lon="16.09419403066908"><ele>1133.25</ele><time>2026-04-27T09:18:49.999Z</time></trkpt><trkpt lat="39.37039557316482" lon="16.09420812953299"><ele>1137.5</ele><time>2026-04-27T09:18:50.999Z</time></trkpt><trkpt lat="39.37024934847014" lon="16.09423306216225"><ele>1141.75</ele><time>2026-04-27T09:18:51.999Z</time></trkpt><trkpt lat="39.37012449460929" lon="16.094315022149342"><ele>1146.0</ele><time>2026-04-27T09:18:52.999Z</time></trkpt><trkpt lat="39.36998882332512" lon="16.09440373845198"><ele>1146.0</ele><time>2026-04-27T09:18:53.999Z</time></trkpt><trkpt lat="39.36985286026317" lon="16.094473046444016"><ele>1146.0</ele><time>2026-04-27T09:18:54.999Z</time></trkpt><trkpt lat="39.36971830156944" lon="16.094513974539243"><ele>1146.0</ele><time>2026-04-27T09:18:55.999Z</time></trkpt><trkpt lat="39.3695752493157" lon="16.094547635057534"><ele>1146.0</ele><time>2026-04-27T09:18:56.999Z</time></trkpt><trkpt lat="39.36944057873559" lon="16.094559614404368"><ele>1147.5</ele><time>2026-04-27T09:18:57.999Z</time></trkpt><trkpt lat="39.369355301091744" lon="16.094540254753227"><ele>1149.0</ele><time>2026-04-27T09:18:58.999Z</time></trkpt><trkpt lat="39.36923820371474" lon="16.09448959653414"><ele>1150.5</ele><time>2026-04-27T09:18:59.999Z</time></trkpt><trkpt lat="39.36910589898609" lon="16.094405187041904"><ele>1152.0</ele><time>2026-04-27T09:19:00.999Z</time></trkpt><trkpt lat="39.368980401213065" lon="16.094299066734163"><ele>1151.3333333333333</ele><time>2026-04-27T09:19:01.999Z</time></trkpt><trkpt lat="39.36884590772782" lon="16.094216163032712"><ele>1150.6666666666665</ele><time>2026-04-27T09:19:02.999Z</time></trkpt><trkpt lat="39.36870414395139" lon="16.09411952683051"><ele>1150.0</ele><time>2026-04-27T09:19:03.999Z</time></trkpt><trkpt lat="39.3685608013206" lon="16.094011234186585"><ele>1150.0</ele><time>2026-04-27T09:19:04.999Z</time></trkpt><trkpt lat="39.36840879704698" lon="16.093920508520604"><ele>1150.0</ele><time>2026-04-27T09:19:05.999Z</time></trkpt><trkpt lat="39.36826754212895" lon="16.093845550968283"><ele>1150.0</ele><time>2026-04-27T09:19:06.999Z</time></trkpt><trkpt lat="39.36813255339264" lon="16.093753900537713"><ele>1152.75</ele><time>2026-04-27T09:19:07.999Z</time></trkpt><trkpt lat="39.36801531364049" lon="16.093662647013545"><ele>1155.5</ele><time>2026-04-27T09:19:08.999Z</time></trkpt><trkpt lat="39.36786472335289" lon="16.09360387258445"><ele>1158.25</ele><time>2026-04-27T09:19:09.999Z</time></trkpt><trkpt lat="39.367754933934066" lon="16.093526624485676"><ele>1161.0</ele><time>2026-04-27T09:19:10.999Z</time></trkpt><trkpt lat="39.367644324374226" lon="16.09348843127018"><ele>1161.0</ele><time>2026-04-27T09:19:11.999Z</time></trkpt><trkpt lat="39.36756989626916" lon="16.093442089005237"><ele>1161.0</ele><time>2026-04-27T09:19:12.999Z</time></trkpt><trkpt lat="39.3675051854378" lon="16.093424658605045"><ele>1161.0</ele><time>2026-04-27T09:19:13.999Z</time></trkpt><trkpt lat="39.367390581533456" lon="16.093452944180846"><ele>1161.0</ele><time>2026-04-27T09:19:14.999Z</time></trkpt><trkpt lat="39.36728966680469" lon="16.09349231544437"><ele>1161.0</ele><time>2026-04-27T09:19:15.999Z</time></trkpt><trkpt lat="39.3671803515122" lon="16.09350983905883"><ele>1160.5</ele><time>2026-04-27T09:19:16.999Z</time></trkpt><trkpt lat="39.367062870603924" lon="16.09347962862232"><ele>1160.0</ele><time>2026-04-27T09:19:17.999Z</time></trkpt><trkpt lat="39.366924077505374" lon="16.09342281438114"><ele>1159.5</ele><time>2026-04-27T09:19:18.999Z</time></trkpt><trkpt lat="39.366786099805914" lon="16.093374305487412"><ele>1159.0</ele><time>2026-04-27T09:19:19.999Z</time></trkpt><trkpt lat="39.36665276480341" lon="16.093344250199088"><ele>1159.0</ele><time>2026-04-27T09:19:20.999Z</time></trkpt><trkpt lat="39.36652866965674" lon="16.09334008635815"><ele>1159.0</ele><time>2026-04-27T09:19:21.999Z</time></trkpt><trkpt lat="39.36641131054217" lon="16.09333783630404"><ele>1159.0</ele><time>2026-04-27T09:19:22.999Z</time></trkpt><trkpt lat="39.366298045187804" lon="16.093368675631183"><ele>1159.0</ele><time>2026-04-27T09:19:23.999Z</time></trkpt><trkpt lat="39.366209208088094" lon="16.093374993518488"><ele>1159.0</ele><time>2026-04-27T09:19:24.999Z</time></trkpt><trkpt lat="39.36609992205613" lon="16.0933464206521"><ele>1157.75</ele><time>2026-04-27T09:19:25.999Z</time></trkpt><trkpt lat="39.36599196657472" lon="16.09329916054888"><ele>1156.5</ele><time>2026-04-27T09:19:26.999Z</time></trkpt><trkpt lat="39.365894494498775" lon="16.093226343986306"><ele>1155.25</ele><time>2026-04-27T09:19:27.999Z</time></trkpt><trkpt lat="39.36579508609537" lon="16.093181112707775"><ele>1154.0</ele><time>2026-04-27T09:19:28.999Z</time></trkpt><trkpt lat="39.36567480660445" lon="16.093199853665503"><ele>1154.0</ele><time>2026-04-27T09:19:30.999Z</time></trkpt><trkpt lat="39.36556145393062" lon="16.093275669745182"><ele>1154.0</ele><time>2026-04-27T09:19:31.999Z</time></trkpt><trkpt lat="39.365425411979444" lon="16.093375856408617"><ele>1154.0</ele><time>2026-04-27T09:19:32.999Z</time></trkpt><trkpt lat="39.365301420539446" lon="16.093480086011592"><ele>1154.0</ele><time>2026-04-27T09:19:33.999Z</time></trkpt><trkpt lat="39.36519744298793" lon="16.093576964524082"><ele>1155.25</ele><time>2026-04-27T09:19:34.999Z</time></trkpt><trkpt lat="39.36507992673476" lon="16.09367610483517"><ele>1156.5</ele><time>2026-04-27T09:19:35.999Z</time></trkpt><trkpt lat="39.36495757266436" lon="16.093773568408476"><ele>1157.75</ele><time>2026-04-27T09:19:36.999Z</time></trkpt><trkpt lat="39.36485255332258" lon="16.093828809681533"><ele>1159.0</ele><time>2026-04-27T09:19:37.999Z</time></trkpt><trkpt lat="39.36473213721648" lon="16.09384387860546"><ele>1158.0</ele><time>2026-04-27T09:19:38.999Z</time></trkpt><trkpt lat="39.36459460205238" lon="16.09384346967042"><ele>1157.0</ele><time>2026-04-27T09:19:39.999Z</time></trkpt><trkpt lat="39.364451702743295" lon="16.093833386800306"><ele>1156.0</ele><time>2026-04-27T09:19:40.998Z</time></trkpt><trkpt lat="39.364329524079025" lon="16.093811194293963"><ele>1155.0</ele><time>2026-04-27T09:19:41.998Z</time></trkpt><trkpt lat="39.36422066827451" lon="16.093828241416208"><ele>1155.0</ele><time>2026-04-27T09:19:42.998Z</time></trkpt><trkpt lat="39.36413544617575" lon="16.093864683086274"><ele>1155.0</ele><time>2026-04-27T09:19:43.998Z</time></trkpt><trkpt lat="39.36402969967777" lon="16.093929470016022"><ele>1155.0</ele><time>2026-04-27T09:19:44.998Z</time></trkpt><trkpt lat="39.36389941603643" lon="16.094002666639405"><ele>1155.0</ele><time>2026-04-27T09:19:45.998Z</time></trkpt><trkpt lat="39.363781557338285" lon="16.09407141618566"><ele>1152.8</ele><time>2026-04-27T09:19:46.998Z</time></trkpt><trkpt lat="39.36367103352407" lon="16.09411404395048"><ele>1150.6</ele><time>2026-04-27T09:19:47.998Z</time></trkpt><trkpt lat="39.363585357127256" lon="16.09415790651625"><ele>1148.4</ele><time>2026-04-27T09:19:48.998Z</time></trkpt><trkpt lat="39.3634847604913" lon="16.094196370330828"><ele>1146.2</ele><time>2026-04-27T09:19:49.998Z</time></trkpt><trkpt lat="39.36338693828806" lon="16.094176100943443"><ele>1144.0</ele><time>2026-04-27T09:19:50.998Z</time></trkpt><trkpt lat="39.36326971524265" lon="16.09416102938918"><ele>1144.0</ele><time>2026-04-27T09:19:51.998Z</time></trkpt><trkpt lat="39.36313660721354" lon="16.094124368745714"><ele>1144.0</ele><time>2026-04-27T09:19:52.998Z</time></trkpt><trkpt lat="39.36299213267162" lon="16.094137434144564"><ele>1144.0</ele><time>2026-04-27T09:19:53.998Z</time></trkpt><trkpt lat="39.36286531316315" lon="16.094173604103283"><ele>1144.0</ele><time>2026-04-27T09:19:54.998Z</time></trkpt><trkpt lat="39.36276645637881" lon="16.09422411356074"><ele>1143.0</ele><time>2026-04-27T09:19:55.998Z</time></trkpt><trkpt lat="39.362664249830985" lon="16.094261713340043"><ele>1142.0</ele><time>2026-04-27T09:19:56.998Z</time></trkpt><trkpt lat="39.36253597377211" lon="16.094268901645002"><ele>1141.0</ele><time>2026-04-27T09:19:57.998Z</time></trkpt><trkpt lat="39.36240236552613" lon="16.09427293171908"><ele>1140.0</ele><time>2026-04-27T09:19:58.998Z</time></trkpt><trkpt lat="39.36225454760742" lon="16.094255774640004"><ele>1139.0</ele><time>2026-04-27T09:19:59.998Z</time></trkpt><trkpt lat="39.362106156279125" lon="16.09424349475956"><ele>1138.0</ele><time>2026-04-27T09:20:00.998Z</time></trkpt><trkpt lat="39.36195664767665" lon="16.094235428724623"><ele>1137.0</ele><time>2026-04-27T09:20:01.998Z</time></trkpt><trkpt lat="39.36178181705725" lon="16.094267865515974"><ele>1137.0</ele><time>2026-04-27T09:20:02.998Z</time></trkpt><trkpt lat="39.3616038111469" lon="16.094298177796343"><ele>1137.0</ele><time>2026-04-27T09:20:03.998Z</time></trkpt><trkpt lat="39.36143823060097" lon="16.094324172741047"><ele>1137.0</ele><time>2026-04-27T09:20:04.998Z</time></trkpt><trkpt lat="39.361302393788456" lon="16.0943641592699"><ele>1135.2</ele><time>2026-04-27T09:20:05.998Z</time></trkpt><trkpt lat="39.361192039764646" lon="16.094406788882182"><ele>1133.4</ele><time>2026-04-27T09:20:06.998Z</time></trkpt><trkpt lat="39.36111253413129" lon="16.094488767323803"><ele>1131.6</ele><time>2026-04-27T09:20:07.998Z</time></trkpt><trkpt lat="39.361025838286906" lon="16.094568056235016"><ele>1129.8</ele><time>2026-04-27T09:20:08.998Z</time></trkpt><trkpt lat="39.36093006647868" lon="16.094656852812584"><ele>1128.0</ele><time>2026-04-27T09:20:09.998Z</time></trkpt><trkpt lat="39.36084700797721" lon="16.094761242483244"><ele>1128.0</ele><time>2026-04-27T09:20:10.998Z</time></trkpt><trkpt lat="39.36077980246388" lon="16.094884885111"><ele>1128.0</ele><time>2026-04-27T09:20:11.998Z</time></trkpt><trkpt lat="39.36070099424818" lon="16.095017674869226"><ele>1128.0</ele><time>2026-04-27T09:20:12.998Z</time></trkpt><trkpt lat="39.36060356199907" lon="16.095119135818763"><ele>1128.0</ele><time>2026-04-27T09:20:13.998Z</time></trkpt><trkpt lat="39.36050900645828" lon="16.09523116693262"><ele>1130.4</ele><time>2026-04-27T09:20:14.998Z</time></trkpt><trkpt lat="39.36043044227258" lon="16.09531184666979"><ele>1132.8</ele><time>2026-04-27T09:20:15.998Z</time></trkpt><trkpt lat="39.3603541790902" lon="16.09535420817993"><ele>1135.2</ele><time>2026-04-27T09:20:16.998Z</time></trkpt><trkpt lat="39.36028234634813" lon="16.095331645714527"><ele>1137.6</ele><time>2026-04-27T09:20:17.998Z</time></trkpt><trkpt lat="39.36020405950802" lon="16.095290276820894"><ele>1140.0</ele><time>2026-04-27T09:20:18.998Z</time></trkpt><trkpt lat="39.3601175312826" lon="16.09520662690732"><ele>1140.0</ele><time>2026-04-27T09:20:19.998Z</time></trkpt><trkpt lat="39.36003112861044" lon="16.095130045162975"><ele>1140.0</ele><time>2026-04-27T09:20:21Z</time></trkpt><trkpt lat="39.35991356309724" lon="16.095041884003656"><ele>1140.0</ele><time>2026-04-27T09:20:22Z</time></trkpt><trkpt lat="39.35982476753639" lon="16.09491253104967"><ele>1140.0</ele><time>2026-04-27T09:20:23Z</time></trkpt><trkpt lat="39.359733219060345" lon="16.09475972691311"><ele>1144.6666666666667</ele><time>2026-04-27T09:20:24Z</time></trkpt><trkpt lat="39.359645977833075" lon="16.094607618342494"><ele>1149.3333333333335</ele><time>2026-04-27T09:20:25Z</time></trkpt><trkpt lat="39.359549353581585" lon="16.094457302607857"><ele>1154.0</ele><time>2026-04-27T09:20:26Z</time></trkpt><trkpt lat="39.359480297464295" lon="16.094281700714912"><ele>1154.0</ele><time>2026-04-27T09:20:27Z</time></trkpt><trkpt lat="39.35941088544087" lon="16.09413863244859"><ele>1154.0</ele><time>2026-04-27T09:20:28Z</time></trkpt><trkpt lat="39.359406368204624" lon="16.093975432263306"><ele>1154.0</ele><time>2026-04-27T09:20:29Z</time></trkpt><trkpt lat="39.35945288704978" lon="16.09385851777074"><ele>1154.0</ele><time>2026-04-27T09:20:30Z</time></trkpt><trkpt lat="39.359478708676384" lon="16.093750580247338"><ele>1154.0</ele><time>2026-04-27T09:20:31Z</time></trkpt><trkpt lat="39.35943234519819" lon="16.093650866345403"><ele>1152.4</ele><time>2026-04-27T09:20:33Z</time></trkpt><trkpt lat="39.35935237974256" lon="16.09368919228314"><ele>1150.8000000000002</ele><time>2026-04-27T09:20:35Z</time></trkpt><trkpt lat="39.35930649433389" lon="16.09376352381783"><ele>1149.1999999999998</ele><time>2026-04-27T09:20:36Z</time></trkpt><trkpt lat="39.35919820276161" lon="16.093786158679958"><ele>1147.6</ele><time>2026-04-27T09:20:38Z</time></trkpt><trkpt lat="39.35904638334778" lon="16.093771318589468"><ele>1146.0</ele><time>2026-04-27T09:20:39.999Z</time></trkpt><trkpt lat="39.358954140175065" lon="16.093714465985357"><ele>1146.6</ele><time>2026-04-27T09:20:40.999Z</time></trkpt><trkpt lat="39.358846629683256" lon="16.09367286457637"><ele>1147.1999999999998</ele><time>2026-04-27T09:20:41.999Z</time></trkpt><trkpt lat="39.35874119914368" lon="16.093678921145624"><ele>1147.8000000000002</ele><time>2026-04-27T09:20:42.999Z</time></trkpt><trkpt lat="39.35866552347373" lon="16.093681860114962"><ele>1148.4</ele><time>2026-04-27T09:20:43.999Z</time></trkpt><trkpt lat="39.35854700673449" lon="16.093738624549232"><ele>1149.0</ele><time>2026-04-27T09:20:45.999Z</time></trkpt><trkpt lat="39.358498174470256" lon="16.09381972058995"><ele>1149.0</ele><time>2026-04-27T09:20:46.999Z</time></trkpt><trkpt lat="39.35845482553953" lon="16.09395035227589"><ele>1149.0</ele><time>2026-04-27T09:20:47.999Z</time></trkpt><trkpt lat="39.3584011582748" lon="16.09406590842142"><ele>1149.0</ele><time>2026-04-27T09:20:48.999Z</time></trkpt><trkpt lat="39.35833168857367" lon="16.0941304548525"><ele>1149.0</ele><time>2026-04-27T09:20:49.999Z</time></trkpt><trkpt lat="39.35823613280231" lon="16.094193247316028"><ele>1149.0</ele><time>2026-04-27T09:20:50.999Z</time></trkpt><trkpt lat="39.358135540909494" lon="16.09422845160246"><ele>1150.6666666666667</ele><time>2026-04-27T09:20:51.999Z</time></trkpt><trkpt lat="39.35806584913794" lon="16.094188598085044"><ele>1152.3333333333333</ele><time>2026-04-27T09:20:52.999Z</time></trkpt><trkpt lat="39.35799184342798" lon="16.09413209172315"><ele>1154.0</ele><time>2026-04-27T09:20:53.999Z</time></trkpt><trkpt lat="39.35792141814907" lon="16.094066788302747"><ele>1155.6666666666665</ele><time>2026-04-27T09:20:54.999Z</time></trkpt><trkpt lat="39.35785026969003" lon="16.09398690404737"><ele>1157.3333333333333</ele><time>2026-04-27T09:20:55.999Z</time></trkpt><trkpt lat="39.357790742866364" lon="16.093875949445625"><ele>1159.0</ele><time>2026-04-27T09:20:56.999Z</time></trkpt><trkpt lat="39.3577134012907" lon="16.093762221418388"><ele>1160.5</ele><time>2026-04-27T09:20:57.999Z</time></trkpt><trkpt lat="39.35760780103724" lon="16.09364936354218"><ele>1162.0</ele><time>2026-04-27T09:20:58.999Z</time></trkpt><trkpt lat="39.35751141464373" lon="16.093562471748854"><ele>1163.5</ele><time>2026-04-27T09:20:59.999Z</time></trkpt><trkpt lat="39.35743164587133" lon="16.093476389643758"><ele>1165.0</ele><time>2026-04-27T09:21:00.999Z</time></trkpt><trkpt lat="39.357321820426996" lon="16.093346463040486"><ele>1165.0</ele><time>2026-04-27T09:21:01.999Z</time></trkpt><trkpt lat="39.3572343985249" lon="16.09328917717694"><ele>1165.0</ele><time>2026-04-27T09:21:02.999Z</time></trkpt><trkpt lat="39.35713508489656" lon="16.093258503423396"><ele>1165.0</ele><time>2026-04-27T09:21:03.999Z</time></trkpt><trkpt lat="39.357028677283346" lon="16.093218453839565"><ele>1165.0</ele><time>2026-04-27T09:21:04.999Z</time></trkpt><trkpt lat="39.35691057206372" lon="16.09319859070331"><ele>1165.0</ele><time>2026-04-27T09:21:05.999Z</time></trkpt><trkpt lat="39.35678278248315" lon="16.09316565049704"><ele>1163.6666666666665</ele><time>2026-04-27T09:21:06.999Z</time></trkpt><trkpt lat="39.3566472123875" lon="16.093185300594488"><ele>1162.3333333333333</ele><time>2026-04-27T09:21:07.999Z</time></trkpt><trkpt lat="39.35649924722488" lon="16.09312845777536"><ele>1161.0</ele><time>2026-04-27T09:21:08.999Z</time></trkpt><trkpt lat="39.35634526590172" lon="16.09304097941111"><ele>1161.0</ele><time>2026-04-27T09:21:09.999Z</time></trkpt><trkpt lat="39.3562245493603" lon="16.09295829516771"><ele>1161.0</ele><time>2026-04-27T09:21:10.999Z</time></trkpt><trkpt lat="39.35608963374461" lon="16.092902646621237"><ele>1161.0</ele><time>2026-04-27T09:21:11.999Z</time></trkpt><trkpt lat="39.355963217520326" lon="16.092817011451857"><ele>1161.0</ele><time>2026-04-27T09:21:12.999Z</time></trkpt><trkpt lat="39.355844471002456" lon="16.0927500832294"><ele>1161.0</ele><time>2026-04-27T09:21:13.999Z</time></trkpt><trkpt lat="39.35572079208361" lon="16.092701286084772"><ele>1161.0</ele><time>2026-04-27T09:21:14.999Z</time></trkpt><trkpt lat="39.355602691570716" lon="16.092684453826017"><ele>1161.0</ele><time>2026-04-27T09:21:15.999Z</time></trkpt><trkpt lat="39.35549707702996" lon="16.092665920884038"><ele>1161.0</ele><time>2026-04-27T09:21:16.999Z</time></trkpt><trkpt lat="39.35537053136051" lon="16.092653823720955"><ele>1161.6</ele><time>2026-04-27T09:21:17.999Z</time></trkpt><trkpt lat="39.35525053832059" lon="16.09262636679716"><ele>1162.1999999999998</ele><time>2026-04-27T09:21:18.999Z</time></trkpt><trkpt lat="39.355135192650806" lon="16.09261062375192"><ele>1162.8000000000002</ele><time>2026-04-27T09:21:19.999Z</time></trkpt><trkpt lat="39.355051219601876" lon="16.092615585144706"><ele>1163.4</ele><time>2026-04-27T09:21:20.999Z</time></trkpt><trkpt lat="39.35497742451973" lon="16.092621610514943"><ele>1164.0</ele><time>2026-04-27T09:21:21.999Z</time></trkpt><trkpt lat="39.35488089690147" lon="16.092607233713593"><ele>1164.0</ele><time>2026-04-27T09:21:22.999Z</time></trkpt><trkpt lat="39.354770722513265" lon="16.092538109225483"><ele>1164.0</ele><time>2026-04-27T09:21:23.999Z</time></trkpt><trkpt lat="39.35465906133677" lon="16.09245159462567"><ele>1164.0</ele><time>2026-04-27T09:21:24.999Z</time></trkpt><trkpt lat="39.354592535647114" lon="16.092356808327857"><ele>1164.0</ele><time>2026-04-27T09:21:25.999Z</time></trkpt><trkpt lat="39.35449221284867" lon="16.09225764181228"><ele>1163.4</ele><time>2026-04-27T09:21:26.999Z</time></trkpt><trkpt lat="39.35439620016602" lon="16.0921815115548"><ele>1162.8000000000002</ele><time>2026-04-27T09:21:27.999Z</time></trkpt><trkpt lat="39.35432681777141" lon="16.092127318820804"><ele>1162.1999999999998</ele><time>2026-04-27T09:21:28.999Z</time></trkpt><trkpt lat="39.35423661157546" lon="16.092041103541288"><ele>1161.6</ele><time>2026-04-27T09:21:29.999Z</time></trkpt><trkpt lat="39.35415438732613" lon="16.091980319011206"><ele>1161.0</ele><time>2026-04-27T09:21:30.999Z</time></trkpt><trkpt lat="39.35404497186772" lon="16.091892771690738"><ele>1161.0</ele><time>2026-04-27T09:21:31.999Z</time></trkpt><trkpt lat="39.35394298674319" lon="16.091821376928426"><ele>1161.0</ele><time>2026-04-27T09:21:32.999Z</time></trkpt><trkpt lat="39.35386010569991" lon="16.091752911633712"><ele>1161.0</ele><time>2026-04-27T09:21:33.999Z</time></trkpt><trkpt lat="39.35376059825243" lon="16.091690551466712"><ele>1161.0</ele><time>2026-04-27T09:21:34.999Z</time></trkpt><trkpt lat="39.35366490366246" lon="16.09163489678789"><ele>1161.0</ele><time>2026-04-27T09:21:35.999Z</time></trkpt><trkpt lat="39.353593458013734" lon="16.091594094528148"><ele>1159.25</ele><time>2026-04-27T09:21:36.999Z</time></trkpt><trkpt lat="39.353532749486206" lon="16.091568641276154"><ele>1157.5</ele><time>2026-04-27T09:21:37.999Z</time></trkpt><trkpt lat="39.3534585513608" lon="16.091590759376693"><ele>1155.75</ele><time>2026-04-27T09:21:39.999Z</time></trkpt><trkpt lat="39.35348730925166" lon="16.091848464107127"><ele>1154.0</ele><time>2026-04-27T09:21:54.998Z</time></trkpt><trkpt lat="39.353573888713214" lon="16.09213085209536"><ele>1154.0</ele><time>2026-04-27T09:21:56.998Z</time></trkpt><trkpt lat="39.35358513511021" lon="16.092287632086418"><ele>1154.0</ele><time>2026-04-27T09:21:57.998Z</time></trkpt><trkpt lat="39.353607915807785" lon="16.09245493552025"><ele>1154.0</ele><time>2026-04-27T09:21:58.998Z</time></trkpt><trkpt lat="39.35363345477718" lon="16.092613615883657"><ele>1154.0</ele><time>2026-04-27T09:21:59.998Z</time></trkpt><trkpt lat="39.35364505722034" lon="16.092730879769068"><ele>1152.75</ele><time>2026-04-27T09:22:00.998Z</time></trkpt><trkpt lat="39.353687373638934" lon="16.092865012445618"><ele>1151.5</ele><time>2026-04-27T09:22:01.998Z</time></trkpt><trkpt lat="39.35374338723987" lon="16.092996308354543"><ele>1150.25</ele><time>2026-04-27T09:22:02.998Z</time></trkpt><trkpt lat="39.35381925768372" lon="16.09312128588512"><ele>1149.0</ele><time>2026-04-27T09:22:03.998Z</time></trkpt><trkpt lat="39.35390629024028" lon="16.093232031319896"><ele>1148.6000000000001</ele><time>2026-04-27T09:22:04.998Z</time></trkpt><trkpt lat="39.35397605451889" lon="16.09334795861676"><ele>1148.2</ele><time>2026-04-27T09:22:05.998Z</time></trkpt><trkpt lat="39.35404772669545" lon="16.09346535067671"><ele>1147.8000000000002</ele><time>2026-04-27T09:22:06.998Z</time></trkpt><trkpt lat="39.35409415730024" lon="16.093581210530328"><ele>1147.4</ele><time>2026-04-27T09:22:07.998Z</time></trkpt><trkpt lat="39.35412089169743" lon="16.093698922218405"><ele>1147.0</ele><time>2026-04-27T09:22:08.998Z</time></trkpt><trkpt lat="39.354132726253034" lon="16.0938306549062"><ele>1147.0</ele><time>2026-04-27T09:22:09.998Z</time></trkpt><trkpt lat="39.35413528212873" lon="16.093969167267982"><ele>1147.0</ele><time>2026-04-27T09:22:10.998Z</time></trkpt><trkpt lat="39.35413503110317" lon="16.09408002021598"><ele>1147.0</ele><time>2026-04-27T09:22:11.998Z</time></trkpt><trkpt lat="39.354143183668576" lon="16.094210114571247"><ele>1147.0</ele><time>2026-04-27T09:22:12.998Z</time></trkpt><trkpt lat="39.3541698577021" lon="16.094314719610388"><ele>1147.0</ele><time>2026-04-27T09:22:13.998Z</time></trkpt><trkpt lat="39.35421064846583" lon="16.09438038948026"><ele>1147.0</ele><time>2026-04-27T09:22:14.998Z</time></trkpt><trkpt lat="39.354273298932114" lon="16.09442867282663"><ele>1146.0</ele><time>2026-04-27T09:22:15.998Z</time></trkpt><trkpt lat="39.354377571869776" lon="16.094458220732513"><ele>1145.0</ele><time>2026-04-27T09:22:16.998Z</time></trkpt><trkpt lat="39.35449856193162" lon="16.09447401431322"><ele>1144.0</ele><time>2026-04-27T09:22:17.998Z</time></trkpt><trkpt lat="39.354582012235724" lon="16.09450727544637"><ele>1143.0</ele><time>2026-04-27T09:22:18.998Z</time></trkpt><trkpt lat="39.35463759345646" lon="16.094573125112557"><ele>1142.0</ele><time>2026-04-27T09:22:19.998Z</time></trkpt><trkpt lat="39.354712804159014" lon="16.09466649016594"><ele>1142.0</ele><time>2026-04-27T09:22:20.998Z</time></trkpt><trkpt lat="39.35480423425212" lon="16.094783188411014"><ele>1142.0</ele><time>2026-04-27T09:22:21.998Z</time></trkpt><trkpt lat="39.35485190638853" lon="16.094878143336956"><ele>1142.0</ele><time>2026-04-27T09:22:22.998Z</time></trkpt><trkpt lat="39.35487455535378" lon="16.094967921134874"><ele>1142.0</ele><time>2026-04-27T09:22:23.998Z</time></trkpt><trkpt lat="39.354869547782926" lon="16.09509062475661"><ele>1142.0</ele><time>2026-04-27T09:22:24.998Z</time></trkpt><trkpt lat="39.35484320037434" lon="16.095248764292673"><ele>1137.0</ele><time>2026-04-27T09:22:25.998Z</time></trkpt><trkpt lat="39.35479639975839" lon="16.095409529224757"><ele>1132.0</ele><time>2026-04-27T09:22:27Z</time></trkpt><trkpt lat="39.35477605460579" lon="16.095538214444026"><ele>1127.0</ele><time>2026-04-27T09:22:28Z</time></trkpt><trkpt lat="39.354758580311206" lon="16.095694817448997"><ele>1122.0</ele><time>2026-04-27T09:22:29Z</time></trkpt><trkpt lat="39.35475252481952" lon="16.09586720458683"><ele>1119.8</ele><time>2026-04-27T09:22:30Z</time></trkpt><trkpt lat="39.35474649225995" lon="16.09600195558374"><ele>1117.6</ele><time>2026-04-27T09:22:31Z</time></trkpt><trkpt lat="39.354738066198465" lon="16.096121707602222"><ele>1115.3999999999999</ele><time>2026-04-27T09:22:32Z</time></trkpt><trkpt lat="39.35471366837612" lon="16.09623572610163"><ele>1113.2</ele><time>2026-04-27T09:22:33Z</time></trkpt><trkpt lat="39.3546718223579" lon="16.09636485975026"><ele>1111.0</ele><time>2026-04-27T09:22:34Z</time></trkpt><trkpt lat="39.3546249720618" lon="16.09652408757927"><ele>1111.0</ele><time>2026-04-27T09:22:35Z</time></trkpt><trkpt lat="39.35456550306563" lon="16.096683436428805"><ele>1111.0</ele><time>2026-04-27T09:22:36Z</time></trkpt><trkpt lat="39.354508495191915" lon="16.096827290357588"><ele>1111.0</ele><time>2026-04-27T09:22:37Z</time></trkpt><trkpt lat="39.354447906350934" lon="16.096949523396066"><ele>1111.0</ele><time>2026-04-27T09:22:38Z</time></trkpt><trkpt lat="39.35435905631178" lon="16.097096010383655"><ele>1111.0</ele><time>2026-04-27T09:22:39Z</time></trkpt><trkpt lat="39.35426629739047" lon="16.097198411617757"><ele>1111.0</ele><time>2026-04-27T09:22:40Z</time></trkpt><trkpt lat="39.35418534795262" lon="16.09728776385021"><ele>1111.0</ele><time>2026-04-27T09:22:41Z</time></trkpt><trkpt lat="39.354105299360576" lon="16.097363402915885"><ele>1111.0</ele><time>2026-04-27T09:22:41.999Z</time></trkpt><trkpt lat="39.35401602929366" lon="16.0974241106348"><ele>1111.0</ele><time>2026-04-27T09:22:42.999Z</time></trkpt><trkpt lat="39.35390252379687" lon="16.097474217945113"><ele>1109.6</ele><time>2026-04-27T09:22:43.999Z</time></trkpt><trkpt lat="39.35378374184339" lon="16.09750099902943"><ele>1108.1999999999998</ele><time>2026-04-27T09:22:44.999Z</time></trkpt><trkpt lat="39.35369656177988" lon="16.097542637123787"><ele>1106.8000000000002</ele><time>2026-04-27T09:22:45.999Z</time></trkpt><trkpt lat="39.35362064938135" lon="16.097630980156744"><ele>1105.4</ele><time>2026-04-27T09:22:46.999Z</time></trkpt><trkpt lat="39.353603086121936" lon="16.097715674229477"><ele>1104.0</ele><time>2026-04-27T09:22:47.999Z</time></trkpt><trkpt lat="39.35361292270265" lon="16.097849606632256"><ele>1104.0</ele><time>2026-04-27T09:22:48.999Z</time></trkpt><trkpt lat="39.35362756808795" lon="16.097993711211412"><ele>1104.0</ele><time>2026-04-27T09:22:49.999Z</time></trkpt><trkpt lat="39.35361744755176" lon="16.098174569528936"><ele>1104.0</ele><time>2026-04-27T09:22:50.999Z</time></trkpt><trkpt lat="39.35358585815228" lon="16.09831296887741"><ele>1104.0</ele><time>2026-04-27T09:22:51.999Z</time></trkpt><trkpt lat="39.35354484127156" lon="16.098444039745154"><ele>1103.4</ele><time>2026-04-27T09:22:52.999Z</time></trkpt><trkpt lat="39.35350908062608" lon="16.098556447863064"><ele>1102.8000000000002</ele><time>2026-04-27T09:22:53.999Z</time></trkpt><trkpt lat="39.35347129901958" lon="16.09868044316224"><ele>1102.1999999999998</ele><time>2026-04-27T09:22:54.999Z</time></trkpt><trkpt lat="39.353432912619226" lon="16.09879345490568"><ele>1101.6</ele><time>2026-04-27T09:22:55.999Z</time></trkpt><trkpt lat="39.353394670625775" lon="16.09890403931841"><ele>1101.0</ele><time>2026-04-27T09:22:56.999Z</time></trkpt><trkpt lat="39.353351299637815" lon="16.09901502370678"><ele>1101.8</ele><time>2026-04-27T09:22:57.999Z</time></trkpt><trkpt lat="39.35331122571102" lon="16.09912215223348"><ele>1102.6</ele><time>2026-04-27T09:22:58.999Z</time></trkpt><trkpt lat="39.35326172988085" lon="16.099217366462184"><ele>1103.4</ele><time>2026-04-27T09:22:59.999Z</time></trkpt><trkpt lat="39.35322044507941" lon="16.099329598119578"><ele>1104.2</ele><time>2026-04-27T09:23:01.999Z</time></trkpt><trkpt lat="39.35317422860537" lon="16.099459895598134"><ele>1105.0</ele><time>2026-04-27T09:23:03.999Z</time></trkpt><trkpt lat="39.35313156294458" lon="16.09954724693856"><ele>1105.0</ele><time>2026-04-27T09:23:04.999Z</time></trkpt><trkpt lat="39.353106092611476" lon="16.099669858293296"><ele>1105.0</ele><time>2026-04-27T09:23:05.999Z</time></trkpt><trkpt lat="39.353076081149744" lon="16.099782775735264"><ele>1105.0</ele><time>2026-04-27T09:23:06.999Z</time></trkpt><trkpt lat="39.35303239462477" lon="16.099892270629656"><ele>1105.0</ele><time>2026-04-27T09:23:07.999Z</time></trkpt><trkpt lat="39.352970066911304" lon="16.100031013999363"><ele>1105.0</ele><time>2026-04-27T09:23:08.999Z</time></trkpt><trkpt lat="39.352921633564975" lon="16.100129717822917"><ele>1108.5</ele><time>2026-04-27T09:23:09.999Z</time></trkpt><trkpt lat="39.352863215280294" lon="16.100221639987463"><ele>1112.0</ele><time>2026-04-27T09:23:10.999Z</time></trkpt><trkpt lat="39.35279454904795" lon="16.100329332266583"><ele>1115.5</ele><time>2026-04-27T09:23:11.999Z</time></trkpt><trkpt lat="39.352741782350655" lon="16.100407288779756"><ele>1119.0</ele><time>2026-04-27T09:23:12.999Z</time></trkpt><trkpt lat="39.35268239926984" lon="16.100484797164018"><ele>1122.5</ele><time>2026-04-27T09:23:13.999Z</time></trkpt><trkpt lat="39.352628001235736" lon="16.100544281589706"><ele>1126.0</ele><time>2026-04-27T09:23:14.999Z</time></trkpt><trkpt lat="39.35256831597678" lon="16.100587895587207"><ele>1126.0</ele><time>2026-04-27T09:23:15.999Z</time></trkpt><trkpt lat="39.35252103911265" lon="16.100642214212083"><ele>1126.0</ele><time>2026-04-27T09:23:16.999Z</time></trkpt><trkpt lat="39.35245801320705" lon="16.10071367034322"><ele>1126.0</ele><time>2026-04-27T09:23:17.999Z</time></trkpt><trkpt lat="39.35237754915802" lon="16.10077765120145"><ele>1126.0</ele><time>2026-04-27T09:23:19.999Z</time></trkpt><trkpt lat="39.35232509994417" lon="16.1008542845178"><ele>1126.0</ele><time>2026-04-27T09:23:21.999Z</time></trkpt><trkpt lat="39.352252781094414" lon="16.100901942310507"><ele>1126.0</ele><time>2026-04-27T09:23:23.999Z</time></trkpt><trkpt lat="39.35217333628566" lon="16.100967490215233"><ele>1127.1666666666665</ele><time>2026-04-27T09:23:26.999Z</time></trkpt><trkpt lat="39.352163929674504" lon="16.101076051874205"><ele>1128.3333333333333</ele><time>2026-04-27T09:23:29.999Z</time></trkpt><trkpt lat="39.352164921230255" lon="16.101209677738538"><ele>1129.5</ele><time>2026-04-27T09:23:32.999Z</time></trkpt><trkpt lat="39.3521661853121" lon="16.101292949350526"><ele>1130.6666666666667</ele><time>2026-04-27T09:23:33.999Z</time></trkpt><trkpt lat="39.35217519828765" lon="16.101386989039636"><ele>1131.8333333333335</ele><time>2026-04-27T09:23:34.999Z</time></trkpt><trkpt lat="39.35216814866798" lon="16.101469822843352"><ele>1133.0</ele><time>2026-04-27T09:23:36.999Z</time></trkpt><trkpt lat="39.352131823857334" lon="16.101546469905394"><ele>1136.5</ele><time>2026-04-27T09:23:42.999Z</time></trkpt><trkpt lat="39.3521303773119" lon="16.101644221229893"><ele>1140.0</ele><time>2026-04-27T09:23:44.999Z</time></trkpt><trkpt lat="39.3521066875944" lon="16.101728902580874"><ele>1143.5</ele><time>2026-04-27T09:23:46.999Z</time></trkpt><trkpt lat="39.35206383599786" lon="16.101805241023772"><ele>1147.0</ele><time>2026-04-27T09:23:49.998Z</time></trkpt><trkpt lat="39.35204400760568" lon="16.101895526000213"><ele>1150.5</ele><time>2026-04-27T09:23:53.998Z</time></trkpt><trkpt lat="39.351999154653505" lon="16.101965419937187"><ele>1154.0</ele><time>2026-04-27T09:23:57.998Z</time></trkpt><trkpt lat="39.35197399253615" lon="16.102084866297552"><ele>1154.0</ele><time>2026-04-27T09:24:11.998Z</time></trkpt><trkpt lat="39.351938619116" lon="16.102152865842946"><ele>1154.0</ele><time>2026-04-27T09:24:40Z</time></trkpt><trkpt lat="39.35193933053567" lon="16.10223757568304"><ele>1154.0</ele><time>2026-04-27T09:24:57.999Z</time></trkpt><trkpt lat="39.35196136061822" lon="16.102316371041347"><ele>1154.0</ele><time>2026-04-27T09:26:00.998Z</time></trkpt><trkpt lat="39.351976512639006" lon="16.10243884627805"><ele>1154.0</ele><time>2026-04-27T09:26:04.998Z</time></trkpt><trkpt lat="39.35196419249574" lon="16.102563033270602"><ele>1154.0</ele><time>2026-04-27T09:26:06.998Z</time></trkpt><trkpt lat="39.351983397672655" lon="16.10264973923701"><ele>1155.8</ele><time>2026-04-27T09:26:08.998Z</time></trkpt><trkpt lat="39.35203840859036" lon="16.102769835097366"><ele>1157.6000000000001</ele><time>2026-04-27T09:26:10.998Z</time></trkpt><trkpt lat="39.352081371653064" lon="16.102891964943932"><ele>1159.4</ele><time>2026-04-27T09:26:12.998Z</time></trkpt><trkpt lat="39.3520987893604" lon="16.10301250312222"><ele>1161.2</ele><time>2026-04-27T09:26:14.998Z</time></trkpt><trkpt lat="39.35209849617913" lon="16.10315039303771"><ele>1163.0</ele><time>2026-04-27T09:26:16.998Z</time></trkpt><trkpt lat="39.352055295138975" lon="16.103260572445375"><ele>1164.6666666666667</ele><time>2026-04-27T09:26:18.998Z</time></trkpt><trkpt lat="39.352004616258526" lon="16.10332392288313"><ele>1166.3333333333335</ele><time>2026-04-27T09:26:20.998Z</time></trkpt><trkpt lat="39.351954902526714" lon="16.10343454955791"><ele>1168.0</ele><time>2026-04-27T09:26:22.998Z</time></trkpt><trkpt lat="39.35193414500423" lon="16.103533229099362"><ele>1169.6666666666667</ele><time>2026-04-27T09:26:23.998Z</time></trkpt><trkpt lat="39.35191420088634" lon="16.10364985918649"><ele>1171.3333333333333</ele><time>2026-04-27T09:26:24.998Z</time></trkpt><trkpt lat="39.35187596080479" lon="16.10377376797479"><ele>1173.0</ele><time>2026-04-27T09:26:25.998Z</time></trkpt><trkpt lat="39.351852233063475" lon="16.10388356137203"><ele>1173.0</ele><time>2026-04-27T09:26:26.998Z</time></trkpt><trkpt lat="39.35177576858263" lon="16.10400364746636"><ele>1173.0</ele><time>2026-04-27T09:26:28.998Z</time></trkpt><trkpt lat="39.351673369938304" lon="16.104113253855925"><ele>1173.0</ele><time>2026-04-27T09:26:30.998Z</time></trkpt><trkpt lat="39.3516211396006" lon="16.104172432975343"><ele>1173.0</ele><time>2026-04-27T09:26:31.998Z</time></trkpt><trkpt lat="39.35159127127" lon="16.10429936788616"><ele>1173.0</ele><time>2026-04-27T09:26:33.998Z</time></trkpt><trkpt lat="39.35153745890905" lon="16.104394276749236"><ele>1175.8333333333333</ele><time>2026-04-27T09:26:35.998Z</time></trkpt><trkpt lat="39.35148437487995" lon="16.10447511053157"><ele>1178.6666666666667</ele><time>2026-04-27T09:26:37.998Z</time></trkpt><trkpt lat="39.35146015809469" lon="16.1046257596859"><ele>1181.5</ele><time>2026-04-27T09:26:40Z</time></trkpt><trkpt lat="39.35144891535696" lon="16.104718327517205"><ele>1184.3333333333335</ele><time>2026-04-27T09:26:41Z</time></trkpt><trkpt lat="39.35143274379457" lon="16.1048100154394"><ele>1187.1666666666667</ele><time>2026-04-27T09:26:42Z</time></trkpt><trkpt lat="39.351417575065625" lon="16.104900655836097"><ele>1190.0</ele><time>2026-04-27T09:26:43Z</time></trkpt><trkpt lat="39.351384552747746" lon="16.104994555020177"><ele>1190.4285714285713</ele><time>2026-04-27T09:26:44Z</time></trkpt><trkpt lat="39.35135137472667" lon="16.105071966455103"><ele>1190.857142857143</ele><time>2026-04-27T09:26:45Z</time></trkpt><trkpt lat="39.35135130117818" lon="16.105169635803783"><ele>1191.2857142857142</ele><time>2026-04-27T09:26:48Z</time></trkpt><trkpt lat="39.35129413973822" lon="16.10520588226574"><ele>1191.7142857142858</ele><time>2026-04-27T09:26:53Z</time></trkpt><trkpt lat="39.351369256943485" lon="16.105263548613905"><ele>1192.142857142857</ele><time>2026-04-27T09:27:53.999Z</time></trkpt><trkpt lat="39.351294192011444" lon="16.105284120584656"><ele>1192.5714285714284</ele><time>2026-04-27T09:29:38.999Z</time></trkpt><trkpt lat="39.35134450400418" lon="16.105356962665507"><ele>1193.0</ele><time>2026-04-27T09:33:01.999Z</time></trkpt><trkpt lat="39.351409521120964" lon="16.105390784750554"><ele>1194.0</ele><time>2026-04-27T09:33:03.999Z</time></trkpt><trkpt lat="39.351456833441375" lon="16.10545684306022"><ele>1195.0</ele><time>2026-04-27T09:33:08.999Z</time></trkpt><trkpt lat="39.35152271389047" lon="16.105502900488585"><ele>1196.0</ele><time>2026-04-27T09:33:10.999Z</time></trkpt><trkpt lat="39.35161731455456" lon="16.10553925737302"><ele>1197.0</ele><time>2026-04-27T09:33:12.999Z</time></trkpt><trkpt lat="39.35167984295576" lon="16.10552474443594"><ele>1198.0</ele><time>2026-04-27T09:33:13.999Z</time></trkpt><trkpt lat="39.35174645650795" lon="16.105516271079257"><ele>1199.0</ele><time>2026-04-27T09:33:14.999Z</time></trkpt><trkpt lat="39.351820662765135" lon="16.10549186517688"><ele>1199.0</ele><time>2026-04-27T09:33:16.999Z</time></trkpt><trkpt lat="39.351901928662166" lon="16.105481048971797"><ele>1199.0</ele><time>2026-04-27T09:33:17.999Z</time></trkpt><trkpt lat="39.35197513175226" lon="16.10544911457811"><ele>1199.0</ele><time>2026-04-27T09:33:19.999Z</time></trkpt><trkpt lat="39.35188233656547" lon="16.10546692419727"><ele>1199.0</ele><time>2026-04-27T09:33:52.999Z</time></trkpt><trkpt lat="39.35180074436754" lon="16.105496738627043"><ele>1199.0</ele><time>2026-04-27T09:33:55.999Z</time></trkpt><trkpt lat="39.35170389579933" lon="16.1054829100869"><ele>1199.0</ele><time>2026-04-27T09:33:58.999Z</time></trkpt><trkpt lat="39.35162663501095" lon="16.105490368741393"><ele>1199.0</ele><time>2026-04-27T09:34:01.999Z</time></trkpt><trkpt lat="39.35154796002754" lon="16.10549303664426"><ele>1199.0</ele><time>2026-04-27T09:34:04.999Z</time></trkpt><trkpt lat="39.35147211647678" lon="16.10553907877499"><ele>1199.0</ele><time>2026-04-27T09:34:22.998Z</time></trkpt><trkpt lat="39.351389445084685" lon="16.1055151887653"><ele>1199.0</ele><time>2026-04-27T09:34:26.998Z</time></trkpt><trkpt lat="39.35133503059075" lon="16.10556085028707"><ele>1199.0</ele><time>2026-04-27T09:34:28.998Z</time></trkpt><trkpt lat="39.35125997667567" lon="16.10562030967653"><ele>1199.0</ele><time>2026-04-27T09:34:30.998Z</time></trkpt><trkpt lat="39.351202539607606" lon="16.105686990003736"><ele>1198.2</ele><time>2026-04-27T09:34:33.998Z</time></trkpt><trkpt lat="39.351163540065436" lon="16.105777205122813"><ele>1197.4</ele><time>2026-04-27T09:34:36.998Z</time></trkpt><trkpt lat="39.35111041525776" lon="16.10589819362128"><ele>1196.6</ele><time>2026-04-27T09:34:38.998Z</time></trkpt><trkpt lat="39.35105680036303" lon="16.1060037848862"><ele>1195.8</ele><time>2026-04-27T09:34:40.998Z</time></trkpt><trkpt lat="39.35101929230258" lon="16.1060695802927"><ele>1195.0</ele><time>2026-04-27T09:34:41.998Z</time></trkpt><trkpt lat="39.35095484522199" lon="16.106191833026017"><ele>1195.0</ele><time>2026-04-27T09:34:43.998Z</time></trkpt><trkpt lat="39.350863058401394" lon="16.106293574263255"><ele>1195.0</ele><time>2026-04-27T09:34:45.998Z</time></trkpt><trkpt lat="39.35078782240755" lon="16.106387062691162"><ele>1195.0</ele><time>2026-04-27T09:34:47.998Z</time></trkpt><trkpt lat="39.350741218794404" lon="16.106524840064434"><ele>1195.0</ele><time>2026-04-27T09:34:49.998Z</time></trkpt><trkpt lat="39.350680891200604" lon="16.10665863262753"><ele>1192.6666666666665</ele><time>2026-04-27T09:34:51.998Z</time></trkpt><trkpt lat="39.350657281919304" lon="16.106760137136277"><ele>1190.3333333333333</ele><time>2026-04-27T09:34:52.998Z</time></trkpt><trkpt lat="39.35062972708762" lon="16.10684369037216"><ele>1188.0</ele><time>2026-04-27T09:34:53.998Z</time></trkpt><trkpt lat="39.35059004742071" lon="16.106921176984788"><ele>1185.6666666666667</ele><time>2026-04-27T09:34:54.998Z</time></trkpt><trkpt lat="39.3505817191491" lon="16.10705244951474"><ele>1183.3333333333335</ele><time>2026-04-27T09:34:56.998Z</time></trkpt><trkpt lat="39.35059620026459" lon="16.10714314730561"><ele>1181.0</ele><time>2026-04-27T09:34:57.998Z</time></trkpt><trkpt lat="39.3506161458181" lon="16.10726459337929"><ele>1181.0</ele><time>2026-04-27T09:34:58.998Z</time></trkpt><trkpt lat="39.35063893152992" lon="16.10739414488861"><ele>1181.0</ele><time>2026-04-27T09:34:59.998Z</time></trkpt><trkpt lat="39.35066556366742" lon="16.107534563621833"><ele>1181.0</ele><time>2026-04-27T09:35:00.998Z</time></trkpt><trkpt lat="39.35068513977687" lon="16.10769648705397"><ele>1181.0</ele><time>2026-04-27T09:35:01.998Z</time></trkpt><trkpt lat="39.350711321879494" lon="16.107827750147347"><ele>1181.0</ele><time>2026-04-27T09:35:02.999Z</time></trkpt><trkpt lat="39.350731342920874" lon="16.107962964152815"><ele>1180.6</ele><time>2026-04-27T09:35:03.999Z</time></trkpt><trkpt lat="39.350741130173425" lon="16.108104885229025"><ele>1180.1999999999998</ele><time>2026-04-27T09:35:04.999Z</time></trkpt><trkpt lat="39.35074649096118" lon="16.108238495130863"><ele>1179.8000000000002</ele><time>2026-04-27T09:35:05.999Z</time></trkpt><trkpt lat="39.35077227560958" lon="16.108334666343197"><ele>1179.4</ele><time>2026-04-27T09:35:06.999Z</time></trkpt><trkpt lat="39.35078229349379" lon="16.108462568798753"><ele>1179.0</ele><time>2026-04-27T09:35:07.999Z</time></trkpt><trkpt lat="39.35079799733941" lon="16.108576726881147"><ele>1178.2</ele><time>2026-04-27T09:35:08.999Z</time></trkpt><trkpt lat="39.35080478948088" lon="16.10870731236693"><ele>1177.4</ele><time>2026-04-27T09:35:09.999Z</time></trkpt><trkpt lat="39.350827674366734" lon="16.10881122313909"><ele>1176.6</ele><time>2026-04-27T09:35:10.999Z</time></trkpt><trkpt lat="39.35085839964078" lon="16.108900181417024"><ele>1175.8</ele><time>2026-04-27T09:35:11.999Z</time></trkpt><trkpt lat="39.35089983095685" lon="16.109024516260178"><ele>1175.0</ele><time>2026-04-27T09:35:12.999Z</time></trkpt><trkpt lat="39.35096490874626" lon="16.10917823367975"><ele>1175.0</ele><time>2026-04-27T09:35:13.999Z</time></trkpt><trkpt lat="39.351022784384824" lon="16.109333803419286"><ele>1175.0</ele><time>2026-04-27T09:35:14.999Z</time></trkpt><trkpt lat="39.35109128599817" lon="16.109466095433152"><ele>1175.0</ele><time>2026-04-27T09:35:15.999Z</time></trkpt><trkpt lat="39.351158985957504" lon="16.10960721297703"><ele>1175.0</ele><time>2026-04-27T09:35:16.999Z</time></trkpt><trkpt lat="39.351206802223615" lon="16.109742033368963"><ele>1175.0</ele><time>2026-04-27T09:35:17.999Z</time></trkpt><trkpt lat="39.351260789154885" lon="16.109882943467948"><ele>1175.0</ele><time>2026-04-27T09:35:18.999Z</time></trkpt><trkpt lat="39.35130338582975" lon="16.110017995208487"><ele>1175.0</ele><time>2026-04-27T09:35:19.999Z</time></trkpt><trkpt lat="39.35132810368906" lon="16.11013661424848"><ele>1175.0</ele><time>2026-04-27T09:35:20.999Z</time></trkpt><trkpt lat="39.35134710167425" lon="16.110239092564004"><ele>1175.0</ele><time>2026-04-27T09:35:21.999Z</time></trkpt><trkpt lat="39.351323781606986" lon="16.1103463546734"><ele>1173.6</ele><time>2026-04-27T09:35:23.999Z</time></trkpt><trkpt lat="39.35123403185222" lon="16.110375441356997"><ele>1172.2</ele><time>2026-04-27T09:35:25.999Z</time></trkpt><trkpt lat="39.35108264346508" lon="16.11038582593311"><ele>1170.8</ele><time>2026-04-27T09:35:27.999Z</time></trkpt><trkpt lat="39.351004122239836" lon="16.1104127008247"><ele>1169.4</ele><time>2026-04-27T09:35:28.999Z</time></trkpt><trkpt lat="39.35093102150302" lon="16.110435006956912"><ele>1168.0</ele><time>2026-04-27T09:35:29.999Z</time></trkpt><trkpt lat="39.350862783204825" lon="16.110449604742378"><ele>1168.0</ele><time>2026-04-27T09:35:30.999Z</time></trkpt><trkpt lat="39.35079655748306" lon="16.110442548520556"><ele>1168.0</ele><time>2026-04-27T09:35:31.999Z</time></trkpt><trkpt lat="39.35073053509797" lon="16.110428322192735"><ele>1168.0</ele><time>2026-04-27T09:35:32.999Z</time></trkpt><trkpt lat="39.350653398829984" lon="16.11039894445835"><ele>1168.0</ele><time>2026-04-27T09:35:33.999Z</time></trkpt><trkpt lat="39.350574738736036" lon="16.11036466688257"><ele>1168.0</ele><time>2026-04-27T09:35:34.999Z</time></trkpt><trkpt lat="39.35050017408627" lon="16.110316244887215"><ele>1168.0</ele><time>2026-04-27T09:35:35.999Z</time></trkpt><trkpt lat="39.35044251636228" lon="16.110278938377935"><ele>1168.0</ele><time>2026-04-27T09:35:36.999Z</time></trkpt><trkpt lat="39.350361593901674" lon="16.11030333083879"><ele>1168.0</ele><time>2026-04-27T09:35:38.999Z</time></trkpt><trkpt lat="39.350268692788354" lon="16.110391291144087"><ele>1168.0</ele><time>2026-04-27T09:35:40.999Z</time></trkpt><trkpt lat="39.35018802463113" lon="16.1103989873555"><ele>1168.0</ele><time>2026-04-27T09:35:42.999Z</time></trkpt><trkpt lat="39.35012558380185" lon="16.110384665978014"><ele>1168.0</ele><time>2026-04-27T09:35:43.999Z</time></trkpt><trkpt lat="39.35004547060293" lon="16.110358922189857"><ele>1168.0</ele><time>2026-04-27T09:35:44.999Z</time></trkpt><trkpt lat="39.34997923187823" lon="16.110334750620407"><ele>1168.0</ele><time>2026-04-27T09:35:45.999Z</time></trkpt><trkpt lat="39.34990354079688" lon="16.11029634681516"><ele>1168.0</ele><time>2026-04-27T09:35:46.999Z</time></trkpt><trkpt lat="39.349827220382195" lon="16.110265787526025"><ele>1168.0</ele><time>2026-04-27T09:35:47.999Z</time></trkpt><trkpt lat="39.34975319546463" lon="16.110241780564568"><ele>1168.0</ele><time>2026-04-27T09:35:48.999Z</time></trkpt><trkpt lat="39.34967892896099" lon="16.11022904119254"><ele>1168.0</ele><time>2026-04-27T09:35:49.999Z</time></trkpt><trkpt lat="39.34960263259885" lon="16.110238291452667"><ele>1168.0</ele><time>2026-04-27T09:35:50.999Z</time></trkpt><trkpt lat="39.349528811491425" lon="16.110293483416786"><ele>1168.0</ele><time>2026-04-27T09:35:51.999Z</time></trkpt><trkpt lat="39.349466923704114" lon="16.110348640203352"><ele>1168.1666666666665</ele><time>2026-04-27T09:35:52.999Z</time></trkpt><trkpt lat="39.34941299491402" lon="16.110399342608265"><ele>1168.3333333333333</ele><time>2026-04-27T09:35:53.999Z</time></trkpt><trkpt lat="39.34936554807224" lon="16.110480782313257"><ele>1168.5</ele><time>2026-04-27T09:35:54.999Z</time></trkpt><trkpt lat="39.34931661784965" lon="16.110592116819834"><ele>1168.6666666666667</ele><time>2026-04-27T09:35:55.999Z</time></trkpt><trkpt lat="39.34929580812852" lon="16.11068957581886"><ele>1168.8333333333335</ele><time>2026-04-27T09:35:56.999Z</time></trkpt><trkpt lat="39.3492305057582" lon="16.110799034970405"><ele>1169.0</ele><time>2026-04-27T09:35:58.999Z</time></trkpt><trkpt lat="39.3491721887563" lon="16.110873787063216"><ele>1164.8333333333335</ele><time>2026-04-27T09:35:59.999Z</time></trkpt><trkpt lat="39.34910551981417" lon="16.11095377515584"><ele>1160.6666666666667</ele><time>2026-04-27T09:36:00.999Z</time></trkpt><trkpt lat="39.34904126485426" lon="16.111034726897913"><ele>1156.5</ele><time>2026-04-27T09:36:01.999Z</time></trkpt><trkpt lat="39.34899689405374" lon="16.111114999584466"><ele>1152.3333333333333</ele><time>2026-04-27T09:36:02.999Z</time></trkpt><trkpt lat="39.34896089242559" lon="16.11122136064006"><ele>1148.1666666666665</ele><time>2026-04-27T09:36:03.999Z</time></trkpt><trkpt lat="39.34893921639673" lon="16.111298938293093"><ele>1144.0</ele><time>2026-04-27T09:36:04.999Z</time></trkpt><trkpt lat="39.348886426332065" lon="16.111380439527473"><ele>1142.1666666666665</ele><time>2026-04-27T09:36:06.999Z</time></trkpt><trkpt lat="39.3487780325708" lon="16.111388155479027"><ele>1140.3333333333333</ele><time>2026-04-27T09:36:09.999Z</time></trkpt><trkpt lat="39.34874536060846" lon="16.111500773357594"><ele>1138.5</ele><time>2026-04-27T09:36:12.999Z</time></trkpt><trkpt lat="39.34878051591584" lon="16.11161391086075"><ele>1136.6666666666667</ele><time>2026-04-27T09:36:14.999Z</time></trkpt><trkpt lat="39.34881245022495" lon="16.111699415953478"><ele>1134.8333333333335</ele><time>2026-04-27T09:36:15.999Z</time></trkpt><trkpt lat="39.34883280649526" lon="16.111784778432092"><ele>1133.0</ele><time>2026-04-27T09:36:16.999Z</time></trkpt><trkpt lat="39.348850017273556" lon="16.111866265552585"><ele>1130.0</ele><time>2026-04-27T09:36:17.999Z</time></trkpt><trkpt lat="39.34890797377251" lon="16.11195882795119"><ele>1127.0</ele><time>2026-04-27T09:36:19.999Z</time></trkpt><trkpt lat="39.34899495735785" lon="16.111928590065645"><ele>1124.0</ele><time>2026-04-27T09:36:22.999Z</time></trkpt><trkpt lat="39.349047041908655" lon="16.112005998274554"><ele>1121.0</ele><time>2026-04-27T09:36:25.999Z</time></trkpt><trkpt lat="39.349094590360686" lon="16.1121130139873"><ele>1118.0</ele><time>2026-04-27T09:36:27.998Z</time></trkpt><trkpt lat="39.34912945859517" lon="16.112190789568267"><ele>1115.0</ele><time>2026-04-27T09:36:28.998Z</time></trkpt><trkpt lat="39.34913099554656" lon="16.112279899002804"><ele>1115.0</ele><time>2026-04-27T09:36:29.998Z</time></trkpt><trkpt lat="39.34911820577621" lon="16.112397732048077"><ele>1115.0</ele><time>2026-04-27T09:36:30.998Z</time></trkpt><trkpt lat="39.3490992963727" lon="16.112515394661845"><ele>1115.0</ele><time>2026-04-27T09:36:32.998Z</time></trkpt><trkpt lat="39.349068787751136" lon="16.112672144753187"><ele>1115.0</ele><time>2026-04-27T09:36:35.998Z</time></trkpt><trkpt lat="39.349073988154046" lon="16.112985103550887"><ele>1112.0</ele><time>2026-04-27T09:36:38.998Z</time></trkpt><trkpt lat="39.349041960737544" lon="16.11312448167253"><ele>1109.0</ele><time>2026-04-27T09:36:40.998Z</time></trkpt><trkpt lat="39.34901019996928" lon="16.113201508423515"><ele>1106.0</ele><time>2026-04-27T09:36:41.998Z</time></trkpt><trkpt lat="39.34897626274114" lon="16.113299904365235"><ele>1103.0</ele><time>2026-04-27T09:36:42.998Z</time></trkpt><trkpt lat="39.348941687798515" lon="16.11339351278817"><ele>1100.0</ele><time>2026-04-27T09:36:44.998Z</time></trkpt><trkpt lat="39.34887459243415" lon="16.113432107984135"><ele>1097.0</ele><time>2026-04-27T09:36:47.998Z</time></trkpt><trkpt lat="39.34880465379106" lon="16.113428822256477"><ele>1095.7142857142858</ele><time>2026-04-27T09:36:50.998Z</time></trkpt><trkpt lat="39.34873980993488" lon="16.11340495087072"><ele>1094.4285714285716</ele><time>2026-04-27T09:36:52.998Z</time></trkpt><trkpt lat="39.34865020562176" lon="16.113344433613776"><ele>1093.142857142857</ele><time>2026-04-27T09:36:54.998Z</time></trkpt><trkpt lat="39.34858045634727" lon="16.113301534094923"><ele>1091.857142857143</ele><time>2026-04-27T09:36:55.998Z</time></trkpt><trkpt lat="39.3485190979443" lon="16.113269811764628"><ele>1090.5714285714284</ele><time>2026-04-27T09:36:56.998Z</time></trkpt><trkpt lat="39.34845555789067" lon="16.113276686922596"><ele>1089.2857142857142</ele><time>2026-04-27T09:36:58.998Z</time></trkpt><trkpt lat="39.34841733380869" lon="16.11320313382715"><ele>1088.0</ele><time>2026-04-27T09:37:02.998Z</time></trkpt><trkpt lat="39.34834988970942" lon="16.113132347305456"><ele>1088.0</ele><time>2026-04-27T09:37:10Z</time></trkpt><trkpt lat="39.34828009810663" lon="16.11303985673676"><ele>1088.0</ele><time>2026-04-27T09:37:12Z</time></trkpt><trkpt lat="39.34823130481402" lon="16.112954833240856"><ele>1088.0</ele><time>2026-04-27T09:37:14Z</time></trkpt><trkpt lat="39.34817093969477" lon="16.11281302667511"><ele>1088.0</ele><time>2026-04-27T09:37:16Z</time></trkpt><trkpt lat="39.34813868912685" lon="16.112665682174722"><ele>1088.0</ele><time>2026-04-27T09:37:18Z</time></trkpt><trkpt lat="39.348113905014095" lon="16.11251182729447"><ele>1085.1666666666667</ele><time>2026-04-27T09:37:20Z</time></trkpt><trkpt lat="39.34809472966665" lon="16.112382664972166"><ele>1082.3333333333335</ele><time>2026-04-27T09:37:22Z</time></trkpt><trkpt lat="39.34806979449707" lon="16.11228092906784"><ele>1079.5</ele><time>2026-04-27T09:37:24Z</time></trkpt><trkpt lat="39.34795546914231" lon="16.11227572263095"><ele>1076.6666666666667</ele><time>2026-04-27T09:37:26Z</time></trkpt><trkpt lat="39.3478935027496" lon="16.11230390951325"><ele>1073.8333333333333</ele><time>2026-04-27T09:37:26.999Z</time></trkpt><trkpt lat="39.347825462262755" lon="16.112324644217164"><ele>1071.0</ele><time>2026-04-27T09:37:27.999Z</time></trkpt><trkpt lat="39.34775696950178" lon="16.112348039455288"><ele>1071.0</ele><time>2026-04-27T09:37:28.999Z</time></trkpt><trkpt lat="39.347701243413674" lon="16.112386220180614"><ele>1071.0</ele><time>2026-04-27T09:37:29.999Z</time></trkpt><trkpt lat="39.34762485268701" lon="16.11241737792533"><ele>1071.0</ele><time>2026-04-27T09:37:31.999Z</time></trkpt><trkpt lat="39.347576269787034" lon="16.11236186010688"><ele>1071.0</ele><time>2026-04-27T09:37:33.999Z</time></trkpt><trkpt lat="39.34756674463124" lon="16.112258096346256"><ele>1071.0</ele><time>2026-04-27T09:37:36.999Z</time></trkpt><trkpt lat="39.34753554984476" lon="16.11207599436468"><ele>1071.0</ele><time>2026-04-27T09:37:38.999Z</time></trkpt><trkpt lat="39.34750725711591" lon="16.1119111341317"><ele>1071.0</ele><time>2026-04-27T09:37:39.999Z</time></trkpt><trkpt lat="39.3474841445865" lon="16.1117473336771"><ele>1071.0</ele><time>2026-04-27T09:37:40.999Z</time></trkpt><trkpt lat="39.34746516065549" lon="16.111610787465725"><ele>1071.0</ele><time>2026-04-27T09:37:41.999Z</time></trkpt><trkpt lat="39.3474260904688" lon="16.111527116285004"><ele>1071.0</ele><time>2026-04-27T09:37:42.999Z</time></trkpt><trkpt lat="39.34736867727667" lon="16.11145437652703"><ele>1071.0</ele><time>2026-04-27T09:37:43.999Z</time></trkpt><trkpt lat="39.347287495524725" lon="16.111407918791567"><ele>1068.0</ele><time>2026-04-27T09:37:44.999Z</time></trkpt><trkpt lat="39.34720270343169" lon="16.11136863753151"><ele>1065.0</ele><time>2026-04-27T09:37:45.999Z</time></trkpt><trkpt lat="39.347114032915606" lon="16.11130653029558"><ele>1062.0</ele><time>2026-04-27T09:37:46.999Z</time></trkpt><trkpt lat="39.347015726693094" lon="16.111209938559906"><ele>1059.0</ele><time>2026-04-27T09:37:47.999Z</time></trkpt><trkpt lat="39.34692920762795" lon="16.1111310133193"><ele>1056.0</ele><time>2026-04-27T09:37:48.999Z</time></trkpt><trkpt lat="39.34682833926744" lon="16.1110654427948"><ele>1056.0</ele><time>2026-04-27T09:37:49.999Z</time></trkpt><trkpt lat="39.34674016493061" lon="16.11100273801386"><ele>1056.0</ele><time>2026-04-27T09:37:50.999Z</time></trkpt><trkpt lat="39.34666562718746" lon="16.11095079166065"><ele>1056.0</ele><time>2026-04-27T09:37:51.999Z</time></trkpt><trkpt lat="39.346621022030895" lon="16.11087126024722"><ele>1056.0</ele><time>2026-04-27T09:37:52.999Z</time></trkpt><trkpt lat="39.34657384483933" lon="16.11069335812284"><ele>1056.0</ele><time>2026-04-27T09:37:54.999Z</time></trkpt><trkpt lat="39.346563655794164" lon="16.110574528352274"><ele>1059.75</ele><time>2026-04-27T09:37:55.999Z</time></trkpt><trkpt lat="39.34656555267129" lon="16.110398585190634"><ele>1063.5</ele><time>2026-04-27T09:37:56.999Z</time></trkpt><trkpt lat="39.34659239034427" lon="16.110260245841022"><ele>1067.25</ele><time>2026-04-27T09:37:57.999Z</time></trkpt><trkpt lat="39.34659295210556" lon="16.110116377267303"><ele>1071.0</ele><time>2026-04-27T09:37:58.999Z</time></trkpt><trkpt lat="39.34654311351026" lon="16.110004703647554"><ele>1071.8</ele><time>2026-04-27T09:37:59.999Z</time></trkpt><trkpt lat="39.34646253062553" lon="16.109899259049207"><ele>1072.6</ele><time>2026-04-27T09:38:00.999Z</time></trkpt><trkpt lat="39.34639189003538" lon="16.109767889084523"><ele>1073.4</ele><time>2026-04-27T09:38:01.999Z</time></trkpt><trkpt lat="39.34634756237488" lon="16.109657382616167"><ele>1074.2</ele><time>2026-04-27T09:38:02.999Z</time></trkpt><trkpt lat="39.34633060687022" lon="16.10956653678367"><ele>1075.0</ele><time>2026-04-27T09:38:03.999Z</time></trkpt><trkpt lat="39.346337932663836" lon="16.109410245642618"><ele>1075.0</ele><time>2026-04-27T09:38:05.999Z</time></trkpt><trkpt lat="39.34636315654195" lon="16.109326893902907"><ele>1075.0</ele><time>2026-04-27T09:38:06.999Z</time></trkpt><trkpt lat="39.34641880395902" lon="16.109218793757268"><ele>1075.0</ele><time>2026-04-27T09:38:07.999Z</time></trkpt><trkpt lat="39.34647820880531" lon="16.109119177104475"><ele>1075.0</ele><time>2026-04-27T09:38:08.999Z</time></trkpt><trkpt lat="39.34653375525017" lon="16.109040078193566"><ele>1075.0</ele><time>2026-04-27T09:38:09.999Z</time></trkpt><trkpt lat="39.34656804633169" lon="16.10896500901737"><ele>1075.0</ele><time>2026-04-27T09:38:10.999Z</time></trkpt><trkpt lat="39.3465839126879" lon="16.108808361191347"><ele>1076.6666666666665</ele><time>2026-04-27T09:38:12.999Z</time></trkpt><trkpt lat="39.34656791221422" lon="16.10871623455705"><ele>1078.3333333333333</ele><time>2026-04-27T09:38:13.999Z</time></trkpt><trkpt lat="39.34653208372091" lon="16.1086149436245"><ele>1080.0</ele><time>2026-04-27T09:38:14.999Z</time></trkpt><trkpt lat="39.34650402618346" lon="16.10850011275056"><ele>1081.6666666666667</ele><time>2026-04-27T09:38:15.999Z</time></trkpt><trkpt lat="39.34649048431241" lon="16.10841777431615"><ele>1083.3333333333335</ele><time>2026-04-27T09:38:16.999Z</time></trkpt><trkpt lat="39.34638878388958" lon="16.108389105124978"><ele>1085.0</ele><time>2026-04-27T09:38:18.999Z</time></trkpt><trkpt lat="39.34628693902239" lon="16.10843404134343"><ele>1084.6666666666667</ele><time>2026-04-27T09:38:20.999Z</time></trkpt><trkpt lat="39.34624161251359" lon="16.108366012596285"><ele>1084.3333333333333</ele><time>2026-04-27T09:38:22.999Z</time></trkpt><trkpt lat="39.34592635147086" lon="16.108179729194212"><ele>1084.0</ele><time>2026-04-27T09:38:25.999Z</time></trkpt><trkpt lat="39.34582214598456" lon="16.108136697341102"><ele>1084.0</ele><time>2026-04-27T09:38:26.999Z</time></trkpt><trkpt lat="39.34572641307834" lon="16.10807587303765"><ele>1084.0</ele><time>2026-04-27T09:38:27.999Z</time></trkpt><trkpt lat="39.34563421643428" lon="16.107994434913717"><ele>1084.0</ele><time>2026-04-27T09:38:28.999Z</time></trkpt><trkpt lat="39.34560169019159" lon="16.107860363422628"><ele>1084.0</ele><time>2026-04-27T09:38:29.999Z</time></trkpt><trkpt lat="39.34551945016742" lon="16.10778105792486"><ele>1084.0</ele><time>2026-04-27T09:38:30.999Z</time></trkpt><trkpt lat="39.345449224242444" lon="16.107729021340113"><ele>1082.8333333333333</ele><time>2026-04-27T09:38:31.999Z</time></trkpt><trkpt lat="39.34537538248459" lon="16.107706576103844"><ele>1081.6666666666665</ele><time>2026-04-27T09:38:32.999Z</time></trkpt><trkpt lat="39.345290610875544" lon="16.10768459992086"><ele>1080.5</ele><time>2026-04-27T09:38:33.999Z</time></trkpt><trkpt lat="39.34522214118598" lon="16.10766179446497"><ele>1079.3333333333333</ele><time>2026-04-27T09:38:34.998Z</time></trkpt><trkpt lat="39.34515437453879" lon="16.10765364467357"><ele>1078.1666666666667</ele><time>2026-04-27T09:38:35.998Z</time></trkpt><trkpt lat="39.3450995380913" lon="16.107714071907463"><ele>1077.0</ele><time>2026-04-27T09:38:37.998Z</time></trkpt><trkpt lat="39.345056744084864" lon="16.107821525288152"><ele>1077.0</ele><time>2026-04-27T09:38:39.998Z</time></trkpt><trkpt lat="39.345002467563326" lon="16.107900630393715"><ele>1077.0</ele><time>2026-04-27T09:38:41.998Z</time></trkpt><trkpt lat="39.3449357710833" lon="16.107961547319253"><ele>1077.0</ele><time>2026-04-27T09:38:45.998Z</time></trkpt><trkpt lat="39.34491393700141" lon="16.108152420741586"><ele>1077.0</ele><time>2026-04-27T09:38:47.998Z</time></trkpt><trkpt lat="39.344901935047936" lon="16.10830820916333"><ele>1077.0</ele><time>2026-04-27T09:38:48.998Z</time></trkpt><trkpt lat="39.34490935561561" lon="16.10842699118187"><ele>1071.4</ele><time>2026-04-27T09:38:49.998Z</time></trkpt><trkpt lat="39.344917229529806" lon="16.10853787343085"><ele>1065.8000000000002</ele><time>2026-04-27T09:38:51.998Z</time></trkpt><trkpt lat="39.344860616732845" lon="16.108652627326286"><ele>1060.2</ele><time>2026-04-27T09:38:53.998Z</time></trkpt><trkpt lat="39.34481037416772" lon="16.108731171380075"><ele>1054.6000000000001</ele><time>2026-04-27T09:38:54.998Z</time></trkpt><trkpt lat="39.344761376286186" lon="16.108782979138912"><ele>1049.0</ele><time>2026-04-27T09:38:55.998Z</time></trkpt><trkpt lat="39.34463510824554" lon="16.108849943286753"><ele>1049.0</ele><time>2026-04-27T09:38:57.998Z</time></trkpt><trkpt lat="39.34453123633195" lon="16.108914885123625"><ele>1049.0</ele><time>2026-04-27T09:38:59.998Z</time></trkpt><trkpt lat="39.34443294627048" lon="16.108922672693286"><ele>1049.0</ele><time>2026-04-27T09:39:01.998Z</time></trkpt><trkpt lat="39.34432310659034" lon="16.108858360170736"><ele>1049.0</ele><time>2026-04-27T09:39:03.998Z</time></trkpt><trkpt lat="39.34424842600638" lon="16.108800017287138"><ele>1049.0</ele><time>2026-04-27T09:39:04.998Z</time></trkpt><trkpt lat="39.3441560930729" lon="16.108728485558782"><ele>1049.0</ele><time>2026-04-27T09:39:05.998Z</time></trkpt><trkpt lat="39.344047721672325" lon="16.10866533044513"><ele>1049.0</ele><time>2026-04-27T09:39:06.998Z</time></trkpt><trkpt lat="39.34396277296135" lon="16.108615330439793"><ele>1049.0</ele><time>2026-04-27T09:39:07.998Z</time></trkpt><trkpt lat="39.343868963764514" lon="16.108537889908305"><ele>1049.0</ele><time>2026-04-27T09:39:09.998Z</time></trkpt><trkpt lat="39.34378785712581" lon="16.10844338480882"><ele>1049.0</ele><time>2026-04-27T09:39:11.998Z</time></trkpt><trkpt lat="39.343716515792366" lon="16.10834282323923"><ele>1050.4</ele><time>2026-04-27T09:39:13.999Z</time></trkpt><trkpt lat="39.343636884786555" lon="16.10837901991826"><ele>1051.8000000000002</ele><time>2026-04-27T09:39:17.001Z</time></trkpt><trkpt lat="39.34357927653079" lon="16.10844798811865"><ele>1053.1999999999998</ele><time>2026-04-27T09:39:20.001Z</time></trkpt><trkpt lat="39.34348695723631" lon="16.10857933728768"><ele>1054.6</ele><time>2026-04-27T09:39:23.001Z</time></trkpt><trkpt lat="39.34341453261804" lon="16.108621286946974"><ele>1056.0</ele><time>2026-04-27T09:39:24.001Z</time></trkpt><trkpt lat="39.34333181821283" lon="16.1086647418757"><ele>1056.0</ele><time>2026-04-27T09:39:25.001Z</time></trkpt><trkpt lat="39.343295768393894" lon="16.108734832243233"><ele>1056.0</ele><time>2026-04-27T09:39:26.001Z</time></trkpt><trkpt lat="39.34324952718878" lon="16.108839903313182"><ele>1056.0</ele><time>2026-04-27T09:39:27.001Z</time></trkpt><trkpt lat="39.34320050796952" lon="16.108963104704756"><ele>1056.0</ele><time>2026-04-27T09:39:28.001Z</time></trkpt><trkpt lat="39.34315832719016" lon="16.10907136056145"><ele>1056.0</ele><time>2026-04-27T09:39:29.001Z</time></trkpt><trkpt lat="39.343137943585" lon="16.109162253242015"><ele>1056.0</ele><time>2026-04-27T09:39:30.001Z</time></trkpt><trkpt lat="39.34311632581277" lon="16.10925153498346"><ele>1053.1666666666667</ele><time>2026-04-27T09:39:31.001Z</time></trkpt><trkpt lat="39.34308269584805" lon="16.10933304297665"><ele>1050.3333333333333</ele><time>2026-04-27T09:39:32.001Z</time></trkpt><trkpt lat="39.343024362189176" lon="16.109412059447934"><ele>1047.5</ele><time>2026-04-27T09:39:33.001Z</time></trkpt><trkpt lat="39.34296208029691" lon="16.109494978681976"><ele>1044.6666666666665</ele><time>2026-04-27T09:39:34.001Z</time></trkpt><trkpt lat="39.3429178313441" lon="16.109559882607133"><ele>1041.8333333333333</ele><time>2026-04-27T09:39:35Z</time></trkpt><trkpt lat="39.342810894447226" lon="16.10962902760507"><ele>1039.0</ele><time>2026-04-27T09:39:37Z</time></trkpt><trkpt lat="39.34274599563266" lon="16.109661732735052"><ele>1039.0</ele><time>2026-04-27T09:39:38Z</time></trkpt><trkpt lat="39.342674555621194" lon="16.109694595990355"><ele>1039.0</ele><time>2026-04-27T09:39:39Z</time></trkpt><trkpt lat="39.34259826142218" lon="16.109718548237392"><ele>1039.0</ele><time>2026-04-27T09:39:40Z</time></trkpt><trkpt lat="39.34250317329914" lon="16.10973383618516"><ele>1039.0</ele><time>2026-04-27T09:39:42Z</time></trkpt><trkpt lat="39.342452314280195" lon="16.109656932937693"><ele>1039.0</ele><time>2026-04-27T09:39:45Z</time></trkpt><trkpt lat="39.34227920088576" lon="16.109599909125034"><ele>1034.4</ele><time>2026-04-27T09:39:46Z</time></trkpt><trkpt lat="39.34221355345311" lon="16.109487854532688"><ele>1029.8000000000002</ele><time>2026-04-27T09:39:47Z</time></trkpt><trkpt lat="39.34214165241723" lon="16.109392029648355"><ele>1025.1999999999998</ele><time>2026-04-27T09:39:48Z</time></trkpt><trkpt lat="39.34206787081508" lon="16.109334824908657"><ele>1020.5999999999999</ele><time>2026-04-27T09:39:49Z</time></trkpt><trkpt lat="39.34199510936049" lon="16.10929390251715"><ele>1016.0</ele><time>2026-04-27T09:39:50Z</time></trkpt><trkpt lat="39.34192418908339" lon="16.109258129916523"><ele>1016.0000000000001</ele><time>2026-04-27T09:39:51Z</time></trkpt><trkpt lat="39.34185805833406" lon="16.109232559192957"><ele>1016.0</ele><time>2026-04-27T09:39:52Z</time></trkpt><trkpt lat="39.34178163735927" lon="16.10914758489588"><ele>1016.0</ele><time>2026-04-27T09:39:54Z</time></trkpt><trkpt lat="39.34174093026498" lon="16.109080908002905"><ele>1016.0</ele><time>2026-04-27T09:39:55Z</time></trkpt><trkpt lat="39.34168190533611" lon="16.10898998290229"><ele>1016.0000000000001</ele><time>2026-04-27T09:39:56Z</time></trkpt><trkpt lat="39.341640941923245" lon="16.10890590565671"><ele>1016.0</ele><time>2026-04-27T09:39:57Z</time></trkpt><trkpt lat="39.341557878265306" lon="16.108814708252293"><ele>1026.25</ele><time>2026-04-27T09:39:59Z</time></trkpt><trkpt lat="39.34144143331303" lon="16.108814062566804"><ele>1036.5</ele><time>2026-04-27T09:40:01Z</time></trkpt><trkpt lat="39.34134882527521" lon="16.10885739115721"><ele>1046.75</ele><time>2026-04-27T09:40:02Z</time></trkpt><trkpt lat="39.341206014657935" lon="16.108929333765566"><ele>1057.0</ele><time>2026-04-27T09:40:03Z</time></trkpt><trkpt lat="39.34110315834143" lon="16.10900075168943"><ele>1057.2</ele><time>2026-04-27T09:40:04Z</time></trkpt><trkpt lat="39.340998739339355" lon="16.1090589597972"><ele>1057.4</ele><time>2026-04-27T09:40:05Z</time></trkpt><trkpt lat="39.340929381910264" lon="16.109093767141463"><ele>1057.6</ele><time>2026-04-27T09:40:06Z</time></trkpt><trkpt lat="39.340862839710724" lon="16.109158376400696"><ele>1057.8</ele><time>2026-04-27T09:40:07Z</time></trkpt><trkpt lat="39.340816646170815" lon="16.10927657278955"><ele>1058.0</ele><time>2026-04-27T09:40:08Z</time></trkpt><trkpt lat="39.34078894713931" lon="16.10939072209358"><ele>1050.0</ele><time>2026-04-27T09:40:09Z</time></trkpt><trkpt lat="39.340746989895614" lon="16.10947165627605"><ele>1042.0</ele><time>2026-04-27T09:40:10Z</time></trkpt><trkpt lat="39.340667293813226" lon="16.109527799295638"><ele>1034.0</ele><time>2026-04-27T09:40:12Z</time></trkpt><trkpt lat="39.34054063338397" lon="16.10957839771338"><ele>1026.0</ele><time>2026-04-27T09:40:14Z</time></trkpt><trkpt lat="39.34045479131579" lon="16.109614644226685"><ele>1018.0</ele><time>2026-04-27T09:40:15Z</time></trkpt><trkpt lat="39.34038575372279" lon="16.10962503087693"><ele>1014.8333333333333</ele><time>2026-04-27T09:40:16Z</time></trkpt><trkpt lat="39.34029676294959" lon="16.109592013730037"><ele>1011.6666666666666</ele><time>2026-04-27T09:40:18Z</time></trkpt><trkpt lat="39.34026736816948" lon="16.10946946166878"><ele>1008.5</ele><time>2026-04-27T09:40:20Z</time></trkpt><trkpt lat="39.340285572763975" lon="16.109385350701913"><ele>1005.3333333333333</ele><time>2026-04-27T09:40:21Z</time></trkpt><trkpt lat="39.340263198989625" lon="16.109284922570144"><ele>1002.1666666666666</ele><time>2026-04-27T09:40:22Z</time></trkpt><trkpt lat="39.34020909288966" lon="16.109166637182213"><ele>999.0</ele><time>2026-04-27T09:40:23Z</time></trkpt><trkpt lat="39.340126222161764" lon="16.109117413312067"><ele>999.0</ele><time>2026-04-27T09:40:24Z</time></trkpt><trkpt lat="39.34004523401453" lon="16.109090131244425"><ele>999.0000000000001</ele><time>2026-04-27T09:40:25Z</time></trkpt><trkpt lat="39.339965512568696" lon="16.109041036479685"><ele>999.0000000000001</ele><time>2026-04-27T09:40:26Z</time></trkpt><trkpt lat="39.339918752019486" lon="16.10898058558095"><ele>999.0</ele><time>2026-04-27T09:40:27Z</time></trkpt><trkpt lat="39.33988760192117" lon="16.10882806682974"><ele>999.0</ele><time>2026-04-27T09:40:29Z</time></trkpt><trkpt lat="39.33985891782863" lon="16.108692718463107"><ele>996.2</ele><time>2026-04-27T09:40:30Z</time></trkpt><trkpt lat="39.33983316203848" lon="16.108561678064238"><ele>993.4000000000001</ele><time>2026-04-27T09:40:31Z</time></trkpt><trkpt lat="39.33981348169225" lon="16.10846857299092"><ele>990.6</ele><time>2026-04-27T09:40:32Z</time></trkpt><trkpt lat="39.339729281549694" lon="16.10835263759537"><ele>987.8</ele><time>2026-04-27T09:40:34Z</time></trkpt><trkpt lat="39.33966449934259" lon="16.108300082834425"><ele>985.0</ele><time>2026-04-27T09:40:35Z</time></trkpt><trkpt lat="39.33959622064081" lon="16.108239727443774"><ele>993.6</ele><time>2026-04-27T09:40:36Z</time></trkpt><trkpt lat="39.339514743519516" lon="16.108159346087852"><ele>1002.2</ele><time>2026-04-27T09:40:38Z</time></trkpt><trkpt lat="39.339455290436774" lon="16.108086589037214"><ele>1010.8</ele><time>2026-04-27T09:40:39Z</time></trkpt><trkpt lat="39.33938488543855" lon="16.107990714568164"><ele>1019.4</ele><time>2026-04-27T09:40:40Z</time></trkpt><trkpt lat="39.33931696096639" lon="16.107892339223557"><ele>1028.0</ele><time>2026-04-27T09:40:41Z</time></trkpt><trkpt lat="39.33920357293439" lon="16.107851188101645"><ele>1028.0</ele><time>2026-04-27T09:40:42.999Z</time></trkpt><trkpt lat="39.33912027319842" lon="16.107893555806438"><ele>1028.0</ele><time>2026-04-27T09:40:43.999Z</time></trkpt><trkpt lat="39.339022291203186" lon="16.107943380789514"><ele>1028.0</ele><time>2026-04-27T09:40:44.999Z</time></trkpt><trkpt lat="39.33894646621904" lon="16.107958512095216"><ele>1028.0</ele><time>2026-04-27T09:40:45.999Z</time></trkpt><trkpt lat="39.338881994826885" lon="16.10795563852253"><ele>1028.0</ele><time>2026-04-27T09:40:46.999Z</time></trkpt><trkpt lat="39.338798031636294" lon="16.107930910514334"><ele>1028.0</ele><time>2026-04-27T09:40:47.999Z</time></trkpt><trkpt lat="39.33870622428936" lon="16.107910546309878"><ele>1028.4</ele><time>2026-04-27T09:40:48.999Z</time></trkpt><trkpt lat="39.33860776503058" lon="16.10790187484386"><ele>1028.8</ele><time>2026-04-27T09:40:49.999Z</time></trkpt><trkpt lat="39.3384968263518" lon="16.10788801768602"><ele>1029.2</ele><time>2026-04-27T09:40:50.999Z</time></trkpt><trkpt lat="39.338418002592846" lon="16.107921732183094"><ele>1029.6</ele><time>2026-04-27T09:40:51.999Z</time></trkpt><trkpt lat="39.33833111781041" lon="16.1079488886818"><ele>1030.0</ele><time>2026-04-27T09:40:52.999Z</time></trkpt><trkpt lat="39.33825233221575" lon="16.10801780467968"><ele>1030.0</ele><time>2026-04-27T09:40:53.999Z</time></trkpt><trkpt lat="39.338169919767644" lon="16.108095873767535"><ele>1030.0</ele><time>2026-04-27T09:40:55.999Z</time></trkpt><trkpt lat="39.338109704590764" lon="16.108166085775782"><ele>1030.0</ele><time>2026-04-27T09:40:56.999Z</time></trkpt><trkpt lat="39.338053918120465" lon="16.108231424712336"><ele>1030.0</ele><time>2026-04-27T09:40:57.999Z</time></trkpt><trkpt lat="39.33800422338181" lon="16.108299624851654"><ele>1030.0</ele><time>2026-04-27T09:40:58.999Z</time></trkpt><trkpt lat="39.33795829486172" lon="16.10836388394858"><ele>1030.0</ele><time>2026-04-27T09:40:59.999Z</time></trkpt><trkpt lat="39.33788894180332" lon="16.10844905907436"><ele>1030.6</ele><time>2026-04-27T09:41:00.999Z</time></trkpt><trkpt lat="39.33782081464043" lon="16.108526539597314"><ele>1031.2</ele><time>2026-04-27T09:41:01.999Z</time></trkpt><trkpt lat="39.33776968695119" lon="16.10861940385065"><ele>1031.8</ele><time>2026-04-27T09:41:02.999Z</time></trkpt><trkpt lat="39.33773051910196" lon="16.108733966915416"><ele>1032.4</ele><time>2026-04-27T09:41:03.999Z</time></trkpt><trkpt lat="39.337675090633354" lon="16.108831360395865"><ele>1033.0</ele><time>2026-04-27T09:41:04.999Z</time></trkpt><trkpt lat="39.33760984234992" lon="16.10897603211991"><ele>1033.0</ele><time>2026-04-27T09:41:06.999Z</time></trkpt><trkpt lat="39.337586306804596" lon="16.109052641604833"><ele>1033.0</ele><time>2026-04-27T09:41:07.999Z</time></trkpt><trkpt lat="39.33755697456398" lon="16.109192583815872"><ele>1033.0</ele><time>2026-04-27T09:41:09.999Z</time></trkpt><trkpt lat="39.337553265408175" lon="16.10931895098761"><ele>1033.0</ele><time>2026-04-27T09:41:11.999Z</time></trkpt><trkpt lat="39.33750994066238" lon="16.109393023550936"><ele>1033.0</ele><time>2026-04-27T09:41:15.999Z</time></trkpt><trkpt lat="39.33734269604804" lon="16.109406554644874"><ele>1028.6</ele><time>2026-04-27T09:41:18.999Z</time></trkpt><trkpt lat="39.33722071416602" lon="16.10940098798247"><ele>1024.1999999999998</ele><time>2026-04-27T09:41:19.999Z</time></trkpt><trkpt lat="39.33714576297666" lon="16.109439265198684"><ele>1019.8</ele><time>2026-04-27T09:41:21.001Z</time></trkpt><trkpt lat="39.33707405156872" lon="16.109526832521937"><ele>1015.4</ele><time>2026-04-27T09:41:22.001Z</time></trkpt><trkpt lat="39.33699555102107" lon="16.109621843972626"><ele>1011.0</ele><time>2026-04-27T09:41:23.001Z</time></trkpt><trkpt lat="39.33693567668871" lon="16.10970312242029"><ele>1011.0</ele><time>2026-04-27T09:41:24.001Z</time></trkpt><trkpt lat="39.33687956791309" lon="16.10978591132151"><ele>1011.0</ele><time>2026-04-27T09:41:25.001Z</time></trkpt><trkpt lat="39.336840382397035" lon="16.10986692583815"><ele>1011.0</ele><time>2026-04-27T09:41:26.001Z</time></trkpt><trkpt lat="39.33681466446648" lon="16.10995642741124"><ele>1011.0</ele><time>2026-04-27T09:41:27.001Z</time></trkpt><trkpt lat="39.33679224819401" lon="16.110046983395126"><ele>1011.0</ele><time>2026-04-27T09:41:28.001Z</time></trkpt><trkpt lat="39.33676174778859" lon="16.11013706772093"><ele>1011.0</ele><time>2026-04-27T09:41:30.001Z</time></trkpt><trkpt lat="39.33679942896686" lon="16.110275065978794"><ele>1004.0</ele><time>2026-04-27T09:41:32.001Z</time></trkpt><trkpt lat="39.33684594292485" lon="16.110411931662515"><ele>996.9999999999999</ele><time>2026-04-27T09:41:34.001Z</time></trkpt><trkpt lat="39.33685927141652" lon="16.11055648277289"><ele>989.9999999999999</ele><time>2026-04-27T09:41:36.001Z</time></trkpt><trkpt lat="39.33687801014624" lon="16.11068835768374"><ele>983.0</ele><time>2026-04-27T09:41:38.001Z</time></trkpt><trkpt lat="39.33689624629978" lon="16.110783123942678"><ele>976.0</ele><time>2026-04-27T09:41:40.001Z</time></trkpt><trkpt lat="39.336834399387264" lon="16.110832626818734"><ele>975.9999999999999</ele><time>2026-04-27T09:41:43Z</time></trkpt><trkpt lat="39.3367910838064" lon="16.110744464773546"><ele>976.0</ele><time>2026-04-27T09:41:46Z</time></trkpt><trkpt lat="39.33678379511613" lon="16.11058446846548"><ele>976.0</ele><time>2026-04-27T09:41:48Z</time></trkpt><trkpt lat="39.3367431486628" lon="16.110491902486093"><ele>976.0</ele><time>2026-04-27T09:41:49Z</time></trkpt><trkpt lat="39.33669119427693" lon="16.11040104213709"><ele>975.9999999999999</ele><time>2026-04-27T09:41:50Z</time></trkpt><trkpt lat="39.33663687482599" lon="16.110334333522438"><ele>976.0</ele><time>2026-04-27T09:41:51Z</time></trkpt><trkpt lat="39.33658285551804" lon="16.11027470023187"><ele>975.9999999999999</ele><time>2026-04-27T09:41:52Z</time></trkpt><trkpt lat="39.336524722928615" lon="16.110226994408034"><ele>976.0</ele><time>2026-04-27T09:41:53Z</time></trkpt><trkpt lat="39.33645787475997" lon="16.11019887166484"><ele>976.0</ele><time>2026-04-27T09:41:54Z</time></trkpt><trkpt lat="39.33638391645389" lon="16.110198400726002"><ele>976.0</ele><time>2026-04-27T09:41:55Z</time></trkpt><trkpt lat="39.336303885165364" lon="16.110217578672163"><ele>975.9999999999999</ele><time>2026-04-27T09:41:56Z</time></trkpt><trkpt lat="39.336220277277064" lon="16.1102320237229"><ele>976.0</ele><time>2026-04-27T09:41:58Z</time></trkpt><trkpt lat="39.336127369113264" lon="16.110151389778064"><ele>973.9999999999999</ele><time>2026-04-27T09:42:00Z</time></trkpt><trkpt lat="39.336042296515906" lon="16.110096140087933"><ele>972.0</ele><time>2026-04-27T09:42:01Z</time></trkpt><trkpt lat="39.33596113373974" lon="16.110081158125343"><ele>970.0</ele><time>2026-04-27T09:42:02Z</time></trkpt><trkpt lat="39.33587949575489" lon="16.11009206122849"><ele>968.0</ele><time>2026-04-27T09:42:03Z</time></trkpt><trkpt lat="39.335797443744774" lon="16.11010525042769"><ele>965.9999999999999</ele><time>2026-04-27T09:42:04Z</time></trkpt><trkpt lat="39.33571537420646" lon="16.110112948059083"><ele>964.0</ele><time>2026-04-27T09:42:05Z</time></trkpt><trkpt lat="39.33564635379003" lon="16.1100841059654"><ele>963.9999999999999</ele><time>2026-04-27T09:42:07Z</time></trkpt><trkpt lat="39.33555435736668" lon="16.110035186106057"><ele>964.0</ele><time>2026-04-27T09:42:09Z</time></trkpt><trkpt lat="39.335495017959104" lon="16.110158427683416"><ele>964.0</ele><time>2026-04-27T09:42:11Z</time></trkpt><trkpt lat="39.33553157091856" lon="16.110239064325174"><ele>964.0</ele><time>2026-04-27T09:42:13Z</time></trkpt><trkpt lat="39.33555814258473" lon="16.110356386284156"><ele>963.9999999999999</ele><time>2026-04-27T09:42:14Z</time></trkpt><trkpt lat="39.33554965156144" lon="16.110446737195232"><ele>964.0</ele><time>2026-04-27T09:42:15Z</time></trkpt><trkpt lat="39.335565803677994" lon="16.110570274171444"><ele>964.0</ele><time>2026-04-27T09:42:16Z</time></trkpt><trkpt lat="39.33557656823984" lon="16.11069145294029"><ele>964.0000000000001</ele><time>2026-04-27T09:42:17Z</time></trkpt><trkpt lat="39.33558198370903" lon="16.110807640731327"><ele>964.0000000000001</ele><time>2026-04-27T09:42:18Z</time></trkpt><trkpt lat="39.335579031840254" lon="16.110896555029356"><ele>964.0</ele><time>2026-04-27T09:42:19Z</time></trkpt><trkpt lat="39.33552122204707" lon="16.110998291437824"><ele>964.0</ele><time>2026-04-27T09:42:21Z</time></trkpt><trkpt lat="39.33538599999697" lon="16.111004490778917"><ele>964.8333333333333</ele><time>2026-04-27T09:42:23Z</time></trkpt><trkpt lat="39.33530435026427" lon="16.11098465720865"><ele>965.6666666666666</ele><time>2026-04-27T09:42:24Z</time></trkpt><trkpt lat="39.335204587550166" lon="16.110998877589417"><ele>966.5</ele><time>2026-04-27T09:42:25Z</time></trkpt><trkpt lat="39.33512255685513" lon="16.111050571452854"><ele>967.3333333333333</ele><time>2026-04-27T09:42:26Z</time></trkpt><trkpt lat="39.335050546431845" lon="16.111106124960642"><ele>968.1666666666666</ele><time>2026-04-27T09:42:27Z</time></trkpt><trkpt lat="39.334989531243714" lon="16.11117457225334"><ele>969.0</ele><time>2026-04-27T09:42:28Z</time></trkpt><trkpt lat="39.33492208639448" lon="16.11122418812516"><ele>969.0</ele><time>2026-04-27T09:42:29Z</time></trkpt><trkpt lat="39.33484362072589" lon="16.111263818685952"><ele>969.0000000000001</ele><time>2026-04-27T09:42:30Z</time></trkpt><trkpt lat="39.33474873415443" lon="16.11130621727547"><ele>969.0000000000001</ele><time>2026-04-27T09:42:31Z</time></trkpt><trkpt lat="39.33465003840173" lon="16.11134196446727"><ele>969.0</ele><time>2026-04-27T09:42:32Z</time></trkpt><trkpt lat="39.334563696185825" lon="16.111382810751966"><ele>969.0</ele><time>2026-04-27T09:42:33Z</time></trkpt><trkpt lat="39.33449078714472" lon="16.111409059645208"><ele>970.6</ele><time>2026-04-27T09:42:34Z</time></trkpt><trkpt lat="39.334444762465125" lon="16.11134590193998"><ele>972.2</ele><time>2026-04-27T09:42:35Z</time></trkpt><trkpt lat="39.334329195953295" lon="16.111259267205718"><ele>973.8000000000001</ele><time>2026-04-27T09:42:36Z</time></trkpt><trkpt lat="39.33420480366075" lon="16.11124157085004"><ele>975.4000000000001</ele><time>2026-04-27T09:42:37Z</time></trkpt><trkpt lat="39.334101807059646" lon="16.111262961729633"><ele>977.0</ele><time>2026-04-27T09:42:38Z</time></trkpt><trkpt lat="39.334004502587064" lon="16.111303187568293"><ele>977.0000000000001</ele><time>2026-04-27T09:42:39Z</time></trkpt><trkpt lat="39.333903672127406" lon="16.111366995210517"><ele>977.0</ele><time>2026-04-27T09:42:40Z</time></trkpt><trkpt lat="39.333803205106065" lon="16.1114218377573"><ele>977.0</ele><time>2026-04-27T09:42:41Z</time></trkpt><trkpt lat="39.33373995926537" lon="16.111440525647115"><ele>977.0</ele><time>2026-04-27T09:42:42Z</time></trkpt><trkpt lat="39.33367288632588" lon="16.111397070708488"><ele>977.0000000000001</ele><time>2026-04-27T09:42:44Z</time></trkpt><trkpt lat="39.333632138753686" lon="16.111311522128677"><ele>977.0</ele><time>2026-04-27T09:42:45Z</time></trkpt><trkpt lat="39.333602951899906" lon="16.111205377951887"><ele>975.1666666666667</ele><time>2026-04-27T09:42:46Z</time></trkpt><trkpt lat="39.33358329170923" lon="16.111106588848976"><ele>973.3333333333334</ele><time>2026-04-27T09:42:47Z</time></trkpt><trkpt lat="39.33357871976281" lon="16.111005595607324"><ele>971.5</ele><time>2026-04-27T09:42:47.999Z</time></trkpt><trkpt lat="39.33358159493862" lon="16.110894445328817"><ele>969.6666666666667</ele><time>2026-04-27T09:42:48.999Z</time></trkpt><trkpt lat="39.333571195177825" lon="16.110777981869624"><ele>967.8333333333334</ele><time>2026-04-27T09:42:49.999Z</time></trkpt><trkpt lat="39.333549716323475" lon="16.110649787883492"><ele>966.0</ele><time>2026-04-27T09:42:50.999Z</time></trkpt><trkpt lat="39.33351569249668" lon="16.110516578923626"><ele>966.0</ele><time>2026-04-27T09:42:51.999Z</time></trkpt><trkpt lat="39.333495647461454" lon="16.110396278306844"><ele>966.0</ele><time>2026-04-27T09:42:52.999Z</time></trkpt><trkpt lat="39.33347230343403" lon="16.11028664207562"><ele>966.0</ele><time>2026-04-27T09:42:53.999Z</time></trkpt><trkpt lat="39.333430439433805" lon="16.110185754161016"><ele>966.0</ele><time>2026-04-27T09:42:54.999Z</time></trkpt><trkpt lat="39.33337704010708" lon="16.110089289469492"><ele>966.0</ele><time>2026-04-27T09:42:55.999Z</time></trkpt><trkpt lat="39.3333350487862" lon="16.110019058656654"><ele>966.0</ele><time>2026-04-27T09:42:56.999Z</time></trkpt><trkpt lat="39.3332819782341" lon="16.10989906922432"><ele>966.0</ele><time>2026-04-27T09:42:58.999Z</time></trkpt><trkpt lat="39.333234169790266" lon="16.109808688639855"><ele>965.9999999999999</ele><time>2026-04-27T09:43:00.999Z</time></trkpt><trkpt lat="39.33314596037929" lon="16.10983521627"><ele>965.9999999999999</ele><time>2026-04-27T09:43:04.999Z</time></trkpt><trkpt lat="39.33314233706865" lon="16.109978644391816"><ele>966.0</ele><time>2026-04-27T09:43:07.999Z</time></trkpt><trkpt lat="39.33315602889972" lon="16.110138548789106"><ele>966.0</ele><time>2026-04-27T09:43:09.999Z</time></trkpt><trkpt lat="39.33315701151396" lon="16.11022737173892"><ele>966.0</ele><time>2026-04-27T09:43:10.999Z</time></trkpt><trkpt lat="39.33315685259194" lon="16.110314667983825"><ele>965.9999999999999</ele><time>2026-04-27T09:43:11.999Z</time></trkpt><trkpt lat="39.33314472034717" lon="16.11044088399245"><ele>965.9999999999999</ele><time>2026-04-27T09:43:13.999Z</time></trkpt><trkpt lat="39.33310716119222" lon="16.110577936751888"><ele>966.0</ele><time>2026-04-27T09:43:15.999Z</time></trkpt><trkpt lat="39.333033204136974" lon="16.110689888489468"><ele>966.0</ele><time>2026-04-27T09:43:17.999Z</time></trkpt><trkpt lat="39.33293914198191" lon="16.11077650485813"><ele>963.1999999999999</ele><time>2026-04-27T09:43:19.999Z</time></trkpt><trkpt lat="39.33283390049292" lon="16.110837883709962"><ele>960.3999999999999</ele><time>2026-04-27T09:43:21.999Z</time></trkpt><trkpt lat="39.332767758723584" lon="16.11084934844122"><ele>957.6</ele><time>2026-04-27T09:43:22.999Z</time></trkpt><trkpt lat="39.3326736923515" lon="16.110828707763147"><ele>954.8</ele><time>2026-04-27T09:43:24.999Z</time></trkpt><trkpt lat="39.33261498964001" lon="16.110910374732775"><ele>952.0</ele><time>2026-04-27T09:43:27.001Z</time></trkpt><trkpt lat="39.332602622028865" lon="16.11107840177355"><ele>951.9999999999999</ele><time>2026-04-27T09:43:29.001Z</time></trkpt><trkpt lat="39.332572932984995" lon="16.11121139152087"><ele>952.0</ele><time>2026-04-27T09:43:31.001Z</time></trkpt><trkpt lat="39.33252301469388" lon="16.111283001501622"><ele>952.0</ele><time>2026-04-27T09:43:32.001Z</time></trkpt><trkpt lat="39.33246008472301" lon="16.111377042165152"><ele>952.0</ele><time>2026-04-27T09:43:33.001Z</time></trkpt><trkpt lat="39.332405510089096" lon="16.111460773495498"><ele>951.9999999999999</ele><time>2026-04-27T09:43:34.001Z</time></trkpt><trkpt lat="39.3323369800362" lon="16.111516816802446"><ele>952.0</ele><time>2026-04-27T09:43:36.001Z</time></trkpt><trkpt lat="39.332219843202495" lon="16.11148001854753"><ele>953.3333333333333</ele><time>2026-04-27T09:43:38.001Z</time></trkpt><trkpt lat="39.332142961374856" lon="16.11145645962875"><ele>954.6666666666666</ele><time>2026-04-27T09:43:39.001Z</time></trkpt><trkpt lat="39.33207302386892" lon="16.11146937453392"><ele>956.0</ele><time>2026-04-27T09:43:40.001Z</time></trkpt><trkpt lat="39.332006598655376" lon="16.11150978607287"><ele>957.3333333333333</ele><time>2026-04-27T09:43:41.001Z</time></trkpt><trkpt lat="39.33194200539143" lon="16.11160931692411"><ele>958.6666666666666</ele><time>2026-04-27T09:43:43.001Z</time></trkpt><trkpt lat="39.33195113800063" lon="16.111699287708486"><ele>960.0</ele><time>2026-04-27T09:43:44.001Z</time></trkpt><trkpt lat="39.33197247088298" lon="16.111822279915504"><ele>960.0</ele><time>2026-04-27T09:43:45.001Z</time></trkpt><trkpt lat="39.33198054809642" lon="16.111955059883574"><ele>960.0</ele><time>2026-04-27T09:43:46.001Z</time></trkpt><trkpt lat="39.331963537476035" lon="16.11208328377892"><ele>960.0</ele><time>2026-04-27T09:43:47Z</time></trkpt><trkpt lat="39.33194465194035" lon="16.112215674453722"><ele>960.0</ele><time>2026-04-27T09:43:48Z</time></trkpt><trkpt lat="39.33193213933235" lon="16.112356207763582"><ele>960.0</ele><time>2026-04-27T09:43:49Z</time></trkpt><trkpt lat="39.33193594804566" lon="16.112498812370145"><ele>957.6</ele><time>2026-04-27T09:43:50Z</time></trkpt><trkpt lat="39.33194543467885" lon="16.112631836603132"><ele>955.2</ele><time>2026-04-27T09:43:51Z</time></trkpt><trkpt lat="39.33195843382291" lon="16.11275248959073"><ele>952.8</ele><time>2026-04-27T09:43:52Z</time></trkpt><trkpt lat="39.331966288788564" lon="16.1128517185024"><ele>950.4</ele><time>2026-04-27T09:43:53Z</time></trkpt><trkpt lat="39.331951138431165" lon="16.112969437667633"><ele>948.0</ele><time>2026-04-27T09:43:55Z</time></trkpt><trkpt lat="39.33186521699563" lon="16.113052866852566"><ele>948.0</ele><time>2026-04-27T09:43:57Z</time></trkpt><trkpt lat="39.33180231136073" lon="16.11309874006349"><ele>948.0</ele><time>2026-04-27T09:43:58Z</time></trkpt><trkpt lat="39.33174993949923" lon="16.11315620171152"><ele>948.0</ele><time>2026-04-27T09:43:59Z</time></trkpt><trkpt lat="39.33173518121511" lon="16.113235910392184"><ele>948.0</ele><time>2026-04-27T09:44:00Z</time></trkpt><trkpt lat="39.33175095399842" lon="16.113320893814485"><ele>948.0</ele><time>2026-04-27T09:44:01Z</time></trkpt><trkpt lat="39.33181513952453" lon="16.113455273654893"><ele>948.0</ele><time>2026-04-27T09:44:03Z</time></trkpt><trkpt lat="39.33190392372647" lon="16.11357218697347"><ele>946.75</ele><time>2026-04-27T09:44:05Z</time></trkpt><trkpt lat="39.331988112947926" lon="16.113660872551236"><ele>945.5</ele><time>2026-04-27T09:44:07Z</time></trkpt><trkpt lat="39.332082188440225" lon="16.113759117636004"><ele>944.25</ele><time>2026-04-27T09:44:09Z</time></trkpt><trkpt lat="39.33216488549124" lon="16.113866976774354"><ele>943.0</ele><time>2026-04-27T09:44:11Z</time></trkpt><trkpt lat="39.33225277318734" lon="16.113999916799685"><ele>936.2</ele><time>2026-04-27T09:44:13Z</time></trkpt><trkpt lat="39.33230364810515" lon="16.11407168691369"><ele>929.4</ele><time>2026-04-27T09:44:14Z</time></trkpt><trkpt lat="39.332344411649345" lon="16.114140479074017"><ele>922.6000000000001</ele><time>2026-04-27T09:44:15Z</time></trkpt><trkpt lat="39.33239673269733" lon="16.114206293397466"><ele>915.8000000000001</ele><time>2026-04-27T09:44:16Z</time></trkpt><trkpt lat="39.332444409741846" lon="16.11435473858683"><ele>909.0</ele><time>2026-04-27T09:44:18Z</time></trkpt><trkpt lat="39.33245352452826" lon="16.114513691755317"><ele>909.0</ele><time>2026-04-27T09:44:20Z</time></trkpt><trkpt lat="39.332452147228935" lon="16.114620455623143"><ele>909.0000000000001</ele><time>2026-04-27T09:44:21Z</time></trkpt><trkpt lat="39.33242611508611" lon="16.11474112583918"><ele>909.0000000000001</ele><time>2026-04-27T09:44:22Z</time></trkpt><trkpt lat="39.33238346905277" lon="16.114837624483194"><ele>909.0</ele><time>2026-04-27T09:44:23Z</time></trkpt><trkpt lat="39.332335378999346" lon="16.114950075365883"><ele>909.0</ele><time>2026-04-27T09:44:24Z</time></trkpt><trkpt lat="39.33228741316499" lon="16.115065039019743"><ele>909.3333333333334</ele><time>2026-04-27T09:44:25Z</time></trkpt><trkpt lat="39.33224553947273" lon="16.115160137457103"><ele>909.6666666666667</ele><time>2026-04-27T09:44:26Z</time></trkpt><trkpt lat="39.33221140219537" lon="16.115250806310808"><ele>910.0</ele><time>2026-04-27T09:44:27Z</time></trkpt><trkpt lat="39.332188591089995" lon="16.115347630022658"><ele>910.3333333333334</ele><time>2026-04-27T09:44:28Z</time></trkpt><trkpt lat="39.33217641253792" lon="16.115430326390072"><ele>910.6666666666667</ele><time>2026-04-27T09:44:29Z</time></trkpt><trkpt lat="39.332114699150665" lon="16.115560375471716"><ele>911.0</ele><time>2026-04-27T09:44:31Z</time></trkpt><trkpt lat="39.33198053741376" lon="16.115602281029652"><ele>916.25</ele><time>2026-04-27T09:44:33Z</time></trkpt><trkpt lat="39.33184436463248" lon="16.115608256676797"><ele>921.5</ele><time>2026-04-27T09:44:34Z</time></trkpt><trkpt lat="39.3317031479816" lon="16.115607189711973"><ele>926.75</ele><time>2026-04-27T09:44:35Z</time></trkpt><trkpt lat="39.33159108894324" lon="16.115608940562538"><ele>932.0</ele><time>2026-04-27T09:44:36Z</time></trkpt><trkpt lat="39.331512027256906" lon="16.115621551726065"><ele>932.0000000000001</ele><time>2026-04-27T09:44:37Z</time></trkpt><trkpt lat="39.33145103871227" lon="16.115655166621767"><ele>932.0</ele><time>2026-04-27T09:44:38Z</time></trkpt><trkpt lat="39.33136693361566" lon="16.115718063728313"><ele>932.0</ele><time>2026-04-27T09:44:39Z</time></trkpt><trkpt lat="39.33128159812004" lon="16.115789488644015"><ele>932.0</ele><time>2026-04-27T09:44:40Z</time></trkpt><trkpt lat="39.33120403918881" lon="16.115831563526633"><ele>932.0000000000001</ele><time>2026-04-27T09:44:41Z</time></trkpt><trkpt lat="39.33111764617736" lon="16.11586340221693"><ele>932.0</ele><time>2026-04-27T09:44:42Z</time></trkpt><trkpt lat="39.33103376935066" lon="16.115904536050394"><ele>926.2</ele><time>2026-04-27T09:44:43Z</time></trkpt><trkpt lat="39.33093931160304" lon="16.115939620752005"><ele>920.4000000000001</ele><time>2026-04-27T09:44:44Z</time></trkpt><trkpt lat="39.330853941462664" lon="16.115979222211582"><ele>914.5999999999999</ele><time>2026-04-27T09:44:45Z</time></trkpt><trkpt lat="39.3307758746762" lon="16.11602420787806"><ele>908.8</ele><time>2026-04-27T09:44:46Z</time></trkpt><trkpt lat="39.33067520747026" lon="16.11609097712376"><ele>903.0</ele><time>2026-04-27T09:44:48Z</time></trkpt><trkpt lat="39.33059699758724" lon="16.116085275975067"><ele>901.5999999999999</ele><time>2026-04-27T09:44:50Z</time></trkpt><trkpt lat="39.33049877769427" lon="16.115958918046132"><ele>900.1999999999999</ele><time>2026-04-27T09:44:51.999Z</time></trkpt><trkpt lat="39.33044179894588" lon="16.115840658317456"><ele>898.8</ele><time>2026-04-27T09:44:52.999Z</time></trkpt><trkpt lat="39.33037667919887" lon="16.115742590945292"><ele>897.4</ele><time>2026-04-27T09:44:53.999Z</time></trkpt><trkpt lat="39.330310110346105" lon="16.11565263509566"><ele>896.0</ele><time>2026-04-27T09:44:54.999Z</time></trkpt><trkpt lat="39.33022517440247" lon="16.11555637225335"><ele>898.3333333333334</ele><time>2026-04-27T09:44:55.999Z</time></trkpt><trkpt lat="39.33014810877819" lon="16.115487106798916"><ele>900.6666666666667</ele><time>2026-04-27T09:44:56.999Z</time></trkpt><trkpt lat="39.33007102120482" lon="16.115439345923775"><ele>903.0</ele><time>2026-04-27T09:44:57.999Z</time></trkpt><trkpt lat="39.33000351450455" lon="16.11541453617651"><ele>905.3333333333333</ele><time>2026-04-27T09:44:58.999Z</time></trkpt><trkpt lat="39.32991095545112" lon="16.115430732286843"><ele>907.6666666666666</ele><time>2026-04-27T09:45:00.999Z</time></trkpt><trkpt lat="39.32987348245387" lon="16.115517415660005"><ele>910.0</ele><time>2026-04-27T09:45:02.999Z</time></trkpt><trkpt lat="39.32991159876079" lon="16.11559245920635"><ele>910.0</ele><time>2026-04-27T09:45:05.999Z</time></trkpt><trkpt lat="39.32997046697514" lon="16.115659718863828"><ele>910.0</ele><time>2026-04-27T09:45:07.999Z</time></trkpt><trkpt lat="39.33003178505295" lon="16.115854963184493"><ele>910.0</ele><time>2026-04-27T09:45:10.999Z</time></trkpt><trkpt lat="39.3299885676151" lon="16.11597467297145"><ele>910.0</ele><time>2026-04-27T09:45:12.999Z</time></trkpt><trkpt lat="39.32988079415664" lon="16.116122323983298"><ele>910.2</ele><time>2026-04-27T09:45:14.999Z</time></trkpt><trkpt lat="39.32982348429219" lon="16.116192542059334"><ele>910.4</ele><time>2026-04-27T09:45:15.999Z</time></trkpt><trkpt lat="39.32975023454686" lon="16.116283642221635"><ele>910.5999999999999</ele><time>2026-04-27T09:45:16.999Z</time></trkpt><trkpt lat="39.32966906290187" lon="16.116385228410728"><ele>910.8</ele><time>2026-04-27T09:45:17.999Z</time></trkpt><trkpt lat="39.32958095161856" lon="16.116481151895943"><ele>911.0</ele><time>2026-04-27T09:45:18.999Z</time></trkpt><trkpt lat="39.32948830725662" lon="16.116583714115237"><ele>905.5999999999999</ele><time>2026-04-27T09:45:19.999Z</time></trkpt><trkpt lat="39.329413879538514" lon="16.11667810779219"><ele>900.1999999999999</ele><time>2026-04-27T09:45:20.999Z</time></trkpt><trkpt lat="39.329349372036745" lon="16.11677775251166"><ele>894.8000000000001</ele><time>2026-04-27T09:45:21.999Z</time></trkpt><trkpt lat="39.32929866275217" lon="16.116901700720618"><ele>889.4000000000001</ele><time>2026-04-27T09:45:22.999Z</time></trkpt><trkpt lat="39.32924692804074" lon="16.117024473868625"><ele>884.0</ele><time>2026-04-27T09:45:23.999Z</time></trkpt><trkpt lat="39.32919155465676" lon="16.11715642783054"><ele>884.0</ele><time>2026-04-27T09:45:24.999Z</time></trkpt><trkpt lat="39.329140208690376" lon="16.117280158694946"><ele>884.0000000000001</ele><time>2026-04-27T09:45:25.999Z</time></trkpt><trkpt lat="39.32908469900963" lon="16.117397347608257"><ele>884.0000000000001</ele><time>2026-04-27T09:45:26.999Z</time></trkpt><trkpt lat="39.32903477601356" lon="16.117497873785673"><ele>884.0</ele><time>2026-04-27T09:45:27.999Z</time></trkpt><trkpt lat="39.32892838942152" lon="16.11753147923447"><ele>884.0</ele><time>2026-04-27T09:45:29.999Z</time></trkpt><trkpt lat="39.32887031818827" lon="16.11761736651197"><ele>884.6</ele><time>2026-04-27T09:45:31.999Z</time></trkpt><trkpt lat="39.328909649163734" lon="16.117785539577223"><ele>885.2</ele><time>2026-04-27T09:45:34.001Z</time></trkpt><trkpt lat="39.32892884762466" lon="16.11789083431257"><ele>885.8000000000001</ele><time>2026-04-27T09:45:35.001Z</time></trkpt><trkpt lat="39.3289177848219" lon="16.118011047473356"><ele>886.4000000000001</ele><time>2026-04-27T09:45:36.001Z</time></trkpt><trkpt lat="39.32889130351857" lon="16.118155824468083"><ele>887.0</ele><time>2026-04-27T09:45:37.001Z</time></trkpt><trkpt lat="39.3288740548294" lon="16.118291039252973"><ele>884.6</ele><time>2026-04-27T09:45:38.001Z</time></trkpt><trkpt lat="39.328882892595495" lon="16.118416471257618"><ele>882.2</ele><time>2026-04-27T09:45:39.001Z</time></trkpt><trkpt lat="39.32890695844105" lon="16.118542745602806"><ele>879.8</ele><time>2026-04-27T09:45:40.001Z</time></trkpt><trkpt lat="39.32891898997838" lon="16.118653230266045"><ele>877.4</ele><time>2026-04-27T09:45:41.001Z</time></trkpt><trkpt lat="39.328930210783064" lon="16.11878544229984"><ele>875.0</ele><time>2026-04-27T09:45:43.001Z</time></trkpt><trkpt lat="39.328905803037735" lon="16.118863015079473"><ele>875.0</ele><time>2026-04-27T09:45:44.001Z</time></trkpt><trkpt lat="39.32886596408016" lon="16.118949184507095"><ele>875.0</ele><time>2026-04-27T09:45:45.001Z</time></trkpt><trkpt lat="39.328790162321226" lon="16.11903481684069"><ele>875.0</ele><time>2026-04-27T09:45:46.001Z</time></trkpt><trkpt lat="39.328685313171384" lon="16.119128713254014"><ele>875.0</ele><time>2026-04-27T09:45:47.001Z</time></trkpt><trkpt lat="39.32856831357813" lon="16.119241034347638"><ele>869.0</ele><time>2026-04-27T09:45:48.001Z</time></trkpt><trkpt lat="39.32847730815622" lon="16.11938021034263"><ele>863.0</ele><time>2026-04-27T09:45:49.001Z</time></trkpt><trkpt lat="39.32839370635558" lon="16.119500169615215"><ele>857.0</ele><time>2026-04-27T09:45:50Z</time></trkpt><trkpt lat="39.32831082386558" lon="16.11957026014547"><ele>851.0</ele><time>2026-04-27T09:45:51Z</time></trkpt><trkpt lat="39.328207616744045" lon="16.119619750716563"><ele>851.0</ele><time>2026-04-27T09:45:52Z</time></trkpt><trkpt lat="39.32808116703506" lon="16.11967228829607"><ele>851.0</ele><time>2026-04-27T09:45:53Z</time></trkpt><trkpt lat="39.327963154983074" lon="16.119738823664445"><ele>851.0</ele><time>2026-04-27T09:45:54Z</time></trkpt><trkpt lat="39.327842779499804" lon="16.119834321487836"><ele>851.0</ele><time>2026-04-27T09:45:55Z</time></trkpt><trkpt lat="39.32772337105785" lon="16.11993119073313"><ele>849.0</ele><time>2026-04-27T09:45:56Z</time></trkpt><trkpt lat="39.32761842714114" lon="16.120018597109105"><ele>847.0</ele><time>2026-04-27T09:45:57Z</time></trkpt><trkpt lat="39.32751798240588" lon="16.120085750957944"><ele>845.0</ele><time>2026-04-27T09:45:58Z</time></trkpt><trkpt lat="39.32743347274825" lon="16.120152532799544"><ele>843.0</ele><time>2026-04-27T09:45:59Z</time></trkpt><trkpt lat="39.327371452349546" lon="16.120234745555514"><ele>841.0</ele><time>2026-04-27T09:46:00Z</time></trkpt><trkpt lat="39.32731981887454" lon="16.120342974565744"><ele>841.0</ele><time>2026-04-27T09:46:01Z</time></trkpt><trkpt lat="39.32727372463934" lon="16.12047925153044"><ele>841.0</ele><time>2026-04-27T09:46:02Z</time></trkpt><trkpt lat="39.32725402444154" lon="16.12059003782714"><ele>841.0</ele><time>2026-04-27T09:46:03Z</time></trkpt><trkpt lat="39.327258888529066" lon="16.120730964446036"><ele>841.0</ele><time>2026-04-27T09:46:05Z</time></trkpt><trkpt lat="39.32731604680527" lon="16.120810796066944"><ele>841.0</ele><time>2026-04-27T09:46:07Z</time></trkpt><trkpt lat="39.327417157723545" lon="16.120819307184092"><ele>839.8</ele><time>2026-04-27T09:46:09Z</time></trkpt><trkpt lat="39.32748691955009" lon="16.120816919185955"><ele>838.5999999999999</ele><time>2026-04-27T09:46:10Z</time></trkpt><trkpt lat="39.32757198855848" lon="16.120836081737927"><ele>837.4</ele><time>2026-04-27T09:46:11Z</time></trkpt><trkpt lat="39.32767148695128" lon="16.12084600302275"><ele>836.2</ele><time>2026-04-27T09:46:12Z</time></trkpt><trkpt lat="39.327744145618006" lon="16.12083794717535"><ele>835.0</ele><time>2026-04-27T09:46:13Z</time></trkpt><trkpt lat="39.32786571794441" lon="16.120839965870974"><ele>835.0</ele><time>2026-04-27T09:46:15Z</time></trkpt><trkpt lat="39.327924631298366" lon="16.12093512855522"><ele>835.0</ele><time>2026-04-27T09:46:17Z</time></trkpt><trkpt lat="39.32791055351343" lon="16.121048015540843"><ele>835.0</ele><time>2026-04-27T09:46:19Z</time></trkpt><trkpt lat="39.327859282343866" lon="16.121152874480984"><ele>835.0</ele><time>2026-04-27T09:46:20Z</time></trkpt><trkpt lat="39.327814255300275" lon="16.121294563130096"><ele>835.0</ele><time>2026-04-27T09:46:21Z</time></trkpt><trkpt lat="39.32780731025929" lon="16.121444903205532"><ele>834.75</ele><time>2026-04-27T09:46:22Z</time></trkpt><trkpt lat="39.32781474084356" lon="16.121623818558643"><ele>834.5</ele><time>2026-04-27T09:46:23Z</time></trkpt><trkpt lat="39.32780965894963" lon="16.121807322811183"><ele>834.25</ele><time>2026-04-27T09:46:24Z</time></trkpt><trkpt lat="39.32780523525992" lon="16.121943969085542"><ele>834.0</ele><time>2026-04-27T09:46:25Z</time></trkpt><trkpt lat="39.32779488234794" lon="16.122038320879458"><ele>834.0</ele><time>2026-04-27T09:46:26Z</time></trkpt><trkpt lat="39.32775377178501" lon="16.12216235590677"><ele>834.0</ele><time>2026-04-27T09:46:28Z</time></trkpt><trkpt lat="39.3277026362843" lon="16.12224752720156"><ele>834.0</ele><time>2026-04-27T09:46:30Z</time></trkpt><trkpt lat="39.32766555156233" lon="16.122330146409954"><ele>834.0</ele><time>2026-04-27T09:46:33Z</time></trkpt><trkpt lat="39.327586001298044" lon="16.12234798896113"><ele>834.0</ele><time>2026-04-27T09:51:03Z</time></trkpt><trkpt lat="39.327534206770046" lon="16.122274843170985"><ele>834.0</ele><time>2026-04-27T09:51:03.999Z</time></trkpt><trkpt lat="39.32748234917751" lon="16.122190056468312"><ele>834.0</ele><time>2026-04-27T09:51:05.999Z</time></trkpt><trkpt lat="39.32740907469905" lon="16.12211119564184"><ele>834.0</ele><time>2026-04-27T09:51:07.999Z</time></trkpt><trkpt lat="39.32735307764853" lon="16.12203662304222"><ele>834.0</ele><time>2026-04-27T09:51:08.999Z</time></trkpt><trkpt lat="39.327290533597775" lon="16.121950421306153"><ele>834.0</ele><time>2026-04-27T09:51:09.999Z</time></trkpt><trkpt lat="39.32723062579287" lon="16.12185568536091"><ele>834.0</ele><time>2026-04-27T09:51:10.999Z</time></trkpt><trkpt lat="39.327179615923924" lon="16.121755914246396"><ele>834.0</ele><time>2026-04-27T09:51:11.999Z</time></trkpt><trkpt lat="39.3271259322238" lon="16.121659265819186"><ele>834.0</ele><time>2026-04-27T09:51:12.999Z</time></trkpt><trkpt lat="39.32706410033941" lon="16.121565098579232"><ele>834.0</ele><time>2026-04-27T09:51:13.999Z</time></trkpt><trkpt lat="39.32701004479033" lon="16.121496076252722"><ele>834.0</ele><time>2026-04-27T09:51:14.999Z</time></trkpt><trkpt lat="39.326923467662915" lon="16.121416382084554"><ele>834.0</ele><time>2026-04-27T09:51:16.999Z</time></trkpt><trkpt lat="39.326879341469" lon="16.121345362633793"><ele>834.0</ele><time>2026-04-27T09:51:19.999Z</time></trkpt><trkpt lat="39.32682742982974" lon="16.121295250761925"><ele>834.0</ele><time>2026-04-27T09:51:22.999Z</time></trkpt><trkpt lat="39.32676115313726" lon="16.121316965700647"><ele>834.0</ele><time>2026-04-27T09:51:37.999Z</time></trkpt><trkpt lat="39.32682189764343" lon="16.121277601373965"><ele>834.0</ele><time>2026-04-27T10:11:37Z</time></trkpt><trkpt lat="39.32688161709888" lon="16.12134339189348"><ele>834.0</ele><time>2026-04-27T10:11:39Z</time></trkpt><trkpt lat="39.32686962921302" lon="16.121442767147343"><ele>834.0</ele><time>2026-04-27T10:11:43Z</time></trkpt><trkpt lat="39.326818761091936" lon="16.121513960366876"><ele>834.0</ele><time>2026-04-27T10:11:48Z</time></trkpt><trkpt lat="39.32675542900521" lon="16.121588472083857"><ele>834.0</ele><time>2026-04-27T10:11:52Z</time></trkpt><trkpt lat="39.32664502032461" lon="16.121665763175525"><ele>834.0</ele><time>2026-04-27T10:11:55Z</time></trkpt><trkpt lat="39.326584458675605" lon="16.12170682907261"><ele>834.0</ele><time>2026-04-27T10:11:56Z</time></trkpt><trkpt lat="39.32643524468079" lon="16.12171797817512"><ele>834.0</ele><time>2026-04-27T10:11:58Z</time></trkpt><trkpt lat="39.32634739580259" lon="16.121724411376608"><ele>834.0</ele><time>2026-04-27T10:11:59Z</time></trkpt><trkpt lat="39.32625946278835" lon="16.121742395753188"><ele>834.0</ele><time>2026-04-27T10:12:00Z</time></trkpt><trkpt lat="39.32618081793586" lon="16.12174224681817"><ele>834.0</ele><time>2026-04-27T10:12:01Z</time></trkpt><trkpt lat="39.32611003842665" lon="16.121749407160568"><ele>834.0</ele><time>2026-04-27T10:12:02Z</time></trkpt><trkpt lat="39.32602405847661" lon="16.121766607217886"><ele>834.0</ele><time>2026-04-27T10:12:03Z</time></trkpt><trkpt lat="39.32592603154792" lon="16.121769975021927"><ele>834.0</ele><time>2026-04-27T10:12:04Z</time></trkpt><trkpt lat="39.32583631414465" lon="16.121789118254185"><ele>834.0</ele><time>2026-04-27T10:12:05Z</time></trkpt><trkpt lat="39.32576458954632" lon="16.121871160755305"><ele>834.0</ele><time>2026-04-27T10:12:06Z</time></trkpt><trkpt lat="39.32568654685259" lon="16.121928268561195"><ele>834.0</ele><time>2026-04-27T10:12:07Z</time></trkpt><trkpt lat="39.325610855030234" lon="16.122007665750502"><ele>834.0</ele><time>2026-04-27T10:12:08Z</time></trkpt><trkpt lat="39.32553385229741" lon="16.12208293478759"><ele>834.0</ele><time>2026-04-27T10:12:09Z</time></trkpt><trkpt lat="39.32545200154186" lon="16.122152120357956"><ele>834.0</ele><time>2026-04-27T10:12:10Z</time></trkpt><trkpt lat="39.32534593154345" lon="16.122187955503474"><ele>834.2</ele><time>2026-04-27T10:12:11Z</time></trkpt><trkpt lat="39.32524954489096" lon="16.122214559066002"><ele>834.4000000000001</ele><time>2026-04-27T10:12:12Z</time></trkpt><trkpt lat="39.32515450873723" lon="16.1222397017589"><ele>834.6</ele><time>2026-04-27T10:12:13Z</time></trkpt><trkpt lat="39.32506532247907" lon="16.122268823801864"><ele>834.8</ele><time>2026-04-27T10:12:14Z</time></trkpt><trkpt lat="39.324979121180924" lon="16.12229281444864"><ele>835.0</ele><time>2026-04-27T10:12:15Z</time></trkpt><trkpt lat="39.32489418200654" lon="16.12230022642491"><ele>834.9999999999999</ele><time>2026-04-27T10:12:15.999Z</time></trkpt><trkpt lat="39.324814229248084" lon="16.122271921975376"><ele>835.0</ele><time>2026-04-27T10:12:16.999Z</time></trkpt><trkpt lat="39.32471907872307" lon="16.12223067366408"><ele>835.0</ele><time>2026-04-27T10:12:17.999Z</time></trkpt><trkpt lat="39.32463864877919" lon="16.122186268454893"><ele>835.0</ele><time>2026-04-27T10:12:18.999Z</time></trkpt><trkpt lat="39.32457725250197" lon="16.12214864339375"><ele>834.9999999999999</ele><time>2026-04-27T10:12:19.999Z</time></trkpt><trkpt lat="39.32451756580145" lon="16.12210307796917"><ele>835.0</ele><time>2026-04-27T10:12:20.999Z</time></trkpt><trkpt lat="39.32445491097463" lon="16.122046351589603"><ele>834.4999999999999</ele><time>2026-04-27T10:12:21.999Z</time></trkpt><trkpt lat="39.32439638290879" lon="16.121972527368747"><ele>834.0</ele><time>2026-04-27T10:12:22.999Z</time></trkpt><trkpt lat="39.324332659667064" lon="16.121928707272698"><ele>833.5</ele><time>2026-04-27T10:12:23.999Z</time></trkpt><trkpt lat="39.32427135902574" lon="16.121871505023897"><ele>833.0</ele><time>2026-04-27T10:12:24.999Z</time></trkpt><trkpt lat="39.32419867659423" lon="16.121830589189013"><ele>832.4999999999999</ele><time>2026-04-27T10:12:25.999Z</time></trkpt><trkpt lat="39.32412087977236" lon="16.12179952216696"><ele>832.0</ele><time>2026-04-27T10:12:26.999Z</time></trkpt><trkpt lat="39.324031903464316" lon="16.121755448363146"><ele>831.9999999999999</ele><time>2026-04-27T10:12:27.999Z</time></trkpt><trkpt lat="39.323944338435744" lon="16.12174499389203"><ele>832.0</ele><time>2026-04-27T10:12:28.999Z</time></trkpt><trkpt lat="39.32385569651395" lon="16.12173944641471"><ele>832.0</ele><time>2026-04-27T10:12:29.999Z</time></trkpt><trkpt lat="39.323772975782" lon="16.12174334377813"><ele>832.0</ele><time>2026-04-27T10:12:30.999Z</time></trkpt><trkpt lat="39.32368249388638" lon="16.121734281673728"><ele>831.9999999999999</ele><time>2026-04-27T10:12:31.999Z</time></trkpt><trkpt lat="39.323597852781425" lon="16.121722595976536"><ele>832.0</ele><time>2026-04-27T10:12:32.999Z</time></trkpt><trkpt lat="39.323507793317056" lon="16.121709705263434"><ele>832.0</ele><time>2026-04-27T10:12:33.999Z</time></trkpt><trkpt lat="39.323412442651936" lon="16.121695116090493"><ele>832.0</ele><time>2026-04-27T10:12:34.999Z</time></trkpt><trkpt lat="39.32330963515313" lon="16.12167979598149"><ele>832.0</ele><time>2026-04-27T10:12:35.999Z</time></trkpt><trkpt lat="39.323204497447016" lon="16.121665280488486"><ele>832.0</ele><time>2026-04-27T10:12:36.999Z</time></trkpt><trkpt lat="39.3230887257418" lon="16.121645733164517"><ele>832.0</ele><time>2026-04-27T10:12:37.999Z</time></trkpt><trkpt lat="39.32296701961709" lon="16.12161870004399"><ele>831.8</ele><time>2026-04-27T10:12:38.999Z</time></trkpt><trkpt lat="39.3228558361962" lon="16.12158759206958"><ele>831.6</ele><time>2026-04-27T10:12:39.999Z</time></trkpt><trkpt lat="39.32274851257165" lon="16.121552952675916"><ele>831.4</ele><time>2026-04-27T10:12:40.999Z</time></trkpt><trkpt lat="39.322646167993824" lon="16.121518560261116"><ele>831.1999999999999</ele><time>2026-04-27T10:12:41.999Z</time></trkpt><trkpt lat="39.32253292947644" lon="16.12151183436632"><ele>831.0</ele><time>2026-04-27T10:12:42.999Z</time></trkpt><trkpt lat="39.322423516544575" lon="16.121509862461682"><ele>833.75</ele><time>2026-04-27T10:12:43.999Z</time></trkpt><trkpt lat="39.32231757735663" lon="16.12150042999796"><ele>836.5</ele><time>2026-04-27T10:12:44.999Z</time></trkpt><trkpt lat="39.32220333900079" lon="16.121503244279445"><ele>839.25</ele><time>2026-04-27T10:12:45.999Z</time></trkpt><trkpt lat="39.322082600065414" lon="16.12152543212828"><ele>842.0</ele><time>2026-04-27T10:12:46.999Z</time></trkpt><trkpt lat="39.32196467687493" lon="16.12154938974827"><ele>842.0</ele><time>2026-04-27T10:12:47.999Z</time></trkpt><trkpt lat="39.32183874438715" lon="16.12156351299926"><ele>842.0</ele><time>2026-04-27T10:12:49.001Z</time></trkpt><trkpt lat="39.32170608622716" lon="16.12156418131679"><ele>842.0</ele><time>2026-04-27T10:12:50.001Z</time></trkpt><trkpt lat="39.32159424809517" lon="16.12154788845413"><ele>842.0</ele><time>2026-04-27T10:12:51.001Z</time></trkpt><trkpt lat="39.3214943525273" lon="16.121527632780182"><ele>838.6</ele><time>2026-04-27T10:12:52.001Z</time></trkpt><trkpt lat="39.32139388749596" lon="16.121490436832882"><ele>835.2</ele><time>2026-04-27T10:12:53.001Z</time></trkpt><trkpt lat="39.32128618218842" lon="16.121456503939896"><ele>831.8</ele><time>2026-04-27T10:12:54.001Z</time></trkpt><trkpt lat="39.32120886242376" lon="16.121433963464483"><ele>828.4</ele><time>2026-04-27T10:12:55.001Z</time></trkpt><trkpt lat="39.3210859188867" lon="16.121400332211845"><ele>825.0</ele><time>2026-04-27T10:12:57.001Z</time></trkpt><trkpt lat="39.321022616439855" lon="16.12139985097736"><ele>825.0</ele><time>2026-04-27T10:12:58.001Z</time></trkpt><trkpt lat="39.32090684784659" lon="16.121365124548394"><ele>825.0</ele><time>2026-04-27T10:13:00.001Z</time></trkpt><trkpt lat="39.32084074828944" lon="16.12131597328289"><ele>825.0</ele><time>2026-04-27T10:13:01.001Z</time></trkpt><trkpt lat="39.32079068749534" lon="16.121231486204497"><ele>825.0</ele><time>2026-04-27T10:13:02.001Z</time></trkpt><trkpt lat="39.32075345449501" lon="16.12113007727303"><ele>825.0</ele><time>2026-04-27T10:13:03.001Z</time></trkpt><trkpt lat="39.32073445593357" lon="16.12101072879226"><ele>825.0</ele><time>2026-04-27T10:13:04.001Z</time></trkpt><trkpt lat="39.32071943864635" lon="16.120887518977376"><ele>825.0</ele><time>2026-04-27T10:13:05.001Z</time></trkpt><trkpt lat="39.32070021124828" lon="16.120772422137968"><ele>825.0</ele><time>2026-04-27T10:13:06.001Z</time></trkpt><trkpt lat="39.32066383401687" lon="16.120652199748758"><ele>825.0</ele><time>2026-04-27T10:13:07.001Z</time></trkpt><trkpt lat="39.32061924316595" lon="16.120542067357206"><ele>825.0</ele><time>2026-04-27T10:13:08.001Z</time></trkpt><trkpt lat="39.320554748361786" lon="16.120441416067035"><ele>824.6</ele><time>2026-04-27T10:13:09.001Z</time></trkpt><trkpt lat="39.3204902467427" lon="16.12034317479332"><ele>824.2</ele><time>2026-04-27T10:13:10Z</time></trkpt><trkpt lat="39.32041529078016" lon="16.12024036560664"><ele>823.8</ele><time>2026-04-27T10:13:11Z</time></trkpt><trkpt lat="39.3203342633081" lon="16.12016147110328"><ele>823.4</ele><time>2026-04-27T10:13:12Z</time></trkpt><trkpt lat="39.32026152563983" lon="16.120111713453134"><ele>823.0</ele><time>2026-04-27T10:13:13Z</time></trkpt><trkpt lat="39.32019637036827" lon="16.120073811930514"><ele>822.9999999999999</ele><time>2026-04-27T10:13:14Z</time></trkpt><trkpt lat="39.32013123836365" lon="16.120057070536536"><ele>823.0</ele><time>2026-04-27T10:13:15Z</time></trkpt><trkpt lat="39.32006099468843" lon="16.12007372989453"><ele>823.0</ele><time>2026-04-27T10:13:16Z</time></trkpt><trkpt lat="39.31999872973468" lon="16.120152652349628"><ele>823.0</ele><time>2026-04-27T10:13:17Z</time></trkpt><trkpt lat="39.3199549423446" lon="16.120275405118615"><ele>822.9999999999999</ele><time>2026-04-27T10:13:18Z</time></trkpt><trkpt lat="39.31994602009582" lon="16.12040279288878"><ele>823.0</ele><time>2026-04-27T10:13:19Z</time></trkpt><trkpt lat="39.31997878062286" lon="16.120520736153672"><ele>823.0</ele><time>2026-04-27T10:13:20Z</time></trkpt><trkpt lat="39.32006614448369" lon="16.12060319652921"><ele>823.0</ele><time>2026-04-27T10:13:21Z</time></trkpt><trkpt lat="39.3201295387257" lon="16.120719677905978"><ele>823.0</ele><time>2026-04-27T10:13:22Z</time></trkpt><trkpt lat="39.32017901617417" lon="16.12084722012559"><ele>823.0</ele><time>2026-04-27T10:13:23Z</time></trkpt><trkpt lat="39.32021565411216" lon="16.120960604801958"><ele>823.0</ele><time>2026-04-27T10:13:24Z</time></trkpt><trkpt lat="39.32023715586892" lon="16.121038860401224"><ele>820.3333333333333</ele><time>2026-04-27T10:13:25Z</time></trkpt><trkpt lat="39.32025941091602" lon="16.12113072207013"><ele>817.6666666666666</ele><time>2026-04-27T10:13:27Z</time></trkpt><trkpt lat="39.3202794501409" lon="16.1212354950299"><ele>815.0</ele><time>2026-04-27T10:13:29Z</time></trkpt><trkpt lat="39.320317538933026" lon="16.121157730889404"><ele>812.3333333333333</ele><time>2026-04-27T10:14:01Z</time></trkpt><trkpt lat="39.32029196646008" lon="16.121043598613333"><ele>809.6666666666666</ele><time>2026-04-27T10:14:06Z</time></trkpt><trkpt lat="39.32026425870786" lon="16.120930537127673"><ele>807.0</ele><time>2026-04-27T10:14:10Z</time></trkpt><trkpt lat="39.32023372630336" lon="16.120837068972612"><ele>809.6666666666666</ele><time>2026-04-27T10:14:11Z</time></trkpt><trkpt lat="39.32019037550487" lon="16.120722576206518"><ele>812.3333333333333</ele><time>2026-04-27T10:14:12Z</time></trkpt><trkpt lat="39.32013852348528" lon="16.120613230563144"><ele>815.0</ele><time>2026-04-27T10:14:13Z</time></trkpt><trkpt lat="39.32009420209955" lon="16.120543107189793"><ele>817.6666666666666</ele><time>2026-04-27T10:14:14Z</time></trkpt><trkpt lat="39.32002999307073" lon="16.120456041854567"><ele>820.3333333333333</ele><time>2026-04-27T10:14:16Z</time></trkpt><trkpt lat="39.31997240626156" lon="16.120390708045218"><ele>823.0</ele><time>2026-04-27T10:14:19.999Z</time></trkpt><trkpt lat="39.319925507175064" lon="16.120317921115497"><ele>823.0</ele><time>2026-04-27T10:14:24.999Z</time></trkpt><trkpt lat="39.31987105862495" lon="16.120233417543595"><ele>823.0</ele><time>2026-04-27T10:14:26.999Z</time></trkpt><trkpt lat="39.31982212443322" lon="16.12015747219931"><ele>823.0</ele><time>2026-04-27T10:14:28.999Z</time></trkpt><trkpt lat="39.31952776083928" lon="16.120326948831927"><ele>825.2</ele><time>2026-04-27T10:14:31.999Z</time></trkpt><trkpt lat="39.31946371970624" lon="16.120333392609187"><ele>827.4</ele><time>2026-04-27T10:14:32.999Z</time></trkpt><trkpt lat="39.319338733468015" lon="16.120358643378182"><ele>829.6</ele><time>2026-04-27T10:14:34.999Z</time></trkpt><trkpt lat="39.31922920578384" lon="16.12043176363218"><ele>831.8000000000001</ele><time>2026-04-27T10:14:36.999Z</time></trkpt><trkpt lat="39.31913615405085" lon="16.120523185227363"><ele>834.0</ele><time>2026-04-27T10:14:38.999Z</time></trkpt><trkpt lat="39.319062528336566" lon="16.12061656025793"><ele>834.0</ele><time>2026-04-27T10:14:40.999Z</time></trkpt><trkpt lat="39.31897320453575" lon="16.120659168379"><ele>834.0</ele><time>2026-04-27T10:14:43.999Z</time></trkpt><trkpt lat="39.31891622028903" lon="16.12058407653522"><ele>834.0</ele><time>2026-04-27T10:14:46.999Z</time></trkpt><trkpt lat="39.318877354492926" lon="16.120433524049844"><ele>834.0</ele><time>2026-04-27T10:14:48.999Z</time></trkpt><trkpt lat="39.31889680731467" lon="16.120347444988415"><ele>834.0</ele><time>2026-04-27T10:14:49.999Z</time></trkpt><trkpt lat="39.31893925684783" lon="16.12021392159722"><ele>834.0</ele><time>2026-04-27T10:14:51.999Z</time></trkpt><trkpt lat="39.318987721185906" lon="16.12013446279986"><ele>834.0</ele><time>2026-04-27T10:14:53.999Z</time></trkpt><trkpt lat="39.31903642310046" lon="16.120065843989007"><ele>834.0</ele><time>2026-04-27T10:14:55.001Z</time></trkpt><trkpt lat="39.31911530801091" lon="16.120016972194264"><ele>834.0</ele><time>2026-04-27T10:14:57.001Z</time></trkpt><trkpt lat="39.319233710750716" lon="16.11995370608591"><ele>834.0</ele><time>2026-04-27T10:14:59.001Z</time></trkpt><trkpt lat="39.31929455563575" lon="16.119917046604453"><ele>834.0</ele><time>2026-04-27T10:15:00.001Z</time></trkpt><trkpt lat="39.319358224011886" lon="16.11982690818394"><ele>840.6</ele><time>2026-04-27T10:15:02.001Z</time></trkpt><trkpt lat="39.319275447356304" lon="16.11978208267626"><ele>847.2</ele><time>2026-04-27T10:15:04.001Z</time></trkpt><trkpt lat="39.319184008600615" lon="16.119791389845105"><ele>853.8000000000001</ele><time>2026-04-27T10:15:06Z</time></trkpt><trkpt lat="39.31909545765748" lon="16.11987459099934"><ele>860.4000000000001</ele><time>2026-04-27T10:15:07.001Z</time></trkpt><trkpt lat="39.318987775033996" lon="16.119849366286587"><ele>867.0</ele><time>2026-04-27T10:15:09Z</time></trkpt><trkpt lat="39.31891963559039" lon="16.119809394002644"><ele>866.6666666666666</ele><time>2026-04-27T10:15:10Z</time></trkpt><trkpt lat="39.31885001976958" lon="16.119743382986698"><ele>866.3333333333333</ele><time>2026-04-27T10:15:11Z</time></trkpt><trkpt lat="39.31878951003078" lon="16.11968698608997"><ele>866.0</ele><time>2026-04-27T10:15:12Z</time></trkpt><trkpt lat="39.318722510670625" lon="16.119630962921125"><ele>865.6666666666666</ele><time>2026-04-27T10:15:13Z</time></trkpt><trkpt lat="39.31863604757953" lon="16.119586890742273"><ele>865.3333333333333</ele><time>2026-04-27T10:15:14Z</time></trkpt><trkpt lat="39.318562805458484" lon="16.11955391198945"><ele>865.0</ele><time>2026-04-27T10:15:15Z</time></trkpt><trkpt lat="39.31849108248389" lon="16.119528673213804"><ele>864.9999999999999</ele><time>2026-04-27T10:15:16Z</time></trkpt><trkpt lat="39.31840434898235" lon="16.11951401690422"><ele>865.0</ele><time>2026-04-27T10:15:17Z</time></trkpt><trkpt lat="39.31832014970121" lon="16.119502508955794"><ele>865.0</ele><time>2026-04-27T10:15:18Z</time></trkpt><trkpt lat="39.318243100987594" lon="16.119486710290143"><ele>865.0</ele><time>2026-04-27T10:15:19Z</time></trkpt><trkpt lat="39.3181615945133" lon="16.119481199370522"><ele>864.9999999999999</ele><time>2026-04-27T10:15:20Z</time></trkpt><trkpt lat="39.31808388091327" lon="16.119492302828068"><ele>865.0</ele><time>2026-04-27T10:15:21Z</time></trkpt><trkpt lat="39.31801555350085" lon="16.119538751975483"><ele>865.0</ele><time>2026-04-27T10:15:22Z</time></trkpt><trkpt lat="39.31791441982892" lon="16.11959147378028"><ele>865.0</ele><time>2026-04-27T10:15:23Z</time></trkpt><trkpt lat="39.317811924827915" lon="16.119638697051307"><ele>865.0</ele><time>2026-04-27T10:15:24Z</time></trkpt><trkpt lat="39.317723177174315" lon="16.11966912607268"><ele>865.0</ele><time>2026-04-27T10:15:25Z</time></trkpt><trkpt lat="39.317634454379686" lon="16.11968953950109"><ele>865.0</ele><time>2026-04-27T10:15:26Z</time></trkpt><trkpt lat="39.317539483485746" lon="16.119717839146276"><ele>865.0</ele><time>2026-04-27T10:15:27Z</time></trkpt><trkpt lat="39.317435564011234" lon="16.119758553818954"><ele>865.0</ele><time>2026-04-27T10:15:28Z</time></trkpt><trkpt lat="39.31732687315428" lon="16.119791643662072"><ele>865.0</ele><time>2026-04-27T10:15:29Z</time></trkpt><trkpt lat="39.31724437525827" lon="16.119816852817923"><ele>865.0</ele><time>2026-04-27T10:15:30Z</time></trkpt><trkpt lat="39.31716711829139" lon="16.11984108702127"><ele>865.0</ele><time>2026-04-27T10:15:31Z</time></trkpt><trkpt lat="39.31709510694483" lon="16.11986800108582"><ele>862.6</ele><time>2026-04-27T10:15:32Z</time></trkpt><trkpt lat="39.31702232704006" lon="16.1199060505222"><ele>860.2</ele><time>2026-04-27T10:15:33Z</time></trkpt><trkpt lat="39.316936267023614" lon="16.119960263180648"><ele>857.8</ele><time>2026-04-27T10:15:34Z</time></trkpt><trkpt lat="39.31684742446048" lon="16.120040164891524"><ele>855.4</ele><time>2026-04-27T10:15:35Z</time></trkpt><trkpt lat="39.31676786249553" lon="16.120129210634612"><ele>853.0</ele><time>2026-04-27T10:15:36Z</time></trkpt><trkpt lat="39.316694370999464" lon="16.12020594054167"><ele>853.0</ele><time>2026-04-27T10:15:37Z</time></trkpt><trkpt lat="39.316618007264076" lon="16.12027226685438"><ele>853.0</ele><time>2026-04-27T10:15:38Z</time></trkpt><trkpt lat="39.3165406950084" lon="16.12032339655949"><ele>853.0</ele><time>2026-04-27T10:15:39Z</time></trkpt><trkpt lat="39.31644964659017" lon="16.120355974459102"><ele>853.0</ele><time>2026-04-27T10:15:40Z</time></trkpt><trkpt lat="39.31636105747327" lon="16.120395159860028"><ele>853.0</ele><time>2026-04-27T10:15:41Z</time></trkpt><trkpt lat="39.31625893983336" lon="16.120447695283115"><ele>852.8</ele><time>2026-04-27T10:15:43Z</time></trkpt><trkpt lat="39.316197641413666" lon="16.120586575151588"><ele>852.5999999999999</ele><time>2026-04-27T10:15:45Z</time></trkpt><trkpt lat="39.31617945776499" lon="16.120685918997662"><ele>852.4000000000001</ele><time>2026-04-27T10:15:46Z</time></trkpt><trkpt lat="39.316150252391886" lon="16.120806766433816"><ele>852.2</ele><time>2026-04-27T10:15:47Z</time></trkpt><trkpt lat="39.316118655683994" lon="16.120946622453047"><ele>852.0</ele><time>2026-04-27T10:15:48Z</time></trkpt><trkpt lat="39.316084045426464" lon="16.121068410968274"><ele>851.3333333333334</ele><time>2026-04-27T10:15:49Z</time></trkpt><trkpt lat="39.316050462317705" lon="16.12114911687378"><ele>850.6666666666667</ele><time>2026-04-27T10:15:50Z</time></trkpt><trkpt lat="39.31599852541406" lon="16.121272816974226"><ele>850.0</ele><time>2026-04-27T10:15:52Z</time></trkpt><trkpt lat="39.31594975703923" lon="16.121350590818633"><ele>849.3333333333334</ele><time>2026-04-27T10:15:53Z</time></trkpt><trkpt lat="39.31589216568374" lon="16.121417423311083"><ele>848.6666666666667</ele><time>2026-04-27T10:15:54Z</time></trkpt><trkpt lat="39.31583556045974" lon="16.121475828829837"><ele>848.0</ele><time>2026-04-27T10:15:55Z</time></trkpt><trkpt lat="39.315729645585456" lon="16.121545679634945"><ele>848.0000000000001</ele><time>2026-04-27T10:15:57Z</time></trkpt><trkpt lat="39.31564141067251" lon="16.121532315076784"><ele>848.0</ele><time>2026-04-27T10:15:58Z</time></trkpt><trkpt lat="39.31555504920507" lon="16.121522351726334"><ele>848.0</ele><time>2026-04-27T10:15:59Z</time></trkpt><trkpt lat="39.3154684858285" lon="16.12152707814627"><ele>848.0</ele><time>2026-04-27T10:16:00Z</time></trkpt><trkpt lat="39.31538013446103" lon="16.121563067190333"><ele>848.0000000000001</ele><time>2026-04-27T10:16:01Z</time></trkpt><trkpt lat="39.31529388675588" lon="16.12160517271009"><ele>848.0</ele><time>2026-04-27T10:16:02Z</time></trkpt><trkpt lat="39.31520538068184" lon="16.121657006094694"><ele>849.0</ele><time>2026-04-27T10:16:03Z</time></trkpt><trkpt lat="39.31512866066307" lon="16.12169943348686"><ele>850.0</ele><time>2026-04-27T10:16:04Z</time></trkpt><trkpt lat="39.315058411244756" lon="16.121727758734337"><ele>851.0</ele><time>2026-04-27T10:16:05Z</time></trkpt><trkpt lat="39.314975125444164" lon="16.12172475050641"><ele>852.0</ele><time>2026-04-27T10:16:06Z</time></trkpt><trkpt lat="39.314863829883286" lon="16.12172564375581"><ele>853.0</ele><time>2026-04-27T10:16:07Z</time></trkpt><trkpt lat="39.31476481870063" lon="16.121746888045713"><ele>854.4</ele><time>2026-04-27T10:16:08Z</time></trkpt><trkpt lat="39.314676316932214" lon="16.121792341401903"><ele>855.8</ele><time>2026-04-27T10:16:09Z</time></trkpt><trkpt lat="39.314583064731075" lon="16.121844559389192"><ele>857.2</ele><time>2026-04-27T10:16:10Z</time></trkpt><trkpt lat="39.31450204965977" lon="16.12187461410751"><ele>858.6</ele><time>2026-04-27T10:16:11Z</time></trkpt><trkpt lat="39.314421868821476" lon="16.121888125413797"><ele>860.0</ele><time>2026-04-27T10:16:12Z</time></trkpt><trkpt lat="39.314309283613696" lon="16.121867104557776"><ele>860.0000000000001</ele><time>2026-04-27T10:16:13Z</time></trkpt><trkpt lat="39.314212583537106" lon="16.121878007054757"><ele>860.0</ele><time>2026-04-27T10:16:14Z</time></trkpt><trkpt lat="39.314140646693616" lon="16.121904661842866"><ele>860.0</ele><time>2026-04-27T10:16:15Z</time></trkpt><trkpt lat="39.31405510683512" lon="16.121937164092415"><ele>860.0</ele><time>2026-04-27T10:16:15.999Z</time></trkpt><trkpt lat="39.31397281301863" lon="16.12195963213137"><ele>860.0000000000001</ele><time>2026-04-27T10:16:16.999Z</time></trkpt><trkpt lat="39.31387115605511" lon="16.121957199617135"><ele>860.0</ele><time>2026-04-27T10:16:17.999Z</time></trkpt><trkpt lat="39.31375213928181" lon="16.121947727809932"><ele>860.8</ele><time>2026-04-27T10:16:18.999Z</time></trkpt><trkpt lat="39.313645523112584" lon="16.121942969924177"><ele>861.6</ele><time>2026-04-27T10:16:19.999Z</time></trkpt><trkpt lat="39.31354432673841" lon="16.121951031827024"><ele>862.4000000000001</ele><time>2026-04-27T10:16:20.999Z</time></trkpt><trkpt lat="39.31343113877356" lon="16.12194462956262"><ele>863.2</ele><time>2026-04-27T10:16:21.999Z</time></trkpt><trkpt lat="39.3133176825267" lon="16.121922445489542"><ele>864.0</ele><time>2026-04-27T10:16:22.999Z</time></trkpt><trkpt lat="39.31321418624498" lon="16.121866275248312"><ele>864.0</ele><time>2026-04-27T10:16:23.999Z</time></trkpt><trkpt lat="39.313085366039104" lon="16.121823941818143"><ele>864.0</ele><time>2026-04-27T10:16:24.999Z</time></trkpt><trkpt lat="39.31293632921918" lon="16.12177579220448"><ele>864.0</ele><time>2026-04-27T10:16:25.999Z</time></trkpt><trkpt lat="39.312801464333866" lon="16.121739944217815"><ele>864.0</ele><time>2026-04-27T10:16:26.999Z</time></trkpt><trkpt lat="39.31268200943666" lon="16.121702329225137"><ele>865.75</ele><time>2026-04-27T10:16:27.999Z</time></trkpt><trkpt lat="39.312579995299345" lon="16.121671204630296"><ele>867.5</ele><time>2026-04-27T10:16:28.999Z</time></trkpt><trkpt lat="39.31247604301335" lon="16.12165981228521"><ele>869.25</ele><time>2026-04-27T10:16:29.999Z</time></trkpt><trkpt lat="39.31236306255159" lon="16.121665458065145"><ele>871.0</ele><time>2026-04-27T10:16:30.999Z</time></trkpt><trkpt lat="39.31224600434946" lon="16.121730497246997"><ele>873.75</ele><time>2026-04-27T10:16:31.999Z</time></trkpt><trkpt lat="39.3121361799982" lon="16.12172924645492"><ele>876.5</ele><time>2026-04-27T10:16:32.999Z</time></trkpt><trkpt lat="39.31204062818715" lon="16.121710281208298"><ele>879.25</ele><time>2026-04-27T10:16:33.999Z</time></trkpt><trkpt lat="39.31192631757659" lon="16.121674042437846"><ele>882.0</ele><time>2026-04-27T10:16:34.999Z</time></trkpt><trkpt lat="39.31179355849901" lon="16.121653428826793"><ele>882.0</ele><time>2026-04-27T10:16:35.999Z</time></trkpt><trkpt lat="39.311657161598085" lon="16.12166735923324"><ele>882.0</ele><time>2026-04-27T10:16:36.999Z</time></trkpt><trkpt lat="39.31151385272531" lon="16.1217279233248"><ele>882.0</ele><time>2026-04-27T10:16:37.999Z</time></trkpt><trkpt lat="39.31137721978902" lon="16.121763156360018"><ele>882.0</ele><time>2026-04-27T10:16:38.999Z</time></trkpt><trkpt lat="39.311264774294685" lon="16.12179000975479"><ele>882.4000000000001</ele><time>2026-04-27T10:16:39.999Z</time></trkpt><trkpt lat="39.311171043220675" lon="16.1218300574333"><ele>882.8000000000001</ele><time>2026-04-27T10:16:40.999Z</time></trkpt><trkpt lat="39.31107522748083" lon="16.12180368997446"><ele>883.2</ele><time>2026-04-27T10:16:41.999Z</time></trkpt><trkpt lat="39.31097960880763" lon="16.121800187013875"><ele>883.6</ele><time>2026-04-27T10:16:42.999Z</time></trkpt><trkpt lat="39.31090959503549" lon="16.12177154599241"><ele>884.0</ele><time>2026-04-27T10:16:43.999Z</time></trkpt><trkpt lat="39.31080825182381" lon="16.121728102421752"><ele>884.0</ele><time>2026-04-27T10:16:44.999Z</time></trkpt><trkpt lat="39.31069084504645" lon="16.12165046002129"><ele>884.0000000000001</ele><time>2026-04-27T10:16:45.999Z</time></trkpt><trkpt lat="39.310600572541205" lon="16.12159084611598"><ele>884.0000000000001</ele><time>2026-04-27T10:16:46.999Z</time></trkpt><trkpt lat="39.310528073123415" lon="16.121555107309362"><ele>884.0</ele><time>2026-04-27T10:16:47.999Z</time></trkpt><trkpt lat="39.31045935981724" lon="16.121428467644964"><ele>884.0</ele><time>2026-04-27T10:16:49.999Z</time></trkpt><trkpt lat="39.310419619324215" lon="16.12136054728914"><ele>889.8000000000001</ele><time>2026-04-27T10:16:50.999Z</time></trkpt><trkpt lat="39.310338587558725" lon="16.121299305749922"><ele>895.6000000000001</ele><time>2026-04-27T10:16:52.999Z</time></trkpt><trkpt lat="39.3102594372406" lon="16.12127614178308"><ele>901.4</ele><time>2026-04-27T10:16:54.999Z</time></trkpt><trkpt lat="39.31014701983701" lon="16.12128155604616"><ele>907.2</ele><time>2026-04-27T10:16:56.999Z</time></trkpt><trkpt lat="39.31008533452988" lon="16.121306769514554"><ele>913.0</ele><time>2026-04-27T10:16:57.999Z</time></trkpt><trkpt lat="39.30998769807815" lon="16.121268462137"><ele>912.9999999999999</ele><time>2026-04-27T10:16:58.999Z</time></trkpt><trkpt lat="39.30989287996821" lon="16.121301599205808"><ele>913.0</ele><time>2026-04-27T10:16:59.999Z</time></trkpt><trkpt lat="39.30980475782417" lon="16.121335310677903"><ele>913.0</ele><time>2026-04-27T10:17:01Z</time></trkpt><trkpt lat="39.30971264833409" lon="16.121368399045497"><ele>913.0</ele><time>2026-04-27T10:17:02Z</time></trkpt><trkpt lat="39.30963707731506" lon="16.12138380930489"><ele>912.9999999999999</ele><time>2026-04-27T10:17:03Z</time></trkpt><trkpt lat="39.30955853470146" lon="16.121387569510286"><ele>913.0</ele><time>2026-04-27T10:17:04Z</time></trkpt><trkpt lat="39.30946617380533" lon="16.121397650770643"><ele>914.9999999999999</ele><time>2026-04-27T10:17:05Z</time></trkpt><trkpt lat="39.30936693273336" lon="16.121421577185725"><ele>917.0</ele><time>2026-04-27T10:17:06Z</time></trkpt><trkpt lat="39.30928028337402" lon="16.121454758435103"><ele>919.0</ele><time>2026-04-27T10:17:07Z</time></trkpt><trkpt lat="39.30921808823357" lon="16.12148780271205"><ele>921.0</ele><time>2026-04-27T10:17:08Z</time></trkpt><trkpt lat="39.309157994025306" lon="16.12152350729808"><ele>922.9999999999999</ele><time>2026-04-27T10:17:09Z</time></trkpt><trkpt lat="39.30908139768891" lon="16.121573762323944"><ele>925.0</ele><time>2026-04-27T10:17:10Z</time></trkpt><trkpt lat="39.30899198648416" lon="16.12165001587457"><ele>921.4999999999999</ele><time>2026-04-27T10:17:11Z</time></trkpt><trkpt lat="39.30891113175713" lon="16.121729460779836"><ele>918.0</ele><time>2026-04-27T10:17:12Z</time></trkpt><trkpt lat="39.308849962764896" lon="16.12179135867298"><ele>914.5</ele><time>2026-04-27T10:17:13Z</time></trkpt><trkpt lat="39.30879214797791" lon="16.121852039271843"><ele>911.0</ele><time>2026-04-27T10:17:14Z</time></trkpt><trkpt lat="39.30872516323947" lon="16.12187617990282"><ele>907.4999999999999</ele><time>2026-04-27T10:17:15Z</time></trkpt><trkpt lat="39.30862600202439" lon="16.121912162385946"><ele>904.0</ele><time>2026-04-27T10:17:16Z</time></trkpt><trkpt lat="39.30852125486294" lon="16.121951015277656"><ele>903.9999999999999</ele><time>2026-04-27T10:17:17Z</time></trkpt><trkpt lat="39.30842008853453" lon="16.121990529839504"><ele>904.0</ele><time>2026-04-27T10:17:18Z</time></trkpt><trkpt lat="39.3083372915663" lon="16.12204503026942"><ele>904.0</ele><time>2026-04-27T10:17:19Z</time></trkpt><trkpt lat="39.30825329258279" lon="16.122084153203176"><ele>904.0</ele><time>2026-04-27T10:17:20Z</time></trkpt><trkpt lat="39.30817810795732" lon="16.122116401270883"><ele>903.9999999999999</ele><time>2026-04-27T10:17:21Z</time></trkpt><trkpt lat="39.308109253669095" lon="16.122149966570856"><ele>904.0</ele><time>2026-04-27T10:17:22Z</time></trkpt><trkpt lat="39.30803392556965" lon="16.1221622307813"><ele>906.3333333333333</ele><time>2026-04-27T10:17:23Z</time></trkpt><trkpt lat="39.307977868616135" lon="16.12220507550656"><ele>908.6666666666666</ele><time>2026-04-27T10:17:24Z</time></trkpt><trkpt lat="39.30788032359224" lon="16.122205122763308"><ele>911.0</ele><time>2026-04-27T10:17:26Z</time></trkpt><trkpt lat="39.30778979600317" lon="16.12219173888209"><ele>913.3333333333333</ele><time>2026-04-27T10:17:28Z</time></trkpt><trkpt lat="39.30772572921159" lon="16.12218842269551"><ele>915.6666666666666</ele><time>2026-04-27T10:17:29Z</time></trkpt><trkpt lat="39.307660788110475" lon="16.122192956470453"><ele>918.0</ele><time>2026-04-27T10:17:30Z</time></trkpt><trkpt lat="39.307583765770346" lon="16.12217289780489"><ele>918.0</ele><time>2026-04-27T10:17:31Z</time></trkpt><trkpt lat="39.307508832489304" lon="16.122175737803644"><ele>918.0</ele><time>2026-04-27T10:17:32Z</time></trkpt><trkpt lat="39.307444474528424" lon="16.1221812117567"><ele>918.0</ele><time>2026-04-27T10:17:33Z</time></trkpt><trkpt lat="39.30737193048544" lon="16.12220355590086"><ele>918.0</ele><time>2026-04-27T10:17:34Z</time></trkpt><trkpt lat="39.30729117408072" lon="16.12220454577838"><ele>918.0</ele><time>2026-04-27T10:17:35Z</time></trkpt><trkpt lat="39.30720856525942" lon="16.122215293107782"><ele>918.0</ele><time>2026-04-27T10:17:36Z</time></trkpt><trkpt lat="39.307134455210345" lon="16.12222371897217"><ele>919.8333333333334</ele><time>2026-04-27T10:17:37Z</time></trkpt><trkpt lat="39.30705968824633" lon="16.122232219531824"><ele>921.6666666666667</ele><time>2026-04-27T10:17:38Z</time></trkpt><trkpt lat="39.30698183504814" lon="16.12224054818705"><ele>923.5</ele><time>2026-04-27T10:17:39Z</time></trkpt><trkpt lat="39.306919684180734" lon="16.12226521264019"><ele>925.3333333333334</ele><time>2026-04-27T10:17:40Z</time></trkpt><trkpt lat="39.30684982993425" lon="16.122252362112487"><ele>927.1666666666667</ele><time>2026-04-27T10:17:42Z</time></trkpt><trkpt lat="39.30676634407214" lon="16.12227356792682"><ele>929.0</ele><time>2026-04-27T10:17:45Z</time></trkpt><trkpt lat="39.30668887208786" lon="16.122264052051747"><ele>929.0</ele><time>2026-04-27T10:17:47Z</time></trkpt><trkpt lat="39.30657119494232" lon="16.122285353104097"><ele>929.0</ele><time>2026-04-27T10:17:49Z</time></trkpt><trkpt lat="39.30649072469652" lon="16.12227010952329"><ele>929.0</ele><time>2026-04-27T10:17:52Z</time></trkpt><trkpt lat="39.306335166157616" lon="16.12219203810886"><ele>929.0</ele><time>2026-04-27T10:17:54Z</time></trkpt><trkpt lat="39.30626823640628" lon="16.122097327184605"><ele>928.6666666666667</ele><time>2026-04-27T10:17:56Z</time></trkpt><trkpt lat="39.306206343468304" lon="16.122053305633028"><ele>928.3333333333334</ele><time>2026-04-27T10:17:58Z</time></trkpt><trkpt lat="39.306126084023134" lon="16.122016993424005"><ele>928.0</ele><time>2026-04-27T10:18:00Z</time></trkpt><trkpt lat="39.306040359334716" lon="16.12192635237646"><ele>927.6666666666667</ele><time>2026-04-27T10:18:02Z</time></trkpt><trkpt lat="39.305943506296884" lon="16.121895946404482"><ele>927.3333333333334</ele><time>2026-04-27T10:18:04Z</time></trkpt><trkpt lat="39.30588333202408" lon="16.12187060149527"><ele>927.0</ele><time>2026-04-27T10:18:05Z</time></trkpt><trkpt lat="39.30582255402999" lon="16.121827292029746"><ele>927.0</ele><time>2026-04-27T10:18:06Z</time></trkpt><trkpt lat="39.30574697511988" lon="16.121698323680985"><ele>927.0</ele><time>2026-04-27T10:18:08Z</time></trkpt><trkpt lat="39.30572541279981" lon="16.121612218428922"><ele>927.0</ele><time>2026-04-27T10:18:09Z</time></trkpt><trkpt lat="39.30569300708808" lon="16.121533431125165"><ele>927.0</ele><time>2026-04-27T10:18:10Z</time></trkpt><trkpt lat="39.305663259062456" lon="16.12146011626514"><ele>927.0</ele><time>2026-04-27T10:18:11Z</time></trkpt><trkpt lat="39.305635000707284" lon="16.121382023874673"><ele>927.0</ele><time>2026-04-27T10:18:12Z</time></trkpt><trkpt lat="39.305614572338804" lon="16.121286463336762"><ele>927.6</ele><time>2026-04-27T10:18:13Z</time></trkpt><trkpt lat="39.30559451582665" lon="16.121197002084326"><ele>928.2</ele><time>2026-04-27T10:18:14Z</time></trkpt><trkpt lat="39.3055394806807" lon="16.12106157821132"><ele>928.8</ele><time>2026-04-27T10:18:16Z</time></trkpt><trkpt lat="39.30549663339709" lon="16.1209930229646"><ele>929.4</ele><time>2026-04-27T10:18:17Z</time></trkpt><trkpt lat="39.305430671995246" lon="16.120856058734987"><ele>930.0</ele><time>2026-04-27T10:18:19Z</time></trkpt><trkpt lat="39.305376674201725" lon="16.120716471895552"><ele>930.0</ele><time>2026-04-27T10:18:20.999Z</time></trkpt><trkpt lat="39.30536423135095" lon="16.120630635727327"><ele>930.0</ele><time>2026-04-27T10:18:22.999Z</time></trkpt><trkpt lat="39.305344796368566" lon="16.120527662522395"><ele>930.0</ele><time>2026-04-27T10:18:25.999Z</time></trkpt><trkpt lat="39.305277502120724" lon="16.120495541159006"><ele>930.0</ele><time>2026-04-27T10:18:28.999Z</time></trkpt><trkpt lat="39.305238522397204" lon="16.12042893905378"><ele>930.0</ele><time>2026-04-27T10:19:05.999Z</time></trkpt><trkpt lat="39.30516724058109" lon="16.120347224656122"><ele>930.0</ele><time>2026-04-27T10:19:11Z</time></trkpt><trkpt lat="39.30506616730286" lon="16.120270139320198"><ele>930.0</ele><time>2026-04-27T10:19:13Z</time></trkpt><trkpt lat="39.30498756171754" lon="16.120246096005054"><ele>930.0</ele><time>2026-04-27T10:19:14Z</time></trkpt><trkpt lat="39.304885334567075" lon="16.120199206253098"><ele>930.0</ele><time>2026-04-27T10:19:15Z</time></trkpt><trkpt lat="39.30476840958293" lon="16.12017710356108"><ele>930.0</ele><time>2026-04-27T10:19:16Z</time></trkpt><trkpt lat="39.30466096807367" lon="16.12015857289349"><ele>930.0</ele><time>2026-04-27T10:19:17Z</time></trkpt><trkpt lat="39.30457487374016" lon="16.120161100204257"><ele>930.0</ele><time>2026-04-27T10:19:18Z</time></trkpt><trkpt lat="39.30450699909508" lon="16.12014821426664"><ele>930.0</ele><time>2026-04-27T10:19:19Z</time></trkpt><trkpt lat="39.30443731913276" lon="16.12013764389206"><ele>930.0</ele><time>2026-04-27T10:19:20Z</time></trkpt><trkpt lat="39.30437005536403" lon="16.12012882051062"><ele>930.0</ele><time>2026-04-27T10:19:21Z</time></trkpt><trkpt lat="39.304308586715464" lon="16.12009459729338"><ele>930.0</ele><time>2026-04-27T10:19:22Z</time></trkpt><trkpt lat="39.304244899145026" lon="16.120079441393862"><ele>930.0</ele><time>2026-04-27T10:19:23Z</time></trkpt><trkpt lat="39.30417386812048" lon="16.12005925611622"><ele>930.0</ele><time>2026-04-27T10:19:25Z</time></trkpt><trkpt lat="39.30410050651549" lon="16.120037838812607"><ele>930.0</ele><time>2026-04-27T10:19:28Z</time></trkpt><trkpt lat="39.30403839986989" lon="16.120019707331092"><ele>930.0</ele><time>2026-04-27T10:19:30Z</time></trkpt><trkpt lat="39.30397693341985" lon="16.120281219768074"><ele>930.0</ele><time>2026-04-27T10:19:32Z</time></trkpt><trkpt lat="39.30397348438043" lon="16.120394581404703"><ele>930.0</ele><time>2026-04-27T10:19:34Z</time></trkpt><trkpt lat="39.30400952708759" lon="16.120517818397975"><ele>930.0</ele><time>2026-04-27T10:19:36Z</time></trkpt><trkpt lat="39.30401716365501" lon="16.120665990786055"><ele>930.0</ele><time>2026-04-27T10:19:38Z</time></trkpt><trkpt lat="39.30401561123241" lon="16.120827553400613"><ele>930.0</ele><time>2026-04-27T10:19:40Z</time></trkpt><trkpt lat="39.30400270538744" lon="16.120968341724897"><ele>930.0</ele><time>2026-04-27T10:19:42Z</time></trkpt><trkpt lat="39.303956846060004" lon="16.12110632271204"><ele>938.2</ele><time>2026-04-27T10:19:44Z</time></trkpt><trkpt lat="39.30391346626315" lon="16.121189575442195"><ele>946.4</ele><time>2026-04-27T10:19:45Z</time></trkpt><trkpt lat="39.30384816784212" lon="16.121268754224353"><ele>954.5999999999999</ele><time>2026-04-27T10:19:46Z</time></trkpt><trkpt lat="39.30379002191556" lon="16.121353045718745"><ele>962.8</ele><time>2026-04-27T10:19:47Z</time></trkpt><trkpt lat="39.30371426873109" lon="16.121438155287887"><ele>971.0</ele><time>2026-04-27T10:19:48Z</time></trkpt><trkpt lat="39.30364484247609" lon="16.121532191217984"><ele>972.1999999999999</ele><time>2026-04-27T10:19:49Z</time></trkpt><trkpt lat="39.30358209676689" lon="16.121611342010166"><ele>973.3999999999999</ele><time>2026-04-27T10:19:50Z</time></trkpt><trkpt lat="39.30350117027809" lon="16.121705852241412"><ele>974.6</ele><time>2026-04-27T10:19:51Z</time></trkpt><trkpt lat="39.303437930142586" lon="16.12177591265314"><ele>975.8</ele><time>2026-04-27T10:19:52Z</time></trkpt><trkpt lat="39.30335497198735" lon="16.121878040160322"><ele>977.0</ele><time>2026-04-27T10:19:53Z</time></trkpt><trkpt lat="39.30326677597118" lon="16.121957599347482"><ele>977.0</ele><time>2026-04-27T10:19:54Z</time></trkpt><trkpt lat="39.30320335091281" lon="16.122034545012756"><ele>977.0</ele><time>2026-04-27T10:19:55Z</time></trkpt><trkpt lat="39.303120901768544" lon="16.122115611504142"><ele>977.0</ele><time>2026-04-27T10:19:56Z</time></trkpt><trkpt lat="39.30302768212043" lon="16.122212798877914"><ele>977.0</ele><time>2026-04-27T10:19:57Z</time></trkpt><trkpt lat="39.30295603458426" lon="16.122314177184652"><ele>977.0</ele><time>2026-04-27T10:19:58Z</time></trkpt><trkpt lat="39.30288604326628" lon="16.122418151254227"><ele>980.6</ele><time>2026-04-27T10:19:59Z</time></trkpt><trkpt lat="39.302798737179465" lon="16.122519266138312"><ele>984.2</ele><time>2026-04-27T10:20:00Z</time></trkpt><trkpt lat="39.302707050075746" lon="16.122629234113813"><ele>987.8</ele><time>2026-04-27T10:20:01Z</time></trkpt><trkpt lat="39.30263453291426" lon="16.12271337732687"><ele>991.4</ele><time>2026-04-27T10:20:02Z</time></trkpt><trkpt lat="39.302557550929286" lon="16.122771108159476"><ele>995.0</ele><time>2026-04-27T10:20:03Z</time></trkpt><trkpt lat="39.302476400234255" lon="16.122831038869307"><ele>995.0000000000001</ele><time>2026-04-27T10:20:04Z</time></trkpt><trkpt lat="39.3024151084404" lon="16.12288879304014"><ele>995.0</ele><time>2026-04-27T10:20:05Z</time></trkpt><trkpt lat="39.30234124860694" lon="16.122945907639505"><ele>995.0</ele><time>2026-04-27T10:20:06Z</time></trkpt><trkpt lat="39.30226094776407" lon="16.12302927826933"><ele>995.0</ele><time>2026-04-27T10:20:07Z</time></trkpt><trkpt lat="39.30217191901815" lon="16.123060638883334"><ele>995.0000000000001</ele><time>2026-04-27T10:20:09Z</time></trkpt><trkpt lat="39.302093612594064" lon="16.123051257437048"><ele>995.0</ele><time>2026-04-27T10:20:10Z</time></trkpt><trkpt lat="39.302023930891636" lon="16.123046473797"><ele>998.3333333333334</ele><time>2026-04-27T10:20:11Z</time></trkpt><trkpt lat="39.30194748402379" lon="16.123112411288908"><ele>1001.6666666666667</ele><time>2026-04-27T10:20:13Z</time></trkpt><trkpt lat="39.301886925710235" lon="16.12321678910481"><ele>1005.0</ele><time>2026-04-27T10:20:15Z</time></trkpt><trkpt lat="39.30186564578946" lon="16.12330733389405"><ele>1008.3333333333333</ele><time>2026-04-27T10:20:16Z</time></trkpt><trkpt lat="39.301835954852734" lon="16.12340272649827"><ele>1011.6666666666666</ele><time>2026-04-27T10:20:18Z</time></trkpt><trkpt lat="39.301824869129796" lon="16.123488477747074"><ele>1015.0</ele><time>2026-04-27T10:20:20Z</time></trkpt><trkpt lat="39.301811299649" lon="16.12357335872295"><ele>1015.0</ele><time>2026-04-27T10:20:21Z</time></trkpt><trkpt lat="39.30180311159091" lon="16.123656155477633"><ele>1015.0</ele><time>2026-04-27T10:20:22Z</time></trkpt><trkpt lat="39.30176996650066" lon="16.123806560907884"><ele>1015.0</ele><time>2026-04-27T10:20:23.999Z</time></trkpt><trkpt lat="39.30173808624324" lon="16.123912485680663"><ele>1015.0</ele><time>2026-04-27T10:20:24.999Z</time></trkpt><trkpt lat="39.301661124893776" lon="16.124024995216992"><ele>1015.0</ele><time>2026-04-27T10:20:26.999Z</time></trkpt><trkpt lat="39.30162483055401" lon="16.124135107897004"><ele>1015.2</ele><time>2026-04-27T10:20:30.999Z</time></trkpt><trkpt lat="39.30156383787447" lon="16.124221020821366"><ele>1015.4</ele><time>2026-04-27T10:20:33.999Z</time></trkpt><trkpt lat="39.30139678994885" lon="16.124184939506467"><ele>1015.5999999999999</ele><time>2026-04-27T10:20:37.999Z</time></trkpt><trkpt lat="39.30131092372314" lon="16.124168922399175"><ele>1015.8</ele><time>2026-04-27T10:20:38.999Z</time></trkpt><trkpt lat="39.30122849271703" lon="16.124148979159827"><ele>1016.0</ele><time>2026-04-27T10:20:39.999Z</time></trkpt><trkpt lat="39.301139514107504" lon="16.12412118534302"><ele>1017.1999999999999</ele><time>2026-04-27T10:20:40.999Z</time></trkpt><trkpt lat="39.30104870905482" lon="16.124098881942672"><ele>1018.3999999999999</ele><time>2026-04-27T10:20:41.999Z</time></trkpt><trkpt lat="39.30096488244415" lon="16.124110533530313"><ele>1019.6</ele><time>2026-04-27T10:20:42.999Z</time></trkpt><trkpt lat="39.30086894502089" lon="16.12409541591937"><ele>1020.8</ele><time>2026-04-27T10:20:43.999Z</time></trkpt><trkpt lat="39.30079453129504" lon="16.124069319794593"><ele>1022.0</ele><time>2026-04-27T10:20:44.999Z</time></trkpt><trkpt lat="39.30068928868405" lon="16.12406852590021"><ele>1022.0</ele><time>2026-04-27T10:20:45.999Z</time></trkpt><trkpt lat="39.300598743696334" lon="16.12408515127301"><ele>1022.0</ele><time>2026-04-27T10:20:46.999Z</time></trkpt><trkpt lat="39.300498106845026" lon="16.124088790575577"><ele>1022.0</ele><time>2026-04-27T10:20:47.999Z</time></trkpt><trkpt lat="39.30040862601522" lon="16.124080277881568"><ele>1022.0</ele><time>2026-04-27T10:20:48.999Z</time></trkpt><trkpt lat="39.30032546734089" lon="16.124073171620648"><ele>1022.0</ele><time>2026-04-27T10:20:49.999Z</time></trkpt><trkpt lat="39.30022907729695" lon="16.124105087450086"><ele>1021.8</ele><time>2026-04-27T10:20:50.999Z</time></trkpt><trkpt lat="39.30011371908066" lon="16.124122702582824"><ele>1021.6</ele><time>2026-04-27T10:20:51.999Z</time></trkpt><trkpt lat="39.30000692415397" lon="16.124153129114358"><ele>1021.3999999999999</ele><time>2026-04-27T10:20:52.999Z</time></trkpt><trkpt lat="39.29990137831858" lon="16.124184652061633"><ele>1021.1999999999999</ele><time>2026-04-27T10:20:53.999Z</time></trkpt><trkpt lat="39.29981296872139" lon="16.124204831273193"><ele>1021.0</ele><time>2026-04-27T10:20:54.999Z</time></trkpt><trkpt lat="39.29974386915991" lon="16.124246685263955"><ele>1020.5999999999999</ele><time>2026-04-27T10:20:55.999Z</time></trkpt><trkpt lat="39.29966829947623" lon="16.124334053264352"><ele>1020.1999999999999</ele><time>2026-04-27T10:20:56.999Z</time></trkpt><trkpt lat="39.29959878833627" lon="16.124408295503603"><ele>1019.8000000000001</ele><time>2026-04-27T10:20:57.999Z</time></trkpt><trkpt lat="39.299547538837984" lon="16.124491478851336"><ele>1019.4000000000001</ele><time>2026-04-27T10:20:58.999Z</time></trkpt><trkpt lat="39.29951424218802" lon="16.124610089479344"><ele>1019.0</ele><time>2026-04-27T10:20:59.999Z</time></trkpt><trkpt lat="39.299463008969454" lon="16.124705851631067"><ele>1019.0</ele><time>2026-04-27T10:21:00.999Z</time></trkpt><trkpt lat="39.299403835053944" lon="16.124766348859012"><ele>1019.0000000000001</ele><time>2026-04-27T10:21:01.999Z</time></trkpt><trkpt lat="39.29933513856349" lon="16.124826620645734"><ele>1019.0000000000001</ele><time>2026-04-27T10:21:02.999Z</time></trkpt><trkpt lat="39.29924655650831" lon="16.124891583526672"><ele>1019.0</ele><time>2026-04-27T10:21:03.999Z</time></trkpt><trkpt lat="39.29912523935098" lon="16.124934938997878"><ele>1019.0</ele><time>2026-04-27T10:21:04.999Z</time></trkpt><trkpt lat="39.299012141690945" lon="16.124986369633756"><ele>1020.4000000000001</ele><time>2026-04-27T10:21:05.999Z</time></trkpt><trkpt lat="39.29891524576314" lon="16.12503293872892"><ele>1021.8000000000001</ele><time>2026-04-27T10:21:06.999Z</time></trkpt><trkpt lat="39.29884076755987" lon="16.125066683467022"><ele>1023.1999999999999</ele><time>2026-04-27T10:21:07.999Z</time></trkpt><trkpt lat="39.29874606461671" lon="16.125115259471105"><ele>1024.6</ele><time>2026-04-27T10:21:08.999Z</time></trkpt><trkpt lat="39.29865607192406" lon="16.12517601142435"><ele>1026.0</ele><time>2026-04-27T10:21:09.999Z</time></trkpt><trkpt lat="39.29856410649519" lon="16.125270862957603"><ele>1026.0</ele><time>2026-04-27T10:21:10.999Z</time></trkpt><trkpt lat="39.298478566219394" lon="16.125372484090782"><ele>1026.0</ele><time>2026-04-27T10:21:11.999Z</time></trkpt><trkpt lat="39.29839646602849" lon="16.12546715268974"><ele>1026.0</ele><time>2026-04-27T10:21:13Z</time></trkpt><trkpt lat="39.2983493427903" lon="16.12555332275814"><ele>1026.0</ele><time>2026-04-27T10:21:14Z</time></trkpt><trkpt lat="39.29833163846567" lon="16.12564113696092"><ele>1026.0</ele><time>2026-04-27T10:21:15Z</time></trkpt><trkpt lat="39.298331026910795" lon="16.125758701701475"><ele>1027.0</ele><time>2026-04-27T10:21:16Z</time></trkpt><trkpt lat="39.29833481360486" lon="16.125885327193984"><ele>1028.0</ele><time>2026-04-27T10:21:17Z</time></trkpt><trkpt lat="39.29832488245569" lon="16.125994019518377"><ele>1029.0</ele><time>2026-04-27T10:21:18Z</time></trkpt><trkpt lat="39.298315241210936" lon="16.12611069040538"><ele>1030.0</ele><time>2026-04-27T10:21:19Z</time></trkpt><trkpt lat="39.298295337893705" lon="16.126230659456"><ele>1031.0</ele><time>2026-04-27T10:21:20Z</time></trkpt><trkpt lat="39.298261070752204" lon="16.126346479117057"><ele>1031.0</ele><time>2026-04-27T10:21:21Z</time></trkpt><trkpt lat="39.29821950089139" lon="16.126458564776478"><ele>1031.0</ele><time>2026-04-27T10:21:22Z</time></trkpt><trkpt lat="39.29818108540219" lon="16.126559020336096"><ele>1031.0</ele><time>2026-04-27T10:21:23Z</time></trkpt><trkpt lat="39.298212607027274" lon="16.126670165560146"><ele>1031.0</ele><time>2026-04-27T10:21:26Z</time></trkpt><trkpt lat="39.29824241170635" lon="16.126784629820957"><ele>1031.0</ele><time>2026-04-27T10:21:28Z</time></trkpt><trkpt lat="39.29823753028455" lon="16.12687781159772"><ele>1031.0</ele><time>2026-04-27T10:21:31Z</time></trkpt><trkpt lat="39.29825542932727" lon="16.1269705544903"><ele>1036.0</ele><time>2026-04-27T10:21:33Z</time></trkpt><trkpt lat="39.298264973337496" lon="16.127100609512098"><ele>1041.0</ele><time>2026-04-27T10:21:36Z</time></trkpt><trkpt lat="39.298320890830624" lon="16.127618332132972"><ele>1042.2857142857142</ele><time>2026-04-27T10:21:38Z</time></trkpt><trkpt lat="39.29833894323937" lon="16.12770487572385"><ele>1043.5714285714287</ele><time>2026-04-27T10:21:39Z</time></trkpt><trkpt lat="39.29835777819716" lon="16.127784060021103"><ele>1044.857142857143</ele><time>2026-04-27T10:21:40Z</time></trkpt><trkpt lat="39.298382429235275" lon="16.127872887082425"><ele>1046.142857142857</ele><time>2026-04-27T10:21:41Z</time></trkpt><trkpt lat="39.29840755895409" lon="16.127947735803467"><ele>1047.4285714285716</ele><time>2026-04-27T10:21:42Z</time></trkpt><trkpt lat="39.29845773483924" lon="16.128037503928223"><ele>1048.7142857142858</ele><time>2026-04-27T10:21:43Z</time></trkpt><trkpt lat="39.298499892607104" lon="16.12811815734078"><ele>1050.0</ele><time>2026-04-27T10:21:44Z</time></trkpt><trkpt lat="39.29853045845031" lon="16.12819489146307"><ele>1051.8333333333333</ele><time>2026-04-27T10:21:45Z</time></trkpt><trkpt lat="39.298568175975696" lon="16.12829036635715"><ele>1053.6666666666667</ele><time>2026-04-27T10:21:46Z</time></trkpt><trkpt lat="39.29860972774787" lon="16.128390445518384"><ele>1055.5</ele><time>2026-04-27T10:21:47Z</time></trkpt><trkpt lat="39.29865610562021" lon="16.12846403968639"><ele>1057.3333333333335</ele><time>2026-04-27T10:21:48Z</time></trkpt><trkpt lat="39.29871727557093" lon="16.128541152220734"><ele>1059.1666666666667</ele><time>2026-04-27T10:21:49Z</time></trkpt><trkpt lat="39.298780789393184" lon="16.128603789486576"><ele>1061.0</ele><time>2026-04-27T10:21:50Z</time></trkpt><trkpt lat="39.29885040932451" lon="16.128716352030906"><ele>1059.2</ele><time>2026-04-27T10:21:51Z</time></trkpt><trkpt lat="39.2989202784838" lon="16.12883781301756"><ele>1057.3999999999999</ele><time>2026-04-27T10:21:52Z</time></trkpt><trkpt lat="39.29897097692107" lon="16.12897273203589"><ele>1055.6</ele><time>2026-04-27T10:21:53Z</time></trkpt><trkpt lat="39.29901486349643" lon="16.12908651600514"><ele>1053.8</ele><time>2026-04-27T10:21:54Z</time></trkpt><trkpt lat="39.299060391744334" lon="16.129194421941932"><ele>1052.0</ele><time>2026-04-27T10:21:55Z</time></trkpt><trkpt lat="39.29909366447367" lon="16.129294653628612"><ele>1052.0</ele><time>2026-04-27T10:21:56Z</time></trkpt><trkpt lat="39.29910280514697" lon="16.1294568362539"><ele>1052.0</ele><time>2026-04-27T10:21:58Z</time></trkpt><trkpt lat="39.29913937905627" lon="16.12961278495217"><ele>1052.0</ele><time>2026-04-27T10:21:59Z</time></trkpt><trkpt lat="39.29916214278028" lon="16.129732051696145"><ele>1052.0</ele><time>2026-04-27T10:22:00Z</time></trkpt><trkpt lat="39.299172247205206" lon="16.129839885833064"><ele>1052.0</ele><time>2026-04-27T10:22:01Z</time></trkpt><trkpt lat="39.2991844942173" lon="16.129975616499753"><ele>1055.2</ele><time>2026-04-27T10:22:02Z</time></trkpt><trkpt lat="39.2991961445014" lon="16.13011265639099"><ele>1058.4</ele><time>2026-04-27T10:22:03Z</time></trkpt><trkpt lat="39.29919553885699" lon="16.130254680615728"><ele>1061.6</ele><time>2026-04-27T10:22:04Z</time></trkpt><trkpt lat="39.299175108371195" lon="16.13038405143527"><ele>1064.8</ele><time>2026-04-27T10:22:05Z</time></trkpt><trkpt lat="39.29916851405526" lon="16.13049467890193"><ele>1068.0</ele><time>2026-04-27T10:22:06Z</time></trkpt><trkpt lat="39.2991449251579" lon="16.130572717047542"><ele>1068.0</ele><time>2026-04-27T10:22:07Z</time></trkpt><trkpt lat="39.299133820461364" lon="16.130658804004845"><ele>1068.0</ele><time>2026-04-27T10:22:08Z</time></trkpt><trkpt lat="39.299112432943396" lon="16.13075236788066"><ele>1068.0</ele><time>2026-04-27T10:22:09Z</time></trkpt><trkpt lat="39.299104344066805" lon="16.130858891639576"><ele>1068.0</ele><time>2026-04-27T10:22:10Z</time></trkpt><trkpt lat="39.299067729297114" lon="16.130969027850394"><ele>1068.0</ele><time>2026-04-27T10:22:11Z</time></trkpt><trkpt lat="39.29903457959542" lon="16.131080079022375"><ele>1068.0</ele><time>2026-04-27T10:22:12Z</time></trkpt><trkpt lat="39.29899236870969" lon="16.131155673327395"><ele>1067.6666666666667</ele><time>2026-04-27T10:22:13Z</time></trkpt><trkpt lat="39.29896061991333" lon="16.13123536548517"><ele>1067.3333333333333</ele><time>2026-04-27T10:22:14Z</time></trkpt><trkpt lat="39.298909784562696" lon="16.131292024037226"><ele>1067.0</ele><time>2026-04-27T10:22:15Z</time></trkpt><trkpt lat="39.298855545744765" lon="16.131343778762893"><ele>1066.6666666666665</ele><time>2026-04-27T10:22:16Z</time></trkpt><trkpt lat="39.29880529773105" lon="16.13141701308003"><ele>1066.3333333333333</ele><time>2026-04-27T10:22:18Z</time></trkpt><trkpt lat="39.29870222978692" lon="16.13148687539429"><ele>1066.0</ele><time>2026-04-27T10:22:20Z</time></trkpt><trkpt lat="39.29863439657504" lon="16.131487681040856"><ele>1071.3999999999999</ele><time>2026-04-27T10:22:21Z</time></trkpt><trkpt lat="39.298547356016684" lon="16.13146773563526"><ele>1076.8</ele><time>2026-04-27T10:22:22Z</time></trkpt><trkpt lat="39.29843964239623" lon="16.131431679824146"><ele>1082.1999999999998</ele><time>2026-04-27T10:22:23Z</time></trkpt><trkpt lat="39.29830658229857" lon="16.13139823000316"><ele>1087.6</ele><time>2026-04-27T10:22:24Z</time></trkpt><trkpt lat="39.29821089794421" lon="16.1313442717586"><ele>1093.0</ele><time>2026-04-27T10:22:25Z</time></trkpt><trkpt lat="39.298121350129136" lon="16.131279081285733"><ele>1096.4</ele><time>2026-04-27T10:22:25.999Z</time></trkpt><trkpt lat="39.29801950883916" lon="16.131263763210928"><ele>1099.8</ele><time>2026-04-27T10:22:26.999Z</time></trkpt><trkpt lat="39.29792157232985" lon="16.131245357243685"><ele>1103.2</ele><time>2026-04-27T10:22:27.999Z</time></trkpt><trkpt lat="39.29781998117035" lon="16.131248998147356"><ele>1106.6</ele><time>2026-04-27T10:22:28.999Z</time></trkpt><trkpt lat="39.29772446774172" lon="16.131275162450542"><ele>1110.0</ele><time>2026-04-27T10:22:29.999Z</time></trkpt><trkpt lat="39.297633362513444" lon="16.131324140769305"><ele>1110.0</ele><time>2026-04-27T10:22:30.999Z</time></trkpt><trkpt lat="39.2975500942637" lon="16.13139570864486"><ele>1110.0</ele><time>2026-04-27T10:22:31.999Z</time></trkpt><trkpt lat="39.297484486066566" lon="16.13147135436591"><ele>1110.0</ele><time>2026-04-27T10:22:32.999Z</time></trkpt><trkpt lat="39.29743060221015" lon="16.131544335842555"><ele>1110.0</ele><time>2026-04-27T10:22:33.999Z</time></trkpt><trkpt lat="39.29738908374551" lon="16.13161007507513"><ele>1110.0</ele><time>2026-04-27T10:22:34.999Z</time></trkpt><trkpt lat="39.29732011121851" lon="16.131752800541967"><ele>1110.4</ele><time>2026-04-27T10:22:36.999Z</time></trkpt><trkpt lat="39.2972924183432" lon="16.131829169214036"><ele>1110.8</ele><time>2026-04-27T10:22:37.999Z</time></trkpt><trkpt lat="39.297263756356884" lon="16.131921034483508"><ele>1111.2</ele><time>2026-04-27T10:22:38.999Z</time></trkpt><trkpt lat="39.2972331666472" lon="16.132027860898315"><ele>1111.6</ele><time>2026-04-27T10:22:39.999Z</time></trkpt><trkpt lat="39.297200938675324" lon="16.132143280801408"><ele>1112.0</ele><time>2026-04-27T10:22:40.999Z</time></trkpt><trkpt lat="39.297155949065164" lon="16.132318154501526"><ele>1107.2</ele><time>2026-04-27T10:22:41.999Z</time></trkpt><trkpt lat="39.29713563312107" lon="16.1324681752011"><ele>1102.4</ele><time>2026-04-27T10:22:42.999Z</time></trkpt><trkpt lat="39.297090300179185" lon="16.132572139035137"><ele>1097.6</ele><time>2026-04-27T10:22:43.999Z</time></trkpt><trkpt lat="39.29704661768712" lon="16.13266868459039"><ele>1092.8</ele><time>2026-04-27T10:22:44.999Z</time></trkpt><trkpt lat="39.2969870787341" lon="16.132763426089433"><ele>1088.0</ele><time>2026-04-27T10:22:45.999Z</time></trkpt><trkpt lat="39.29693671254151" lon="16.13285717190521"><ele>1088.0</ele><time>2026-04-27T10:22:46.999Z</time></trkpt><trkpt lat="39.2969295028559" lon="16.132938196389475"><ele>1088.0</ele><time>2026-04-27T10:22:47.999Z</time></trkpt><trkpt lat="39.29691148687514" lon="16.13305771786368"><ele>1088.0</ele><time>2026-04-27T10:22:49.999Z</time></trkpt><trkpt lat="39.296966548967774" lon="16.13315331290723"><ele>1088.0</ele><time>2026-04-27T10:22:50.999Z</time></trkpt><trkpt lat="39.29705073796772" lon="16.133202056326137"><ele>1088.0</ele><time>2026-04-27T10:22:51.999Z</time></trkpt><trkpt lat="39.29712906513192" lon="16.133254392628405"><ele>1088.0</ele><time>2026-04-27T10:22:52.999Z</time></trkpt><trkpt lat="39.29720494929148" lon="16.133290661844082"><ele>1087.8333333333335</ele><time>2026-04-27T10:22:53.999Z</time></trkpt><trkpt lat="39.29725696486601" lon="16.13334531541649"><ele>1087.6666666666667</ele><time>2026-04-27T10:22:54.999Z</time></trkpt><trkpt lat="39.297279529456205" lon="16.133435250138557"><ele>1087.5</ele><time>2026-04-27T10:22:55.999Z</time></trkpt><trkpt lat="39.29728739222722" lon="16.133554832872406"><ele>1087.3333333333333</ele><time>2026-04-27T10:22:56.999Z</time></trkpt><trkpt lat="39.29724569305176" lon="16.133625616444096"><ele>1087.1666666666665</ele><time>2026-04-27T10:22:57.999Z</time></trkpt><trkpt lat="39.29716097432268" lon="16.13368381626074"><ele>1087.0</ele><time>2026-04-27T10:22:59.999Z</time></trkpt><trkpt lat="39.29714604136628" lon="16.13377547175961"><ele>1088.25</ele><time>2026-04-27T10:23:00.999Z</time></trkpt><trkpt lat="39.29708978069722" lon="16.13386466177775"><ele>1089.5</ele><time>2026-04-27T10:23:01.999Z</time></trkpt><trkpt lat="39.29701042859648" lon="16.133962363939755"><ele>1090.75</ele><time>2026-04-27T10:23:02.999Z</time></trkpt><trkpt lat="39.29697738676967" lon="16.134165432401833"><ele>1092.0</ele><time>2026-04-27T10:23:03.999Z</time></trkpt><trkpt lat="39.29695114507506" lon="16.134337687364937"><ele>1092.0</ele><time>2026-04-27T10:23:04.999Z</time></trkpt><trkpt lat="39.296921382590156" lon="16.13451566957386"><ele>1092.0</ele><time>2026-04-27T10:23:05.999Z</time></trkpt><trkpt lat="39.29689561538552" lon="16.134673188525664"><ele>1092.0</ele><time>2026-04-27T10:23:06.999Z</time></trkpt><trkpt lat="39.296883995841654" lon="16.134809860017384"><ele>1092.0</ele><time>2026-04-27T10:23:07.999Z</time></trkpt><trkpt lat="39.296879329444494" lon="16.13492395531682"><ele>1090.8</ele><time>2026-04-27T10:23:08.999Z</time></trkpt><trkpt lat="39.296883663122905" lon="16.135042789940634"><ele>1089.6</ele><time>2026-04-27T10:23:09.999Z</time></trkpt><trkpt lat="39.29690500479094" lon="16.13519030248801"><ele>1088.3999999999999</ele><time>2026-04-27T10:23:10.999Z</time></trkpt><trkpt lat="39.29694773910309" lon="16.135333370540053"><ele>1087.2</ele><time>2026-04-27T10:23:11.999Z</time></trkpt><trkpt lat="39.296991636839195" lon="16.135455934569244"><ele>1086.0</ele><time>2026-04-27T10:23:12.999Z</time></trkpt><trkpt lat="39.29704172288448" lon="16.135574725902774"><ele>1086.0</ele><time>2026-04-27T10:23:13.999Z</time></trkpt><trkpt lat="39.297096864709765" lon="16.135693070909525"><ele>1086.0</ele><time>2026-04-27T10:23:14.999Z</time></trkpt><trkpt lat="39.29715871760043" lon="16.135823868142136"><ele>1086.0</ele><time>2026-04-27T10:23:15.999Z</time></trkpt><trkpt lat="39.297219448483446" lon="16.135958163821293"><ele>1086.0</ele><time>2026-04-27T10:23:16.999Z</time></trkpt><trkpt lat="39.2972580980007" lon="16.136092818981908"><ele>1087.25</ele><time>2026-04-27T10:23:17.999Z</time></trkpt><trkpt lat="39.29730257615849" lon="16.136248531729514"><ele>1088.5</ele><time>2026-04-27T10:23:19Z</time></trkpt><trkpt lat="39.29735748066743" lon="16.136388508042852"><ele>1089.75</ele><time>2026-04-27T10:23:20Z</time></trkpt><trkpt lat="39.297421290599715" lon="16.136516314605558"><ele>1091.0</ele><time>2026-04-27T10:23:21Z</time></trkpt><trkpt lat="39.29749234502822" lon="16.136635872836937"><ele>1091.0</ele><time>2026-04-27T10:23:22Z</time></trkpt><trkpt lat="39.297568034762854" lon="16.136770125894827"><ele>1091.0</ele><time>2026-04-27T10:23:23Z</time></trkpt><trkpt lat="39.29761542748024" lon="16.136877765424906"><ele>1091.0</ele><time>2026-04-27T10:23:24Z</time></trkpt><trkpt lat="39.297627530532736" lon="16.13697297718321"><ele>1091.0</ele><time>2026-04-27T10:23:26Z</time></trkpt><trkpt lat="39.2975608110797" lon="16.13705119685738"><ele>1091.0</ele><time>2026-04-27T10:23:28Z</time></trkpt><trkpt lat="39.297488032680924" lon="16.13708851801922"><ele>1091.0</ele><time>2026-04-27T10:23:29Z</time></trkpt><trkpt lat="39.297377133039035" lon="16.137121403416913"><ele>1091.0</ele><time>2026-04-27T10:23:30Z</time></trkpt><trkpt lat="39.29724676560316" lon="16.13719001159575"><ele>1091.0</ele><time>2026-04-27T10:23:31Z</time></trkpt><trkpt lat="39.297119884545275" lon="16.137231707901027"><ele>1091.0</ele><time>2026-04-27T10:23:32Z</time></trkpt><trkpt lat="39.2970093802225" lon="16.137266703718307"><ele>1090.8</ele><time>2026-04-27T10:23:33Z</time></trkpt><trkpt lat="39.29690837605623" lon="16.137316492300027"><ele>1090.6</ele><time>2026-04-27T10:23:34Z</time></trkpt><trkpt lat="39.29681211389058" lon="16.137386723375364"><ele>1090.4</ele><time>2026-04-27T10:23:35Z</time></trkpt><trkpt lat="39.29673162823134" lon="16.137482831205215"><ele>1090.2</ele><time>2026-04-27T10:23:36Z</time></trkpt><trkpt lat="39.29665063808974" lon="16.137594415991753"><ele>1090.0</ele><time>2026-04-27T10:23:37Z</time></trkpt><trkpt lat="39.29657080829708" lon="16.137675511386323"><ele>1090.2857142857142</ele><time>2026-04-27T10:23:38Z</time></trkpt><trkpt lat="39.296499324108304" lon="16.137729315349794"><ele>1090.5714285714287</ele><time>2026-04-27T10:23:39Z</time></trkpt><trkpt lat="39.296419300943896" lon="16.13776749414812"><ele>1090.857142857143</ele><time>2026-04-27T10:23:40Z</time></trkpt><trkpt lat="39.29648943827487" lon="16.137769792042416"><ele>1091.142857142857</ele><time>2026-04-27T10:24:36.999Z</time></trkpt><trkpt lat="39.29655225286586" lon="16.137734434677522"><ele>1091.4285714285716</ele><time>2026-04-27T10:24:40.999Z</time></trkpt><trkpt lat="39.29660589178837" lon="16.137691842453066"><ele>1091.7142857142858</ele><time>2026-04-27T10:24:56.999Z</time></trkpt><trkpt lat="39.296665621252565" lon="16.13763128039114"><ele>1092.0</ele><time>2026-04-27T10:25:00.999Z</time></trkpt><trkpt lat="39.29671787687753" lon="16.137565769308505"><ele>1092.0</ele><time>2026-04-27T10:25:03.999Z</time></trkpt><trkpt lat="39.29678529356167" lon="16.13755304262618"><ele>1092.0</ele><time>2026-04-27T10:25:06.999Z</time></trkpt><trkpt lat="39.29681341231665" lon="16.13767902425794"><ele>1092.0</ele><time>2026-04-27T10:25:09.999Z</time></trkpt><trkpt lat="39.29684283787411" lon="16.13775572149281"><ele>1092.0</ele><time>2026-04-27T10:25:10.999Z</time></trkpt><trkpt lat="39.29688575472563" lon="16.137883359462943"><ele>1092.0</ele><time>2026-04-27T10:25:12.999Z</time></trkpt><trkpt lat="39.296894061110265" lon="16.137972006605555"><ele>1092.0</ele><time>2026-04-27T10:25:13.999Z</time></trkpt><trkpt lat="39.29690886818057" lon="16.138064496818814"><ele>1092.0</ele><time>2026-04-27T10:25:14.999Z</time></trkpt><trkpt lat="39.2969072067709" lon="16.138171022031013"><ele>1092.0</ele><time>2026-04-27T10:25:16.999Z</time></trkpt><trkpt lat="39.2968554003629" lon="16.1382246047962"><ele>1092.0</ele><time>2026-04-27T10:25:18.999Z</time></trkpt><trkpt lat="39.29670551557687" lon="16.13817718264042"><ele>1092.0</ele><time>2026-04-27T10:25:21.999Z</time></trkpt><trkpt lat="39.296617414436604" lon="16.138147528771437"><ele>1092.0</ele><time>2026-04-27T10:25:22.999Z</time></trkpt><trkpt lat="39.29653556354731" lon="16.138100890774062"><ele>1092.0</ele><time>2026-04-27T10:25:25Z</time></trkpt><trkpt lat="39.29648123901914" lon="16.138044627208686"><ele>1092.0</ele><time>2026-04-27T10:25:28Z</time></trkpt><trkpt lat="39.296222190431195" lon="16.13785028199281"><ele>1092.0</ele><time>2026-04-27T10:25:31Z</time></trkpt><trkpt lat="39.29614563172919" lon="16.137792452559328"><ele>1091.0</ele><time>2026-04-27T10:25:32Z</time></trkpt><trkpt lat="39.29605425893383" lon="16.137736271228455"><ele>1090.0</ele><time>2026-04-27T10:25:33Z</time></trkpt><trkpt lat="39.29598600847982" lon="16.137674908570425"><ele>1089.0</ele><time>2026-04-27T10:25:34Z</time></trkpt><trkpt lat="39.29591715962488" lon="16.137631178598006"><ele>1088.0</ele><time>2026-04-27T10:25:35Z</time></trkpt><trkpt lat="39.29584076877411" lon="16.1375776145283"><ele>1087.0</ele><time>2026-04-27T10:25:36Z</time></trkpt><trkpt lat="39.29576415005161" lon="16.137514200528404"><ele>1086.0</ele><time>2026-04-27T10:25:37Z</time></trkpt><trkpt lat="39.295661697234735" lon="16.13742359462606"><ele>1084.6</ele><time>2026-04-27T10:25:38Z</time></trkpt><trkpt lat="39.29557168603686" lon="16.137363162687414"><ele>1083.1999999999998</ele><time>2026-04-27T10:25:39Z</time></trkpt><trkpt lat="39.29548294712803" lon="16.137304890199122"><ele>1081.8000000000002</ele><time>2026-04-27T10:25:40Z</time></trkpt><trkpt lat="39.29539623103024" lon="16.137248294416228"><ele>1080.4</ele><time>2026-04-27T10:25:41Z</time></trkpt><trkpt lat="39.29531674930728" lon="16.13719448882757"><ele>1079.0</ele><time>2026-04-27T10:25:42Z</time></trkpt><trkpt lat="39.29524010724953" lon="16.137144830016926"><ele>1079.0</ele><time>2026-04-27T10:25:43Z</time></trkpt><trkpt lat="39.29517228049933" lon="16.137093485228725"><ele>1079.0</ele><time>2026-04-27T10:25:44Z</time></trkpt><trkpt lat="39.29510460466477" lon="16.137071786561986"><ele>1079.0</ele><time>2026-04-27T10:25:45Z</time></trkpt><trkpt lat="39.2950303427001" lon="16.13709113125926"><ele>1079.0</ele><time>2026-04-27T10:25:46Z</time></trkpt><trkpt lat="39.29495512124594" lon="16.137123260431633"><ele>1079.0</ele><time>2026-04-27T10:25:47Z</time></trkpt><trkpt lat="39.29484766483183" lon="16.137192900377695"><ele>1079.0</ele><time>2026-04-27T10:25:48Z</time></trkpt><trkpt lat="39.29477100474519" lon="16.137243954038745"><ele>1078.2</ele><time>2026-04-27T10:25:49Z</time></trkpt><trkpt lat="39.29470176320629" lon="16.137266974721815"><ele>1077.4</ele><time>2026-04-27T10:25:50Z</time></trkpt><trkpt lat="39.29461963991725" lon="16.137267409887453"><ele>1076.6</ele><time>2026-04-27T10:25:51Z</time></trkpt><trkpt lat="39.29451828926953" lon="16.13725314554044"><ele>1075.8</ele><time>2026-04-27T10:25:52Z</time></trkpt><trkpt lat="39.29440813490327" lon="16.137235755116148"><ele>1075.0</ele><time>2026-04-27T10:25:53Z</time></trkpt><trkpt lat="39.294306548407604" lon="16.13719763329062"><ele>1075.0</ele><time>2026-04-27T10:25:54Z</time></trkpt><trkpt lat="39.294207104554296" lon="16.137155161090362"><ele>1075.0</ele><time>2026-04-27T10:25:55Z</time></trkpt><trkpt lat="39.29411471539093" lon="16.137106092851802"><ele>1075.0</ele><time>2026-04-27T10:25:56Z</time></trkpt><trkpt lat="39.29403026059148" lon="16.13705659436611"><ele>1075.0</ele><time>2026-04-27T10:25:57Z</time></trkpt><trkpt lat="39.29394687706692" lon="16.137003003558878"><ele>1075.0</ele><time>2026-04-27T10:25:58Z</time></trkpt><trkpt lat="39.29385982480814" lon="16.13696147733867"><ele>1074.6666666666665</ele><time>2026-04-27T10:25:59Z</time></trkpt><trkpt lat="39.2937723567397" lon="16.13692607381941"><ele>1074.3333333333333</ele><time>2026-04-27T10:26:00Z</time></trkpt><trkpt lat="39.29369824483064" lon="16.136899236318555"><ele>1074.0</ele><time>2026-04-27T10:26:01Z</time></trkpt><trkpt lat="39.293635556451314" lon="16.136890960959747"><ele>1073.6666666666667</ele><time>2026-04-27T10:26:02Z</time></trkpt><trkpt lat="39.29357185856913" lon="16.13691274078509"><ele>1073.3333333333335</ele><time>2026-04-27T10:26:03Z</time></trkpt><trkpt lat="39.29351871531495" lon="16.13697833260352"><ele>1073.0</ele><time>2026-04-27T10:26:04Z</time></trkpt><trkpt lat="39.293461699651075" lon="16.13707126428845"><ele>1073.0</ele><time>2026-04-27T10:26:05Z</time></trkpt><trkpt lat="39.29339807227317" lon="16.137189028544757"><ele>1073.0</ele><time>2026-04-27T10:26:06Z</time></trkpt><trkpt lat="39.29332705893542" lon="16.137305328245482"><ele>1073.0</ele><time>2026-04-27T10:26:07Z</time></trkpt><trkpt lat="39.29326728897191" lon="16.137427855048635"><ele>1073.0</ele><time>2026-04-27T10:26:08Z</time></trkpt><trkpt lat="39.293204457806326" lon="16.137523937310075"><ele>1073.0</ele><time>2026-04-27T10:26:09Z</time></trkpt><trkpt lat="39.29313176979716" lon="16.137606482999857"><ele>1075.2</ele><time>2026-04-27T10:26:10Z</time></trkpt><trkpt lat="39.293031113731985" lon="16.137676353007684"><ele>1077.4</ele><time>2026-04-27T10:26:11Z</time></trkpt><trkpt lat="39.29292797300639" lon="16.137743346174037"><ele>1079.6000000000001</ele><time>2026-04-27T10:26:12Z</time></trkpt><trkpt lat="39.2928289972261" lon="16.1377965342554"><ele>1081.8</ele><time>2026-04-27T10:26:13Z</time></trkpt><trkpt lat="39.292736606298824" lon="16.13785236800097"><ele>1084.0</ele><time>2026-04-27T10:26:14Z</time></trkpt><trkpt lat="39.292648006908" lon="16.137922388897266"><ele>1084.0</ele><time>2026-04-27T10:26:15Z</time></trkpt><trkpt lat="39.29256230290987" lon="16.138017974779693"><ele>1084.0</ele><time>2026-04-27T10:26:16Z</time></trkpt><trkpt lat="39.29247057095741" lon="16.138130746322478"><ele>1084.0</ele><time>2026-04-27T10:26:17Z</time></trkpt><trkpt lat="39.292364707182784" lon="16.138246721279298"><ele>1084.0</ele><time>2026-04-27T10:26:18Z</time></trkpt><trkpt lat="39.29225921613962" lon="16.138358092061356"><ele>1085.5</ele><time>2026-04-27T10:26:19Z</time></trkpt><trkpt lat="39.29215279309642" lon="16.13847659621498"><ele>1087.0</ele><time>2026-04-27T10:26:20Z</time></trkpt><trkpt lat="39.292048856874054" lon="16.13858344024433"><ele>1088.5</ele><time>2026-04-27T10:26:21Z</time></trkpt><trkpt lat="39.29194224247938" lon="16.138675374487722"><ele>1090.0</ele><time>2026-04-27T10:26:22Z</time></trkpt><trkpt lat="39.29183650305062" lon="16.138752487168144"><ele>1090.0</ele><time>2026-04-27T10:26:23Z</time></trkpt><trkpt lat="39.291745659587626" lon="16.138812812858234"><ele>1090.0</ele><time>2026-04-27T10:26:24Z</time></trkpt><trkpt lat="39.291658488128654" lon="16.138847991477842"><ele>1090.0</ele><time>2026-04-27T10:26:25Z</time></trkpt><trkpt lat="39.291563414031096" lon="16.138840319300648"><ele>1090.0</ele><time>2026-04-27T10:26:26Z</time></trkpt><trkpt lat="39.29142181286232" lon="16.13881740254361"><ele>1090.0</ele><time>2026-04-27T10:26:27Z</time></trkpt><trkpt lat="39.29129132968368" lon="16.138812764052012"><ele>1091.8</ele><time>2026-04-27T10:26:28Z</time></trkpt><trkpt lat="39.291181772649594" lon="16.13884144138938"><ele>1093.6</ele><time>2026-04-27T10:26:29Z</time></trkpt><trkpt lat="39.29108487239647" lon="16.138890594341955"><ele>1095.4</ele><time>2026-04-27T10:26:30Z</time></trkpt><trkpt lat="39.29100179508981" lon="16.138940133104587"><ele>1097.2</ele><time>2026-04-27T10:26:31Z</time></trkpt><trkpt lat="39.2909290349984" lon="16.138988292349513"><ele>1099.0</ele><time>2026-04-27T10:26:32Z</time></trkpt><trkpt lat="39.290851631725666" lon="16.13904924763111"><ele>1100.0</ele><time>2026-04-27T10:26:33Z</time></trkpt><trkpt lat="39.290771919108565" lon="16.139132228951837"><ele>1101.0</ele><time>2026-04-27T10:26:34Z</time></trkpt><trkpt lat="39.290683597831666" lon="16.139229262506937"><ele>1102.0</ele><time>2026-04-27T10:26:35Z</time></trkpt><trkpt lat="39.29058886240511" lon="16.13931436904307"><ele>1103.0</ele><time>2026-04-27T10:26:36Z</time></trkpt><trkpt lat="39.290495720512006" lon="16.139388854467416"><ele>1104.0</ele><time>2026-04-27T10:26:37Z</time></trkpt><trkpt lat="39.29041804096205" lon="16.139458575545834"><ele>1104.6000000000001</ele><time>2026-04-27T10:26:37.999Z</time></trkpt><trkpt lat="39.290349622254446" lon="16.1395316904197"><ele>1105.2</ele><time>2026-04-27T10:26:38.999Z</time></trkpt><trkpt lat="39.29028431680401" lon="16.13963525714271"><ele>1105.8000000000002</ele><time>2026-04-27T10:26:39.999Z</time></trkpt><trkpt lat="39.290227719755116" lon="16.13973563252337"><ele>1106.4</ele><time>2026-04-27T10:26:40.999Z</time></trkpt><trkpt lat="39.29015786930892" lon="16.139809405559205"><ele>1107.0</ele><time>2026-04-27T10:26:41.999Z</time></trkpt><trkpt lat="39.29007157655135" lon="16.139864626468118"><ele>1107.75</ele><time>2026-04-27T10:26:42.999Z</time></trkpt><trkpt lat="39.289955990211695" lon="16.13993092013581"><ele>1108.5</ele><time>2026-04-27T10:26:43.999Z</time></trkpt><trkpt lat="39.2898408291775" lon="16.139999066527746"><ele>1109.25</ele><time>2026-04-27T10:26:44.999Z</time></trkpt><trkpt lat="39.289724681706375" lon="16.140067603861393"><ele>1110.0</ele><time>2026-04-27T10:26:45.999Z</time></trkpt><trkpt lat="39.28961636920141" lon="16.140114721172214"><ele>1111.25</ele><time>2026-04-27T10:26:46.999Z</time></trkpt><trkpt lat="39.28950179981895" lon="16.140131172111747"><ele>1112.5</ele><time>2026-04-27T10:26:47.999Z</time></trkpt><trkpt lat="39.28938049975279" lon="16.1401350079304"><ele>1113.75</ele><time>2026-04-27T10:26:48.999Z</time></trkpt><trkpt lat="39.28925967346389" lon="16.14013683144711"><ele>1115.0</ele><time>2026-04-27T10:26:49.999Z</time></trkpt><trkpt lat="39.28914024366865" lon="16.14014908393148"><ele>1115.0</ele><time>2026-04-27T10:26:50.999Z</time></trkpt><trkpt lat="39.289031016738804" lon="16.140174319848057"><ele>1115.0</ele><time>2026-04-27T10:26:51.999Z</time></trkpt><trkpt lat="39.28893795619419" lon="16.14022482064572"><ele>1115.0</ele><time>2026-04-27T10:26:52.999Z</time></trkpt><trkpt lat="39.28884769819384" lon="16.140280657117"><ele>1115.0</ele><time>2026-04-27T10:26:53.999Z</time></trkpt><trkpt lat="39.28877325048064" lon="16.140323677357944"><ele>1115.0</ele><time>2026-04-27T10:26:54.999Z</time></trkpt><trkpt lat="39.28871131874617" lon="16.14035475832196"><ele>1116.2</ele><time>2026-04-27T10:26:55.999Z</time></trkpt><trkpt lat="39.28863463134145" lon="16.14038339761964"><ele>1117.4</ele><time>2026-04-27T10:26:56.999Z</time></trkpt><trkpt lat="39.288555838334126" lon="16.140396456654486"><ele>1118.6</ele><time>2026-04-27T10:26:57.999Z</time></trkpt><trkpt lat="39.28845591315016" lon="16.140396025126474"><ele>1119.8</ele><time>2026-04-27T10:26:58.999Z</time></trkpt><trkpt lat="39.28834317545202" lon="16.140368406921198"><ele>1121.0</ele><time>2026-04-27T10:26:59.999Z</time></trkpt><trkpt lat="39.288244779072436" lon="16.140356408490476"><ele>1121.0</ele><time>2026-04-27T10:27:00.999Z</time></trkpt><trkpt lat="39.288168441379966" lon="16.140365591707827"><ele>1121.0</ele><time>2026-04-27T10:27:01.999Z</time></trkpt><trkpt lat="39.2881004907589" lon="16.14042252686478"><ele>1121.0</ele><time>2026-04-27T10:27:02.999Z</time></trkpt><trkpt lat="39.2880393452626" lon="16.140491827031408"><ele>1121.0</ele><time>2026-04-27T10:27:03.999Z</time></trkpt><trkpt lat="39.2879857824282" lon="16.14056415961167"><ele>1121.0</ele><time>2026-04-27T10:27:04.999Z</time></trkpt><trkpt lat="39.28792936535572" lon="16.140616041655246"><ele>1121.0</ele><time>2026-04-27T10:27:05.999Z</time></trkpt><trkpt lat="39.28783220832419" lon="16.14068720345424"><ele>1121.6</ele><time>2026-04-27T10:27:07.999Z</time></trkpt><trkpt lat="39.28770128023789" lon="16.14069926583618"><ele>1122.1999999999998</ele><time>2026-04-27T10:27:09.999Z</time></trkpt><trkpt lat="39.287629867857845" lon="16.140670610422973"><ele>1122.8000000000002</ele><time>2026-04-27T10:27:10.999Z</time></trkpt><trkpt lat="39.28753389642994" lon="16.140610400071356"><ele>1123.4</ele><time>2026-04-27T10:27:11.999Z</time></trkpt><trkpt lat="39.28743230838273" lon="16.14054956942594"><ele>1124.0</ele><time>2026-04-27T10:27:12.999Z</time></trkpt><trkpt lat="39.28733789901811" lon="16.14050781352332"><ele>1123.25</ele><time>2026-04-27T10:27:13.999Z</time></trkpt><trkpt lat="39.28723799303173" lon="16.140465057726967"><ele>1122.5</ele><time>2026-04-27T10:27:14.999Z</time></trkpt><trkpt lat="39.28712250686647" lon="16.140416005781848"><ele>1121.75</ele><time>2026-04-27T10:27:15.999Z</time></trkpt><trkpt lat="39.28699310942703" lon="16.14036771314792"><ele>1121.0</ele><time>2026-04-27T10:27:16.999Z</time></trkpt><trkpt lat="39.28686562863561" lon="16.140327944683477"><ele>1121.0</ele><time>2026-04-27T10:27:17.999Z</time></trkpt><trkpt lat="39.28674266811881" lon="16.14029351244716"><ele>1121.0</ele><time>2026-04-27T10:27:18.999Z</time></trkpt><trkpt lat="39.2866252831031" lon="16.140271765139325"><ele>1121.0</ele><time>2026-04-27T10:27:19.999Z</time></trkpt><trkpt lat="39.28651770327413" lon="16.140253327253966"><ele>1121.0</ele><time>2026-04-27T10:27:20.999Z</time></trkpt><trkpt lat="39.286428973030134" lon="16.14021270759264"><ele>1121.0</ele><time>2026-04-27T10:27:21.999Z</time></trkpt><trkpt lat="39.28634670497091" lon="16.14018036097587"><ele>1120.3999999999999</ele><time>2026-04-27T10:27:22.999Z</time></trkpt><trkpt lat="39.28626003858376" lon="16.140135370349146"><ele>1119.8</ele><time>2026-04-27T10:27:23.999Z</time></trkpt><trkpt lat="39.28616500665209" lon="16.1401151395424"><ele>1119.1999999999998</ele><time>2026-04-27T10:27:24.999Z</time></trkpt><trkpt lat="39.28608404720803" lon="16.14009551768498"><ele>1118.6</ele><time>2026-04-27T10:27:25.999Z</time></trkpt><trkpt lat="39.285987133587575" lon="16.14010443441371"><ele>1118.0</ele><time>2026-04-27T10:27:26.999Z</time></trkpt><trkpt lat="39.28585320947936" lon="16.140123510809097"><ele>1118.0</ele><time>2026-04-27T10:27:27.999Z</time></trkpt><trkpt lat="39.28569917244058" lon="16.140114794775446"><ele>1118.0</ele><time>2026-04-27T10:27:28.999Z</time></trkpt><trkpt lat="39.28552067530518" lon="16.140112634256887"><ele>1118.0</ele><time>2026-04-27T10:27:29.999Z</time></trkpt><trkpt lat="39.2853383362176" lon="16.14010706092498"><ele>1117.75</ele><time>2026-04-27T10:27:31Z</time></trkpt><trkpt lat="39.28518393906645" lon="16.140137566802782"><ele>1117.5</ele><time>2026-04-27T10:27:32Z</time></trkpt><trkpt lat="39.28504991843575" lon="16.14012847640154"><ele>1117.25</ele><time>2026-04-27T10:27:33Z</time></trkpt><trkpt lat="39.28492734499996" lon="16.140159583271327"><ele>1117.0</ele><time>2026-04-27T10:27:34Z</time></trkpt><trkpt lat="39.284795896953156" lon="16.140166206643293"><ele>1117.0</ele><time>2026-04-27T10:27:35Z</time></trkpt><trkpt lat="39.2846670414573" lon="16.140168196047945"><ele>1117.0</ele><time>2026-04-27T10:27:36Z</time></trkpt><trkpt lat="39.284556477926365" lon="16.140133907367815"><ele>1117.0</ele><time>2026-04-27T10:27:37Z</time></trkpt><trkpt lat="39.284449769100945" lon="16.140123215338495"><ele>1117.0</ele><time>2026-04-27T10:27:38Z</time></trkpt><trkpt lat="39.28435632464203" lon="16.140036025271684"><ele>1117.0</ele><time>2026-04-27T10:27:39Z</time></trkpt><trkpt lat="39.284230153061756" lon="16.139946421204712"><ele>1117.0</ele><time>2026-04-27T10:27:40Z</time></trkpt><trkpt lat="39.28409462378065" lon="16.13981838088518"><ele>1117.0</ele><time>2026-04-27T10:27:41Z</time></trkpt><trkpt lat="39.283941078545254" lon="16.139696576367584"><ele>1117.3333333333333</ele><time>2026-04-27T10:27:42Z</time></trkpt><trkpt lat="39.28379188160979" lon="16.13959116402288"><ele>1117.6666666666667</ele><time>2026-04-27T10:27:43Z</time></trkpt><trkpt lat="39.28364629353201" lon="16.139497216321942"><ele>1118.0</ele><time>2026-04-27T10:27:44Z</time></trkpt><trkpt lat="39.28352410621492" lon="16.139411275257977"><ele>1118.0</ele><time>2026-04-27T10:27:45Z</time></trkpt><trkpt lat="39.28342043657678" lon="16.139333332423508"><ele>1118.0</ele><time>2026-04-27T10:27:46Z</time></trkpt><trkpt lat="39.28333511190756" lon="16.139264803206228"><ele>1118.0</ele><time>2026-04-27T10:27:47Z</time></trkpt><trkpt lat="39.283239795709974" lon="16.139165104575792"><ele>1118.0</ele><time>2026-04-27T10:27:48Z</time></trkpt><trkpt lat="39.2831258353861" lon="16.139039274234527"><ele>1118.5</ele><time>2026-04-27T10:27:49Z</time></trkpt><trkpt lat="39.28302160992765" lon="16.138906887088787"><ele>1119.0</ele><time>2026-04-27T10:27:50Z</time></trkpt><trkpt lat="39.28292577097367" lon="16.13878257193181"><ele>1119.5</ele><time>2026-04-27T10:27:51Z</time></trkpt><trkpt lat="39.28284256202385" lon="16.138657931068643"><ele>1120.0</ele><time>2026-04-27T10:27:52Z</time></trkpt><trkpt lat="39.28275961460891" lon="16.13854768002049"><ele>1120.0</ele><time>2026-04-27T10:27:53Z</time></trkpt><trkpt lat="39.282670934112026" lon="16.138452837954507"><ele>1120.0</ele><time>2026-04-27T10:27:54Z</time></trkpt><trkpt lat="39.2825644594801" lon="16.138352829684354"><ele>1120.0</ele><time>2026-04-27T10:27:55Z</time></trkpt><trkpt lat="39.28245663286588" lon="16.138265374526643"><ele>1120.0</ele><time>2026-04-27T10:27:56Z</time></trkpt><trkpt lat="39.2823505495441" lon="16.138173496831996"><ele>1118.2</ele><time>2026-04-27T10:27:57Z</time></trkpt><trkpt lat="39.28224771228983" lon="16.13807666925424"><ele>1116.4</ele><time>2026-04-27T10:27:58Z</time></trkpt><trkpt lat="39.28216300072318" lon="16.13799036859676"><ele>1114.6</ele><time>2026-04-27T10:27:59Z</time></trkpt><trkpt lat="39.28209197119849" lon="16.137913243288654"><ele>1112.8</ele><time>2026-04-27T10:28:00Z</time></trkpt><trkpt lat="39.28201991935618" lon="16.13784830668608"><ele>1111.0</ele><time>2026-04-27T10:28:01Z</time></trkpt><trkpt lat="39.28194453936691" lon="16.137806027036874"><ele>1111.0</ele><time>2026-04-27T10:28:02Z</time></trkpt><trkpt lat="39.28186325590994" lon="16.137786157176127"><ele>1111.0</ele><time>2026-04-27T10:28:03Z</time></trkpt><trkpt lat="39.281756084030704" lon="16.13778740886017"><ele>1111.0</ele><time>2026-04-27T10:28:04Z</time></trkpt><trkpt lat="39.281640675758254" lon="16.13779142217849"><ele>1111.0</ele><time>2026-04-27T10:28:05Z</time></trkpt><trkpt lat="39.2815363760432" lon="16.137797229326544"><ele>1111.0</ele><time>2026-04-27T10:28:06Z</time></trkpt><trkpt lat="39.28143139907333" lon="16.137803459680867"><ele>1109.75</ele><time>2026-04-27T10:28:07Z</time></trkpt><trkpt lat="39.28131630574613" lon="16.13780400656891"><ele>1108.5</ele><time>2026-04-27T10:28:08Z</time></trkpt><trkpt lat="39.28120153409559" lon="16.13779614715942"><ele>1107.25</ele><time>2026-04-27T10:28:09Z</time></trkpt><trkpt lat="39.281081220459946" lon="16.13778307140653"><ele>1106.0</ele><time>2026-04-27T10:28:10Z</time></trkpt><trkpt lat="39.280940319187884" lon="16.137770390547722"><ele>1106.0</ele><time>2026-04-27T10:28:11Z</time></trkpt><trkpt lat="39.280812811930936" lon="16.137717519993128"><ele>1106.0</ele><time>2026-04-27T10:28:12Z</time></trkpt><trkpt lat="39.28069863641596" lon="16.137692017417066"><ele>1106.0</ele><time>2026-04-27T10:28:13Z</time></trkpt><trkpt lat="39.28058712997639" lon="16.137676041212163"><ele>1106.0</ele><time>2026-04-27T10:28:14Z</time></trkpt><trkpt lat="39.280485000769986" lon="16.137622335183806"><ele>1106.0</ele><time>2026-04-27T10:28:15Z</time></trkpt><trkpt lat="39.28038013885967" lon="16.137524601666556"><ele>1106.0</ele><time>2026-04-27T10:28:16Z</time></trkpt><trkpt lat="39.28028020488366" lon="16.13741862465852"><ele>1106.0</ele><time>2026-04-27T10:28:17Z</time></trkpt><trkpt lat="39.28019774224397" lon="16.137322245799858"><ele>1106.0</ele><time>2026-04-27T10:28:18Z</time></trkpt><trkpt lat="39.280114031339764" lon="16.137203566254758"><ele>1106.0</ele><time>2026-04-27T10:28:19Z</time></trkpt><trkpt lat="39.280031237176686" lon="16.137079512212775"><ele>1106.0</ele><time>2026-04-27T10:28:20Z</time></trkpt><trkpt lat="39.27994699895191" lon="16.136969921053627"><ele>1106.0</ele><time>2026-04-27T10:28:21Z</time></trkpt><trkpt lat="39.279870690660516" lon="16.1369044498846"><ele>1106.0</ele><time>2026-04-27T10:28:22Z</time></trkpt><trkpt lat="39.27979590714561" lon="16.136866965011368"><ele>1106.0</ele><time>2026-04-27T10:28:23Z</time></trkpt><trkpt lat="39.27972063642051" lon="16.13682531559742"><ele>1107.8</ele><time>2026-04-27T10:28:24Z</time></trkpt><trkpt lat="39.27962682761521" lon="16.136836870473477"><ele>1109.6</ele><time>2026-04-27T10:28:25Z</time></trkpt><trkpt lat="39.27953533837156" lon="16.136839881675872"><ele>1111.4</ele><time>2026-04-27T10:28:26Z</time></trkpt><trkpt lat="39.279431689636674" lon="16.136848401020583"><ele>1113.2</ele><time>2026-04-27T10:28:27Z</time></trkpt><trkpt lat="39.279314653830404" lon="16.136893205013443"><ele>1115.0</ele><time>2026-04-27T10:28:28Z</time></trkpt><trkpt lat="39.27922304502742" lon="16.136959181429916"><ele>1115.0</ele><time>2026-04-27T10:28:29Z</time></trkpt><trkpt lat="39.27913588651716" lon="16.137013088471047"><ele>1115.0</ele><time>2026-04-27T10:28:30Z</time></trkpt><trkpt lat="39.27901105321776" lon="16.137039485439907"><ele>1115.0</ele><time>2026-04-27T10:28:31Z</time></trkpt><trkpt lat="39.278872688312745" lon="16.137040276400295"><ele>1115.0</ele><time>2026-04-27T10:28:32Z</time></trkpt><trkpt lat="39.278741578515444" lon="16.137027055051558"><ele>1116.25</ele><time>2026-04-27T10:28:33Z</time></trkpt><trkpt lat="39.27861343588637" lon="16.137005645642077"><ele>1117.5</ele><time>2026-04-27T10:28:34Z</time></trkpt><trkpt lat="39.2784911570428" lon="16.13695528876881"><ele>1118.75</ele><time>2026-04-27T10:28:35Z</time></trkpt><trkpt lat="39.278358380945875" lon="16.13688349721561"><ele>1120.0</ele><time>2026-04-27T10:28:36Z</time></trkpt><trkpt lat="39.27821266807697" lon="16.136843786497906"><ele>1117.75</ele><time>2026-04-27T10:28:37Z</time></trkpt><trkpt lat="39.27808532245744" lon="16.13679924166124"><ele>1115.5</ele><time>2026-04-27T10:28:38Z</time></trkpt><trkpt lat="39.27797627841971" lon="16.13673629784444"><ele>1113.25</ele><time>2026-04-27T10:28:38.999Z</time></trkpt><trkpt lat="39.27786128818576" lon="16.136666704477765"><ele>1111.0</ele><time>2026-04-27T10:28:39.999Z</time></trkpt><trkpt lat="39.27776121056197" lon="16.1366077468536"><ele>1111.0</ele><time>2026-04-27T10:28:40.999Z</time></trkpt><trkpt lat="39.277674075542215" lon="16.136556476538903"><ele>1111.0</ele><time>2026-04-27T10:28:41.999Z</time></trkpt><trkpt lat="39.27755885895744" lon="16.13654031034223"><ele>1111.0</ele><time>2026-04-27T10:28:42.999Z</time></trkpt><trkpt lat="39.277450547075595" lon="16.136484315211295"><ele>1111.0</ele><time>2026-04-27T10:28:43.999Z</time></trkpt><trkpt lat="39.277342120299046" lon="16.136405104744583"><ele>1111.25</ele><time>2026-04-27T10:28:44.999Z</time></trkpt><trkpt lat="39.27721746061385" lon="16.136340313684403"><ele>1111.5</ele><time>2026-04-27T10:28:45.999Z</time></trkpt><trkpt lat="39.277114003961394" lon="16.136279296214685"><ele>1111.75</ele><time>2026-04-27T10:28:46.999Z</time></trkpt><trkpt lat="39.27702254735207" lon="16.136237812259942"><ele>1112.0</ele><time>2026-04-27T10:28:47.999Z</time></trkpt><trkpt lat="39.27691741510388" lon="16.136215067402627"><ele>1112.0</ele><time>2026-04-27T10:28:48.999Z</time></trkpt><trkpt lat="39.276803502173905" lon="16.136204795785492"><ele>1112.0</ele><time>2026-04-27T10:28:49.999Z</time></trkpt><trkpt lat="39.2766711290817" lon="16.136271433149883"><ele>1112.0</ele><time>2026-04-27T10:28:50.999Z</time></trkpt><trkpt lat="39.276526730721045" lon="16.136327663048743"><ele>1112.0</ele><time>2026-04-27T10:28:51.999Z</time></trkpt><trkpt lat="39.27640122643771" lon="16.136342879410616"><ele>1111.6</ele><time>2026-04-27T10:28:52.999Z</time></trkpt><trkpt lat="39.27628904731512" lon="16.13635198580729"><ele>1111.2</ele><time>2026-04-27T10:28:53.999Z</time></trkpt><trkpt lat="39.276172355588855" lon="16.13635407769108"><ele>1110.8</ele><time>2026-04-27T10:28:54.999Z</time></trkpt><trkpt lat="39.276058395108926" lon="16.136354747303745"><ele>1110.4</ele><time>2026-04-27T10:28:55.999Z</time></trkpt><trkpt lat="39.275962865695554" lon="16.13634722169815"><ele>1110.0</ele><time>2026-04-27T10:28:56.999Z</time></trkpt><trkpt lat="39.27587212479605" lon="16.13632977505315"><ele>1110.0</ele><time>2026-04-27T10:28:57.999Z</time></trkpt><trkpt lat="39.27578965191199" lon="16.136257027035906"><ele>1110.0</ele><time>2026-04-27T10:28:58.999Z</time></trkpt><trkpt lat="39.27570403472474" lon="16.136180853664165"><ele>1110.0</ele><time>2026-04-27T10:28:59.999Z</time></trkpt><trkpt lat="39.27561090706215" lon="16.136124371614887"><ele>1110.0</ele><time>2026-04-27T10:29:00.999Z</time></trkpt><trkpt lat="39.275493394536866" lon="16.136050041767767"><ele>1110.0</ele><time>2026-04-27T10:29:01.999Z</time></trkpt><trkpt lat="39.275389977564444" lon="16.135992682426515"><ele>1112.0</ele><time>2026-04-27T10:29:02.999Z</time></trkpt><trkpt lat="39.2752949044178" lon="16.135960913739275"><ele>1114.0</ele><time>2026-04-27T10:29:03.999Z</time></trkpt><trkpt lat="39.27520356875433" lon="16.13595358552001"><ele>1116.0</ele><time>2026-04-27T10:29:04.999Z</time></trkpt><trkpt lat="39.275119789378216" lon="16.135958705774335"><ele>1118.0</ele><time>2026-04-27T10:29:05.999Z</time></trkpt><trkpt lat="39.27503326434307" lon="16.135964834224126"><ele>1120.0</ele><time>2026-04-27T10:29:06.999Z</time></trkpt><trkpt lat="39.27493328516658" lon="16.136003615326516"><ele>1120.0</ele><time>2026-04-27T10:29:07.999Z</time></trkpt><trkpt lat="39.27481010883523" lon="16.136054536265576"><ele>1120.0</ele><time>2026-04-27T10:29:08.999Z</time></trkpt><trkpt lat="39.27469188149824" lon="16.13607705248906"><ele>1120.0</ele><time>2026-04-27T10:29:09.999Z</time></trkpt><trkpt lat="39.27460150884089" lon="16.136090829490268"><ele>1120.0</ele><time>2026-04-27T10:29:10.999Z</time></trkpt><trkpt lat="39.274522300299424" lon="16.136111435076423"><ele>1120.0</ele><time>2026-04-27T10:29:11.999Z</time></trkpt><trkpt lat="39.27444711152186" lon="16.136143097427095"><ele>1121.2</ele><time>2026-04-27T10:29:12.999Z</time></trkpt><trkpt lat="39.27434074816" lon="16.136211470809748"><ele>1122.4</ele><time>2026-04-27T10:29:14.999Z</time></trkpt><trkpt lat="39.27427383543142" lon="16.136355727743826"><ele>1123.6</ele><time>2026-04-27T10:29:16.999Z</time></trkpt><trkpt lat="39.27423800669966" lon="16.13648190473561"><ele>1124.8</ele><time>2026-04-27T10:29:17.999Z</time></trkpt><trkpt lat="39.27419778449438" lon="16.136558632090026"><ele>1126.0</ele><time>2026-04-27T10:29:18.999Z</time></trkpt><trkpt lat="39.27413537281569" lon="16.13658382278176"><ele>1129.3999999999999</ele><time>2026-04-27T10:29:19.999Z</time></trkpt><trkpt lat="39.2740402041875" lon="16.136580131014508"><ele>1132.8</ele><time>2026-04-27T10:29:20.999Z</time></trkpt><trkpt lat="39.27392963255677" lon="16.136575273458508"><ele>1136.1999999999998</ele><time>2026-04-27T10:29:21.999Z</time></trkpt><trkpt lat="39.273818848954555" lon="16.136566056794702"><ele>1139.6</ele><time>2026-04-27T10:29:22.999Z</time></trkpt><trkpt lat="39.27371549041101" lon="16.136566166792353"><ele>1143.0</ele><time>2026-04-27T10:29:23.999Z</time></trkpt><trkpt lat="39.27361445087312" lon="16.136577876247358"><ele>1144.4</ele><time>2026-04-27T10:29:24.999Z</time></trkpt><trkpt lat="39.273524155459015" lon="16.136555140295826"><ele>1145.8</ele><time>2026-04-27T10:29:25.999Z</time></trkpt><trkpt lat="39.27344343977926" lon="16.13650010105138"><ele>1147.2</ele><time>2026-04-27T10:29:26.999Z</time></trkpt><trkpt lat="39.273377132490516" lon="16.136455364664243"><ele>1148.6</ele><time>2026-04-27T10:29:27.999Z</time></trkpt><trkpt lat="39.273297706550686" lon="16.136407406481272"><ele>1150.0</ele><time>2026-04-27T10:29:28.999Z</time></trkpt><trkpt lat="39.27319349793165" lon="16.136380506432335"><ele>1147.0</ele><time>2026-04-27T10:29:29.999Z</time></trkpt><trkpt lat="39.27307958025692" lon="16.13635918373566"><ele>1144.0</ele><time>2026-04-27T10:29:30.999Z</time></trkpt><trkpt lat="39.272981692844745" lon="16.13634294289237"><ele>1141.0</ele><time>2026-04-27T10:29:31.999Z</time></trkpt><trkpt lat="39.27290021617139" lon="16.13635356577898"><ele>1138.0</ele><time>2026-04-27T10:29:32.999Z</time></trkpt><trkpt lat="39.27281804454793" lon="16.136343419510982"><ele>1135.0</ele><time>2026-04-27T10:29:33.999Z</time></trkpt><trkpt lat="39.27273999344556" lon="16.13634087966481"><ele>1135.0</ele><time>2026-04-27T10:29:34.999Z</time></trkpt><trkpt lat="39.27265512991354" lon="16.136364493813353"><ele>1135.0</ele><time>2026-04-27T10:29:35.999Z</time></trkpt><trkpt lat="39.272576956414596" lon="16.136412663379154"><ele>1135.0</ele><time>2026-04-27T10:29:37Z</time></trkpt><trkpt lat="39.272518846689294" lon="16.13648142828404"><ele>1135.0</ele><time>2026-04-27T10:29:38Z</time></trkpt><trkpt lat="39.272417368703984" lon="16.136488183057654"><ele>1135.0</ele><time>2026-04-27T10:29:40Z</time></trkpt><trkpt lat="39.272306675999" lon="16.136432628734532"><ele>1137.0</ele><time>2026-04-27T10:29:42Z</time></trkpt><trkpt lat="39.27223637276932" lon="16.13640935466052"><ele>1139.0</ele><time>2026-04-27T10:29:43Z</time></trkpt><trkpt lat="39.27215487615336" lon="16.136424912717903"><ele>1141.0</ele><time>2026-04-27T10:29:45Z</time></trkpt><trkpt lat="39.27210489045714" lon="16.13654025697794"><ele>1143.0</ele><time>2026-04-27T10:29:47Z</time></trkpt><trkpt lat="39.2719928728285" lon="16.13672864273155"><ele>1145.0</ele><time>2026-04-27T10:29:49Z</time></trkpt><trkpt lat="39.27192512505752" lon="16.136816316203024"><ele>1146.3333333333335</ele><time>2026-04-27T10:29:50Z</time></trkpt><trkpt lat="39.27186461742668" lon="16.136881560349465"><ele>1147.6666666666667</ele><time>2026-04-27T10:29:51Z</time></trkpt><trkpt lat="39.27180538589316" lon="16.13692407274742"><ele>1149.0</ele><time>2026-04-27T10:29:52Z</time></trkpt><trkpt lat="39.271743151194585" lon="16.13695362464428"><ele>1150.3333333333333</ele><time>2026-04-27T10:29:53Z</time></trkpt><trkpt lat="39.27164707322934" lon="16.136938941750554"><ele>1151.6666666666665</ele><time>2026-04-27T10:29:54Z</time></trkpt><trkpt lat="39.27155588844097" lon="16.1368989779921"><ele>1153.0</ele><time>2026-04-27T10:29:55Z</time></trkpt><trkpt lat="39.27147342744016" lon="16.136830932283814"><ele>1154.0</ele><time>2026-04-27T10:29:56Z</time></trkpt><trkpt lat="39.27139605344801" lon="16.136784408565816"><ele>1155.0</ele><time>2026-04-27T10:29:57Z</time></trkpt><trkpt lat="39.27130103682558" lon="16.136724066213592"><ele>1156.0</ele><time>2026-04-27T10:29:59Z</time></trkpt><trkpt lat="39.27125887972271" lon="16.13682552540931"><ele>1157.0</ele><time>2026-04-27T10:30:02Z</time></trkpt><trkpt lat="39.27129389321255" lon="16.13691580156043"><ele>1158.0</ele><time>2026-04-27T10:30:04Z</time></trkpt><trkpt lat="39.27140452541643" lon="16.13701420938899"><ele>1157.0</ele><time>2026-04-27T10:30:06Z</time></trkpt><trkpt lat="39.27147596629967" lon="16.137094808483628"><ele>1156.0</ele><time>2026-04-27T10:30:07Z</time></trkpt><trkpt lat="39.27154800376954" lon="16.13716979164912"><ele>1155.0</ele><time>2026-04-27T10:30:08Z</time></trkpt><trkpt lat="39.2716386556574" lon="16.137233429826484"><ele>1154.0</ele><time>2026-04-27T10:30:09Z</time></trkpt><trkpt lat="39.27174385991903" lon="16.137307148451608"><ele>1153.0</ele><time>2026-04-27T10:30:10Z</time></trkpt><trkpt lat="39.27183833719747" lon="16.13737930358306"><ele>1157.4</ele><time>2026-04-27T10:30:11Z</time></trkpt><trkpt lat="39.271901834081866" lon="16.13744012426408"><ele>1161.8</ele><time>2026-04-27T10:30:12Z</time></trkpt><trkpt lat="39.27196269283614" lon="16.13748844609045"><ele>1166.2</ele><time>2026-04-27T10:30:13Z</time></trkpt><trkpt lat="39.27206364824258" lon="16.1375845709404"><ele>1170.6</ele><time>2026-04-27T10:30:15Z</time></trkpt><trkpt lat="39.272109701535825" lon="16.13769228156535"><ele>1175.0</ele><time>2026-04-27T10:30:16Z</time></trkpt><trkpt lat="39.27214576113244" lon="16.13779166178468"><ele>1175.0</ele><time>2026-04-27T10:30:17Z</time></trkpt><trkpt lat="39.27217611787963" lon="16.137887275479507"><ele>1175.0</ele><time>2026-04-27T10:30:18Z</time></trkpt><trkpt lat="39.27219295154076" lon="16.138048576333098"><ele>1175.0</ele><time>2026-04-27T10:30:19Z</time></trkpt><trkpt lat="39.27219049227158" lon="16.138220238357793"><ele>1175.0</ele><time>2026-04-27T10:30:20Z</time></trkpt><trkpt lat="39.27220640446878" lon="16.13836043697801"><ele>1175.0</ele><time>2026-04-27T10:30:21Z</time></trkpt><trkpt lat="39.27223187209129" lon="16.13850080807945"><ele>1175.75</ele><time>2026-04-27T10:30:22Z</time></trkpt><trkpt lat="39.27228712342959" lon="16.138665710759426"><ele>1176.5</ele><time>2026-04-27T10:30:23Z</time></trkpt><trkpt lat="39.272316520283056" lon="16.13884449801145"><ele>1177.25</ele><time>2026-04-27T10:30:24Z</time></trkpt><trkpt lat="39.272352980830455" lon="16.13900770860339"><ele>1178.0</ele><time>2026-04-27T10:30:25Z</time></trkpt><trkpt lat="39.2723822281282" lon="16.139171825733467"><ele>1178.0</ele><time>2026-04-27T10:30:26Z</time></trkpt><trkpt lat="39.2723961906381" lon="16.139360546254938"><ele>1178.0</ele><time>2026-04-27T10:30:27Z</time></trkpt><trkpt lat="39.27241355299741" lon="16.139534915680606"><ele>1178.0</ele><time>2026-04-27T10:30:28Z</time></trkpt><trkpt lat="39.27243660962868" lon="16.139681847353565"><ele>1178.0</ele><time>2026-04-27T10:30:29Z</time></trkpt><trkpt lat="39.27245432419681" lon="16.139797621216967"><ele>1177.0</ele><time>2026-04-27T10:30:30Z</time></trkpt><trkpt lat="39.2724987504286" lon="16.139923932580093"><ele>1176.0</ele><time>2026-04-27T10:30:31Z</time></trkpt><trkpt lat="39.272524334910095" lon="16.14001575576988"><ele>1175.0</ele><time>2026-04-27T10:30:32Z</time></trkpt><trkpt lat="39.27252586432674" lon="16.140178853983517"><ele>1174.0</ele><time>2026-04-27T10:30:34Z</time></trkpt><trkpt lat="39.272523814959484" lon="16.140327891308598"><ele>1173.0</ele><time>2026-04-27T10:30:36Z</time></trkpt><trkpt lat="39.27245886436921" lon="16.140453692957404"><ele>1173.0</ele><time>2026-04-27T10:30:39Z</time></trkpt><trkpt lat="39.2723554193162" lon="16.14048943362978"><ele>1173.0</ele><time>2026-04-27T10:30:41Z</time></trkpt><trkpt lat="39.27228338595434" lon="16.14060495554643"><ele>1173.0</ele><time>2026-04-27T10:30:43Z</time></trkpt><trkpt lat="39.272242521748815" lon="16.140809778324062"><ele>1173.0</ele><time>2026-04-27T10:30:44.999Z</time></trkpt><trkpt lat="39.27221591651881" lon="16.140954277737"><ele>1173.0</ele><time>2026-04-27T10:30:45.999Z</time></trkpt><trkpt lat="39.272202801642386" lon="16.141062405719865"><ele>1173.0</ele><time>2026-04-27T10:30:46.999Z</time></trkpt><trkpt lat="39.27215686909531" lon="16.141211088302263"><ele>1173.0</ele><time>2026-04-27T10:30:48.999Z</time></trkpt><trkpt lat="39.27208792513726" lon="16.141293774689807"><ele>1173.0</ele><time>2026-04-27T10:30:49.999Z</time></trkpt><trkpt lat="39.27202644502812" lon="16.141381872771003"><ele>1173.0</ele><time>2026-04-27T10:30:50.999Z</time></trkpt><trkpt lat="39.271986079557415" lon="16.141465895763023"><ele>1172.0</ele><time>2026-04-27T10:30:51.999Z</time></trkpt><trkpt lat="39.27192704250398" lon="16.14157250712664"><ele>1171.0</ele><time>2026-04-27T10:30:53.999Z</time></trkpt><trkpt lat="39.27181693474021" lon="16.141585538136017"><ele>1170.0</ele><time>2026-04-27T10:30:55.999Z</time></trkpt><trkpt lat="39.27176978040518" lon="16.141670858591773"><ele>1169.0</ele><time>2026-04-27T10:30:57.999Z</time></trkpt><trkpt lat="39.271828350714586" lon="16.141941438173212"><ele>1169.0</ele><time>2026-04-27T10:31:00.999Z</time></trkpt><trkpt lat="39.27185910908345" lon="16.14205954286803"><ele>1169.0</ele><time>2026-04-27T10:31:01.999Z</time></trkpt><trkpt lat="39.271903700205975" lon="16.14224822968912"><ele>1169.0</ele><time>2026-04-27T10:31:02.999Z</time></trkpt><trkpt lat="39.2719447037924" lon="16.1424079393031"><ele>1169.0</ele><time>2026-04-27T10:31:03.999Z</time></trkpt><trkpt lat="39.27198674498562" lon="16.142542337836627"><ele>1170.2</ele><time>2026-04-27T10:31:04.999Z</time></trkpt><trkpt lat="39.272030120472586" lon="16.14267232678058"><ele>1171.4</ele><time>2026-04-27T10:31:05.999Z</time></trkpt><trkpt lat="39.27208498160424" lon="16.142766946096515"><ele>1172.6</ele><time>2026-04-27T10:31:06.999Z</time></trkpt><trkpt lat="39.27216867344852" lon="16.14286282354534"><ele>1173.8</ele><time>2026-04-27T10:31:07.999Z</time></trkpt><trkpt lat="39.27224506927799" lon="16.142966826919483"><ele>1175.0</ele><time>2026-04-27T10:31:08.999Z</time></trkpt><trkpt lat="39.272309468792415" lon="16.14306118619032"><ele>1169.0</ele><time>2026-04-27T10:31:09.999Z</time></trkpt><trkpt lat="39.27237163048369" lon="16.14314424059246"><ele>1163.0</ele><time>2026-04-27T10:31:10.999Z</time></trkpt><trkpt lat="39.27241846024694" lon="16.143205678753976"><ele>1157.0</ele><time>2026-04-27T10:31:11.999Z</time></trkpt><trkpt lat="39.272405833285596" lon="16.14330466371877"><ele>1151.0</ele><time>2026-04-27T10:31:12.999Z</time></trkpt><trkpt lat="39.272434164421526" lon="16.143395991624995"><ele>1145.0</ele><time>2026-04-27T10:31:15.999Z</time></trkpt><trkpt lat="39.272383341748714" lon="16.143454046715323"><ele>1139.0</ele><time>2026-04-27T10:31:16.999Z</time></trkpt><trkpt lat="39.27228456826431" lon="16.143432003096905"><ele>1145.0</ele><time>2026-04-27T10:31:17.999Z</time></trkpt><trkpt lat="39.27221746264355" lon="16.143458408466987"><ele>1151.0</ele><time>2026-04-27T10:31:18.999Z</time></trkpt><trkpt lat="39.272108260014015" lon="16.143511647890072"><ele>1157.0</ele><time>2026-04-27T10:31:20.999Z</time></trkpt><trkpt lat="39.27201679579932" lon="16.143617900020367"><ele>1163.0</ele><time>2026-04-27T10:31:22.999Z</time></trkpt><trkpt lat="39.27193534516531" lon="16.143784018237206"><ele>1163.0</ele><time>2026-04-27T10:31:24.999Z</time></trkpt><trkpt lat="39.271870383652264" lon="16.143979715014993"><ele>1163.0</ele><time>2026-04-27T10:31:25.999Z</time></trkpt><trkpt lat="39.271829316799405" lon="16.144174255232702"><ele>1163.0</ele><time>2026-04-27T10:31:26.999Z</time></trkpt><trkpt lat="39.27180141823434" lon="16.144283171807384"><ele>1163.0</ele><time>2026-04-27T10:31:27.999Z</time></trkpt><trkpt lat="39.271764157049745" lon="16.14439855752177"><ele>1159.8</ele><time>2026-04-27T10:31:28.999Z</time></trkpt><trkpt lat="39.27172095221193" lon="16.144529663988475"><ele>1156.6</ele><time>2026-04-27T10:31:29.999Z</time></trkpt><trkpt lat="39.271680465780825" lon="16.144641779748653"><ele>1153.4</ele><time>2026-04-27T10:31:30.999Z</time></trkpt><trkpt lat="39.27162015919344" lon="16.144771157690464"><ele>1150.2</ele><time>2026-04-27T10:31:31.999Z</time></trkpt><trkpt lat="39.27153570978241" lon="16.144891317057304"><ele>1147.0</ele><time>2026-04-27T10:31:32.999Z</time></trkpt><trkpt lat="39.27146410830604" lon="16.14496992845447"><ele>1150.75</ele><time>2026-04-27T10:31:33.999Z</time></trkpt><trkpt lat="39.27138113019518" lon="16.145081865252124"><ele>1154.5</ele><time>2026-04-27T10:31:34.999Z</time></trkpt><trkpt lat="39.27132258839037" lon="16.145225090101277"><ele>1158.25</ele><time>2026-04-27T10:31:35.999Z</time></trkpt><trkpt lat="39.271258816154806" lon="16.145341449170182"><ele>1162.0</ele><time>2026-04-27T10:31:36.999Z</time></trkpt><trkpt lat="39.27118384793535" lon="16.14546672187197"><ele>1162.0</ele><time>2026-04-27T10:31:37.999Z</time></trkpt><trkpt lat="39.27110060803205" lon="16.145607447676323"><ele>1162.0</ele><time>2026-04-27T10:31:38.999Z</time></trkpt><trkpt lat="39.27103158811753" lon="16.145763038296256"><ele>1162.0</ele><time>2026-04-27T10:31:39.999Z</time></trkpt><trkpt lat="39.2709939379482" lon="16.14586992432884"><ele>1162.0</ele><time>2026-04-27T10:31:40.999Z</time></trkpt><trkpt lat="39.270959444487744" lon="16.145949966531955"><ele>1162.0</ele><time>2026-04-27T10:31:41.999Z</time></trkpt><trkpt lat="39.27088007094513" lon="16.146055200188933"><ele>1159.6</ele><time>2026-04-27T10:31:44Z</time></trkpt><trkpt lat="39.2708102675039" lon="16.146092320764623"><ele>1157.2</ele><time>2026-04-27T10:31:45Z</time></trkpt><trkpt lat="39.27070682722891" lon="16.146131493482798"><ele>1154.8</ele><time>2026-04-27T10:31:46Z</time></trkpt><trkpt lat="39.27058259090792" lon="16.146166392877273"><ele>1152.4</ele><time>2026-04-27T10:31:47Z</time></trkpt><trkpt lat="39.270485466115296" lon="16.146183553815284"><ele>1150.0</ele><time>2026-04-27T10:31:48Z</time></trkpt><trkpt lat="39.270405243377574" lon="16.146184364733458"><ele>1150.0</ele><time>2026-04-27T10:31:49Z</time></trkpt><trkpt lat="39.27032237357821" lon="16.146172843589756"><ele>1150.0</ele><time>2026-04-27T10:31:50Z</time></trkpt><trkpt lat="39.27020836252059" lon="16.14614312424576"><ele>1150.0</ele><time>2026-04-27T10:31:51Z</time></trkpt><trkpt lat="39.27011674002613" lon="16.146099204135474"><ele>1150.0</ele><time>2026-04-27T10:31:52Z</time></trkpt><trkpt lat="39.27002255213197" lon="16.146047740157584"><ele>1150.0</ele><time>2026-04-27T10:31:53Z</time></trkpt><trkpt lat="39.269934057072795" lon="16.14594937018393"><ele>1150.0</ele><time>2026-04-27T10:31:54Z</time></trkpt><trkpt lat="39.269849858077244" lon="16.145843422781287"><ele>1150.0</ele><time>2026-04-27T10:31:55Z</time></trkpt><trkpt lat="39.26976912604641" lon="16.145743200173644"><ele>1150.0</ele><time>2026-04-27T10:31:56Z</time></trkpt><trkpt lat="39.26968823876646" lon="16.145671147082197"><ele>1150.0</ele><time>2026-04-27T10:31:57Z</time></trkpt><trkpt lat="39.269594444155075" lon="16.145636831772247"><ele>1150.0</ele><time>2026-04-27T10:31:58Z</time></trkpt><trkpt lat="39.26950857755722" lon="16.145633008246154"><ele>1149.8</ele><time>2026-04-27T10:31:59Z</time></trkpt><trkpt lat="39.26941826153915" lon="16.14564827783058"><ele>1149.6</ele><time>2026-04-27T10:32:00Z</time></trkpt><trkpt lat="39.269305107249906" lon="16.145679473304128"><ele>1149.4</ele><time>2026-04-27T10:32:01Z</time></trkpt><trkpt lat="39.26917895078354" lon="16.14577144380094"><ele>1149.2</ele><time>2026-04-27T10:32:02Z</time></trkpt><trkpt lat="39.26910430991685" lon="16.14583899268166"><ele>1149.0</ele><time>2026-04-27T10:32:03Z</time></trkpt><trkpt lat="39.269022376603466" lon="16.145907979958324"><ele>1149.0</ele><time>2026-04-27T10:32:04Z</time></trkpt><trkpt lat="39.26895191447605" lon="16.14595862601337"><ele>1149.0</ele><time>2026-04-27T10:32:05Z</time></trkpt><trkpt lat="39.268860065881206" lon="16.146009136802757"><ele>1149.0</ele><time>2026-04-27T10:32:06Z</time></trkpt><trkpt lat="39.26879336705268" lon="16.14606365114233"><ele>1149.0</ele><time>2026-04-27T10:32:07Z</time></trkpt><trkpt lat="39.268725508518166" lon="16.146091764777616"><ele>1149.0</ele><time>2026-04-27T10:32:08Z</time></trkpt><trkpt lat="39.268656868888655" lon="16.146146766610805"><ele>1149.0</ele><time>2026-04-27T10:34:56.999Z</time></trkpt><trkpt lat="39.26859257380841" lon="16.146086589137052"><ele>1148.6666666666667</ele><time>2026-04-27T10:34:58.999Z</time></trkpt><trkpt lat="39.26854440449166" lon="16.14602446334472"><ele>1148.3333333333333</ele><time>2026-04-27T10:34:59.999Z</time></trkpt><trkpt lat="39.26847884268419" lon="16.14595257787044"><ele>1148.0</ele><time>2026-04-27T10:35:00.999Z</time></trkpt><trkpt lat="39.26842284844961" lon="16.14588088457782"><ele>1147.6666666666665</ele><time>2026-04-27T10:35:01.999Z</time></trkpt><trkpt lat="39.268379081812526" lon="16.145799744371722"><ele>1147.3333333333333</ele><time>2026-04-27T10:35:02.999Z</time></trkpt><trkpt lat="39.268316780986225" lon="16.14565471826004"><ele>1147.0</ele><time>2026-04-27T10:35:04.999Z</time></trkpt><trkpt lat="39.26826185441938" lon="16.145574360971807"><ele>1150.5</ele><time>2026-04-27T10:35:05.999Z</time></trkpt><trkpt lat="39.26822547502806" lon="16.145492042070913"><ele>1154.0</ele><time>2026-04-27T10:35:06.999Z</time></trkpt><trkpt lat="39.2681698950962" lon="16.14537569155845"><ele>1157.5</ele><time>2026-04-27T10:35:08.999Z</time></trkpt><trkpt lat="39.26812368218528" lon="16.145312718954695"><ele>1161.0</ele><time>2026-04-27T10:35:10.999Z</time></trkpt><trkpt lat="39.26800403416522" lon="16.14534702623431"><ele>1164.5</ele><time>2026-04-27T10:35:12.999Z</time></trkpt><trkpt lat="39.26794577623674" lon="16.145406069824165"><ele>1168.0</ele><time>2026-04-27T10:35:13.999Z</time></trkpt><trkpt lat="39.267874701817" lon="16.145472105674447"><ele>1168.8</ele><time>2026-04-27T10:35:14.999Z</time></trkpt><trkpt lat="39.26781918704812" lon="16.145529663227453"><ele>1169.6</ele><time>2026-04-27T10:35:15.999Z</time></trkpt><trkpt lat="39.26772191964391" lon="16.145635375924492"><ele>1170.4</ele><time>2026-04-27T10:35:17.999Z</time></trkpt><trkpt lat="39.2676175463382" lon="16.145718474361725"><ele>1171.2</ele><time>2026-04-27T10:35:19.999Z</time></trkpt><trkpt lat="39.26754394930058" lon="16.145745743946634"><ele>1172.0</ele><time>2026-04-27T10:35:20.999Z</time></trkpt><trkpt lat="39.267443942128274" lon="16.145762462646196"><ele>1168.0</ele><time>2026-04-27T10:35:21.999Z</time></trkpt><trkpt lat="39.26733982679029" lon="16.145771387682416"><ele>1164.0</ele><time>2026-04-27T10:35:22.999Z</time></trkpt><trkpt lat="39.26725556539213" lon="16.145778424286245"><ele>1160.0</ele><time>2026-04-27T10:35:23.999Z</time></trkpt><trkpt lat="39.26718272474092" lon="16.14579711433244"><ele>1156.0</ele><time>2026-04-27T10:35:24.999Z</time></trkpt><trkpt lat="39.267105810566434" lon="16.14583542791615"><ele>1152.0</ele><time>2026-04-27T10:35:25.999Z</time></trkpt><trkpt lat="39.267038932304295" lon="16.14588120574059"><ele>1148.0</ele><time>2026-04-27T10:35:26.999Z</time></trkpt><trkpt lat="39.26696858758508" lon="16.14593382284479"><ele>1148.0</ele><time>2026-04-27T10:35:27.999Z</time></trkpt><trkpt lat="39.26687577618708" lon="16.146027164800415"><ele>1148.0</ele><time>2026-04-27T10:35:29.999Z</time></trkpt><trkpt lat="39.266888258445945" lon="16.14621283618366"><ele>1148.0</ele><time>2026-04-27T10:35:31.999Z</time></trkpt><trkpt lat="39.266841016424" lon="16.146306385583582"><ele>1148.0</ele><time>2026-04-27T10:35:32.999Z</time></trkpt><trkpt lat="39.266925493541635" lon="16.14636317172422"><ele>1148.0</ele><time>2026-04-27T10:35:33.999Z</time></trkpt><trkpt lat="39.26695992437968" lon="16.146466944301242"><ele>1144.8</ele><time>2026-04-27T10:35:35.999Z</time></trkpt><trkpt lat="39.266892616007766" lon="16.14659444445501"><ele>1141.6</ele><time>2026-04-27T10:35:38.999Z</time></trkpt><trkpt lat="39.26682828220474" lon="16.14668097999186"><ele>1138.4</ele><time>2026-04-27T10:35:39.999Z</time></trkpt><trkpt lat="39.266767731318666" lon="16.14680712254801"><ele>1135.2</ele><time>2026-04-27T10:35:40.999Z</time></trkpt><trkpt lat="39.266719102803314" lon="16.146922072416466"><ele>1132.0</ele><time>2026-04-27T10:35:41.999Z</time></trkpt><trkpt lat="39.26668633175534" lon="16.147001129021604"><ele>1132.0</ele><time>2026-04-27T10:35:42.999Z</time></trkpt><trkpt lat="39.26665086839774" lon="16.147112760817432"><ele>1132.0</ele><time>2026-04-27T10:35:44.999Z</time></trkpt><trkpt lat="39.266609256147916" lon="16.14718805617314"><ele>1132.0</ele><time>2026-04-27T10:35:48.999Z</time></trkpt><trkpt lat="39.26654523571205" lon="16.14725551179466"><ele>1132.0</ele><time>2026-04-27T10:35:53Z</time></trkpt><trkpt lat="39.266324975457174" lon="16.14760903633009"><ele>1135.4</ele><time>2026-04-27T10:35:55Z</time></trkpt><trkpt lat="39.26629781235198" lon="16.147704287058275"><ele>1138.8000000000002</ele><time>2026-04-27T10:35:56Z</time></trkpt><trkpt lat="39.266273632767366" lon="16.147812322263547"><ele>1142.2</ele><time>2026-04-27T10:35:57Z</time></trkpt><trkpt lat="39.266258679286814" lon="16.147912589071442"><ele>1145.6000000000001</ele><time>2026-04-27T10:35:58Z</time></trkpt><trkpt lat="39.266226488284005" lon="16.148042650911417"><ele>1149.0</ele><time>2026-04-27T10:36:00Z</time></trkpt><trkpt lat="39.266181778960664" lon="16.14817009250586"><ele>1140.8</ele><time>2026-04-27T10:36:02Z</time></trkpt><trkpt lat="39.266122164857144" lon="16.148289370384983"><ele>1132.6000000000001</ele><time>2026-04-27T10:36:05Z</time></trkpt><trkpt lat="39.26607032810378" lon="16.14834236816041"><ele>1124.4</ele><time>2026-04-27T10:36:06Z</time></trkpt><trkpt lat="39.265962081131036" lon="16.14844166576987"><ele>1116.2</ele><time>2026-04-27T10:36:08Z</time></trkpt><trkpt lat="39.265899049048215" lon="16.148475217620348"><ele>1108.0</ele><time>2026-04-27T10:36:09Z</time></trkpt><trkpt lat="39.26581203448373" lon="16.148526989596686"><ele>1108.0</ele><time>2026-04-27T10:36:11Z</time></trkpt><trkpt lat="39.265768087021186" lon="16.148634695749706"><ele>1108.0</ele><time>2026-04-27T10:36:13Z</time></trkpt><trkpt lat="39.26573198101615" lon="16.148706682564885"><ele>1108.0</ele><time>2026-04-27T10:36:14Z</time></trkpt><trkpt lat="39.265650266777314" lon="16.148783586108603"><ele>1108.0</ele><time>2026-04-27T10:36:15Z</time></trkpt><trkpt lat="39.2656111402712" lon="16.148883162383406"><ele>1108.0</ele><time>2026-04-27T10:36:16Z</time></trkpt><trkpt lat="39.26557996175453" lon="16.14899916775623"><ele>1108.0</ele><time>2026-04-27T10:36:17Z</time></trkpt><trkpt lat="39.265560579840226" lon="16.149094636229126"><ele>1105.8</ele><time>2026-04-27T10:36:18Z</time></trkpt><trkpt lat="39.265564618335354" lon="16.149184779865948"><ele>1103.6</ele><time>2026-04-27T10:36:19Z</time></trkpt><trkpt lat="39.265581667772494" lon="16.149277193392646"><ele>1101.4</ele><time>2026-04-27T10:36:20Z</time></trkpt><trkpt lat="39.2656249071808" lon="16.149345543506776"><ele>1099.2</ele><time>2026-04-27T10:36:21Z</time></trkpt><trkpt lat="39.26561113696348" lon="16.149462369657893"><ele>1097.0</ele><time>2026-04-27T10:36:23Z</time></trkpt><trkpt lat="39.26528014054873" lon="16.14959339447298"><ele>1097.0</ele><time>2026-04-27T10:36:25Z</time></trkpt><trkpt lat="39.26520304021692" lon="16.149628878184423"><ele>1097.0</ele><time>2026-04-27T10:36:26Z</time></trkpt><trkpt lat="39.26509951380258" lon="16.149640047693758"><ele>1097.0</ele><time>2026-04-27T10:36:27Z</time></trkpt><trkpt lat="39.2649643716752" lon="16.149651807353756"><ele>1097.0</ele><time>2026-04-27T10:36:28Z</time></trkpt><trkpt lat="39.2648465624453" lon="16.149656865950554"><ele>1097.0</ele><time>2026-04-27T10:36:29Z</time></trkpt><trkpt lat="39.264756048009744" lon="16.149670157427646"><ele>1098.2</ele><time>2026-04-27T10:36:30Z</time></trkpt><trkpt lat="39.26466498924484" lon="16.149688296831513"><ele>1099.4</ele><time>2026-04-27T10:36:31Z</time></trkpt><trkpt lat="39.26457964781227" lon="16.149710508963427"><ele>1100.6</ele><time>2026-04-27T10:36:32Z</time></trkpt><trkpt lat="39.2645194787301" lon="16.149767941998757"><ele>1101.8</ele><time>2026-04-27T10:36:33Z</time></trkpt><trkpt lat="39.26442891811513" lon="16.14984603631751"><ele>1103.0</ele><time>2026-04-27T10:36:34Z</time></trkpt><trkpt lat="39.264339303323204" lon="16.14991371771968"><ele>1102.3333333333335</ele><time>2026-04-27T10:36:35Z</time></trkpt><trkpt lat="39.264253771732754" lon="16.149948880565777"><ele>1101.6666666666667</ele><time>2026-04-27T10:36:36Z</time></trkpt><trkpt lat="39.264170969069056" lon="16.149969701440174"><ele>1101.0</ele><time>2026-04-27T10:36:37Z</time></trkpt><trkpt lat="39.26407960260074" lon="16.149975186666175"><ele>1100.3333333333333</ele><time>2026-04-27T10:36:38Z</time></trkpt><trkpt lat="39.26398719206538" lon="16.149976791135792"><ele>1099.6666666666665</ele><time>2026-04-27T10:36:39Z</time></trkpt><trkpt lat="39.26390387370769" lon="16.14999072331046"><ele>1099.0</ele><time>2026-04-27T10:36:40Z</time></trkpt><trkpt lat="39.26383083162655" lon="16.149990247292763"><ele>1099.0</ele><time>2026-04-27T10:36:41Z</time></trkpt><trkpt lat="39.26376656486092" lon="16.149940637951396"><ele>1099.0</ele><time>2026-04-27T10:36:42Z</time></trkpt><trkpt lat="39.26369901775569" lon="16.149868580738598"><ele>1099.0</ele><time>2026-04-27T10:36:43Z</time></trkpt><trkpt lat="39.263631083414396" lon="16.149775524778473"><ele>1099.0</ele><time>2026-04-27T10:36:44Z</time></trkpt><trkpt lat="39.263556753630944" lon="16.14966496878928"><ele>1099.0</ele><time>2026-04-27T10:36:45Z</time></trkpt><trkpt lat="39.26349445875423" lon="16.149586461020128"><ele>1099.0</ele><time>2026-04-27T10:36:46Z</time></trkpt><trkpt lat="39.263394626945654" lon="16.149607207403704"><ele>1099.0</ele><time>2026-04-27T10:36:48Z</time></trkpt><trkpt lat="39.26334155915959" lon="16.149667544814495"><ele>1099.0</ele><time>2026-04-27T10:36:49Z</time></trkpt><trkpt lat="39.26330222734378" lon="16.14975614209185"><ele>1099.0</ele><time>2026-04-27T10:36:50Z</time></trkpt><trkpt lat="39.263251600754415" lon="16.14987545156203"><ele>1099.0</ele><time>2026-04-27T10:36:51Z</time></trkpt><trkpt lat="39.263226377397736" lon="16.14995752303908"><ele>1099.0</ele><time>2026-04-27T10:36:52Z</time></trkpt><trkpt lat="39.26315935013374" lon="16.15003588512135"><ele>1102.8333333333333</ele><time>2026-04-27T10:36:54Z</time></trkpt><trkpt lat="39.26308389866114" lon="16.15003809808446"><ele>1106.6666666666665</ele><time>2026-04-27T10:36:55Z</time></trkpt><trkpt lat="39.262967842715575" lon="16.150032775192248"><ele>1110.5</ele><time>2026-04-27T10:36:56Z</time></trkpt><trkpt lat="39.26287226199308" lon="16.15001757084759"><ele>1114.3333333333333</ele><time>2026-04-27T10:36:57Z</time></trkpt><trkpt lat="39.26280753096999" lon="16.150007102170388"><ele>1118.1666666666667</ele><time>2026-04-27T10:36:58.999Z</time></trkpt><trkpt lat="39.26280486952297" lon="16.150095480122403"><ele>1122.0</ele><time>2026-04-27T10:37:01.999Z</time></trkpt><trkpt lat="39.262841073352504" lon="16.15017301059385"><ele>1122.0</ele><time>2026-04-27T10:37:03.999Z</time></trkpt><trkpt lat="39.26284409794397" lon="16.150254344081727"><ele>1122.0</ele><time>2026-04-27T10:37:05.999Z</time></trkpt><trkpt lat="39.26281998084561" lon="16.15033157455215"><ele>1122.0</ele><time>2026-04-27T10:37:07.999Z</time></trkpt><trkpt lat="39.26276556944673" lon="16.15063080522676"><ele>1122.0</ele><time>2026-04-27T10:37:09.999Z</time></trkpt><trkpt lat="39.26274501216939" lon="16.15072224966151"><ele>1122.0</ele><time>2026-04-27T10:37:10.999Z</time></trkpt><trkpt lat="39.26271848717272" lon="16.15085513684369"><ele>1119.0</ele><time>2026-04-27T10:37:11.999Z</time></trkpt><trkpt lat="39.26267408298235" lon="16.150991164012975"><ele>1116.0</ele><time>2026-04-27T10:37:12.999Z</time></trkpt><trkpt lat="39.262641853583034" lon="16.151122545039904"><ele>1113.0</ele><time>2026-04-27T10:37:13.999Z</time></trkpt><trkpt lat="39.26260932909413" lon="16.15122058846094"><ele>1110.0</ele><time>2026-04-27T10:37:14.999Z</time></trkpt><trkpt lat="39.26254425294032" lon="16.15127984155211"><ele>1107.0</ele><time>2026-04-27T10:37:15.999Z</time></trkpt><trkpt lat="39.26247478204834" lon="16.151308188509173"><ele>1107.0</ele><time>2026-04-27T10:37:16.999Z</time></trkpt><trkpt lat="39.26241088883005" lon="16.151340375789246"><ele>1107.0</ele><time>2026-04-27T10:37:17.999Z</time></trkpt><trkpt lat="39.262305762730215" lon="16.15132284339358"><ele>1107.0</ele><time>2026-04-27T10:37:19.999Z</time></trkpt><trkpt lat="39.26216427570092" lon="16.151254257200357"><ele>1107.0</ele><time>2026-04-27T10:37:21.999Z</time></trkpt><trkpt lat="39.26208899302057" lon="16.15122993489279"><ele>1107.0</ele><time>2026-04-27T10:37:22.999Z</time></trkpt><trkpt lat="39.26202384075462" lon="16.151251614848075"><ele>1105.3333333333333</ele><time>2026-04-27T10:37:23.999Z</time></trkpt><trkpt lat="39.26198429587591" lon="16.1513157252537"><ele>1103.6666666666667</ele><time>2026-04-27T10:37:24.999Z</time></trkpt><trkpt lat="39.26191487529901" lon="16.15140125719653"><ele>1102.0</ele><time>2026-04-27T10:37:25.999Z</time></trkpt><trkpt lat="39.261841039422336" lon="16.151487499030903"><ele>1100.3333333333335</ele><time>2026-04-27T10:37:26.999Z</time></trkpt><trkpt lat="39.26177415687894" lon="16.151565066080206"><ele>1098.6666666666667</ele><time>2026-04-27T10:37:27.999Z</time></trkpt><trkpt lat="39.26171361566046" lon="16.151661004962964"><ele>1097.0</ele><time>2026-04-27T10:37:28.999Z</time></trkpt><trkpt lat="39.26164489689534" lon="16.15175384721801"><ele>1097.0</ele><time>2026-04-27T10:37:29.999Z</time></trkpt><trkpt lat="39.26157820338507" lon="16.15183408574066"><ele>1097.0</ele><time>2026-04-27T10:37:30.999Z</time></trkpt><trkpt lat="39.26150689186922" lon="16.151887628177267"><ele>1097.0</ele><time>2026-04-27T10:37:31.999Z</time></trkpt><trkpt lat="39.26145300256516" lon="16.15193722346106"><ele>1097.0</ele><time>2026-04-27T10:37:32.999Z</time></trkpt><trkpt lat="39.261388189885224" lon="16.15203361030982"><ele>1097.0</ele><time>2026-04-27T10:37:33.999Z</time></trkpt><trkpt lat="39.261334949130884" lon="16.152141106890117"><ele>1097.0</ele><time>2026-04-27T10:37:34.999Z</time></trkpt><trkpt lat="39.26119466953886" lon="16.152113279405363"><ele>1099.8333333333335</ele><time>2026-04-27T10:37:35.999Z</time></trkpt><trkpt lat="39.26110318377763" lon="16.152138105050977"><ele>1102.6666666666667</ele><time>2026-04-27T10:37:36.999Z</time></trkpt><trkpt lat="39.26103674638901" lon="16.152173310194023"><ele>1105.5</ele><time>2026-04-27T10:37:37.999Z</time></trkpt><trkpt lat="39.26094976398133" lon="16.15221331173842"><ele>1108.3333333333333</ele><time>2026-04-27T10:37:38.999Z</time></trkpt><trkpt lat="39.26087195293909" lon="16.152230781226027"><ele>1111.1666666666665</ele><time>2026-04-27T10:37:39.999Z</time></trkpt><trkpt lat="39.26079902791027" lon="16.152241870958182"><ele>1114.0</ele><time>2026-04-27T10:37:40.999Z</time></trkpt><trkpt lat="39.26073967730898" lon="16.152281375382476"><ele>1114.0</ele><time>2026-04-27T10:37:41.999Z</time></trkpt><trkpt lat="39.26068740620417" lon="16.152355683034283"><ele>1114.0</ele><time>2026-04-27T10:37:42.999Z</time></trkpt><trkpt lat="39.2606563159997" lon="16.152462992364104"><ele>1114.0</ele><time>2026-04-27T10:37:43.999Z</time></trkpt><trkpt lat="39.26060394267414" lon="16.152546407777255"><ele>1114.0</ele><time>2026-04-27T10:37:44.999Z</time></trkpt><trkpt lat="39.26053531199264" lon="16.152588351940928"><ele>1114.0</ele><time>2026-04-27T10:37:45.999Z</time></trkpt><trkpt lat="39.260439292050016" lon="16.152610215502825"><ele>1114.0</ele><time>2026-04-27T10:37:46.999Z</time></trkpt><trkpt lat="39.260333561012594" lon="16.152614974327463"><ele>1112.0</ele><time>2026-04-27T10:37:47.999Z</time></trkpt><trkpt lat="39.26023625706015" lon="16.152583612228113"><ele>1110.0</ele><time>2026-04-27T10:37:48.999Z</time></trkpt><trkpt lat="39.26013399565331" lon="16.152612462170683"><ele>1108.0</ele><time>2026-04-27T10:37:49.999Z</time></trkpt><trkpt lat="39.260036851036865" lon="16.152649680905032"><ele>1106.0</ele><time>2026-04-27T10:37:50.999Z</time></trkpt><trkpt lat="39.25996661935641" lon="16.152666910739033"><ele>1104.0</ele><time>2026-04-27T10:37:51.999Z</time></trkpt><trkpt lat="39.25984427935352" lon="16.152679734167762"><ele>1104.0</ele><time>2026-04-27T10:37:53.999Z</time></trkpt><trkpt lat="39.25978884420758" lon="16.152606445968075"><ele>1104.0</ele><time>2026-04-27T10:37:54.999Z</time></trkpt><trkpt lat="39.259731621803596" lon="16.152550760019633"><ele>1104.0</ele><time>2026-04-27T10:37:55.999Z</time></trkpt><trkpt lat="39.25966166628992" lon="16.152557026374396"><ele>1104.0</ele><time>2026-04-27T10:39:16.999Z</time></trkpt><trkpt lat="39.25956963683508" lon="16.152557761354352"><ele>1104.0</ele><time>2026-04-27T10:39:22.999Z</time></trkpt><trkpt lat="39.25950030718192" lon="16.152554502887288"><ele>1104.0</ele><time>2026-04-27T10:39:23.999Z</time></trkpt><trkpt lat="39.259404279862714" lon="16.152549206542457"><ele>1105.1666666666667</ele><time>2026-04-27T10:39:24.999Z</time></trkpt><trkpt lat="39.2593249666543" lon="16.152522589550117"><ele>1106.3333333333333</ele><time>2026-04-27T10:39:25.999Z</time></trkpt><trkpt lat="39.259272020041074" lon="16.152474892810282"><ele>1107.5</ele><time>2026-04-27T10:39:27.999Z</time></trkpt><trkpt lat="39.2591969445886" lon="16.15243857773079"><ele>1108.6666666666665</ele><time>2026-04-27T10:39:32.999Z</time></trkpt><trkpt lat="39.25909957010307" lon="16.152404274599846"><ele>1109.8333333333333</ele><time>2026-04-27T10:39:35.999Z</time></trkpt><trkpt lat="39.259028123343484" lon="16.152394160706933"><ele>1111.0</ele><time>2026-04-27T10:39:36.999Z</time></trkpt><trkpt lat="39.25894882721401" lon="16.152406268125652"><ele>1111.5</ele><time>2026-04-27T10:39:37.999Z</time></trkpt><trkpt lat="39.25887095297657" lon="16.152438365054053"><ele>1112.0</ele><time>2026-04-27T10:39:38.999Z</time></trkpt><trkpt lat="39.25878478462598" lon="16.152471437385042"><ele>1112.5</ele><time>2026-04-27T10:39:39.999Z</time></trkpt><trkpt lat="39.25869218461848" lon="16.15250332056961"><ele>1113.0</ele><time>2026-04-27T10:39:40.999Z</time></trkpt><trkpt lat="39.258606327922166" lon="16.152555427358255"><ele>1113.5</ele><time>2026-04-27T10:39:41.999Z</time></trkpt><trkpt lat="39.258552149817895" lon="16.1526406658685"><ele>1114.0</ele><time>2026-04-27T10:39:42.999Z</time></trkpt><trkpt lat="39.25844581402212" lon="16.1527223783915"><ele>1114.0</ele><time>2026-04-27T10:39:44.999Z</time></trkpt><trkpt lat="39.25836520580337" lon="16.15273288231074"><ele>1114.0</ele><time>2026-04-27T10:39:45.999Z</time></trkpt><trkpt lat="39.25824724987188" lon="16.152741377520858"><ele>1114.0</ele><time>2026-04-27T10:39:46.999Z</time></trkpt><trkpt lat="39.25813922223884" lon="16.152742868144305"><ele>1114.0</ele><time>2026-04-27T10:39:47.999Z</time></trkpt><trkpt lat="39.25804814821374" lon="16.15274115215529"><ele>1114.0</ele><time>2026-04-27T10:39:48.999Z</time></trkpt><trkpt lat="39.25796384385078" lon="16.15273753092739"><ele>1111.4</ele><time>2026-04-27T10:39:49.999Z</time></trkpt><trkpt lat="39.257884090771775" lon="16.15273023774315"><ele>1108.8000000000002</ele><time>2026-04-27T10:39:50.999Z</time></trkpt><trkpt lat="39.257814442380436" lon="16.152737853094386"><ele>1106.1999999999998</ele><time>2026-04-27T10:39:51.999Z</time></trkpt><trkpt lat="39.257694664527406" lon="16.15268322587483"><ele>1103.6</ele><time>2026-04-27T10:39:53.999Z</time></trkpt><trkpt lat="39.257615494709256" lon="16.15262228577396"><ele>1101.0</ele><time>2026-04-27T10:39:54.999Z</time></trkpt><trkpt lat="39.25753860277543" lon="16.152533905263468"><ele>1101.0</ele><time>2026-04-27T10:39:55.999Z</time></trkpt><trkpt lat="39.2574759715672" lon="16.152457172792175"><ele>1101.0</ele><time>2026-04-27T10:39:56.999Z</time></trkpt><trkpt lat="39.25742542289972" lon="16.15235915730824"><ele>1101.0</ele><time>2026-04-27T10:39:57.999Z</time></trkpt><trkpt lat="39.25738149460677" lon="16.15226972236685"><ele>1101.0</ele><time>2026-04-27T10:39:58.999Z</time></trkpt><trkpt lat="39.25733482317208" lon="16.152172033224744"><ele>1101.0</ele><time>2026-04-27T10:39:59.999Z</time></trkpt><trkpt lat="39.257277294963295" lon="16.152096731237506"><ele>1101.0</ele><time>2026-04-27T10:40:00.999Z</time></trkpt><trkpt lat="39.25722777067014" lon="16.15202084887619"><ele>1100.3333333333333</ele><time>2026-04-27T10:40:01.999Z</time></trkpt><trkpt lat="39.2571480244689" lon="16.151909023401803"><ele>1099.6666666666667</ele><time>2026-04-27T10:40:03.999Z</time></trkpt><trkpt lat="39.25709019049102" lon="16.15187105206225"><ele>1099.0</ele><time>2026-04-27T10:40:05Z</time></trkpt><trkpt lat="39.2570055113629" lon="16.15186820549487"><ele>1098.3333333333335</ele><time>2026-04-27T10:40:06Z</time></trkpt><trkpt lat="39.25693228872044" lon="16.1518766591374"><ele>1097.6666666666667</ele><time>2026-04-27T10:40:07Z</time></trkpt><trkpt lat="39.256844459975376" lon="16.151913825561483"><ele>1097.0</ele><time>2026-04-27T10:40:08Z</time></trkpt><trkpt lat="39.2567639347179" lon="16.151954444079266"><ele>1097.0</ele><time>2026-04-27T10:40:09Z</time></trkpt><trkpt lat="39.25665678044378" lon="16.15198319685845"><ele>1097.0</ele><time>2026-04-27T10:40:11Z</time></trkpt><trkpt lat="39.256565367125525" lon="16.151902322466526"><ele>1097.0</ele><time>2026-04-27T10:40:13Z</time></trkpt><trkpt lat="39.25650648606879" lon="16.151850182038704"><ele>1097.0</ele><time>2026-04-27T10:40:14Z</time></trkpt><trkpt lat="39.25643719689884" lon="16.151821193204896"><ele>1097.0</ele><time>2026-04-27T10:40:15Z</time></trkpt><trkpt lat="39.256353224969786" lon="16.15185824926692"><ele>1096.6666666666667</ele><time>2026-04-27T10:40:16Z</time></trkpt><trkpt lat="39.256273608498695" lon="16.1519267315374"><ele>1096.3333333333335</ele><time>2026-04-27T10:40:17Z</time></trkpt><trkpt lat="39.256215934059206" lon="16.152028750879243"><ele>1096.0</ele><time>2026-04-27T10:40:18Z</time></trkpt><trkpt lat="39.25616471071875" lon="16.152085599353484"><ele>1095.6666666666667</ele><time>2026-04-27T10:40:19Z</time></trkpt><trkpt lat="39.25607058318726" lon="16.152158209663853"><ele>1095.3333333333333</ele><time>2026-04-27T10:40:21Z</time></trkpt><trkpt lat="39.25599624501437" lon="16.152164936843697"><ele>1095.0</ele><time>2026-04-27T10:40:22Z</time></trkpt><trkpt lat="39.25589512805495" lon="16.152207757481165"><ele>1095.0</ele><time>2026-04-27T10:40:23Z</time></trkpt><trkpt lat="39.25582059588534" lon="16.152249418830614"><ele>1095.0</ele><time>2026-04-27T10:40:24Z</time></trkpt><trkpt lat="39.25575512287361" lon="16.152319529734726"><ele>1095.0</ele><time>2026-04-27T10:40:25Z</time></trkpt><trkpt lat="39.25568477715659" lon="16.152398128418625"><ele>1095.0</ele><time>2026-04-27T10:40:26Z</time></trkpt><trkpt lat="39.25562390202842" lon="16.152457379450038"><ele>1095.0</ele><time>2026-04-27T10:40:27Z</time></trkpt><trkpt lat="39.25556597104016" lon="16.152490504040802"><ele>1095.0</ele><time>2026-04-27T10:40:28Z</time></trkpt><trkpt lat="39.25548867713221" lon="16.152505119111066"><ele>1091.6</ele><time>2026-04-27T10:40:29Z</time></trkpt><trkpt lat="39.25539144981272" lon="16.152498321298026"><ele>1088.2</ele><time>2026-04-27T10:40:30Z</time></trkpt><trkpt lat="39.25530634667799" lon="16.152482044462523"><ele>1084.8</ele><time>2026-04-27T10:40:31Z</time></trkpt><trkpt lat="39.2552250982436" lon="16.15246156798459"><ele>1081.4</ele><time>2026-04-27T10:40:32Z</time></trkpt><trkpt lat="39.25514860271897" lon="16.152440412599518"><ele>1078.0</ele><time>2026-04-27T10:40:33Z</time></trkpt><trkpt lat="39.25502029854002" lon="16.152411119139554"><ele>1078.0</ele><time>2026-04-27T10:40:35Z</time></trkpt><trkpt lat="39.25495190665837" lon="16.1524340222179"><ele>1078.0</ele><time>2026-04-27T10:40:36Z</time></trkpt><trkpt lat="39.25488296544428" lon="16.152513162840425"><ele>1078.0</ele><time>2026-04-27T10:40:37Z</time></trkpt><trkpt lat="39.254850972003595" lon="16.152588043250855"><ele>1078.0</ele><time>2026-04-27T10:40:38Z</time></trkpt><trkpt lat="39.254800608466404" lon="16.152682908589814"><ele>1078.0</ele><time>2026-04-27T10:40:40Z</time></trkpt><trkpt lat="39.25470229252275" lon="16.152633335326442"><ele>1078.0</ele><time>2026-04-27T10:40:41Z</time></trkpt><trkpt lat="39.25459929415714" lon="16.152634393528633"><ele>1078.6666666666665</ele><time>2026-04-27T10:40:42Z</time></trkpt><trkpt lat="39.25451739504629" lon="16.152635234958172"><ele>1079.3333333333333</ele><time>2026-04-27T10:40:43Z</time></trkpt><trkpt lat="39.254424785662955" lon="16.15263641482236"><ele>1080.0</ele><time>2026-04-27T10:40:45Z</time></trkpt><trkpt lat="39.25435817556011" lon="16.152637594192782"><ele>1080.6666666666667</ele><time>2026-04-27T10:40:47Z</time></trkpt><trkpt lat="39.25428986546052" lon="16.152638803664207"><ele>1081.3333333333335</ele><time>2026-04-27T10:40:49Z</time></trkpt><trkpt lat="39.254204478012134" lon="16.1526403154974"><ele>1082.0</ele><time>2026-04-27T10:40:52Z</time></trkpt><trkpt lat="39.25412445820199" lon="16.15267259641773"><ele>1082.0</ele><time>2026-04-27T10:41:30.999Z</time></trkpt><trkpt lat="39.25403953275681" lon="16.152671108678568"><ele>1082.0</ele><time>2026-04-27T10:41:31.999Z</time></trkpt><trkpt lat="39.25394088881048" lon="16.152670265047053"><ele>1082.0</ele><time>2026-04-27T10:41:32.999Z</time></trkpt><trkpt lat="39.2538635046634" lon="16.152646352645604"><ele>1082.0</ele><time>2026-04-27T10:41:33.999Z</time></trkpt><trkpt lat="39.25379971608883" lon="16.152647482059617"><ele>1082.0</ele><time>2026-04-27T10:41:34.999Z</time></trkpt><trkpt lat="39.25372644858164" lon="16.152649289566448"><ele>1082.0</ele><time>2026-04-27T10:41:35.999Z</time></trkpt><trkpt lat="39.253635803774074" lon="16.152654479260494"><ele>1083.2</ele><time>2026-04-27T10:41:36.999Z</time></trkpt><trkpt lat="39.253545517651126" lon="16.15266533320505"><ele>1084.4</ele><time>2026-04-27T10:41:37.999Z</time></trkpt><trkpt lat="39.253457012028335" lon="16.15267754839116"><ele>1085.6</ele><time>2026-04-27T10:41:38.999Z</time></trkpt><trkpt lat="39.25336035838355" lon="16.152690200783105"><ele>1086.8</ele><time>2026-04-27T10:41:39.999Z</time></trkpt><trkpt lat="39.2532224983868" lon="16.15270676512836"><ele>1088.0</ele><time>2026-04-27T10:41:40.999Z</time></trkpt><trkpt lat="39.253049423434376" lon="16.152734421382206"><ele>1088.6666666666667</ele><time>2026-04-27T10:41:41.999Z</time></trkpt><trkpt lat="39.25285347709286" lon="16.15273804730391"><ele>1089.3333333333333</ele><time>2026-04-27T10:41:42.999Z</time></trkpt><trkpt lat="39.25264952490636" lon="16.152747112897877"><ele>1090.0</ele><time>2026-04-27T10:41:43.999Z</time></trkpt><trkpt lat="39.252443295204145" lon="16.152776196531487"><ele>1092.6666666666665</ele><time>2026-04-27T10:41:44.999Z</time></trkpt><trkpt lat="39.252236317797646" lon="16.15282489747755"><ele>1095.3333333333333</ele><time>2026-04-27T10:41:45.999Z</time></trkpt><trkpt lat="39.25201377561369" lon="16.152910141519627"><ele>1098.0</ele><time>2026-04-27T10:41:46.999Z</time></trkpt><trkpt lat="39.25178257360837" lon="16.15301172793659"><ele>1098.0</ele><time>2026-04-27T10:41:47.999Z</time></trkpt><trkpt lat="39.251566734514206" lon="16.153082923538115"><ele>1098.0</ele><time>2026-04-27T10:41:48.999Z</time></trkpt><trkpt lat="39.25135675117574" lon="16.153146303971084"><ele>1098.0</ele><time>2026-04-27T10:41:49.999Z</time></trkpt><trkpt lat="39.25115525831045" lon="16.153210415520395"><ele>1091.3333333333333</ele><time>2026-04-27T10:41:50.999Z</time></trkpt><trkpt lat="39.250966886902226" lon="16.153269180965445"><ele>1084.6666666666665</ele><time>2026-04-27T10:41:51.999Z</time></trkpt><trkpt lat="39.25077573358035" lon="16.153321420031954"><ele>1078.0</ele><time>2026-04-27T10:41:52.999Z</time></trkpt><trkpt lat="39.2505875598664" lon="16.15336283938542"><ele>1078.0</ele><time>2026-04-27T10:41:53.999Z</time></trkpt><trkpt lat="39.25040172466944" lon="16.153377368761237"><ele>1078.0</ele><time>2026-04-27T10:41:54.999Z</time></trkpt><trkpt lat="39.25020660903475" lon="16.153430568579846"><ele>1078.0</ele><time>2026-04-27T10:41:55.999Z</time></trkpt><trkpt lat="39.250025033969095" lon="16.153473809979555"><ele>1078.0</ele><time>2026-04-27T10:41:56.999Z</time></trkpt><trkpt lat="39.2498589082486" lon="16.15352305921281"><ele>1078.0</ele><time>2026-04-27T10:41:57.999Z</time></trkpt><trkpt lat="39.24968734673169" lon="16.153534300183257"><ele>1078.0</ele><time>2026-04-27T10:41:58.999Z</time></trkpt><trkpt lat="39.24951634062476" lon="16.153527701014685"><ele>1075.6666666666665</ele><time>2026-04-27T10:41:59.999Z</time></trkpt><trkpt lat="39.249364926221595" lon="16.153501696178367"><ele>1073.3333333333333</ele><time>2026-04-27T10:42:00.999Z</time></trkpt><trkpt lat="39.24922513285238" lon="16.153452420791726"><ele>1071.0</ele><time>2026-04-27T10:42:01.999Z</time></trkpt><trkpt lat="39.24907428289145" lon="16.153373303212675"><ele>1066.3333333333333</ele><time>2026-04-27T10:42:02.999Z</time></trkpt><trkpt lat="39.248905901603095" lon="16.153270691707228"><ele>1061.6666666666665</ele><time>2026-04-27T10:42:03.999Z</time></trkpt><trkpt lat="39.248749548328334" lon="16.15319340729528"><ele>1057.0</ele><time>2026-04-27T10:42:04.999Z</time></trkpt><trkpt lat="39.24860198554228" lon="16.15316167819491"><ele>1057.0</ele><time>2026-04-27T10:42:05.999Z</time></trkpt><trkpt lat="39.24845972481069" lon="16.153146474447116"><ele>1057.0</ele><time>2026-04-27T10:42:06.999Z</time></trkpt><trkpt lat="39.24832905766561" lon="16.15315624098899"><ele>1057.0</ele><time>2026-04-27T10:42:07.999Z</time></trkpt><trkpt lat="39.24820714099274" lon="16.153210065065064"><ele>1057.0</ele><time>2026-04-27T10:42:08.999Z</time></trkpt><trkpt lat="39.24808649049125" lon="16.15332511510376"><ele>1052.0</ele><time>2026-04-27T10:42:09.999Z</time></trkpt><trkpt lat="39.24796910638278" lon="16.15345489424808"><ele>1047.0</ele><time>2026-04-27T10:42:11Z</time></trkpt><trkpt lat="39.24784920224644" lon="16.153536600318436"><ele>1042.0</ele><time>2026-04-27T10:42:12Z</time></trkpt><trkpt lat="39.24775146825083" lon="16.153641198537105"><ele>1037.0</ele><time>2026-04-27T10:42:13Z</time></trkpt><trkpt lat="39.24767552892406" lon="16.153793972345976"><ele>1037.0</ele><time>2026-04-27T10:42:14Z</time></trkpt><trkpt lat="39.24756743340137" lon="16.15392615632538"><ele>1037.0</ele><time>2026-04-27T10:42:15Z</time></trkpt><trkpt lat="39.247472839790376" lon="16.154045208881914"><ele>1037.0</ele><time>2026-04-27T10:42:16Z</time></trkpt><trkpt lat="39.24737047630663" lon="16.154182719585318"><ele>1037.0</ele><time>2026-04-27T10:42:17Z</time></trkpt><trkpt lat="39.24727127163001" lon="16.154321104180784"><ele>1035.25</ele><time>2026-04-27T10:42:18Z</time></trkpt><trkpt lat="39.24719026872587" lon="16.1544669003953"><ele>1033.5</ele><time>2026-04-27T10:42:19Z</time></trkpt><trkpt lat="39.247100026589465" lon="16.154579252973257"><ele>1031.75</ele><time>2026-04-27T10:42:20Z</time></trkpt><trkpt lat="39.24699118699913" lon="16.15466343044116"><ele>1030.0</ele><time>2026-04-27T10:42:21Z</time></trkpt><trkpt lat="39.24686014772594" lon="16.15471025264185"><ele>1030.0</ele><time>2026-04-27T10:42:22Z</time></trkpt><trkpt lat="39.24673051017823" lon="16.154746411336735"><ele>1030.0</ele><time>2026-04-27T10:42:23Z</time></trkpt><trkpt lat="39.24660903753252" lon="16.154825949021266"><ele>1030.0</ele><time>2026-04-27T10:42:24Z</time></trkpt><trkpt lat="39.24650922635705" lon="16.154935356194592"><ele>1030.0</ele><time>2026-04-27T10:42:25Z</time></trkpt><trkpt lat="39.246423134971764" lon="16.15503914048674"><ele>1032.25</ele><time>2026-04-27T10:42:26Z</time></trkpt><trkpt lat="39.24633245441514" lon="16.155101952623802"><ele>1034.5</ele><time>2026-04-27T10:42:27Z</time></trkpt><trkpt lat="39.24623207007657" lon="16.155122878915787"><ele>1036.75</ele><time>2026-04-27T10:42:28Z</time></trkpt><trkpt lat="39.246104320893814" lon="16.155103191936742"><ele>1039.0</ele><time>2026-04-27T10:42:29Z</time></trkpt><trkpt lat="39.245970168011716" lon="16.155069664599676"><ele>1039.0</ele><time>2026-04-27T10:42:30Z</time></trkpt><trkpt lat="39.245839701331036" lon="16.155054652033005"><ele>1039.0</ele><time>2026-04-27T10:42:31Z</time></trkpt><trkpt lat="39.24570241161944" lon="16.15506146985506"><ele>1039.0</ele><time>2026-04-27T10:42:32Z</time></trkpt><trkpt lat="39.24557190773947" lon="16.15507760331868"><ele>1039.0</ele><time>2026-04-27T10:42:33Z</time></trkpt><trkpt lat="39.24545068601663" lon="16.155079242117683"><ele>1038.25</ele><time>2026-04-27T10:42:34Z</time></trkpt><trkpt lat="39.245338000900425" lon="16.155061995107474"><ele>1037.5</ele><time>2026-04-27T10:42:35Z</time></trkpt><trkpt lat="39.24522828946966" lon="16.15502380145517"><ele>1036.75</ele><time>2026-04-27T10:42:36Z</time></trkpt><trkpt lat="39.2451257504914" lon="16.15495172301696"><ele>1036.0</ele><time>2026-04-27T10:42:37Z</time></trkpt><trkpt lat="39.24503536999327" lon="16.154832918959297"><ele>1037.5</ele><time>2026-04-27T10:42:38Z</time></trkpt><trkpt lat="39.24495876422281" lon="16.154688473529745"><ele>1039.0</ele><time>2026-04-27T10:42:39Z</time></trkpt><trkpt lat="39.244900940885664" lon="16.154531913558248"><ele>1040.5</ele><time>2026-04-27T10:42:40Z</time></trkpt><trkpt lat="39.244833824022464" lon="16.154376681771176"><ele>1042.0</ele><time>2026-04-27T10:42:41Z</time></trkpt><trkpt lat="39.244749596786065" lon="16.154241186819238"><ele>1042.0</ele><time>2026-04-27T10:42:42Z</time></trkpt><trkpt lat="39.244647907555006" lon="16.154127184365915"><ele>1042.0</ele><time>2026-04-27T10:42:43Z</time></trkpt><trkpt lat="39.24452254127976" lon="16.15404336112494"><ele>1042.0</ele><time>2026-04-27T10:42:44Z</time></trkpt><trkpt lat="39.24438918984617" lon="16.153986630035728"><ele>1042.0</ele><time>2026-04-27T10:42:45Z</time></trkpt><trkpt lat="39.24424672214118" lon="16.15396569625604"><ele>1040.0</ele><time>2026-04-27T10:42:46Z</time></trkpt><trkpt lat="39.24408108404668" lon="16.153992269400835"><ele>1038.0</ele><time>2026-04-27T10:42:47Z</time></trkpt><trkpt lat="39.24390999767083" lon="16.15402480103485"><ele>1036.0</ele><time>2026-04-27T10:42:48Z</time></trkpt><trkpt lat="39.24376018509944" lon="16.154046955198815"><ele>1036.0</ele><time>2026-04-27T10:42:49Z</time></trkpt><trkpt lat="39.24364184566665" lon="16.154050755952415"><ele>1036.0</ele><time>2026-04-27T10:42:50Z</time></trkpt><trkpt lat="39.2435273341465" lon="16.1539959438681"><ele>1036.0</ele><time>2026-04-27T10:42:51Z</time></trkpt><trkpt lat="39.24341279061002" lon="16.15387468456203"><ele>1036.0</ele><time>2026-04-27T10:42:52Z</time></trkpt><trkpt lat="39.24328481442804" lon="16.153755572660277"><ele>1036.0</ele><time>2026-04-27T10:42:53Z</time></trkpt><trkpt lat="39.24315089729553" lon="16.153660427837984"><ele>1036.0</ele><time>2026-04-27T10:42:54Z</time></trkpt><trkpt lat="39.243030208801336" lon="16.15355125799548"><ele>1036.0</ele><time>2026-04-27T10:42:55Z</time></trkpt><trkpt lat="39.24292860661836" lon="16.15345650671488"><ele>1036.0</ele><time>2026-04-27T10:42:56Z</time></trkpt><trkpt lat="39.24286329589026" lon="16.15337204092973"><ele>1039.2</ele><time>2026-04-27T10:42:57Z</time></trkpt><trkpt lat="39.24283381786129" lon="16.15325143560544"><ele>1042.3999999999999</ele><time>2026-04-27T10:42:58Z</time></trkpt><trkpt lat="39.24283256556174" lon="16.153108562444306"><ele>1045.6</ele><time>2026-04-27T10:42:59Z</time></trkpt><trkpt lat="39.2428560646685" lon="16.152961049662384"><ele>1048.8</ele><time>2026-04-27T10:43:00Z</time></trkpt><trkpt lat="39.2428914054354" lon="16.152814762766074"><ele>1052.0</ele><time>2026-04-27T10:43:01Z</time></trkpt><trkpt lat="39.24291507917406" lon="16.152673841423372"><ele>1052.0</ele><time>2026-04-27T10:43:02Z</time></trkpt><trkpt lat="39.242901421823454" lon="16.152540293150874"><ele>1052.0</ele><time>2026-04-27T10:43:03Z</time></trkpt><trkpt lat="39.24286278950915" lon="16.15241995294124"><ele>1052.0</ele><time>2026-04-27T10:43:04Z</time></trkpt><trkpt lat="39.242792857077795" lon="16.152325107306275"><ele>1052.0</ele><time>2026-04-27T10:43:05Z</time></trkpt><trkpt lat="39.24266730826908" lon="16.15226848206056"><ele>1052.0</ele><time>2026-04-27T10:43:06Z</time></trkpt><trkpt lat="39.24251962510563" lon="16.152219142351665"><ele>1050.5</ele><time>2026-04-27T10:43:07Z</time></trkpt><trkpt lat="39.24238684806549" lon="16.152152758657373"><ele>1049.0</ele><time>2026-04-27T10:43:08Z</time></trkpt><trkpt lat="39.24228596535379" lon="16.152039499855114"><ele>1047.5</ele><time>2026-04-27T10:43:09Z</time></trkpt><trkpt lat="39.242206136693554" lon="16.15189108658079"><ele>1046.0</ele><time>2026-04-27T10:43:10Z</time></trkpt><trkpt lat="39.24213166888409" lon="16.1517660849083"><ele>1046.0</ele><time>2026-04-27T10:43:11Z</time></trkpt><trkpt lat="39.242055735198264" lon="16.151705674671867"><ele>1046.0</ele><time>2026-04-27T10:43:12Z</time></trkpt><trkpt lat="39.24195610733902" lon="16.151675796729766"><ele>1046.0</ele><time>2026-04-27T10:43:13Z</time></trkpt><trkpt lat="39.241842163576216" lon="16.1517023095993"><ele>1046.0</ele><time>2026-04-27T10:43:14Z</time></trkpt><trkpt lat="39.24171667125023" lon="16.15176812596148"><ele>1046.0</ele><time>2026-04-27T10:43:14.999Z</time></trkpt><trkpt lat="39.24159559656407" lon="16.15184708662604"><ele>1046.0</ele><time>2026-04-27T10:43:15.999Z</time></trkpt><trkpt lat="39.241469252977225" lon="16.151903216048215"><ele>1046.0</ele><time>2026-04-27T10:43:16.999Z</time></trkpt><trkpt lat="39.241357304343516" lon="16.152018997171897"><ele>1046.0</ele><time>2026-04-27T10:43:17.999Z</time></trkpt><trkpt lat="39.241242080358056" lon="16.15212386973581"><ele>1046.0</ele><time>2026-04-27T10:43:18.999Z</time></trkpt><trkpt lat="39.24113200106809" lon="16.152190374009454"><ele>1049.6</ele><time>2026-04-27T10:43:19.999Z</time></trkpt><trkpt lat="39.241034894885246" lon="16.152254224809177"><ele>1053.1999999999998</ele><time>2026-04-27T10:43:20.999Z</time></trkpt><trkpt lat="39.240936020267064" lon="16.152288780296356"><ele>1056.8000000000002</ele><time>2026-04-27T10:43:21.999Z</time></trkpt><trkpt lat="39.24084813498349" lon="16.15229099888805"><ele>1060.4</ele><time>2026-04-27T10:43:22.999Z</time></trkpt><trkpt lat="39.24078017721314" lon="16.152210573569512"><ele>1064.0</ele><time>2026-04-27T10:43:23.999Z</time></trkpt><trkpt lat="39.24075510764571" lon="16.152088949577205"><ele>1064.0</ele><time>2026-04-27T10:43:24.999Z</time></trkpt><trkpt lat="39.24070449394416" lon="16.15199071089563"><ele>1064.0</ele><time>2026-04-27T10:43:25.999Z</time></trkpt><trkpt lat="39.2406577941932" lon="16.15189703849609"><ele>1064.0</ele><time>2026-04-27T10:43:26.999Z</time></trkpt><trkpt lat="39.2406066857508" lon="16.15178396879979"><ele>1064.0</ele><time>2026-04-27T10:43:27.999Z</time></trkpt><trkpt lat="39.24082147448312" lon="16.151417938745226"><ele>1063.4</ele><time>2026-04-27T10:43:28.999Z</time></trkpt><trkpt lat="39.24079432223378" lon="16.151272240166453"><ele>1062.8000000000002</ele><time>2026-04-27T10:43:29.999Z</time></trkpt><trkpt lat="39.24074157145356" lon="16.15114915127102"><ele>1062.1999999999998</ele><time>2026-04-27T10:43:30.999Z</time></trkpt><trkpt lat="39.24066247171887" lon="16.15106200113272"><ele>1061.6</ele><time>2026-04-27T10:43:31.999Z</time></trkpt><trkpt lat="39.24059266988703" lon="16.15097569067571"><ele>1061.0</ele><time>2026-04-27T10:43:32.999Z</time></trkpt><trkpt lat="39.24056457850984" lon="16.15086865730622"><ele>1061.25</ele><time>2026-04-27T10:43:33.999Z</time></trkpt><trkpt lat="39.2405823661892" lon="16.150729449505214"><ele>1061.5</ele><time>2026-04-27T10:43:34.999Z</time></trkpt><trkpt lat="39.24062712663367" lon="16.15057825495514"><ele>1061.75</ele><time>2026-04-27T10:43:35.999Z</time></trkpt><trkpt lat="39.24068013680634" lon="16.150418428582185"><ele>1062.0</ele><time>2026-04-27T10:43:36.999Z</time></trkpt><trkpt lat="39.24071985596104" lon="16.150243463651112"><ele>1062.0</ele><time>2026-04-27T10:43:37.999Z</time></trkpt><trkpt lat="39.24075381869862" lon="16.15006167521545"><ele>1062.0</ele><time>2026-04-27T10:43:38.999Z</time></trkpt><trkpt lat="39.24078584573541" lon="16.149893320523603"><ele>1062.0</ele><time>2026-04-27T10:43:39.999Z</time></trkpt><trkpt lat="39.240807957366016" lon="16.14974262338496"><ele>1062.0</ele><time>2026-04-27T10:43:40.999Z</time></trkpt><trkpt lat="39.24080988609561" lon="16.149589516286635"><ele>1061.75</ele><time>2026-04-27T10:43:41.999Z</time></trkpt><trkpt lat="39.240793156348204" lon="16.149422491329304"><ele>1061.5</ele><time>2026-04-27T10:43:42.999Z</time></trkpt><trkpt lat="39.24075099065431" lon="16.149265275499154"><ele>1061.25</ele><time>2026-04-27T10:43:43.999Z</time></trkpt><trkpt lat="39.24068454167606" lon="16.14911345133251"><ele>1061.0</ele><time>2026-04-27T10:43:44.999Z</time></trkpt><trkpt lat="39.240601399297304" lon="16.148957176375962"><ele>1069.0</ele><time>2026-04-27T10:43:45.999Z</time></trkpt><trkpt lat="39.24049869391001" lon="16.148798380883928"><ele>1077.0</ele><time>2026-04-27T10:43:46.999Z</time></trkpt><trkpt lat="39.24043626897631" lon="16.14862443371874"><ele>1085.0</ele><time>2026-04-27T10:43:47.999Z</time></trkpt><trkpt lat="39.24039608086412" lon="16.148418172210423"><ele>1085.0</ele><time>2026-04-27T10:43:48.999Z</time></trkpt><trkpt lat="39.24033465681736" lon="16.148217913831026"><ele>1085.0</ele><time>2026-04-27T10:43:49.999Z</time></trkpt><trkpt lat="39.240250516901334" lon="16.148062426429878"><ele>1085.0</ele><time>2026-04-27T10:43:50.999Z</time></trkpt><trkpt lat="39.24016339696893" lon="16.14792178075911"><ele>1081.5</ele><time>2026-04-27T10:43:51.999Z</time></trkpt><trkpt lat="39.24008526798226" lon="16.1477941248448"><ele>1078.0</ele><time>2026-04-27T10:43:52.999Z</time></trkpt><trkpt lat="39.24000997328516" lon="16.147696522333263"><ele>1074.5</ele><time>2026-04-27T10:43:53.999Z</time></trkpt><trkpt lat="39.23992283009008" lon="16.147621061470247"><ele>1071.0</ele><time>2026-04-27T10:43:54.999Z</time></trkpt><trkpt lat="39.23980240021072" lon="16.14759011190388"><ele>1073.0</ele><time>2026-04-27T10:43:55.999Z</time></trkpt><trkpt lat="39.23965837252624" lon="16.147588599324116"><ele>1075.0</ele><time>2026-04-27T10:43:56.999Z</time></trkpt><trkpt lat="39.239485967038455" lon="16.14760210435703"><ele>1077.0</ele><time>2026-04-27T10:43:57.999Z</time></trkpt><trkpt lat="39.239307911920044" lon="16.14759438211061"><ele>1077.0</ele><time>2026-04-27T10:43:58.999Z</time></trkpt><trkpt lat="39.23912353918873" lon="16.14755295036921"><ele>1077.0</ele><time>2026-04-27T10:43:59.999Z</time></trkpt><trkpt lat="39.23897031272181" lon="16.14751961435294"><ele>1077.0</ele><time>2026-04-27T10:44:00.999Z</time></trkpt><trkpt lat="39.23884363873463" lon="16.147505603288707"><ele>1075.0</ele><time>2026-04-27T10:44:01.999Z</time></trkpt><trkpt lat="39.23872685890012" lon="16.14752576123002"><ele>1073.0</ele><time>2026-04-27T10:44:02.999Z</time></trkpt><trkpt lat="39.23862925281741" lon="16.147595262710997"><ele>1071.0</ele><time>2026-04-27T10:44:03.999Z</time></trkpt><trkpt lat="39.23854791991593" lon="16.14771320217505"><ele>1069.0</ele><time>2026-04-27T10:44:04.999Z</time></trkpt><trkpt lat="39.238479377096624" lon="16.147884119298006"><ele>1069.0</ele><time>2026-04-27T10:44:05.999Z</time></trkpt><trkpt lat="39.23841656120653" lon="16.148045450697175"><ele>1069.0</ele><time>2026-04-27T10:44:06.999Z</time></trkpt><trkpt lat="39.23834991290063" lon="16.14817180637488"><ele>1069.0</ele><time>2026-04-27T10:44:07.999Z</time></trkpt><trkpt lat="39.23828649425488" lon="16.148282651468094"><ele>1069.0</ele><time>2026-04-27T10:44:08.999Z</time></trkpt><trkpt lat="39.238207119325764" lon="16.14838202197756"><ele>1068.3333333333333</ele><time>2026-04-27T10:44:09.999Z</time></trkpt><trkpt lat="39.23812794205737" lon="16.148441281231012"><ele>1067.6666666666665</ele><time>2026-04-27T10:44:10.999Z</time></trkpt><trkpt lat="39.238037820969254" lon="16.14846409264486"><ele>1067.0</ele><time>2026-04-27T10:44:11.999Z</time></trkpt><trkpt lat="39.23794315267666" lon="16.148431848046656"><ele>1066.3333333333333</ele><time>2026-04-27T10:44:12.999Z</time></trkpt><trkpt lat="39.23787713364838" lon="16.148361793711594"><ele>1065.6666666666667</ele><time>2026-04-27T10:44:13.999Z</time></trkpt><trkpt lat="39.23783715647459" lon="16.14827303229645"><ele>1065.0</ele><time>2026-04-27T10:44:14.999Z</time></trkpt><trkpt lat="39.23780800007292" lon="16.148164579439054"><ele>1065.0</ele><time>2026-04-27T10:44:15.999Z</time></trkpt><trkpt lat="39.23776038639285" lon="16.148045273848442"><ele>1065.0</ele><time>2026-04-27T10:44:17Z</time></trkpt><trkpt lat="39.23767854938821" lon="16.147947814533882"><ele>1065.0</ele><time>2026-04-27T10:44:18Z</time></trkpt><trkpt lat="39.23757021196049" lon="16.147878860888863"><ele>1065.0</ele><time>2026-04-27T10:44:19Z</time></trkpt><trkpt lat="39.23743485718195" lon="16.147831140475127"><ele>1068.0</ele><time>2026-04-27T10:44:20Z</time></trkpt><trkpt lat="39.23728702638316" lon="16.147810872183157"><ele>1071.0</ele><time>2026-04-27T10:44:21Z</time></trkpt><trkpt lat="39.23712337050498" lon="16.147808673685397"><ele>1074.0</ele><time>2026-04-27T10:44:22Z</time></trkpt><trkpt lat="39.236966234658894" lon="16.14778498926585"><ele>1074.0</ele><time>2026-04-27T10:44:23Z</time></trkpt><trkpt lat="39.23681845110119" lon="16.14773349242721"><ele>1074.0</ele><time>2026-04-27T10:44:24Z</time></trkpt><trkpt lat="39.23668505301183" lon="16.147647356151914"><ele>1074.0</ele><time>2026-04-27T10:44:25Z</time></trkpt><trkpt lat="39.23656998558371" lon="16.147565529773473"><ele>1074.0</ele><time>2026-04-27T10:44:26Z</time></trkpt><trkpt lat="39.236450238610665" lon="16.147518059289972"><ele>1076.75</ele><time>2026-04-27T10:44:27Z</time></trkpt><trkpt lat="39.2363256167521" lon="16.147522630941022"><ele>1079.5</ele><time>2026-04-27T10:44:28Z</time></trkpt><trkpt lat="39.23620213788705" lon="16.14755961330335"><ele>1082.25</ele><time>2026-04-27T10:44:29Z</time></trkpt><trkpt lat="39.236055580347795" lon="16.147583600875354"><ele>1085.0</ele><time>2026-04-27T10:44:30Z</time></trkpt><trkpt lat="39.23590975771244" lon="16.147575287165363"><ele>1085.0</ele><time>2026-04-27T10:44:31Z</time></trkpt><trkpt lat="39.23576409030871" lon="16.14753620107623"><ele>1085.0</ele><time>2026-04-27T10:44:32Z</time></trkpt><trkpt lat="39.23561228238464" lon="16.147489501808124"><ele>1085.0</ele><time>2026-04-27T10:44:33Z</time></trkpt><trkpt lat="39.23547087567868" lon="16.147460183519335"><ele>1085.0</ele><time>2026-04-27T10:44:34Z</time></trkpt><trkpt lat="39.235354037005244" lon="16.147450587454703"><ele>1083.2</ele><time>2026-04-27T10:44:35Z</time></trkpt><trkpt lat="39.235255408390636" lon="16.14743888817441"><ele>1081.4</ele><time>2026-04-27T10:44:36Z</time></trkpt><trkpt lat="39.235174101716176" lon="16.14747179328732"><ele>1079.6</ele><time>2026-04-27T10:44:37Z</time></trkpt><trkpt lat="39.23511103624889" lon="16.147565122386936"><ele>1077.8</ele><time>2026-04-27T10:44:38Z</time></trkpt><trkpt lat="39.235089778050366" lon="16.147711590930363"><ele>1076.0</ele><time>2026-04-27T10:44:39Z</time></trkpt><trkpt lat="39.23507831388096" lon="16.14787356798158"><ele>1076.0</ele><time>2026-04-27T10:44:40Z</time></trkpt><trkpt lat="39.23505963142691" lon="16.148016955049204"><ele>1076.0</ele><time>2026-04-27T10:44:41Z</time></trkpt><trkpt lat="39.235012557419964" lon="16.14813516163303"><ele>1076.0</ele><time>2026-04-27T10:44:42Z</time></trkpt><trkpt lat="39.23493997011532" lon="16.14824813916532"><ele>1076.0</ele><time>2026-04-27T10:44:43Z</time></trkpt><trkpt lat="39.234841368538206" lon="16.148332474380744"><ele>1076.0</ele><time>2026-04-27T10:44:44Z</time></trkpt><trkpt lat="39.234719804244286" lon="16.148393707253028"><ele>1081.0</ele><time>2026-04-27T10:44:45Z</time></trkpt><trkpt lat="39.23458719591577" lon="16.1484344840702"><ele>1086.0</ele><time>2026-04-27T10:44:46Z</time></trkpt><trkpt lat="39.234442923086185" lon="16.14846058057596"><ele>1091.0</ele><time>2026-04-27T10:44:47Z</time></trkpt><trkpt lat="39.234293201157236" lon="16.148480879811768"><ele>1096.0</ele><time>2026-04-27T10:44:48Z</time></trkpt><trkpt lat="39.234152962116035" lon="16.14848925566865"><ele>1096.0</ele><time>2026-04-27T10:44:49Z</time></trkpt><trkpt lat="39.2340372823106" lon="16.148465422465865"><ele>1096.0</ele><time>2026-04-27T10:44:50Z</time></trkpt><trkpt lat="39.23392712344917" lon="16.14842212986797"><ele>1096.0</ele><time>2026-04-27T10:44:51Z</time></trkpt><trkpt lat="39.23381206801752" lon="16.148339162234787"><ele>1096.0</ele><time>2026-04-27T10:44:52Z</time></trkpt><trkpt lat="39.23369481114123" lon="16.14823385992938"><ele>1093.0</ele><time>2026-04-27T10:44:53Z</time></trkpt><trkpt lat="39.23357255085899" lon="16.14815086856945"><ele>1090.0</ele><time>2026-04-27T10:44:54Z</time></trkpt><trkpt lat="39.23346518786921" lon="16.148118847405655"><ele>1087.0</ele><time>2026-04-27T10:44:55Z</time></trkpt><trkpt lat="39.2333997843079" lon="16.148112042937527"><ele>1084.0</ele><time>2026-04-27T10:44:56Z</time></trkpt><trkpt lat="39.233323193672085" lon="16.148061231563748"><ele>1081.0</ele><time>2026-04-27T10:44:58Z</time></trkpt><trkpt lat="39.23336519508925" lon="16.148151463917472"><ele>1081.0</ele><time>2026-04-27T10:45:03Z</time></trkpt><trkpt lat="39.23345924825626" lon="16.148150539250157"><ele>1081.0</ele><time>2026-04-27T10:45:05Z</time></trkpt><trkpt lat="39.233518667075394" lon="16.14818760389731"><ele>1081.0</ele><time>2026-04-27T10:45:07Z</time></trkpt><trkpt lat="39.23356751812854" lon="16.14825101874508"><ele>1081.0</ele><time>2026-04-27T10:45:08Z</time></trkpt><trkpt lat="39.23362501130575" lon="16.148336945211888"><ele>1081.0</ele><time>2026-04-27T10:45:09Z</time></trkpt><trkpt lat="39.23368952501007" lon="16.148396252726332"><ele>1081.0</ele><time>2026-04-27T10:45:10Z</time></trkpt><trkpt lat="39.23374914913434" lon="16.14845344608494"><ele>1084.0</ele><time>2026-04-27T10:45:11Z</time></trkpt><trkpt lat="39.23383205626453" lon="16.148582333944237"><ele>1087.0</ele><time>2026-04-27T10:45:13Z</time></trkpt><trkpt lat="39.23389203813582" lon="16.148647622821613"><ele>1090.0</ele><time>2026-04-27T10:45:15Z</time></trkpt><trkpt lat="39.233957395003365" lon="16.148672827487143"><ele>1093.0</ele><time>2026-04-27T10:45:17Z</time></trkpt><trkpt lat="39.234033326605164" lon="16.1486941052172"><ele>1096.0</ele><time>2026-04-27T10:45:19Z</time></trkpt><trkpt lat="39.234147152531705" lon="16.148736709644652"><ele>1096.0</ele><time>2026-04-27T10:45:20.999Z</time></trkpt><trkpt lat="39.234218167304924" lon="16.148746889072598"><ele>1096.0</ele><time>2026-04-27T10:45:21.999Z</time></trkpt><trkpt lat="39.23429513406703" lon="16.148756073761287"><ele>1096.0</ele><time>2026-04-27T10:45:22.999Z</time></trkpt><trkpt lat="39.23436994106863" lon="16.14875665155343"><ele>1096.0</ele><time>2026-04-27T10:45:23.999Z</time></trkpt><trkpt lat="39.23446118606288" lon="16.14877425051223"><ele>1096.0</ele><time>2026-04-27T10:45:24.999Z</time></trkpt><trkpt lat="39.23455375964209" lon="16.148790597000996"><ele>1096.0</ele><time>2026-04-27T10:45:25.999Z</time></trkpt><trkpt lat="39.234653102487954" lon="16.14880468120184"><ele>1096.0</ele><time>2026-04-27T10:45:26.999Z</time></trkpt><trkpt lat="39.23478520585701" lon="16.148801013400544"><ele>1096.0</ele><time>2026-04-27T10:45:27.999Z</time></trkpt><trkpt lat="39.234935004926136" lon="16.14877902615124"><ele>1096.0</ele><time>2026-04-27T10:45:28.999Z</time></trkpt><trkpt lat="39.235076084417514" lon="16.14874256387413"><ele>1096.0</ele><time>2026-04-27T10:45:29.999Z</time></trkpt><trkpt lat="39.23522052171724" lon="16.148699851149335"><ele>1097.0</ele><time>2026-04-27T10:45:30.999Z</time></trkpt><trkpt lat="39.23533564702361" lon="16.148653492530876"><ele>1098.0</ele><time>2026-04-27T10:45:31.999Z</time></trkpt><trkpt lat="39.235429584504665" lon="16.148617942559063"><ele>1099.0</ele><time>2026-04-27T10:45:32.999Z</time></trkpt><trkpt lat="39.23552138558696" lon="16.14861112611675"><ele>1100.0</ele><time>2026-04-27T10:45:33.999Z</time></trkpt><trkpt lat="39.2356146124147" lon="16.14863249763376"><ele>1101.0</ele><time>2026-04-27T10:45:34.999Z</time></trkpt><trkpt lat="39.23570343557639" lon="16.148705329515675"><ele>1103.75</ele><time>2026-04-27T10:45:35.999Z</time></trkpt><trkpt lat="39.23577537047387" lon="16.14881405180738"><ele>1106.5</ele><time>2026-04-27T10:45:36.999Z</time></trkpt><trkpt lat="39.235845519587556" lon="16.148958842395533"><ele>1109.25</ele><time>2026-04-27T10:45:37.999Z</time></trkpt><trkpt lat="39.235918699967016" lon="16.149148358464"><ele>1112.0</ele><time>2026-04-27T10:45:38.999Z</time></trkpt><trkpt lat="39.23597809925679" lon="16.149308015604724"><ele>1113.6666666666667</ele><time>2026-04-27T10:45:39.999Z</time></trkpt><trkpt lat="39.23601353093275" lon="16.149425483530234"><ele>1115.3333333333335</ele><time>2026-04-27T10:45:40.999Z</time></trkpt><trkpt lat="39.236043980299456" lon="16.14953128674805"><ele>1117.0</ele><time>2026-04-27T10:45:42.999Z</time></trkpt><trkpt lat="39.236066128746096" lon="16.14963772658883"><ele>1118.6666666666667</ele><time>2026-04-27T10:45:44.999Z</time></trkpt><trkpt lat="39.236086763693415" lon="16.149756510135614"><ele>1120.3333333333333</ele><time>2026-04-27T10:45:46.999Z</time></trkpt><trkpt lat="39.23604142192905" lon="16.149836126466397"><ele>1122.0</ele><time>2026-04-27T10:45:48.999Z</time></trkpt><trkpt lat="39.23594932570964" lon="16.149848465218902"><ele>1122.0</ele><time>2026-04-27T10:45:50.999Z</time></trkpt><trkpt lat="39.23588449073932" lon="16.149847509823267"><ele>1122.0</ele><time>2026-04-27T10:45:51.999Z</time></trkpt><trkpt lat="39.23580056090636" lon="16.149850795794666"><ele>1122.0</ele><time>2026-04-27T10:45:52.999Z</time></trkpt><trkpt lat="39.23569851593443" lon="16.14985418753956"><ele>1122.0</ele><time>2026-04-27T10:45:53.999Z</time></trkpt><trkpt lat="39.235591051365226" lon="16.149854391532823"><ele>1122.0</ele><time>2026-04-27T10:45:54.999Z</time></trkpt><trkpt lat="39.23549867049889" lon="16.1498463096702"><ele>1122.5</ele><time>2026-04-27T10:45:55.999Z</time></trkpt><trkpt lat="39.235396614089794" lon="16.149839075481726"><ele>1123.0</ele><time>2026-04-27T10:45:56.999Z</time></trkpt><trkpt lat="39.235276101075556" lon="16.14984499683081"><ele>1123.5</ele><time>2026-04-27T10:45:57.999Z</time></trkpt><trkpt lat="39.235142658489636" lon="16.149869008768352"><ele>1124.0</ele><time>2026-04-27T10:45:58.999Z</time></trkpt><trkpt lat="39.23500477236709" lon="16.149916332844697"><ele>1126.75</ele><time>2026-04-27T10:45:59.999Z</time></trkpt><trkpt lat="39.23487650155851" lon="16.149960786905424"><ele>1129.5</ele><time>2026-04-27T10:46:00.999Z</time></trkpt><trkpt lat="39.23475269799876" lon="16.149991728096534"><ele>1132.25</ele><time>2026-04-27T10:46:01.999Z</time></trkpt><trkpt lat="39.23462794762324" lon="16.149980052733888"><ele>1135.0</ele><time>2026-04-27T10:46:02.999Z</time></trkpt><trkpt lat="39.23448783201543" lon="16.149913886733298"><ele>1137.0</ele><time>2026-04-27T10:46:03.999Z</time></trkpt><trkpt lat="39.23433725993879" lon="16.14987447269414"><ele>1139.0</ele><time>2026-04-27T10:46:04.999Z</time></trkpt><trkpt lat="39.23419780679993" lon="16.14988104395508"><ele>1141.0</ele><time>2026-04-27T10:46:05.999Z</time></trkpt><trkpt lat="39.23404981111124" lon="16.149915124824762"><ele>1143.0</ele><time>2026-04-27T10:46:06.999Z</time></trkpt><trkpt lat="39.23390188832673" lon="16.149947726740912"><ele>1147.0</ele><time>2026-04-27T10:46:07.999Z</time></trkpt><trkpt lat="39.23375974159077" lon="16.149982468387662"><ele>1151.0</ele><time>2026-04-27T10:46:08.999Z</time></trkpt><trkpt lat="39.23364488440009" lon="16.150017074203156"><ele>1155.0</ele><time>2026-04-27T10:46:09.999Z</time></trkpt><trkpt lat="39.233542008078174" lon="16.15003208024014"><ele>1159.0</ele><time>2026-04-27T10:46:10.999Z</time></trkpt><trkpt lat="39.23344413662448" lon="16.149993506676026"><ele>1159.0</ele><time>2026-04-27T10:46:11.999Z</time></trkpt><trkpt lat="39.233336650652724" lon="16.149913514817428"><ele>1159.0</ele><time>2026-04-27T10:46:12.999Z</time></trkpt><trkpt lat="39.23321123970483" lon="16.14982498584166"><ele>1159.0</ele><time>2026-04-27T10:46:13.999Z</time></trkpt><trkpt lat="39.23308420669751" lon="16.149748212586363"><ele>1159.0</ele><time>2026-04-27T10:46:14.999Z</time></trkpt><trkpt lat="39.23297606894395" lon="16.149688463051863"><ele>1158.25</ele><time>2026-04-27T10:46:15.999Z</time></trkpt><trkpt lat="39.2328747995357" lon="16.149634229923223"><ele>1157.5</ele><time>2026-04-27T10:46:16.999Z</time></trkpt><trkpt lat="39.23274904596954" lon="16.14959213715285"><ele>1156.75</ele><time>2026-04-27T10:46:17.999Z</time></trkpt><trkpt lat="39.23261313253957" lon="16.149571534254868"><ele>1156.0</ele><time>2026-04-27T10:46:18.999Z</time></trkpt><trkpt lat="39.23249031573461" lon="16.149563500665238"><ele>1156.0</ele><time>2026-04-27T10:46:19.999Z</time></trkpt><trkpt lat="39.232372020382044" lon="16.149544110827144"><ele>1156.0</ele><time>2026-04-27T10:46:20.999Z</time></trkpt><trkpt lat="39.23225226451067" lon="16.149525700072825"><ele>1156.0</ele><time>2026-04-27T10:46:22Z</time></trkpt><trkpt lat="39.23212760316373" lon="16.149536447951828"><ele>1156.0</ele><time>2026-04-27T10:46:23Z</time></trkpt><trkpt lat="39.23200732580998" lon="16.149546582272997"><ele>1156.3999999999999</ele><time>2026-04-27T10:46:24Z</time></trkpt><trkpt lat="39.23190675963639" lon="16.149532916240787"><ele>1156.8</ele><time>2026-04-27T10:46:25Z</time></trkpt><trkpt lat="39.231812731244865" lon="16.149515393206823"><ele>1157.1999999999998</ele><time>2026-04-27T10:46:26Z</time></trkpt><trkpt lat="39.23173148612547" lon="16.149527336584082"><ele>1157.6</ele><time>2026-04-27T10:46:27Z</time></trkpt><trkpt lat="39.2316501780666" lon="16.149572470081853"><ele>1158.0</ele><time>2026-04-27T10:46:28Z</time></trkpt><trkpt lat="39.231557983308996" lon="16.149648220279513"><ele>1158.0</ele><time>2026-04-27T10:46:29Z</time></trkpt><trkpt lat="39.231466460921304" lon="16.14973306424858"><ele>1158.0</ele><time>2026-04-27T10:46:30Z</time></trkpt><trkpt lat="39.231376809233026" lon="16.149779977271173"><ele>1158.0</ele><time>2026-04-27T10:46:31Z</time></trkpt><trkpt lat="39.231281970458106" lon="16.14979098386255"><ele>1158.0</ele><time>2026-04-27T10:46:32Z</time></trkpt><trkpt lat="39.231182572278335" lon="16.149767581991004"><ele>1158.0</ele><time>2026-04-27T10:46:33Z</time></trkpt><trkpt lat="39.23107590777949" lon="16.149729514795933"><ele>1158.0</ele><time>2026-04-27T10:46:34Z</time></trkpt><trkpt lat="39.23097500142386" lon="16.149692567552428"><ele>1158.0</ele><time>2026-04-27T10:46:35Z</time></trkpt><trkpt lat="39.23087846585482" lon="16.1496949320523"><ele>1158.0</ele><time>2026-04-27T10:46:36Z</time></trkpt><trkpt lat="39.230781857288044" lon="16.149718115153853"><ele>1158.0</ele><time>2026-04-27T10:46:37Z</time></trkpt><trkpt lat="39.23066509815325" lon="16.1497447031377"><ele>1158.0</ele><time>2026-04-27T10:46:38Z</time></trkpt><trkpt lat="39.23054682447672" lon="16.149729656518588"><ele>1160.25</ele><time>2026-04-27T10:46:39Z</time></trkpt><trkpt lat="39.230425701916886" lon="16.149716892850766"><ele>1162.5</ele><time>2026-04-27T10:46:40Z</time></trkpt><trkpt lat="39.230285193264756" lon="16.149694850686217"><ele>1164.75</ele><time>2026-04-27T10:46:41Z</time></trkpt><trkpt lat="39.23013616307423" lon="16.149648441169184"><ele>1167.0</ele><time>2026-04-27T10:46:42Z</time></trkpt><trkpt lat="39.22998642796401" lon="16.14956979255382"><ele>1167.0</ele><time>2026-04-27T10:46:43Z</time></trkpt><trkpt lat="39.22985445300483" lon="16.149504227874765"><ele>1167.0</ele><time>2026-04-27T10:46:44Z</time></trkpt><trkpt lat="39.229728572058896" lon="16.149455043089446"><ele>1167.0</ele><time>2026-04-27T10:46:45Z</time></trkpt><trkpt lat="39.22960813794314" lon="16.149429126278438"><ele>1167.0</ele><time>2026-04-27T10:46:46Z</time></trkpt><trkpt lat="39.229487598770326" lon="16.149423623249778"><ele>1167.2</ele><time>2026-04-27T10:46:47Z</time></trkpt><trkpt lat="39.22937526050199" lon="16.149432870908516"><ele>1167.4</ele><time>2026-04-27T10:46:48Z</time></trkpt><trkpt lat="39.22928065317148" lon="16.149443553540706"><ele>1167.6</ele><time>2026-04-27T10:46:49Z</time></trkpt><trkpt lat="39.22919273104881" lon="16.149426596646084"><ele>1167.8</ele><time>2026-04-27T10:46:50Z</time></trkpt><trkpt lat="39.22908690418566" lon="16.149383395526485"><ele>1168.0</ele><time>2026-04-27T10:46:51Z</time></trkpt><trkpt lat="39.2289797304336" lon="16.149314206294125"><ele>1170.0</ele><time>2026-04-27T10:46:52Z</time></trkpt><trkpt lat="39.2288783926037" lon="16.14923374419716"><ele>1172.0</ele><time>2026-04-27T10:46:53Z</time></trkpt><trkpt lat="39.22878328354668" lon="16.149180159451898"><ele>1174.0</ele><time>2026-04-27T10:46:54Z</time></trkpt><trkpt lat="39.22866348700329" lon="16.14915602885888"><ele>1176.0</ele><time>2026-04-27T10:46:55Z</time></trkpt><trkpt lat="39.228535323593235" lon="16.149155270358257"><ele>1176.0</ele><time>2026-04-27T10:46:56Z</time></trkpt><trkpt lat="39.22840811391385" lon="16.14916261377961"><ele>1176.0</ele><time>2026-04-27T10:46:57Z</time></trkpt><trkpt lat="39.228278346267444" lon="16.149188076296475"><ele>1176.0</ele><time>2026-04-27T10:46:58Z</time></trkpt><trkpt lat="39.22815339806907" lon="16.14921475895673"><ele>1176.0</ele><time>2026-04-27T10:46:59Z</time></trkpt><trkpt lat="39.228018629432015" lon="16.149252063335812"><ele>1178.75</ele><time>2026-04-27T10:47:00Z</time></trkpt><trkpt lat="39.22787908166547" lon="16.149287554007493"><ele>1181.5</ele><time>2026-04-27T10:47:01Z</time></trkpt><trkpt lat="39.22776334197747" lon="16.149305511320904"><ele>1184.25</ele><time>2026-04-27T10:47:02Z</time></trkpt><trkpt lat="39.22764724615637" lon="16.149290880689357"><ele>1187.0</ele><time>2026-04-27T10:47:03Z</time></trkpt><trkpt lat="39.22753804797923" lon="16.149249326158156"><ele>1187.0</ele><time>2026-04-27T10:47:04Z</time></trkpt><trkpt lat="39.227438384361065" lon="16.149154860500115"><ele>1187.0</ele><time>2026-04-27T10:47:05Z</time></trkpt><trkpt lat="39.227347309415244" lon="16.149040446318203"><ele>1187.0</ele><time>2026-04-27T10:47:06Z</time></trkpt><trkpt lat="39.22724643410662" lon="16.14891463126899"><ele>1187.0</ele><time>2026-04-27T10:47:07Z</time></trkpt><trkpt lat="39.22715707960963" lon="16.148821321888942"><ele>1188.0</ele><time>2026-04-27T10:47:08Z</time></trkpt><trkpt lat="39.22706838029933" lon="16.148730754880393"><ele>1189.0</ele><time>2026-04-27T10:47:09Z</time></trkpt><trkpt lat="39.2269669834887" lon="16.148645535105576"><ele>1190.0</ele><time>2026-04-27T10:47:10Z</time></trkpt><trkpt lat="39.226876733790334" lon="16.148555678178166"><ele>1191.0</ele><time>2026-04-27T10:47:11Z</time></trkpt><trkpt lat="39.22679298929103" lon="16.14847151784481"><ele>1191.0</ele><time>2026-04-27T10:47:12Z</time></trkpt><trkpt lat="39.22670048522437" lon="16.148382912949707"><ele>1191.0</ele><time>2026-04-27T10:47:13Z</time></trkpt><trkpt lat="39.22659509734147" lon="16.14826531251833"><ele>1191.0</ele><time>2026-04-27T10:47:14Z</time></trkpt><trkpt lat="39.22647354003999" lon="16.148145044785853"><ele>1191.0</ele><time>2026-04-27T10:47:15Z</time></trkpt><trkpt lat="39.22634062947752" lon="16.148036321598685"><ele>1194.25</ele><time>2026-04-27T10:47:16Z</time></trkpt><trkpt lat="39.226214442742815" lon="16.147935302609895"><ele>1197.5</ele><time>2026-04-27T10:47:17Z</time></trkpt><trkpt lat="39.22608690779953" lon="16.147836561861844"><ele>1200.75</ele><time>2026-04-27T10:47:18Z</time></trkpt><trkpt lat="39.22602402218592" lon="16.1477482439868"><ele>1204.0</ele><time>2026-04-27T10:47:19Z</time></trkpt><trkpt lat="39.22599072584688" lon="16.147643490568136"><ele>1204.0</ele><time>2026-04-27T10:47:20Z</time></trkpt><trkpt lat="39.2259705559252" lon="16.147517476790323"><ele>1204.0</ele><time>2026-04-27T10:47:21Z</time></trkpt><trkpt lat="39.22596233570666" lon="16.147360075036794"><ele>1204.0</ele><time>2026-04-27T10:47:22Z</time></trkpt><trkpt lat="39.22595239395455" lon="16.147211034486325"><ele>1204.0</ele><time>2026-04-27T10:47:23Z</time></trkpt><trkpt lat="39.22592879517013" lon="16.1471163299893"><ele>1204.0</ele><time>2026-04-27T10:47:24Z</time></trkpt><trkpt lat="39.22588670691853" lon="16.147013482173097"><ele>1204.75</ele><time>2026-04-27T10:47:24.999Z</time></trkpt><trkpt lat="39.22581587817763" lon="16.14687664682797"><ele>1205.5</ele><time>2026-04-27T10:47:25.999Z</time></trkpt><trkpt lat="39.22574191891451" lon="16.146720871998177"><ele>1206.25</ele><time>2026-04-27T10:47:26.999Z</time></trkpt><trkpt lat="39.22565821913806" lon="16.146570768517744"><ele>1207.0</ele><time>2026-04-27T10:47:27.999Z</time></trkpt><trkpt lat="39.22558558324474" lon="16.14643588093302"><ele>1210.25</ele><time>2026-04-27T10:47:28.999Z</time></trkpt><trkpt lat="39.225510374509646" lon="16.14630425614225"><ele>1213.5</ele><time>2026-04-27T10:47:29.999Z</time></trkpt><trkpt lat="39.225447304469476" lon="16.146171406152355"><ele>1216.75</ele><time>2026-04-27T10:47:30.999Z</time></trkpt><trkpt lat="39.22538916354521" lon="16.146040760788907"><ele>1220.0</ele><time>2026-04-27T10:47:31.999Z</time></trkpt><trkpt lat="39.22532707506719" lon="16.145898109566918"><ele>1220.0</ele><time>2026-04-27T10:47:32.999Z</time></trkpt><trkpt lat="39.225258401223385" lon="16.14578142824957"><ele>1220.0</ele><time>2026-04-27T10:47:33.999Z</time></trkpt><trkpt lat="39.225198957647955" lon="16.14566754618841"><ele>1220.0</ele><time>2026-04-27T10:47:34.999Z</time></trkpt><trkpt lat="39.225153885993876" lon="16.145580120783265"><ele>1220.0</ele><time>2026-04-27T10:47:35.999Z</time></trkpt><trkpt lat="39.225124787345926" lon="16.14550363009981"><ele>1220.0</ele><time>2026-04-27T10:47:36.999Z</time></trkpt><trkpt lat="39.22509880079288" lon="16.145424741317864"><ele>1220.0</ele><time>2026-04-27T10:47:37.999Z</time></trkpt><trkpt lat="39.22509165125101" lon="16.14532142958254"><ele>1219.6666666666667</ele><time>2026-04-27T10:47:38.999Z</time></trkpt><trkpt lat="39.225087320429466" lon="16.14521020180106"><ele>1219.3333333333335</ele><time>2026-04-27T10:47:39.999Z</time></trkpt><trkpt lat="39.22505612221583" lon="16.14512880536723"><ele>1219.0</ele><time>2026-04-27T10:47:40.999Z</time></trkpt><trkpt lat="39.22500552929515" lon="16.145061096841108"><ele>1218.6666666666667</ele><time>2026-04-27T10:47:42.999Z</time></trkpt><trkpt lat="39.22492549822006" lon="16.145078075203692"><ele>1218.3333333333333</ele><time>2026-04-27T10:47:44.999Z</time></trkpt><trkpt lat="39.22484465265618" lon="16.145075635110512"><ele>1218.0</ele><time>2026-04-27T10:47:48.999Z</time></trkpt><trkpt lat="39.224782188353984" lon="16.145032154912222"><ele>1218.0</ele><time>2026-04-27T10:47:50.999Z</time></trkpt><trkpt lat="39.22473103005183" lon="16.14494933692007"><ele>1218.0</ele><time>2026-04-27T10:47:52.999Z</time></trkpt><trkpt lat="39.22468807775547" lon="16.144858658204864"><ele>1218.0</ele><time>2026-04-27T10:47:54.999Z</time></trkpt><trkpt lat="39.22466269214876" lon="16.144767587239432"><ele>1218.0</ele><time>2026-04-27T10:47:56.999Z</time></trkpt><trkpt lat="39.22462352319788" lon="16.14464447459317"><ele>1218.0</ele><time>2026-04-27T10:47:58.999Z</time></trkpt><trkpt lat="39.22460546369101" lon="16.144556493655234"><ele>1218.0</ele><time>2026-04-27T10:47:59.999Z</time></trkpt><trkpt lat="39.22458217654989" lon="16.144469981685624"><ele>1217.4</ele><time>2026-04-27T10:48:00.999Z</time></trkpt><trkpt lat="39.2245731516793" lon="16.14433527741647"><ele>1216.8</ele><time>2026-04-27T10:48:02.999Z</time></trkpt><trkpt lat="39.224583128465255" lon="16.144173659572477"><ele>1216.2</ele><time>2026-04-27T10:48:04.999Z</time></trkpt><trkpt lat="39.224572564008994" lon="16.144014297450255"><ele>1215.6</ele><time>2026-04-27T10:48:06.999Z</time></trkpt><trkpt lat="39.22458589719566" lon="16.14392039151328"><ele>1215.0</ele><time>2026-04-27T10:48:07.999Z</time></trkpt><trkpt lat="39.224600491089" lon="16.14383152162147"><ele>1215.0</ele><time>2026-04-27T10:48:08.999Z</time></trkpt><trkpt lat="39.22460873591898" lon="16.14372577322464"><ele>1215.0</ele><time>2026-04-27T10:48:09.999Z</time></trkpt><trkpt lat="39.22461876136447" lon="16.143629681735018"><ele>1215.0</ele><time>2026-04-27T10:48:10.999Z</time></trkpt><trkpt lat="39.22463497531205" lon="16.1435396552581"><ele>1215.0</ele><time>2026-04-27T10:48:11.999Z</time></trkpt><trkpt lat="39.224671599771746" lon="16.143469231975534"><ele>1215.0</ele><time>2026-04-27T10:48:12.999Z</time></trkpt><trkpt lat="39.224705448335456" lon="16.143318576933847"><ele>1215.0</ele><time>2026-04-27T10:48:14.999Z</time></trkpt><trkpt lat="39.22472611127643" lon="16.143198699899443"><ele>1213.3333333333333</ele><time>2026-04-27T10:48:15.999Z</time></trkpt><trkpt lat="39.22472840948608" lon="16.14309768851121"><ele>1211.6666666666667</ele><time>2026-04-27T10:48:16.999Z</time></trkpt><trkpt lat="39.22472520920314" lon="16.1430071923211"><ele>1210.0</ele><time>2026-04-27T10:48:17.999Z</time></trkpt><trkpt lat="39.22471276551978" lon="16.14290255544509"><ele>1208.3333333333335</ele><time>2026-04-27T10:48:18.999Z</time></trkpt><trkpt lat="39.224715026399124" lon="16.142798602486657"><ele>1206.6666666666667</ele><time>2026-04-27T10:48:19.999Z</time></trkpt><trkpt lat="39.224718901132405" lon="16.142667117829482"><ele>1205.0</ele><time>2026-04-27T10:48:20.999Z</time></trkpt><trkpt lat="39.22471022243666" lon="16.14250925093171"><ele>1203.75</ele><time>2026-04-27T10:48:21.999Z</time></trkpt><trkpt lat="39.22469653395447" lon="16.142330648978664"><ele>1202.5</ele><time>2026-04-27T10:48:22.999Z</time></trkpt><trkpt lat="39.224685692889864" lon="16.142141034182703"><ele>1201.25</ele><time>2026-04-27T10:48:23.999Z</time></trkpt><trkpt lat="39.2246683869127" lon="16.14196546145094"><ele>1200.0</ele><time>2026-04-27T10:48:24.999Z</time></trkpt><trkpt lat="39.224670632332746" lon="16.141842683382684"><ele>1199.9999999999998</ele><time>2026-04-27T10:48:25.999Z</time></trkpt><trkpt lat="39.22466600508869" lon="16.141739852281617"><ele>1200.0</ele><time>2026-04-27T10:48:26.999Z</time></trkpt><trkpt lat="39.22466183802152" lon="16.14165779730241"><ele>1200.0</ele><time>2026-04-27T10:48:28Z</time></trkpt><trkpt lat="39.22464321448906" lon="16.14156263881203"><ele>1200.0</ele><time>2026-04-27T10:48:29Z</time></trkpt><trkpt lat="39.22461786795052" lon="16.14147120980417"><ele>1200.0</ele><time>2026-04-27T10:48:30Z</time></trkpt><trkpt lat="39.22457612447909" lon="16.14140448512722"><ele>1199.9999999999998</ele><time>2026-04-27T10:48:31Z</time></trkpt><trkpt lat="39.224516403397345" lon="16.14134638843189"><ele>1200.0</ele><time>2026-04-27T10:48:32Z</time></trkpt><trkpt lat="39.2244497904953" lon="16.141297231198518"><ele>1203.2</ele><time>2026-04-27T10:48:33Z</time></trkpt><trkpt lat="39.224336287394365" lon="16.141222659848765"><ele>1206.4</ele><time>2026-04-27T10:48:35Z</time></trkpt><trkpt lat="39.22424587648025" lon="16.141182665026637"><ele>1209.6</ele><time>2026-04-27T10:48:36Z</time></trkpt><trkpt lat="39.22413840290346" lon="16.141163736353597"><ele>1212.8</ele><time>2026-04-27T10:48:37Z</time></trkpt><trkpt lat="39.22403699509066" lon="16.141147912003902"><ele>1216.0</ele><time>2026-04-27T10:48:38Z</time></trkpt><trkpt lat="39.2239325954294" lon="16.14113570146161"><ele>1216.0</ele><time>2026-04-27T10:48:39Z</time></trkpt><trkpt lat="39.22383734360196" lon="16.141083207127824"><ele>1216.0</ele><time>2026-04-27T10:48:40Z</time></trkpt><trkpt lat="39.22375385115266" lon="16.141051800055592"><ele>1216.0</ele><time>2026-04-27T10:48:41Z</time></trkpt><trkpt lat="39.223665970569925" lon="16.14100572036759"><ele>1216.0</ele><time>2026-04-27T10:48:42Z</time></trkpt><trkpt lat="39.22356524613561" lon="16.140974853915942"><ele>1216.0</ele><time>2026-04-27T10:48:43Z</time></trkpt><trkpt lat="39.22344334952555" lon="16.140947929553025"><ele>1216.0</ele><time>2026-04-27T10:48:44Z</time></trkpt><trkpt lat="39.223311050051336" lon="16.14092472826149"><ele>1216.0</ele><time>2026-04-27T10:48:45Z</time></trkpt><trkpt lat="39.223187792931355" lon="16.14091029844162"><ele>1216.0</ele><time>2026-04-27T10:48:46Z</time></trkpt><trkpt lat="39.22306926495918" lon="16.14089979945331"><ele>1216.0</ele><time>2026-04-27T10:48:47Z</time></trkpt><trkpt lat="39.22294652077762" lon="16.140905990723123"><ele>1215.0</ele><time>2026-04-27T10:48:48Z</time></trkpt><trkpt lat="39.22283455544016" lon="16.140927942753756"><ele>1214.0</ele><time>2026-04-27T10:48:49Z</time></trkpt><trkpt lat="39.2227320313677" lon="16.140963256893144"><ele>1213.0</ele><time>2026-04-27T10:48:50Z</time></trkpt><trkpt lat="39.22264295275467" lon="16.140985255357844"><ele>1212.0</ele><time>2026-04-27T10:48:51Z</time></trkpt><trkpt lat="39.22255383717782" lon="16.141015524556703"><ele>1211.0</ele><time>2026-04-27T10:48:52Z</time></trkpt><trkpt lat="39.22249620665012" lon="16.1410603713322"><ele>1211.0</ele><time>2026-04-27T10:48:53Z</time></trkpt><trkpt lat="39.22241398004922" lon="16.141214954402788"><ele>1211.0</ele><time>2026-04-27T10:48:55Z</time></trkpt><trkpt lat="39.22236570527567" lon="16.14131520771868"><ele>1211.0</ele><time>2026-04-27T10:48:56Z</time></trkpt><trkpt lat="39.22230947713025" lon="16.141377929479706"><ele>1211.0</ele><time>2026-04-27T10:48:57Z</time></trkpt><trkpt lat="39.22225255241834" lon="16.1414477476598"><ele>1211.0</ele><time>2026-04-27T10:48:58Z</time></trkpt><trkpt lat="39.22218706133497" lon="16.14154156593492"><ele>1203.8</ele><time>2026-04-27T10:49:00Z</time></trkpt><trkpt lat="39.22216938420445" lon="16.141694253790305"><ele>1196.6</ele><time>2026-04-27T10:49:02Z</time></trkpt><trkpt lat="39.22216736431496" lon="16.141807795009793"><ele>1189.4</ele><time>2026-04-27T10:49:05Z</time></trkpt><trkpt lat="39.22211790706683" lon="16.141878515799554"><ele>1182.2</ele><time>2026-04-27T10:49:07Z</time></trkpt><trkpt lat="39.22202244433778" lon="16.14188507471485"><ele>1175.0</ele><time>2026-04-27T10:49:09Z</time></trkpt><trkpt lat="39.22193512794593" lon="16.14185991043348"><ele>1175.0</ele><time>2026-04-27T10:49:10Z</time></trkpt><trkpt lat="39.22184934694631" lon="16.141832752593555"><ele>1175.0</ele><time>2026-04-27T10:49:11Z</time></trkpt><trkpt lat="39.22177617017373" lon="16.14180467942997"><ele>1175.0</ele><time>2026-04-27T10:49:12Z</time></trkpt><trkpt lat="39.22170521695811" lon="16.14176755189679"><ele>1175.0</ele><time>2026-04-27T10:49:13Z</time></trkpt><trkpt lat="39.22163840912189" lon="16.141723300919928"><ele>1175.0</ele><time>2026-04-27T10:49:14Z</time></trkpt><trkpt lat="39.22157145081793" lon="16.141667773401764"><ele>1175.0</ele><time>2026-04-27T10:49:15Z</time></trkpt><trkpt lat="39.22151247350182" lon="16.14162412602428"><ele>1171.1666666666667</ele><time>2026-04-27T10:49:16Z</time></trkpt><trkpt lat="39.22140509757728" lon="16.141637807943624"><ele>1167.3333333333335</ele><time>2026-04-27T10:49:18Z</time></trkpt><trkpt lat="39.22133573459102" lon="16.141683875159504"><ele>1163.5</ele><time>2026-04-27T10:49:19Z</time></trkpt><trkpt lat="39.22125946295834" lon="16.14174768988933"><ele>1159.6666666666667</ele><time>2026-04-27T10:49:20Z</time></trkpt><trkpt lat="39.221203017171604" lon="16.141799142994913"><ele>1155.8333333333333</ele><time>2026-04-27T10:49:21Z</time></trkpt><trkpt lat="39.22110924717643" lon="16.14179285341796"><ele>1152.0</ele><time>2026-04-27T10:49:23Z</time></trkpt><trkpt lat="39.22106889219376" lon="16.141682062243717"><ele>1154.4</ele><time>2026-04-27T10:49:25Z</time></trkpt><trkpt lat="39.22113749202922" lon="16.141540027290933"><ele>1156.8000000000002</ele><time>2026-04-27T10:49:27Z</time></trkpt><trkpt lat="39.22121138311807" lon="16.14145785513028"><ele>1159.2</ele><time>2026-04-27T10:49:28Z</time></trkpt><trkpt lat="39.22128520546061" lon="16.141356067808534"><ele>1161.6000000000001</ele><time>2026-04-27T10:49:29Z</time></trkpt><trkpt lat="39.22131625226758" lon="16.14128413146273"><ele>1164.0</ele><time>2026-04-27T10:49:29.999Z</time></trkpt><trkpt lat="39.22129056659679" lon="16.14112174087175"><ele>1164.0</ele><time>2026-04-27T10:49:31.999Z</time></trkpt><trkpt lat="39.22123087941815" lon="16.14107088668893"><ele>1164.0</ele><time>2026-04-27T10:49:32.999Z</time></trkpt><trkpt lat="39.22114828660682" lon="16.14105655825314"><ele>1164.0</ele><time>2026-04-27T10:49:33.999Z</time></trkpt><trkpt lat="39.22105662001564" lon="16.141053485523162"><ele>1164.0</ele><time>2026-04-27T10:49:34.999Z</time></trkpt><trkpt lat="39.22098176253089" lon="16.141050759960777"><ele>1164.0</ele><time>2026-04-27T10:49:35.999Z</time></trkpt><trkpt lat="39.22090889218057" lon="16.141032561259397"><ele>1164.0</ele><time>2026-04-27T10:49:36.999Z</time></trkpt><trkpt lat="39.22081923643594" lon="16.140964575153475"><ele>1164.0</ele><time>2026-04-27T10:49:37.999Z</time></trkpt><trkpt lat="39.22071851388995" lon="16.140875005228235"><ele>1164.0</ele><time>2026-04-27T10:49:38.999Z</time></trkpt><trkpt lat="39.220639628304845" lon="16.14079909958067"><ele>1164.0</ele><time>2026-04-27T10:49:39.999Z</time></trkpt><trkpt lat="39.22054793358117" lon="16.140713739820473"><ele>1164.0</ele><time>2026-04-27T10:49:41.999Z</time></trkpt><trkpt lat="39.22046751840283" lon="16.140734285705367"><ele>1164.0</ele><time>2026-04-27T10:49:43.999Z</time></trkpt><trkpt lat="39.22039589523024" lon="16.14076953410451"><ele>1160.5</ele><time>2026-04-27T10:49:44.999Z</time></trkpt><trkpt lat="39.220336091390756" lon="16.140802616990584"><ele>1157.0</ele><time>2026-04-27T10:49:45.999Z</time></trkpt><trkpt lat="39.22020448993301" lon="16.14087041097893"><ele>1153.5</ele><time>2026-04-27T10:49:47.999Z</time></trkpt><trkpt lat="39.22013418991579" lon="16.140893560428886"><ele>1150.0</ele><time>2026-04-27T10:49:48.999Z</time></trkpt><trkpt lat="39.22006643330689" lon="16.140921920542947"><ele>1146.5</ele><time>2026-04-27T10:49:49.999Z</time></trkpt><trkpt lat="39.22000035383074" lon="16.14094641946825"><ele>1143.0</ele><time>2026-04-27T10:49:50.999Z</time></trkpt><trkpt lat="39.21993388515473" lon="16.14095836063655"><ele>1143.0</ele><time>2026-04-27T10:49:51.999Z</time></trkpt><trkpt lat="39.21985573753486" lon="16.140961964783184"><ele>1143.0</ele><time>2026-04-27T10:49:52.999Z</time></trkpt><trkpt lat="39.219773671013925" lon="16.14095940850386"><ele>1143.0</ele><time>2026-04-27T10:49:53.999Z</time></trkpt><trkpt lat="39.21970751920139" lon="16.140978940814254"><ele>1143.0</ele><time>2026-04-27T10:49:54.999Z</time></trkpt><trkpt lat="39.219643923396205" lon="16.141041574642216"><ele>1143.0</ele><time>2026-04-27T10:49:55.999Z</time></trkpt><trkpt lat="39.219568675865375" lon="16.141115671439017"><ele>1143.0</ele><time>2026-04-27T10:49:56.999Z</time></trkpt><trkpt lat="39.21951359631574" lon="16.141175717935113"><ele>1140.0</ele><time>2026-04-27T10:49:57.999Z</time></trkpt><trkpt lat="39.21938619322384" lon="16.1412198841297"><ele>1137.0</ele><time>2026-04-27T10:49:59.999Z</time></trkpt><trkpt lat="39.21929515590116" lon="16.141202958566854"><ele>1134.0</ele><time>2026-04-27T10:50:00.999Z</time></trkpt><trkpt lat="39.219213194795756" lon="16.141181768290107"><ele>1131.0</ele><time>2026-04-27T10:50:01.999Z</time></trkpt><trkpt lat="39.2191426321016" lon="16.141155515925735"><ele>1128.0</ele><time>2026-04-27T10:50:02.999Z</time></trkpt><trkpt lat="39.21909444543526" lon="16.1410916695406"><ele>1128.0</ele><time>2026-04-27T10:50:03.999Z</time></trkpt><trkpt lat="39.21904726370665" lon="16.141012617762467"><ele>1128.0</ele><time>2026-04-27T10:50:04.999Z</time></trkpt><trkpt lat="39.21900316223429" lon="16.140903013442163"><ele>1128.0</ele><time>2026-04-27T10:50:05.999Z</time></trkpt><trkpt lat="39.21895296455071" lon="16.140788817894176"><ele>1128.0</ele><time>2026-04-27T10:50:06.999Z</time></trkpt><trkpt lat="39.218909115441846" lon="16.140711444981108"><ele>1128.0</ele><time>2026-04-27T10:50:07.999Z</time></trkpt><trkpt lat="39.21882007654695" lon="16.140686055058822"><ele>1128.0</ele><time>2026-04-27T10:50:09.999Z</time></trkpt><trkpt lat="39.21875714483388" lon="16.140716635041482"><ele>1126.6</ele><time>2026-04-27T10:50:10.999Z</time></trkpt><trkpt lat="39.21869859792463" lon="16.14080315025807"><ele>1125.1999999999998</ele><time>2026-04-27T10:50:11.999Z</time></trkpt><trkpt lat="39.21862889463112" lon="16.140913475624714"><ele>1123.8</ele><time>2026-04-27T10:50:12.999Z</time></trkpt><trkpt lat="39.21855455436746" lon="16.141006730506763"><ele>1122.3999999999999</ele><time>2026-04-27T10:50:13.999Z</time></trkpt><trkpt lat="39.21845924101313" lon="16.141074885316964"><ele>1121.0</ele><time>2026-04-27T10:50:14.999Z</time></trkpt><trkpt lat="39.21832447637058" lon="16.14115758832959"><ele>1121.0</ele><time>2026-04-27T10:50:15.999Z</time></trkpt><trkpt lat="39.21821230498208" lon="16.141241765010506"><ele>1121.0</ele><time>2026-04-27T10:50:16.999Z</time></trkpt><trkpt lat="39.21810584397107" lon="16.141305240716513"><ele>1121.0</ele><time>2026-04-27T10:50:17.999Z</time></trkpt><trkpt lat="39.21801232494285" lon="16.14135808982481"><ele>1121.0</ele><time>2026-04-27T10:50:18.999Z</time></trkpt><trkpt lat="39.217945879457936" lon="16.141376852027083"><ele>1121.0</ele><time>2026-04-27T10:50:19.999Z</time></trkpt><trkpt lat="39.21788595499501" lon="16.141348090209355"><ele>1118.25</ele><time>2026-04-27T10:50:20.999Z</time></trkpt><trkpt lat="39.21779661997625" lon="16.1412958012483"><ele>1115.5</ele><time>2026-04-27T10:50:21.999Z</time></trkpt><trkpt lat="39.21768195733668" lon="16.141229175404508"><ele>1112.75</ele><time>2026-04-27T10:50:22.999Z</time></trkpt><trkpt lat="39.217574082248326" lon="16.141167988821113"><ele>1110.0</ele><time>2026-04-27T10:50:23.999Z</time></trkpt><trkpt lat="39.21748828879854" lon="16.14108092053222"><ele>1110.0</ele><time>2026-04-27T10:50:24.999Z</time></trkpt><trkpt lat="39.21740721268127" lon="16.14100456424694"><ele>1110.0</ele><time>2026-04-27T10:50:25.999Z</time></trkpt><trkpt lat="39.21732769871998" lon="16.140929981533706"><ele>1110.0</ele><time>2026-04-27T10:50:26.999Z</time></trkpt><trkpt lat="39.217245746944" lon="16.140862044834247"><ele>1110.0</ele><time>2026-04-27T10:50:27.999Z</time></trkpt><trkpt lat="39.21716680478715" lon="16.14080280166526"><ele>1110.0</ele><time>2026-04-27T10:50:28.999Z</time></trkpt><trkpt lat="39.21707615859077" lon="16.140750682906372"><ele>1108.5</ele><time>2026-04-27T10:50:29.999Z</time></trkpt><trkpt lat="39.216973652939664" lon="16.140684853986397"><ele>1107.0</ele><time>2026-04-27T10:50:30.999Z</time></trkpt><trkpt lat="39.21685586215141" lon="16.140607010021913"><ele>1105.5</ele><time>2026-04-27T10:50:31.999Z</time></trkpt><trkpt lat="39.21672840865528" lon="16.140539001573703"><ele>1104.0</ele><time>2026-04-27T10:50:32.999Z</time></trkpt><trkpt lat="39.21660853606933" lon="16.140461596287228"><ele>1104.0</ele><time>2026-04-27T10:50:34Z</time></trkpt><trkpt lat="39.21649342339362" lon="16.140387712642156"><ele>1104.0</ele><time>2026-04-27T10:50:35Z</time></trkpt><trkpt lat="39.216381608594574" lon="16.140297854914476"><ele>1104.0</ele><time>2026-04-27T10:50:36Z</time></trkpt><trkpt lat="39.21626976531839" lon="16.1402220468481"><ele>1104.0</ele><time>2026-04-27T10:50:37Z</time></trkpt><trkpt lat="39.2161635789506" lon="16.140174522463457"><ele>1100.0</ele><time>2026-04-27T10:50:38Z</time></trkpt><trkpt lat="39.21605643752235" lon="16.140140022264042"><ele>1096.0</ele><time>2026-04-27T10:50:39Z</time></trkpt><trkpt lat="39.2159304504258" lon="16.140102377766823"><ele>1092.0</ele><time>2026-04-27T10:50:40Z</time></trkpt><trkpt lat="39.21581377684402" lon="16.140072847809815"><ele>1088.0</ele><time>2026-04-27T10:50:41Z</time></trkpt><trkpt lat="39.2156974211114" lon="16.140071018651934"><ele>1085.8</ele><time>2026-04-27T10:50:42Z</time></trkpt><trkpt lat="39.21558542123001" lon="16.140085529301242"><ele>1083.6</ele><time>2026-04-27T10:50:43Z</time></trkpt><trkpt lat="39.21550102147229" lon="16.140089280774554"><ele>1081.4</ele><time>2026-04-27T10:50:44Z</time></trkpt><trkpt lat="39.21542977414703" lon="16.140075355360757"><ele>1079.2</ele><time>2026-04-27T10:50:45Z</time></trkpt><trkpt lat="39.21530668824959" lon="16.14001220392732"><ele>1077.0</ele><time>2026-04-27T10:50:47Z</time></trkpt><trkpt lat="39.21526951653117" lon="16.139917278201867"><ele>1078.3333333333333</ele><time>2026-04-27T10:50:48Z</time></trkpt><trkpt lat="39.2152523861234" lon="16.139816715338146"><ele>1079.6666666666667</ele><time>2026-04-27T10:50:49Z</time></trkpt><trkpt lat="39.215250223721455" lon="16.139717950836328"><ele>1081.0</ele><time>2026-04-27T10:50:50Z</time></trkpt><trkpt lat="39.21526106566349" lon="16.139599595638153"><ele>1082.3333333333335</ele><time>2026-04-27T10:50:51Z</time></trkpt><trkpt lat="39.21526356830431" lon="16.139494052577028"><ele>1083.6666666666667</ele><time>2026-04-27T10:50:52Z</time></trkpt><trkpt lat="39.215260822719436" lon="16.139376328501644"><ele>1085.0</ele><time>2026-04-27T10:50:53Z</time></trkpt><trkpt lat="39.21525254930422" lon="16.13925849160848"><ele>1085.0</ele><time>2026-04-27T10:50:54Z</time></trkpt><trkpt lat="39.21522525205088" lon="16.139181005852226"><ele>1085.0</ele><time>2026-04-27T10:50:55Z</time></trkpt><trkpt lat="39.21511019350483" lon="16.139108978021646"><ele>1085.0</ele><time>2026-04-27T10:50:57Z</time></trkpt><trkpt lat="39.215006570178474" lon="16.139087430763766"><ele>1085.0</ele><time>2026-04-27T10:50:58Z</time></trkpt><trkpt lat="39.21487477742923" lon="16.139072036208464"><ele>1085.0</ele><time>2026-04-27T10:50:59Z</time></trkpt><trkpt lat="39.21477061913692" lon="16.139039911540028"><ele>1085.25</ele><time>2026-04-27T10:51:00Z</time></trkpt><trkpt lat="39.21467936166779" lon="16.138974656980974"><ele>1085.5</ele><time>2026-04-27T10:51:01Z</time></trkpt><trkpt lat="39.21458166042564" lon="16.13889253275305"><ele>1085.75</ele><time>2026-04-27T10:51:02Z</time></trkpt><trkpt lat="39.21446660863651" lon="16.138807319074385"><ele>1086.0</ele><time>2026-04-27T10:51:03Z</time></trkpt><trkpt lat="39.21436855822214" lon="16.13873854220997"><ele>1086.0</ele><time>2026-04-27T10:51:04Z</time></trkpt><trkpt lat="39.214297133731534" lon="16.13867703833957"><ele>1086.0</ele><time>2026-04-27T10:51:05Z</time></trkpt><trkpt lat="39.214247431762026" lon="16.138589296930338"><ele>1086.0</ele><time>2026-04-27T10:51:06Z</time></trkpt><trkpt lat="39.21418899781982" lon="16.138461817216346"><ele>1086.0</ele><time>2026-04-27T10:51:07Z</time></trkpt><trkpt lat="39.214109700218934" lon="16.138352217411153"><ele>1086.0</ele><time>2026-04-27T10:51:08Z</time></trkpt><trkpt lat="39.21400003139689" lon="16.138277368477027"><ele>1086.75</ele><time>2026-04-27T10:51:09Z</time></trkpt><trkpt lat="39.2138813811436" lon="16.138221046258792"><ele>1087.5</ele><time>2026-04-27T10:51:10Z</time></trkpt><trkpt lat="39.21373874583649" lon="16.138179596986852"><ele>1088.25</ele><time>2026-04-27T10:51:11Z</time></trkpt><trkpt lat="39.21360817962261" lon="16.13813621757624"><ele>1089.0</ele><time>2026-04-27T10:51:12Z</time></trkpt><trkpt lat="39.21350305953919" lon="16.138086654787816"><ele>1089.0</ele><time>2026-04-27T10:51:13Z</time></trkpt><trkpt lat="39.21341296902908" lon="16.138023925582676"><ele>1089.0</ele><time>2026-04-27T10:51:14Z</time></trkpt><trkpt lat="39.21330951164012" lon="16.13791706940715"><ele>1089.0</ele><time>2026-04-27T10:51:15Z</time></trkpt><trkpt lat="39.21319483885501" lon="16.137791782481504"><ele>1089.0</ele><time>2026-04-27T10:51:16Z</time></trkpt><trkpt lat="39.21308734169842" lon="16.13767290983015"><ele>1087.6000000000001</ele><time>2026-04-27T10:51:17Z</time></trkpt><trkpt lat="39.21301242004739" lon="16.137577046867555"><ele>1086.2</ele><time>2026-04-27T10:51:18Z</time></trkpt><trkpt lat="39.21298308751691" lon="16.137498678827434"><ele>1084.8000000000002</ele><time>2026-04-27T10:51:19Z</time></trkpt><trkpt lat="39.212968134695274" lon="16.13731398133889"><ele>1083.4</ele><time>2026-04-27T10:51:21Z</time></trkpt><trkpt lat="39.21295142326885" lon="16.137186527507946"><ele>1082.0</ele><time>2026-04-27T10:51:22Z</time></trkpt><trkpt lat="39.21289853086853" lon="16.137077391605438"><ele>1082.0</ele><time>2026-04-27T10:51:23Z</time></trkpt><trkpt lat="39.212809408412255" lon="16.13698695782422"><ele>1082.0</ele><time>2026-04-27T10:51:24Z</time></trkpt><trkpt lat="39.21270803133846" lon="16.136894210746867"><ele>1082.0</ele><time>2026-04-27T10:51:25Z</time></trkpt><trkpt lat="39.21261890380021" lon="16.13674550960852"><ele>1082.0</ele><time>2026-04-27T10:51:26Z</time></trkpt><trkpt lat="39.212525192966964" lon="16.13658526689798"><ele>1082.25</ele><time>2026-04-27T10:51:27Z</time></trkpt><trkpt lat="39.21242703850325" lon="16.13643768827631"><ele>1082.5</ele><time>2026-04-27T10:51:28Z</time></trkpt><trkpt lat="39.212340202353836" lon="16.136308856744485"><ele>1082.75</ele><time>2026-04-27T10:51:29Z</time></trkpt><trkpt lat="39.21227015643862" lon="16.13620377741868"><ele>1083.0</ele><time>2026-04-27T10:51:30Z</time></trkpt><trkpt lat="39.21219432799084" lon="16.13606602699643"><ele>1083.0</ele><time>2026-04-27T10:51:31Z</time></trkpt><trkpt lat="39.21209659089438" lon="16.135962230391666"><ele>1083.0</ele><time>2026-04-27T10:51:32Z</time></trkpt><trkpt lat="39.21199894417556" lon="16.135889219547593"><ele>1083.0</ele><time>2026-04-27T10:51:33Z</time></trkpt><trkpt lat="39.211883926003324" lon="16.135820398591406"><ele>1083.0</ele><time>2026-04-27T10:51:34Z</time></trkpt><trkpt lat="39.21177205593537" lon="16.135749061483804"><ele>1084.4</ele><time>2026-04-27T10:51:35Z</time></trkpt><trkpt lat="39.21167200265876" lon="16.135662943925578"><ele>1085.8</ele><time>2026-04-27T10:51:36Z</time></trkpt><trkpt lat="39.21159365658452" lon="16.13557017905724"><ele>1087.2</ele><time>2026-04-27T10:51:36.999Z</time></trkpt><trkpt lat="39.211488562709306" lon="16.13552015424638"><ele>1088.6</ele><time>2026-04-27T10:51:37.999Z</time></trkpt><trkpt lat="39.21139295133777" lon="16.135488661076078"><ele>1090.0</ele><time>2026-04-27T10:51:38.999Z</time></trkpt><trkpt lat="39.211325641530294" lon="16.135450799961983"><ele>1090.0</ele><time>2026-04-27T10:51:39.999Z</time></trkpt><trkpt lat="39.211280584690385" lon="16.135384201700933"><ele>1090.0</ele><time>2026-04-27T10:51:40.999Z</time></trkpt><trkpt lat="39.211244590566125" lon="16.13531208260765"><ele>1090.0</ele><time>2026-04-27T10:51:41.999Z</time></trkpt><trkpt lat="39.21116995636365" lon="16.135229138041346"><ele>1090.0</ele><time>2026-04-27T10:51:42.999Z</time></trkpt><trkpt lat="39.211079612408405" lon="16.1351650681325"><ele>1090.0</ele><time>2026-04-27T10:51:43.999Z</time></trkpt><trkpt lat="39.21101905242933" lon="16.13510457570444"><ele>1090.0</ele><time>2026-04-27T10:51:44.999Z</time></trkpt><trkpt lat="39.21096165497228" lon="16.134956740311562"><ele>1096.2</ele><time>2026-04-27T10:51:46.999Z</time></trkpt><trkpt lat="39.21095589990764" lon="16.134828567362298"><ele>1102.4</ele><time>2026-04-27T10:51:47.999Z</time></trkpt><trkpt lat="39.210938819085875" lon="16.134711654571298"><ele>1108.6</ele><time>2026-04-27T10:51:48.999Z</time></trkpt><trkpt lat="39.21085796614405" lon="16.13460898910114"><ele>1114.8</ele><time>2026-04-27T10:51:50.999Z</time></trkpt><trkpt lat="39.210787105018866" lon="16.13458191345548"><ele>1121.0</ele><time>2026-04-27T10:51:51.999Z</time></trkpt><trkpt lat="39.21070115788305" lon="16.134537584807134"><ele>1114.0</ele><time>2026-04-27T10:51:52.999Z</time></trkpt><trkpt lat="39.210594613982344" lon="16.1344672523418"><ele>1107.0</ele><time>2026-04-27T10:51:53.999Z</time></trkpt><trkpt lat="39.21048752604961" lon="16.134395658786996"><ele>1100.0</ele><time>2026-04-27T10:51:54.999Z</time></trkpt><trkpt lat="39.210379488112984" lon="16.134332309275315"><ele>1093.0</ele><time>2026-04-27T10:51:55.999Z</time></trkpt><trkpt lat="39.210292888080325" lon="16.134273278175776"><ele>1093.0</ele><time>2026-04-27T10:51:56.999Z</time></trkpt><trkpt lat="39.21019509581561" lon="16.134181415306305"><ele>1093.0</ele><time>2026-04-27T10:51:57.999Z</time></trkpt><trkpt lat="39.2101095564193" lon="16.134069337557218"><ele>1093.0</ele><time>2026-04-27T10:51:58.999Z</time></trkpt><trkpt lat="39.210030578123074" lon="16.133987091262348"><ele>1093.0</ele><time>2026-04-27T10:51:59.999Z</time></trkpt><trkpt lat="39.20994125661242" lon="16.13393580368582"><ele>1093.0</ele><time>2026-04-27T10:52:00.999Z</time></trkpt><trkpt lat="39.20986567399711" lon="16.133882899450107"><ele>1095.4</ele><time>2026-04-27T10:52:01.999Z</time></trkpt><trkpt lat="39.20980375201601" lon="16.133843991249158"><ele>1097.8</ele><time>2026-04-27T10:52:02.999Z</time></trkpt><trkpt lat="39.20975970623316" lon="16.133756053985238"><ele>1100.2</ele><time>2026-04-27T10:52:03.999Z</time></trkpt><trkpt lat="39.20968713775798" lon="16.133628323846345"><ele>1102.6</ele><time>2026-04-27T10:52:04.999Z</time></trkpt><trkpt lat="39.20957034980148" lon="16.13352227855052"><ele>1105.0</ele><time>2026-04-27T10:52:05.999Z</time></trkpt><trkpt lat="39.209451589933494" lon="16.13341445258816"><ele>1105.0</ele><time>2026-04-27T10:52:06.999Z</time></trkpt><trkpt lat="39.20934649049767" lon="16.13331531222773"><ele>1105.0</ele><time>2026-04-27T10:52:07.999Z</time></trkpt><trkpt lat="39.20925672799735" lon="16.13326798538753"><ele>1105.0</ele><time>2026-04-27T10:52:08.999Z</time></trkpt><trkpt lat="39.20918445774362" lon="16.13324971932695"><ele>1105.0</ele><time>2026-04-27T10:52:09.999Z</time></trkpt><trkpt lat="39.20908887107758" lon="16.13326070337511"><ele>1105.0</ele><time>2026-04-27T10:52:10.999Z</time></trkpt><trkpt lat="39.20897075968142" lon="16.133260307772854"><ele>1108.0</ele><time>2026-04-27T10:52:11.999Z</time></trkpt><trkpt lat="39.208837016636494" lon="16.133247320801743"><ele>1111.0</ele><time>2026-04-27T10:52:12.999Z</time></trkpt><trkpt lat="39.20871143237105" lon="16.133224714232664"><ele>1114.0</ele><time>2026-04-27T10:52:13.999Z</time></trkpt><trkpt lat="39.208605020492975" lon="16.133173927497097"><ele>1117.0</ele><time>2026-04-27T10:52:14.999Z</time></trkpt><trkpt lat="39.20849879295057" lon="16.1331138872286"><ele>1117.0</ele><time>2026-04-27T10:52:15.999Z</time></trkpt><trkpt lat="39.208408545245476" lon="16.133038648700715"><ele>1117.0</ele><time>2026-04-27T10:52:16.999Z</time></trkpt><trkpt lat="39.20831526937745" lon="16.13295026463094"><ele>1117.0</ele><time>2026-04-27T10:52:17.999Z</time></trkpt><trkpt lat="39.20822531941149" lon="16.132849841920045"><ele>1117.0</ele><time>2026-04-27T10:52:18.999Z</time></trkpt><trkpt lat="39.208163557001114" lon="16.1327554219725"><ele>1117.0</ele><time>2026-04-27T10:52:19.999Z</time></trkpt><trkpt lat="39.20812641946751" lon="16.1326851123215"><ele>1115.4</ele><time>2026-04-27T10:52:20.999Z</time></trkpt><trkpt lat="39.20807905348797" lon="16.132598793485336"><ele>1113.8000000000002</ele><time>2026-04-27T10:52:21.999Z</time></trkpt><trkpt lat="39.20801636005302" lon="16.132468693396643"><ele>1112.2</ele><time>2026-04-27T10:52:22.999Z</time></trkpt><trkpt lat="39.207969337643256" lon="16.13230211273635"><ele>1110.6000000000001</ele><time>2026-04-27T10:52:23.999Z</time></trkpt><trkpt lat="39.207942717426164" lon="16.132177887106298"><ele>1109.0</ele><time>2026-04-27T10:52:24.999Z</time></trkpt><trkpt lat="39.20790507177311" lon="16.132107098430765"><ele>1109.0</ele><time>2026-04-27T10:52:25.999Z</time></trkpt><trkpt lat="39.20784136958044" lon="16.13207802381445"><ele>1109.0</ele><time>2026-04-27T10:52:26.999Z</time></trkpt><trkpt lat="39.20774223607903" lon="16.132078590985362"><ele>1109.0</ele><time>2026-04-27T10:52:27.999Z</time></trkpt><trkpt lat="39.207637359407705" lon="16.132086838625785"><ele>1109.0</ele><time>2026-04-27T10:52:28.999Z</time></trkpt><trkpt lat="39.20755181556273" lon="16.131991098905527"><ele>1109.0</ele><time>2026-04-27T10:52:30.999Z</time></trkpt><trkpt lat="39.20752964112912" lon="16.131911518623042"><ele>1109.0</ele><time>2026-04-27T10:52:31.999Z</time></trkpt><trkpt lat="39.20751732728172" lon="16.131788883807143"><ele>1109.0</ele><time>2026-04-27T10:52:32.999Z</time></trkpt><trkpt lat="39.20748664192625" lon="16.131633836403793"><ele>1109.0</ele><time>2026-04-27T10:52:33.999Z</time></trkpt><trkpt lat="39.20744137655056" lon="16.131501219822145"><ele>1109.0</ele><time>2026-04-27T10:52:34.999Z</time></trkpt><trkpt lat="39.20737962140682" lon="16.13134910120717"><ele>1109.2</ele><time>2026-04-27T10:52:36.999Z</time></trkpt><trkpt lat="39.20732454882609" lon="16.131284256449344"><ele>1109.4</ele><time>2026-04-27T10:52:37.999Z</time></trkpt><trkpt lat="39.20727164436951" lon="16.13124005394199"><ele>1109.6</ele><time>2026-04-27T10:52:38.999Z</time></trkpt><trkpt lat="39.20714303319956" lon="16.13118337033153"><ele>1109.8</ele><time>2026-04-27T10:52:41Z</time></trkpt><trkpt lat="39.20704808372593" lon="16.131155703640125"><ele>1110.0</ele><time>2026-04-27T10:52:42Z</time></trkpt><trkpt lat="39.20695206517512" lon="16.131139853864568"><ele>1110.0</ele><time>2026-04-27T10:52:43Z</time></trkpt><trkpt lat="39.20684278517721" lon="16.131119990396634"><ele>1110.0</ele><time>2026-04-27T10:52:44Z</time></trkpt><trkpt lat="39.20672760760245" lon="16.13107857526344"><ele>1110.0</ele><time>2026-04-27T10:52:45Z</time></trkpt><trkpt lat="39.20661248179538" lon="16.131022990813953"><ele>1110.0</ele><time>2026-04-27T10:52:46Z</time></trkpt><trkpt lat="39.20650268258312" lon="16.130947838110473"><ele>1109.0</ele><time>2026-04-27T10:52:47Z</time></trkpt><trkpt lat="39.206396481970444" lon="16.13088492453096"><ele>1108.0</ele><time>2026-04-27T10:52:48Z</time></trkpt><trkpt lat="39.20629296691617" lon="16.13086674235755"><ele>1107.0</ele><time>2026-04-27T10:52:49Z</time></trkpt><trkpt lat="39.20617850846511" lon="16.13084709518596"><ele>1106.0</ele><time>2026-04-27T10:52:50Z</time></trkpt><trkpt lat="39.20604151995706" lon="16.130840875880395"><ele>1106.0</ele><time>2026-04-27T10:52:51Z</time></trkpt><trkpt lat="39.20593903760332" lon="16.130851605795353"><ele>1106.0</ele><time>2026-04-27T10:52:52Z</time></trkpt><trkpt lat="39.205841266000334" lon="16.130873829638876"><ele>1106.0</ele><time>2026-04-27T10:52:53Z</time></trkpt><trkpt lat="39.20573934874486" lon="16.130917302081524"><ele>1106.0</ele><time>2026-04-27T10:52:54Z</time></trkpt><trkpt lat="39.20562600965193" lon="16.1309626689047"><ele>1106.0</ele><time>2026-04-27T10:52:55Z</time></trkpt><trkpt lat="39.205523868218975" lon="16.130988045920294"><ele>1106.8</ele><time>2026-04-27T10:52:56Z</time></trkpt><trkpt lat="39.20543391252018" lon="16.130980879440944"><ele>1107.6</ele><time>2026-04-27T10:52:57Z</time></trkpt><trkpt lat="39.205351051237095" lon="16.130958691803755"><ele>1108.4</ele><time>2026-04-27T10:52:58Z</time></trkpt><trkpt lat="39.20525012777088" lon="16.130922268666353"><ele>1109.2</ele><time>2026-04-27T10:52:59Z</time></trkpt><trkpt lat="39.20512826861965" lon="16.1308618927318"><ele>1110.0</ele><time>2026-04-27T10:53:00Z</time></trkpt><trkpt lat="39.20501404409873" lon="16.13078998640584"><ele>1110.0</ele><time>2026-04-27T10:53:01Z</time></trkpt><trkpt lat="39.204910950070136" lon="16.13073187648014"><ele>1110.0</ele><time>2026-04-27T10:53:02Z</time></trkpt><trkpt lat="39.20479690416231" lon="16.130694454866823"><ele>1110.0</ele><time>2026-04-27T10:53:03Z</time></trkpt><trkpt lat="39.20466489249563" lon="16.13067869355379"><ele>1110.0</ele><time>2026-04-27T10:53:04Z</time></trkpt><trkpt lat="39.20455328552632" lon="16.130670300931204"><ele>1108.75</ele><time>2026-04-27T10:53:05Z</time></trkpt><trkpt lat="39.204462038085495" lon="16.130632236659707"><ele>1107.5</ele><time>2026-04-27T10:53:06Z</time></trkpt><trkpt lat="39.20436298657336" lon="16.13054737397575"><ele>1106.25</ele><time>2026-04-27T10:53:07Z</time></trkpt><trkpt lat="39.204239738463826" lon="16.13046249623044"><ele>1105.0</ele><time>2026-04-27T10:53:08Z</time></trkpt><trkpt lat="39.20412238143434" lon="16.13039817515996"><ele>1105.0</ele><time>2026-04-27T10:53:09Z</time></trkpt><trkpt lat="39.20401898631286" lon="16.130346973970674"><ele>1105.0</ele><time>2026-04-27T10:53:10Z</time></trkpt><trkpt lat="39.20391801967111" lon="16.130300866334608"><ele>1105.0</ele><time>2026-04-27T10:53:11Z</time></trkpt><trkpt lat="39.20381873097375" lon="16.130265846957354"><ele>1105.0</ele><time>2026-04-27T10:53:12Z</time></trkpt><trkpt lat="39.20372059929226" lon="16.130249015174957"><ele>1105.0</ele><time>2026-04-27T10:53:13Z</time></trkpt><trkpt lat="39.203632423131715" lon="16.13024113413301"><ele>1106.4</ele><time>2026-04-27T10:53:14Z</time></trkpt><trkpt lat="39.20351635223215" lon="16.130255577316753"><ele>1107.8</ele><time>2026-04-27T10:53:15Z</time></trkpt><trkpt lat="39.203398057536205" lon="16.130274659062785"><ele>1109.2</ele><time>2026-04-27T10:53:16Z</time></trkpt><trkpt lat="39.203291980381046" lon="16.130296523093673"><ele>1110.6</ele><time>2026-04-27T10:53:17Z</time></trkpt><trkpt lat="39.20320325429866" lon="16.1303266915882"><ele>1112.0</ele><time>2026-04-27T10:53:18Z</time></trkpt><trkpt lat="39.203091427118586" lon="16.130352385428147"><ele>1112.25</ele><time>2026-04-27T10:53:19Z</time></trkpt><trkpt lat="39.20295976489355" lon="16.130383038341016"><ele>1112.5</ele><time>2026-04-27T10:53:20Z</time></trkpt><trkpt lat="39.20281206769624" lon="16.1304203662195"><ele>1112.75</ele><time>2026-04-27T10:53:21Z</time></trkpt><trkpt lat="39.202702594387546" lon="16.130416617084983"><ele>1113.0</ele><time>2026-04-27T10:53:22Z</time></trkpt><trkpt lat="39.20257826969976" lon="16.130394914145985"><ele>1113.0</ele><time>2026-04-27T10:53:23Z</time></trkpt><trkpt lat="39.20245695419721" lon="16.13036270867527"><ele>1113.0</ele><time>2026-04-27T10:53:24Z</time></trkpt><trkpt lat="39.20236041121271" lon="16.13032254748231"><ele>1113.0</ele><time>2026-04-27T10:53:25Z</time></trkpt><trkpt lat="39.20228967256214" lon="16.13024666017605"><ele>1113.0</ele><time>2026-04-27T10:53:26Z</time></trkpt><trkpt lat="39.20219798998666" lon="16.130128761816227"><ele>1113.0</ele><time>2026-04-27T10:53:27Z</time></trkpt><trkpt lat="39.20211121647433" lon="16.13005073637178"><ele>1113.75</ele><time>2026-04-27T10:53:28Z</time></trkpt><trkpt lat="39.202014772801924" lon="16.129999624981362"><ele>1114.5</ele><time>2026-04-27T10:53:29Z</time></trkpt><trkpt lat="39.20188613506976" lon="16.12995374288382"><ele>1115.25</ele><time>2026-04-27T10:53:30Z</time></trkpt><trkpt lat="39.201733293107196" lon="16.129905830453286"><ele>1116.0</ele><time>2026-04-27T10:53:31Z</time></trkpt><trkpt lat="39.20161788000861" lon="16.12985471544635"><ele>1111.75</ele><time>2026-04-27T10:53:32Z</time></trkpt><trkpt lat="39.20150618408481" lon="16.129837729112513"><ele>1107.5</ele><time>2026-04-27T10:53:33Z</time></trkpt><trkpt lat="39.201371042859535" lon="16.129842632622502"><ele>1103.25</ele><time>2026-04-27T10:53:34Z</time></trkpt><trkpt lat="39.20123430643478" lon="16.12983968614941"><ele>1099.0</ele><time>2026-04-27T10:53:35Z</time></trkpt><trkpt lat="39.20111851041472" lon="16.12979155620178"><ele>1099.0</ele><time>2026-04-27T10:53:36Z</time></trkpt><trkpt lat="39.20097853006469" lon="16.129723057196625"><ele>1099.0</ele><time>2026-04-27T10:53:37Z</time></trkpt><trkpt lat="39.20086797776076" lon="16.129674063509068"><ele>1099.0</ele><time>2026-04-27T10:53:38Z</time></trkpt><trkpt lat="39.20073629460076" lon="16.12963101294142"><ele>1099.0</ele><time>2026-04-27T10:53:39Z</time></trkpt><trkpt lat="39.200596157262545" lon="16.12956938199047"><ele>1099.0</ele><time>2026-04-27T10:53:40Z</time></trkpt><trkpt lat="39.20047867193376" lon="16.12948114712607"><ele>1099.0</ele><time>2026-04-27T10:53:41Z</time></trkpt><trkpt lat="39.20038577290431" lon="16.12941421007316"><ele>1099.0</ele><time>2026-04-27T10:53:41.999Z</time></trkpt><trkpt lat="39.20029919895145" lon="16.129377928053955"><ele>1099.0</ele><time>2026-04-27T10:53:42.999Z</time></trkpt><trkpt lat="39.20019783918079" lon="16.129363782139347"><ele>1099.0</ele><time>2026-04-27T10:53:43.999Z</time></trkpt><trkpt lat="39.2000885972544" lon="16.129354917188593"><ele>1099.0</ele><time>2026-04-27T10:53:44.999Z</time></trkpt><trkpt lat="39.20000292869491" lon="16.12931279474784"><ele>1099.0</ele><time>2026-04-27T10:53:45.999Z</time></trkpt><trkpt lat="39.199891864043124" lon="16.129235687818355"><ele>1099.0</ele><time>2026-04-27T10:53:46.999Z</time></trkpt><trkpt lat="39.19977087084748" lon="16.129155010372582"><ele>1099.0</ele><time>2026-04-27T10:53:47.999Z</time></trkpt><trkpt lat="39.19964619516025" lon="16.12908184511684"><ele>1093.5</ele><time>2026-04-27T10:53:48.999Z</time></trkpt><trkpt lat="39.199528862248364" lon="16.129008258947106"><ele>1088.0</ele><time>2026-04-27T10:53:49.999Z</time></trkpt><trkpt lat="39.199416244927754" lon="16.128916431665356"><ele>1082.5</ele><time>2026-04-27T10:53:50.999Z</time></trkpt><trkpt lat="39.19930981096713" lon="16.12884002400543"><ele>1077.0</ele><time>2026-04-27T10:53:51.999Z</time></trkpt><trkpt lat="39.199220339004896" lon="16.128767969585095"><ele>1077.0</ele><time>2026-04-27T10:53:52.999Z</time></trkpt><trkpt lat="39.19913149271294" lon="16.12871655999951"><ele>1077.0</ele><time>2026-04-27T10:53:53.999Z</time></trkpt><trkpt lat="39.19904420878572" lon="16.128679633229982"><ele>1077.0</ele><time>2026-04-27T10:53:54.999Z</time></trkpt><trkpt lat="39.19894005735237" lon="16.128670322217133"><ele>1077.0</ele><time>2026-04-27T10:53:55.999Z</time></trkpt><trkpt lat="39.19883893772074" lon="16.128674892292665"><ele>1077.0</ele><time>2026-04-27T10:53:56.999Z</time></trkpt><trkpt lat="39.19872928586718" lon="16.128681035508613"><ele>1074.6</ele><time>2026-04-27T10:53:57.999Z</time></trkpt><trkpt lat="39.19861110739917" lon="16.12867154200698"><ele>1072.2</ele><time>2026-04-27T10:53:58.999Z</time></trkpt><trkpt lat="39.19850899016442" lon="16.128651953905326"><ele>1069.8</ele><time>2026-04-27T10:53:59.999Z</time></trkpt><trkpt lat="39.19840452100346" lon="16.128638893676296"><ele>1067.4</ele><time>2026-04-27T10:54:00.999Z</time></trkpt><trkpt lat="39.19828431833782" lon="16.128636257824024"><ele>1065.0</ele><time>2026-04-27T10:54:01.999Z</time></trkpt><trkpt lat="39.198154892583524" lon="16.128643343033463"><ele>1062.6</ele><time>2026-04-27T10:54:02.999Z</time></trkpt><trkpt lat="39.198055043891685" lon="16.128658305168134"><ele>1060.2</ele><time>2026-04-27T10:54:03.999Z</time></trkpt><trkpt lat="39.197961604137205" lon="16.128662949153096"><ele>1057.8</ele><time>2026-04-27T10:54:04.999Z</time></trkpt><trkpt lat="39.197874744917506" lon="16.12865167514274"><ele>1055.4</ele><time>2026-04-27T10:54:05.999Z</time></trkpt><trkpt lat="39.1977918257551" lon="16.12860592665417"><ele>1053.0</ele><time>2026-04-27T10:54:06.999Z</time></trkpt><trkpt lat="39.197685356451544" lon="16.128523291259285"><ele>1053.0</ele><time>2026-04-27T10:54:07.999Z</time></trkpt><trkpt lat="39.19754478406728" lon="16.128426457484352"><ele>1053.0</ele><time>2026-04-27T10:54:08.999Z</time></trkpt><trkpt lat="39.197410599070544" lon="16.12835852112498"><ele>1053.0</ele><time>2026-04-27T10:54:09.999Z</time></trkpt><trkpt lat="39.19728300138482" lon="16.12832205100806"><ele>1053.0</ele><time>2026-04-27T10:54:10.999Z</time></trkpt><trkpt lat="39.197187860843044" lon="16.128287454472094"><ele>1050.4</ele><time>2026-04-27T10:54:11.999Z</time></trkpt><trkpt lat="39.197111814225316" lon="16.12824258008978"><ele>1047.8</ele><time>2026-04-27T10:54:12.999Z</time></trkpt><trkpt lat="39.19702923375627" lon="16.128165922240537"><ele>1045.2</ele><time>2026-04-27T10:54:13.999Z</time></trkpt><trkpt lat="39.19693632722805" lon="16.128092645001907"><ele>1042.6</ele><time>2026-04-27T10:54:14.999Z</time></trkpt><trkpt lat="39.19684417706785" lon="16.12803913819834"><ele>1040.0</ele><time>2026-04-27T10:54:15.999Z</time></trkpt><trkpt lat="39.19675481077956" lon="16.128015010543365"><ele>1039.5</ele><time>2026-04-27T10:54:16.999Z</time></trkpt><trkpt lat="39.19663813802304" lon="16.127987296474785"><ele>1039.0</ele><time>2026-04-27T10:54:17.999Z</time></trkpt><trkpt lat="39.19650098845217" lon="16.127955806742392"><ele>1038.5</ele><time>2026-04-27T10:54:18.999Z</time></trkpt><trkpt lat="39.19634607491561" lon="16.127920876498553"><ele>1038.0</ele><time>2026-04-27T10:54:19.999Z</time></trkpt><trkpt lat="39.196211312778075" lon="16.127878015830976"><ele>1036.75</ele><time>2026-04-27T10:54:20.999Z</time></trkpt><trkpt lat="39.196081841300796" lon="16.127826040943866"><ele>1035.5</ele><time>2026-04-27T10:54:21.999Z</time></trkpt><trkpt lat="39.195963024770094" lon="16.12777257135887"><ele>1034.25</ele><time>2026-04-27T10:54:22.999Z</time></trkpt><trkpt lat="39.19584667738648" lon="16.127725120277137"><ele>1033.0</ele><time>2026-04-27T10:54:23.999Z</time></trkpt><trkpt lat="39.1957206723259" lon="16.127690954388882"><ele>1032.25</ele><time>2026-04-27T10:54:24.999Z</time></trkpt><trkpt lat="39.1955781365685" lon="16.127672290642487"><ele>1031.5</ele><time>2026-04-27T10:54:25.999Z</time></trkpt><trkpt lat="39.19543512736404" lon="16.127666411438874"><ele>1030.75</ele><time>2026-04-27T10:54:26.999Z</time></trkpt><trkpt lat="39.19529661825872" lon="16.127664262952724"><ele>1030.0</ele><time>2026-04-27T10:54:27.999Z</time></trkpt><trkpt lat="39.195173557530026" lon="16.127668800549635"><ele>1030.0</ele><time>2026-04-27T10:54:28.999Z</time></trkpt><trkpt lat="39.19505916733144" lon="16.127677427527935"><ele>1030.0</ele><time>2026-04-27T10:54:29.999Z</time></trkpt><trkpt lat="39.19493197144352" lon="16.12769775633672"><ele>1030.0</ele><time>2026-04-27T10:54:30.999Z</time></trkpt><trkpt lat="39.19480065948635" lon="16.127692577027915"><ele>1030.0</ele><time>2026-04-27T10:54:31.999Z</time></trkpt><trkpt lat="39.194664982436144" lon="16.12766417072185"><ele>1029.25</ele><time>2026-04-27T10:54:32.999Z</time></trkpt><trkpt lat="39.19452499216278" lon="16.127620821798335"><ele>1028.5</ele><time>2026-04-27T10:54:33.999Z</time></trkpt><trkpt lat="39.19439231969664" lon="16.127570739712475"><ele>1027.75</ele><time>2026-04-27T10:54:34.999Z</time></trkpt><trkpt lat="39.19427679061705" lon="16.1275355589097"><ele>1027.0</ele><time>2026-04-27T10:54:35.999Z</time></trkpt><trkpt lat="39.19416571734752" lon="16.12748174814128"><ele>1027.0</ele><time>2026-04-27T10:54:36.999Z</time></trkpt><trkpt lat="39.194036738911926" lon="16.127416150099968"><ele>1027.0</ele><time>2026-04-27T10:54:37.999Z</time></trkpt><trkpt lat="39.19389236455123" lon="16.12738170758958"><ele>1027.0</ele><time>2026-04-27T10:54:38.999Z</time></trkpt><trkpt lat="39.1937399313869" lon="16.12737844473699"><ele>1027.0</ele><time>2026-04-27T10:54:39.999Z</time></trkpt><trkpt lat="39.19358592225727" lon="16.12737631358554"><ele>1021.6666666666666</ele><time>2026-04-27T10:54:40.999Z</time></trkpt><trkpt lat="39.19341788978094" lon="16.12734641160152"><ele>1016.3333333333333</ele><time>2026-04-27T10:54:41.999Z</time></trkpt><trkpt lat="39.19326941760065" lon="16.127320731085366"><ele>1011.0</ele><time>2026-04-27T10:54:42.999Z</time></trkpt><trkpt lat="39.19313408336409" lon="16.127304623906685"><ele>1009.75</ele><time>2026-04-27T10:54:43.999Z</time></trkpt><trkpt lat="39.193005040877914" lon="16.12729469609004"><ele>1008.5</ele><time>2026-04-27T10:54:44.999Z</time></trkpt><trkpt lat="39.19288541265312" lon="16.127292234622498"><ele>1007.25</ele><time>2026-04-27T10:54:46Z</time></trkpt><trkpt lat="39.192757193558926" lon="16.12729486996915"><ele>1006.0</ele><time>2026-04-27T10:54:47Z</time></trkpt><trkpt lat="39.192662036627" lon="16.127295761524675"><ele>1005.9999999999999</ele><time>2026-04-27T10:54:48Z</time></trkpt><trkpt lat="39.19258715905766" lon="16.127280017919983"><ele>1006.0</ele><time>2026-04-27T10:54:49Z</time></trkpt><trkpt lat="39.19249509255783" lon="16.127257288299514"><ele>1006.0</ele><time>2026-04-27T10:54:50Z</time></trkpt><trkpt lat="39.192400567654765" lon="16.127227433045046"><ele>1006.0</ele><time>2026-04-27T10:54:51Z</time></trkpt><trkpt lat="39.19232759106334" lon="16.127205703445465"><ele>1005.9999999999999</ele><time>2026-04-27T10:54:52Z</time></trkpt><trkpt lat="39.192243031594984" lon="16.127186779054252"><ele>1006.0</ele><time>2026-04-27T10:54:54Z</time></trkpt><trkpt lat="39.19227176846663" lon="16.127320360650373"><ele>1007.4999999999999</ele><time>2026-04-27T10:55:49.999Z</time></trkpt><trkpt lat="39.192305432000566" lon="16.127390814549955"><ele>1009.0</ele><time>2026-04-27T10:55:50.999Z</time></trkpt><trkpt lat="39.19239230239825" lon="16.127483045970926"><ele>1010.5</ele><time>2026-04-27T10:55:52.999Z</time></trkpt><trkpt lat="39.19248527059829" lon="16.127565520075024"><ele>1012.0</ele><time>2026-04-27T10:55:54.999Z</time></trkpt><trkpt lat="39.192557058063215" lon="16.127605833645568"><ele>1013.4999999999999</ele><time>2026-04-27T10:55:55.999Z</time></trkpt><trkpt lat="39.1926243816851" lon="16.127643097182585"><ele>1015.0</ele><time>2026-04-27T10:55:56.999Z</time></trkpt><trkpt lat="39.192682897443746" lon="16.12769487178195"><ele>1015.4999999999999</ele><time>2026-04-27T10:55:57.999Z</time></trkpt><trkpt lat="39.19275254816703" lon="16.127750194246687"><ele>1016.0</ele><time>2026-04-27T10:55:58.999Z</time></trkpt><trkpt lat="39.19282026836326" lon="16.12780842046762"><ele>1016.5</ele><time>2026-04-27T10:55:59.999Z</time></trkpt><trkpt lat="39.192887491074856" lon="16.127861801395166"><ele>1017.0</ele><time>2026-04-27T10:56:00.999Z</time></trkpt><trkpt lat="39.19295319889466" lon="16.12791609370054"><ele>1017.4999999999999</ele><time>2026-04-27T10:56:01.999Z</time></trkpt><trkpt lat="39.19303310592116" lon="16.127956895939853"><ele>1018.0</ele><time>2026-04-27T10:56:02.999Z</time></trkpt><trkpt lat="39.19311725051038" lon="16.127995820002887"><ele>1020.0</ele><time>2026-04-27T10:56:03.999Z</time></trkpt><trkpt lat="39.19321570188583" lon="16.128021854208978"><ele>1022.0</ele><time>2026-04-27T10:56:04.999Z</time></trkpt><trkpt lat="39.19330421583006" lon="16.128052967699706"><ele>1024.0</ele><time>2026-04-27T10:56:05.999Z</time></trkpt><trkpt lat="39.19338089847138" lon="16.12810635597118"><ele>1026.0</ele><time>2026-04-27T10:56:06.999Z</time></trkpt><trkpt lat="39.19345431880692" lon="16.128177791042713"><ele>1028.0</ele><time>2026-04-27T10:56:07.999Z</time></trkpt><trkpt lat="39.193558914774414" lon="16.12827501494954"><ele>1023.5000000000001</ele><time>2026-04-27T10:56:08.999Z</time></trkpt><trkpt lat="39.19365840213364" lon="16.128351152925806"><ele>1019.0</ele><time>2026-04-27T10:56:09.999Z</time></trkpt><trkpt lat="39.193728333111615" lon="16.128403754025662"><ele>1014.5</ele><time>2026-04-27T10:56:10.999Z</time></trkpt><trkpt lat="39.19377967154479" lon="16.12845259435324"><ele>1010.0</ele><time>2026-04-27T10:56:11.999Z</time></trkpt><trkpt lat="39.19382898677744" lon="16.128509538740676"><ele>1005.5000000000001</ele><time>2026-04-27T10:56:12.999Z</time></trkpt><trkpt lat="39.1938857897893" lon="16.12854517212851"><ele>1001.0</ele><time>2026-04-27T10:56:13.999Z</time></trkpt><trkpt lat="39.193962299699756" lon="16.128587037881633"><ele>1003.1666666666667</ele><time>2026-04-27T10:56:14.999Z</time></trkpt><trkpt lat="39.19404670131318" lon="16.12858846460308"><ele>1005.3333333333334</ele><time>2026-04-27T10:56:15.999Z</time></trkpt><trkpt lat="39.194121098072394" lon="16.12857770960089"><ele>1007.5</ele><time>2026-04-27T10:56:16.999Z</time></trkpt><trkpt lat="39.1941987292362" lon="16.128563818603627"><ele>1009.6666666666667</ele><time>2026-04-27T10:56:17.999Z</time></trkpt><trkpt lat="39.194261868554804" lon="16.12856950746349"><ele>1011.8333333333334</ele><time>2026-04-27T10:56:18.999Z</time></trkpt><trkpt lat="39.19432284311662" lon="16.128612242812324"><ele>1014.0</ele><time>2026-04-27T10:56:19.999Z</time></trkpt><trkpt lat="39.194397708552444" lon="16.128687220304446"><ele>1014.0</ele><time>2026-04-27T10:56:20.999Z</time></trkpt><trkpt lat="39.194472554018915" lon="16.12876661793133"><ele>1014.0000000000001</ele><time>2026-04-27T10:56:21.999Z</time></trkpt><trkpt lat="39.19455639054457" lon="16.12883530072362"><ele>1014.0000000000001</ele><time>2026-04-27T10:56:22.999Z</time></trkpt><trkpt lat="39.194645623149924" lon="16.128901253060107"><ele>1014.0</ele><time>2026-04-27T10:56:23.999Z</time></trkpt><trkpt lat="39.194730785170464" lon="16.128978388292577"><ele>1014.0</ele><time>2026-04-27T10:56:24.999Z</time></trkpt><trkpt lat="39.19482250668486" lon="16.12903496629145"><ele>1009.2</ele><time>2026-04-27T10:56:25.999Z</time></trkpt><trkpt lat="39.1949204104946" lon="16.129091508254998"><ele>1004.4000000000001</ele><time>2026-04-27T10:56:26.999Z</time></trkpt><trkpt lat="39.195005446076216" lon="16.12915130035622"><ele>999.6</ele><time>2026-04-27T10:56:27.999Z</time></trkpt><trkpt lat="39.19508635306693" lon="16.12922082088708"><ele>994.8</ele><time>2026-04-27T10:56:28.999Z</time></trkpt><trkpt lat="39.19515641579895" lon="16.129333098212673"><ele>990.0</ele><time>2026-04-27T10:56:29.999Z</time></trkpt><trkpt lat="39.19524549594654" lon="16.129483888132224"><ele>990.0</ele><time>2026-04-27T10:56:30.999Z</time></trkpt><trkpt lat="39.19537074954123" lon="16.129634278549066"><ele>990.0</ele><time>2026-04-27T10:56:31.999Z</time></trkpt><trkpt lat="39.19549263986056" lon="16.12973733240279"><ele>990.0</ele><time>2026-04-27T10:56:32.999Z</time></trkpt><trkpt lat="39.19558776192047" lon="16.129816824185532"><ele>990.0</ele><time>2026-04-27T10:56:33.999Z</time></trkpt><trkpt lat="39.1956565485071" lon="16.129919286396586"><ele>989.0</ele><time>2026-04-27T10:56:34.999Z</time></trkpt><trkpt lat="39.19570381071784" lon="16.130022032662833"><ele>988.0</ele><time>2026-04-27T10:56:35.999Z</time></trkpt><trkpt lat="39.19572297627513" lon="16.13010195121228"><ele>987.0</ele><time>2026-04-27T10:56:36.999Z</time></trkpt><trkpt lat="39.19571283230443" lon="16.130188993688545"><ele>986.0</ele><time>2026-04-27T10:56:37.999Z</time></trkpt><trkpt lat="39.1956856721541" lon="16.13032352838553"><ele>985.0</ele><time>2026-04-27T10:56:38.999Z</time></trkpt><trkpt lat="39.19566072827735" lon="16.130469049536188"><ele>984.0</ele><time>2026-04-27T10:56:39.999Z</time></trkpt><trkpt lat="39.19564157323378" lon="16.13059924019945"><ele>981.8000000000001</ele><time>2026-04-27T10:56:40.999Z</time></trkpt><trkpt lat="39.19562025497724" lon="16.130679405611193"><ele>979.6000000000001</ele><time>2026-04-27T10:56:41.999Z</time></trkpt><trkpt lat="39.195572604730714" lon="16.13075184959662"><ele>977.4</ele><time>2026-04-27T10:56:42.999Z</time></trkpt><trkpt lat="39.195497287770195" lon="16.130816178428002"><ele>975.2</ele><time>2026-04-27T10:56:43.999Z</time></trkpt><trkpt lat="39.195398961901766" lon="16.130876025002273"><ele>973.0</ele><time>2026-04-27T10:56:44.999Z</time></trkpt><trkpt lat="39.195291143483175" lon="16.130924985078682"><ele>970.5999999999999</ele><time>2026-04-27T10:56:45.999Z</time></trkpt><trkpt lat="39.19518478472691" lon="16.13096813634575"><ele>968.1999999999999</ele><time>2026-04-27T10:56:46.999Z</time></trkpt><trkpt lat="39.1950950850602" lon="16.13096822904147"><ele>965.8</ele><time>2026-04-27T10:56:47.999Z</time></trkpt><trkpt lat="39.1949974664465" lon="16.130950956309853"><ele>963.4</ele><time>2026-04-27T10:56:48.999Z</time></trkpt><trkpt lat="39.194897240570796" lon="16.130933246150388"><ele>961.0</ele><time>2026-04-27T10:56:49.999Z</time></trkpt><trkpt lat="39.1947970062626" lon="16.130914636900272"><ele>958.4999999999999</ele><time>2026-04-27T10:56:50.999Z</time></trkpt><trkpt lat="39.19471329661442" lon="16.13090720420504"><ele>956.0</ele><time>2026-04-27T10:56:52Z</time></trkpt><trkpt lat="39.19463280995659" lon="16.130908074841464"><ele>953.5</ele><time>2026-04-27T10:56:53Z</time></trkpt><trkpt lat="39.19454158716573" lon="16.130917235302586"><ele>951.0</ele><time>2026-04-27T10:56:54Z</time></trkpt><trkpt lat="39.19445463252122" lon="16.13091257136945"><ele>948.4999999999999</ele><time>2026-04-27T10:56:55Z</time></trkpt><trkpt lat="39.19437054856435" lon="16.130865435006804"><ele>946.0</ele><time>2026-04-27T10:56:56Z</time></trkpt><trkpt lat="39.19427444876564" lon="16.130820908288655"><ele>946.0</ele><time>2026-04-27T10:56:57Z</time></trkpt><trkpt lat="39.19420509346529" lon="16.13078190388491"><ele>945.9999999999999</ele><time>2026-04-27T10:56:58Z</time></trkpt><trkpt lat="39.194140670751864" lon="16.130809076203807"><ele>945.9999999999999</ele><time>2026-04-27T10:57:00Z</time></trkpt><trkpt lat="39.19415256717918" lon="16.130974453939555"><ele>946.0</ele><time>2026-04-27T10:57:02Z</time></trkpt><trkpt lat="39.19419117468236" lon="16.131069513619703"><ele>946.0</ele><time>2026-04-27T10:57:03Z</time></trkpt><trkpt lat="39.194250721280916" lon="16.13116477156281"><ele>946.0</ele><time>2026-04-27T10:57:04Z</time></trkpt><trkpt lat="39.194308073012" lon="16.131246882200912"><ele>945.9999999999999</ele><time>2026-04-27T10:57:05Z</time></trkpt><trkpt lat="39.19437568824023" lon="16.131315589558678"><ele>945.9999999999999</ele><time>2026-04-27T10:57:06Z</time></trkpt><trkpt lat="39.19446641730675" lon="16.13137794975369"><ele>946.0</ele><time>2026-04-27T10:57:07Z</time></trkpt><trkpt lat="39.1945668823106" lon="16.131408035596063"><ele>946.0</ele><time>2026-04-27T10:57:08Z</time></trkpt><trkpt lat="39.194647592339244" lon="16.131417263293464"><ele>945.9999999999999</ele><time>2026-04-27T10:57:09Z</time></trkpt><trkpt lat="39.19472592124972" lon="16.131408385248022"><ele>946.0</ele><time>2026-04-27T10:57:10Z</time></trkpt><trkpt lat="39.19474367569802" lon="16.131558238491404"><ele>946.0</ele><time>2026-04-27T10:57:13Z</time></trkpt><trkpt lat="39.1947298762061" lon="16.131673016304234"><ele>946.0</ele><time>2026-04-27T10:57:14Z</time></trkpt><trkpt lat="39.19474613506224" lon="16.131783566559772"><ele>945.9999999999999</ele><time>2026-04-27T10:57:15Z</time></trkpt><trkpt lat="39.19478786823754" lon="16.13184804673718"><ele>946.0</ele><time>2026-04-27T10:57:16Z</time></trkpt><trkpt lat="39.19484926935732" lon="16.13189925947963"><ele>945.9999999999999</ele><time>2026-04-27T10:57:17Z</time></trkpt><trkpt lat="39.19493368369108" lon="16.13193556557105"><ele>946.0</ele><time>2026-04-27T10:57:18Z</time></trkpt><trkpt lat="39.19502084857525" lon="16.131926303150696"><ele>946.0</ele><time>2026-04-27T10:57:19Z</time></trkpt><trkpt lat="39.19511159694168" lon="16.131945087350843"><ele>946.0</ele><time>2026-04-27T10:57:20Z</time></trkpt><trkpt lat="39.19516113456352" lon="16.13200214915164"><ele>945.9999999999999</ele><time>2026-04-27T10:57:21Z</time></trkpt><trkpt lat="39.19517584224726" lon="16.13210945770436"><ele>946.0</ele><time>2026-04-27T10:57:22Z</time></trkpt><trkpt lat="39.19516803523451" lon="16.132240593960884"><ele>943.8</ele><time>2026-04-27T10:57:23Z</time></trkpt><trkpt lat="39.19515153072685" lon="16.13239989370843"><ele>941.5999999999999</ele><time>2026-04-27T10:57:24Z</time></trkpt><trkpt lat="39.19515342210793" lon="16.132541505624523"><ele>939.4</ele><time>2026-04-27T10:57:25Z</time></trkpt><trkpt lat="39.195153677839905" lon="16.132643172039668"><ele>937.2</ele><time>2026-04-27T10:57:26Z</time></trkpt><trkpt lat="39.19517808468437" lon="16.132771589329067"><ele>935.0</ele><time>2026-04-27T10:57:28Z</time></trkpt><trkpt lat="39.19513021116442" lon="16.132842788410198"><ele>935.0</ele><time>2026-04-27T10:57:31Z</time></trkpt><trkpt lat="39.195050022773884" lon="16.132837858545045"><ele>935.0</ele><time>2026-04-27T10:57:32Z</time></trkpt><trkpt lat="39.19493211155747" lon="16.13278138131594"><ele>935.0</ele><time>2026-04-27T10:57:33Z</time></trkpt><trkpt lat="39.19480480983866" lon="16.13272614471082"><ele>935.0</ele><time>2026-04-27T10:57:34Z</time></trkpt><trkpt lat="39.194695959702365" lon="16.13273416518165"><ele>935.0</ele><time>2026-04-27T10:57:35Z</time></trkpt><trkpt lat="39.19459740462066" lon="16.13274946350471"><ele>933.8</ele><time>2026-04-27T10:57:36Z</time></trkpt><trkpt lat="39.194527005447746" lon="16.132752497836538"><ele>932.6</ele><time>2026-04-27T10:57:37Z</time></trkpt><trkpt lat="39.19444783782103" lon="16.132657152163695"><ele>931.4000000000001</ele><time>2026-04-27T10:57:39Z</time></trkpt><trkpt lat="39.19435646879819" lon="16.132547219956248"><ele>930.2</ele><time>2026-04-27T10:57:40Z</time></trkpt><trkpt lat="39.194272999919484" lon="16.132446035903723"><ele>929.0</ele><time>2026-04-27T10:57:41Z</time></trkpt><trkpt lat="39.19420829251173" lon="16.13238906033994"><ele>929.0</ele><time>2026-04-27T10:57:42Z</time></trkpt><trkpt lat="39.19413680842803" lon="16.132359171594867"><ele>929.0000000000001</ele><time>2026-04-27T10:57:43Z</time></trkpt><trkpt lat="39.19403712710283" lon="16.132326620537878"><ele>929.0000000000001</ele><time>2026-04-27T10:57:44Z</time></trkpt><trkpt lat="39.19394926554187" lon="16.132293468337245"><ele>929.0</ele><time>2026-04-27T10:57:45Z</time></trkpt><trkpt lat="39.19387007636011" lon="16.132209526046847"><ele>929.0</ele><time>2026-04-27T10:57:46Z</time></trkpt><trkpt lat="39.19378703934343" lon="16.132120916175953"><ele>925.4000000000001</ele><time>2026-04-27T10:57:47Z</time></trkpt><trkpt lat="39.19369124700981" lon="16.132061023572227"><ele>921.8000000000001</ele><time>2026-04-27T10:57:48Z</time></trkpt><trkpt lat="39.193591414741235" lon="16.1320233147197"><ele>918.1999999999999</ele><time>2026-04-27T10:57:49Z</time></trkpt><trkpt lat="39.19348361077245" lon="16.1320079071617"><ele>914.5999999999999</ele><time>2026-04-27T10:57:50Z</time></trkpt><trkpt lat="39.19336211228821" lon="16.132010727348646"><ele>911.0</ele><time>2026-04-27T10:57:51Z</time></trkpt><trkpt lat="39.19324987602242" lon="16.132014523158023"><ele>907.1999999999999</ele><time>2026-04-27T10:57:52Z</time></trkpt><trkpt lat="39.19313991973642" lon="16.132000589940272"><ele>903.3999999999999</ele><time>2026-04-27T10:57:53Z</time></trkpt><trkpt lat="39.19303628386044" lon="16.13199143515537"><ele>899.6</ele><time>2026-04-27T10:57:53.999Z</time></trkpt><trkpt lat="39.192942626119894" lon="16.131971124289358"><ele>895.8</ele><time>2026-04-27T10:57:54.999Z</time></trkpt><trkpt lat="39.19286640640014" lon="16.131933196198442"><ele>892.0</ele><time>2026-04-27T10:57:55.999Z</time></trkpt><trkpt lat="39.19281530597049" lon="16.131850088198163"><ele>892.0</ele><time>2026-04-27T10:57:56.999Z</time></trkpt><trkpt lat="39.192748650282816" lon="16.13173127084792"><ele>892.0</ele><time>2026-04-27T10:57:57.999Z</time></trkpt><trkpt lat="39.19270511906049" lon="16.131663858135624"><ele>892.0</ele><time>2026-04-27T10:57:58.999Z</time></trkpt><trkpt lat="39.192612880181024" lon="16.131698932853244"><ele>892.0</ele><time>2026-04-27T10:58:01.999Z</time></trkpt><trkpt lat="39.19260674782304" lon="16.131822999928453"><ele>892.0</ele><time>2026-04-27T10:58:03.999Z</time></trkpt><trkpt lat="39.19266554102467" lon="16.131899210836977"><ele>892.0</ele><time>2026-04-27T10:58:04.999Z</time></trkpt><trkpt lat="39.19272378092853" lon="16.13207916435803"><ele>892.0</ele><time>2026-04-27T10:58:06.999Z</time></trkpt><trkpt lat="39.19275967933464" lon="16.132209743351183"><ele>892.0</ele><time>2026-04-27T10:58:07.999Z</time></trkpt><trkpt lat="39.19275867270232" lon="16.132296236093733"><ele>892.0</ele><time>2026-04-27T10:58:08.999Z</time></trkpt><trkpt lat="39.19268227309364" lon="16.132371772938193"><ele>892.0</ele><time>2026-04-27T10:58:11.999Z</time></trkpt><trkpt lat="39.192629379940584" lon="16.13231327818636"><ele>892.0</ele><time>2026-04-27T10:58:13.999Z</time></trkpt><trkpt lat="39.19239326609345" lon="16.13229207632761"><ele>892.0</ele><time>2026-04-27T10:58:15.999Z</time></trkpt><trkpt lat="39.19231936104225" lon="16.132305732402475"><ele>892.0</ele><time>2026-04-27T10:58:17.999Z</time></trkpt><trkpt lat="39.1922513599232" lon="16.132360411211234"><ele>892.0</ele><time>2026-04-27T10:59:12Z</time></trkpt><trkpt lat="39.19223043927262" lon="16.13244879073468"><ele>886.4000000000001</ele><time>2026-04-27T10:59:14Z</time></trkpt><trkpt lat="39.1922618751157" lon="16.132573378383977"><ele>880.8000000000001</ele><time>2026-04-27T10:59:16Z</time></trkpt><trkpt lat="39.19230240209646" lon="16.132684895788913"><ele>875.2</ele><time>2026-04-27T10:59:18Z</time></trkpt><trkpt lat="39.192294784482336" lon="16.132808149496125"><ele>869.6</ele><time>2026-04-27T10:59:20Z</time></trkpt><trkpt lat="39.192188670076575" lon="16.132873467473207"><ele>864.0</ele><time>2026-04-27T10:59:22Z</time></trkpt><trkpt lat="39.1921172780538" lon="16.132867215077663"><ele>864.0</ele><time>2026-04-27T10:59:23Z</time></trkpt><trkpt lat="39.19204821462563" lon="16.132835924425475"><ele>864.0</ele><time>2026-04-27T10:59:24Z</time></trkpt><trkpt lat="39.1919772456263" lon="16.132795322917225"><ele>864.0</ele><time>2026-04-27T10:59:25Z</time></trkpt><trkpt lat="39.19186231039885" lon="16.13277406549372"><ele>864.0</ele><time>2026-04-27T10:59:27Z</time></trkpt><trkpt lat="39.191797081314164" lon="16.13281770207426"><ele>864.0</ele><time>2026-04-27T10:59:28Z</time></trkpt><trkpt lat="39.19172477033079" lon="16.13286380978073"><ele>864.0</ele><time>2026-04-27T10:59:29Z</time></trkpt><trkpt lat="39.191669026475246" lon="16.132909401971606"><ele>864.0</ele><time>2026-04-27T10:59:30Z</time></trkpt><trkpt lat="39.1915979912354" lon="16.133013103178854"><ele>864.0000000000001</ele><time>2026-04-27T10:59:32Z</time></trkpt><trkpt lat="39.19158125835885" lon="16.1331517415306"><ele>864.0000000000001</ele><time>2026-04-27T10:59:34Z</time></trkpt><trkpt lat="39.19160223525637" lon="16.133262027120477"><ele>864.0</ele><time>2026-04-27T10:59:35Z</time></trkpt><trkpt lat="39.19162857073109" lon="16.13338685029351"><ele>864.0</ele><time>2026-04-27T10:59:36Z</time></trkpt><trkpt lat="39.19167184332413" lon="16.1335057223373"><ele>863.5</ele><time>2026-04-27T10:59:37Z</time></trkpt><trkpt lat="39.1917404391296" lon="16.13358746827741"><ele>863.0</ele><time>2026-04-27T10:59:38Z</time></trkpt><trkpt lat="39.191797371865604" lon="16.13366340099937"><ele>862.5</ele><time>2026-04-27T10:59:39Z</time></trkpt><trkpt lat="39.191813021738746" lon="16.133766517590733"><ele>862.0</ele><time>2026-04-27T10:59:41Z</time></trkpt><trkpt lat="39.1917536567805" lon="16.133820336837744"><ele>861.5</ele><time>2026-04-27T10:59:43Z</time></trkpt><trkpt lat="39.19167359994465" lon="16.133843996086803"><ele>861.0</ele><time>2026-04-27T10:59:44Z</time></trkpt><trkpt lat="39.1915580600166" lon="16.133805371645018"><ele>857.1999999999999</ele><time>2026-04-27T10:59:45Z</time></trkpt><trkpt lat="39.1914505447752" lon="16.13373014541812"><ele>853.3999999999999</ele><time>2026-04-27T10:59:46Z</time></trkpt><trkpt lat="39.19136338387455" lon="16.133632254769587"><ele>849.6</ele><time>2026-04-27T10:59:47Z</time></trkpt><trkpt lat="39.191285744556986" lon="16.13356261103845"><ele>845.8</ele><time>2026-04-27T10:59:48Z</time></trkpt><trkpt lat="39.19118434706477" lon="16.133535062918952"><ele>842.0</ele><time>2026-04-27T10:59:49Z</time></trkpt><trkpt lat="39.191088196681584" lon="16.133511427394843"><ele>842.0</ele><time>2026-04-27T10:59:50Z</time></trkpt><trkpt lat="39.191007780750596" lon="16.13345681489267"><ele>842.0</ele><time>2026-04-27T10:59:51Z</time></trkpt><trkpt lat="39.1909182680072" lon="16.13337392443165"><ele>842.0</ele><time>2026-04-27T10:59:52Z</time></trkpt><trkpt lat="39.190839214823704" lon="16.133244740185834"><ele>842.0</ele><time>2026-04-27T10:59:53Z</time></trkpt><trkpt lat="39.19074610671211" lon="16.133148593454965"><ele>842.0</ele><time>2026-04-27T10:59:54Z</time></trkpt><trkpt lat="39.190617474802565" lon="16.133108061615324"><ele>839.5</ele><time>2026-04-27T10:59:55Z</time></trkpt><trkpt lat="39.19048992949959" lon="16.133099201931717"><ele>837.0</ele><time>2026-04-27T10:59:56Z</time></trkpt><trkpt lat="39.19037647850601" lon="16.13309659112538"><ele>834.5</ele><time>2026-04-27T10:59:57Z</time></trkpt><trkpt lat="39.190264611044896" lon="16.133089615436724"><ele>832.0</ele><time>2026-04-27T10:59:58Z</time></trkpt><trkpt lat="39.190161108663055" lon="16.133082441195388"><ele>832.0</ele><time>2026-04-27T10:59:59Z</time></trkpt><trkpt lat="39.190062722116394" lon="16.13306586559769"><ele>832.0</ele><time>2026-04-27T10:59:59.999Z</time></trkpt><trkpt lat="39.18996616032084" lon="16.133051894738106"><ele>832.0</ele><time>2026-04-27T11:00:00.999Z</time></trkpt><trkpt lat="39.18987380229312" lon="16.133040753052825"><ele>832.0</ele><time>2026-04-27T11:00:01.999Z</time></trkpt><trkpt lat="39.18978230409872" lon="16.133016546567752"><ele>832.0</ele><time>2026-04-27T11:00:02.999Z</time></trkpt><trkpt lat="39.18968243157157" lon="16.132979985413897"><ele>829.1666666666666</ele><time>2026-04-27T11:00:03.999Z</time></trkpt><trkpt lat="39.18958712999897" lon="16.132936780203234"><ele>826.3333333333333</ele><time>2026-04-27T11:00:04.999Z</time></trkpt><trkpt lat="39.189493331019264" lon="16.132906866923495"><ele>823.5</ele><time>2026-04-27T11:00:05.999Z</time></trkpt><trkpt lat="39.18940431750121" lon="16.132876524336762"><ele>820.6666666666667</ele><time>2026-04-27T11:00:06.999Z</time></trkpt><trkpt lat="39.189329480736646" lon="16.132854563428857"><ele>817.8333333333334</ele><time>2026-04-27T11:00:07.999Z</time></trkpt><trkpt lat="39.18925102140989" lon="16.1328622125913"><ele>815.0</ele><time>2026-04-27T11:00:08.999Z</time></trkpt><trkpt lat="39.189166722300435" lon="16.132908291789985"><ele>815.0</ele><time>2026-04-27T11:00:09.999Z</time></trkpt><trkpt lat="39.18906133535705" lon="16.13298550541403"><ele>815.0</ele><time>2026-04-27T11:00:10.999Z</time></trkpt><trkpt lat="39.18897033230441" lon="16.13304127449459"><ele>815.0</ele><time>2026-04-27T11:00:11.999Z</time></trkpt><trkpt lat="39.18890608904549" lon="16.133063711827543"><ele>815.0</ele><time>2026-04-27T11:00:12.999Z</time></trkpt><trkpt lat="39.18883393642442" lon="16.133020805752043"><ele>815.0</ele><time>2026-04-27T11:00:14.999Z</time></trkpt><trkpt lat="39.188864868036596" lon="16.1329155153719"><ele>812.6666666666667</ele><time>2026-04-27T11:00:16.999Z</time></trkpt><trkpt lat="39.18891923418263" lon="16.132837315526167"><ele>810.3333333333334</ele><time>2026-04-27T11:00:17.999Z</time></trkpt><trkpt lat="39.18893779546495" lon="16.13274145426059"><ele>808.0</ele><time>2026-04-27T11:00:18.999Z</time></trkpt><trkpt lat="39.188889914065776" lon="16.13266686303416"><ele>805.6666666666667</ele><time>2026-04-27T11:00:19.999Z</time></trkpt><trkpt lat="39.18882138838181" lon="16.13258565745938"><ele>803.3333333333334</ele><time>2026-04-27T11:00:20.999Z</time></trkpt><trkpt lat="39.18875759668093" lon="16.132495380335822"><ele>801.0</ele><time>2026-04-27T11:00:21.999Z</time></trkpt><trkpt lat="39.18872039965193" lon="16.132391735192307"><ele>803.8333333333334</ele><time>2026-04-27T11:00:22.999Z</time></trkpt><trkpt lat="39.18868942639485" lon="16.132296295358298"><ele>806.6666666666667</ele><time>2026-04-27T11:00:23.999Z</time></trkpt><trkpt lat="39.188651704532475" lon="16.132224395105986"><ele>809.5</ele><time>2026-04-27T11:00:24.999Z</time></trkpt><trkpt lat="39.188593021543994" lon="16.13218008642029"><ele>812.3333333333334</ele><time>2026-04-27T11:00:25.999Z</time></trkpt><trkpt lat="39.18851204873617" lon="16.132150700915137"><ele>815.1666666666667</ele><time>2026-04-27T11:00:26.999Z</time></trkpt><trkpt lat="39.18841973830525" lon="16.13212455609169"><ele>818.0</ele><time>2026-04-27T11:00:27.999Z</time></trkpt><trkpt lat="39.1883351064213" lon="16.132088261706837"><ele>818.0</ele><time>2026-04-27T11:00:28.999Z</time></trkpt><trkpt lat="39.18824084887712" lon="16.132026546634535"><ele>818.0</ele><time>2026-04-27T11:00:29.999Z</time></trkpt><trkpt lat="39.18814647085736" lon="16.13196340220232"><ele>818.0</ele><time>2026-04-27T11:00:30.999Z</time></trkpt><trkpt lat="39.18806079270772" lon="16.131904270320714"><ele>818.0</ele><time>2026-04-27T11:00:31.999Z</time></trkpt><trkpt lat="39.187988045142625" lon="16.131840521046936"><ele>818.0</ele><time>2026-04-27T11:00:32.999Z</time></trkpt><trkpt lat="39.18791369212964" lon="16.13179688235805"><ele>816.2</ele><time>2026-04-27T11:00:33.999Z</time></trkpt><trkpt lat="39.187829109847705" lon="16.131805435475254"><ele>814.4</ele><time>2026-04-27T11:00:34.999Z</time></trkpt><trkpt lat="39.18775020298653" lon="16.131846154778806"><ele>812.6</ele><time>2026-04-27T11:00:35.999Z</time></trkpt><trkpt lat="39.18765663077006" lon="16.13190340975135"><ele>810.8000000000001</ele><time>2026-04-27T11:00:36.999Z</time></trkpt><trkpt lat="39.187549717443886" lon="16.131925804110942"><ele>809.0</ele><time>2026-04-27T11:00:37.999Z</time></trkpt><trkpt lat="39.18742733558145" lon="16.13191696279713"><ele>805.75</ele><time>2026-04-27T11:00:38.999Z</time></trkpt><trkpt lat="39.18728369068134" lon="16.131891176350706"><ele>802.5</ele><time>2026-04-27T11:00:39.999Z</time></trkpt><trkpt lat="39.187146634277795" lon="16.131903389599803"><ele>799.25</ele><time>2026-04-27T11:00:40.999Z</time></trkpt><trkpt lat="39.18702263998141" lon="16.13191729199189"><ele>796.0</ele><time>2026-04-27T11:00:41.999Z</time></trkpt><trkpt lat="39.18691899652077" lon="16.131916439275418"><ele>796.0</ele><time>2026-04-27T11:00:42.999Z</time></trkpt><trkpt lat="39.186815252004855" lon="16.13194672159899"><ele>796.0</ele><time>2026-04-27T11:00:43.999Z</time></trkpt><trkpt lat="39.18673158282178" lon="16.131978223421893"><ele>796.0</ele><time>2026-04-27T11:00:44.999Z</time></trkpt><trkpt lat="39.18666209921956" lon="16.131982158948553"><ele>796.0</ele><time>2026-04-27T11:00:45.999Z</time></trkpt><trkpt lat="39.18660304205839" lon="16.131897456015494"><ele>796.0</ele><time>2026-04-27T11:00:47.999Z</time></trkpt><trkpt lat="39.186581125701515" lon="16.13175950885683"><ele>796.0</ele><time>2026-04-27T11:00:48.999Z</time></trkpt><trkpt lat="39.18654228949352" lon="16.131571566589688"><ele>796.0</ele><time>2026-04-27T11:00:49.999Z</time></trkpt><trkpt lat="39.186546066399124" lon="16.131421301776918"><ele>796.0</ele><time>2026-04-27T11:00:50.999Z</time></trkpt><trkpt lat="39.18655965843257" lon="16.131325433891405"><ele>796.0</ele><time>2026-04-27T11:00:51.999Z</time></trkpt><trkpt lat="39.186558513679984" lon="16.131242322204788"><ele>796.0</ele><time>2026-04-27T11:00:53.999Z</time></trkpt><trkpt lat="39.18647567602599" lon="16.13121608166389"><ele>795.5999999999999</ele><time>2026-04-27T11:00:55.999Z</time></trkpt><trkpt lat="39.18641236366983" lon="16.131244807710512"><ele>795.2</ele><time>2026-04-27T11:00:56.999Z</time></trkpt><trkpt lat="39.18633883794495" lon="16.131314922364513"><ele>794.8</ele><time>2026-04-27T11:00:57.999Z</time></trkpt><trkpt lat="39.1862686528857" lon="16.13142468136577"><ele>794.4000000000001</ele><time>2026-04-27T11:00:58.999Z</time></trkpt><trkpt lat="39.18619514287302" lon="16.131532906549033"><ele>794.0</ele><time>2026-04-27T11:00:59.999Z</time></trkpt><trkpt lat="39.18607815458996" lon="16.131660335293425"><ele>794.0</ele><time>2026-04-27T11:01:00.999Z</time></trkpt><trkpt lat="39.185963274293734" lon="16.131786683807086"><ele>794.0</ele><time>2026-04-27T11:01:01.999Z</time></trkpt><trkpt lat="39.185865035785916" lon="16.131893129948498"><ele>794.0</ele><time>2026-04-27T11:01:03Z</time></trkpt><trkpt lat="39.18578302406866" lon="16.13197419294393"><ele>794.0</ele><time>2026-04-27T11:01:04Z</time></trkpt><trkpt lat="39.1857034959021" lon="16.132042554139776"><ele>795.0</ele><time>2026-04-27T11:01:05Z</time></trkpt><trkpt lat="39.18558606234849" lon="16.132094134538164"><ele>796.0</ele><time>2026-04-27T11:01:06Z</time></trkpt><trkpt lat="39.185467691230684" lon="16.132147563419814"><ele>797.0</ele><time>2026-04-27T11:01:07Z</time></trkpt><trkpt lat="39.18536195157717" lon="16.132200205823242"><ele>798.0</ele><time>2026-04-27T11:01:08Z</time></trkpt><trkpt lat="39.18526455441028" lon="16.13226049573188"><ele>798.0</ele><time>2026-04-27T11:01:09Z</time></trkpt><trkpt lat="39.18516743454807" lon="16.132303643817867"><ele>798.0</ele><time>2026-04-27T11:01:10Z</time></trkpt><trkpt lat="39.18505603839887" lon="16.132329617672703"><ele>798.0</ele><time>2026-04-27T11:01:11Z</time></trkpt><trkpt lat="39.18492933431521" lon="16.13235210329641"><ele>798.0</ele><time>2026-04-27T11:01:12Z</time></trkpt><trkpt lat="39.18481471180381" lon="16.132372056299943"><ele>796.5999999999999</ele><time>2026-04-27T11:01:13Z</time></trkpt><trkpt lat="39.184715896808825" lon="16.132382109493523"><ele>795.1999999999999</ele><time>2026-04-27T11:01:14Z</time></trkpt><trkpt lat="39.18463338653249" lon="16.132385842392175"><ele>793.8</ele><time>2026-04-27T11:01:15Z</time></trkpt><trkpt lat="39.18452535993167" lon="16.13238703483951"><ele>792.4</ele><time>2026-04-27T11:01:16Z</time></trkpt><trkpt lat="39.18442240312484" lon="16.13232976084299"><ele>791.0</ele><time>2026-04-27T11:01:17Z</time></trkpt><trkpt lat="39.184310126253955" lon="16.132246958498"><ele>791.0</ele><time>2026-04-27T11:01:18Z</time></trkpt><trkpt lat="39.18421080022101" lon="16.13216989014566"><ele>791.0</ele><time>2026-04-27T11:01:19Z</time></trkpt><trkpt lat="39.184132898963036" lon="16.132092596979046"><ele>791.0</ele><time>2026-04-27T11:01:20Z</time></trkpt><trkpt lat="39.18407854669131" lon="16.13202474922735"><ele>791.0</ele><time>2026-04-27T11:01:21Z</time></trkpt><trkpt lat="39.18400222583437" lon="16.131976519204006"><ele>791.0</ele><time>2026-04-27T11:01:23Z</time></trkpt><trkpt lat="39.18395633521062" lon="16.132081005919172"><ele>791.0000000000001</ele><time>2026-04-27T11:01:25Z</time></trkpt><trkpt lat="39.1839871202577" lon="16.132180987029365"><ele>791.0</ele><time>2026-04-27T11:01:26Z</time></trkpt><trkpt lat="39.184031570580295" lon="16.13228236677006"><ele>791.0</ele><time>2026-04-27T11:01:27Z</time></trkpt><trkpt lat="39.18409079929172" lon="16.132369490806948"><ele>791.0</ele><time>2026-04-27T11:01:28Z</time></trkpt><trkpt lat="39.18415040941819" lon="16.132450730024484"><ele>791.0000000000001</ele><time>2026-04-27T11:01:29Z</time></trkpt><trkpt lat="39.18421073019988" lon="16.13251100681662"><ele>791.0</ele><time>2026-04-27T11:01:30Z</time></trkpt><trkpt lat="39.18428013709226" lon="16.132557639832285"><ele>787.3333333333334</ele><time>2026-04-27T11:01:31Z</time></trkpt><trkpt lat="39.18435903272965" lon="16.13260976754207"><ele>783.6666666666667</ele><time>2026-04-27T11:01:32Z</time></trkpt><trkpt lat="39.184419780281694" lon="16.132685630416194"><ele>780.0</ele><time>2026-04-27T11:01:33Z</time></trkpt><trkpt lat="39.18447038697804" lon="16.13277240041245"><ele>776.3333333333333</ele><time>2026-04-27T11:01:34Z</time></trkpt><trkpt lat="39.18452104833858" lon="16.132865244147336"><ele>772.6666666666666</ele><time>2026-04-27T11:01:35Z</time></trkpt><trkpt lat="39.184577866994914" lon="16.132962998360053"><ele>769.0</ele><time>2026-04-27T11:01:36Z</time></trkpt><trkpt lat="39.18462665555204" lon="16.13306775857732"><ele>769.0</ele><time>2026-04-27T11:01:37Z</time></trkpt><trkpt lat="39.18466335674125" lon="16.133173475888746"><ele>769.0</ele><time>2026-04-27T11:01:38Z</time></trkpt><trkpt lat="39.18471012897382" lon="16.133250147286912"><ele>769.0</ele><time>2026-04-27T11:01:39Z</time></trkpt><trkpt lat="39.18482047817126" lon="16.133331389901578"><ele>769.0</ele><time>2026-04-27T11:01:41Z</time></trkpt><trkpt lat="39.18492419716616" lon="16.133352059680497"><ele>769.0</ele><time>2026-04-27T11:01:42Z</time></trkpt><trkpt lat="39.185021580940415" lon="16.13337758081912"><ele>765.0</ele><time>2026-04-27T11:01:43Z</time></trkpt><trkpt lat="39.18512014515602" lon="16.13342259719954"><ele>761.0</ele><time>2026-04-27T11:01:44Z</time></trkpt><trkpt lat="39.18522574703272" lon="16.133454993882715"><ele>757.0</ele><time>2026-04-27T11:01:45Z</time></trkpt><trkpt lat="39.18532300109594" lon="16.133481127413404"><ele>753.0</ele><time>2026-04-27T11:01:46Z</time></trkpt><trkpt lat="39.18541495455713" lon="16.13349367166104"><ele>749.0</ele><time>2026-04-27T11:01:47Z</time></trkpt><trkpt lat="39.18550153699921" lon="16.133489862848393"><ele>749.0</ele><time>2026-04-27T11:01:48Z</time></trkpt><trkpt lat="39.18558045689679" lon="16.133484098665534"><ele>749.0</ele><time>2026-04-27T11:01:49Z</time></trkpt><trkpt lat="39.18567412116988" lon="16.133459795509154"><ele>749.0</ele><time>2026-04-27T11:01:50Z</time></trkpt><trkpt lat="39.18575743256875" lon="16.13342563395273"><ele>749.0</ele><time>2026-04-27T11:01:51Z</time></trkpt><trkpt lat="39.185820564766125" lon="16.133415351980286"><ele>749.0</ele><time>2026-04-27T11:01:52Z</time></trkpt><trkpt lat="39.185893577479355" lon="16.133454846566558"><ele>749.0</ele><time>2026-04-27T11:01:54Z</time></trkpt><trkpt lat="39.18585585043193" lon="16.13358248874123"><ele>749.0</ele><time>2026-04-27T11:01:56Z</time></trkpt><trkpt lat="39.18575416156718" lon="16.133635432696032"><ele>749.0</ele><time>2026-04-27T11:01:57Z</time></trkpt><trkpt lat="39.18566538254785" lon="16.133710237334576"><ele>749.0</ele><time>2026-04-27T11:01:58Z</time></trkpt><trkpt lat="39.18560979298111" lon="16.133808813928482"><ele>749.0</ele><time>2026-04-27T11:01:59Z</time></trkpt><trkpt lat="39.18555767723516" lon="16.133909353812545"><ele>749.0</ele><time>2026-04-27T11:02:00Z</time></trkpt><trkpt lat="39.18549625703592" lon="16.133967284638576"><ele>749.0</ele><time>2026-04-27T11:02:00.999Z</time></trkpt><trkpt lat="39.18542276460278" lon="16.133998767335147"><ele>749.0</ele><time>2026-04-27T11:02:01.999Z</time></trkpt><trkpt lat="39.18532472627366" lon="16.134048035017006"><ele>749.0</ele><time>2026-04-27T11:02:02.999Z</time></trkpt><trkpt lat="39.18524525813146" lon="16.134075247843633"><ele>749.0</ele><time>2026-04-27T11:02:03.999Z</time></trkpt><trkpt lat="39.1851317667256" lon="16.13410492286269"><ele>749.0</ele><time>2026-04-27T11:02:04.999Z</time></trkpt><trkpt lat="39.18500980934882" lon="16.13413871930979"><ele>741.2</ele><time>2026-04-27T11:02:05.999Z</time></trkpt><trkpt lat="39.1848979925644" lon="16.134158298735127"><ele>733.4000000000001</ele><time>2026-04-27T11:02:06.999Z</time></trkpt><trkpt lat="39.18479728236124" lon="16.134198902975246"><ele>725.6</ele><time>2026-04-27T11:02:07.999Z</time></trkpt><trkpt lat="39.18470068641978" lon="16.1342198222826"><ele>717.8</ele><time>2026-04-27T11:02:08.999Z</time></trkpt><trkpt lat="39.18459157149697" lon="16.13423310386196"><ele>710.0</ele><time>2026-04-27T11:02:09.999Z</time></trkpt><trkpt lat="39.18448803855744" lon="16.13422611180218"><ele>708.2</ele><time>2026-04-27T11:02:10.999Z</time></trkpt><trkpt lat="39.184403753366475" lon="16.134210325514747"><ele>706.4</ele><time>2026-04-27T11:02:11.999Z</time></trkpt><trkpt lat="39.18428943934137" lon="16.1341439418862"><ele>704.5999999999999</ele><time>2026-04-27T11:02:13.999Z</time></trkpt><trkpt lat="39.184229802267886" lon="16.13408897746998"><ele>702.8</ele><time>2026-04-27T11:02:14.999Z</time></trkpt><trkpt lat="39.18415866326461" lon="16.134042215808755"><ele>701.0</ele><time>2026-04-27T11:02:15.999Z</time></trkpt><trkpt lat="39.184062489417734" lon="16.13402273298221"><ele>705.75</ele><time>2026-04-27T11:02:17.999Z</time></trkpt><trkpt lat="39.18400019233215" lon="16.13407921597071"><ele>710.5</ele><time>2026-04-27T11:02:18.999Z</time></trkpt><trkpt lat="39.18393909880804" lon="16.13418116780952"><ele>715.25</ele><time>2026-04-27T11:02:19.999Z</time></trkpt><trkpt lat="39.18384967046984" lon="16.134303074687313"><ele>720.0</ele><time>2026-04-27T11:02:20.999Z</time></trkpt><trkpt lat="39.18375228832032" lon="16.134449132317854"><ele>720.0</ele><time>2026-04-27T11:02:21.999Z</time></trkpt><trkpt lat="39.18366372056658" lon="16.13458359763166"><ele>720.0</ele><time>2026-04-27T11:02:22.999Z</time></trkpt><trkpt lat="39.18359419436441" lon="16.13469365344647"><ele>720.0</ele><time>2026-04-27T11:02:23.999Z</time></trkpt><trkpt lat="39.18352707318152" lon="16.134773053727073"><ele>720.0</ele><time>2026-04-27T11:02:24.999Z</time></trkpt><trkpt lat="39.183429659334784" lon="16.134834003213225"><ele>720.0</ele><time>2026-04-27T11:02:25.999Z</time></trkpt><trkpt lat="39.18332289745245" lon="16.134898602742968"><ele>715.0</ele><time>2026-04-27T11:02:26.999Z</time></trkpt><trkpt lat="39.18322474402891" lon="16.13497545872738"><ele>710.0</ele><time>2026-04-27T11:02:27.999Z</time></trkpt><trkpt lat="39.183123111512906" lon="16.135072556937338"><ele>705.0</ele><time>2026-04-27T11:02:28.999Z</time></trkpt><trkpt lat="39.18303381370269" lon="16.135135201554927"><ele>700.0</ele><time>2026-04-27T11:02:29.999Z</time></trkpt><trkpt lat="39.18296998744173" lon="16.135196260318917"><ele>695.0</ele><time>2026-04-27T11:02:30.999Z</time></trkpt><trkpt lat="39.18291135760745" lon="16.13529588856999"><ele>695.0</ele><time>2026-04-27T11:02:31.999Z</time></trkpt><trkpt lat="39.18286664141979" lon="16.1354127313851"><ele>695.0</ele><time>2026-04-27T11:02:32.999Z</time></trkpt><trkpt lat="39.18282014298976" lon="16.13552931924205"><ele>695.0</ele><time>2026-04-27T11:02:33.999Z</time></trkpt><trkpt lat="39.182768159695314" lon="16.135637048348645"><ele>695.0</ele><time>2026-04-27T11:02:34.999Z</time></trkpt><trkpt lat="39.182711576043275" lon="16.13573086670521"><ele>695.0</ele><time>2026-04-27T11:02:35.999Z</time></trkpt><trkpt lat="39.18265232090574" lon="16.135803985340562"><ele>691.6</ele><time>2026-04-27T11:02:36.999Z</time></trkpt><trkpt lat="39.182598360215465" lon="16.13586078261175"><ele>688.2</ele><time>2026-04-27T11:02:37.999Z</time></trkpt><trkpt lat="39.182572502584875" lon="16.135968961024723"><ele>684.8</ele><time>2026-04-27T11:02:39.999Z</time></trkpt><trkpt lat="39.18269686670631" lon="16.136113587309826"><ele>681.4</ele><time>2026-04-27T11:02:41.999Z</time></trkpt><trkpt lat="39.1827436196478" lon="16.136193892043455"><ele>678.0</ele><time>2026-04-27T11:02:42.999Z</time></trkpt><trkpt lat="39.18275020587786" lon="16.136291827753933"><ele>678.0</ele><time>2026-04-27T11:02:43.999Z</time></trkpt><trkpt lat="39.18274647266457" lon="16.136382305996722"><ele>678.0</ele><time>2026-04-27T11:02:44.999Z</time></trkpt><trkpt lat="39.18267653025419" lon="16.13647635199535"><ele>678.0</ele><time>2026-04-27T11:02:46.999Z</time></trkpt><trkpt lat="39.182592496374824" lon="16.13649369851885"><ele>678.0</ele><time>2026-04-27T11:02:47.999Z</time></trkpt><trkpt lat="39.182478602754564" lon="16.136471671277434"><ele>678.0</ele><time>2026-04-27T11:02:48.999Z</time></trkpt><trkpt lat="39.18234567156368" lon="16.136461929306005"><ele>672.5999999999999</ele><time>2026-04-27T11:02:49.999Z</time></trkpt><trkpt lat="39.18223575435696" lon="16.136488038180882"><ele>667.1999999999999</ele><time>2026-04-27T11:02:50.999Z</time></trkpt><trkpt lat="39.18215596330953" lon="16.136508552903884"><ele>661.8</ele><time>2026-04-27T11:02:51.999Z</time></trkpt><trkpt lat="39.18207342555729" lon="16.13655718350604"><ele>656.4</ele><time>2026-04-27T11:02:53.999Z</time></trkpt><trkpt lat="39.18211687695606" lon="16.136655854815874"><ele>651.0</ele><time>2026-04-27T11:02:55.999Z</time></trkpt><trkpt lat="39.182195208534296" lon="16.136692838351756"><ele>652.6666666666666</ele><time>2026-04-27T11:02:56.999Z</time></trkpt><trkpt lat="39.18228340588545" lon="16.13672375032221"><ele>654.3333333333334</ele><time>2026-04-27T11:02:57.999Z</time></trkpt><trkpt lat="39.182346526801936" lon="16.136748386415352"><ele>656.0</ele><time>2026-04-27T11:02:58.999Z</time></trkpt><trkpt lat="39.18241216783596" lon="16.136829174003882"><ele>657.6666666666667</ele><time>2026-04-27T11:02:59.999Z</time></trkpt><trkpt lat="39.18245759753452" lon="16.136921943968954"><ele>659.3333333333334</ele><time>2026-04-27T11:03:00.999Z</time></trkpt><trkpt lat="39.18250058603759" lon="16.137018959925612"><ele>661.0</ele><time>2026-04-27T11:03:01.999Z</time></trkpt><trkpt lat="39.1825334360844" lon="16.137104494077118"><ele>661.0</ele><time>2026-04-27T11:03:02.999Z</time></trkpt><trkpt lat="39.18255686323337" lon="16.137232262831752"><ele>661.0</ele><time>2026-04-27T11:03:04.999Z</time></trkpt><trkpt lat="39.18250985448608" lon="16.13730495096059"><ele>661.0</ele><time>2026-04-27T11:03:05.999Z</time></trkpt><trkpt lat="39.18240914162033" lon="16.137386536192782"><ele>661.0</ele><time>2026-04-27T11:03:06.999Z</time></trkpt><trkpt lat="39.182289496296" lon="16.1374763318707"><ele>661.0</ele><time>2026-04-27T11:03:07.999Z</time></trkpt><trkpt lat="39.18218094520295" lon="16.137546804863266"><ele>654.1666666666667</ele><time>2026-04-27T11:03:09Z</time></trkpt><trkpt lat="39.18209725752016" lon="16.13761533505329"><ele>647.3333333333334</ele><time>2026-04-27T11:03:10Z</time></trkpt><trkpt lat="39.182028303242745" lon="16.13767642193589"><ele>640.5</ele><time>2026-04-27T11:03:11Z</time></trkpt><trkpt lat="39.18196520358232" lon="16.137679969606715"><ele>633.6666666666666</ele><time>2026-04-27T11:03:12Z</time></trkpt><trkpt lat="39.181884113090454" lon="16.137622918161444"><ele>626.8333333333333</ele><time>2026-04-27T11:03:13Z</time></trkpt><trkpt lat="39.18181673326617" lon="16.137541983715668"><ele>620.0</ele><time>2026-04-27T11:03:14Z</time></trkpt><trkpt lat="39.1817797096609" lon="16.137429228098554"><ele>622.8</ele><time>2026-04-27T11:03:15Z</time></trkpt><trkpt lat="39.18175799259408" lon="16.137278258401352"><ele>625.6</ele><time>2026-04-27T11:03:16Z</time></trkpt><trkpt lat="39.181729040971696" lon="16.137128833252397"><ele>628.4</ele><time>2026-04-27T11:03:17Z</time></trkpt><trkpt lat="39.18168200629013" lon="16.13700136955039"><ele>631.2</ele><time>2026-04-27T11:03:18Z</time></trkpt><trkpt lat="39.18162995837349" lon="16.136895992724103"><ele>634.0</ele><time>2026-04-27T11:03:19Z</time></trkpt><trkpt lat="39.18158389158479" lon="16.136815285720484"><ele>634.0</ele><time>2026-04-27T11:03:20Z</time></trkpt><trkpt lat="39.18152149922071" lon="16.136749689334206"><ele>634.0</ele><time>2026-04-27T11:03:22Z</time></trkpt><trkpt lat="39.18147350694419" lon="16.13687829564727"><ele>634.0</ele><time>2026-04-27T11:03:24Z</time></trkpt><trkpt lat="39.18150454190092" lon="16.136987353949817"><ele>634.0</ele><time>2026-04-27T11:03:25Z</time></trkpt><trkpt lat="39.181545608522136" lon="16.13712360373934"><ele>634.0</ele><time>2026-04-27T11:03:26Z</time></trkpt><trkpt lat="39.18154762470746" lon="16.137273604526623"><ele>630.5</ele><time>2026-04-27T11:03:27Z</time></trkpt><trkpt lat="39.181528519434025" lon="16.13742840154571"><ele>627.0</ele><time>2026-04-27T11:03:28Z</time></trkpt><trkpt lat="39.18149268035939" lon="16.137589352919626"><ele>623.5</ele><time>2026-04-27T11:03:29Z</time></trkpt><trkpt lat="39.18145142982244" lon="16.13773324485375"><ele>620.0</ele><time>2026-04-27T11:03:30Z</time></trkpt><trkpt lat="39.18142304671697" lon="16.137869999927346"><ele>614.5</ele><time>2026-04-27T11:03:31Z</time></trkpt><trkpt lat="39.18140655587731" lon="16.13800427059403"><ele>609.0</ele><time>2026-04-27T11:03:32Z</time></trkpt><trkpt lat="39.1814012634262" lon="16.13812523526218"><ele>603.5</ele><time>2026-04-27T11:03:33Z</time></trkpt><trkpt lat="39.1813926179374" lon="16.13823268219564"><ele>598.0</ele><time>2026-04-27T11:03:34Z</time></trkpt><trkpt lat="39.18140169405557" lon="16.138334474785047"><ele>592.5</ele><time>2026-04-27T11:03:35Z</time></trkpt><trkpt lat="39.18142940522196" lon="16.13840858912948"><ele>587.0</ele><time>2026-04-27T11:03:36Z</time></trkpt><trkpt lat="39.18148835922609" lon="16.138473223341318"><ele>591.25</ele><time>2026-04-27T11:03:37Z</time></trkpt><trkpt lat="39.181594123262734" lon="16.138509530534776"><ele>595.5</ele><time>2026-04-27T11:03:38Z</time></trkpt><trkpt lat="39.18171606203288" lon="16.138522526176995"><ele>599.75</ele><time>2026-04-27T11:03:39Z</time></trkpt><trkpt lat="39.181845219529826" lon="16.138533340508655"><ele>604.0</ele><time>2026-04-27T11:03:40Z</time></trkpt><trkpt lat="39.18195583260287" lon="16.13856066226014"><ele>604.0</ele><time>2026-04-27T11:03:41Z</time></trkpt><trkpt lat="39.182052603079775" lon="16.138600793282137"><ele>604.0</ele><time>2026-04-27T11:03:42Z</time></trkpt><trkpt lat="39.182149215068385" lon="16.138658171650764"><ele>604.0</ele><time>2026-04-27T11:03:43Z</time></trkpt><trkpt lat="39.182236340868485" lon="16.138727127321513"><ele>604.0</ele><time>2026-04-27T11:03:44Z</time></trkpt><trkpt lat="39.18232303556743" lon="16.138792467121004"><ele>604.0</ele><time>2026-04-27T11:03:45Z</time></trkpt><trkpt lat="39.18241005367277" lon="16.138839267150647"><ele>605.2</ele><time>2026-04-27T11:03:46Z</time></trkpt><trkpt lat="39.182491814193305" lon="16.138855650755012"><ele>606.4</ele><time>2026-04-27T11:03:47Z</time></trkpt><trkpt lat="39.18257008906235" lon="16.13883410640093"><ele>607.6</ele><time>2026-04-27T11:03:48Z</time></trkpt><trkpt lat="39.18264966645841" lon="16.138777401198638"><ele>608.8</ele><time>2026-04-27T11:03:49Z</time></trkpt><trkpt lat="39.1827302266774" lon="16.13868560450423"><ele>610.0</ele><time>2026-04-27T11:03:50Z</time></trkpt><trkpt lat="39.18282906053562" lon="16.138554204610625"><ele>610.0</ele><time>2026-04-27T11:03:51Z</time></trkpt><trkpt lat="39.18293775796393" lon="16.138425861365075"><ele>610.0</ele><time>2026-04-27T11:03:52Z</time></trkpt><trkpt lat="39.18304318498904" lon="16.13830198603506"><ele>610.0</ele><time>2026-04-27T11:03:53Z</time></trkpt><trkpt lat="39.18314334955665" lon="16.138185099974866"><ele>610.0</ele><time>2026-04-27T11:03:54Z</time></trkpt><trkpt lat="39.18323482074781" lon="16.138083599417318"><ele>611.2</ele><time>2026-04-27T11:03:55Z</time></trkpt><trkpt lat="39.18332664513521" lon="16.137967485818884"><ele>612.4</ele><time>2026-04-27T11:03:56Z</time></trkpt><trkpt lat="39.18341534466379" lon="16.1378705067304"><ele>613.6</ele><time>2026-04-27T11:03:57Z</time></trkpt><trkpt lat="39.18349490845788" lon="16.137792094407498"><ele>614.8</ele><time>2026-04-27T11:03:58Z</time></trkpt><trkpt lat="39.183560151085224" lon="16.137733381774314"><ele>616.0</ele><time>2026-04-27T11:03:59Z</time></trkpt><trkpt lat="39.18365786272074" lon="16.13768664952833"><ele>616.0</ele><time>2026-04-27T11:04:01Z</time></trkpt><trkpt lat="39.18374362407331" lon="16.137764540978772"><ele>616.0</ele><time>2026-04-27T11:04:03Z</time></trkpt><trkpt lat="39.183764674641246" lon="16.13786410655843"><ele>616.0</ele><time>2026-04-27T11:04:04Z</time></trkpt><trkpt lat="39.18377902605283" lon="16.137994449607067"><ele>616.0</ele><time>2026-04-27T11:04:05Z</time></trkpt><trkpt lat="39.18380958481893" lon="16.13811663675083"><ele>616.0</ele><time>2026-04-27T11:04:05.999Z</time></trkpt><trkpt lat="39.18386246846846" lon="16.138213652645973"><ele>610.8</ele><time>2026-04-27T11:04:06.999Z</time></trkpt><trkpt lat="39.183939753993" lon="16.138308008173944"><ele>605.6</ele><time>2026-04-27T11:04:07.999Z</time></trkpt><trkpt lat="39.18403508706862" lon="16.138348126176155"><ele>600.4</ele><time>2026-04-27T11:04:08.999Z</time></trkpt><trkpt lat="39.184140175995175" lon="16.138380261321462"><ele>595.2</ele><time>2026-04-27T11:04:09.999Z</time></trkpt><trkpt lat="39.18424648512113" lon="16.138373534965833"><ele>590.0</ele><time>2026-04-27T11:04:10.999Z</time></trkpt><trkpt lat="39.18439435251995" lon="16.138318625961332"><ele>588.25</ele><time>2026-04-27T11:04:11.999Z</time></trkpt><trkpt lat="39.18454368315688" lon="16.138284680696195"><ele>586.5</ele><time>2026-04-27T11:04:12.999Z</time></trkpt><trkpt lat="39.18466959499879" lon="16.138275959003536"><ele>584.75</ele><time>2026-04-27T11:04:13.999Z</time></trkpt><trkpt lat="39.18477905136334" lon="16.138275466225227"><ele>583.0</ele><time>2026-04-27T11:04:14.999Z</time></trkpt><trkpt lat="39.18486688612868" lon="16.13828222954246"><ele>586.0</ele><time>2026-04-27T11:04:15.999Z</time></trkpt><trkpt lat="39.18493551242323" lon="16.13832062021523"><ele>589.0</ele><time>2026-04-27T11:04:16.999Z</time></trkpt><trkpt lat="39.18499053846047" lon="16.138399910898443"><ele>592.0</ele><time>2026-04-27T11:04:17.999Z</time></trkpt><trkpt lat="39.18504301495697" lon="16.138514341475485"><ele>595.0</ele><time>2026-04-27T11:04:18.999Z</time></trkpt><trkpt lat="39.185100417072334" lon="16.13865524610273"><ele>598.0</ele><time>2026-04-27T11:04:19.999Z</time></trkpt><trkpt lat="39.18515991649285" lon="16.13880308626575"><ele>598.0</ele><time>2026-04-27T11:04:20.999Z</time></trkpt><trkpt lat="39.1851843210555" lon="16.138964614807076"><ele>598.0</ele><time>2026-04-27T11:04:21.999Z</time></trkpt><trkpt lat="39.18518390171437" lon="16.139106687515124"><ele>598.0</ele><time>2026-04-27T11:04:22.999Z</time></trkpt><trkpt lat="39.18516144183464" lon="16.13922497372794"><ele>598.0</ele><time>2026-04-27T11:04:23.999Z</time></trkpt><trkpt lat="39.18512245764742" lon="16.13935156521561"><ele>598.0</ele><time>2026-04-27T11:04:24.999Z</time></trkpt><trkpt lat="39.18509210147859" lon="16.139462193829942"><ele>596.6</ele><time>2026-04-27T11:04:25.999Z</time></trkpt><trkpt lat="39.18508831216857" lon="16.139551170251217"><ele>595.1999999999999</ele><time>2026-04-27T11:04:26.999Z</time></trkpt><trkpt lat="39.18515688927375" lon="16.139677271500307"><ele>593.8</ele><time>2026-04-27T11:04:28.999Z</time></trkpt><trkpt lat="39.18525372781485" lon="16.139713945594384"><ele>592.4</ele><time>2026-04-27T11:04:29.999Z</time></trkpt><trkpt lat="39.18536104028247" lon="16.139766886545026"><ele>591.0</ele><time>2026-04-27T11:04:30.999Z</time></trkpt><trkpt lat="39.18547532082567" lon="16.13988108801409"><ele>589.75</ele><time>2026-04-27T11:04:31.999Z</time></trkpt><trkpt lat="39.185572440135786" lon="16.139977762441525"><ele>588.5</ele><time>2026-04-27T11:04:32.999Z</time></trkpt><trkpt lat="39.185662493392755" lon="16.140036200961045"><ele>587.25</ele><time>2026-04-27T11:04:33.999Z</time></trkpt><trkpt lat="39.18577106160008" lon="16.14007460046818"><ele>586.0</ele><time>2026-04-27T11:04:34.999Z</time></trkpt><trkpt lat="39.18590509149203" lon="16.140090202321783"><ele>590.2</ele><time>2026-04-27T11:04:35.999Z</time></trkpt><trkpt lat="39.18601596172237" lon="16.140111929401762"><ele>594.4000000000001</ele><time>2026-04-27T11:04:36.999Z</time></trkpt><trkpt lat="39.186117318193524" lon="16.14013648193487"><ele>598.6</ele><time>2026-04-27T11:04:37.999Z</time></trkpt><trkpt lat="39.186209877987665" lon="16.140180596285322"><ele>602.8000000000001</ele><time>2026-04-27T11:04:38.999Z</time></trkpt><trkpt lat="39.186293996685116" lon="16.140237370625115"><ele>607.0</ele><time>2026-04-27T11:04:39.999Z</time></trkpt><trkpt lat="39.18638093674034" lon="16.14029502094476"><ele>607.0</ele><time>2026-04-27T11:04:40.999Z</time></trkpt><trkpt lat="39.18647274015504" lon="16.140313105014105"><ele>607.0</ele><time>2026-04-27T11:04:41.999Z</time></trkpt><trkpt lat="39.18656377365157" lon="16.140298588919585"><ele>607.0</ele><time>2026-04-27T11:04:42.999Z</time></trkpt><trkpt lat="39.186646283096856" lon="16.14027487009354"><ele>607.0</ele><time>2026-04-27T11:04:43.999Z</time></trkpt><trkpt lat="39.18673987219391" lon="16.14033361833519"><ele>607.0</ele><time>2026-04-27T11:04:45.999Z</time></trkpt><trkpt lat="39.18676874888223" lon="16.140463477747858"><ele>607.8000000000001</ele><time>2026-04-27T11:04:47.999Z</time></trkpt><trkpt lat="39.18680520880541" lon="16.140554516201153"><ele>608.6</ele><time>2026-04-27T11:04:48.999Z</time></trkpt><trkpt lat="39.18686477495141" lon="16.14060591562419"><ele>609.4000000000001</ele><time>2026-04-27T11:04:49.999Z</time></trkpt><trkpt lat="39.18695058466771" lon="16.140629725963553"><ele>610.2</ele><time>2026-04-27T11:04:50.999Z</time></trkpt><trkpt lat="39.18706873201428" lon="16.140645101712767"><ele>611.0</ele><time>2026-04-27T11:04:51.999Z</time></trkpt><trkpt lat="39.18721437359023" lon="16.140665486249848"><ele>609.6666666666666</ele><time>2026-04-27T11:04:52.999Z</time></trkpt><trkpt lat="39.187361015567944" lon="16.140669419643878"><ele>608.3333333333334</ele><time>2026-04-27T11:04:53.999Z</time></trkpt><trkpt lat="39.18751281824828" lon="16.140653629599928"><ele>607.0</ele><time>2026-04-27T11:04:54.999Z</time></trkpt><trkpt lat="39.18768570627508" lon="16.140625738640686"><ele>607.0</ele><time>2026-04-27T11:04:55.999Z</time></trkpt><trkpt lat="39.187856326486575" lon="16.14058854550467"><ele>607.0</ele><time>2026-04-27T11:04:56.999Z</time></trkpt><trkpt lat="39.18798919270115" lon="16.140566163377265"><ele>607.0</ele><time>2026-04-27T11:04:57.999Z</time></trkpt><trkpt lat="39.18811398040692" lon="16.140553169547978"><ele>607.0</ele><time>2026-04-27T11:04:58.999Z</time></trkpt><trkpt lat="39.188237037960775" lon="16.14052936148625"><ele>603.2</ele><time>2026-04-27T11:04:59.999Z</time></trkpt><trkpt lat="39.18835516037178" lon="16.140475610157864"><ele>599.4000000000001</ele><time>2026-04-27T11:05:00.999Z</time></trkpt><trkpt lat="39.1884632968627" lon="16.14040632070123"><ele>595.5999999999999</ele><time>2026-04-27T11:05:01.999Z</time></trkpt><trkpt lat="39.18855771826828" lon="16.14035155591199"><ele>591.8</ele><time>2026-04-27T11:05:02.999Z</time></trkpt><trkpt lat="39.1886480439056" lon="16.140304365606173"><ele>588.0</ele><time>2026-04-27T11:05:03.999Z</time></trkpt><trkpt lat="39.188721493906186" lon="16.140254255480485"><ele>588.0</ele><time>2026-04-27T11:05:04.999Z</time></trkpt><trkpt lat="39.188773727470306" lon="16.14020210436574"><ele>588.0</ele><time>2026-04-27T11:05:05.999Z</time></trkpt><trkpt lat="39.18885816074388" lon="16.14022209116465"><ele>588.0</ele><time>2026-04-27T11:05:07.999Z</time></trkpt><trkpt lat="39.18887562019422" lon="16.14032479716097"><ele>588.0</ele><time>2026-04-27T11:05:08.999Z</time></trkpt><trkpt lat="39.18885954032864" lon="16.140453484782245"><ele>588.0</ele><time>2026-04-27T11:05:09.999Z</time></trkpt><trkpt lat="39.18884773704824" lon="16.140581385383964"><ele>588.0</ele><time>2026-04-27T11:05:10.999Z</time></trkpt><trkpt lat="39.18887019232621" lon="16.14069122700812"><ele>586.0</ele><time>2026-04-27T11:05:11.999Z</time></trkpt><trkpt lat="39.188925146616164" lon="16.140785377956444"><ele>584.0</ele><time>2026-04-27T11:05:12.999Z</time></trkpt><trkpt lat="39.18901617400659" lon="16.14088349436231"><ele>582.0</ele><time>2026-04-27T11:05:14Z</time></trkpt><trkpt lat="39.18909987310434" lon="16.14098435907643"><ele>580.0</ele><time>2026-04-27T11:05:15Z</time></trkpt><trkpt lat="39.18915800305463" lon="16.14109054339042"><ele>578.0</ele><time>2026-04-27T11:05:16Z</time></trkpt><trkpt lat="39.18921389341171" lon="16.141189981588177"><ele>576.6</ele><time>2026-04-27T11:05:17Z</time></trkpt><trkpt lat="39.18928972122133" lon="16.141272926924"><ele>575.1999999999999</ele><time>2026-04-27T11:05:18Z</time></trkpt><trkpt lat="39.18938678758795" lon="16.141333947629427"><ele>573.8</ele><time>2026-04-27T11:05:19Z</time></trkpt><trkpt lat="39.18948687435259" lon="16.141382801054327"><ele>572.4</ele><time>2026-04-27T11:05:20Z</time></trkpt><trkpt lat="39.189570490081195" lon="16.14143969254694"><ele>571.0</ele><time>2026-04-27T11:05:21Z</time></trkpt><trkpt lat="39.189640450839526" lon="16.141507769007358"><ele>568.0</ele><time>2026-04-27T11:05:22Z</time></trkpt><trkpt lat="39.189696319657145" lon="16.14156687786799"><ele>565.0</ele><time>2026-04-27T11:05:23Z</time></trkpt><trkpt lat="39.1897468229855" lon="16.14167902046383"><ele>562.0</ele><time>2026-04-27T11:05:25Z</time></trkpt><trkpt lat="39.18974027662118" lon="16.14182186680214"><ele>559.0</ele><time>2026-04-27T11:05:27Z</time></trkpt><trkpt lat="39.189708081244845" lon="16.14189408518446"><ele>556.0</ele><time>2026-04-27T11:05:28Z</time></trkpt><trkpt lat="39.18964878179227" lon="16.141968307704413"><ele>553.0</ele><time>2026-04-27T11:05:29Z</time></trkpt><trkpt lat="39.18955398929168" lon="16.142038133760092"><ele>553.0</ele><time>2026-04-27T11:05:30Z</time></trkpt><trkpt lat="39.189434571025515" lon="16.142078611951604"><ele>553.0</ele><time>2026-04-27T11:05:31Z</time></trkpt><trkpt lat="39.1892986915579" lon="16.142089324156032"><ele>553.0</ele><time>2026-04-27T11:05:32Z</time></trkpt><trkpt lat="39.18914941649268" lon="16.142079365744557"><ele>553.0</ele><time>2026-04-27T11:05:33Z</time></trkpt><trkpt lat="39.189033531825295" lon="16.142079811867834"><ele>552.0</ele><time>2026-04-27T11:05:34Z</time></trkpt><trkpt lat="39.18895761377203" lon="16.142120665358107"><ele>551.0</ele><time>2026-04-27T11:05:35Z</time></trkpt><trkpt lat="39.18887880144024" lon="16.14217988731412"><ele>550.0</ele><time>2026-04-27T11:05:36Z</time></trkpt><trkpt lat="39.18878479196945" lon="16.14223888303307"><ele>549.0</ele><time>2026-04-27T11:05:37Z</time></trkpt><trkpt lat="39.188684636896824" lon="16.142309249192852"><ele>548.0</ele><time>2026-04-27T11:05:38Z</time></trkpt><trkpt lat="39.188565978672926" lon="16.142399859958584"><ele>548.0</ele><time>2026-04-27T11:05:39Z</time></trkpt><trkpt lat="39.18843476427891" lon="16.142495814479346"><ele>548.0</ele><time>2026-04-27T11:05:40Z</time></trkpt><trkpt lat="39.18833176825125" lon="16.142565953482865"><ele>548.0</ele><time>2026-04-27T11:05:41Z</time></trkpt><trkpt lat="39.188244448863806" lon="16.142613029174484"><ele>548.0</ele><time>2026-04-27T11:05:42Z</time></trkpt><trkpt lat="39.18813679853619" lon="16.142623243684728"><ele>546.25</ele><time>2026-04-27T11:05:43Z</time></trkpt><trkpt lat="39.188025639252544" lon="16.14258663656738"><ele>544.5</ele><time>2026-04-27T11:05:44Z</time></trkpt><trkpt lat="39.187912616730394" lon="16.14251668467504"><ele>542.75</ele><time>2026-04-27T11:05:45Z</time></trkpt><trkpt lat="39.18780013457585" lon="16.142427764498848"><ele>541.0</ele><time>2026-04-27T11:05:46Z</time></trkpt><trkpt lat="39.187710548270154" lon="16.14237089656016"><ele>546.4</ele><time>2026-04-27T11:05:47Z</time></trkpt><trkpt lat="39.18762871181404" lon="16.142338332970635"><ele>551.8</ele><time>2026-04-27T11:05:48Z</time></trkpt><trkpt lat="39.18754390462576" lon="16.142322309346028"><ele>557.1999999999999</ele><time>2026-04-27T11:05:49Z</time></trkpt><trkpt lat="39.1874627966621" lon="16.14230974220872"><ele>562.6</ele><time>2026-04-27T11:05:50Z</time></trkpt><trkpt lat="39.18735118855886" lon="16.142334892448353"><ele>568.0</ele><time>2026-04-27T11:05:51Z</time></trkpt><trkpt lat="39.18721169297541" lon="16.142378536265472"><ele>560.25</ele><time>2026-04-27T11:05:52Z</time></trkpt><trkpt lat="39.187054049288776" lon="16.14241603584711"><ele>552.5</ele><time>2026-04-27T11:05:53Z</time></trkpt><trkpt lat="39.18691505928484" lon="16.142431929435162"><ele>544.75</ele><time>2026-04-27T11:05:54Z</time></trkpt><trkpt lat="39.186779876517974" lon="16.14245303355276"><ele>537.0</ele><time>2026-04-27T11:05:55Z</time></trkpt><trkpt lat="39.18667075382296" lon="16.142483835328242"><ele>537.0</ele><time>2026-04-27T11:05:56Z</time></trkpt><trkpt lat="39.1865537199928" lon="16.142495843804003"><ele>537.0</ele><time>2026-04-27T11:05:57Z</time></trkpt><trkpt lat="39.18641119144593" lon="16.142489023048373"><ele>537.0</ele><time>2026-04-27T11:05:58Z</time></trkpt><trkpt lat="39.18624078003586" lon="16.142459525454292"><ele>537.0</ele><time>2026-04-27T11:05:59Z</time></trkpt><trkpt lat="39.18608133405956" lon="16.142418220002803"><ele>536.75</ele><time>2026-04-27T11:06:00Z</time></trkpt><trkpt lat="39.18593927932297" lon="16.142383502464067"><ele>536.5</ele><time>2026-04-27T11:06:01Z</time></trkpt><trkpt lat="39.18581909146329" lon="16.142344796751917"><ele>536.25</ele><time>2026-04-27T11:06:02Z</time></trkpt><trkpt lat="39.18570387218457" lon="16.142305126006132"><ele>536.0</ele><time>2026-04-27T11:06:03Z</time></trkpt><trkpt lat="39.18559851243977" lon="16.142273695455515"><ele>536.0</ele><time>2026-04-27T11:06:04Z</time></trkpt><trkpt lat="39.18550293166201" lon="16.14224969572044"><ele>536.0</ele><time>2026-04-27T11:06:05Z</time></trkpt><trkpt lat="39.18541001257647" lon="16.142230659553302"><ele>536.0</ele><time>2026-04-27T11:06:06Z</time></trkpt><trkpt lat="39.18532124845825" lon="16.142211205489613"><ele>536.0</ele><time>2026-04-27T11:06:07Z</time></trkpt><trkpt lat="39.1852364736119" lon="16.142192576007247"><ele>536.0</ele><time>2026-04-27T11:06:08Z</time></trkpt><trkpt lat="39.18514419757384" lon="16.14219026435986"><ele>536.0</ele><time>2026-04-27T11:06:09Z</time></trkpt><trkpt lat="39.18505392879825" lon="16.14220926854907"><ele>536.0</ele><time>2026-04-27T11:06:09.999Z</time></trkpt><trkpt lat="39.18496069374077" lon="16.142250773980813"><ele>536.0</ele><time>2026-04-27T11:06:10.999Z</time></trkpt><trkpt lat="39.18485722726758" lon="16.14232563158528"><ele>536.0</ele><time>2026-04-27T11:06:11.999Z</time></trkpt><trkpt lat="39.18476133228866" lon="16.14241931332039"><ele>536.0</ele><time>2026-04-27T11:06:12.999Z</time></trkpt><trkpt lat="39.18465763871813" lon="16.14252002707431"><ele>532.4</ele><time>2026-04-27T11:06:13.999Z</time></trkpt><trkpt lat="39.184525311382195" lon="16.142541751558554"><ele>528.8</ele><time>2026-04-27T11:06:14.999Z</time></trkpt><trkpt lat="39.18439654651506" lon="16.142557476008776"><ele>525.1999999999999</ele><time>2026-04-27T11:06:15.999Z</time></trkpt><trkpt lat="39.18430160192212" lon="16.142569968638444"><ele>521.6</ele><time>2026-04-27T11:06:16.999Z</time></trkpt><trkpt lat="39.18423720370977" lon="16.142643653298155"><ele>518.0</ele><time>2026-04-27T11:06:17.999Z</time></trkpt><trkpt lat="39.18416726738936" lon="16.142754281564493"><ele>518.0</ele><time>2026-04-27T11:06:18.999Z</time></trkpt><trkpt lat="39.18407294945199" lon="16.142854623110434"><ele>518.0</ele><time>2026-04-27T11:06:19.999Z</time></trkpt><trkpt lat="39.18395820434595" lon="16.14291653302854"><ele>518.0</ele><time>2026-04-27T11:06:20.999Z</time></trkpt><trkpt lat="39.183824066508855" lon="16.142932119993024"><ele>518.0</ele><time>2026-04-27T11:06:21.999Z</time></trkpt><trkpt lat="39.18367961282353" lon="16.142962794571798"><ele>517.75</ele><time>2026-04-27T11:06:22.999Z</time></trkpt><trkpt lat="39.18353493725069" lon="16.14302804331141"><ele>517.5</ele><time>2026-04-27T11:06:23.999Z</time></trkpt><trkpt lat="39.18340333568565" lon="16.143087663228872"><ele>517.25</ele><time>2026-04-27T11:06:24.999Z</time></trkpt><trkpt lat="39.18328080875302" lon="16.143124861210282"><ele>517.0</ele><time>2026-04-27T11:06:25.999Z</time></trkpt><trkpt lat="39.1831418418692" lon="16.143108001448926"><ele>517.0</ele><time>2026-04-27T11:06:26.999Z</time></trkpt><trkpt lat="39.18299391830939" lon="16.143123056736904"><ele>517.0</ele><time>2026-04-27T11:06:27.999Z</time></trkpt><trkpt lat="39.182838720268855" lon="16.143121237646785"><ele>517.0</ele><time>2026-04-27T11:06:28.999Z</time></trkpt><trkpt lat="39.182702156725156" lon="16.143132683688677"><ele>517.0</ele><time>2026-04-27T11:06:29.999Z</time></trkpt><trkpt lat="39.182571654679585" lon="16.143157243904422"><ele>517.0</ele><time>2026-04-27T11:06:30.999Z</time></trkpt><trkpt lat="39.182442129478275" lon="16.14319839482383"><ele>517.0</ele><time>2026-04-27T11:06:31.999Z</time></trkpt><trkpt lat="39.182331626953065" lon="16.143248757622334"><ele>517.0</ele><time>2026-04-27T11:06:32.999Z</time></trkpt><trkpt lat="39.18222060046589" lon="16.14330482698371"><ele>517.0</ele><time>2026-04-27T11:06:33.999Z</time></trkpt><trkpt lat="39.18208883007204" lon="16.1433658674231"><ele>521.75</ele><time>2026-04-27T11:06:34.999Z</time></trkpt><trkpt lat="39.18194715471467" lon="16.143449079661174"><ele>526.5</ele><time>2026-04-27T11:06:35.999Z</time></trkpt><trkpt lat="39.18180747074464" lon="16.143521180477176"><ele>531.25</ele><time>2026-04-27T11:06:36.999Z</time></trkpt><trkpt lat="39.181697871918935" lon="16.143573317589382"><ele>536.0</ele><time>2026-04-27T11:06:37.999Z</time></trkpt><trkpt lat="39.18159418127286" lon="16.143609879168977"><ele>534.0</ele><time>2026-04-27T11:06:38.999Z</time></trkpt><trkpt lat="39.18145879122965" lon="16.143612260344604"><ele>532.0</ele><time>2026-04-27T11:06:39.999Z</time></trkpt><trkpt lat="39.18130444102825" lon="16.143601271023098"><ele>530.0</ele><time>2026-04-27T11:06:40.999Z</time></trkpt><trkpt lat="39.18117598128888" lon="16.143626456519513"><ele>528.0</ele><time>2026-04-27T11:06:41.999Z</time></trkpt><trkpt lat="39.18105263306568" lon="16.143694269602722"><ele>528.0</ele><time>2026-04-27T11:06:42.999Z</time></trkpt><trkpt lat="39.180924490996695" lon="16.14378905144279"><ele>528.0</ele><time>2026-04-27T11:06:43.999Z</time></trkpt><trkpt lat="39.180821688541265" lon="16.14386048090534"><ele>528.0</ele><time>2026-04-27T11:06:44.999Z</time></trkpt><trkpt lat="39.18072252968353" lon="16.143889555208087"><ele>528.0</ele><time>2026-04-27T11:06:45.999Z</time></trkpt><trkpt lat="39.18061042998593" lon="16.14386965282821"><ele>527.0</ele><time>2026-04-27T11:06:46.999Z</time></trkpt><trkpt lat="39.18048290339539" lon="16.143825289135762"><ele>526.0</ele><time>2026-04-27T11:06:47.999Z</time></trkpt><trkpt lat="39.18036562636001" lon="16.143816180732426"><ele>525.0</ele><time>2026-04-27T11:06:48.999Z</time></trkpt><trkpt lat="39.1802477666508" lon="16.143845830359236"><ele>524.0</ele><time>2026-04-27T11:06:49.999Z</time></trkpt><trkpt lat="39.18012209894527" lon="16.1439117708999"><ele>524.0</ele><time>2026-04-27T11:06:50.999Z</time></trkpt><trkpt lat="39.17998000552434" lon="16.143968119410996"><ele>524.0</ele><time>2026-04-27T11:06:51.999Z</time></trkpt><trkpt lat="39.179859163147924" lon="16.143990714739406"><ele>524.0</ele><time>2026-04-27T11:06:52.999Z</time></trkpt><trkpt lat="39.17978241037491" lon="16.14399408747757"><ele>524.0</ele><time>2026-04-27T11:06:53.999Z</time></trkpt><trkpt lat="39.179752800581404" lon="16.144098821386144"><ele>524.0</ele><time>2026-04-27T11:06:55.999Z</time></trkpt><trkpt lat="39.17979267892938" lon="16.144172694601345"><ele>529.6</ele><time>2026-04-27T11:06:56.999Z</time></trkpt><trkpt lat="39.17986972347275" lon="16.14420530358691"><ele>535.2</ele><time>2026-04-27T11:06:57.999Z</time></trkpt><trkpt lat="39.17997808405169" lon="16.144223387535025"><ele>540.8000000000001</ele><time>2026-04-27T11:06:58.999Z</time></trkpt><trkpt lat="39.18009736610591" lon="16.144272308209494"><ele>546.4</ele><time>2026-04-27T11:06:59.999Z</time></trkpt><trkpt lat="39.180218027144" lon="16.14432188607804"><ele>552.0</ele><time>2026-04-27T11:07:00.999Z</time></trkpt><trkpt lat="39.18034153849914" lon="16.14434266627258"><ele>552.0</ele><time>2026-04-27T11:07:01.999Z</time></trkpt><trkpt lat="39.180439068926184" lon="16.144351604919486"><ele>552.0</ele><time>2026-04-27T11:07:02.999Z</time></trkpt><trkpt lat="39.180511197132006" lon="16.14435504919406"><ele>552.0</ele><time>2026-04-27T11:07:03.999Z</time></trkpt><trkpt lat="39.18048466153907" lon="16.1445067709989"><ele>552.0</ele><time>2026-04-27T11:07:06.999Z</time></trkpt><trkpt lat="39.180402943458205" lon="16.14454584838876"><ele>552.0</ele><time>2026-04-27T11:07:07.999Z</time></trkpt><trkpt lat="39.18028292103467" lon="16.144559504255287"><ele>552.0</ele><time>2026-04-27T11:07:08.999Z</time></trkpt><trkpt lat="39.180153533801835" lon="16.144575890660327"><ele>552.0</ele><time>2026-04-27T11:07:09.999Z</time></trkpt><trkpt lat="39.18005662446498" lon="16.144561708388284"><ele>552.0</ele><time>2026-04-27T11:07:10.999Z</time></trkpt><trkpt lat="39.179989357211895" lon="16.14456411093102"><ele>552.0</ele><time>2026-04-27T11:07:11.999Z</time></trkpt><trkpt lat="39.17993771491965" lon="16.14461820678939"><ele>552.0</ele><time>2026-04-27T11:07:12.999Z</time></trkpt><trkpt lat="39.179923131734945" lon="16.144706568917027"><ele>552.0</ele><time>2026-04-27T11:07:13.999Z</time></trkpt><trkpt lat="39.17995263193132" lon="16.14480028589534"><ele>552.0</ele><time>2026-04-27T11:07:14.999Z</time></trkpt><trkpt lat="39.18001027907016" lon="16.144861213503734"><ele>552.0</ele><time>2026-04-27T11:07:15.999Z</time></trkpt><trkpt lat="39.180097485041266" lon="16.145020347368916"><ele>552.0</ele><time>2026-04-27T11:07:17.999Z</time></trkpt><trkpt lat="39.18012845290641" lon="16.14516107378327"><ele>552.0</ele><time>2026-04-27T11:07:18.999Z</time></trkpt><trkpt lat="39.18014330799101" lon="16.14530120004085"><ele>552.0</ele><time>2026-04-27T11:07:20Z</time></trkpt><trkpt lat="39.180123861080155" lon="16.145449148709062"><ele>555.0</ele><time>2026-04-27T11:07:21Z</time></trkpt><trkpt lat="39.180098229886944" lon="16.145597345531307"><ele>558.0</ele><time>2026-04-27T11:07:22Z</time></trkpt><trkpt lat="39.18007075887588" lon="16.14574000980236"><ele>561.0</ele><time>2026-04-27T11:07:23Z</time></trkpt><trkpt lat="39.180042991081066" lon="16.14587193323724"><ele>564.0</ele><time>2026-04-27T11:07:24Z</time></trkpt><trkpt lat="39.180022003346345" lon="16.146005441946382"><ele>567.0</ele><time>2026-04-27T11:07:25Z</time></trkpt><trkpt lat="39.18000804032986" lon="16.146140081481064"><ele>568.25</ele><time>2026-04-27T11:07:26Z</time></trkpt><trkpt lat="39.180014397742525" lon="16.146288507660593"><ele>569.5</ele><time>2026-04-27T11:07:27Z</time></trkpt><trkpt lat="39.18006185350079" lon="16.14643590617923"><ele>570.75</ele><time>2026-04-27T11:07:28Z</time></trkpt><trkpt lat="39.18010182836081" lon="16.14658960781444"><ele>572.0</ele><time>2026-04-27T11:07:29Z</time></trkpt><trkpt lat="39.18010097081122" lon="16.146723479102537"><ele>573.8333333333333</ele><time>2026-04-27T11:07:30Z</time></trkpt><trkpt lat="39.180066860354096" lon="16.146811908879947"><ele>575.6666666666666</ele><time>2026-04-27T11:07:31Z</time></trkpt><trkpt lat="39.1800077471228" lon="16.14686820775992"><ele>577.5</ele><time>2026-04-27T11:07:32Z</time></trkpt><trkpt lat="39.17992333682477" lon="16.14688859407914"><ele>579.3333333333334</ele><time>2026-04-27T11:07:33Z</time></trkpt><trkpt lat="39.17982342463022" lon="16.146857024161523"><ele>581.1666666666667</ele><time>2026-04-27T11:07:34Z</time></trkpt><trkpt lat="39.17972315995459" lon="16.146803562796755"><ele>583.0</ele><time>2026-04-27T11:07:35Z</time></trkpt><trkpt lat="39.1796133038959" lon="16.146759301833157"><ele>583.0</ele><time>2026-04-27T11:07:36Z</time></trkpt><trkpt lat="39.17949253708144" lon="16.146715670206003"><ele>583.0</ele><time>2026-04-27T11:07:37Z</time></trkpt><trkpt lat="39.17935869690516" lon="16.146647464169792"><ele>583.0</ele><time>2026-04-27T11:07:38Z</time></trkpt><trkpt lat="39.17923237062449" lon="16.146565292876236"><ele>583.0</ele><time>2026-04-27T11:07:39Z</time></trkpt><trkpt lat="39.17912400256822" lon="16.14649545326766"><ele>576.0</ele><time>2026-04-27T11:07:40Z</time></trkpt><trkpt lat="39.179001972548264" lon="16.146479064734685"><ele>569.0</ele><time>2026-04-27T11:07:41Z</time></trkpt><trkpt lat="39.17885435905845" lon="16.14649135536731"><ele>562.0</ele><time>2026-04-27T11:07:42Z</time></trkpt><trkpt lat="39.17872271319853" lon="16.146498059833185"><ele>555.0</ele><time>2026-04-27T11:07:43Z</time></trkpt><trkpt lat="39.17859910708329" lon="16.14652448287211"><ele>560.25</ele><time>2026-04-27T11:07:44Z</time></trkpt><trkpt lat="39.17847796736044" lon="16.146591972989267"><ele>565.5</ele><time>2026-04-27T11:07:45Z</time></trkpt><trkpt lat="39.17835704066612" lon="16.146693343546396"><ele>570.75</ele><time>2026-04-27T11:07:46Z</time></trkpt><trkpt lat="39.178252430078956" lon="16.14684441239627"><ele>576.0</ele><time>2026-04-27T11:07:47Z</time></trkpt><trkpt lat="39.17814732603692" lon="16.14697565820681"><ele>576.0</ele><time>2026-04-27T11:07:48Z</time></trkpt><trkpt lat="39.17803887430771" lon="16.147072696939674"><ele>576.0</ele><time>2026-04-27T11:07:49Z</time></trkpt><trkpt lat="39.17793537868348" lon="16.14714243865065"><ele>576.0</ele><time>2026-04-27T11:07:50Z</time></trkpt><trkpt lat="39.17782136108491" lon="16.147177265998803"><ele>576.0</ele><time>2026-04-27T11:07:51Z</time></trkpt><trkpt lat="39.177689985021644" lon="16.147169852456738"><ele>576.0</ele><time>2026-04-27T11:07:52Z</time></trkpt><trkpt lat="39.177541304917156" lon="16.147138194423146"><ele>576.0</ele><time>2026-04-27T11:07:53Z</time></trkpt><trkpt lat="39.17739622506832" lon="16.147101058911048"><ele>576.0</ele><time>2026-04-27T11:07:54Z</time></trkpt><trkpt lat="39.17727316525016" lon="16.147079994351213"><ele>576.0</ele><time>2026-04-27T11:07:55Z</time></trkpt><trkpt lat="39.177163417396166" lon="16.147084409699115"><ele>574.25</ele><time>2026-04-27T11:07:56Z</time></trkpt><trkpt lat="39.177043794353324" lon="16.147125903962444"><ele>572.5</ele><time>2026-04-27T11:07:57Z</time></trkpt><trkpt lat="39.176921697660696" lon="16.147222966529956"><ele>570.75</ele><time>2026-04-27T11:07:58Z</time></trkpt><trkpt lat="39.17679547881325" lon="16.147319235755933"><ele>569.0</ele><time>2026-04-27T11:07:59Z</time></trkpt><trkpt lat="39.176670636495004" lon="16.147418895605945"><ele>572.25</ele><time>2026-04-27T11:08:00Z</time></trkpt><trkpt lat="39.17654799380118" lon="16.147527605815156"><ele>575.5</ele><time>2026-04-27T11:08:01Z</time></trkpt><trkpt lat="39.1764247511348" lon="16.147626187270905"><ele>578.75</ele><time>2026-04-27T11:08:02Z</time></trkpt><trkpt lat="39.17631858838002" lon="16.147724791208052"><ele>582.0</ele><time>2026-04-27T11:08:03Z</time></trkpt><trkpt lat="39.17622095151437" lon="16.14780821992848"><ele>582.0</ele><time>2026-04-27T11:08:04Z</time></trkpt><trkpt lat="39.17612081845584" lon="16.147887070864996"><ele>582.0</ele><time>2026-04-27T11:08:05Z</time></trkpt><trkpt lat="39.17601502291469" lon="16.147973294261714"><ele>582.0</ele><time>2026-04-27T11:08:06Z</time></trkpt><trkpt lat="39.1759110578685" lon="16.148062234783364"><ele>582.0</ele><time>2026-04-27T11:08:07Z</time></trkpt><trkpt lat="39.175806660916244" lon="16.14815255317628"><ele>584.75</ele><time>2026-04-27T11:08:08Z</time></trkpt><trkpt lat="39.17570341305744" lon="16.148258448291664"><ele>587.5</ele><time>2026-04-27T11:08:09Z</time></trkpt><trkpt lat="39.17560590143498" lon="16.14836248547327"><ele>590.25</ele><time>2026-04-27T11:08:10Z</time></trkpt><trkpt lat="39.17551696651499" lon="16.148456235110753"><ele>593.0</ele><time>2026-04-27T11:08:11Z</time></trkpt><trkpt lat="39.175433520402684" lon="16.14854331560696"><ele>593.0</ele><time>2026-04-27T11:08:12Z</time></trkpt><trkpt lat="39.17535080389194" lon="16.148621806161536"><ele>593.0</ele><time>2026-04-27T11:08:13Z</time></trkpt><trkpt lat="39.1752565233904" lon="16.14865991018697"><ele>593.0</ele><time>2026-04-27T11:08:14Z</time></trkpt><trkpt lat="39.17515095968027" lon="16.14863797216458"><ele>593.0</ele><time>2026-04-27T11:08:15Z</time></trkpt><trkpt lat="39.17501810766923" lon="16.148580581708277"><ele>593.0</ele><time>2026-04-27T11:08:16Z</time></trkpt><trkpt lat="39.17488401423939" lon="16.14852324740829"><ele>591.8</ele><time>2026-04-27T11:08:17Z</time></trkpt><trkpt lat="39.17476862843636" lon="16.148481279947998"><ele>590.5999999999999</ele><time>2026-04-27T11:08:18Z</time></trkpt><trkpt lat="39.174660122377375" lon="16.148449572592376"><ele>589.4000000000001</ele><time>2026-04-27T11:08:19Z</time></trkpt><trkpt lat="39.17456928350743" lon="16.14844165186286"><ele>588.2</ele><time>2026-04-27T11:08:20Z</time></trkpt><trkpt lat="39.17447864098957" lon="16.148452403163144"><ele>587.0</ele><time>2026-04-27T11:08:20.999Z</time></trkpt><trkpt lat="39.17438739067564" lon="16.14849316636097"><ele>587.0</ele><time>2026-04-27T11:08:21.999Z</time></trkpt><trkpt lat="39.174297589205516" lon="16.148573710817416"><ele>587.0</ele><time>2026-04-27T11:08:22.999Z</time></trkpt><trkpt lat="39.17421117547842" lon="16.148686446642262"><ele>587.0</ele><time>2026-04-27T11:08:23.999Z</time></trkpt><trkpt lat="39.17412873097283" lon="16.148825935392566"><ele>587.0</ele><time>2026-04-27T11:08:24.999Z</time></trkpt><trkpt lat="39.17403502392323" lon="16.148962003351656"><ele>590.6</ele><time>2026-04-27T11:08:25.999Z</time></trkpt><trkpt lat="39.173952217058066" lon="16.149084405467054"><ele>594.2</ele><time>2026-04-27T11:08:26.999Z</time></trkpt><trkpt lat="39.1738819031116" lon="16.149180803380403"><ele>597.8</ele><time>2026-04-27T11:08:27.999Z</time></trkpt><trkpt lat="39.17381549739975" lon="16.149241242014746"><ele>601.4</ele><time>2026-04-27T11:08:28.999Z</time></trkpt><trkpt lat="39.17373394177338" lon="16.149266309464316"><ele>605.0</ele><time>2026-04-27T11:08:29.999Z</time></trkpt><trkpt lat="39.17363247964344" lon="16.149241142395226"><ele>605.0</ele><time>2026-04-27T11:08:30.999Z</time></trkpt><trkpt lat="39.17353667268421" lon="16.149178969742568"><ele>605.0</ele><time>2026-04-27T11:08:31.999Z</time></trkpt><trkpt lat="39.17344881604218" lon="16.149066315272748"><ele>605.0</ele><time>2026-04-27T11:08:32.999Z</time></trkpt><trkpt lat="39.173379968489876" lon="16.148935405318824"><ele>605.0</ele><time>2026-04-27T11:08:33.999Z</time></trkpt><trkpt lat="39.17329980922249" lon="16.14883385435454"><ele>600.4</ele><time>2026-04-27T11:08:34.999Z</time></trkpt><trkpt lat="39.17320922108644" lon="16.148777616973526"><ele>595.8</ele><time>2026-04-27T11:08:35.999Z</time></trkpt><trkpt lat="39.17311345820239" lon="16.14874329108026"><ele>591.2</ele><time>2026-04-27T11:08:36.999Z</time></trkpt><trkpt lat="39.173021668538915" lon="16.148713268727203"><ele>586.6</ele><time>2026-04-27T11:08:37.999Z</time></trkpt><trkpt lat="39.17291732968882" lon="16.148709395768904"><ele>582.0</ele><time>2026-04-27T11:08:38.999Z</time></trkpt><trkpt lat="39.1727934580013" lon="16.14872663830012"><ele>579.25</ele><time>2026-04-27T11:08:39.999Z</time></trkpt><trkpt lat="39.17265507942494" lon="16.14876333376083"><ele>576.5</ele><time>2026-04-27T11:08:40.999Z</time></trkpt><trkpt lat="39.17252888618196" lon="16.1488000097118"><ele>573.75</ele><time>2026-04-27T11:08:41.999Z</time></trkpt><trkpt lat="39.17240300865379" lon="16.14883764801723"><ele>571.0</ele><time>2026-04-27T11:08:42.999Z</time></trkpt><trkpt lat="39.17227872680152" lon="16.14887073660812"><ele>568.25</ele><time>2026-04-27T11:08:43.999Z</time></trkpt><trkpt lat="39.172155188565874" lon="16.148903878235746"><ele>565.5</ele><time>2026-04-27T11:08:44.999Z</time></trkpt><trkpt lat="39.172032391423095" lon="16.148935616434496"><ele>562.75</ele><time>2026-04-27T11:08:45.999Z</time></trkpt><trkpt lat="39.171914273706534" lon="16.148971415203622"><ele>560.0</ele><time>2026-04-27T11:08:46.999Z</time></trkpt><trkpt lat="39.1718050150298" lon="16.14902070520149"><ele>561.8</ele><time>2026-04-27T11:08:47.999Z</time></trkpt><trkpt lat="39.17170413287872" lon="16.14907725053652"><ele>563.6</ele><time>2026-04-27T11:08:48.999Z</time></trkpt><trkpt lat="39.17161255448973" lon="16.149133265749985"><ele>565.4</ele><time>2026-04-27T11:08:49.999Z</time></trkpt><trkpt lat="39.17152228076182" lon="16.149196453602443"><ele>567.2</ele><time>2026-04-27T11:08:50.999Z</time></trkpt><trkpt lat="39.171433783311294" lon="16.14925455737662"><ele>569.0</ele><time>2026-04-27T11:08:51.999Z</time></trkpt><trkpt lat="39.17133773984801" lon="16.149292170770092"><ele>569.0</ele><time>2026-04-27T11:08:52.999Z</time></trkpt><trkpt lat="39.1712335089374" lon="16.149310456774955"><ele>569.0</ele><time>2026-04-27T11:08:53.999Z</time></trkpt><trkpt lat="39.17111907940993" lon="16.149311804610864"><ele>569.0</ele><time>2026-04-27T11:08:54.999Z</time></trkpt><trkpt lat="39.17100303024206" lon="16.14931194750851"><ele>569.0</ele><time>2026-04-27T11:08:55.999Z</time></trkpt><trkpt lat="39.17087791222786" lon="16.149319293785286"><ele>569.0</ele><time>2026-04-27T11:08:56.999Z</time></trkpt><trkpt lat="39.170744624253224" lon="16.149332144048667"><ele>569.0</ele><time>2026-04-27T11:08:57.999Z</time></trkpt><trkpt lat="39.170610345639986" lon="16.14934547708202"><ele>569.0</ele><time>2026-04-27T11:08:58.999Z</time></trkpt><trkpt lat="39.17048702664217" lon="16.149358670493324"><ele>569.0</ele><time>2026-04-27T11:08:59.999Z</time></trkpt><trkpt lat="39.17037852072003" lon="16.149370473173764"><ele>569.0</ele><time>2026-04-27T11:09:00.999Z</time></trkpt><trkpt lat="39.17028775636569" lon="16.149383426225725"><ele>569.0</ele><time>2026-04-27T11:09:01.999Z</time></trkpt><trkpt lat="39.17018364676522" lon="16.149404758476983"><ele>569.0</ele><time>2026-04-27T11:09:03.999Z</time></trkpt><trkpt lat="39.170138870873124" lon="16.149315602387993"><ele>569.0</ele><time>2026-04-27T11:09:05.999Z</time></trkpt><trkpt lat="39.17016192045955" lon="16.149232844120515"><ele>569.0</ele><time>2026-04-27T11:09:06.999Z</time></trkpt><trkpt lat="39.170209310107126" lon="16.14913499156046"><ele>569.0</ele><time>2026-04-27T11:09:07.999Z</time></trkpt><trkpt lat="39.1702464057932" lon="16.149032856032463"><ele>567.5</ele><time>2026-04-27T11:09:08.999Z</time></trkpt><trkpt lat="39.170291937515195" lon="16.14894102430279"><ele>566.0</ele><time>2026-04-27T11:09:09.999Z</time></trkpt><trkpt lat="39.17035133833622" lon="16.14886536530602"><ele>564.5</ele><time>2026-04-27T11:09:10.999Z</time></trkpt><trkpt lat="39.17040208595448" lon="16.148782334073914"><ele>563.0</ele><time>2026-04-27T11:09:11.999Z</time></trkpt><trkpt lat="39.17044329711898" lon="16.148697438166597"><ele>561.5</ele><time>2026-04-27T11:09:12.999Z</time></trkpt><trkpt lat="39.1704768485816" lon="16.148613607252496"><ele>560.0</ele><time>2026-04-27T11:09:13.999Z</time></trkpt><trkpt lat="39.170521713146236" lon="16.148539991367095"><ele>560.0</ele><time>2026-04-27T11:09:14.999Z</time></trkpt><trkpt lat="39.17058651312353" lon="16.148480328683185"><ele>560.0</ele><time>2026-04-27T11:09:15.999Z</time></trkpt><trkpt lat="39.170669235501805" lon="16.14844283969489"><ele>560.0</ele><time>2026-04-27T11:09:16.999Z</time></trkpt><trkpt lat="39.17073232934437" lon="16.148408307067434"><ele>560.0</ele><time>2026-04-27T11:09:17.999Z</time></trkpt><trkpt lat="39.17077596705959" lon="16.148347674662624"><ele>560.0</ele><time>2026-04-27T11:09:18.999Z</time></trkpt><trkpt lat="39.17079620788332" lon="16.1482676531379"><ele>560.0</ele><time>2026-04-27T11:09:19.999Z</time></trkpt><trkpt lat="39.17077416182199" lon="16.14818224503476"><ele>560.0</ele><time>2026-04-27T11:09:20.999Z</time></trkpt><trkpt lat="39.17071864500558" lon="16.148097445924705"><ele>555.2</ele><time>2026-04-27T11:09:21.999Z</time></trkpt><trkpt lat="39.17065016564579" lon="16.147997018462014"><ele>550.4</ele><time>2026-04-27T11:09:22.999Z</time></trkpt><trkpt lat="39.170597463262254" lon="16.147892229310127"><ele>545.6</ele><time>2026-04-27T11:09:23.999Z</time></trkpt><trkpt lat="39.17055335825716" lon="16.147785512493165"><ele>540.8</ele><time>2026-04-27T11:09:24.999Z</time></trkpt><trkpt lat="39.170519540866316" lon="16.14767903572738"><ele>536.0</ele><time>2026-04-27T11:09:26Z</time></trkpt><trkpt lat="39.17050118037609" lon="16.147578261545362"><ele>536.0</ele><time>2026-04-27T11:09:27Z</time></trkpt><trkpt lat="39.17048902107719" lon="16.147482783275336"><ele>536.0</ele><time>2026-04-27T11:09:28Z</time></trkpt><trkpt lat="39.17041068704698" lon="16.1473815835282"><ele>536.0</ele><time>2026-04-27T11:09:30Z</time></trkpt><trkpt lat="39.17031860242425" lon="16.147408613050064"><ele>536.0</ele><time>2026-04-27T11:09:31Z</time></trkpt><trkpt lat="39.17021688329003" lon="16.147472108516734"><ele>536.0</ele><time>2026-04-27T11:09:32Z</time></trkpt><trkpt lat="39.17012822665297" lon="16.147548498813098"><ele>536.0</ele><time>2026-04-27T11:09:33Z</time></trkpt><trkpt lat="39.17004513511314" lon="16.14761385400317"><ele>536.0</ele><time>2026-04-27T11:09:34Z</time></trkpt><trkpt lat="39.16997479995559" lon="16.147681687650827"><ele>536.0</ele><time>2026-04-27T11:09:35Z</time></trkpt><trkpt lat="39.169914253574184" lon="16.14773716046542"><ele>536.0</ele><time>2026-04-27T11:09:36Z</time></trkpt><trkpt lat="39.16982327621155" lon="16.147819081245075"><ele>536.0</ele><time>2026-04-27T11:09:38Z</time></trkpt><trkpt lat="39.169756980195515" lon="16.147807132362153"><ele>536.0</ele><time>2026-04-27T11:09:40Z</time></trkpt><trkpt lat="39.16976012259" lon="16.147677777825837"><ele>536.0</ele><time>2026-04-27T11:09:42Z</time></trkpt><trkpt lat="39.169830242273335" lon="16.14759885962495"><ele>536.0</ele><time>2026-04-27T11:09:43Z</time></trkpt><trkpt lat="39.16993881596335" lon="16.147525718870263"><ele>536.0</ele><time>2026-04-27T11:09:44Z</time></trkpt><trkpt lat="39.17005276985637" lon="16.147439445981497"><ele>536.0</ele><time>2026-04-27T11:09:45Z</time></trkpt><trkpt lat="39.17016956678983" lon="16.14733105768982"><ele>530.0</ele><time>2026-04-27T11:09:46Z</time></trkpt><trkpt lat="39.170277537163734" lon="16.1472314454143"><ele>524.0</ele><time>2026-04-27T11:09:47Z</time></trkpt><trkpt lat="39.170383247225566" lon="16.14714086439484"><ele>518.0</ele><time>2026-04-27T11:09:48Z</time></trkpt><trkpt lat="39.1704909956458" lon="16.14704770295933"><ele>512.0</ele><time>2026-04-27T11:09:49Z</time></trkpt><trkpt lat="39.170603692671136" lon="16.146950915986686"><ele>515.5</ele><time>2026-04-27T11:09:50Z</time></trkpt><trkpt lat="39.17072469224373" lon="16.146858209197894"><ele>519.0</ele><time>2026-04-27T11:09:51Z</time></trkpt><trkpt lat="39.17084737983463" lon="16.146775737127502"><ele>522.5</ele><time>2026-04-27T11:09:52Z</time></trkpt><trkpt lat="39.170967693130784" lon="16.146695299167494"><ele>526.0</ele><time>2026-04-27T11:09:53Z</time></trkpt><trkpt lat="39.171082480602365" lon="16.146616684136077"><ele>526.0</ele><time>2026-04-27T11:09:54Z</time></trkpt><trkpt lat="39.17120020691401" lon="16.146545834575544"><ele>526.0</ele><time>2026-04-27T11:09:55Z</time></trkpt><trkpt lat="39.17131864881714" lon="16.146480314896152"><ele>526.0</ele><time>2026-04-27T11:09:56Z</time></trkpt><trkpt lat="39.1714339939137" lon="16.14642030899347"><ele>526.0</ele><time>2026-04-27T11:09:57Z</time></trkpt><trkpt lat="39.17154777720474" lon="16.146370673877875"><ele>524.6</ele><time>2026-04-27T11:09:58Z</time></trkpt><trkpt lat="39.17164816992309" lon="16.14632817604185"><ele>523.2</ele><time>2026-04-27T11:09:59Z</time></trkpt><trkpt lat="39.17174346125703" lon="16.14630359259556"><ele>521.8</ele><time>2026-04-27T11:10:00Z</time></trkpt><trkpt lat="39.17183590340169" lon="16.146277457592667"><ele>520.4</ele><time>2026-04-27T11:10:01Z</time></trkpt><trkpt lat="39.17192159157197" lon="16.14625139886379"><ele>519.0</ele><time>2026-04-27T11:10:02Z</time></trkpt><trkpt lat="39.1719962635353" lon="16.14622358522232"><ele>519.0</ele><time>2026-04-27T11:10:03Z</time></trkpt><trkpt lat="39.172063930687266" lon="16.146204039189044"><ele>519.0</ele><time>2026-04-27T11:10:04Z</time></trkpt><trkpt lat="39.172130439455806" lon="16.146191141154343"><ele>519.0</ele><time>2026-04-27T11:10:05Z</time></trkpt><trkpt lat="39.172206171510574" lon="16.146177514302384"><ele>519.0</ele><time>2026-04-27T11:10:07Z</time></trkpt><trkpt lat="39.17228265263034" lon="16.146186920339915"><ele>519.0</ele><time>2026-04-27T11:10:39.999Z</time></trkpt><trkpt lat="39.17235623131614" lon="16.14617891621859"><ele>519.0</ele><time>2026-04-27T11:10:40.999Z</time></trkpt><trkpt lat="39.17246964723075" lon="16.146169887238685"><ele>517.5</ele><time>2026-04-27T11:10:41.999Z</time></trkpt><trkpt lat="39.17258743294518" lon="16.146157407509545"><ele>516.0</ele><time>2026-04-27T11:10:42.999Z</time></trkpt><trkpt lat="39.1727235929675" lon="16.146135563040975"><ele>514.5</ele><time>2026-04-27T11:10:43.999Z</time></trkpt><trkpt lat="39.17288505819459" lon="16.146102811721395"><ele>513.0</ele><time>2026-04-27T11:10:44.999Z</time></trkpt><trkpt lat="39.17306407353228" lon="16.146066187197825"><ele>510.66666666666663</ele><time>2026-04-27T11:10:45.999Z</time></trkpt><trkpt lat="39.17323288573631" lon="16.14603829657187"><ele>508.3333333333333</ele><time>2026-04-27T11:10:46.999Z</time></trkpt><trkpt lat="39.17339496692139" lon="16.14600722926993"><ele>506.0</ele><time>2026-04-27T11:10:47.999Z</time></trkpt><trkpt lat="39.173560182502925" lon="16.14596033829597"><ele>506.0</ele><time>2026-04-27T11:10:48.999Z</time></trkpt><trkpt lat="39.17372638954301" lon="16.145883622663224"><ele>506.0</ele><time>2026-04-27T11:10:49.999Z</time></trkpt><trkpt lat="39.17389523151474" lon="16.14577975263643"><ele>506.0</ele><time>2026-04-27T11:10:50.999Z</time></trkpt><trkpt lat="39.17404360868488" lon="16.145669052504406"><ele>503.0</ele><time>2026-04-27T11:10:51.999Z</time></trkpt><trkpt lat="39.17417497732626" lon="16.145550199557963"><ele>500.0</ele><time>2026-04-27T11:10:52.999Z</time></trkpt><trkpt lat="39.174293462723284" lon="16.145422336325883"><ele>497.0</ele><time>2026-04-27T11:10:53.999Z</time></trkpt><trkpt lat="39.174393843213544" lon="16.1453032119672"><ele>497.0</ele><time>2026-04-27T11:10:54.999Z</time></trkpt><trkpt lat="39.17448227935053" lon="16.14519541429646"><ele>497.00000000000006</ele><time>2026-04-27T11:10:55.999Z</time></trkpt><trkpt lat="39.17456192361745" lon="16.145099881397787"><ele>497.00000000000006</ele><time>2026-04-27T11:10:56.999Z</time></trkpt><trkpt lat="39.17463365746976" lon="16.145017428638884"><ele>497.0</ele><time>2026-04-27T11:10:57.999Z</time></trkpt><trkpt lat="39.174703853827076" lon="16.14494327258478"><ele>497.0</ele><time>2026-04-27T11:10:58.999Z</time></trkpt><trkpt lat="39.17477329177606" lon="16.144869018928127"><ele>495.49999999999994</ele><time>2026-04-27T11:10:59.999Z</time></trkpt><trkpt lat="39.17484091576415" lon="16.144791972446093"><ele>494.0</ele><time>2026-04-27T11:11:00.999Z</time></trkpt><trkpt lat="39.17489961825493" lon="16.144724424655074"><ele>492.5</ele><time>2026-04-27T11:11:01.999Z</time></trkpt><trkpt lat="39.17497771864408" lon="16.144643274068617"><ele>491.0</ele><time>2026-04-27T11:11:03.999Z</time></trkpt><trkpt lat="39.17504046709263" lon="16.1446646860952"><ele>489.49999999999994</ele><time>2026-04-27T11:11:06.999Z</time></trkpt><trkpt lat="39.175023678155405" lon="16.14474945837814"><ele>488.0</ele><time>2026-04-27T11:11:08.999Z</time></trkpt><trkpt lat="39.1749562217837" lon="16.144800705508406"><ele>487.99999999999994</ele><time>2026-04-27T11:11:11.999Z</time></trkpt><trkpt lat="39.17487899487275" lon="16.14484766355476"><ele>488.0</ele><time>2026-04-27T11:12:10Z</time></trkpt><trkpt lat="39.174900674123904" lon="16.144940823131112"><ele>487.99999999999994</ele><time>2026-04-27T11:17:40.999Z</time></trkpt><trkpt lat="39.174847495708406" lon="16.14498444934946"><ele>487.99999999999994</ele><time>2026-04-27T11:17:58Z</time></trkpt><trkpt lat="39.17478426798033" lon="16.144975419858913"><ele>488.0</ele><time>2026-04-27T11:18:03Z</time></trkpt><trkpt lat="39.1747440785166" lon="16.14489668069727"><ele>487.99999999999994</ele><time>2026-04-27T11:36:04.999Z</time></trkpt><trkpt lat="39.17474054120314" lon="16.144981568377005"><ele>487.99999999999994</ele><time>2026-04-27T11:36:20.999Z</time></trkpt><trkpt lat="39.17488408096448" lon="16.144954812666967"><ele>489.49999999999994</ele><time>2026-04-27T11:43:47.999Z</time></trkpt><trkpt lat="39.17478663146933" lon="16.145022503798117"><ele>491.0</ele><time>2026-04-27T11:52:18Z</time></trkpt><trkpt lat="39.17483361265543" lon="16.144961072811423"><ele>492.5</ele><time>2026-04-27T11:59:06Z</time></trkpt><trkpt lat="39.17489103334355" lon="16.145002645876577"><ele>494.0</ele><time>2026-04-27T12:09:46Z</time></trkpt><trkpt lat="39.17496335611621" lon="16.145025717338914"><ele>495.49999999999994</ele><time>2026-04-27T12:11:12Z</time></trkpt><trkpt lat="39.17501601116916" lon="16.144980577445487"><ele>497.0</ele><time>2026-04-27T12:12:31.001Z</time></trkpt><trkpt lat="39.17508146045968" lon="16.144902874349857"><ele>495.49999999999994</ele><time>2026-04-27T12:12:33.001Z</time></trkpt><trkpt lat="39.17509360104022" lon="16.144769551378722"><ele>494.0</ele><time>2026-04-27T12:12:36.001Z</time></trkpt><trkpt lat="39.175098405702514" lon="16.144680443403285"><ele>492.5</ele><time>2026-04-27T12:12:38.001Z</time></trkpt><trkpt lat="39.1750164900972" lon="16.144660182457983"><ele>491.0</ele><time>2026-04-27T12:12:41Z</time></trkpt><trkpt lat="39.174941262129096" lon="16.144736105924363"><ele>489.49999999999994</ele><time>2026-04-27T12:12:44Z</time></trkpt><trkpt lat="39.17487100472453" lon="16.144797899744812"><ele>488.0</ele><time>2026-04-27T12:12:46Z</time></trkpt><trkpt lat="39.17475283055323" lon="16.144857935822966"><ele>489.49999999999994</ele><time>2026-04-27T12:12:48Z</time></trkpt><trkpt lat="39.17466214257941" lon="16.144946707708947"><ele>491.0</ele><time>2026-04-27T12:12:50Z</time></trkpt><trkpt lat="39.17460271331067" lon="16.145005789027046"><ele>492.5</ele><time>2026-04-27T12:12:52Z</time></trkpt><trkpt lat="39.17452970161247" lon="16.145048634216945"><ele>494.0</ele><time>2026-04-27T12:14:02Z</time></trkpt><trkpt lat="39.17448065307102" lon="16.14510846927488"><ele>495.49999999999994</ele><time>2026-04-27T12:14:03Z</time></trkpt><trkpt lat="39.17442361116245" lon="16.145179103582272"><ele>497.0</ele><time>2026-04-27T12:14:04Z</time></trkpt><trkpt lat="39.174361289102876" lon="16.14525390979201"><ele>497.0</ele><time>2026-04-27T12:14:05Z</time></trkpt><trkpt lat="39.174294929739204" lon="16.14532786079551"><ele>497.00000000000006</ele><time>2026-04-27T12:14:06Z</time></trkpt><trkpt lat="39.17422200472899" lon="16.145408918764957"><ele>497.00000000000006</ele><time>2026-04-27T12:14:07Z</time></trkpt><trkpt lat="39.174136243219756" lon="16.145497803864206"><ele>497.0</ele><time>2026-04-27T12:14:08Z</time></trkpt><trkpt lat="39.174044634025215" lon="16.145583107914305"><ele>497.0</ele><time>2026-04-27T12:14:09Z</time></trkpt><trkpt lat="39.173945652483624" lon="16.145669700694707"><ele>499.25</ele><time>2026-04-27T12:14:10Z</time></trkpt><trkpt lat="39.173831268450634" lon="16.145745350602645"><ele>501.5</ele><time>2026-04-27T12:14:11Z</time></trkpt><trkpt lat="39.173715278600774" lon="16.14581627591291"><ele>503.75</ele><time>2026-04-27T12:14:12Z</time></trkpt><trkpt lat="39.173608583817064" lon="16.145872794668367"><ele>506.0</ele><time>2026-04-27T12:14:13Z</time></trkpt><trkpt lat="39.17348810223335" lon="16.145915985804503"><ele>506.0</ele><time>2026-04-27T12:14:14Z</time></trkpt><trkpt lat="39.173370021005404" lon="16.14595656826439"><ele>506.0</ele><time>2026-04-27T12:14:15Z</time></trkpt><trkpt lat="39.1732383581734" lon="16.145992646696335"><ele>506.0</ele><time>2026-04-27T12:14:16Z</time></trkpt><trkpt lat="39.17307436557038" lon="16.146024075826155"><ele>506.0</ele><time>2026-04-27T12:14:17Z</time></trkpt><trkpt lat="39.17287513083097" lon="16.146049242103672"><ele>509.5</ele><time>2026-04-27T12:14:18Z</time></trkpt><trkpt lat="39.17264759181068" lon="16.1460807798594"><ele>513.0</ele><time>2026-04-27T12:14:19Z</time></trkpt><trkpt lat="39.172419689293946" lon="16.14612394800123"><ele>515.0</ele><time>2026-04-27T12:14:20Z</time></trkpt><trkpt lat="39.172228102430985" lon="16.146163331362796"><ele>517.0</ele><time>2026-04-27T12:14:21Z</time></trkpt><trkpt lat="39.17206489166472" lon="16.146187678419576"><ele>519.0</ele><time>2026-04-27T12:14:22Z</time></trkpt><trkpt lat="39.17189522112635" lon="16.14622314636556"><ele>519.0</ele><time>2026-04-27T12:14:23Z</time></trkpt><trkpt lat="39.17173254684236" lon="16.146268244716108"><ele>519.0</ele><time>2026-04-27T12:14:24Z</time></trkpt><trkpt lat="39.17159539455617" lon="16.146325779974003"><ele>519.0</ele><time>2026-04-27T12:14:25Z</time></trkpt><trkpt lat="39.17145155265566" lon="16.146398371268788"><ele>521.3333333333334</ele><time>2026-04-27T12:14:26Z</time></trkpt><trkpt lat="39.17127756336225" lon="16.146489833644004"><ele>523.6666666666667</ele><time>2026-04-27T12:14:27Z</time></trkpt><trkpt lat="39.17107040401598" lon="16.14659863121948"><ele>526.0</ele><time>2026-04-27T12:14:28Z</time></trkpt><trkpt lat="39.17087824306002" lon="16.14670855795799"><ele>526.0</ele><time>2026-04-27T12:14:29.001Z</time></trkpt><trkpt lat="39.17071417818693" lon="16.146824481307444"><ele>526.0</ele><time>2026-04-27T12:14:30.001Z</time></trkpt><trkpt lat="39.17055580741891" lon="16.146948721486353"><ele>526.0</ele><time>2026-04-27T12:14:31.001Z</time></trkpt><trkpt lat="39.17042384525667" lon="16.147069944432136"><ele>529.3333333333334</ele><time>2026-04-27T12:14:32.001Z</time></trkpt><trkpt lat="39.17028611220424" lon="16.147194687178473"><ele>532.6666666666666</ele><time>2026-04-27T12:14:33.001Z</time></trkpt><trkpt lat="39.17014002124397" lon="16.147324231992286"><ele>536.0</ele><time>2026-04-27T12:14:34.001Z</time></trkpt><trkpt lat="39.16999382912292" lon="16.147453903949643"><ele>529.3333333333333</ele><time>2026-04-27T12:14:35.001Z</time></trkpt><trkpt lat="39.16984490276468" lon="16.147589291507217"><ele>522.6666666666666</ele><time>2026-04-27T12:14:36.001Z</time></trkpt><trkpt lat="39.16970079498077" lon="16.14773574245066"><ele>516.0</ele><time>2026-04-27T12:14:37.001Z</time></trkpt><trkpt lat="39.16954962992927" lon="16.14787878349915"><ele>516.0</ele><time>2026-04-27T12:14:38.001Z</time></trkpt><trkpt lat="39.169417111737104" lon="16.148048168586204"><ele>516.0</ele><time>2026-04-27T12:14:39.001Z</time></trkpt><trkpt lat="39.16929946743398" lon="16.148222670620047"><ele>516.0</ele><time>2026-04-27T12:14:40.001Z</time></trkpt><trkpt lat="39.16919530487217" lon="16.14840140446942"><ele>513.0</ele><time>2026-04-27T12:14:41.001Z</time></trkpt><trkpt lat="39.16910068553395" lon="16.14858080017842"><ele>510.0</ele><time>2026-04-27T12:14:42.001Z</time></trkpt><trkpt lat="39.169008180897556" lon="16.14877878137467"><ele>507.0</ele><time>2026-04-27T12:14:43.001Z</time></trkpt><trkpt lat="39.16892308375653" lon="16.149004773476992"><ele>510.0</ele><time>2026-04-27T12:14:44.001Z</time></trkpt><trkpt lat="39.16885028720049" lon="16.149235108389675"><ele>513.0</ele><time>2026-04-27T12:14:45.001Z</time></trkpt><trkpt lat="39.16878060494929" lon="16.14946415808081"><ele>516.0</ele><time>2026-04-27T12:14:46.001Z</time></trkpt><trkpt lat="39.16871337033084" lon="16.149693766439057"><ele>517.0</ele><time>2026-04-27T12:14:47.001Z</time></trkpt><trkpt lat="39.16864792135581" lon="16.149924127453918"><ele>518.0</ele><time>2026-04-27T12:14:48.001Z</time></trkpt><trkpt lat="39.168582026186144" lon="16.150154959420032"><ele>519.0</ele><time>2026-04-27T12:14:49Z</time></trkpt><trkpt lat="39.16851563407336" lon="16.15038753218394"><ele>519.0</ele><time>2026-04-27T12:14:50Z</time></trkpt><trkpt lat="39.16844832525715" lon="16.150623316180976"><ele>519.0</ele><time>2026-04-27T12:14:51Z</time></trkpt><trkpt lat="39.1683754019935" lon="16.15087925342643"><ele>519.0</ele><time>2026-04-27T12:14:52Z</time></trkpt><trkpt lat="39.16829915949601" lon="16.151147477030236"><ele>522.0</ele><time>2026-04-27T12:14:53Z</time></trkpt><trkpt lat="39.168229709049776" lon="16.151391805975095"><ele>525.0</ele><time>2026-04-27T12:14:54Z</time></trkpt><trkpt lat="39.16816553338303" lon="16.151614680331456"><ele>528.0</ele><time>2026-04-27T12:14:55Z</time></trkpt><trkpt lat="39.1681064580605" lon="16.151818961887635"><ele>521.0</ele><time>2026-04-27T12:14:56Z</time></trkpt><trkpt lat="39.16805121145494" lon="16.152009444325078"><ele>514.0</ele><time>2026-04-27T12:14:57Z</time></trkpt><trkpt lat="39.16799674954957" lon="16.152197780479856"><ele>507.0</ele><time>2026-04-27T12:14:58Z</time></trkpt><trkpt lat="39.167945143486605" lon="16.152377415821256"><ele>506.25</ele><time>2026-04-27T12:14:59Z</time></trkpt><trkpt lat="39.16789539052275" lon="16.152556154344808"><ele>505.5</ele><time>2026-04-27T12:15:00Z</time></trkpt><trkpt lat="39.167843724433226" lon="16.15273374697634"><ele>504.75</ele><time>2026-04-27T12:15:01Z</time></trkpt><trkpt lat="39.167784623254775" lon="16.152905506137387"><ele>504.0</ele><time>2026-04-27T12:15:02Z</time></trkpt><trkpt lat="39.167714476494496" lon="16.153081491432225"><ele>510.0</ele><time>2026-04-27T12:15:03Z</time></trkpt><trkpt lat="39.16764671375409" lon="16.153269978544248"><ele>516.0</ele><time>2026-04-27T12:15:04Z</time></trkpt><trkpt lat="39.16754590532109" lon="16.153445116247287"><ele>522.0</ele><time>2026-04-27T12:15:05Z</time></trkpt><trkpt lat="39.16743710527962" lon="16.153622417002172"><ele>521.6666666666666</ele><time>2026-04-27T12:15:06Z</time></trkpt><trkpt lat="39.16731468224711" lon="16.15378986266926"><ele>521.3333333333333</ele><time>2026-04-27T12:15:07Z</time></trkpt><trkpt lat="39.16718207582348" lon="16.15394661325048"><ele>521.0</ele><time>2026-04-27T12:15:08Z</time></trkpt><trkpt lat="39.167046077060135" lon="16.154095972828024"><ele>526.6666666666666</ele><time>2026-04-27T12:15:09Z</time></trkpt><trkpt lat="39.166905365037366" lon="16.154237171771175"><ele>532.3333333333334</ele><time>2026-04-27T12:15:10Z</time></trkpt><trkpt lat="39.166761335365884" lon="16.154364735995546"><ele>538.0</ele><time>2026-04-27T12:15:11Z</time></trkpt><trkpt lat="39.16661382644528" lon="16.154467149726216"><ele>535.6666666666667</ele><time>2026-04-27T12:15:12Z</time></trkpt><trkpt lat="39.16646506506201" lon="16.154553108732777"><ele>533.3333333333334</ele><time>2026-04-27T12:15:13Z</time></trkpt><trkpt lat="39.16631447101377" lon="16.154630508950405"><ele>531.0</ele><time>2026-04-27T12:15:14Z</time></trkpt><trkpt lat="39.16616040324815" lon="16.154706586912436"><ele>531.0</ele><time>2026-04-27T12:15:15Z</time></trkpt><trkpt lat="39.166007172625996" lon="16.15478157080721"><ele>531.0</ele><time>2026-04-27T12:15:16Z</time></trkpt><trkpt lat="39.16585571738662" lon="16.154853243713575"><ele>531.0</ele><time>2026-04-27T12:15:17Z</time></trkpt><trkpt lat="39.16569918671757" lon="16.154928068265185"><ele>537.0</ele><time>2026-04-27T12:15:18Z</time></trkpt><trkpt lat="39.165536084406554" lon="16.155007960774654"><ele>543.0</ele><time>2026-04-27T12:15:19Z</time></trkpt><trkpt lat="39.16536830965991" lon="16.15509233949725"><ele>549.0</ele><time>2026-04-27T12:15:20Z</time></trkpt><trkpt lat="39.16519594219862" lon="16.155176411114574"><ele>549.0</ele><time>2026-04-27T12:15:21Z</time></trkpt><trkpt lat="39.165022269702604" lon="16.155261155212987"><ele>549.0</ele><time>2026-04-27T12:15:22Z</time></trkpt><trkpt lat="39.16485382900575" lon="16.1553428449104"><ele>549.0</ele><time>2026-04-27T12:15:23Z</time></trkpt><trkpt lat="39.16469935389141" lon="16.155418883793065"><ele>546.75</ele><time>2026-04-27T12:15:24Z</time></trkpt><trkpt lat="39.164548140256315" lon="16.155499034232996"><ele>544.5</ele><time>2026-04-27T12:15:25Z</time></trkpt><trkpt lat="39.16440961600562" lon="16.155574598874196"><ele>542.25</ele><time>2026-04-27T12:15:26Z</time></trkpt><trkpt lat="39.16428454083216" lon="16.155634073103226"><ele>540.0</ele><time>2026-04-27T12:15:27Z</time></trkpt><trkpt lat="39.164160642893584" lon="16.155689540108607"><ele>544.5</ele><time>2026-04-27T12:15:28Z</time></trkpt><trkpt lat="39.16403502964484" lon="16.155746214427495"><ele>549.0</ele><time>2026-04-27T12:15:29Z</time></trkpt><trkpt lat="39.16390587225902" lon="16.15579356514433"><ele>553.5</ele><time>2026-04-27T12:15:30Z</time></trkpt><trkpt lat="39.163787061284694" lon="16.155839047939967"><ele>558.0</ele><time>2026-04-27T12:15:31Z</time></trkpt><trkpt lat="39.16367893407283" lon="16.155846628408035"><ele>560.25</ele><time>2026-04-27T12:15:32Z</time></trkpt><trkpt lat="39.16355251336466" lon="16.15583708651783"><ele>562.5</ele><time>2026-04-27T12:15:33Z</time></trkpt><trkpt lat="39.16342968917396" lon="16.155810159586704"><ele>564.75</ele><time>2026-04-27T12:15:34Z</time></trkpt><trkpt lat="39.16332327327379" lon="16.15564908229709"><ele>567.0</ele><time>2026-04-27T12:15:35Z</time></trkpt><trkpt lat="39.16324699981264" lon="16.15549282916376"><ele>565.0</ele><time>2026-04-27T12:15:36Z</time></trkpt><trkpt lat="39.16317730607224" lon="16.155319647675054"><ele>563.0</ele><time>2026-04-27T12:15:37Z</time></trkpt><trkpt lat="39.16310693763778" lon="16.155175216690168"><ele>561.0</ele><time>2026-04-27T12:15:38Z</time></trkpt><trkpt lat="39.163023022781275" lon="16.15505517843704"><ele>559.0</ele><time>2026-04-27T12:15:39Z</time></trkpt><trkpt lat="39.162907340084914" lon="16.154970128622505"><ele>559.0</ele><time>2026-04-27T12:15:40Z</time></trkpt><trkpt lat="39.16278455419635" lon="16.154893044525686"><ele>559.0</ele><time>2026-04-27T12:15:41Z</time></trkpt><trkpt lat="39.16267796807883" lon="16.154845327785925"><ele>559.0</ele><time>2026-04-27T12:15:42Z</time></trkpt><trkpt lat="39.16257098146684" lon="16.154792867415324"><ele>559.0</ele><time>2026-04-27T12:15:43Z</time></trkpt><trkpt lat="39.162471177119336" lon="16.154698372071365"><ele>556.4</ele><time>2026-04-27T12:15:44Z</time></trkpt><trkpt lat="39.1623987022248" lon="16.15460327005785"><ele>553.8</ele><time>2026-04-27T12:15:45Z</time></trkpt><trkpt lat="39.16231985432351" lon="16.154544073982816"><ele>551.2</ele><time>2026-04-27T12:15:46Z</time></trkpt><trkpt lat="39.16221461752194" lon="16.154508038915125"><ele>548.6</ele><time>2026-04-27T12:15:47Z</time></trkpt><trkpt lat="39.16207308947821" lon="16.154509720740354"><ele>546.0</ele><time>2026-04-27T12:15:48Z</time></trkpt><trkpt lat="39.16193889455483" lon="16.15452857246039"><ele>546.0</ele><time>2026-04-27T12:15:49Z</time></trkpt><trkpt lat="39.16180765971703" lon="16.154556980093794"><ele>546.0</ele><time>2026-04-27T12:15:50Z</time></trkpt><trkpt lat="39.16168142302024" lon="16.1545833560976"><ele>546.0</ele><time>2026-04-27T12:15:51Z</time></trkpt><trkpt lat="39.16156102236013" lon="16.154625923209867"><ele>546.0</ele><time>2026-04-27T12:15:52Z</time></trkpt><trkpt lat="39.16145070296015" lon="16.15462310054172"><ele>548.25</ele><time>2026-04-27T12:15:53Z</time></trkpt><trkpt lat="39.16133780521928" lon="16.15459784929403"><ele>550.5</ele><time>2026-04-27T12:15:54Z</time></trkpt><trkpt lat="39.16122050003775" lon="16.154522203467984"><ele>552.75</ele><time>2026-04-27T12:15:55Z</time></trkpt><trkpt lat="39.161087964008736" lon="16.154443135454283"><ele>555.0</ele><time>2026-04-27T12:15:56Z</time></trkpt><trkpt lat="39.16095728819701" lon="16.154396271731482"><ele>555.0</ele><time>2026-04-27T12:15:57Z</time></trkpt><trkpt lat="39.16082654971141" lon="16.15434151267207"><ele>555.0</ele><time>2026-04-27T12:15:58Z</time></trkpt><trkpt lat="39.160693562452124" lon="16.154262609418865"><ele>555.0</ele><time>2026-04-27T12:15:59Z</time></trkpt><trkpt lat="39.16058831503739" lon="16.154133420908448"><ele>555.0</ele><time>2026-04-27T12:16:00Z</time></trkpt><trkpt lat="39.16048593454421" lon="16.15401837788147"><ele>555.75</ele><time>2026-04-27T12:16:01Z</time></trkpt><trkpt lat="39.16034387777853" lon="16.153939354276922"><ele>556.5</ele><time>2026-04-27T12:16:02Z</time></trkpt><trkpt lat="39.160206128407374" lon="16.15389310733247"><ele>557.25</ele><time>2026-04-27T12:16:03Z</time></trkpt><trkpt lat="39.160081898168634" lon="16.15384438696262"><ele>558.0</ele><time>2026-04-27T12:16:04Z</time></trkpt><trkpt lat="39.15998925653503" lon="16.15378551526912"><ele>558.0</ele><time>2026-04-27T12:16:05Z</time></trkpt><trkpt lat="39.159907143632886" lon="16.153733890710168"><ele>558.0</ele><time>2026-04-27T12:16:06Z</time></trkpt><trkpt lat="39.15983698506482" lon="16.153662153910663"><ele>558.0</ele><time>2026-04-27T12:16:07Z</time></trkpt><trkpt lat="39.15980448108096" lon="16.153523232762236"><ele>558.0</ele><time>2026-04-27T12:16:08Z</time></trkpt><trkpt lat="39.159727266372755" lon="16.15341102329899"><ele>558.0</ele><time>2026-04-27T12:16:09Z</time></trkpt><trkpt lat="39.15963890387857" lon="16.153322774574445"><ele>560.6</ele><time>2026-04-27T12:16:10Z</time></trkpt><trkpt lat="39.1595363705472" lon="16.153249680658845"><ele>563.1999999999999</ele><time>2026-04-27T12:16:11Z</time></trkpt><trkpt lat="39.15943927867697" lon="16.153251953540227"><ele>565.8</ele><time>2026-04-27T12:16:12Z</time></trkpt><trkpt lat="39.15932228611607" lon="16.153236683380257"><ele>568.4</ele><time>2026-04-27T12:16:13Z</time></trkpt><trkpt lat="39.159213828788566" lon="16.153179289617952"><ele>571.0</ele><time>2026-04-27T12:16:14Z</time></trkpt><trkpt lat="39.159179024514906" lon="16.153007225720167"><ele>571.0</ele><time>2026-04-27T12:16:15Z</time></trkpt><trkpt lat="39.15911111980264" lon="16.152884153600013"><ele>571.0</ele><time>2026-04-27T12:16:16Z</time></trkpt><trkpt lat="39.15901557673123" lon="16.15276620168668"><ele>571.0</ele><time>2026-04-27T12:16:17Z</time></trkpt><trkpt lat="39.15892252011523" lon="16.152679711557834"><ele>571.0</ele><time>2026-04-27T12:16:18Z</time></trkpt><trkpt lat="39.158796682197945" lon="16.15256743687793"><ele>573.0</ele><time>2026-04-27T12:16:19Z</time></trkpt><trkpt lat="39.158686555989846" lon="16.152489948816974"><ele>575.0</ele><time>2026-04-27T12:16:20Z</time></trkpt><trkpt lat="39.15858892838863" lon="16.152473397862707"><ele>577.0</ele><time>2026-04-27T12:16:21Z</time></trkpt><trkpt lat="39.15842609118483" lon="16.152464893846734"><ele>579.0</ele><time>2026-04-27T12:16:22Z</time></trkpt><trkpt lat="39.15827891245897" lon="16.15247546881665"><ele>578.75</ele><time>2026-04-27T12:16:23Z</time></trkpt><trkpt lat="39.15811225319648" lon="16.152482658973373"><ele>578.5</ele><time>2026-04-27T12:16:24Z</time></trkpt><trkpt lat="39.157957399060074" lon="16.152488892381296"><ele>578.25</ele><time>2026-04-27T12:16:25Z</time></trkpt><trkpt lat="39.1578545976646" lon="16.152474889537977"><ele>578.0</ele><time>2026-04-27T12:16:26Z</time></trkpt><trkpt lat="39.15773918292967" lon="16.152492129446035"><ele>578.0</ele><time>2026-04-27T12:16:27Z</time></trkpt><trkpt lat="39.15765445813222" lon="16.152546820071226"><ele>578.0</ele><time>2026-04-27T12:16:28Z</time></trkpt><trkpt lat="39.15758325690644" lon="16.152615177105265"><ele>578.0</ele><time>2026-04-27T12:16:29Z</time></trkpt><trkpt lat="39.157514798242765" lon="16.152640692397398"><ele>578.0</ele><time>2026-04-27T12:16:30Z</time></trkpt><trkpt lat="39.1573856064817" lon="16.152692903463496"><ele>578.0</ele><time>2026-04-27T12:16:32Z</time></trkpt><trkpt lat="39.15726944527495" lon="16.152615856574094"><ele>576.0</ele><time>2026-04-27T12:16:34Z</time></trkpt><trkpt lat="39.157077861140614" lon="16.152653148261837"><ele>574.0</ele><time>2026-04-27T12:16:35.001Z</time></trkpt><trkpt lat="39.1570877684467" lon="16.15256502457858"><ele>572.0</ele><time>2026-04-27T12:16:36.001Z</time></trkpt><trkpt lat="39.15699966349126" lon="16.152456565694877"><ele>570.0</ele><time>2026-04-27T12:16:37.001Z</time></trkpt><trkpt lat="39.15693610252748" lon="16.15236883464482"><ele>570.0</ele><time>2026-04-27T12:16:38.001Z</time></trkpt><trkpt lat="39.15687085701557" lon="16.152284923776516"><ele>570.0</ele><time>2026-04-27T12:16:39.001Z</time></trkpt><trkpt lat="39.15676939702381" lon="16.15222938780161"><ele>570.0</ele><time>2026-04-27T12:16:41.001Z</time></trkpt><trkpt lat="39.15661033760015" lon="16.152280493100378"><ele>570.0</ele><time>2026-04-27T12:16:43.001Z</time></trkpt><trkpt lat="39.156574138497405" lon="16.152427844045665"><ele>576.25</ele><time>2026-04-27T12:16:44.001Z</time></trkpt><trkpt lat="39.15662939290208" lon="16.15260736729136"><ele>582.5</ele><time>2026-04-27T12:16:45.001Z</time></trkpt><trkpt lat="39.15667616374972" lon="16.15274409135591"><ele>588.75</ele><time>2026-04-27T12:16:46.001Z</time></trkpt><trkpt lat="39.156728113783075" lon="16.152872266652864"><ele>595.0</ele><time>2026-04-27T12:16:47.001Z</time></trkpt><trkpt lat="39.15676677381436" lon="16.1529663168883"><ele>595.0</ele><time>2026-04-27T12:16:48.001Z</time></trkpt><trkpt lat="39.15679597195153" lon="16.153050268381733"><ele>595.0</ele><time>2026-04-27T12:16:51.001Z</time></trkpt><trkpt lat="39.15670818699143" lon="16.15307989508473"><ele>595.0</ele><time>2026-04-27T12:16:52Z</time></trkpt><trkpt lat="39.156603413727666" lon="16.153030569285672"><ele>595.0</ele><time>2026-04-27T12:16:53Z</time></trkpt><trkpt lat="39.156465911201714" lon="16.153013850043003"><ele>595.0</ele><time>2026-04-27T12:16:56Z</time></trkpt><trkpt lat="39.15639517725718" lon="16.15321412829896"><ele>598.5</ele><time>2026-04-27T12:16:57Z</time></trkpt><trkpt lat="39.156358232813325" lon="16.153421929273488"><ele>602.0</ele><time>2026-04-27T12:16:58Z</time></trkpt><trkpt lat="39.15633853262033" lon="16.153560645671654"><ele>605.5</ele><time>2026-04-27T12:16:59Z</time></trkpt><trkpt lat="39.15631589614548" lon="16.15372021343915"><ele>609.0</ele><time>2026-04-27T12:17:00Z</time></trkpt><trkpt lat="39.156289122149055" lon="16.153865705941495"><ele>609.0</ele><time>2026-04-27T12:17:01Z</time></trkpt><trkpt lat="39.15626012635163" lon="16.154004040189875"><ele>609.0</ele><time>2026-04-27T12:17:02Z</time></trkpt><trkpt lat="39.15623438777384" lon="16.154125985134016"><ele>609.0</ele><time>2026-04-27T12:17:03Z</time></trkpt><trkpt lat="39.15621741529202" lon="16.154206397827327"><ele>609.0</ele><time>2026-04-27T12:17:04Z</time></trkpt><trkpt lat="39.15614985412525" lon="16.154210609836454"><ele>609.0</ele><time>2026-04-27T12:17:06Z</time></trkpt><trkpt lat="39.15609739444907" lon="16.15426968300043"><ele>609.0</ele><time>2026-04-27T12:17:07Z</time></trkpt><trkpt lat="39.15599712512028" lon="16.15430905707765"><ele>610.25</ele><time>2026-04-27T12:17:08Z</time></trkpt><trkpt lat="39.155915302485774" lon="16.154471154976164"><ele>611.5</ele><time>2026-04-27T12:17:09Z</time></trkpt><trkpt lat="39.15584832319182" lon="16.154665658184644"><ele>612.75</ele><time>2026-04-27T12:17:10Z</time></trkpt><trkpt lat="39.15579639164938" lon="16.154822135983782"><ele>614.0</ele><time>2026-04-27T12:17:11Z</time></trkpt><trkpt lat="39.15574524054107" lon="16.154976601137705"><ele>616.6666666666666</ele><time>2026-04-27T12:17:12Z</time></trkpt><trkpt lat="39.15567385392018" lon="16.155192721666"><ele>619.3333333333334</ele><time>2026-04-27T12:17:13Z</time></trkpt><trkpt lat="39.15563121000479" lon="16.155376701112793"><ele>622.0</ele><time>2026-04-27T12:17:14Z</time></trkpt><trkpt lat="39.15555711734861" lon="16.155546994549834"><ele>622.6666666666667</ele><time>2026-04-27T12:17:15Z</time></trkpt><trkpt lat="39.155492608456974" lon="16.15573872300588"><ele>623.3333333333334</ele><time>2026-04-27T12:17:16Z</time></trkpt><trkpt lat="39.15542966763323" lon="16.15592404252827"><ele>624.0</ele><time>2026-04-27T12:17:17Z</time></trkpt><trkpt lat="39.15537068933511" lon="16.15609769512581"><ele>624.0</ele><time>2026-04-27T12:17:18Z</time></trkpt><trkpt lat="39.155309264549814" lon="16.15627853987405"><ele>624.0</ele><time>2026-04-27T12:17:19Z</time></trkpt><trkpt lat="39.15525496441861" lon="16.15643800440552"><ele>624.0</ele><time>2026-04-27T12:17:20Z</time></trkpt><trkpt lat="39.1552149848335" lon="16.156555413214903"><ele>624.0</ele><time>2026-04-27T12:17:21Z</time></trkpt><trkpt lat="39.15518455812066" lon="16.156644768325968"><ele>625.75</ele><time>2026-04-27T12:17:22Z</time></trkpt><trkpt lat="39.15515257189457" lon="16.156738703227337"><ele>627.5</ele><time>2026-04-27T12:17:23Z</time></trkpt><trkpt lat="39.15526744310551" lon="16.156964858115668"><ele>629.25</ele><time>2026-04-27T12:17:24Z</time></trkpt><trkpt lat="39.15534769539629" lon="16.157090764621216"><ele>631.0</ele><time>2026-04-27T12:17:25Z</time></trkpt><trkpt lat="39.155436039149876" lon="16.157219555121063"><ele>631.0</ele><time>2026-04-27T12:17:26Z</time></trkpt><trkpt lat="39.15552558084994" lon="16.157343911116588"><ele>631.0</ele><time>2026-04-27T12:17:27Z</time></trkpt><trkpt lat="39.15561194322705" lon="16.157462571054626"><ele>631.0</ele><time>2026-04-27T12:17:28Z</time></trkpt><trkpt lat="39.15567370833871" lon="16.15755631399108"><ele>631.0</ele><time>2026-04-27T12:17:29Z</time></trkpt><trkpt lat="39.155738279641035" lon="16.157663050181448"><ele>633.2</ele><time>2026-04-27T12:17:31Z</time></trkpt><trkpt lat="39.155703213296874" lon="16.15774501976283"><ele>635.4000000000001</ele><time>2026-04-27T12:17:34Z</time></trkpt><trkpt lat="39.155601711153054" lon="16.157745898656916"><ele>637.6</ele><time>2026-04-27T12:17:35Z</time></trkpt><trkpt lat="39.15548534395234" lon="16.15775568298436"><ele>639.8000000000001</ele><time>2026-04-27T12:17:36Z</time></trkpt><trkpt lat="39.155349394221844" lon="16.15778286979503"><ele>642.0</ele><time>2026-04-27T12:17:37Z</time></trkpt><trkpt lat="39.15520729317227" lon="16.157812549541745"><ele>642.0</ele><time>2026-04-27T12:17:38Z</time></trkpt><trkpt lat="39.15507428297479" lon="16.157817209813846"><ele>642.0</ele><time>2026-04-27T12:17:39Z</time></trkpt><trkpt lat="39.15494760557988" lon="16.157861454743074"><ele>642.0</ele><time>2026-04-27T12:17:40Z</time></trkpt><trkpt lat="39.154813432765096" lon="16.157883710428802"><ele>642.0</ele><time>2026-04-27T12:17:41Z</time></trkpt><trkpt lat="39.15467504152466" lon="16.15789231971411"><ele>638.25</ele><time>2026-04-27T12:17:42Z</time></trkpt><trkpt lat="39.15454572699316" lon="16.157874970234342"><ele>634.5</ele><time>2026-04-27T12:17:43Z</time></trkpt><trkpt lat="39.15442656085125" lon="16.157844630533916"><ele>630.75</ele><time>2026-04-27T12:17:44Z</time></trkpt><trkpt lat="39.15430462841025" lon="16.15781190899365"><ele>627.0</ele><time>2026-04-27T12:17:45Z</time></trkpt><trkpt lat="39.154187546771546" lon="16.15777370988325"><ele>627.0</ele><time>2026-04-27T12:17:46Z</time></trkpt><trkpt lat="39.154092374367465" lon="16.157742620499324"><ele>627.0</ele><time>2026-04-27T12:17:47Z</time></trkpt><trkpt lat="39.15402259579608" lon="16.15772613306557"><ele>627.0</ele><time>2026-04-27T12:17:48Z</time></trkpt><trkpt lat="39.153955311565035" lon="16.157720995851683"><ele>627.0</ele><time>2026-04-27T12:17:49Z</time></trkpt><trkpt lat="39.153862284374576" lon="16.157517070909734"><ele>627.0</ele><time>2026-04-27T12:17:50Z</time></trkpt><trkpt lat="39.15378194502454" lon="16.157430769844094"><ele>623.0</ele><time>2026-04-27T12:17:51Z</time></trkpt><trkpt lat="39.15369971499159" lon="16.15736474113275"><ele>619.0</ele><time>2026-04-27T12:17:52Z</time></trkpt><trkpt lat="39.153619999363194" lon="16.157308684918064"><ele>615.0</ele><time>2026-04-27T12:17:53Z</time></trkpt><trkpt lat="39.153539932793606" lon="16.157235937519626"><ele>611.0</ele><time>2026-04-27T12:17:54Z</time></trkpt><trkpt lat="39.15345161760978" lon="16.157188464884058"><ele>607.0</ele><time>2026-04-27T12:17:55Z</time></trkpt><trkpt lat="39.15335997692857" lon="16.15717323973511"><ele>607.0</ele><time>2026-04-27T12:17:56Z</time></trkpt><trkpt lat="39.1532572952055" lon="16.157155477972694"><ele>607.0</ele><time>2026-04-27T12:17:57Z</time></trkpt><trkpt lat="39.15312987594988" lon="16.157148458532394"><ele>607.0</ele><time>2026-04-27T12:17:58Z</time></trkpt><trkpt lat="39.15297314988373" lon="16.15712815303449"><ele>607.0</ele><time>2026-04-27T12:17:59Z</time></trkpt><trkpt lat="39.15281559070889" lon="16.157142871689462"><ele>604.5</ele><time>2026-04-27T12:18:00Z</time></trkpt><trkpt lat="39.15266058990522" lon="16.15714263045936"><ele>602.0</ele><time>2026-04-27T12:18:01Z</time></trkpt><trkpt lat="39.15253330710083" lon="16.157137962614406"><ele>599.5</ele><time>2026-04-27T12:18:02Z</time></trkpt><trkpt lat="39.15241973871343" lon="16.15713829204944"><ele>597.0</ele><time>2026-04-27T12:18:03Z</time></trkpt><trkpt lat="39.15230674148893" lon="16.157146602735242"><ele>595.25</ele><time>2026-04-27T12:18:04Z</time></trkpt><trkpt lat="39.152171298738864" lon="16.15718453096133"><ele>593.5</ele><time>2026-04-27T12:18:05Z</time></trkpt><trkpt lat="39.15202948976776" lon="16.15723691204573"><ele>591.75</ele><time>2026-04-27T12:18:06Z</time></trkpt><trkpt lat="39.15190571847177" lon="16.157278897105854"><ele>590.0</ele><time>2026-04-27T12:18:07Z</time></trkpt><trkpt lat="39.151791381058864" lon="16.157307619288314"><ele>590.0</ele><time>2026-04-27T12:18:08Z</time></trkpt><trkpt lat="39.15165653806983" lon="16.15732990597872"><ele>590.0</ele><time>2026-04-27T12:18:09Z</time></trkpt><trkpt lat="39.15151906588866" lon="16.15734464883114"><ele>590.0</ele><time>2026-04-27T12:18:10Z</time></trkpt><trkpt lat="39.151390473989466" lon="16.157373996544347"><ele>590.0</ele><time>2026-04-27T12:18:11Z</time></trkpt><trkpt lat="39.15126375807292" lon="16.157401931698196"><ele>589.0</ele><time>2026-04-27T12:18:12Z</time></trkpt><trkpt lat="39.15114009473486" lon="16.157408335062104"><ele>588.0</ele><time>2026-04-27T12:18:13Z</time></trkpt><trkpt lat="39.15102283343881" lon="16.157407379898586"><ele>587.0</ele><time>2026-04-27T12:18:14Z</time></trkpt><trkpt lat="39.1509228378064" lon="16.157411846909145"><ele>586.0</ele><time>2026-04-27T12:18:15Z</time></trkpt><trkpt lat="39.150835699258046" lon="16.15740851214918"><ele>585.0</ele><time>2026-04-27T12:18:16Z</time></trkpt><trkpt lat="39.150748102275536" lon="16.15738022415727"><ele>583.4</ele><time>2026-04-27T12:18:17Z</time></trkpt><trkpt lat="39.150659672061266" lon="16.157335489913564"><ele>581.8</ele><time>2026-04-27T12:18:18Z</time></trkpt><trkpt lat="39.150569335063345" lon="16.15727545229097"><ele>580.2</ele><time>2026-04-27T12:18:19Z</time></trkpt><trkpt lat="39.1504807293211" lon="16.15717839515233"><ele>578.6</ele><time>2026-04-27T12:18:20Z</time></trkpt><trkpt lat="39.15036625145042" lon="16.157104551316646"><ele>577.0</ele><time>2026-04-27T12:18:21Z</time></trkpt><trkpt lat="39.150272569525285" lon="16.157009356801716"><ele>577.0</ele><time>2026-04-27T12:18:22Z</time></trkpt><trkpt lat="39.15019706826913" lon="16.156909393350187"><ele>577.0</ele><time>2026-04-27T12:18:23Z</time></trkpt><trkpt lat="39.150133371816494" lon="16.156794340530638"><ele>577.0</ele><time>2026-04-27T12:18:24Z</time></trkpt><trkpt lat="39.15008806211788" lon="16.156685929545315"><ele>577.0</ele><time>2026-04-27T12:18:25Z</time></trkpt><trkpt lat="39.1500370714033" lon="16.15660835154178"><ele>577.0</ele><time>2026-04-27T12:18:26Z</time></trkpt><trkpt lat="39.14997583991613" lon="16.15653818135519"><ele>576.2</ele><time>2026-04-27T12:18:27Z</time></trkpt><trkpt lat="39.14987630348807" lon="16.156527348684012"><ele>575.4000000000001</ele><time>2026-04-27T12:18:28Z</time></trkpt><trkpt lat="39.149773969405466" lon="16.156566765921465"><ele>574.5999999999999</ele><time>2026-04-27T12:18:28.999Z</time></trkpt><trkpt lat="39.14968382116493" lon="16.156608453029456"><ele>573.8</ele><time>2026-04-27T12:18:29.999Z</time></trkpt><trkpt lat="39.14960761973822" lon="16.156708570598948"><ele>573.0</ele><time>2026-04-27T12:18:30.999Z</time></trkpt><trkpt lat="39.14953085654803" lon="16.15678078225413"><ele>573.0</ele><time>2026-04-27T12:18:31.999Z</time></trkpt><trkpt lat="39.14945706536547" lon="16.156832820722464"><ele>573.0</ele><time>2026-04-27T12:18:32.999Z</time></trkpt><trkpt lat="39.14938848634819" lon="16.156858466990826"><ele>573.0</ele><time>2026-04-27T12:18:33.999Z</time></trkpt><trkpt lat="39.14930956455017" lon="16.156861319663943"><ele>573.0</ele><time>2026-04-27T12:18:34.999Z</time></trkpt><trkpt lat="39.14912853703164" lon="16.156869690411597"><ele>573.0</ele><time>2026-04-27T12:18:36.999Z</time></trkpt><trkpt lat="39.14896909788638" lon="16.156836476108456"><ele>572.0</ele><time>2026-04-27T12:18:37.999Z</time></trkpt><trkpt lat="39.14885007725875" lon="16.156830446509066"><ele>571.0</ele><time>2026-04-27T12:18:38.999Z</time></trkpt><trkpt lat="39.14875178829231" lon="16.156833677123004"><ele>570.0</ele><time>2026-04-27T12:18:39.999Z</time></trkpt><trkpt lat="39.14863661998975" lon="16.156844004537472"><ele>569.0</ele><time>2026-04-27T12:18:41Z</time></trkpt><trkpt lat="39.14853142459899" lon="16.15685721056402"><ele>568.0</ele><time>2026-04-27T12:18:42Z</time></trkpt><trkpt lat="39.14841850438722" lon="16.156869780335313"><ele>568.0</ele><time>2026-04-27T12:18:43Z</time></trkpt><trkpt lat="39.14830772073312" lon="16.15678470274332"><ele>568.0</ele><time>2026-04-27T12:18:44Z</time></trkpt><trkpt lat="39.14820533887869" lon="16.15670090129058"><ele>568.0</ele><time>2026-04-27T12:18:45Z</time></trkpt><trkpt lat="39.148093890510545" lon="16.156640652840316"><ele>568.0</ele><time>2026-04-27T12:18:46Z</time></trkpt><trkpt lat="39.147971420501" lon="16.156585744076065"><ele>565.75</ele><time>2026-04-27T12:18:47Z</time></trkpt><trkpt lat="39.14784100264047" lon="16.156563363424723"><ele>563.5</ele><time>2026-04-27T12:18:48Z</time></trkpt><trkpt lat="39.14772115733991" lon="16.15656702040141"><ele>561.25</ele><time>2026-04-27T12:18:49Z</time></trkpt><trkpt lat="39.14760651423283" lon="16.156543277352302"><ele>559.0</ele><time>2026-04-27T12:18:50Z</time></trkpt><trkpt lat="39.14748974467619" lon="16.15652924519126"><ele>556.75</ele><time>2026-04-27T12:18:51Z</time></trkpt><trkpt lat="39.1473660813563" lon="16.156514963191043"><ele>554.5</ele><time>2026-04-27T12:18:52Z</time></trkpt><trkpt lat="39.14721645879814" lon="16.156518054012924"><ele>552.25</ele><time>2026-04-27T12:18:53Z</time></trkpt><trkpt lat="39.14709050137278" lon="16.15652238042597"><ele>550.0</ele><time>2026-04-27T12:18:54Z</time></trkpt><trkpt lat="39.14696931287547" lon="16.156530412839466"><ele>550.0</ele><time>2026-04-27T12:18:55Z</time></trkpt><trkpt lat="39.14686727197882" lon="16.15654925786182"><ele>550.0</ele><time>2026-04-27T12:18:56Z</time></trkpt><trkpt lat="39.14678073816817" lon="16.15656366338528"><ele>550.0</ele><time>2026-04-27T12:18:57Z</time></trkpt><trkpt lat="39.14669724921581" lon="16.156574525060115"><ele>550.0</ele><time>2026-04-27T12:18:58Z</time></trkpt><trkpt lat="39.146600501939666" lon="16.15658648039698"><ele>550.0</ele><time>2026-04-27T12:18:59Z</time></trkpt><trkpt lat="39.146507403173594" lon="16.15652536932802"><ele>550.0</ele><time>2026-04-27T12:19:01Z</time></trkpt><trkpt lat="39.14645498609681" lon="16.156416065383667"><ele>550.0</ele><time>2026-04-27T12:19:03Z</time></trkpt><trkpt lat="39.146458424324926" lon="16.15629599394696"><ele>550.0</ele><time>2026-04-27T12:19:04Z</time></trkpt><trkpt lat="39.146460765077705" lon="16.156198206310876"><ele>550.0</ele><time>2026-04-27T12:19:05Z</time></trkpt><trkpt lat="39.14648309802954" lon="16.15609827771407"><ele>550.0</ele><time>2026-04-27T12:19:06Z</time></trkpt><trkpt lat="39.14654094833669" lon="16.1560098737467"><ele>550.0</ele><time>2026-04-27T12:19:07Z</time></trkpt><trkpt lat="39.146609531606636" lon="16.155930167833812"><ele>550.0</ele><time>2026-04-27T12:19:08Z</time></trkpt><trkpt lat="39.14668951193217" lon="16.155846871675035"><ele>550.0</ele><time>2026-04-27T12:19:09Z</time></trkpt><trkpt lat="39.146784149095716" lon="16.15580806316015"><ele>550.0</ele><time>2026-04-27T12:19:10Z</time></trkpt><trkpt lat="39.1468520173489" lon="16.155777104381396"><ele>550.0</ele><time>2026-04-27T12:19:11Z</time></trkpt><trkpt lat="39.14693053110112" lon="16.155702330345505"><ele>550.0</ele><time>2026-04-27T12:19:13Z</time></trkpt><trkpt lat="39.14690967404493" lon="16.155616460932794"><ele>550.0</ele><time>2026-04-27T12:19:15Z</time></trkpt><trkpt lat="39.146764063553945" lon="16.15557943564287"><ele>546.4</ele><time>2026-04-27T12:19:17Z</time></trkpt><trkpt lat="39.14665492990701" lon="16.155598999433398"><ele>542.8</ele><time>2026-04-27T12:19:18Z</time></trkpt><trkpt lat="39.146546573728244" lon="16.155603900312315"><ele>539.2</ele><time>2026-04-27T12:19:19Z</time></trkpt><trkpt lat="39.14645034058831" lon="16.15561526202308"><ele>535.6</ele><time>2026-04-27T12:19:20Z</time></trkpt><trkpt lat="39.146361059392376" lon="16.15563095105559"><ele>532.0</ele><time>2026-04-27T12:19:21Z</time></trkpt><trkpt lat="39.14627537255043" lon="16.155653225948193"><ele>530.0</ele><time>2026-04-27T12:19:22Z</time></trkpt><trkpt lat="39.14619450572027" lon="16.155692936998694"><ele>528.0</ele><time>2026-04-27T12:19:23Z</time></trkpt><trkpt lat="39.146118327574605" lon="16.155752948732413"><ele>526.0</ele><time>2026-04-27T12:19:24Z</time></trkpt><trkpt lat="39.14605742583977" lon="16.15582571811737"><ele>524.0</ele><time>2026-04-27T12:19:25Z</time></trkpt><trkpt lat="39.146009317483966" lon="16.1559160425276"><ele>522.0</ele><time>2026-04-27T12:19:26Z</time></trkpt><trkpt lat="39.14598139373857" lon="16.156035692991622"><ele>520.0</ele><time>2026-04-27T12:19:27Z</time></trkpt><trkpt lat="39.1459493348861" lon="16.156143664317646"><ele>520.0</ele><time>2026-04-27T12:19:28Z</time></trkpt><trkpt lat="39.14591562331271" lon="16.15625133722466"><ele>520.0</ele><time>2026-04-27T12:19:29Z</time></trkpt><trkpt lat="39.14586770867196" lon="16.156350768175614"><ele>520.0</ele><time>2026-04-27T12:19:30Z</time></trkpt><trkpt lat="39.14579950138183" lon="16.15643995267336"><ele>520.0</ele><time>2026-04-27T12:19:31Z</time></trkpt><trkpt lat="39.14572441992439" lon="16.156548877404408"><ele>520.0</ele><time>2026-04-27T12:19:32Z</time></trkpt><trkpt lat="39.14566248191124" lon="16.156671847770536"><ele>515.6</ele><time>2026-04-27T12:19:33Z</time></trkpt><trkpt lat="39.14561404650919" lon="16.156801429834346"><ele>511.2</ele><time>2026-04-27T12:19:34Z</time></trkpt><trkpt lat="39.145578409802575" lon="16.15691082737797"><ele>506.79999999999995</ele><time>2026-04-27T12:19:35Z</time></trkpt><trkpt lat="39.145548461637404" lon="16.156995955113423"><ele>502.4</ele><time>2026-04-27T12:19:36Z</time></trkpt><trkpt lat="39.14551064465695" lon="16.157066333405652"><ele>498.0</ele><time>2026-04-27T12:19:37Z</time></trkpt><trkpt lat="39.1454044085743" lon="16.15715105014352"><ele>498.0</ele><time>2026-04-27T12:19:39Z</time></trkpt><trkpt lat="39.14530854719903" lon="16.157183569259736"><ele>498.0</ele><time>2026-04-27T12:19:41Z</time></trkpt><trkpt lat="39.14522810235962" lon="16.157083584282756"><ele>498.0</ele><time>2026-04-27T12:19:43Z</time></trkpt><trkpt lat="39.14524736313674" lon="16.156925781548477"><ele>498.0</ele><time>2026-04-27T12:19:44Z</time></trkpt><trkpt lat="39.14522027490496" lon="16.15677016997613"><ele>498.0</ele><time>2026-04-27T12:19:45Z</time></trkpt><trkpt lat="39.14519250957312" lon="16.156625511632452"><ele>497.99999999999994</ele><time>2026-04-27T12:19:46Z</time></trkpt><trkpt lat="39.14520481096164" lon="16.156499875810304"><ele>497.99999999999994</ele><time>2026-04-27T12:19:47Z</time></trkpt><trkpt lat="39.14522719756143" lon="16.156389525096213"><ele>498.0</ele><time>2026-04-27T12:19:48Z</time></trkpt><trkpt lat="39.14525944768585" lon="16.156294960725045"><ele>498.0</ele><time>2026-04-27T12:19:49Z</time></trkpt><trkpt lat="39.14526036283065" lon="16.156174868000083"><ele>496.4</ele><time>2026-04-27T12:19:51Z</time></trkpt><trkpt lat="39.14518874881162" lon="16.156106344071997"><ele>494.79999999999995</ele><time>2026-04-27T12:19:53Z</time></trkpt><trkpt lat="39.145087795084365" lon="16.156189246927212"><ele>493.2</ele><time>2026-04-27T12:19:54Z</time></trkpt><trkpt lat="39.14502123466917" lon="16.156288124973784"><ele>491.6</ele><time>2026-04-27T12:19:55Z</time></trkpt><trkpt lat="39.14493247702171" lon="16.156377215135596"><ele>490.0</ele><time>2026-04-27T12:19:56Z</time></trkpt><trkpt lat="39.144843558566464" lon="16.156449028207334"><ele>484.75</ele><time>2026-04-27T12:19:57Z</time></trkpt><trkpt lat="39.14476497521767" lon="16.15652459760402"><ele>479.5</ele><time>2026-04-27T12:19:58Z</time></trkpt><trkpt lat="39.144666863708544" lon="16.15667664745603"><ele>474.25</ele><time>2026-04-27T12:19:59Z</time></trkpt><trkpt lat="39.14458227196751" lon="16.15684404560273"><ele>469.0</ele><time>2026-04-27T12:20:00Z</time></trkpt><trkpt lat="39.14450373946154" lon="16.156977146346993"><ele>469.0</ele><time>2026-04-27T12:20:01Z</time></trkpt><trkpt lat="39.14442384986989" lon="16.157108523419293"><ele>469.0</ele><time>2026-04-27T12:20:02Z</time></trkpt><trkpt lat="39.14435191678821" lon="16.157218495449932"><ele>469.0</ele><time>2026-04-27T12:20:03Z</time></trkpt><trkpt lat="39.1442900052741" lon="16.15728886639382"><ele>469.0</ele><time>2026-04-27T12:20:04Z</time></trkpt><trkpt lat="39.144216345092204" lon="16.157342073662008"><ele>469.0</ele><time>2026-04-27T12:20:05Z</time></trkpt><trkpt lat="39.14411402757161" lon="16.157406014862804"><ele>463.75</ele><time>2026-04-27T12:20:06Z</time></trkpt><trkpt lat="39.144020655069056" lon="16.157437714958295"><ele>458.5</ele><time>2026-04-27T12:20:07Z</time></trkpt><trkpt lat="39.14391541948735" lon="16.157469528548514"><ele>453.25</ele><time>2026-04-27T12:20:08Z</time></trkpt><trkpt lat="39.143787421094004" lon="16.157531013321236"><ele>448.0</ele><time>2026-04-27T12:20:09Z</time></trkpt><trkpt lat="39.14367950186308" lon="16.157620176375538"><ele>448.00000000000006</ele><time>2026-04-27T12:20:09.999Z</time></trkpt><trkpt lat="39.14360075793963" lon="16.157680726032947"><ele>448.0</ele><time>2026-04-27T12:20:10.999Z</time></trkpt><trkpt lat="39.143518365163835" lon="16.157736632912233"><ele>448.0</ele><time>2026-04-27T12:20:11.999Z</time></trkpt><trkpt lat="39.14342963573632" lon="16.15778101480382"><ele>448.0</ele><time>2026-04-27T12:20:13.999Z</time></trkpt><trkpt lat="39.14336152450514" lon="16.157738275845304"><ele>448.00000000000006</ele><time>2026-04-27T12:20:16.999Z</time></trkpt><trkpt lat="39.14338820859476" lon="16.157636334919175"><ele>448.0</ele><time>2026-04-27T12:20:18.999Z</time></trkpt><trkpt lat="39.14353139811124" lon="16.157590460483096"><ele>448.0</ele><time>2026-04-27T12:20:20.999Z</time></trkpt><trkpt lat="39.1436330008325" lon="16.15753575356725"><ele>447.99999999999994</ele><time>2026-04-27T12:20:21.999Z</time></trkpt><trkpt lat="39.143699613429995" lon="16.157443341718007"><ele>447.99999999999994</ele><time>2026-04-27T12:20:22.999Z</time></trkpt><trkpt lat="39.14374588225235" lon="16.157336169438157"><ele>448.0</ele><time>2026-04-27T12:20:23.999Z</time></trkpt><trkpt lat="39.143803217270865" lon="16.15720480249641"><ele>448.0</ele><time>2026-04-27T12:20:24.999Z</time></trkpt><trkpt lat="39.14388170721281" lon="16.157123875058687"><ele>446.0</ele><time>2026-04-27T12:20:25.999Z</time></trkpt><trkpt lat="39.143963313888264" lon="16.15705377761283"><ele>443.99999999999994</ele><time>2026-04-27T12:20:26.999Z</time></trkpt><trkpt lat="39.14405336337111" lon="16.15700548296845"><ele>441.99999999999994</ele><time>2026-04-27T12:20:27.999Z</time></trkpt><trkpt lat="39.144109471524395" lon="16.156907203205684"><ele>440.0</ele><time>2026-04-27T12:20:29.999Z</time></trkpt><trkpt lat="39.144035289028004" lon="16.15686831105289"><ele>438.0</ele><time>2026-04-27T12:20:31.999Z</time></trkpt><trkpt lat="39.143891300192756" lon="16.156882633656355"><ele>438.0</ele><time>2026-04-27T12:20:33.999Z</time></trkpt><trkpt lat="39.14378863928276" lon="16.15693751486594"><ele>437.99999999999994</ele><time>2026-04-27T12:20:34.999Z</time></trkpt><trkpt lat="39.14367979687897" lon="16.156997002952384"><ele>437.99999999999994</ele><time>2026-04-27T12:20:35.999Z</time></trkpt><trkpt lat="39.14358802561396" lon="16.157060706290913"><ele>438.0</ele><time>2026-04-27T12:20:36.999Z</time></trkpt><trkpt lat="39.14350776914443" lon="16.157146711439506"><ele>438.0</ele><time>2026-04-27T12:20:37.999Z</time></trkpt><trkpt lat="39.143428474104105" lon="16.1572289427506"><ele>438.0</ele><time>2026-04-27T12:20:38.999Z</time></trkpt><trkpt lat="39.143355434143224" lon="16.157287757197256"><ele>437.99999999999994</ele><time>2026-04-27T12:20:39.999Z</time></trkpt><trkpt lat="39.14327916807789" lon="16.157301682685432"><ele>437.99999999999994</ele><time>2026-04-27T12:20:40.999Z</time></trkpt><trkpt lat="39.14318711431031" lon="16.15731335910063"><ele>438.0</ele><time>2026-04-27T12:20:41.999Z</time></trkpt><trkpt lat="39.14308778463778" lon="16.157306341817954"><ele>438.0</ele><time>2026-04-27T12:20:42.999Z</time></trkpt><trkpt lat="39.142988973000804" lon="16.1572779174972"><ele>436.2</ele><time>2026-04-27T12:20:43.999Z</time></trkpt><trkpt lat="39.14289666514985" lon="16.157246127748035"><ele>434.4</ele><time>2026-04-27T12:20:44.999Z</time></trkpt><trkpt lat="39.142766611731794" lon="16.157251083496902"><ele>432.59999999999997</ele><time>2026-04-27T12:20:47Z</time></trkpt><trkpt lat="39.14270244053711" lon="16.157327371219672"><ele>430.79999999999995</ele><time>2026-04-27T12:20:48Z</time></trkpt><trkpt lat="39.14266916449416" lon="16.157457034488676"><ele>429.0</ele><time>2026-04-27T12:20:49Z</time></trkpt><trkpt lat="39.142666261329104" lon="16.157604388871444"><ele>429.0</ele><time>2026-04-27T12:20:50Z</time></trkpt><trkpt lat="39.14269480817305" lon="16.15772346820983"><ele>429.0</ele><time>2026-04-27T12:20:51Z</time></trkpt><trkpt lat="39.142754371101" lon="16.15781078828947"><ele>429.0</ele><time>2026-04-27T12:20:52Z</time></trkpt><trkpt lat="39.142810898218286" lon="16.157873185569258"><ele>429.0</ele><time>2026-04-27T12:20:53Z</time></trkpt><trkpt lat="39.142742927487745" lon="16.157912608850886"><ele>429.0</ele><time>2026-04-27T12:20:57Z</time></trkpt><trkpt lat="39.14260974550144" lon="16.15781746300282"><ele>429.0</ele><time>2026-04-27T12:20:59Z</time></trkpt><trkpt lat="39.14250766144772" lon="16.157770815470737"><ele>429.0</ele><time>2026-04-27T12:21:00Z</time></trkpt><trkpt lat="39.14243707350448" lon="16.15771394005508"><ele>429.0</ele><time>2026-04-27T12:21:01Z</time></trkpt><trkpt lat="39.14236836545765" lon="16.157661696869578"><ele>429.0</ele><time>2026-04-27T12:21:02Z</time></trkpt><trkpt lat="39.14231051161371" lon="16.157586943253367"><ele>429.0</ele><time>2026-04-27T12:21:03Z</time></trkpt><trkpt lat="39.142246262626664" lon="16.157528130460733"><ele>429.0</ele><time>2026-04-27T12:21:04Z</time></trkpt><trkpt lat="39.14217909311656" lon="16.157485443877828"><ele>426.1666666666667</ele><time>2026-04-27T12:21:05Z</time></trkpt><trkpt lat="39.14211962412655" lon="16.157424519444362"><ele>423.33333333333337</ele><time>2026-04-27T12:21:06Z</time></trkpt><trkpt lat="39.14205238620018" lon="16.157378035034515"><ele>420.5</ele><time>2026-04-27T12:21:07Z</time></trkpt><trkpt lat="39.14197183909131" lon="16.157329350751713"><ele>417.6666666666667</ele><time>2026-04-27T12:21:08Z</time></trkpt><trkpt lat="39.14188595790688" lon="16.157265534229495"><ele>414.83333333333337</ele><time>2026-04-27T12:21:09Z</time></trkpt><trkpt lat="39.141802318229395" lon="16.157191250243496"><ele>412.0</ele><time>2026-04-27T12:21:10Z</time></trkpt><trkpt lat="39.14171950411149" lon="16.15711893404613"><ele>410.6</ele><time>2026-04-27T12:21:11Z</time></trkpt><trkpt lat="39.14163512845067" lon="16.1570515337454"><ele>409.20000000000005</ele><time>2026-04-27T12:21:12Z</time></trkpt><trkpt lat="39.14155592913174" lon="16.156993132458844"><ele>407.8</ele><time>2026-04-27T12:21:13Z</time></trkpt><trkpt lat="39.14147630089344" lon="16.15694227599368"><ele>406.4</ele><time>2026-04-27T12:21:14Z</time></trkpt><trkpt lat="39.14139213284887" lon="16.15689473643436"><ele>405.0</ele><time>2026-04-27T12:21:15Z</time></trkpt><trkpt lat="39.14130804058566" lon="16.156848436077663"><ele>404.4</ele><time>2026-04-27T12:21:16Z</time></trkpt><trkpt lat="39.14122764422574" lon="16.156800448181937"><ele>403.8</ele><time>2026-04-27T12:21:17Z</time></trkpt><trkpt lat="39.141150671051655" lon="16.15674900088898"><ele>403.20000000000005</ele><time>2026-04-27T12:21:18Z</time></trkpt><trkpt lat="39.14108624747251" lon="16.156682951529774"><ele>402.6</ele><time>2026-04-27T12:21:19Z</time></trkpt><trkpt lat="39.14101088815464" lon="16.15660690913971"><ele>402.0</ele><time>2026-04-27T12:21:20Z</time></trkpt><trkpt lat="39.14093433461329" lon="16.156511450385725"><ele>399.40000000000003</ele><time>2026-04-27T12:21:21Z</time></trkpt><trkpt lat="39.1408594373558" lon="16.15642268008965"><ele>396.8</ele><time>2026-04-27T12:21:22Z</time></trkpt><trkpt lat="39.1408004307748" lon="16.15633932930296"><ele>394.2</ele><time>2026-04-27T12:21:23Z</time></trkpt><trkpt lat="39.140742898884334" lon="16.156268183148494"><ele>391.6</ele><time>2026-04-27T12:21:24Z</time></trkpt><trkpt lat="39.14067385823331" lon="16.15619182930793"><ele>389.0</ele><time>2026-04-27T12:21:25Z</time></trkpt><trkpt lat="39.14058354542879" lon="16.156114926677056"><ele>387.3333333333333</ele><time>2026-04-27T12:21:26Z</time></trkpt><trkpt lat="39.14049643690154" lon="16.156042370226267"><ele>385.66666666666663</ele><time>2026-04-27T12:21:27Z</time></trkpt><trkpt lat="39.140407502537876" lon="16.155977494157984"><ele>384.0</ele><time>2026-04-27T12:21:28Z</time></trkpt><trkpt lat="39.14033357379965" lon="16.155915324317917"><ele>382.3333333333333</ele><time>2026-04-27T12:21:29Z</time></trkpt><trkpt lat="39.14027076248737" lon="16.15585879283776"><ele>380.66666666666663</ele><time>2026-04-27T12:21:30Z</time></trkpt><trkpt lat="39.140218628229476" lon="16.15578727766362"><ele>379.0</ele><time>2026-04-27T12:21:31Z</time></trkpt><trkpt lat="39.14017275158605" lon="16.155701861653487"><ele>378.5</ele><time>2026-04-27T12:21:32Z</time></trkpt><trkpt lat="39.14012466246627" lon="16.155627289160076"><ele>378.0</ele><time>2026-04-27T12:21:33Z</time></trkpt><trkpt lat="39.140071558119736" lon="16.155568121145503"><ele>377.5</ele><time>2026-04-27T12:21:34Z</time></trkpt><trkpt lat="39.13996626082629" lon="16.155512405565762"><ele>377.0</ele><time>2026-04-27T12:21:36Z</time></trkpt><trkpt lat="39.13989409878437" lon="16.155497098880442"><ele>376.5</ele><time>2026-04-27T12:21:37Z</time></trkpt><trkpt lat="39.139837767956834" lon="16.15545664661664"><ele>376.0</ele><time>2026-04-27T12:21:38Z</time></trkpt><trkpt lat="39.13974301175261" lon="16.15544395661167"><ele>376.0</ele><time>2026-04-27T12:21:40Z</time></trkpt><trkpt lat="39.13977674132549" lon="16.155255181527615"><ele>376.0</ele><time>2026-04-27T12:21:41Z</time></trkpt><trkpt lat="39.139839780976175" lon="16.155139752349978"><ele>376.0</ele><time>2026-04-27T12:21:43Z</time></trkpt><trkpt lat="39.1399241908801" lon="16.15504808646041"><ele>376.0</ele><time>2026-04-27T12:21:45Z</time></trkpt><trkpt lat="39.14006359280431" lon="16.15494451969909"><ele>376.0</ele><time>2026-04-27T12:21:47Z</time></trkpt><trkpt lat="39.14012168290443" lon="16.15488544652149"><ele>376.0</ele><time>2026-04-27T12:21:48Z</time></trkpt><trkpt lat="39.14018071485467" lon="16.15481217370922"><ele>376.0</ele><time>2026-04-27T12:21:49Z</time></trkpt><trkpt lat="39.140230119935985" lon="16.154738079162527"><ele>376.0</ele><time>2026-04-27T12:21:50Z</time></trkpt><trkpt lat="39.1402723821921" lon="16.154653738783146"><ele>376.0</ele><time>2026-04-27T12:21:51Z</time></trkpt><trkpt lat="39.140299188266376" lon="16.15457638194038"><ele>376.0</ele><time>2026-04-27T12:21:52Z</time></trkpt><trkpt lat="39.14033795218416" lon="16.154492141164507"><ele>373.0</ele><time>2026-04-27T12:21:56Z</time></trkpt><trkpt lat="39.14044197747491" lon="16.154436831311838"><ele>370.0</ele><time>2026-04-27T12:21:58Z</time></trkpt><trkpt lat="39.140408818893135" lon="16.154349791292166"><ele>367.0</ele><time>2026-04-27T12:22:00.999Z</time></trkpt><trkpt lat="39.14029724036357" lon="16.154353758844582"><ele>364.0</ele><time>2026-04-27T12:22:02.999Z</time></trkpt><trkpt lat="39.14021247772938" lon="16.154305272080357"><ele>361.0</ele><time>2026-04-27T12:22:04.999Z</time></trkpt><trkpt lat="39.14011886092455" lon="16.15425561640142"><ele>361.0</ele><time>2026-04-27T12:22:06.999Z</time></trkpt><trkpt lat="39.14002886257627" lon="16.154159682871743"><ele>361.0</ele><time>2026-04-27T12:22:08.999Z</time></trkpt><trkpt lat="39.13999957543758" lon="16.154077169181836"><ele>361.0</ele><time>2026-04-27T12:22:09.999Z</time></trkpt><trkpt lat="39.13997648205573" lon="16.15397746417156"><ele>361.0</ele><time>2026-04-27T12:22:10.999Z</time></trkpt><trkpt lat="39.13996215632728" lon="16.15386894118432"><ele>361.0</ele><time>2026-04-27T12:22:11.999Z</time></trkpt><trkpt lat="39.13994613329035" lon="16.153769337421757"><ele>361.0</ele><time>2026-04-27T12:22:12.999Z</time></trkpt><trkpt lat="39.139925898432345" lon="16.153679102584"><ele>358.4</ele><time>2026-04-27T12:22:13.999Z</time></trkpt><trkpt lat="39.139904529760784" lon="16.153586283381458"><ele>355.8</ele><time>2026-04-27T12:22:14.999Z</time></trkpt><trkpt lat="39.13989389873439" lon="16.15348855373318"><ele>353.2</ele><time>2026-04-27T12:22:15.999Z</time></trkpt><trkpt lat="39.139890621608025" lon="16.153319172668294"><ele>350.59999999999997</ele><time>2026-04-27T12:22:17.999Z</time></trkpt><trkpt lat="39.1398773690666" lon="16.15317216943254"><ele>348.0</ele><time>2026-04-27T12:22:19.999Z</time></trkpt><trkpt lat="39.13988781916012" lon="16.15303514173422"><ele>344.59999999999997</ele><time>2026-04-27T12:22:21.999Z</time></trkpt><trkpt lat="39.13984347761991" lon="16.152908994305548"><ele>341.2</ele><time>2026-04-27T12:22:23.999Z</time></trkpt><trkpt lat="39.13978107762885" lon="16.15285235412197"><ele>337.8</ele><time>2026-04-27T12:22:24.999Z</time></trkpt><trkpt lat="39.1397201677827" lon="16.15275306271462"><ele>334.4</ele><time>2026-04-27T12:22:26.999Z</time></trkpt><trkpt lat="39.13969877777182" lon="16.152630611106844"><ele>331.0</ele><time>2026-04-27T12:22:28.999Z</time></trkpt><trkpt lat="39.13968158967679" lon="16.152451536812787"><ele>329.5</ele><time>2026-04-27T12:22:30.999Z</time></trkpt><trkpt lat="39.13966524684734" lon="16.152358167574096"><ele>328.0</ele><time>2026-04-27T12:22:31.999Z</time></trkpt><trkpt lat="39.13963355008373" lon="16.152218150846828"><ele>326.5</ele><time>2026-04-27T12:22:33.999Z</time></trkpt><trkpt lat="39.13961383364381" lon="16.152131870897435"><ele>325.0</ele><time>2026-04-27T12:22:34.999Z</time></trkpt><trkpt lat="39.13958390513401" lon="16.15203548513166"><ele>323.5</ele><time>2026-04-27T12:22:35.999Z</time></trkpt><trkpt lat="39.13955823698238" lon="16.151947260654598"><ele>322.0</ele><time>2026-04-27T12:22:36.999Z</time></trkpt><trkpt lat="39.13953027448216" lon="16.151871368106516"><ele>322.0</ele><time>2026-04-27T12:22:37.999Z</time></trkpt><trkpt lat="39.1394923831822" lon="16.151744481312132"><ele>322.0</ele><time>2026-04-27T12:22:39.999Z</time></trkpt><trkpt lat="39.13946201630266" lon="16.151584003680824"><ele>322.0</ele><time>2026-04-27T12:22:41.999Z</time></trkpt><trkpt lat="39.13943928960991" lon="16.15150069854526"><ele>322.0</ele><time>2026-04-27T12:22:42.999Z</time></trkpt><trkpt lat="39.139410103998266" lon="16.151370310833713"><ele>322.0</ele><time>2026-04-27T12:22:44.999Z</time></trkpt><trkpt lat="39.13942048107082" lon="16.151250560080307"><ele>320.25</ele><time>2026-04-27T12:22:46.999Z</time></trkpt><trkpt lat="39.13946348616677" lon="16.151084962278585"><ele>318.5</ele><time>2026-04-27T12:22:48.999Z</time></trkpt><trkpt lat="39.13949199959304" lon="16.15093627274831"><ele>316.75</ele><time>2026-04-27T12:22:50.999Z</time></trkpt><trkpt lat="39.139526718268954" lon="16.150790568424664"><ele>315.0</ele><time>2026-04-27T12:22:53Z</time></trkpt><trkpt lat="39.13949096085422" lon="16.150650792823825"><ele>315.0</ele><time>2026-04-27T12:22:55Z</time></trkpt><trkpt lat="39.13944576705058" lon="16.150583122785655"><ele>315.0</ele><time>2026-04-27T12:22:56Z</time></trkpt><trkpt lat="39.13939982949911" lon="16.150527600543644"><ele>315.0</ele><time>2026-04-27T12:22:57Z</time></trkpt><trkpt lat="39.139339198188594" lon="16.150452982650446"><ele>315.0</ele><time>2026-04-27T12:22:59Z</time></trkpt><trkpt lat="39.13927900541671" lon="16.150427613838758"><ele>315.0</ele><time>2026-04-27T12:23:01Z</time></trkpt><trkpt lat="39.139131140509505" lon="16.150454583099904"><ele>315.0</ele><time>2026-04-27T12:23:03Z</time></trkpt><trkpt lat="39.13902269044208" lon="16.15045623506305"><ele>314.6</ele><time>2026-04-27T12:23:04Z</time></trkpt><trkpt lat="39.13891690781283" lon="16.15045766735857"><ele>314.2</ele><time>2026-04-27T12:23:05Z</time></trkpt><trkpt lat="39.13881632396764" lon="16.150473722148284"><ele>313.8</ele><time>2026-04-27T12:23:06Z</time></trkpt><trkpt lat="39.138727490737715" lon="16.1505301456094"><ele>313.4</ele><time>2026-04-27T12:23:07Z</time></trkpt><trkpt lat="39.13864859844113" lon="16.150611906695342"><ele>313.0</ele><time>2026-04-27T12:23:08Z</time></trkpt><trkpt lat="39.138573708518855" lon="16.150675890464047"><ele>313.0</ele><time>2026-04-27T12:23:09Z</time></trkpt><trkpt lat="39.13849170918796" lon="16.15070444401907"><ele>313.0</ele><time>2026-04-27T12:23:10Z</time></trkpt><trkpt lat="39.13841303264562" lon="16.150715446910915"><ele>313.0</ele><time>2026-04-27T12:23:11Z</time></trkpt><trkpt lat="39.138331744496675" lon="16.150731136166534"><ele>313.0</ele><time>2026-04-27T12:23:12Z</time></trkpt><trkpt lat="39.138220473034806" lon="16.15079844571312"><ele>313.0</ele><time>2026-04-27T12:23:14Z</time></trkpt><trkpt lat="39.13815362714631" lon="16.15084288331473"><ele>313.0</ele><time>2026-04-27T12:23:15Z</time></trkpt><trkpt lat="39.13805881992782" lon="16.150898151400543"><ele>312.4</ele><time>2026-04-27T12:23:16Z</time></trkpt><trkpt lat="39.13796367172845" lon="16.150941949048022"><ele>311.8</ele><time>2026-04-27T12:23:17Z</time></trkpt><trkpt lat="39.1378616336496" lon="16.150966016476428"><ele>311.2</ele><time>2026-04-27T12:23:18Z</time></trkpt><trkpt lat="39.13774006871592" lon="16.15099478462053"><ele>310.6</ele><time>2026-04-27T12:23:19Z</time></trkpt><trkpt lat="39.13763299190979" lon="16.15102965463517"><ele>310.0</ele><time>2026-04-27T12:23:20Z</time></trkpt><trkpt lat="39.137540898927135" lon="16.15105715581685"><ele>310.0</ele><time>2026-04-27T12:23:21Z</time></trkpt><trkpt lat="39.13745916648259" lon="16.15107252425776"><ele>310.0</ele><time>2026-04-27T12:23:22Z</time></trkpt><trkpt lat="39.1373829299647" lon="16.15108731007021"><ele>310.0</ele><time>2026-04-27T12:23:23Z</time></trkpt><trkpt lat="39.13731461478527" lon="16.151110671843266"><ele>310.0</ele><time>2026-04-27T12:23:24Z</time></trkpt><trkpt lat="39.13724680039482" lon="16.151147952942363"><ele>310.0</ele><time>2026-04-27T12:23:25Z</time></trkpt><trkpt lat="39.13717095954054" lon="16.15119461470122"><ele>310.0</ele><time>2026-04-27T12:23:26Z</time></trkpt><trkpt lat="39.13709519935205" lon="16.151252768732025"><ele>309.8333333333333</ele><time>2026-04-27T12:23:27Z</time></trkpt><trkpt lat="39.13703371547376" lon="16.151289655279502"><ele>309.66666666666663</ele><time>2026-04-27T12:23:28Z</time></trkpt><trkpt lat="39.13693018314875" lon="16.151293530075236"><ele>309.5</ele><time>2026-04-27T12:23:30Z</time></trkpt><trkpt lat="39.136861857781746" lon="16.15125970545191"><ele>309.3333333333333</ele><time>2026-04-27T12:23:31Z</time></trkpt><trkpt lat="39.13675795124292" lon="16.15122370432423"><ele>309.1666666666667</ele><time>2026-04-27T12:23:32Z</time></trkpt><trkpt lat="39.13666656544846" lon="16.151201821463207"><ele>309.0</ele><time>2026-04-27T12:23:33Z</time></trkpt><trkpt lat="39.13657707608916" lon="16.15118104426245"><ele>308.6666666666667</ele><time>2026-04-27T12:23:34Z</time></trkpt><trkpt lat="39.13647414883812" lon="16.151177321323242"><ele>308.3333333333333</ele><time>2026-04-27T12:23:35Z</time></trkpt><trkpt lat="39.13637143494887" lon="16.15117066027431"><ele>308.0</ele><time>2026-04-27T12:23:36Z</time></trkpt><trkpt lat="39.13628551978359" lon="16.151171071195446"><ele>307.66666666666663</ele><time>2026-04-27T12:23:37Z</time></trkpt><trkpt lat="39.13621078269115" lon="16.15116968163649"><ele>307.3333333333333</ele><time>2026-04-27T12:23:38Z</time></trkpt><trkpt lat="39.13614190180446" lon="16.151147558067883"><ele>307.0</ele><time>2026-04-27T12:23:39Z</time></trkpt><trkpt lat="39.13606035580985" lon="16.151105103141344"><ele>307.0</ele><time>2026-04-27T12:23:40Z</time></trkpt><trkpt lat="39.135975851455655" lon="16.151047759076118"><ele>307.0</ele><time>2026-04-27T12:23:41Z</time></trkpt><trkpt lat="39.135907466068794" lon="16.151001639720253"><ele>307.0</ele><time>2026-04-27T12:23:42Z</time></trkpt><trkpt lat="39.13583626442598" lon="16.150959591747213"><ele>307.0</ele><time>2026-04-27T12:23:43Z</time></trkpt><trkpt lat="39.135771592499474" lon="16.150928117071413"><ele>307.0</ele><time>2026-04-27T12:23:44Z</time></trkpt><trkpt lat="39.135684729614866" lon="16.15095728912869"><ele>307.0</ele><time>2026-04-27T12:23:47Z</time></trkpt><trkpt lat="39.13558587082113" lon="16.15103907707698"><ele>307.5</ele><time>2026-04-27T12:23:49Z</time></trkpt><trkpt lat="39.13546058310509" lon="16.151017263950198"><ele>308.0</ele><time>2026-04-27T12:23:51Z</time></trkpt><trkpt lat="39.13539702443263" lon="16.151012014405854"><ele>308.5</ele><time>2026-04-27T12:23:52Z</time></trkpt><trkpt lat="39.135328242880135" lon="16.151016936400165"><ele>309.0</ele><time>2026-04-27T12:23:53Z</time></trkpt><trkpt lat="39.13525208304961" lon="16.151023950113625"><ele>309.5</ele><time>2026-04-27T12:23:53.999Z</time></trkpt><trkpt lat="39.135176977761326" lon="16.15103176293122"><ele>310.0</ele><time>2026-04-27T12:23:54.999Z</time></trkpt><trkpt lat="39.13509746769618" lon="16.151026599701673"><ele>310.0</ele><time>2026-04-27T12:23:55.999Z</time></trkpt><trkpt lat="39.13500155670963" lon="16.15101703588033"><ele>310.0</ele><time>2026-04-27T12:23:56.999Z</time></trkpt><trkpt lat="39.13489783427783" lon="16.151021911270625"><ele>310.0</ele><time>2026-04-27T12:23:57.999Z</time></trkpt><trkpt lat="39.13476958966702" lon="16.15102679757407"><ele>310.0</ele><time>2026-04-27T12:23:58.999Z</time></trkpt><trkpt lat="39.134625785381125" lon="16.15103560047207"><ele>310.25</ele><time>2026-04-27T12:23:59.999Z</time></trkpt><trkpt lat="39.134483812927506" lon="16.1510392000888"><ele>310.5</ele><time>2026-04-27T12:24:00.999Z</time></trkpt><trkpt lat="39.13435752509333" lon="16.151038237698412"><ele>310.75</ele><time>2026-04-27T12:24:01.999Z</time></trkpt><trkpt lat="39.13424238933949" lon="16.150981154854996"><ele>311.0</ele><time>2026-04-27T12:24:02.999Z</time></trkpt><trkpt lat="39.13415103114524" lon="16.151004562058578"><ele>311.0</ele><time>2026-04-27T12:24:03.999Z</time></trkpt><trkpt lat="39.13406015758469" lon="16.151060899237756"><ele>311.0</ele><time>2026-04-27T12:24:04.999Z</time></trkpt><trkpt lat="39.13397130130473" lon="16.151143642616933"><ele>311.0</ele><time>2026-04-27T12:24:05.999Z</time></trkpt><trkpt lat="39.133880410432276" lon="16.151251159307154"><ele>311.0</ele><time>2026-04-27T12:24:06.999Z</time></trkpt><trkpt lat="39.13378306304955" lon="16.15138862345818"><ele>312.33333333333337</ele><time>2026-04-27T12:24:07.999Z</time></trkpt><trkpt lat="39.13367246701131" lon="16.151538304952016"><ele>313.6666666666667</ele><time>2026-04-27T12:24:08.999Z</time></trkpt><trkpt lat="39.13355520185342" lon="16.151704661494247"><ele>315.0</ele><time>2026-04-27T12:24:09.999Z</time></trkpt><trkpt lat="39.1334329520046" lon="16.151891822657646"><ele>315.0</ele><time>2026-04-27T12:24:10.999Z</time></trkpt><trkpt lat="39.133310814767434" lon="16.152067556320155"><ele>315.0</ele><time>2026-04-27T12:24:11.999Z</time></trkpt><trkpt lat="39.13319749493517" lon="16.152219613710347"><ele>315.0</ele><time>2026-04-27T12:24:12.999Z</time></trkpt><trkpt lat="39.133077978628506" lon="16.15238469729199"><ele>312.6666666666667</ele><time>2026-04-27T12:24:13.999Z</time></trkpt><trkpt lat="39.13296153623005" lon="16.15255479911624"><ele>310.33333333333337</ele><time>2026-04-27T12:24:14.999Z</time></trkpt><trkpt lat="39.13283905736101" lon="16.152727045418594"><ele>308.0</ele><time>2026-04-27T12:24:15.999Z</time></trkpt><trkpt lat="39.13272377100244" lon="16.15288945963532"><ele>308.0</ele><time>2026-04-27T12:24:16.999Z</time></trkpt><trkpt lat="39.13261504271865" lon="16.153040366214817"><ele>308.0</ele><time>2026-04-27T12:24:17.999Z</time></trkpt><trkpt lat="39.13250856784474" lon="16.15318382830395"><ele>308.0</ele><time>2026-04-27T12:24:18.999Z</time></trkpt><trkpt lat="39.13239886240113" lon="16.153341723579818"><ele>310.0</ele><time>2026-04-27T12:24:19.999Z</time></trkpt><trkpt lat="39.13229487757097" lon="16.153499891062935"><ele>312.0</ele><time>2026-04-27T12:24:20.999Z</time></trkpt><trkpt lat="39.13218981372212" lon="16.153657407092137"><ele>314.0</ele><time>2026-04-27T12:24:21.999Z</time></trkpt><trkpt lat="39.13208529722431" lon="16.153796194939293"><ele>314.0</ele><time>2026-04-27T12:24:22.999Z</time></trkpt><trkpt lat="39.131986194182666" lon="16.153936002353817"><ele>314.0</ele><time>2026-04-27T12:24:23.999Z</time></trkpt><trkpt lat="39.13188781859172" lon="16.154081263198737"><ele>314.0</ele><time>2026-04-27T12:24:24.999Z</time></trkpt><trkpt lat="39.13178257478484" lon="16.154225646669694"><ele>312.5</ele><time>2026-04-27T12:24:25.999Z</time></trkpt><trkpt lat="39.13168096057198" lon="16.154355799827304"><ele>311.0</ele><time>2026-04-27T12:24:26.999Z</time></trkpt><trkpt lat="39.131583901861276" lon="16.154480014548987"><ele>309.5</ele><time>2026-04-27T12:24:27.999Z</time></trkpt><trkpt lat="39.131483372711166" lon="16.15460316686006"><ele>308.0</ele><time>2026-04-27T12:24:28.999Z</time></trkpt><trkpt lat="39.13140271142209" lon="16.15469807960925"><ele>308.33333333333337</ele><time>2026-04-27T12:24:29.999Z</time></trkpt><trkpt lat="39.13134332781809" lon="16.154769050217574"><ele>308.6666666666667</ele><time>2026-04-27T12:24:30.999Z</time></trkpt><trkpt lat="39.13129782949787" lon="16.154829149243977"><ele>309.0</ele><time>2026-04-27T12:24:31.999Z</time></trkpt><trkpt lat="39.131241151944614" lon="16.154933158271575"><ele>309.3333333333333</ele><time>2026-04-27T12:24:33.999Z</time></trkpt><trkpt lat="39.131153243810616" lon="16.154841452558962"><ele>309.66666666666663</ele><time>2026-04-27T12:24:35.999Z</time></trkpt><trkpt lat="39.13108192808946" lon="16.15479813964043"><ele>310.0</ele><time>2026-04-27T12:24:36.999Z</time></trkpt><trkpt lat="39.13100095661439" lon="16.154756279977647"><ele>312.8</ele><time>2026-04-27T12:24:37.999Z</time></trkpt><trkpt lat="39.13091741977522" lon="16.154731281754604"><ele>315.6</ele><time>2026-04-27T12:24:38.999Z</time></trkpt><trkpt lat="39.13080948309085" lon="16.154759481834194"><ele>318.4</ele><time>2026-04-27T12:24:39.999Z</time></trkpt><trkpt lat="39.130694631825705" lon="16.154771718432492"><ele>321.2</ele><time>2026-04-27T12:24:40.999Z</time></trkpt><trkpt lat="39.13057935432675" lon="16.154763504843878"><ele>324.0</ele><time>2026-04-27T12:24:41.999Z</time></trkpt><trkpt lat="39.13045488287523" lon="16.154751789326895"><ele>324.0</ele><time>2026-04-27T12:24:42.999Z</time></trkpt><trkpt lat="39.13033027035083" lon="16.15473711895221"><ele>324.0</ele><time>2026-04-27T12:24:43.999Z</time></trkpt><trkpt lat="39.130244384297185" lon="16.154722552432855"><ele>324.0</ele><time>2026-04-27T12:24:44.999Z</time></trkpt><trkpt lat="39.13016496153869" lon="16.154695027293833"><ele>324.0</ele><time>2026-04-27T12:24:45.999Z</time></trkpt><trkpt lat="39.13010178616697" lon="16.154679310755043"><ele>324.0</ele><time>2026-04-27T12:24:46.999Z</time></trkpt><trkpt lat="39.13007832794048" lon="16.154584898081545"><ele>324.0</ele><time>2026-04-27T12:24:47.999Z</time></trkpt><trkpt lat="39.13005871186291" lon="16.154493762096635"><ele>324.0</ele><time>2026-04-27T12:24:48.999Z</time></trkpt><trkpt lat="39.130033310965125" lon="16.154359099740375"><ele>324.0</ele><time>2026-04-27T12:24:49.999Z</time></trkpt><trkpt lat="39.130033776676534" lon="16.15423303615814"><ele>324.0</ele><time>2026-04-27T12:24:51.999Z</time></trkpt><trkpt lat="39.1300529140349" lon="16.15415082663925"><ele>324.0</ele><time>2026-04-27T12:24:54.999Z</time></trkpt><trkpt lat="39.13007241139641" lon="16.154037821611652"><ele>324.0</ele><time>2026-04-27T12:25:27Z</time></trkpt><trkpt lat="39.130052655847834" lon="16.153906854936913"><ele>322.8</ele><time>2026-04-27T12:25:28Z</time></trkpt><trkpt lat="39.13001724951587" lon="16.153775618362747"><ele>321.59999999999997</ele><time>2026-04-27T12:25:29Z</time></trkpt><trkpt lat="39.129971186427255" lon="16.15366863334203"><ele>320.4</ele><time>2026-04-27T12:25:30Z</time></trkpt><trkpt lat="39.12989947795934" lon="16.153553241097956"><ele>319.2</ele><time>2026-04-27T12:25:31Z</time></trkpt><trkpt lat="39.12981721868913" lon="16.153477689706445"><ele>318.0</ele><time>2026-04-27T12:25:32Z</time></trkpt><trkpt lat="39.129745548554055" lon="16.153378379072244"><ele>318.0</ele><time>2026-04-27T12:25:33Z</time></trkpt><trkpt lat="39.12964346966281" lon="16.153315468813517"><ele>318.0</ele><time>2026-04-27T12:25:34Z</time></trkpt><trkpt lat="39.129514832067684" lon="16.153266084578743"><ele>318.0</ele><time>2026-04-27T12:25:35Z</time></trkpt><trkpt lat="39.12934077461055" lon="16.153187819340257"><ele>318.0</ele><time>2026-04-27T12:25:36Z</time></trkpt><trkpt lat="39.12917539724039" lon="16.15312395941296"><ele>315.6666666666667</ele><time>2026-04-27T12:25:37Z</time></trkpt><trkpt lat="39.12901619686829" lon="16.153090544979296"><ele>313.33333333333337</ele><time>2026-04-27T12:25:38Z</time></trkpt><trkpt lat="39.12885763815222" lon="16.15306915035107"><ele>311.0</ele><time>2026-04-27T12:25:39Z</time></trkpt><trkpt lat="39.12871996216234" lon="16.153073961525546"><ele>311.0</ele><time>2026-04-27T12:25:40Z</time></trkpt><trkpt lat="39.12858754923473" lon="16.15309781045302"><ele>311.0</ele><time>2026-04-27T12:25:41Z</time></trkpt><trkpt lat="39.12847308054601" lon="16.153126466453074"><ele>311.0</ele><time>2026-04-27T12:25:42Z</time></trkpt><trkpt lat="39.12836416378038" lon="16.153151358845133"><ele>311.0</ele><time>2026-04-27T12:25:43Z</time></trkpt><trkpt lat="39.12825832733609" lon="16.153285308324175"><ele>307.0</ele><time>2026-04-27T12:25:44Z</time></trkpt><trkpt lat="39.12818654602251" lon="16.153427333372804"><ele>303.0</ele><time>2026-04-27T12:25:45Z</time></trkpt><trkpt lat="39.12813371190749" lon="16.153517254590685"><ele>299.0</ele><time>2026-04-27T12:25:46Z</time></trkpt><trkpt lat="39.12807131479584" lon="16.153562780473468"><ele>295.0</ele><time>2026-04-27T12:25:47Z</time></trkpt><trkpt lat="39.12796184417575" lon="16.153573004008603"><ele>291.0</ele><time>2026-04-27T12:25:48Z</time></trkpt><trkpt lat="39.12782908038058" lon="16.15352217722264"><ele>291.0</ele><time>2026-04-27T12:25:48.999Z</time></trkpt><trkpt lat="39.12771590524363" lon="16.1535036625"><ele>291.0</ele><time>2026-04-27T12:25:49.999Z</time></trkpt><trkpt lat="39.127611159847454" lon="16.153528876243676"><ele>291.0</ele><time>2026-04-27T12:25:50.999Z</time></trkpt><trkpt lat="39.12749213010206" lon="16.15363951362514"><ele>291.0</ele><time>2026-04-27T12:25:51.999Z</time></trkpt><trkpt lat="39.12740783696749" lon="16.153840798642715"><ele>290.5</ele><time>2026-04-27T12:25:52.999Z</time></trkpt><trkpt lat="39.12734411268011" lon="16.154024221871957"><ele>290.0</ele><time>2026-04-27T12:25:53.999Z</time></trkpt><trkpt lat="39.127287948301415" lon="16.154178560579084"><ele>289.5</ele><time>2026-04-27T12:25:54.999Z</time></trkpt><trkpt lat="39.127225041223234" lon="16.154332052712057"><ele>289.0</ele><time>2026-04-27T12:25:55.999Z</time></trkpt><trkpt lat="39.127138475607694" lon="16.154473800508633"><ele>291.66666666666663</ele><time>2026-04-27T12:25:56.999Z</time></trkpt><trkpt lat="39.127021210319256" lon="16.154598325793067"><ele>294.3333333333333</ele><time>2026-04-27T12:25:57.999Z</time></trkpt><trkpt lat="39.12687577717905" lon="16.15473444073684"><ele>297.0</ele><time>2026-04-27T12:25:58.999Z</time></trkpt><trkpt lat="39.12671616650497" lon="16.15488382481076"><ele>297.5</ele><time>2026-04-27T12:25:59.999Z</time></trkpt><trkpt lat="39.1265387596126" lon="16.155049355816022"><ele>298.0</ele><time>2026-04-27T12:26:00.999Z</time></trkpt><trkpt lat="39.12634864387167" lon="16.155226361143164"><ele>298.0</ele><time>2026-04-27T12:26:01.999Z</time></trkpt><trkpt lat="39.12617281433376" lon="16.15539006544182"><ele>298.0</ele><time>2026-04-27T12:26:02.999Z</time></trkpt><trkpt lat="39.12600982671743" lon="16.155541813403584"><ele>298.0</ele><time>2026-04-27T12:26:03.999Z</time></trkpt><trkpt lat="39.12586080616255" lon="16.155683836945748"><ele>298.3333333333333</ele><time>2026-04-27T12:26:04.999Z</time></trkpt><trkpt lat="39.12571209268416" lon="16.155824291417606"><ele>298.6666666666667</ele><time>2026-04-27T12:26:05.999Z</time></trkpt><trkpt lat="39.12556361825375" lon="16.15596282894932"><ele>299.0</ele><time>2026-04-27T12:26:06.999Z</time></trkpt><trkpt lat="39.12542510255436" lon="16.156092074249266"><ele>299.0</ele><time>2026-04-27T12:26:07.999Z</time></trkpt><trkpt lat="39.12530127446143" lon="16.156207614959825"><ele>299.0</ele><time>2026-04-27T12:26:08.999Z</time></trkpt><trkpt lat="39.12518595811801" lon="16.15631521365957"><ele>299.0</ele><time>2026-04-27T12:26:09.999Z</time></trkpt><trkpt lat="39.12508569079799" lon="16.15640877148858"><ele>299.0</ele><time>2026-04-27T12:26:10.999Z</time></trkpt><trkpt lat="39.1250059297044" lon="16.156483194437552"><ele>299.0</ele><time>2026-04-27T12:26:11.999Z</time></trkpt><trkpt lat="39.12495323265555" lon="16.15652841285841"><ele>299.0</ele><time>2026-04-27T12:26:12.999Z</time></trkpt><trkpt lat="39.12487271486306" lon="16.156558363448074"><ele>299.0</ele><time>2026-04-27T12:26:14.999Z</time></trkpt><trkpt lat="39.12481377759215" lon="16.15644766143686"><ele>299.0</ele><time>2026-04-27T12:26:15.999Z</time></trkpt><trkpt lat="39.12476606982785" lon="16.15631102813744"><ele>299.0</ele><time>2026-04-27T12:26:16.999Z</time></trkpt><trkpt lat="39.124728306581886" lon="16.156134984067393"><ele>297.5</ele><time>2026-04-27T12:26:17.999Z</time></trkpt><trkpt lat="39.12468029282436" lon="16.15597758470216"><ele>296.0</ele><time>2026-04-27T12:26:18.999Z</time></trkpt><trkpt lat="39.124608257715835" lon="16.155838298603904"><ele>294.5</ele><time>2026-04-27T12:26:19.999Z</time></trkpt><trkpt lat="39.124497388631966" lon="16.155714063803043"><ele>293.0</ele><time>2026-04-27T12:26:20.999Z</time></trkpt><trkpt lat="39.12434863794021" lon="16.155638790387826"><ele>292.0</ele><time>2026-04-27T12:26:21.999Z</time></trkpt><trkpt lat="39.12417743733322" lon="16.1555946153982"><ele>291.0</ele><time>2026-04-27T12:26:22.999Z</time></trkpt><trkpt lat="39.12398240597273" lon="16.15556742916051"><ele>290.0</ele><time>2026-04-27T12:26:23.999Z</time></trkpt><trkpt lat="39.1237663134837" lon="16.155556337028838"><ele>288.33333333333337</ele><time>2026-04-27T12:26:24.999Z</time></trkpt><trkpt lat="39.123558336196524" lon="16.155525801772136"><ele>286.6666666666667</ele><time>2026-04-27T12:26:25.999Z</time></trkpt><trkpt lat="39.12336905485961" lon="16.15547543829229"><ele>285.0</ele><time>2026-04-27T12:26:26.999Z</time></trkpt><trkpt lat="39.12319432798833" lon="16.15542201419633"><ele>282.6666666666667</ele><time>2026-04-27T12:26:27.999Z</time></trkpt><trkpt lat="39.12302141662159" lon="16.15537260324151"><ele>280.33333333333337</ele><time>2026-04-27T12:26:28.999Z</time></trkpt><trkpt lat="39.12283898628931" lon="16.155326738366426"><ele>278.0</ele><time>2026-04-27T12:26:29.999Z</time></trkpt><trkpt lat="39.122657937553974" lon="16.155282592553455"><ele>278.0</ele><time>2026-04-27T12:26:30.999Z</time></trkpt><trkpt lat="39.12247446891414" lon="16.155249328199996"><ele>278.0</ele><time>2026-04-27T12:26:31.999Z</time></trkpt><trkpt lat="39.12228163491559" lon="16.15523975386549"><ele>278.0</ele><time>2026-04-27T12:26:32.999Z</time></trkpt><trkpt lat="39.12208115608835" lon="16.155250399628915"><ele>276.0</ele><time>2026-04-27T12:26:33.999Z</time></trkpt><trkpt lat="39.121883739867286" lon="16.155277996515707"><ele>274.0</ele><time>2026-04-27T12:26:34.999Z</time></trkpt><trkpt lat="39.12169117147317" lon="16.15531780735322"><ele>272.0</ele><time>2026-04-27T12:26:35.999Z</time></trkpt><trkpt lat="39.121494956434624" lon="16.155350892202215"><ele>269.0</ele><time>2026-04-27T12:26:36.999Z</time></trkpt><trkpt lat="39.121303912706196" lon="16.15536492437823"><ele>266.0</ele><time>2026-04-27T12:26:37.999Z</time></trkpt><trkpt lat="39.121118163114545" lon="16.155365806232222"><ele>263.0</ele><time>2026-04-27T12:26:38.999Z</time></trkpt><trkpt lat="39.12093000380709" lon="16.155354852580928"><ele>263.0</ele><time>2026-04-27T12:26:39.999Z</time></trkpt><trkpt lat="39.120751085538565" lon="16.15533790427264"><ele>263.0</ele><time>2026-04-27T12:26:40.999Z</time></trkpt><trkpt lat="39.120584572480425" lon="16.155315871141816"><ele>263.0</ele><time>2026-04-27T12:26:41.999Z</time></trkpt><trkpt lat="39.12043708878078" lon="16.155298469913756"><ele>261.4</ele><time>2026-04-27T12:26:42.999Z</time></trkpt><trkpt lat="39.12031481885054" lon="16.155285484918746"><ele>259.8</ele><time>2026-04-27T12:26:43.999Z</time></trkpt><trkpt lat="39.12021645783801" lon="16.155274135469718"><ele>258.2</ele><time>2026-04-27T12:26:44.999Z</time></trkpt><trkpt lat="39.120134722708514" lon="16.155265322813282"><ele>256.6</ele><time>2026-04-27T12:26:45.999Z</time></trkpt><trkpt lat="39.12003990119096" lon="16.155244041876472"><ele>255.0</ele><time>2026-04-27T12:26:47.999Z</time></trkpt><trkpt lat="39.119958038961585" lon="16.15521893020615"><ele>255.0</ele><time>2026-04-27T12:26:51.999Z</time></trkpt><trkpt lat="39.1199974197793" lon="16.15530114598708"><ele>255.0</ele><time>2026-04-27T12:26:58.999Z</time></trkpt><trkpt lat="39.120070023644" lon="16.15529985183406"><ele>255.0</ele><time>2026-04-27T12:27:03Z</time></trkpt><trkpt lat="39.12014259393256" lon="16.15533220621575"><ele>255.0</ele><time>2026-04-27T12:27:07Z</time></trkpt><trkpt lat="39.12021777121669" lon="16.155321919688873"><ele>255.0</ele><time>2026-04-27T12:27:10Z</time></trkpt><trkpt lat="39.12030457854793" lon="16.155347455294606"><ele>255.0</ele><time>2026-04-27T12:27:13Z</time></trkpt><trkpt lat="39.12025561599179" lon="16.155269563536937"><ele>255.0</ele><time>2026-04-27T12:27:18Z</time></trkpt><trkpt lat="39.120146285475656" lon="16.155275671051893"><ele>255.0</ele><time>2026-04-27T12:27:19Z</time></trkpt><trkpt lat="39.12002089742195" lon="16.15527845252603"><ele>255.0</ele><time>2026-04-27T12:27:20Z</time></trkpt><trkpt lat="39.11988999338005" lon="16.155278028745084"><ele>255.0</ele><time>2026-04-27T12:27:21Z</time></trkpt><trkpt lat="39.11976693809237" lon="16.15524930016405"><ele>254.0</ele><time>2026-04-27T12:27:22Z</time></trkpt><trkpt lat="39.119632503848926" lon="16.155253414882974"><ele>253.0</ele><time>2026-04-27T12:27:23Z</time></trkpt><trkpt lat="39.11948270210548" lon="16.155213011677198"><ele>252.0</ele><time>2026-04-27T12:27:24Z</time></trkpt><trkpt lat="39.119335563889955" lon="16.15517913639032"><ele>251.0</ele><time>2026-04-27T12:27:25Z</time></trkpt><trkpt lat="39.1191991956785" lon="16.15512964085094"><ele>249.0</ele><time>2026-04-27T12:27:26Z</time></trkpt><trkpt lat="39.11906545867692" lon="16.155052753817028"><ele>247.0</ele><time>2026-04-27T12:27:27Z</time></trkpt><trkpt lat="39.11892858729582" lon="16.15494315526026"><ele>245.0</ele><time>2026-04-27T12:27:28Z</time></trkpt><trkpt lat="39.118789359929885" lon="16.154812474243947"><ele>244.33333333333334</ele><time>2026-04-27T12:27:29Z</time></trkpt><trkpt lat="39.118646531443645" lon="16.15467156135769"><ele>243.66666666666669</ele><time>2026-04-27T12:27:30Z</time></trkpt><trkpt lat="39.11849237659297" lon="16.15451768007005"><ele>243.0</ele><time>2026-04-27T12:27:31Z</time></trkpt><trkpt lat="39.118366948758066" lon="16.15437501159923"><ele>243.0</ele><time>2026-04-27T12:27:32Z</time></trkpt><trkpt lat="39.11825323730076" lon="16.154241000164383"><ele>243.0</ele><time>2026-04-27T12:27:33Z</time></trkpt><trkpt lat="39.118144807401485" lon="16.154116573830773"><ele>243.0</ele><time>2026-04-27T12:27:34Z</time></trkpt><trkpt lat="39.118045072125256" lon="16.15398948596121"><ele>243.0</ele><time>2026-04-27T12:27:35Z</time></trkpt><trkpt lat="39.11794248096597" lon="16.15387052485847"><ele>240.5</ele><time>2026-04-27T12:27:36Z</time></trkpt><trkpt lat="39.11783567290856" lon="16.153746180640265"><ele>238.0</ele><time>2026-04-27T12:27:37Z</time></trkpt><trkpt lat="39.11773432697455" lon="16.15362391320328"><ele>235.5</ele><time>2026-04-27T12:27:38Z</time></trkpt><trkpt lat="39.117636785014994" lon="16.15351268340179"><ele>233.0</ele><time>2026-04-27T12:27:39Z</time></trkpt><trkpt lat="39.11755157521029" lon="16.15341930526409"><ele>233.0</ele><time>2026-04-27T12:27:40Z</time></trkpt><trkpt lat="39.11747030936947" lon="16.153346982419922"><ele>233.0</ele><time>2026-04-27T12:27:41Z</time></trkpt><trkpt lat="39.11740501595661" lon="16.15324958203162"><ele>233.0</ele><time>2026-04-27T12:27:43Z</time></trkpt><trkpt lat="39.11726750310143" lon="16.153398221672944"><ele>233.0</ele><time>2026-04-27T12:27:46Z</time></trkpt><trkpt lat="39.11721347517907" lon="16.153456950088728"><ele>233.0</ele><time>2026-04-27T12:27:48Z</time></trkpt><trkpt lat="39.11710366164771" lon="16.153456941000393"><ele>232.8</ele><time>2026-04-27T12:27:50Z</time></trkpt><trkpt lat="39.1170164988815" lon="16.15342324432114"><ele>232.60000000000002</ele><time>2026-04-27T12:27:51Z</time></trkpt><trkpt lat="39.11693995160164" lon="16.15331268452419"><ele>232.39999999999998</ele><time>2026-04-27T12:27:53Z</time></trkpt><trkpt lat="39.116903047768645" lon="16.153188621975563"><ele>232.2</ele><time>2026-04-27T12:27:54.999Z</time></trkpt><trkpt lat="39.11686914770728" lon="16.153029130903363"><ele>232.0</ele><time>2026-04-27T12:27:56.999Z</time></trkpt><trkpt lat="39.11683185735964" lon="16.152960534662487"><ele>230.33333333333331</ele><time>2026-04-27T12:27:57.999Z</time></trkpt><trkpt lat="39.116977955261284" lon="16.152670718347093"><ele>228.66666666666669</ele><time>2026-04-27T12:27:58.999Z</time></trkpt><trkpt lat="39.116906134798256" lon="16.152542494217737"><ele>227.0</ele><time>2026-04-27T12:28:00.999Z</time></trkpt><trkpt lat="39.11684781992375" lon="16.152435209464006"><ele>224.0</ele><time>2026-04-27T12:28:02.999Z</time></trkpt><trkpt lat="39.11638093556944" lon="16.15273498901991"><ele>224.00000000000003</ele><time>2026-04-27T12:28:04.999Z</time></trkpt><trkpt lat="39.11627925389335" lon="16.15276022930977"><ele>224.0</ele><time>2026-04-27T12:28:05.999Z</time></trkpt><trkpt lat="39.11619380343761" lon="16.152768701804195"><ele>224.0</ele><time>2026-04-27T12:28:06.999Z</time></trkpt><trkpt lat="39.11612261684742" lon="16.15278560621441"><ele>224.0</ele><time>2026-04-27T12:28:07.999Z</time></trkpt><trkpt lat="39.11605440014339" lon="16.152814129519378"><ele>224.00000000000003</ele><time>2026-04-27T12:28:08.999Z</time></trkpt><trkpt lat="39.115999364799784" lon="16.152862883907222"><ele>224.0</ele><time>2026-04-27T12:28:09.999Z</time></trkpt><trkpt lat="39.115960055481274" lon="16.152931980831706"><ele>224.00000000000003</ele><time>2026-04-27T12:28:10.999Z</time></trkpt><trkpt lat="39.11592458233837" lon="16.15303024213388"><ele>224.0</ele><time>2026-04-27T12:28:11.999Z</time></trkpt><trkpt lat="39.11589414833777" lon="16.15313535400995"><ele>224.0</ele><time>2026-04-27T12:28:12.999Z</time></trkpt><trkpt lat="39.11586562193255" lon="16.153219828242324"><ele>224.0</ele><time>2026-04-27T12:28:13.999Z</time></trkpt><trkpt lat="39.115768250960535" lon="16.153237162836504"><ele>224.00000000000003</ele><time>2026-04-27T12:28:14.999Z</time></trkpt><trkpt lat="39.11571305190459" lon="16.153285439760513"><ele>224.0</ele><time>2026-04-27T12:28:17.999Z</time></trkpt><trkpt lat="39.11556360997678" lon="16.153253453303066"><ele>223.25</ele><time>2026-04-27T12:28:19.999Z</time></trkpt><trkpt lat="39.11547522793201" lon="16.15321391208245"><ele>222.5</ele><time>2026-04-27T12:28:20.999Z</time></trkpt><trkpt lat="39.11535721340254" lon="16.153193231464247"><ele>221.75</ele><time>2026-04-27T12:28:21.999Z</time></trkpt><trkpt lat="39.11524059228624" lon="16.153115829739182"><ele>221.0</ele><time>2026-04-27T12:28:22.999Z</time></trkpt><trkpt lat="39.11510782124708" lon="16.153061998621997"><ele>220.25</ele><time>2026-04-27T12:28:23.999Z</time></trkpt><trkpt lat="39.114972537277204" lon="16.15300123350453"><ele>219.5</ele><time>2026-04-27T12:28:24.999Z</time></trkpt><trkpt lat="39.11484145952269" lon="16.15292995961143"><ele>218.75</ele><time>2026-04-27T12:28:25.999Z</time></trkpt><trkpt lat="39.11471952338951" lon="16.1528537267765"><ele>218.0</ele><time>2026-04-27T12:28:26.999Z</time></trkpt><trkpt lat="39.11460390554235" lon="16.152782158382475"><ele>220.8</ele><time>2026-04-27T12:28:27.999Z</time></trkpt><trkpt lat="39.114502286268284" lon="16.152725222564982"><ele>223.60000000000002</ele><time>2026-04-27T12:28:28.999Z</time></trkpt><trkpt lat="39.114426433203974" lon="16.15267805270934"><ele>226.39999999999998</ele><time>2026-04-27T12:28:29.999Z</time></trkpt><trkpt lat="39.11437136038133" lon="16.152608340903438"><ele>229.2</ele><time>2026-04-27T12:28:30.999Z</time></trkpt><trkpt lat="39.11432819247332" lon="16.152528609200303"><ele>232.0</ele><time>2026-04-27T12:28:31.999Z</time></trkpt><trkpt lat="39.114354433644856" lon="16.152384813168077"><ele>230.8</ele><time>2026-04-27T12:28:32.999Z</time></trkpt><trkpt lat="39.114364394743106" lon="16.152251579720684"><ele>229.6</ele><time>2026-04-27T12:28:33.999Z</time></trkpt><trkpt lat="39.1143584988356" lon="16.152120601124977"><ele>228.40000000000003</ele><time>2026-04-27T12:28:34.999Z</time></trkpt><trkpt lat="39.11432626670041" lon="16.15199530307156"><ele>227.20000000000002</ele><time>2026-04-27T12:28:35.999Z</time></trkpt><trkpt lat="39.11426620769162" lon="16.151870862331062"><ele>226.0</ele><time>2026-04-27T12:28:36.999Z</time></trkpt><trkpt lat="39.114182839979556" lon="16.15177190723561"><ele>226.0</ele><time>2026-04-27T12:28:37.999Z</time></trkpt><trkpt lat="39.114087008035725" lon="16.151685743508402"><ele>226.00000000000003</ele><time>2026-04-27T12:28:38.999Z</time></trkpt><trkpt lat="39.113996716296704" lon="16.15158154012469"><ele>226.00000000000003</ele><time>2026-04-27T12:28:39.999Z</time></trkpt><trkpt lat="39.113928561591294" lon="16.15146113754743"><ele>226.0</ele><time>2026-04-27T12:28:40.999Z</time></trkpt><trkpt lat="39.1138593349601" lon="16.151387390623483"><ele>226.0</ele><time>2026-04-27T12:28:41.999Z</time></trkpt><trkpt lat="39.11376683482523" lon="16.15130691067922"><ele>227.33333333333331</ele><time>2026-04-27T12:28:43.999Z</time></trkpt><trkpt lat="39.11370423773837" lon="16.15133437140308"><ele>228.66666666666666</ele><time>2026-04-27T12:28:44.999Z</time></trkpt><trkpt lat="39.113623062130266" lon="16.151403896948217"><ele>230.0</ele><time>2026-04-27T12:28:45.999Z</time></trkpt><trkpt lat="39.113544224478424" lon="16.15150345730616"><ele>231.33333333333331</ele><time>2026-04-27T12:28:46.999Z</time></trkpt><trkpt lat="39.11349107764238" lon="16.15156647007353"><ele>232.66666666666666</ele><time>2026-04-27T12:28:47.999Z</time></trkpt><trkpt lat="39.11340691185088" lon="16.15161939740749"><ele>234.0</ele><time>2026-04-27T12:28:49.999Z</time></trkpt><trkpt lat="39.11333184313411" lon="16.151562861430886"><ele>234.0</ele><time>2026-04-27T12:28:50.999Z</time></trkpt><trkpt lat="39.11327131526925" lon="16.151531133146214"><ele>234.0</ele><time>2026-04-27T12:28:51.999Z</time></trkpt><trkpt lat="39.1131807774097" lon="16.151427641922307"><ele>234.0</ele><time>2026-04-27T12:28:52.999Z</time></trkpt><trkpt lat="39.113147248514316" lon="16.1512295049965"><ele>234.0</ele><time>2026-04-27T12:28:53.999Z</time></trkpt><trkpt lat="39.11310554536332" lon="16.1510863975789"><ele>231.75</ele><time>2026-04-27T12:28:54.999Z</time></trkpt><trkpt lat="39.11305766787328" lon="16.150932762014904"><ele>229.5</ele><time>2026-04-27T12:28:55.999Z</time></trkpt><trkpt lat="39.11307302676221" lon="16.15073463947014"><ele>227.25</ele><time>2026-04-27T12:28:56.999Z</time></trkpt><trkpt lat="39.11307302675695" lon="16.150566360862978"><ele>225.0</ele><time>2026-04-27T12:28:57.999Z</time></trkpt><trkpt lat="39.113063787518996" lon="16.150455856814855"><ele>225.0</ele><time>2026-04-27T12:28:58.999Z</time></trkpt><trkpt lat="39.112999315006" lon="16.15033403102389"><ele>225.0</ele><time>2026-04-27T12:29:00.999Z</time></trkpt><trkpt lat="39.11290619634877" lon="16.15027607280659"><ele>225.0</ele><time>2026-04-27T12:29:01.999Z</time></trkpt><trkpt lat="39.11279685533204" lon="16.150280836573973"><ele>225.0</ele><time>2026-04-27T12:29:02.999Z</time></trkpt><trkpt lat="39.112690146129985" lon="16.150295027637632"><ele>225.0</ele><time>2026-04-27T12:29:03.999Z</time></trkpt><trkpt lat="39.11259794989805" lon="16.150384990836752"><ele>225.0</ele><time>2026-04-27T12:29:04.999Z</time></trkpt><trkpt lat="39.11251891783269" lon="16.150539223801186"><ele>225.0</ele><time>2026-04-27T12:29:05.999Z</time></trkpt><trkpt lat="39.112430581191276" lon="16.150682123006877"><ele>225.0</ele><time>2026-04-27T12:29:06.999Z</time></trkpt><trkpt lat="39.112338899831144" lon="16.15082460081618"><ele>225.0</ele><time>2026-04-27T12:29:08Z</time></trkpt><trkpt lat="39.11224914992503" lon="16.150955568111044"><ele>226.25</ele><time>2026-04-27T12:29:09Z</time></trkpt><trkpt lat="39.112157322108466" lon="16.15104348907368"><ele>227.5</ele><time>2026-04-27T12:29:10Z</time></trkpt><trkpt lat="39.11206479699959" lon="16.151117533250204"><ele>228.75</ele><time>2026-04-27T12:29:11Z</time></trkpt><trkpt lat="39.11198102302899" lon="16.15121005818739"><ele>230.0</ele><time>2026-04-27T12:29:12Z</time></trkpt><trkpt lat="39.111932623789265" lon="16.1513854287398"><ele>235.33333333333334</ele><time>2026-04-27T12:29:13Z</time></trkpt><trkpt lat="39.11190550376838" lon="16.151553898206785"><ele>240.66666666666669</ele><time>2026-04-27T12:29:14Z</time></trkpt><trkpt lat="39.11190293112164" lon="16.151794465375904"><ele>246.0</ele><time>2026-04-27T12:29:15Z</time></trkpt><trkpt lat="39.11190920526555" lon="16.151967475679204"><ele>246.0</ele><time>2026-04-27T12:29:16Z</time></trkpt><trkpt lat="39.111869951718" lon="16.152129048749853"><ele>246.0</ele><time>2026-04-27T12:29:17Z</time></trkpt><trkpt lat="39.11183530478879" lon="16.152327722850163"><ele>246.0</ele><time>2026-04-27T12:29:18Z</time></trkpt><trkpt lat="39.111797359852375" lon="16.152486092735554"><ele>246.0</ele><time>2026-04-27T12:29:19Z</time></trkpt><trkpt lat="39.11174613485074" lon="16.15263715531981"><ele>249.25</ele><time>2026-04-27T12:29:20Z</time></trkpt><trkpt lat="39.11169334786437" lon="16.15279453702563"><ele>252.5</ele><time>2026-04-27T12:29:21Z</time></trkpt><trkpt lat="39.11167950715994" lon="16.152971638620123"><ele>255.75</ele><time>2026-04-27T12:29:22Z</time></trkpt><trkpt lat="39.111675287724495" lon="16.153087933188562"><ele>259.0</ele><time>2026-04-27T12:29:23Z</time></trkpt><trkpt lat="39.11165740717745" lon="16.153210614326778"><ele>263.5</ele><time>2026-04-27T12:29:25Z</time></trkpt><trkpt lat="39.111510421281196" lon="16.153249754171696"><ele>268.0</ele><time>2026-04-27T12:29:27Z</time></trkpt><trkpt lat="39.11142983644927" lon="16.153183527713267"><ele>272.5</ele><time>2026-04-27T12:29:28Z</time></trkpt><trkpt lat="39.111393230022784" lon="16.152984231113926"><ele>277.0</ele><time>2026-04-27T12:29:29Z</time></trkpt><trkpt lat="39.11134487540679" lon="16.152836798249343"><ele>277.0</ele><time>2026-04-27T12:29:30Z</time></trkpt><trkpt lat="39.11127081526092" lon="16.15269233607598"><ele>277.0</ele><time>2026-04-27T12:29:31Z</time></trkpt><trkpt lat="39.11119045605765" lon="16.15257673488014"><ele>277.0</ele><time>2026-04-27T12:29:32Z</time></trkpt><trkpt lat="39.111097467118995" lon="16.152443859113472"><ele>277.0</ele><time>2026-04-27T12:29:33Z</time></trkpt><trkpt lat="39.11107995682516" lon="16.15226232650788"><ele>271.0</ele><time>2026-04-27T12:29:34Z</time></trkpt><trkpt lat="39.111034284682844" lon="16.152110328336992"><ele>265.0</ele><time>2026-04-27T12:29:35Z</time></trkpt><trkpt lat="39.110969673066265" lon="16.152006216569436"><ele>259.0</ele><time>2026-04-27T12:29:36Z</time></trkpt><trkpt lat="39.110884968968854" lon="16.151892197351362"><ele>253.0</ele><time>2026-04-27T12:29:37Z</time></trkpt><trkpt lat="39.11084542930803" lon="16.151754484405252"><ele>253.0</ele><time>2026-04-27T12:29:38Z</time></trkpt><trkpt lat="39.11090208015522" lon="16.15158243232251"><ele>253.0</ele><time>2026-04-27T12:29:39Z</time></trkpt><trkpt lat="39.110895162079764" lon="16.151469382736835"><ele>253.0</ele><time>2026-04-27T12:29:40Z</time></trkpt><trkpt lat="39.110817716681886" lon="16.151450592341163"><ele>253.0</ele><time>2026-04-27T12:29:42Z</time></trkpt><trkpt lat="39.1107543375941" lon="16.151486163905943"><ele>253.0</ele><time>2026-04-27T12:29:43Z</time></trkpt><trkpt lat="39.11065686649641" lon="16.151571556126868"><ele>252.75</ele><time>2026-04-27T12:29:44Z</time></trkpt><trkpt lat="39.110591964185645" lon="16.15169305232962"><ele>252.5</ele><time>2026-04-27T12:29:45Z</time></trkpt><trkpt lat="39.110530346700415" lon="16.151799521634075"><ele>252.25</ele><time>2026-04-27T12:29:46Z</time></trkpt><trkpt lat="39.11044150239384" lon="16.151885859076508"><ele>252.0</ele><time>2026-04-27T12:29:47Z</time></trkpt><trkpt lat="39.11034049079766" lon="16.151975579855613"><ele>252.0</ele><time>2026-04-27T12:29:48Z</time></trkpt><trkpt lat="39.11024454630353" lon="16.152063953841036"><ele>252.0</ele><time>2026-04-27T12:29:49Z</time></trkpt><trkpt lat="39.110161164778695" lon="16.152138025025693"><ele>252.0</ele><time>2026-04-27T12:29:50Z</time></trkpt><trkpt lat="39.11007369274141" lon="16.152175381321168"><ele>252.0</ele><time>2026-04-27T12:29:51Z</time></trkpt><trkpt lat="39.10996107025283" lon="16.152126895820867"><ele>252.0</ele><time>2026-04-27T12:29:52Z</time></trkpt><trkpt lat="39.109846170490925" lon="16.152072561784173"><ele>255.0</ele><time>2026-04-27T12:29:53Z</time></trkpt><trkpt lat="39.10972987926384" lon="16.151995043021703"><ele>258.0</ele><time>2026-04-27T12:29:53.999Z</time></trkpt><trkpt lat="39.10962526154906" lon="16.151872769647216"><ele>261.0</ele><time>2026-04-27T12:29:54.999Z</time></trkpt><trkpt lat="39.10954712492958" lon="16.151770039570035"><ele>264.0</ele><time>2026-04-27T12:29:55.999Z</time></trkpt><trkpt lat="39.109466439923914" lon="16.15169108553735"><ele>264.0</ele><time>2026-04-27T12:29:56.999Z</time></trkpt><trkpt lat="39.109355128240104" lon="16.15164377414342"><ele>264.0</ele><time>2026-04-27T12:29:57.999Z</time></trkpt><trkpt lat="39.10920621171259" lon="16.151695124643506"><ele>264.0</ele><time>2026-04-27T12:29:58.999Z</time></trkpt><trkpt lat="39.109044836547845" lon="16.151773484802803"><ele>264.0</ele><time>2026-04-27T12:29:59.999Z</time></trkpt><trkpt lat="39.10890601062106" lon="16.151846859365918"><ele>265.5</ele><time>2026-04-27T12:30:00.999Z</time></trkpt><trkpt lat="39.108768108637776" lon="16.15191092204629"><ele>267.0</ele><time>2026-04-27T12:30:01.999Z</time></trkpt><trkpt lat="39.10864082239715" lon="16.151952361316404"><ele>268.5</ele><time>2026-04-27T12:30:02.999Z</time></trkpt><trkpt lat="39.108511314474846" lon="16.151975025236204"><ele>270.0</ele><time>2026-04-27T12:30:03.999Z</time></trkpt><trkpt lat="39.10838060274819" lon="16.151994922421945"><ele>270.0</ele><time>2026-04-27T12:30:04.999Z</time></trkpt><trkpt lat="39.108257093770746" lon="16.152023652041233"><ele>270.0</ele><time>2026-04-27T12:30:05.999Z</time></trkpt><trkpt lat="39.108151184788866" lon="16.152051987373156"><ele>270.0</ele><time>2026-04-27T12:30:06.999Z</time></trkpt><trkpt lat="39.108064696589935" lon="16.152067788997158"><ele>270.0</ele><time>2026-04-27T12:30:07.999Z</time></trkpt><trkpt lat="39.107988952642984" lon="16.1520500782358"><ele>270.0</ele><time>2026-04-27T12:30:08.999Z</time></trkpt><trkpt lat="39.10788806140996" lon="16.15193417781893"><ele>274.8333333333333</ele><time>2026-04-27T12:30:09.999Z</time></trkpt><trkpt lat="39.10785815791207" lon="16.151769738942928"><ele>279.6666666666667</ele><time>2026-04-27T12:30:10.999Z</time></trkpt><trkpt lat="39.10784626051005" lon="16.151680504188352"><ele>284.5</ele><time>2026-04-27T12:30:11.999Z</time></trkpt><trkpt lat="39.10783694652321" lon="16.151585880721477"><ele>289.33333333333337</ele><time>2026-04-27T12:30:14.999Z</time></trkpt><trkpt lat="39.107773536485894" lon="16.151579032669023"><ele>294.1666666666667</ele><time>2026-04-27T12:30:18.999Z</time></trkpt><trkpt lat="39.10771963771358" lon="16.15166200657171"><ele>299.0</ele><time>2026-04-27T12:30:19.999Z</time></trkpt><trkpt lat="39.107712136707946" lon="16.15175841283201"><ele>299.0</ele><time>2026-04-27T12:30:20.999Z</time></trkpt><trkpt lat="39.107712136710354" lon="16.151843458090816"><ele>299.0</ele><time>2026-04-27T12:30:21.999Z</time></trkpt><trkpt lat="39.10770075161499" lon="16.15196786781609"><ele>299.0</ele><time>2026-04-27T12:30:23.999Z</time></trkpt><trkpt lat="39.1076591940405" lon="16.152104639440562"><ele>299.0</ele><time>2026-04-27T12:30:25.999Z</time></trkpt><trkpt lat="39.10761982385244" lon="16.152185714750598"><ele>299.0</ele><time>2026-04-27T12:30:27.999Z</time></trkpt><trkpt lat="39.10752333422594" lon="16.152175837129214"><ele>299.0</ele><time>2026-04-27T12:30:30.999Z</time></trkpt><trkpt lat="39.10753173254755" lon="16.152051490259186"><ele>299.0</ele><time>2026-04-27T12:30:31.999Z</time></trkpt><trkpt lat="39.107525521206725" lon="16.151942208439767"><ele>299.0</ele><time>2026-04-27T12:30:32.999Z</time></trkpt><trkpt lat="39.10751186092055" lon="16.151847763423454"><ele>299.0</ele><time>2026-04-27T12:30:33.999Z</time></trkpt><trkpt lat="39.10750001881386" lon="16.151759746338534"><ele>299.0</ele><time>2026-04-27T12:30:34.999Z</time></trkpt><trkpt lat="39.107438703435" lon="16.1517126706383"><ele>299.0</ele><time>2026-04-27T12:30:38.999Z</time></trkpt><trkpt lat="39.10736597277575" lon="16.15180676107323"><ele>299.0</ele><time>2026-04-27T12:30:40.999Z</time></trkpt><trkpt lat="39.107708349707885" lon="16.151904147865245"><ele>299.0</ele><time>2026-04-27T12:30:41.999Z</time></trkpt><trkpt lat="39.107688545447836" lon="16.152048630873164"><ele>299.0</ele><time>2026-04-27T12:30:42.999Z</time></trkpt><trkpt lat="39.107309422575746" lon="16.15206791127271"><ele>304.79999999999995</ele><time>2026-04-27T12:30:43.999Z</time></trkpt><trkpt lat="39.10728395822496" lon="16.152165154621862"><ele>310.59999999999997</ele><time>2026-04-27T12:30:44.999Z</time></trkpt><trkpt lat="39.10724611346377" lon="16.15226469766871"><ele>316.4</ele><time>2026-04-27T12:30:45.999Z</time></trkpt><trkpt lat="39.107198042105594" lon="16.15237276759997"><ele>322.2</ele><time>2026-04-27T12:30:46.999Z</time></trkpt><trkpt lat="39.10713127576861" lon="16.15255421745205"><ele>328.0</ele><time>2026-04-27T12:30:47.999Z</time></trkpt><trkpt lat="39.107091772967166" lon="16.15268732896504"><ele>328.0</ele><time>2026-04-27T12:30:48.999Z</time></trkpt><trkpt lat="39.10706254344792" lon="16.15278844974101"><ele>328.0</ele><time>2026-04-27T12:30:49.999Z</time></trkpt><trkpt lat="39.107020869418484" lon="16.152921002648686"><ele>328.0</ele><time>2026-04-27T12:30:51.999Z</time></trkpt><trkpt lat="39.10709431195073" lon="16.152931181933845"><ele>328.0</ele><time>2026-04-27T12:30:53.999Z</time></trkpt><trkpt lat="39.10702729771793" lon="16.1528498063338"><ele>328.0</ele><time>2026-04-27T12:30:56.999Z</time></trkpt><trkpt lat="39.106927204498895" lon="16.15267309304493"><ele>328.0</ele><time>2026-04-27T12:30:57.999Z</time></trkpt><trkpt lat="39.10692631962544" lon="16.152502633822746"><ele>328.0</ele><time>2026-04-27T12:30:58.999Z</time></trkpt><trkpt lat="39.10693019630573" lon="16.15233388703904"><ele>328.0</ele><time>2026-04-27T12:30:59.999Z</time></trkpt><trkpt lat="39.10693886319843" lon="16.152158489430988"><ele>328.0</ele><time>2026-04-27T12:31:00.999Z</time></trkpt><trkpt lat="39.106938863199936" lon="16.152018742539482"><ele>330.59999999999997</ele><time>2026-04-27T12:31:02.999Z</time></trkpt><trkpt lat="39.10691649773553" lon="16.1519025073719"><ele>333.2</ele><time>2026-04-27T12:31:06.999Z</time></trkpt><trkpt lat="39.10683820657431" lon="16.15194268871626"><ele>335.8</ele><time>2026-04-27T12:31:07.999Z</time></trkpt><trkpt lat="39.1067913515453" lon="16.152071202915803"><ele>338.4</ele><time>2026-04-27T12:31:08.999Z</time></trkpt><trkpt lat="39.106760535403865" lon="16.152191426575605"><ele>341.0</ele><time>2026-04-27T12:31:09.999Z</time></trkpt><trkpt lat="39.10672476589482" lon="16.15229429278581"><ele>337.75</ele><time>2026-04-27T12:31:10.999Z</time></trkpt><trkpt lat="39.106673750079885" lon="16.15241245094403"><ele>334.5</ele><time>2026-04-27T12:31:11.999Z</time></trkpt><trkpt lat="39.10660453787711" lon="16.15259408457597"><ele>331.25</ele><time>2026-04-27T12:31:12.999Z</time></trkpt><trkpt lat="39.10655990337237" lon="16.152727122947248"><ele>328.0</ele><time>2026-04-27T12:31:14Z</time></trkpt><trkpt lat="39.10652909792677" lon="16.152849816625594"><ele>335.2</ele><time>2026-04-27T12:31:15Z</time></trkpt><trkpt lat="39.10649627358794" lon="16.15292991860802"><ele>342.4</ele><time>2026-04-27T12:31:16Z</time></trkpt><trkpt lat="39.10642554894657" lon="16.152987552313817"><ele>349.59999999999997</ele><time>2026-04-27T12:31:17Z</time></trkpt><trkpt lat="39.106359218112935" lon="16.1530797500568"><ele>356.79999999999995</ele><time>2026-04-27T12:31:18Z</time></trkpt><trkpt lat="39.10631637379488" lon="16.153202404377424"><ele>364.0</ele><time>2026-04-27T12:31:19Z</time></trkpt><trkpt lat="39.10631857055227" lon="16.153339806115106"><ele>364.0</ele><time>2026-04-27T12:31:20Z</time></trkpt><trkpt lat="39.10634863642457" lon="16.15350780319739"><ele>364.0</ele><time>2026-04-27T12:31:21Z</time></trkpt><trkpt lat="39.10641210232492" lon="16.153637383836994"><ele>364.0</ele><time>2026-04-27T12:31:22Z</time></trkpt><trkpt lat="39.106508728700554" lon="16.153730740569237"><ele>364.0</ele><time>2026-04-27T12:31:23Z</time></trkpt><trkpt lat="39.106591779366724" lon="16.153842454979596"><ele>360.6</ele><time>2026-04-27T12:31:24Z</time></trkpt><trkpt lat="39.1066800942737" lon="16.15397042423803"><ele>357.2</ele><time>2026-04-27T12:31:25Z</time></trkpt><trkpt lat="39.10677537960674" lon="16.154091284583092"><ele>353.8</ele><time>2026-04-27T12:31:26Z</time></trkpt><trkpt lat="39.106843730549954" lon="16.154164852384504"><ele>350.40000000000003</ele><time>2026-04-27T12:31:27Z</time></trkpt><trkpt lat="39.106925101218145" lon="16.15417665737881"><ele>347.0</ele><time>2026-04-27T12:31:28Z</time></trkpt><trkpt lat="39.10701853067914" lon="16.154153446838833"><ele>347.0</ele><time>2026-04-27T12:31:29Z</time></trkpt><trkpt lat="39.10710591384823" lon="16.154045587881825"><ele>347.0</ele><time>2026-04-27T12:31:30Z</time></trkpt><trkpt lat="39.107215776720665" lon="16.154050258290198"><ele>347.0</ele><time>2026-04-27T12:31:31Z</time></trkpt><trkpt lat="39.107339235671574" lon="16.15402986994374"><ele>347.0</ele><time>2026-04-27T12:31:32Z</time></trkpt><trkpt lat="39.107438611209226" lon="16.154028936029803"><ele>346.25</ele><time>2026-04-27T12:31:33Z</time></trkpt><trkpt lat="39.107572121913535" lon="16.15402922793598"><ele>345.5</ele><time>2026-04-27T12:31:34Z</time></trkpt><trkpt lat="39.10769806156175" lon="16.154039094291747"><ele>344.75</ele><time>2026-04-27T12:31:35Z</time></trkpt><trkpt lat="39.107778027784136" lon="16.154060551861352"><ele>344.0</ele><time>2026-04-27T12:31:36Z</time></trkpt><trkpt lat="39.10784990606532" lon="16.15417059612637"><ele>344.0</ele><time>2026-04-27T12:31:38Z</time></trkpt><trkpt lat="39.107939905037256" lon="16.154259432713978"><ele>344.0</ele><time>2026-04-27T12:31:39Z</time></trkpt><trkpt lat="39.10805337100962" lon="16.15435282034223"><ele>344.0</ele><time>2026-04-27T12:31:40Z</time></trkpt><trkpt lat="39.10816583351525" lon="16.154392993764947"><ele>344.0</ele><time>2026-04-27T12:31:41Z</time></trkpt><trkpt lat="39.10827124805225" lon="16.154407919959972"><ele>343.4</ele><time>2026-04-27T12:31:42Z</time></trkpt><trkpt lat="39.10837821625336" lon="16.15435117984217"><ele>342.79999999999995</ele><time>2026-04-27T12:31:43Z</time></trkpt><trkpt lat="39.10850507893828" lon="16.154321483304827"><ele>342.20000000000005</ele><time>2026-04-27T12:31:44Z</time></trkpt><trkpt lat="39.108612738010464" lon="16.15435163067974"><ele>341.6</ele><time>2026-04-27T12:31:45Z</time></trkpt><trkpt lat="39.108688808139725" lon="16.154394656117766"><ele>341.0</ele><time>2026-04-27T12:31:46Z</time></trkpt><trkpt lat="39.10876442984815" lon="16.15439713554433"><ele>341.0</ele><time>2026-04-27T12:31:47Z</time></trkpt><trkpt lat="39.10883490930396" lon="16.154384026577663"><ele>341.0</ele><time>2026-04-27T12:31:48Z</time></trkpt><trkpt lat="39.10889832097442" lon="16.15437872692811"><ele>341.0</ele><time>2026-04-27T12:31:49Z</time></trkpt><trkpt lat="39.10895671502562" lon="16.15441318401035"><ele>341.0</ele><time>2026-04-27T12:31:50Z</time></trkpt><trkpt lat="39.1090436178376" lon="16.154440037391616"><ele>341.0</ele><time>2026-04-27T12:31:51Z</time></trkpt><trkpt lat="39.10915800578365" lon="16.15444648823605"><ele>341.0</ele><time>2026-04-27T12:31:52Z</time></trkpt><trkpt lat="39.10925781293223" lon="16.154433411355313"><ele>342.20000000000005</ele><time>2026-04-27T12:31:53Z</time></trkpt><trkpt lat="39.10935578776526" lon="16.154407169018555"><ele>343.40000000000003</ele><time>2026-04-27T12:31:54Z</time></trkpt><trkpt lat="39.10942880298003" lon="16.154367174771853"><ele>344.6</ele><time>2026-04-27T12:31:55Z</time></trkpt><trkpt lat="39.10950353649019" lon="16.154355214924525"><ele>345.8</ele><time>2026-04-27T12:31:56Z</time></trkpt><trkpt lat="39.10959647957324" lon="16.154345027605054"><ele>347.0</ele><time>2026-04-27T12:31:57Z</time></trkpt><trkpt lat="39.10971125707899" lon="16.154439960918996"><ele>347.0</ele><time>2026-04-27T12:31:57.999Z</time></trkpt><trkpt lat="39.10983035362087" lon="16.154508305484924"><ele>347.0</ele><time>2026-04-27T12:31:58.999Z</time></trkpt><trkpt lat="39.10994598570397" lon="16.154567832986853"><ele>347.0</ele><time>2026-04-27T12:31:59.999Z</time></trkpt><trkpt lat="39.11000889310138" lon="16.154631176104047"><ele>347.0</ele><time>2026-04-27T12:32:00.999Z</time></trkpt><trkpt lat="39.110006325142045" lon="16.154773433763612"><ele>347.0</ele><time>2026-04-27T12:32:01.999Z</time></trkpt><trkpt lat="39.11002814763774" lon="16.15489002453666"><ele>350.0</ele><time>2026-04-27T12:32:03.999Z</time></trkpt><trkpt lat="39.1099754215136" lon="16.155021509062234"><ele>353.0</ele><time>2026-04-27T12:32:05.999Z</time></trkpt><trkpt lat="39.10995956476112" lon="16.15516305926213"><ele>356.0</ele><time>2026-04-27T12:32:06.999Z</time></trkpt><trkpt lat="39.109946599663374" lon="16.155262701716406"><ele>359.0</ele><time>2026-04-27T12:32:07.999Z</time></trkpt><trkpt lat="39.10985242763333" lon="16.15513974521749"><ele>362.0</ele><time>2026-04-27T12:32:13.999Z</time></trkpt><trkpt lat="39.109821565854475" lon="16.15502871183771"><ele>363.25</ele><time>2026-04-27T12:32:16.999Z</time></trkpt><trkpt lat="39.10968219767088" lon="16.155060669478495"><ele>364.5</ele><time>2026-04-27T12:32:17.999Z</time></trkpt><trkpt lat="39.10968722414599" lon="16.155273152395385"><ele>365.75</ele><time>2026-04-27T12:32:18.999Z</time></trkpt><trkpt lat="39.10969623547085" lon="16.155366063126746"><ele>367.0</ele><time>2026-04-27T12:32:19.999Z</time></trkpt><trkpt lat="39.10970632164723" lon="16.155476659451224"><ele>367.0</ele><time>2026-04-27T12:32:20.999Z</time></trkpt><trkpt lat="39.10971912133619" lon="16.1556022223479"><ele>367.0</ele><time>2026-04-27T12:32:21.999Z</time></trkpt><trkpt lat="39.109735867413086" lon="16.15573023164966"><ele>367.0</ele><time>2026-04-27T12:32:22.999Z</time></trkpt><trkpt lat="39.10977556360715" lon="16.155879593009733"><ele>367.0</ele><time>2026-04-27T12:32:23.999Z</time></trkpt><trkpt lat="39.1099382675034" lon="16.155919005178436"><ele>368.6</ele><time>2026-04-27T12:32:24.999Z</time></trkpt><trkpt lat="39.109964010527705" lon="16.155996954041374"><ele>370.20000000000005</ele><time>2026-04-27T12:32:25.999Z</time></trkpt><trkpt lat="39.10993915534597" lon="16.156129456753366"><ele>371.8</ele><time>2026-04-27T12:32:27.999Z</time></trkpt><trkpt lat="39.10990329865915" lon="16.156215827900585"><ele>373.4</ele><time>2026-04-27T12:32:28.999Z</time></trkpt><trkpt lat="39.109877903757244" lon="16.156328755580198"><ele>375.0</ele><time>2026-04-27T12:32:29.999Z</time></trkpt><trkpt lat="39.109866773569735" lon="16.156472485660437"><ele>379.8</ele><time>2026-04-27T12:32:30.999Z</time></trkpt><trkpt lat="39.10986732735829" lon="16.156616391312248"><ele>384.6</ele><time>2026-04-27T12:32:31.999Z</time></trkpt><trkpt lat="39.10985557294482" lon="16.156730766684944"><ele>389.4</ele><time>2026-04-27T12:32:32.999Z</time></trkpt><trkpt lat="39.10983581676661" lon="16.15686161672"><ele>394.2</ele><time>2026-04-27T12:32:33.999Z</time></trkpt><trkpt lat="39.10980506298233" lon="16.156993848543763"><ele>399.0</ele><time>2026-04-27T12:32:34.999Z</time></trkpt><trkpt lat="39.10977256232653" lon="16.157095851539054"><ele>399.0</ele><time>2026-04-27T12:32:35.999Z</time></trkpt><trkpt lat="39.10968246804115" lon="16.15720101182061"><ele>399.0</ele><time>2026-04-27T12:32:37.999Z</time></trkpt><trkpt lat="39.1095679333" lon="16.157206220818797"><ele>399.0</ele><time>2026-04-27T12:32:39.999Z</time></trkpt><trkpt lat="39.109464554516734" lon="16.157170573141663"><ele>399.0</ele><time>2026-04-27T12:32:40.999Z</time></trkpt><trkpt lat="39.10932943674121" lon="16.15713602264891"><ele>399.0</ele><time>2026-04-27T12:32:41.999Z</time></trkpt><trkpt lat="39.10920045244673" lon="16.157129738004073"><ele>399.0</ele><time>2026-04-27T12:32:42.999Z</time></trkpt><trkpt lat="39.10910605791332" lon="16.15713381902672"><ele>399.0</ele><time>2026-04-27T12:32:43.999Z</time></trkpt><trkpt lat="39.10900411931581" lon="16.157131852973997"><ele>399.0</ele><time>2026-04-27T12:32:44.999Z</time></trkpt><trkpt lat="39.10890729737297" lon="16.157143410726828"><ele>399.0</ele><time>2026-04-27T12:32:45.999Z</time></trkpt><trkpt lat="39.10882904626041" lon="16.15717647005167"><ele>399.4</ele><time>2026-04-27T12:32:46.999Z</time></trkpt><trkpt lat="39.10877211445403" lon="16.157270540634627"><ele>399.79999999999995</ele><time>2026-04-27T12:32:47.999Z</time></trkpt><trkpt lat="39.10872580330271" lon="16.157405085106195"><ele>400.20000000000005</ele><time>2026-04-27T12:32:48.999Z</time></trkpt><trkpt lat="39.10869227398977" lon="16.157532035691876"><ele>400.6</ele><time>2026-04-27T12:32:49.999Z</time></trkpt><trkpt lat="39.10865530124942" lon="16.157618967239976"><ele>401.0</ele><time>2026-04-27T12:32:50.999Z</time></trkpt><trkpt lat="39.10859868744288" lon="16.157732212124"><ele>401.66666666666663</ele><time>2026-04-27T12:32:51.999Z</time></trkpt><trkpt lat="39.1085578790039" lon="16.157835528604828"><ele>402.3333333333333</ele><time>2026-04-27T12:32:52.999Z</time></trkpt><trkpt lat="39.10851164774634" lon="16.157928703134324"><ele>403.0</ele><time>2026-04-27T12:32:53.999Z</time></trkpt><trkpt lat="39.108461698906005" lon="16.158026480692566"><ele>403.66666666666663</ele><time>2026-04-27T12:32:54.999Z</time></trkpt><trkpt lat="39.10843254287321" lon="16.158134811352255"><ele>404.3333333333333</ele><time>2026-04-27T12:32:55.999Z</time></trkpt><trkpt lat="39.108397765335454" lon="16.158234211957524"><ele>405.0</ele><time>2026-04-27T12:32:56.999Z</time></trkpt><trkpt lat="39.108369854094825" lon="16.15832081125555"><ele>405.0</ele><time>2026-04-27T12:32:57.999Z</time></trkpt><trkpt lat="39.10835107304521" lon="16.158437462631248"><ele>405.0</ele><time>2026-04-27T12:32:59.999Z</time></trkpt><trkpt lat="39.10835800256692" lon="16.15855209219196"><ele>405.0</ele><time>2026-04-27T12:33:01.999Z</time></trkpt><trkpt lat="39.10837935332963" lon="16.15871075308022"><ele>405.0</ele><time>2026-04-27T12:33:03.999Z</time></trkpt><trkpt lat="39.1083867411548" lon="16.158805419334055"><ele>405.0</ele><time>2026-04-27T12:33:04.999Z</time></trkpt><trkpt lat="39.108396399209234" lon="16.158887935752084"><ele>405.0</ele><time>2026-04-27T12:33:05.999Z</time></trkpt><trkpt lat="39.108434998435904" lon="16.159005653742646"><ele>405.0</ele><time>2026-04-27T12:33:07.999Z</time></trkpt><trkpt lat="39.10839518646958" lon="16.159080131964885"><ele>405.0</ele><time>2026-04-27T12:33:10.999Z</time></trkpt><trkpt lat="39.10829262842478" lon="16.158992875624037"><ele>405.0</ele><time>2026-04-27T12:33:12.999Z</time></trkpt><trkpt lat="39.108252685043134" lon="16.158915383879357"><ele>405.0</ele><time>2026-04-27T12:33:13.999Z</time></trkpt><trkpt lat="39.10819400759201" lon="16.15882181890266"><ele>405.0</ele><time>2026-04-27T12:33:14.999Z</time></trkpt><trkpt lat="39.10813789974799" lon="16.158722961086813"><ele>411.8</ele><time>2026-04-27T12:33:15.999Z</time></trkpt><trkpt lat="39.10808799684816" lon="16.158616648186573"><ele>418.6</ele><time>2026-04-27T12:33:16.999Z</time></trkpt><trkpt lat="39.1080520343531" lon="16.158490289377664"><ele>425.4</ele><time>2026-04-27T12:33:17.999Z</time></trkpt><trkpt lat="39.108020063156495" lon="16.158377518140327"><ele>432.2</ele><time>2026-04-27T12:33:18.999Z</time></trkpt><trkpt lat="39.108000237064545" lon="16.158269546230777"><ele>439.0</ele><time>2026-04-27T12:33:20Z</time></trkpt><trkpt lat="39.10800365312577" lon="16.15817485557844"><ele>439.00000000000006</ele><time>2026-04-27T12:33:21Z</time></trkpt><trkpt lat="39.10801406487618" lon="16.15807507701335"><ele>439.0</ele><time>2026-04-27T12:33:22Z</time></trkpt><trkpt lat="39.10804840810913" lon="16.157975495020125"><ele>439.0</ele><time>2026-04-27T12:33:23Z</time></trkpt><trkpt lat="39.1080547780403" lon="16.15786692762114"><ele>439.0</ele><time>2026-04-27T12:33:25Z</time></trkpt><trkpt lat="39.10797489682918" lon="16.1578157218257"><ele>439.00000000000006</ele><time>2026-04-27T12:33:28Z</time></trkpt><trkpt lat="39.10794156895071" lon="16.15792670960727"><ele>439.0</ele><time>2026-04-27T12:33:31Z</time></trkpt><trkpt lat="39.1078994467588" lon="16.15807245734617"><ele>439.0</ele><time>2026-04-27T12:33:33Z</time></trkpt><trkpt lat="39.10783878351002" lon="16.15819287568115"><ele>439.0</ele><time>2026-04-27T12:33:34Z</time></trkpt><trkpt lat="39.10779179760746" lon="16.158323127673807"><ele>439.0</ele><time>2026-04-27T12:33:35Z</time></trkpt><trkpt lat="39.10774443940666" lon="16.158453923980225"><ele>439.0</ele><time>2026-04-27T12:33:36Z</time></trkpt><trkpt lat="39.107695481620645" lon="16.158554028215747"><ele>439.0</ele><time>2026-04-27T12:33:37Z</time></trkpt><trkpt lat="39.10764711304623" lon="16.158639406826012"><ele>440.83333333333337</ele><time>2026-04-27T12:33:38Z</time></trkpt><trkpt lat="39.10763619792374" lon="16.158736973758977"><ele>442.6666666666667</ele><time>2026-04-27T12:33:39Z</time></trkpt><trkpt lat="39.107633873829464" lon="16.158875001174515"><ele>444.5</ele><time>2026-04-27T12:33:41Z</time></trkpt><trkpt lat="39.107663064291124" lon="16.158996011625483"><ele>446.33333333333337</ele><time>2026-04-27T12:33:43Z</time></trkpt><trkpt lat="39.107702114153874" lon="16.159066206892792"><ele>448.1666666666667</ele><time>2026-04-27T12:33:44Z</time></trkpt><trkpt lat="39.10774121467493" lon="16.159138957673026"><ele>450.0</ele><time>2026-04-27T12:33:45Z</time></trkpt><trkpt lat="39.107683959855564" lon="16.159194624707297"><ele>450.2</ele><time>2026-04-27T12:33:48Z</time></trkpt><trkpt lat="39.10763843894302" lon="16.159081595075644"><ele>450.4</ele><time>2026-04-27T12:33:51Z</time></trkpt><trkpt lat="39.107555579434866" lon="16.15909929419812"><ele>450.6</ele><time>2026-04-27T12:33:53Z</time></trkpt><trkpt lat="39.107587776720614" lon="16.15919963396594"><ele>450.8</ele><time>2026-04-27T12:33:58Z</time></trkpt><trkpt lat="39.10753705958728" lon="16.15934531609171"><ele>451.0</ele><time>2026-04-27T12:34:02Z</time></trkpt><trkpt lat="39.1076350595762" lon="16.159476738037316"><ele>451.0</ele><time>2026-04-27T12:34:03.999Z</time></trkpt><trkpt lat="39.1077160781961" lon="16.159666636552238"><ele>451.0</ele><time>2026-04-27T12:34:05.999Z</time></trkpt><trkpt lat="39.107774103238064" lon="16.15974001159915"><ele>451.0</ele><time>2026-04-27T12:34:06.999Z</time></trkpt><trkpt lat="39.107827464038465" lon="16.1598454153249"><ele>451.0</ele><time>2026-04-27T12:34:08.999Z</time></trkpt><trkpt lat="39.10779777491933" lon="16.159925280848668"><ele>451.0</ele><time>2026-04-27T12:34:14.999Z</time></trkpt><trkpt lat="39.10771139106842" lon="16.159987835252874"><ele>451.0</ele><time>2026-04-27T12:34:20.999Z</time></trkpt><trkpt lat="39.107658947805845" lon="16.15990918323924"><ele>451.0</ele><time>2026-04-27T12:34:24.999Z</time></trkpt><trkpt lat="39.10759874422845" lon="16.159794153447535"><ele>451.0</ele><time>2026-04-27T12:34:28.999Z</time></trkpt><trkpt lat="39.107487078148154" lon="16.15971315890824"><ele>451.0</ele><time>2026-04-27T12:34:29.999Z</time></trkpt><trkpt lat="39.10740483407673" lon="16.15966916078765"><ele>451.0</ele><time>2026-04-27T12:34:30.999Z</time></trkpt><trkpt lat="39.10733810714765" lon="16.159630665992278"><ele>457.50000000000006</ele><time>2026-04-27T12:34:31.999Z</time></trkpt><trkpt lat="39.10728794979315" lon="16.159569402197516"><ele>464.0</ele><time>2026-04-27T12:34:32.999Z</time></trkpt><trkpt lat="39.10724769909125" lon="16.159499952788572"><ele>470.5</ele><time>2026-04-27T12:34:33.999Z</time></trkpt><trkpt lat="39.107202540018946" lon="16.15940151009902"><ele>477.0</ele><time>2026-04-27T12:34:34.999Z</time></trkpt><trkpt lat="39.107165889150906" lon="16.1593078201191"><ele>483.50000000000006</ele><time>2026-04-27T12:34:35.999Z</time></trkpt><trkpt lat="39.10715190776064" lon="16.159227860675514"><ele>490.0</ele><time>2026-04-27T12:34:36.999Z</time></trkpt><trkpt lat="39.107126124661335" lon="16.15911865922507"><ele>488.6</ele><time>2026-04-27T12:34:37.999Z</time></trkpt><trkpt lat="39.10710056587558" lon="16.15901199036301"><ele>487.2</ele><time>2026-04-27T12:34:38.999Z</time></trkpt><trkpt lat="39.107056433931376" lon="16.158921454806595"><ele>485.79999999999995</ele><time>2026-04-27T12:34:39.999Z</time></trkpt><trkpt lat="39.106979904038155" lon="16.15884987278792"><ele>484.4</ele><time>2026-04-27T12:34:40.999Z</time></trkpt><trkpt lat="39.10688271310131" lon="16.158798451742275"><ele>483.0</ele><time>2026-04-27T12:34:41.999Z</time></trkpt><trkpt lat="39.10679258709128" lon="16.15874469250854"><ele>483.0</ele><time>2026-04-27T12:34:42.999Z</time></trkpt><trkpt lat="39.106705170939854" lon="16.158713976406954"><ele>483.0</ele><time>2026-04-27T12:34:43.999Z</time></trkpt><trkpt lat="39.10662191662068" lon="16.15870075588057"><ele>483.0</ele><time>2026-04-27T12:34:44.999Z</time></trkpt><trkpt lat="39.106537082743806" lon="16.15871320415647"><ele>483.0</ele><time>2026-04-27T12:34:45.999Z</time></trkpt><trkpt lat="39.10645436874599" lon="16.1587096185578"><ele>483.0</ele><time>2026-04-27T12:34:46.999Z</time></trkpt><trkpt lat="39.106354455585304" lon="16.158688637104227"><ele>483.0</ele><time>2026-04-27T12:34:47.999Z</time></trkpt><trkpt lat="39.10622435501102" lon="16.15863370334696"><ele>484.0</ele><time>2026-04-27T12:34:48.999Z</time></trkpt><trkpt lat="39.10610683023488" lon="16.158589787321784"><ele>484.99999999999994</ele><time>2026-04-27T12:34:49.999Z</time></trkpt><trkpt lat="39.106017879706144" lon="16.158536350204056"><ele>485.99999999999994</ele><time>2026-04-27T12:34:50.999Z</time></trkpt><trkpt lat="39.10593603038623" lon="16.158453541144073"><ele>487.0</ele><time>2026-04-27T12:34:51.999Z</time></trkpt><trkpt lat="39.1058538681492" lon="16.158359661505568"><ele>488.0</ele><time>2026-04-27T12:34:52.999Z</time></trkpt><trkpt lat="39.105777345789164" lon="16.158278935363917"><ele>489.0</ele><time>2026-04-27T12:34:53.999Z</time></trkpt><trkpt lat="39.10567976113586" lon="16.158225873540395"><ele>489.99999999999994</ele><time>2026-04-27T12:34:54.999Z</time></trkpt><trkpt lat="39.10558540110703" lon="16.158183202150113"><ele>490.99999999999994</ele><time>2026-04-27T12:34:55.999Z</time></trkpt><trkpt lat="39.10551887195204" lon="16.158118999874766"><ele>492.0</ele><time>2026-04-27T12:34:56.999Z</time></trkpt><trkpt lat="39.10544506611396" lon="16.15800232828917"><ele>493.0</ele><time>2026-04-27T12:34:58.999Z</time></trkpt><trkpt lat="39.105393120118244" lon="16.157927846303227"><ele>493.0</ele><time>2026-04-27T12:34:59.999Z</time></trkpt><trkpt lat="39.105343850968005" lon="16.15786152898744"><ele>492.99999999999994</ele><time>2026-04-27T12:35:00.999Z</time></trkpt><trkpt lat="39.1052802315322" lon="16.157768347618745"><ele>492.99999999999994</ele><time>2026-04-27T12:35:01.999Z</time></trkpt><trkpt lat="39.105227091579664" lon="16.157633405128706"><ele>493.0</ele><time>2026-04-27T12:35:02.999Z</time></trkpt><trkpt lat="39.10518114612735" lon="16.157514008931955"><ele>493.0</ele><time>2026-04-27T12:35:03.999Z</time></trkpt><trkpt lat="39.10512901109581" lon="16.1574345792096"><ele>491.59999999999997</ele><time>2026-04-27T12:35:04.999Z</time></trkpt><trkpt lat="39.10509877971352" lon="16.15736116417799"><ele>490.19999999999993</ele><time>2026-04-27T12:35:05.999Z</time></trkpt><trkpt lat="39.10506862327915" lon="16.15728484530412"><ele>488.8</ele><time>2026-04-27T12:35:06.999Z</time></trkpt><trkpt lat="39.10507220573059" lon="16.15713327471276"><ele>487.4</ele><time>2026-04-27T12:35:07.999Z</time></trkpt><trkpt lat="39.10506728988213" lon="16.156950730472815"><ele>486.0</ele><time>2026-04-27T12:35:08.999Z</time></trkpt><trkpt lat="39.1050458276503" lon="16.156751787019626"><ele>486.0</ele><time>2026-04-27T12:35:09.999Z</time></trkpt><trkpt lat="39.105020216537085" lon="16.156577412713418"><ele>486.0</ele><time>2026-04-27T12:35:10.999Z</time></trkpt><trkpt lat="39.10498934377092" lon="16.156429401939718"><ele>486.0</ele><time>2026-04-27T12:35:11.999Z</time></trkpt><trkpt lat="39.104963747238045" lon="16.1562841934483"><ele>486.0</ele><time>2026-04-27T12:35:12.999Z</time></trkpt><trkpt lat="39.10494041133077" lon="16.15614744980958"><ele>485.0</ele><time>2026-04-27T12:35:13.999Z</time></trkpt><trkpt lat="39.10491956037924" lon="16.156031983602418"><ele>484.0</ele><time>2026-04-27T12:35:14.999Z</time></trkpt><trkpt lat="39.104871209965864" lon="16.15592968834221"><ele>483.0</ele><time>2026-04-27T12:35:15.999Z</time></trkpt><trkpt lat="39.104858017444116" lon="16.155827383319586"><ele>482.0</ele><time>2026-04-27T12:35:16.999Z</time></trkpt><trkpt lat="39.104841751983656" lon="16.155719989117635"><ele>481.0</ele><time>2026-04-27T12:35:17.999Z</time></trkpt><trkpt lat="39.10478591939896" lon="16.155614346069967"><ele>480.0</ele><time>2026-04-27T12:35:18.999Z</time></trkpt><trkpt lat="39.10470960309626" lon="16.15550624372657"><ele>479.8</ele><time>2026-04-27T12:35:19.999Z</time></trkpt><trkpt lat="39.104629122086486" lon="16.15540065798491"><ele>479.6</ele><time>2026-04-27T12:35:20.999Z</time></trkpt><trkpt lat="39.10456186469228" lon="16.15529811172496"><ele>479.4</ele><time>2026-04-27T12:35:21.999Z</time></trkpt><trkpt lat="39.10450578486027" lon="16.15519811924266"><ele>479.2</ele><time>2026-04-27T12:35:22.999Z</time></trkpt><trkpt lat="39.1044531726822" lon="16.15509318508059"><ele>479.0</ele><time>2026-04-27T12:35:23.999Z</time></trkpt><trkpt lat="39.10440627882827" lon="16.154991857893734"><ele>479.0</ele><time>2026-04-27T12:35:24.999Z</time></trkpt><trkpt lat="39.10435371843769" lon="16.15490497457801"><ele>479.0</ele><time>2026-04-27T12:35:27Z</time></trkpt><trkpt lat="39.10429650437378" lon="16.154963538145058"><ele>479.0</ele><time>2026-04-27T12:35:52Z</time></trkpt><trkpt lat="39.104281790977964" lon="16.155073898460596"><ele>479.0</ele><time>2026-04-27T12:35:53Z</time></trkpt><trkpt lat="39.10429316250348" lon="16.155203827973196"><ele>479.0</ele><time>2026-04-27T12:35:54Z</time></trkpt><trkpt lat="39.10424864627124" lon="16.155358954035215"><ele>479.0</ele><time>2026-04-27T12:35:55Z</time></trkpt><trkpt lat="39.1042741570934" lon="16.15548767987423"><ele>479.0</ele><time>2026-04-27T12:35:56Z</time></trkpt><trkpt lat="39.104237247173764" lon="16.155556900301626"><ele>479.0</ele><time>2026-04-27T12:36:00Z</time></trkpt><trkpt lat="39.10418190258377" lon="16.15546660526045"><ele>479.0</ele><time>2026-04-27T12:36:01Z</time></trkpt><trkpt lat="39.104118231544284" lon="16.155373988197823"><ele>479.0</ele><time>2026-04-27T12:36:02Z</time></trkpt><trkpt lat="39.104010853971126" lon="16.15515829910644"><ele>477.25</ele><time>2026-04-27T12:36:03Z</time></trkpt><trkpt lat="39.1039175762317" lon="16.15504627814785"><ele>475.5</ele><time>2026-04-27T12:36:04Z</time></trkpt><trkpt lat="39.10381880511726" lon="16.154946582039177"><ele>473.75</ele><time>2026-04-27T12:36:05Z</time></trkpt><trkpt lat="39.103730890500124" lon="16.15484590758105"><ele>472.0</ele><time>2026-04-27T12:36:06Z</time></trkpt><trkpt lat="39.10363975417771" lon="16.154755184717324"><ele>472.0</ele><time>2026-04-27T12:36:07Z</time></trkpt><trkpt lat="39.103540915137295" lon="16.15465860858888"><ele>472.0</ele><time>2026-04-27T12:36:08Z</time></trkpt><trkpt lat="39.10345135698473" lon="16.154610534475673"><ele>472.0</ele><time>2026-04-27T12:36:09Z</time></trkpt><trkpt lat="39.10332694786498" lon="16.154554943186564"><ele>472.0</ele><time>2026-04-27T12:36:09.999Z</time></trkpt><trkpt lat="39.103151695183364" lon="16.154496132191028"><ele>468.6</ele><time>2026-04-27T12:36:10.999Z</time></trkpt><trkpt lat="39.10303670595838" lon="16.15444660582406"><ele>465.20000000000005</ele><time>2026-04-27T12:36:11.999Z</time></trkpt><trkpt lat="39.102927325265554" lon="16.154386336171562"><ele>461.8</ele><time>2026-04-27T12:36:12.999Z</time></trkpt><trkpt lat="39.10284266295915" lon="16.154385367148695"><ele>458.4</ele><time>2026-04-27T12:36:13.999Z</time></trkpt><trkpt lat="39.10274026593066" lon="16.154413315184584"><ele>455.0</ele><time>2026-04-27T12:36:14.999Z</time></trkpt><trkpt lat="39.102632026517504" lon="16.15446621119799"><ele>455.0</ele><time>2026-04-27T12:36:15.999Z</time></trkpt><trkpt lat="39.10253477645966" lon="16.154490693705647"><ele>455.0</ele><time>2026-04-27T12:36:16.999Z</time></trkpt><trkpt lat="39.102419679278405" lon="16.154479367973106"><ele>455.0</ele><time>2026-04-27T12:36:17.999Z</time></trkpt><trkpt lat="39.10229592557196" lon="16.154422475527785"><ele>455.0</ele><time>2026-04-27T12:36:18.999Z</time></trkpt><trkpt lat="39.102175733814754" lon="16.154354845477844"><ele>452.0</ele><time>2026-04-27T12:36:19.999Z</time></trkpt><trkpt lat="39.102062105656074" lon="16.154250624238124"><ele>449.0</ele><time>2026-04-27T12:36:20.999Z</time></trkpt><trkpt lat="39.10193245636231" lon="16.15418814031492"><ele>446.0</ele><time>2026-04-27T12:36:21.999Z</time></trkpt><trkpt lat="39.10181645778368" lon="16.15413884778962"><ele>443.0</ele><time>2026-04-27T12:36:22.999Z</time></trkpt><trkpt lat="39.101712830142965" lon="16.154084808633723"><ele>440.4</ele><time>2026-04-27T12:36:23.999Z</time></trkpt><trkpt lat="39.101624238207144" lon="16.154015414437897"><ele>437.79999999999995</ele><time>2026-04-27T12:36:24.999Z</time></trkpt><trkpt lat="39.101546568673356" lon="16.153969688248726"><ele>435.2</ele><time>2026-04-27T12:36:25.999Z</time></trkpt><trkpt lat="39.1014628238939" lon="16.153971302440578"><ele>432.6</ele><time>2026-04-27T12:36:26.999Z</time></trkpt><trkpt lat="39.101358137416945" lon="16.15402134387416"><ele>430.0</ele><time>2026-04-27T12:36:27.999Z</time></trkpt><trkpt lat="39.10127031727416" lon="16.154086160121135"><ele>429.0</ele><time>2026-04-27T12:36:28.999Z</time></trkpt><trkpt lat="39.10116716239877" lon="16.15414158325525"><ele>428.0</ele><time>2026-04-27T12:36:29.999Z</time></trkpt><trkpt lat="39.101051904272005" lon="16.154175677974187"><ele>427.0</ele><time>2026-04-27T12:36:30.999Z</time></trkpt><trkpt lat="39.1009355833255" lon="16.154232156479683"><ele>426.0</ele><time>2026-04-27T12:36:31.999Z</time></trkpt><trkpt lat="39.100807361459395" lon="16.154302324495827"><ele>422.75</ele><time>2026-04-27T12:36:32.999Z</time></trkpt><trkpt lat="39.10067918410734" lon="16.154387121795025"><ele>419.5</ele><time>2026-04-27T12:36:33.999Z</time></trkpt><trkpt lat="39.10057512379374" lon="16.15448219773272"><ele>416.25</ele><time>2026-04-27T12:36:34.999Z</time></trkpt><trkpt lat="39.100486365324166" lon="16.15454866278912"><ele>413.0</ele><time>2026-04-27T12:36:35.999Z</time></trkpt><trkpt lat="39.1004008994416" lon="16.154591896252896"><ele>413.0</ele><time>2026-04-27T12:36:36.999Z</time></trkpt><trkpt lat="39.10028712454337" lon="16.15459465228114"><ele>413.0</ele><time>2026-04-27T12:36:37.999Z</time></trkpt><trkpt lat="39.10016744294038" lon="16.154601839575857"><ele>413.0</ele><time>2026-04-27T12:36:38.999Z</time></trkpt><trkpt lat="39.10005001390061" lon="16.15461563049195"><ele>413.0</ele><time>2026-04-27T12:36:39.999Z</time></trkpt><trkpt lat="39.099946342031394" lon="16.154640755071032"><ele>409.0</ele><time>2026-04-27T12:36:40.999Z</time></trkpt><trkpt lat="39.09985144479714" lon="16.15463584005861"><ele>405.0</ele><time>2026-04-27T12:36:41.999Z</time></trkpt><trkpt lat="39.09975306573958" lon="16.15463807686478"><ele>401.0</ele><time>2026-04-27T12:36:42.999Z</time></trkpt><trkpt lat="39.099638098171255" lon="16.154617352968188"><ele>397.0</ele><time>2026-04-27T12:36:43.999Z</time></trkpt><trkpt lat="39.09952123165401" lon="16.15458798504229"><ele>393.0</ele><time>2026-04-27T12:36:44.999Z</time></trkpt><trkpt lat="39.09940313044901" lon="16.15451412382351"><ele>393.0</ele><time>2026-04-27T12:36:45.999Z</time></trkpt><trkpt lat="39.09929590343952" lon="16.15440867819759"><ele>393.0</ele><time>2026-04-27T12:36:46.999Z</time></trkpt><trkpt lat="39.09919961429065" lon="16.154305318600827"><ele>393.0</ele><time>2026-04-27T12:36:47.999Z</time></trkpt><trkpt lat="39.09911222578301" lon="16.15422199814574"><ele>393.0</ele><time>2026-04-27T12:36:48.999Z</time></trkpt><trkpt lat="39.099031543773066" lon="16.15414163897059"><ele>390.1666666666667</ele><time>2026-04-27T12:36:49.999Z</time></trkpt><trkpt lat="39.098970776840964" lon="16.154038505992347"><ele>387.3333333333333</ele><time>2026-04-27T12:36:50.999Z</time></trkpt><trkpt lat="39.098913262941466" lon="16.15394793745722"><ele>384.5</ele><time>2026-04-27T12:36:51.999Z</time></trkpt><trkpt lat="39.098848247146115" lon="16.15388881264092"><ele>381.66666666666663</ele><time>2026-04-27T12:36:52.999Z</time></trkpt><trkpt lat="39.09877595580883" lon="16.153844897465454"><ele>378.8333333333333</ele><time>2026-04-27T12:36:53.999Z</time></trkpt><trkpt lat="39.09868791182649" lon="16.153843693966362"><ele>376.0</ele><time>2026-04-27T12:36:54.999Z</time></trkpt><trkpt lat="39.0986071211825" lon="16.15389577938047"><ele>374.6</ele><time>2026-04-27T12:36:55.999Z</time></trkpt><trkpt lat="39.09853488381895" lon="16.15394246781663"><ele>373.20000000000005</ele><time>2026-04-27T12:36:57.999Z</time></trkpt><trkpt lat="39.09851151285945" lon="16.153824801872485"><ele>371.79999999999995</ele><time>2026-04-27T12:36:59.999Z</time></trkpt><trkpt lat="39.09851929943666" lon="16.15373892932914"><ele>370.4</ele><time>2026-04-27T12:37:00.999Z</time></trkpt><trkpt lat="39.098418668753176" lon="16.153669353095285"><ele>369.0</ele><time>2026-04-27T12:37:02.999Z</time></trkpt><trkpt lat="39.09829634695341" lon="16.15371883713283"><ele>365.6</ele><time>2026-04-27T12:37:03.999Z</time></trkpt><trkpt lat="39.09817220792948" lon="16.153825365954674"><ele>362.2</ele><time>2026-04-27T12:37:04.999Z</time></trkpt><trkpt lat="39.09809688742481" lon="16.153884165724925"><ele>358.8</ele><time>2026-04-27T12:37:05.999Z</time></trkpt><trkpt lat="39.098031753726794" lon="16.153917839053587"><ele>355.40000000000003</ele><time>2026-04-27T12:37:06.999Z</time></trkpt><trkpt lat="39.097965856977225" lon="16.153929215570777"><ele>352.0</ele><time>2026-04-27T12:37:07.999Z</time></trkpt><trkpt lat="39.09788270381794" lon="16.15390825646278"><ele>352.0</ele><time>2026-04-27T12:37:08.999Z</time></trkpt><trkpt lat="39.09780011992759" lon="16.153868450533253"><ele>352.0</ele><time>2026-04-27T12:37:09.999Z</time></trkpt><trkpt lat="39.09775666705963" lon="16.153784785131048"><ele>352.0</ele><time>2026-04-27T12:37:10.999Z</time></trkpt><trkpt lat="39.09775729900311" lon="16.15367818003653"><ele>352.0</ele><time>2026-04-27T12:37:11.999Z</time></trkpt><trkpt lat="39.09779911860893" lon="16.153570355334736"><ele>352.0</ele><time>2026-04-27T12:37:12.999Z</time></trkpt><trkpt lat="39.09787596494385" lon="16.153462602117976"><ele>352.0</ele><time>2026-04-27T12:37:13.999Z</time></trkpt><trkpt lat="39.097970025758094" lon="16.153346329452166"><ele>352.0</ele><time>2026-04-27T12:37:14.999Z</time></trkpt><trkpt lat="39.09804749891069" lon="16.153222729260143"><ele>352.0</ele><time>2026-04-27T12:37:15.999Z</time></trkpt><trkpt lat="39.0981245093715" lon="16.153099398761647"><ele>352.0</ele><time>2026-04-27T12:37:16.999Z</time></trkpt><trkpt lat="39.09820229013949" lon="16.152975614912066"><ele>351.16666666666663</ele><time>2026-04-27T12:37:17.999Z</time></trkpt><trkpt lat="39.09827833102669" lon="16.152859816941866"><ele>350.3333333333333</ele><time>2026-04-27T12:37:18.999Z</time></trkpt><trkpt lat="39.09835143826403" lon="16.15276501660963"><ele>349.5</ele><time>2026-04-27T12:37:19.999Z</time></trkpt><trkpt lat="39.09841022716867" lon="16.152693650391903"><ele>348.6666666666667</ele><time>2026-04-27T12:37:20.999Z</time></trkpt><trkpt lat="39.09844573804077" lon="16.152611701234335"><ele>347.83333333333337</ele><time>2026-04-27T12:37:21.999Z</time></trkpt><trkpt lat="39.098479725572794" lon="16.15252905827252"><ele>347.0</ele><time>2026-04-27T12:37:22.999Z</time></trkpt><trkpt lat="39.09848024413177" lon="16.15242879199003"><ele>344.0</ele><time>2026-04-27T12:37:23.999Z</time></trkpt><trkpt lat="39.09845543004049" lon="16.15233531170726"><ele>341.0</ele><time>2026-04-27T12:37:24.999Z</time></trkpt><trkpt lat="39.09843127723854" lon="16.152234805121427"><ele>338.0</ele><time>2026-04-27T12:37:25.999Z</time></trkpt><trkpt lat="39.098402581982185" lon="16.152152263801405"><ele>335.0</ele><time>2026-04-27T12:37:26.999Z</time></trkpt><trkpt lat="39.09838102632098" lon="16.152041965920223"><ele>332.0</ele><time>2026-04-27T12:37:28.999Z</time></trkpt><trkpt lat="39.09844926664514" lon="16.15200533002838"><ele>329.0</ele><time>2026-04-27T12:37:29.999Z</time></trkpt><trkpt lat="39.09852852448445" lon="16.15199739011741"><ele>329.0</ele><time>2026-04-27T12:37:30.999Z</time></trkpt><trkpt lat="39.09861679532668" lon="16.15196753940137"><ele>329.0</ele><time>2026-04-27T12:37:32Z</time></trkpt><trkpt lat="39.09869428767124" lon="16.151923397974745"><ele>329.0</ele><time>2026-04-27T12:37:33Z</time></trkpt><trkpt lat="39.09874938089469" lon="16.151877074701105"><ele>329.0</ele><time>2026-04-27T12:37:34Z</time></trkpt><trkpt lat="39.098805730191486" lon="16.151823297577973"><ele>329.0</ele><time>2026-04-27T12:37:36Z</time></trkpt><trkpt lat="39.09867578646694" lon="16.151816226668885"><ele>329.0</ele><time>2026-04-27T12:37:40Z</time></trkpt><trkpt lat="39.09858747754643" lon="16.151859418498507"><ele>329.0</ele><time>2026-04-27T12:37:41Z</time></trkpt><trkpt lat="39.09847739822718" lon="16.151861513917435"><ele>329.0</ele><time>2026-04-27T12:37:42Z</time></trkpt><trkpt lat="39.09837534271082" lon="16.151829286383112"><ele>329.0</ele><time>2026-04-27T12:37:43Z</time></trkpt><trkpt lat="39.098273553183304" lon="16.151778578580252"><ele>329.0</ele><time>2026-04-27T12:37:44Z</time></trkpt><trkpt lat="39.098177591276745" lon="16.1517400998903"><ele>329.0</ele><time>2026-04-27T12:37:45Z</time></trkpt><trkpt lat="39.098085028719474" lon="16.15171098973731"><ele>326.0</ele><time>2026-04-27T12:37:46Z</time></trkpt><trkpt lat="39.09800190787827" lon="16.151690961008807"><ele>323.0</ele><time>2026-04-27T12:37:47Z</time></trkpt><trkpt lat="39.09791847906728" lon="16.151707200393272"><ele>320.0</ele><time>2026-04-27T12:37:48Z</time></trkpt><trkpt lat="39.09783356382337" lon="16.15175423384647"><ele>317.0</ele><time>2026-04-27T12:37:49Z</time></trkpt><trkpt lat="39.09776496986163" lon="16.151870193931924"><ele>314.0</ele><time>2026-04-27T12:37:50Z</time></trkpt><trkpt lat="39.097708640980336" lon="16.152000839503465"><ele>314.0</ele><time>2026-04-27T12:37:51Z</time></trkpt><trkpt lat="39.09764920938393" lon="16.152114338204477"><ele>314.0</ele><time>2026-04-27T12:37:52Z</time></trkpt><trkpt lat="39.097589842984156" lon="16.15219724099066"><ele>314.0</ele><time>2026-04-27T12:37:53Z</time></trkpt><trkpt lat="39.097502379790384" lon="16.15226408258642"><ele>314.0</ele><time>2026-04-27T12:37:54Z</time></trkpt><trkpt lat="39.09738337974276" lon="16.15227154729499"><ele>314.0</ele><time>2026-04-27T12:37:55Z</time></trkpt><trkpt lat="39.097239273043186" lon="16.152257216861912"><ele>310.4</ele><time>2026-04-27T12:37:56Z</time></trkpt><trkpt lat="39.09710746156201" lon="16.152206632015574"><ele>306.79999999999995</ele><time>2026-04-27T12:37:57Z</time></trkpt><trkpt lat="39.09699713308044" lon="16.15217702929554"><ele>303.20000000000005</ele><time>2026-04-27T12:37:58Z</time></trkpt><trkpt lat="39.09690199416577" lon="16.152160206677138"><ele>299.6</ele><time>2026-04-27T12:37:59Z</time></trkpt><trkpt lat="39.09680029958397" lon="16.152163011891155"><ele>296.0</ele><time>2026-04-27T12:38:00Z</time></trkpt><trkpt lat="39.09667218220778" lon="16.15223513657853"><ele>292.5</ele><time>2026-04-27T12:38:01Z</time></trkpt><trkpt lat="39.09654778641449" lon="16.152351798882542"><ele>289.0</ele><time>2026-04-27T12:38:02Z</time></trkpt><trkpt lat="39.09642915327271" lon="16.15242583544543"><ele>285.5</ele><time>2026-04-27T12:38:03Z</time></trkpt><trkpt lat="39.09633766880117" lon="16.152508310558375"><ele>282.0</ele><time>2026-04-27T12:38:04Z</time></trkpt><trkpt lat="39.096260249610076" lon="16.152587994902895"><ele>282.0</ele><time>2026-04-27T12:38:05Z</time></trkpt><trkpt lat="39.096194522900014" lon="16.152692889818123"><ele>282.0</ele><time>2026-04-27T12:38:06Z</time></trkpt><trkpt lat="39.09616694295271" lon="16.15283132919148"><ele>282.0</ele><time>2026-04-27T12:38:07Z</time></trkpt><trkpt lat="39.096213722999636" lon="16.15299121174158"><ele>282.0</ele><time>2026-04-27T12:38:08Z</time></trkpt><trkpt lat="39.09622967163949" lon="16.15310899279747"><ele>282.0</ele><time>2026-04-27T12:38:09.999Z</time></trkpt><trkpt lat="39.09613551639716" lon="16.15308373387637"><ele>282.0</ele><time>2026-04-27T12:38:12.999Z</time></trkpt><trkpt lat="39.09615358529088" lon="16.152912779311006"><ele>282.0</ele><time>2026-04-27T12:38:13.999Z</time></trkpt><trkpt lat="39.096110108776244" lon="16.15279024164775"><ele>282.0</ele><time>2026-04-27T12:38:14.999Z</time></trkpt><trkpt lat="39.096124163990375" lon="16.15260755502655"><ele>282.0</ele><time>2026-04-27T12:38:15.999Z</time></trkpt><trkpt lat="39.096171080507155" lon="16.152477626440263"><ele>282.0</ele><time>2026-04-27T12:38:16.999Z</time></trkpt><trkpt lat="39.09622454047223" lon="16.152386041926732"><ele>282.0</ele><time>2026-04-27T12:38:17.999Z</time></trkpt><trkpt lat="39.09629936322591" lon="16.152259493539603"><ele>282.0</ele><time>2026-04-27T12:38:18.999Z</time></trkpt><trkpt lat="39.09637678065654" lon="16.15214471182156"><ele>282.0</ele><time>2026-04-27T12:38:19.999Z</time></trkpt><trkpt lat="39.09648696340907" lon="16.152033457402037"><ele>286.6666666666667</ele><time>2026-04-27T12:38:20.999Z</time></trkpt><trkpt lat="39.0966206173737" lon="16.15190670015304"><ele>291.33333333333337</ele><time>2026-04-27T12:38:21.999Z</time></trkpt><trkpt lat="39.09674609231785" lon="16.151788810940204"><ele>296.0</ele><time>2026-04-27T12:38:22.999Z</time></trkpt><trkpt lat="39.09686038153591" lon="16.151689538680778"><ele>296.0</ele><time>2026-04-27T12:38:23.999Z</time></trkpt><trkpt lat="39.09695906738916" lon="16.15162462976234"><ele>296.0</ele><time>2026-04-27T12:38:24.999Z</time></trkpt><trkpt lat="39.09701581690475" lon="16.151564535545333"><ele>296.0</ele><time>2026-04-27T12:38:25.999Z</time></trkpt><trkpt lat="39.09705888658004" lon="16.151488246103035"><ele>296.0</ele><time>2026-04-27T12:38:26.999Z</time></trkpt><trkpt lat="39.09697160365122" lon="16.151410661084302"><ele>296.0</ele><time>2026-04-27T12:38:28.999Z</time></trkpt><trkpt lat="39.096834891477236" lon="16.151500833539064"><ele>296.0</ele><time>2026-04-27T12:38:30.999Z</time></trkpt><trkpt lat="39.0967471128733" lon="16.151581265543978"><ele>296.0</ele><time>2026-04-27T12:38:31.999Z</time></trkpt><trkpt lat="39.09665139129728" lon="16.15165969500788"><ele>296.0</ele><time>2026-04-27T12:38:32.999Z</time></trkpt><trkpt lat="39.096532763619194" lon="16.151725361998427"><ele>296.0</ele><time>2026-04-27T12:38:33.999Z</time></trkpt><trkpt lat="39.09641225499068" lon="16.151800855267265"><ele>291.5</ele><time>2026-04-27T12:38:34.999Z</time></trkpt><trkpt lat="39.096288689476566" lon="16.15184463511703"><ele>287.0</ele><time>2026-04-27T12:38:35.999Z</time></trkpt><trkpt lat="39.09617008709275" lon="16.151872649248592"><ele>282.5</ele><time>2026-04-27T12:38:36.999Z</time></trkpt><trkpt lat="39.0960620806271" lon="16.151935156010634"><ele>278.0</ele><time>2026-04-27T12:38:37.999Z</time></trkpt><trkpt lat="39.0959432210784" lon="16.15202880601613"><ele>278.0</ele><time>2026-04-27T12:38:38.999Z</time></trkpt><trkpt lat="39.09587118833424" lon="16.15216108416814"><ele>278.0</ele><time>2026-04-27T12:38:39.999Z</time></trkpt><trkpt lat="39.09581160859542" lon="16.152291619295674"><ele>278.0</ele><time>2026-04-27T12:38:40.999Z</time></trkpt><trkpt lat="39.09575496949324" lon="16.152394380661676"><ele>278.0</ele><time>2026-04-27T12:38:41.999Z</time></trkpt><trkpt lat="39.095703859786845" lon="16.15250834853716"><ele>278.0</ele><time>2026-04-27T12:38:42.999Z</time></trkpt><trkpt lat="39.09572008998056" lon="16.152681337692893"><ele>273.5</ele><time>2026-04-27T12:38:43.999Z</time></trkpt><trkpt lat="39.09572994654889" lon="16.152834008845176"><ele>269.0</ele><time>2026-04-27T12:38:44.999Z</time></trkpt><trkpt lat="39.095701525462054" lon="16.15300070734527"><ele>264.5</ele><time>2026-04-27T12:38:45.999Z</time></trkpt><trkpt lat="39.0956550997591" lon="16.153195726393466"><ele>260.0</ele><time>2026-04-27T12:38:46.999Z</time></trkpt><trkpt lat="39.09560663949249" lon="16.153380540674334"><ele>259.5</ele><time>2026-04-27T12:38:47.999Z</time></trkpt><trkpt lat="39.09556345503292" lon="16.153545234240564"><ele>259.0</ele><time>2026-04-27T12:38:48.999Z</time></trkpt><trkpt lat="39.09551892646098" lon="16.153691065673602"><ele>258.5</ele><time>2026-04-27T12:38:49.999Z</time></trkpt><trkpt lat="39.09546580842719" lon="16.153829526116795"><ele>258.0</ele><time>2026-04-27T12:38:50.999Z</time></trkpt><trkpt lat="39.09540048849745" lon="16.153963226224747"><ele>259.6</ele><time>2026-04-27T12:38:51.999Z</time></trkpt><trkpt lat="39.09530496954256" lon="16.15407142666658"><ele>261.20000000000005</ele><time>2026-04-27T12:38:52.999Z</time></trkpt><trkpt lat="39.095216175901534" lon="16.154154793877407"><ele>262.8</ele><time>2026-04-27T12:38:53.999Z</time></trkpt><trkpt lat="39.09515656369025" lon="16.15424201355783"><ele>264.40000000000003</ele><time>2026-04-27T12:38:54.999Z</time></trkpt><trkpt lat="39.09511786635712" lon="16.154364579278358"><ele>266.0</ele><time>2026-04-27T12:38:55.999Z</time></trkpt><trkpt lat="39.09513138828946" lon="16.154521853441167"><ele>266.0</ele><time>2026-04-27T12:38:56.999Z</time></trkpt><trkpt lat="39.095156200766624" lon="16.15464938551993"><ele>266.0</ele><time>2026-04-27T12:38:57.999Z</time></trkpt><trkpt lat="39.09514029483911" lon="16.154772993183702"><ele>266.0</ele><time>2026-04-27T12:38:59.999Z</time></trkpt><trkpt lat="39.09504184626092" lon="16.154769992286642"><ele>266.0</ele><time>2026-04-27T12:39:00.999Z</time></trkpt><trkpt lat="39.09494703355575" lon="16.15469442798306"><ele>266.0</ele><time>2026-04-27T12:39:01.999Z</time></trkpt><trkpt lat="39.094839143913966" lon="16.154661868274218"><ele>262.5</ele><time>2026-04-27T12:39:02.999Z</time></trkpt><trkpt lat="39.09473017844123" lon="16.154657330753658"><ele>259.0</ele><time>2026-04-27T12:39:03.999Z</time></trkpt><trkpt lat="39.0945919183712" lon="16.15467862358328"><ele>255.5</ele><time>2026-04-27T12:39:04.999Z</time></trkpt><trkpt lat="39.09442919815588" lon="16.154740798816068"><ele>252.0</ele><time>2026-04-27T12:39:05.999Z</time></trkpt><trkpt lat="39.09427841370408" lon="16.154867424445662"><ele>250.0</ele><time>2026-04-27T12:39:06.999Z</time></trkpt><trkpt lat="39.09414436388415" lon="16.154980289315155"><ele>248.0</ele><time>2026-04-27T12:39:07.999Z</time></trkpt><trkpt lat="39.09401218077753" lon="16.155073159727984"><ele>246.0</ele><time>2026-04-27T12:39:08.999Z</time></trkpt><trkpt lat="39.093882002880385" lon="16.155156854443568"><ele>246.0</ele><time>2026-04-27T12:39:09.999Z</time></trkpt><trkpt lat="39.09375271537745" lon="16.155237223961343"><ele>246.0</ele><time>2026-04-27T12:39:10.999Z</time></trkpt><trkpt lat="39.09362344870228" lon="16.155312789940012"><ele>246.0</ele><time>2026-04-27T12:39:11.999Z</time></trkpt><trkpt lat="39.09348318255277" lon="16.15537256956602"><ele>246.0</ele><time>2026-04-27T12:39:12.999Z</time></trkpt><trkpt lat="39.09333997659162" lon="16.15541047839443"><ele>244.66666666666669</ele><time>2026-04-27T12:39:13.999Z</time></trkpt><trkpt lat="39.09318470936289" lon="16.155418853616066"><ele>243.33333333333334</ele><time>2026-04-27T12:39:14.999Z</time></trkpt><trkpt lat="39.09300205561429" lon="16.155421433549296"><ele>242.0</ele><time>2026-04-27T12:39:15.999Z</time></trkpt><trkpt lat="39.092830065626146" lon="16.15542778211282"><ele>242.0</ele><time>2026-04-27T12:39:16.999Z</time></trkpt><trkpt lat="39.09266152563168" lon="16.155433426451438"><ele>242.0</ele><time>2026-04-27T12:39:17.999Z</time></trkpt><trkpt lat="39.092508361638515" lon="16.155438835975573"><ele>242.0</ele><time>2026-04-27T12:39:18.999Z</time></trkpt><trkpt lat="39.0923735732118" lon="16.155449177413963"><ele>241.0</ele><time>2026-04-27T12:39:19.999Z</time></trkpt><trkpt lat="39.0922481956792" lon="16.15546962756158"><ele>240.0</ele><time>2026-04-27T12:39:20.999Z</time></trkpt><trkpt lat="39.09213879059433" lon="16.155499238573704"><ele>239.0</ele><time>2026-04-27T12:39:21.999Z</time></trkpt><trkpt lat="39.092044299882595" lon="16.155521405205146"><ele>238.0</ele><time>2026-04-27T12:39:22.999Z</time></trkpt><trkpt lat="39.09195753135495" lon="16.15556671317658"><ele>237.0</ele><time>2026-04-27T12:39:23.999Z</time></trkpt><trkpt lat="39.0918633213031" lon="16.15564282845255"><ele>239.75</ele><time>2026-04-27T12:39:24.999Z</time></trkpt><trkpt lat="39.09178068599488" lon="16.155791179200182"><ele>242.5</ele><time>2026-04-27T12:39:25.999Z</time></trkpt><trkpt lat="39.09171458202623" lon="16.155917626611078"><ele>245.25</ele><time>2026-04-27T12:39:26.999Z</time></trkpt><trkpt lat="39.09166675816088" lon="16.15608823402848"><ele>248.0</ele><time>2026-04-27T12:39:27.999Z</time></trkpt><trkpt lat="39.09160495008838" lon="16.156244320976786"><ele>247.25</ele><time>2026-04-27T12:39:28.999Z</time></trkpt><trkpt lat="39.09155198639714" lon="16.156368982330825"><ele>246.5</ele><time>2026-04-27T12:39:29.999Z</time></trkpt><trkpt lat="39.09149930270834" lon="16.156488145093437"><ele>245.75</ele><time>2026-04-27T12:39:30.999Z</time></trkpt><trkpt lat="39.09146117214702" lon="16.15661466963069"><ele>245.0</ele><time>2026-04-27T12:39:31.999Z</time></trkpt><trkpt lat="39.09145807635996" lon="16.15678304503322"><ele>245.0</ele><time>2026-04-27T12:39:32.999Z</time></trkpt><trkpt lat="39.09147655130163" lon="16.156940158761703"><ele>245.0</ele><time>2026-04-27T12:39:33.999Z</time></trkpt><trkpt lat="39.09149728633176" lon="16.15706673312008"><ele>245.0</ele><time>2026-04-27T12:39:34.999Z</time></trkpt><trkpt lat="39.091503827836846" lon="16.157194428738666"><ele>245.0</ele><time>2026-04-27T12:39:35.999Z</time></trkpt><trkpt lat="39.091462852840394" lon="16.15729264683271"><ele>245.0</ele><time>2026-04-27T12:39:36.999Z</time></trkpt><trkpt lat="39.09141809249248" lon="16.15735525964566"><ele>245.0</ele><time>2026-04-27T12:39:38Z</time></trkpt><trkpt lat="39.09134977686376" lon="16.157389390574153"><ele>245.0</ele><time>2026-04-27T12:39:39Z</time></trkpt><trkpt lat="39.09125555815232" lon="16.157367640826315"><ele>245.0</ele><time>2026-04-27T12:39:40Z</time></trkpt><trkpt lat="39.091144664757934" lon="16.157320711781505"><ele>245.0</ele><time>2026-04-27T12:39:41Z</time></trkpt><trkpt lat="39.09103620294852" lon="16.157282324646893"><ele>245.0</ele><time>2026-04-27T12:39:42Z</time></trkpt><trkpt lat="39.090955765332254" lon="16.15723296031257"><ele>245.00000000000003</ele><time>2026-04-27T12:39:43Z</time></trkpt><trkpt lat="39.09090325447275" lon="16.157176718168003"><ele>245.0</ele><time>2026-04-27T12:39:44Z</time></trkpt><trkpt lat="39.090831119317215" lon="16.15713643764467"><ele>245.0</ele><time>2026-04-27T12:39:45Z</time></trkpt><trkpt lat="39.090745930738585" lon="16.1571629174971"><ele>245.0</ele><time>2026-04-27T12:39:46Z</time></trkpt><trkpt lat="39.09065100546573" lon="16.15723304225521"><ele>245.00000000000003</ele><time>2026-04-27T12:39:47Z</time></trkpt><trkpt lat="39.0905759324889" lon="16.157263858099462"><ele>245.0</ele><time>2026-04-27T12:39:48Z</time></trkpt><trkpt lat="39.09052107129618" lon="16.15732671622077"><ele>247.0</ele><time>2026-04-27T12:39:49Z</time></trkpt><trkpt lat="39.09048875086514" lon="16.157449246208362"><ele>249.0</ele><time>2026-04-27T12:39:50Z</time></trkpt><trkpt lat="39.09045727481374" lon="16.157592287999993"><ele>251.0</ele><time>2026-04-27T12:39:51Z</time></trkpt><trkpt lat="39.09040479354734" lon="16.157667765097354"><ele>253.0</ele><time>2026-04-27T12:39:52Z</time></trkpt><trkpt lat="39.09034948979508" lon="16.15770788497231"><ele>255.0</ele><time>2026-04-27T12:39:53Z</time></trkpt><trkpt lat="39.09024636386107" lon="16.157699648414887"><ele>255.0</ele><time>2026-04-27T12:39:54Z</time></trkpt><trkpt lat="39.090148829466465" lon="16.15782611733647"><ele>255.0</ele><time>2026-04-27T12:39:56Z</time></trkpt><trkpt lat="39.090152959079404" lon="16.158034748802475"><ele>255.0</ele><time>2026-04-27T12:39:57Z</time></trkpt><trkpt lat="39.090139638524725" lon="16.15816146433518"><ele>255.0</ele><time>2026-04-27T12:39:58Z</time></trkpt><trkpt lat="39.090132724211855" lon="16.15830410169831"><ele>258.6666666666667</ele><time>2026-04-27T12:39:59Z</time></trkpt><trkpt lat="39.09011413891937" lon="16.158530117881664"><ele>262.33333333333337</ele><time>2026-04-27T12:40:00Z</time></trkpt><trkpt lat="39.09010344370535" lon="16.158728638740076"><ele>266.0</ele><time>2026-04-27T12:40:01Z</time></trkpt><trkpt lat="39.09010065890338" lon="16.15893112026283"><ele>269.0</ele><time>2026-04-27T12:40:02Z</time></trkpt><trkpt lat="39.09011943406661" lon="16.159120898788505"><ele>272.0</ele><time>2026-04-27T12:40:03Z</time></trkpt><trkpt lat="39.09015143655544" lon="16.159298293023877"><ele>275.0</ele><time>2026-04-27T12:40:04Z</time></trkpt><trkpt lat="39.09018270125617" lon="16.159466816487736"><ele>278.0</ele><time>2026-04-27T12:40:05Z</time></trkpt><trkpt lat="39.09021325949805" lon="16.159627103619005"><ele>278.0</ele><time>2026-04-27T12:40:06Z</time></trkpt><trkpt lat="39.090267147177" lon="16.159782128422485"><ele>278.0</ele><time>2026-04-27T12:40:07Z</time></trkpt><trkpt lat="39.09035421957566" lon="16.15993581627892"><ele>278.0</ele><time>2026-04-27T12:40:08Z</time></trkpt><trkpt lat="39.09042553483697" lon="16.16006400186953"><ele>278.0</ele><time>2026-04-27T12:40:09Z</time></trkpt><trkpt lat="39.09049724681558" lon="16.160193326570376"><ele>280.8</ele><time>2026-04-27T12:40:10Z</time></trkpt><trkpt lat="39.09055970648933" lon="16.16030591392121"><ele>283.6</ele><time>2026-04-27T12:40:11Z</time></trkpt><trkpt lat="39.090604338156666" lon="16.160393495564705"><ele>286.4</ele><time>2026-04-27T12:40:12Z</time></trkpt><trkpt lat="39.09050564763103" lon="16.160479733939944"><ele>289.2</ele><time>2026-04-27T12:40:16Z</time></trkpt><trkpt lat="39.09039533052594" lon="16.160425191738547"><ele>292.0</ele><time>2026-04-27T12:40:16.999Z</time></trkpt><trkpt lat="39.09028201174234" lon="16.16033493229457"><ele>292.0</ele><time>2026-04-27T12:40:17.999Z</time></trkpt><trkpt lat="39.09020647418775" lon="16.16016471388566"><ele>292.0</ele><time>2026-04-27T12:40:18.999Z</time></trkpt><trkpt lat="39.090101113905625" lon="16.16007896174621"><ele>292.0</ele><time>2026-04-27T12:40:19.999Z</time></trkpt><trkpt lat="39.0899213652227" lon="16.159875777307303"><ele>291.3333333333333</ele><time>2026-04-27T12:40:20.999Z</time></trkpt><trkpt lat="39.089812983181965" lon="16.15967267131099"><ele>290.6666666666667</ele><time>2026-04-27T12:40:21.999Z</time></trkpt><trkpt lat="39.089749041278495" lon="16.159480314580748"><ele>290.0</ele><time>2026-04-27T12:40:22.999Z</time></trkpt><trkpt lat="39.08968723263285" lon="16.159316684065004"><ele>290.0</ele><time>2026-04-27T12:40:23.999Z</time></trkpt><trkpt lat="39.089624342064255" lon="16.15919078614092"><ele>290.0</ele><time>2026-04-27T12:40:24.999Z</time></trkpt><trkpt lat="39.0895699369748" lon="16.159109300237137"><ele>290.0</ele><time>2026-04-27T12:40:25.999Z</time></trkpt><trkpt lat="39.089466980396296" lon="16.159023065398767"><ele>290.0</ele><time>2026-04-27T12:40:27.999Z</time></trkpt><trkpt lat="39.08938159644621" lon="16.1589977380549"><ele>290.0</ele><time>2026-04-27T12:40:28.999Z</time></trkpt><trkpt lat="39.08927501472529" lon="16.158972152104052"><ele>287.5</ele><time>2026-04-27T12:40:29.999Z</time></trkpt><trkpt lat="39.08917260082434" lon="16.158934844079464"><ele>285.0</ele><time>2026-04-27T12:40:30.999Z</time></trkpt><trkpt lat="39.08906367186478" lon="16.158880663184327"><ele>282.5</ele><time>2026-04-27T12:40:31.999Z</time></trkpt><trkpt lat="39.08895062328812" lon="16.158738177727347"><ele>280.0</ele><time>2026-04-27T12:40:32.999Z</time></trkpt><trkpt lat="39.08887859001101" lon="16.15856466567296"><ele>280.0</ele><time>2026-04-27T12:40:33.999Z</time></trkpt><trkpt lat="39.08883452870285" lon="16.158462692953993"><ele>280.0</ele><time>2026-04-27T12:40:34.999Z</time></trkpt><trkpt lat="39.08872862063476" lon="16.158388578873435"><ele>280.0</ele><time>2026-04-27T12:40:36.999Z</time></trkpt><trkpt lat="39.08861812060106" lon="16.15840173933563"><ele>280.0</ele><time>2026-04-27T12:40:37.999Z</time></trkpt><trkpt lat="39.08849249130992" lon="16.158476074384776"><ele>280.0</ele><time>2026-04-27T12:40:38.999Z</time></trkpt><trkpt lat="39.08837808271083" lon="16.15857392969104"><ele>280.0</ele><time>2026-04-27T12:40:39.999Z</time></trkpt><trkpt lat="39.088280012094465" lon="16.158719983649075"><ele>280.0</ele><time>2026-04-27T12:40:40.999Z</time></trkpt><trkpt lat="39.088208709846825" lon="16.15897545664148"><ele>280.66666666666663</ele><time>2026-04-27T12:40:41.999Z</time></trkpt><trkpt lat="39.08816897812508" lon="16.159170580583478"><ele>281.3333333333333</ele><time>2026-04-27T12:40:42.999Z</time></trkpt><trkpt lat="39.08813837291127" lon="16.159373848760367"><ele>282.0</ele><time>2026-04-27T12:40:43.999Z</time></trkpt><trkpt lat="39.088125342548395" lon="16.159595655976336"><ele>282.0</ele><time>2026-04-27T12:40:44.999Z</time></trkpt><trkpt lat="39.08811482392692" lon="16.15979820597262"><ele>282.0</ele><time>2026-04-27T12:40:45.999Z</time></trkpt><trkpt lat="39.08810561758026" lon="16.159969359326603"><ele>282.0</ele><time>2026-04-27T12:40:46.999Z</time></trkpt><trkpt lat="39.088091036329885" lon="16.160119133580185"><ele>282.0</ele><time>2026-04-27T12:40:47.999Z</time></trkpt><trkpt lat="39.088043393758575" lon="16.160272176462502"><ele>284.75</ele><time>2026-04-27T12:40:48.999Z</time></trkpt><trkpt lat="39.08796667669665" lon="16.16043636973735"><ele>287.5</ele><time>2026-04-27T12:40:49.999Z</time></trkpt><trkpt lat="39.08789187481896" lon="16.160596771178575"><ele>290.25</ele><time>2026-04-27T12:40:50.999Z</time></trkpt><trkpt lat="39.08782789808519" lon="16.16073707004122"><ele>293.0</ele><time>2026-04-27T12:40:51.999Z</time></trkpt><trkpt lat="39.08777612874746" lon="16.160847624456853"><ele>293.0</ele><time>2026-04-27T12:40:52.999Z</time></trkpt><trkpt lat="39.087739087951434" lon="16.160913239274358"><ele>293.0</ele><time>2026-04-27T12:40:53.999Z</time></trkpt><trkpt lat="39.08763915878172" lon="16.160979510338404"><ele>293.0</ele><time>2026-04-27T12:40:55.999Z</time></trkpt><trkpt lat="39.08752114831341" lon="16.16085975922575"><ele>293.0</ele><time>2026-04-27T12:40:56.999Z</time></trkpt><trkpt lat="39.087477730360156" lon="16.16068134920214"><ele>292.8</ele><time>2026-04-27T12:40:57.999Z</time></trkpt><trkpt lat="39.08741900350615" lon="16.16056579140472"><ele>292.6</ele><time>2026-04-27T12:40:58.999Z</time></trkpt><trkpt lat="39.08735288265972" lon="16.160506212620163"><ele>292.4</ele><time>2026-04-27T12:40:59.999Z</time></trkpt><trkpt lat="39.087261324525294" lon="16.16047656056462"><ele>292.2</ele><time>2026-04-27T12:41:00.999Z</time></trkpt><trkpt lat="39.08711849877822" lon="16.16046105477957"><ele>292.0</ele><time>2026-04-27T12:41:01.999Z</time></trkpt><trkpt lat="39.08698547646907" lon="16.16044831818682"><ele>292.0</ele><time>2026-04-27T12:41:02.999Z</time></trkpt><trkpt lat="39.08686814598736" lon="16.160438171799978"><ele>292.0</ele><time>2026-04-27T12:41:03.999Z</time></trkpt><trkpt lat="39.086736071795066" lon="16.16045181093612"><ele>292.0</ele><time>2026-04-27T12:41:04.999Z</time></trkpt><trkpt lat="39.0865964792036" lon="16.160524425705418"><ele>292.0</ele><time>2026-04-27T12:41:05.999Z</time></trkpt><trkpt lat="39.08647391050891" lon="16.160575413637517"><ele>292.75</ele><time>2026-04-27T12:41:06.999Z</time></trkpt><trkpt lat="39.08634781687437" lon="16.160599229110126"><ele>293.5</ele><time>2026-04-27T12:41:07.999Z</time></trkpt><trkpt lat="39.086204373649764" lon="16.1605456515982"><ele>294.25</ele><time>2026-04-27T12:41:08.999Z</time></trkpt><trkpt lat="39.08609259958204" lon="16.160484540559032"><ele>295.0</ele><time>2026-04-27T12:41:09.999Z</time></trkpt><trkpt lat="39.086008644755246" lon="16.16044098705477"><ele>295.0</ele><time>2026-04-27T12:41:10.999Z</time></trkpt><trkpt lat="39.085912173784415" lon="16.160443616065052"><ele>295.0</ele><time>2026-04-27T12:41:11.999Z</time></trkpt><trkpt lat="39.085797459201856" lon="16.16055421785133"><ele>295.0</ele><time>2026-04-27T12:41:12.999Z</time></trkpt><trkpt lat="39.085656817865946" lon="16.160640922111586"><ele>295.0</ele><time>2026-04-27T12:41:13.999Z</time></trkpt><trkpt lat="39.08552446962803" lon="16.160738607916112"><ele>298.66666666666663</ele><time>2026-04-27T12:41:14.999Z</time></trkpt><trkpt lat="39.08540582741535" lon="16.16086094994488"><ele>302.3333333333333</ele><time>2026-04-27T12:41:15.999Z</time></trkpt><trkpt lat="39.085303572605476" lon="16.16100112116944"><ele>306.0</ele><time>2026-04-27T12:41:16.999Z</time></trkpt><trkpt lat="39.085227253731844" lon="16.16118390636343"><ele>306.0</ele><time>2026-04-27T12:41:17.999Z</time></trkpt><trkpt lat="39.08516051831958" lon="16.161348226275376"><ele>306.0</ele><time>2026-04-27T12:41:18.999Z</time></trkpt><trkpt lat="39.08508413427087" lon="16.161479177341885"><ele>306.0</ele><time>2026-04-27T12:41:19.999Z</time></trkpt><trkpt lat="39.084982386199506" lon="16.161605755368083"><ele>306.0</ele><time>2026-04-27T12:41:20.999Z</time></trkpt><trkpt lat="39.084861757824385" lon="16.161704477817306"><ele>311.0</ele><time>2026-04-27T12:41:21.999Z</time></trkpt><trkpt lat="39.08471677175996" lon="16.161787464676284"><ele>316.0</ele><time>2026-04-27T12:41:22.999Z</time></trkpt><trkpt lat="39.084553513523815" lon="16.161844205171338"><ele>321.0</ele><time>2026-04-27T12:41:23.999Z</time></trkpt><trkpt lat="39.084387379324944" lon="16.161888101948993"><ele>321.0</ele><time>2026-04-27T12:41:24.999Z</time></trkpt><trkpt lat="39.08421980459523" lon="16.161900837695377"><ele>321.0</ele><time>2026-04-27T12:41:25.999Z</time></trkpt><trkpt lat="39.0840560497669" lon="16.16190983941633"><ele>321.0</ele><time>2026-04-27T12:41:26.999Z</time></trkpt><trkpt lat="39.08389090097012" lon="16.16184735564159"><ele>322.0</ele><time>2026-04-27T12:41:27.999Z</time></trkpt><trkpt lat="39.08373574690987" lon="16.161772501084233"><ele>323.0</ele><time>2026-04-27T12:41:28.999Z</time></trkpt><trkpt lat="39.08359109620282" lon="16.161652887865454"><ele>324.0</ele><time>2026-04-27T12:41:29.999Z</time></trkpt><trkpt lat="39.08346812869154" lon="16.16149896301844"><ele>324.0</ele><time>2026-04-27T12:41:30.999Z</time></trkpt><trkpt lat="39.0833498107694" lon="16.161353466039998"><ele>324.0</ele><time>2026-04-27T12:41:31.999Z</time></trkpt><trkpt lat="39.08324384349345" lon="16.161230558438486"><ele>324.0</ele><time>2026-04-27T12:41:32.999Z</time></trkpt><trkpt lat="39.08314508470723" lon="16.161129218203435"><ele>324.0</ele><time>2026-04-27T12:41:33.999Z</time></trkpt><trkpt lat="39.08303943721625" lon="16.161036638821727"><ele>324.79999999999995</ele><time>2026-04-27T12:41:34.999Z</time></trkpt><trkpt lat="39.08292629478906" lon="16.160961347535974"><ele>325.59999999999997</ele><time>2026-04-27T12:41:35.999Z</time></trkpt><trkpt lat="39.08282448272312" lon="16.160908606734047"><ele>326.4</ele><time>2026-04-27T12:41:36.999Z</time></trkpt><trkpt lat="39.08273433259477" lon="16.160872336938933"><ele>327.2</ele><time>2026-04-27T12:41:37.999Z</time></trkpt><trkpt lat="39.08263260115478" lon="16.160870984843356"><ele>328.0</ele><time>2026-04-27T12:41:38.999Z</time></trkpt><trkpt lat="39.08249897384569" lon="16.160927626283787"><ele>326.3333333333333</ele><time>2026-04-27T12:41:39.999Z</time></trkpt><trkpt lat="39.0823546198035" lon="16.16103313302771"><ele>324.6666666666667</ele><time>2026-04-27T12:41:40.999Z</time></trkpt><trkpt lat="39.08221825240304" lon="16.161203367392247"><ele>323.0</ele><time>2026-04-27T12:41:41.999Z</time></trkpt><trkpt lat="39.082084764031556" lon="16.16137842565984"><ele>325.6666666666667</ele><time>2026-04-27T12:41:42.999Z</time></trkpt><trkpt lat="39.08194388511886" lon="16.161560988123043"><ele>328.3333333333333</ele><time>2026-04-27T12:41:44Z</time></trkpt><trkpt lat="39.081805781068994" lon="16.161742154286138"><ele>331.0</ele><time>2026-04-27T12:41:45Z</time></trkpt><trkpt lat="39.081678817878114" lon="16.16191761037103"><ele>330.0</ele><time>2026-04-27T12:41:46Z</time></trkpt><trkpt lat="39.08155967240856" lon="16.162088329048892"><ele>329.0</ele><time>2026-04-27T12:41:47Z</time></trkpt><trkpt lat="39.081449153328954" lon="16.162246599338236"><ele>328.0</ele><time>2026-04-27T12:41:48Z</time></trkpt><trkpt lat="39.081348330211824" lon="16.16240734430856"><ele>329.75</ele><time>2026-04-27T12:41:49Z</time></trkpt><trkpt lat="39.08128172251965" lon="16.162568046611696"><ele>331.5</ele><time>2026-04-27T12:41:50Z</time></trkpt><trkpt lat="39.08121112919147" lon="16.162679193594084"><ele>333.25</ele><time>2026-04-27T12:41:51Z</time></trkpt><trkpt lat="39.08112147208096" lon="16.162761773647063"><ele>335.0</ele><time>2026-04-27T12:41:52Z</time></trkpt><trkpt lat="39.08101031231707" lon="16.162844570317503"><ele>335.0</ele><time>2026-04-27T12:41:53Z</time></trkpt><trkpt lat="39.08090766855512" lon="16.162912958199243"><ele>335.0</ele><time>2026-04-27T12:41:54Z</time></trkpt><trkpt lat="39.08081722003213" lon="16.16295935929324"><ele>335.0</ele><time>2026-04-27T12:41:55Z</time></trkpt><trkpt lat="39.08070681342397" lon="16.162947355869523"><ele>335.0</ele><time>2026-04-27T12:41:56Z</time></trkpt><trkpt lat="39.08058549129711" lon="16.162834324614103"><ele>336.25</ele><time>2026-04-27T12:41:57Z</time></trkpt><trkpt lat="39.080476862865254" lon="16.16272990871818"><ele>337.5</ele><time>2026-04-27T12:41:58Z</time></trkpt><trkpt lat="39.08036791665392" lon="16.162632510805985"><ele>338.75</ele><time>2026-04-27T12:41:59Z</time></trkpt><trkpt lat="39.08026924412154" lon="16.162555558860177"><ele>340.0</ele><time>2026-04-27T12:42:00Z</time></trkpt><trkpt lat="39.08016221291335" lon="16.16251520880277"><ele>340.0</ele><time>2026-04-27T12:42:01Z</time></trkpt><trkpt lat="39.08003744327316" lon="16.162508648161097"><ele>340.0</ele><time>2026-04-27T12:42:02Z</time></trkpt><trkpt lat="39.079898308837414" lon="16.162578043833264"><ele>340.0</ele><time>2026-04-27T12:42:03Z</time></trkpt><trkpt lat="39.07975366174931" lon="16.162662007429365"><ele>340.0</ele><time>2026-04-27T12:42:04Z</time></trkpt><trkpt lat="39.07960613112505" lon="16.162711358398507"><ele>340.66666666666663</ele><time>2026-04-27T12:42:04.999Z</time></trkpt><trkpt lat="39.079454443726895" lon="16.162715495395435"><ele>341.3333333333333</ele><time>2026-04-27T12:42:05.999Z</time></trkpt><trkpt lat="39.07928652250347" lon="16.162684449853675"><ele>342.0</ele><time>2026-04-27T12:42:06.999Z</time></trkpt><trkpt lat="39.079104956489324" lon="16.162653330236246"><ele>343.3333333333333</ele><time>2026-04-27T12:42:07.999Z</time></trkpt><trkpt lat="39.07893044013602" lon="16.162633892957476"><ele>344.66666666666663</ele><time>2026-04-27T12:42:08.999Z</time></trkpt><trkpt lat="39.078758544927624" lon="16.16260621399906"><ele>346.0</ele><time>2026-04-27T12:42:09.999Z</time></trkpt><trkpt lat="39.07859195983409" lon="16.162557184140592"><ele>346.0</ele><time>2026-04-27T12:42:10.999Z</time></trkpt><trkpt lat="39.078444822454166" lon="16.162518348989895"><ele>346.0</ele><time>2026-04-27T12:42:11.999Z</time></trkpt><trkpt lat="39.078317376191386" lon="16.1624890662851"><ele>346.0</ele><time>2026-04-27T12:42:12.999Z</time></trkpt><trkpt lat="39.078197286343155" lon="16.16245922507723"><ele>346.0</ele><time>2026-04-27T12:42:13.999Z</time></trkpt><trkpt lat="39.078085365417664" lon="16.16242497586179"><ele>346.20000000000005</ele><time>2026-04-27T12:42:14.999Z</time></trkpt><trkpt lat="39.07798559589598" lon="16.162383982902686"><ele>346.40000000000003</ele><time>2026-04-27T12:42:15.999Z</time></trkpt><trkpt lat="39.07789571509946" lon="16.16235609995458"><ele>346.6</ele><time>2026-04-27T12:42:16.999Z</time></trkpt><trkpt lat="39.077828535195835" lon="16.162278129765234"><ele>346.8</ele><time>2026-04-27T12:42:17.999Z</time></trkpt><trkpt lat="39.07779793745598" lon="16.162154481751237"><ele>347.0</ele><time>2026-04-27T12:42:18.999Z</time></trkpt><trkpt lat="39.07779681181753" lon="16.162001687131156"><ele>347.5</ele><time>2026-04-27T12:42:19.999Z</time></trkpt><trkpt lat="39.07766783913797" lon="16.16190180377264"><ele>348.0</ele><time>2026-04-27T12:42:20.999Z</time></trkpt><trkpt lat="39.077559683286616" lon="16.16178834402061"><ele>348.5</ele><time>2026-04-27T12:42:21.999Z</time></trkpt><trkpt lat="39.07744675673961" lon="16.16168590972247"><ele>349.0</ele><time>2026-04-27T12:42:22.999Z</time></trkpt><trkpt lat="39.07733160987366" lon="16.16159996165225"><ele>351.5</ele><time>2026-04-27T12:42:23.999Z</time></trkpt><trkpt lat="39.07720406356413" lon="16.161499572081553"><ele>354.0</ele><time>2026-04-27T12:42:24.999Z</time></trkpt><trkpt lat="39.077080358753335" lon="16.16145399638372"><ele>356.5</ele><time>2026-04-27T12:42:25.999Z</time></trkpt><trkpt lat="39.076945775689474" lon="16.161450343267315"><ele>359.0</ele><time>2026-04-27T12:42:26.999Z</time></trkpt><trkpt lat="39.07679554058793" lon="16.161490001217476"><ele>359.0</ele><time>2026-04-27T12:42:27.999Z</time></trkpt><trkpt lat="39.076649063994545" lon="16.16151822104681"><ele>359.0</ele><time>2026-04-27T12:42:28.999Z</time></trkpt><trkpt lat="39.076503881513226" lon="16.161571295475714"><ele>359.0</ele><time>2026-04-27T12:42:29.999Z</time></trkpt><trkpt lat="39.07635907794458" lon="16.161652985538783"><ele>358.75</ele><time>2026-04-27T12:42:30.999Z</time></trkpt><trkpt lat="39.07621353014242" lon="16.16172288291602"><ele>358.5</ele><time>2026-04-27T12:42:31.999Z</time></trkpt><trkpt lat="39.07607006132376" lon="16.16179382567593"><ele>358.25</ele><time>2026-04-27T12:42:32.999Z</time></trkpt><trkpt lat="39.07593448604281" lon="16.16182516644357"><ele>358.0</ele><time>2026-04-27T12:42:33.999Z</time></trkpt><trkpt lat="39.075816853274176" lon="16.16184279199169"><ele>356.59999999999997</ele><time>2026-04-27T12:42:34.999Z</time></trkpt><trkpt lat="39.075723366260505" lon="16.16185280133612"><ele>355.2</ele><time>2026-04-27T12:42:35.999Z</time></trkpt><trkpt lat="39.07564762083375" lon="16.161847605522958"><ele>353.8</ele><time>2026-04-27T12:42:36.999Z</time></trkpt><trkpt lat="39.075546256457535" lon="16.161844552503265"><ele>352.4</ele><time>2026-04-27T12:42:38.999Z</time></trkpt><trkpt lat="39.07542572491238" lon="16.161936734056773"><ele>351.0</ele><time>2026-04-27T12:42:40.999Z</time></trkpt><trkpt lat="39.075386539481144" lon="16.162040479377147"><ele>351.0</ele><time>2026-04-27T12:42:41.999Z</time></trkpt><trkpt lat="39.075343225452535" lon="16.162155139040898"><ele>351.0</ele><time>2026-04-27T12:42:42.999Z</time></trkpt><trkpt lat="39.07528871683479" lon="16.162290550705816"><ele>351.0</ele><time>2026-04-27T12:42:43.999Z</time></trkpt><trkpt lat="39.075232047989765" lon="16.16243223084251"><ele>351.0</ele><time>2026-04-27T12:42:44.999Z</time></trkpt><trkpt lat="39.07518287687436" lon="16.16255461858644"><ele>351.0</ele><time>2026-04-27T12:42:45.999Z</time></trkpt><trkpt lat="39.07512860818313" lon="16.162676273867646"><ele>351.75</ele><time>2026-04-27T12:42:46.999Z</time></trkpt><trkpt lat="39.075067598824035" lon="16.162810015696746"><ele>352.5</ele><time>2026-04-27T12:42:47.999Z</time></trkpt><trkpt lat="39.074989168192154" lon="16.16292628188625"><ele>353.25</ele><time>2026-04-27T12:42:48.999Z</time></trkpt><trkpt lat="39.07489723042657" lon="16.163032794824737"><ele>354.0</ele><time>2026-04-27T12:42:49.999Z</time></trkpt><trkpt lat="39.07481181257585" lon="16.16313519639017"><ele>354.0</ele><time>2026-04-27T12:42:50.999Z</time></trkpt><trkpt lat="39.074739677721205" lon="16.163234999998593"><ele>354.0</ele><time>2026-04-27T12:42:51.999Z</time></trkpt><trkpt lat="39.074673776897484" lon="16.163332243290657"><ele>354.0</ele><time>2026-04-27T12:42:52.999Z</time></trkpt><trkpt lat="39.07461099549843" lon="16.16341878636809"><ele>354.0</ele><time>2026-04-27T12:42:53.999Z</time></trkpt><trkpt lat="39.07451955443907" lon="16.16349114171491"><ele>354.0</ele><time>2026-04-27T12:42:54.999Z</time></trkpt><trkpt lat="39.074391837079446" lon="16.16358094340127"><ele>354.0</ele><time>2026-04-27T12:42:55.999Z</time></trkpt><trkpt lat="39.07428433371955" lon="16.163665756397087"><ele>354.0</ele><time>2026-04-27T12:42:56.999Z</time></trkpt><trkpt lat="39.07419462995121" lon="16.16374274859424"><ele>354.0</ele><time>2026-04-27T12:42:57.999Z</time></trkpt><trkpt lat="39.07411364914568" lon="16.163824331452005"><ele>354.0</ele><time>2026-04-27T12:42:58.999Z</time></trkpt><trkpt lat="39.074043214675626" lon="16.16393101289065"><ele>354.0</ele><time>2026-04-27T12:42:59.999Z</time></trkpt><trkpt lat="39.07399622189068" lon="16.164087203399628"><ele>353.6</ele><time>2026-04-27T12:43:00.999Z</time></trkpt><trkpt lat="39.073970945916585" lon="16.16426151633231"><ele>353.2</ele><time>2026-04-27T12:43:01.999Z</time></trkpt><trkpt lat="39.07395934063769" lon="16.164406944838117"><ele>352.8</ele><time>2026-04-27T12:43:02.999Z</time></trkpt><trkpt lat="39.073941540091944" lon="16.164520943676226"><ele>352.40000000000003</ele><time>2026-04-27T12:43:03.999Z</time></trkpt><trkpt lat="39.07391414310098" lon="16.164630782708983"><ele>352.0</ele><time>2026-04-27T12:43:04.999Z</time></trkpt><trkpt lat="39.07386877185853" lon="16.164727041697887"><ele>352.0</ele><time>2026-04-27T12:43:05.999Z</time></trkpt><trkpt lat="39.07380558253511" lon="16.164840459986664"><ele>352.0</ele><time>2026-04-27T12:43:06.999Z</time></trkpt><trkpt lat="39.07373922488244" lon="16.16494911080566"><ele>352.0</ele><time>2026-04-27T12:43:07.999Z</time></trkpt><trkpt lat="39.07367345138607" lon="16.165051033394278"><ele>352.0</ele><time>2026-04-27T12:43:08.999Z</time></trkpt><trkpt lat="39.073601096622376" lon="16.165129622924596"><ele>352.0</ele><time>2026-04-27T12:43:09.999Z</time></trkpt><trkpt lat="39.07351440427765" lon="16.165216663596592"><ele>351.20000000000005</ele><time>2026-04-27T12:43:10.999Z</time></trkpt><trkpt lat="39.07343259553226" lon="16.165312523465914"><ele>350.4</ele><time>2026-04-27T12:43:11.999Z</time></trkpt><trkpt lat="39.073354286255444" lon="16.165404908150013"><ele>349.6</ele><time>2026-04-27T12:43:12.999Z</time></trkpt><trkpt lat="39.073264830393356" lon="16.165466732484028"><ele>348.79999999999995</ele><time>2026-04-27T12:43:13.999Z</time></trkpt><trkpt lat="39.07315411394272" lon="16.16552469430879"><ele>348.0</ele><time>2026-04-27T12:43:14.999Z</time></trkpt><trkpt lat="39.07303612720129" lon="16.16558997709276"><ele>344.4</ele><time>2026-04-27T12:43:15.999Z</time></trkpt><trkpt lat="39.07292355655742" lon="16.165647738427918"><ele>340.79999999999995</ele><time>2026-04-27T12:43:16.999Z</time></trkpt><trkpt lat="39.07284295743297" lon="16.165709936034293"><ele>337.2</ele><time>2026-04-27T12:43:17.999Z</time></trkpt><trkpt lat="39.07276694466743" lon="16.165729557471046"><ele>333.6</ele><time>2026-04-27T12:43:18.999Z</time></trkpt><trkpt lat="39.0726995886627" lon="16.165741600189797"><ele>330.0</ele><time>2026-04-27T12:43:19.999Z</time></trkpt><trkpt lat="39.07259902192307" lon="16.165770404789107"><ele>327.2</ele><time>2026-04-27T12:43:21.999Z</time></trkpt><trkpt lat="39.072500339397855" lon="16.165803891313438"><ele>324.4</ele><time>2026-04-27T12:43:23.999Z</time></trkpt><trkpt lat="39.0725046947911" lon="16.16592224919672"><ele>321.6</ele><time>2026-04-27T12:43:24.999Z</time></trkpt><trkpt lat="39.07260940971936" lon="16.165959777702806"><ele>318.8</ele><time>2026-04-27T12:43:25.999Z</time></trkpt><trkpt lat="39.07268796316626" lon="16.165920027853414"><ele>316.0</ele><time>2026-04-27T12:43:26.999Z</time></trkpt><trkpt lat="39.07266870452023" lon="16.166031580725914"><ele>316.0</ele><time>2026-04-27T12:43:29.999Z</time></trkpt><trkpt lat="39.07256168814724" lon="16.16601802799963"><ele>316.0</ele><time>2026-04-27T12:43:30.999Z</time></trkpt><trkpt lat="39.0724200380404" lon="16.166048397237027"><ele>316.0</ele><time>2026-04-27T12:43:31.999Z</time></trkpt><trkpt lat="39.07228457569167" lon="16.166052839348417"><ele>316.0</ele><time>2026-04-27T12:43:32.999Z</time></trkpt><trkpt lat="39.07218303497831" lon="16.16601747331049"><ele>315.2</ele><time>2026-04-27T12:43:33.999Z</time></trkpt><trkpt lat="39.07209947837166" lon="16.165938263090815"><ele>314.40000000000003</ele><time>2026-04-27T12:43:34.999Z</time></trkpt><trkpt lat="39.07202606898914" lon="16.1658413473433"><ele>313.6</ele><time>2026-04-27T12:43:35.999Z</time></trkpt><trkpt lat="39.07197057744919" lon="16.165762950970343"><ele>312.8</ele><time>2026-04-27T12:43:36.999Z</time></trkpt><trkpt lat="39.071868744566835" lon="16.165673113058048"><ele>312.0</ele><time>2026-04-27T12:43:38.999Z</time></trkpt><trkpt lat="39.071760571532096" lon="16.165615858579077"><ele>308.4</ele><time>2026-04-27T12:43:40.999Z</time></trkpt><trkpt lat="39.07165478431519" lon="16.16559082485089"><ele>304.79999999999995</ele><time>2026-04-27T12:43:42.999Z</time></trkpt><trkpt lat="39.071552612433976" lon="16.165554456417762"><ele>301.2</ele><time>2026-04-27T12:43:44.999Z</time></trkpt><trkpt lat="39.07145859952049" lon="16.165464037317534"><ele>297.59999999999997</ele><time>2026-04-27T12:43:46.999Z</time></trkpt><trkpt lat="39.07139786758896" lon="16.165442184954124"><ele>294.0</ele><time>2026-04-27T12:43:47.998Z</time></trkpt><trkpt lat="39.071343136924746" lon="16.165401365678047"><ele>292.59999999999997</ele><time>2026-04-27T12:43:48.998Z</time></trkpt><trkpt lat="39.07123058248136" lon="16.16537145341522"><ele>291.2</ele><time>2026-04-27T12:43:50.999Z</time></trkpt><trkpt lat="39.071127171889756" lon="16.165348654130373"><ele>289.79999999999995</ele><time>2026-04-27T12:43:52.999Z</time></trkpt><trkpt lat="39.07100681184631" lon="16.165350239678116"><ele>288.4</ele><time>2026-04-27T12:43:54.999Z</time></trkpt><trkpt lat="39.07093747078545" lon="16.165386971907036"><ele>287.0</ele><time>2026-04-27T12:43:56Z</time></trkpt><trkpt lat="39.07086907022737" lon="16.165437820147645"><ele>287.0</ele><time>2026-04-27T12:43:57Z</time></trkpt><trkpt lat="39.07089187234395" lon="16.165186204271386"><ele>287.0</ele><time>2026-04-27T12:43:58Z</time></trkpt><trkpt lat="39.07069495449222" lon="16.165202756288082"><ele>287.0</ele><time>2026-04-27T12:44:00Z</time></trkpt><trkpt lat="39.070639568206936" lon="16.165280406931988"><ele>280.0</ele><time>2026-04-27T12:44:03Z</time></trkpt><trkpt lat="39.070630392603455" lon="16.16542851355907"><ele>273.0</ele><time>2026-04-27T12:44:33.999Z</time></trkpt><trkpt lat="39.0706049178128" lon="16.165547540457176"><ele>266.0</ele><time>2026-04-27T12:44:35.999Z</time></trkpt><trkpt lat="39.07053979444432" lon="16.165415395943736"><ele>259.0</ele><time>2026-04-27T12:44:41.999Z</time></trkpt><trkpt lat="39.07051444447627" lon="16.165280317264862"><ele>252.0</ele><time>2026-04-27T12:44:43.999Z</time></trkpt><trkpt lat="39.07045519853035" lon="16.165152957457515"><ele>252.0</ele><time>2026-04-27T12:44:45.999Z</time></trkpt><trkpt lat="39.07043060949483" lon="16.16506611827845"><ele>252.0</ele><time>2026-04-27T12:44:46.999Z</time></trkpt><trkpt lat="39.07042175939012" lon="16.16498142117103"><ele>252.0</ele><time>2026-04-27T12:44:47.999Z</time></trkpt><trkpt lat="39.07039931277409" lon="16.16489847077366"><ele>252.0</ele><time>2026-04-27T12:44:50.999Z</time></trkpt><trkpt lat="39.070325087626934" lon="16.165054299025456"><ele>252.0</ele><time>2026-04-27T12:44:56.999Z</time></trkpt><trkpt lat="39.07035594725845" lon="16.16512717168815"><ele>252.0</ele><time>2026-04-27T12:44:58.999Z</time></trkpt><trkpt lat="39.07035834516984" lon="16.165245953368718"><ele>252.0</ele><time>2026-04-27T12:45:00.999Z</time></trkpt><trkpt lat="39.07037012356552" lon="16.165393555061897"><ele>252.0</ele><time>2026-04-27T12:45:02.999Z</time></trkpt><trkpt lat="39.070394644286985" lon="16.165544061914304"><ele>252.0</ele><time>2026-04-27T12:45:04.999Z</time></trkpt><trkpt lat="39.07050647779301" lon="16.165547516245702"><ele>252.0</ele><time>2026-04-27T12:45:05.999Z</time></trkpt><trkpt lat="39.07054902277559" lon="16.16567532118576"><ele>250.66666666666669</ele><time>2026-04-27T12:45:07.999Z</time></trkpt><trkpt lat="39.07063021257845" lon="16.165719332480442"><ele>249.33333333333334</ele><time>2026-04-27T12:45:09.999Z</time></trkpt><trkpt lat="39.07048015099785" lon="16.165993706754037"><ele>248.0</ele><time>2026-04-27T12:45:10.999Z</time></trkpt><trkpt lat="39.07050570881253" lon="16.166124486448595"><ele>248.00000000000003</ele><time>2026-04-27T12:45:12.999Z</time></trkpt><trkpt lat="39.07049074859936" lon="16.166261055886636"><ele>248.0</ele><time>2026-04-27T12:45:14.999Z</time></trkpt><trkpt lat="39.07046635339222" lon="16.166400918690538"><ele>248.0</ele><time>2026-04-27T12:45:16.999Z</time></trkpt><trkpt lat="39.070449836334106" lon="16.16651186569277"><ele>248.0</ele><time>2026-04-27T12:45:19.999Z</time></trkpt><trkpt lat="39.07043683850056" lon="16.166592372217274"><ele>248.00000000000003</ele><time>2026-04-27T12:45:21.999Z</time></trkpt><trkpt lat="39.0703592928261" lon="16.166610273151324"><ele>248.0</ele><time>2026-04-27T12:45:23.999Z</time></trkpt><trkpt lat="39.07028830105174" lon="16.16659629772555"><ele>248.0</ele><time>2026-04-27T12:45:25.999Z</time></trkpt><trkpt lat="39.07024777964566" lon="16.166521152206624"><ele>248.0</ele><time>2026-04-27T12:45:27.999Z</time></trkpt><trkpt lat="39.07021618036778" lon="16.166395998234865"><ele>248.0</ele><time>2026-04-27T12:45:29.999Z</time></trkpt><trkpt lat="39.07018146617452" lon="16.16632323967693"><ele>248.0</ele><time>2026-04-27T12:45:30.999Z</time></trkpt><trkpt lat="39.07011032771932" lon="16.166198028831445"><ele>248.0</ele><time>2026-04-27T12:45:32.999Z</time></trkpt><trkpt lat="39.07004183716512" lon="16.166099172570185"><ele>248.0</ele><time>2026-04-27T12:45:34.999Z</time></trkpt><trkpt lat="39.06998399000479" lon="16.166022011457347"><ele>248.00000000000003</ele><time>2026-04-27T12:45:37.999Z</time></trkpt><trkpt lat="39.069903055275574" lon="16.16602247236309"><ele>248.0</ele><time>2026-04-27T12:45:41.999Z</time></trkpt><trkpt lat="39.06984866201139" lon="16.16597305032467"><ele>248.0</ele><time>2026-04-27T12:45:45.999Z</time></trkpt><trkpt lat="39.06979978893965" lon="16.165920573511272"><ele>248.00000000000003</ele><time>2026-04-27T12:45:48.999Z</time></trkpt><trkpt lat="39.06973923092396" lon="16.16595354788872"><ele>248.0</ele><time>2026-04-27T12:45:57Z</time></trkpt><trkpt lat="39.06966903127659" lon="16.166014297524985"><ele>248.0</ele><time>2026-04-27T12:46:00Z</time></trkpt><trkpt lat="39.06960278434731" lon="16.16603755832845"><ele>238.8</ele><time>2026-04-27T12:46:02Z</time></trkpt><trkpt lat="39.069536674418046" lon="16.166057652596432"><ele>229.60000000000002</ele><time>2026-04-27T12:46:04Z</time></trkpt><trkpt lat="39.06946839266432" lon="16.16609416212759"><ele>220.39999999999998</ele><time>2026-04-27T12:46:06Z</time></trkpt><trkpt lat="39.06942720030393" lon="16.166162133088303"><ele>211.2</ele><time>2026-04-27T12:46:08Z</time></trkpt><trkpt lat="39.06931674142689" lon="16.1663460128359"><ele>202.0</ele><time>2026-04-27T12:46:10Z</time></trkpt><trkpt lat="39.06927076614728" lon="16.166467569950026"><ele>200.83333333333331</ele><time>2026-04-27T12:46:12Z</time></trkpt><trkpt lat="39.06927805932408" lon="16.166571995237852"><ele>199.66666666666666</ele><time>2026-04-27T12:46:14Z</time></trkpt><trkpt lat="39.069293300574145" lon="16.16668874614371"><ele>198.5</ele><time>2026-04-27T12:46:16Z</time></trkpt><trkpt lat="39.06929590441098" lon="16.166804437838714"><ele>197.33333333333331</ele><time>2026-04-27T12:46:18Z</time></trkpt><trkpt lat="39.069306596855085" lon="16.166937080209934"><ele>196.16666666666666</ele><time>2026-04-27T12:46:20Z</time></trkpt><trkpt lat="39.069299512151915" lon="16.167034521729523"><ele>195.0</ele><time>2026-04-27T12:46:21Z</time></trkpt><trkpt lat="39.06928631007689" lon="16.16712475499645"><ele>195.0</ele><time>2026-04-27T12:46:22Z</time></trkpt><trkpt lat="39.069281870377054" lon="16.16720614148003"><ele>195.0</ele><time>2026-04-27T12:46:23Z</time></trkpt><trkpt lat="39.06928081057538" lon="16.16729237674793"><ele>195.0</ele><time>2026-04-27T12:46:24Z</time></trkpt><trkpt lat="39.06927983054839" lon="16.167374486165055"><ele>195.0</ele><time>2026-04-27T12:46:25Z</time></trkpt><trkpt lat="39.069251548980866" lon="16.167496652849465"><ele>195.0</ele><time>2026-04-27T12:46:27Z</time></trkpt><trkpt lat="39.06917580100185" lon="16.167626101267466"><ele>195.0</ele><time>2026-04-27T12:46:29Z</time></trkpt><trkpt lat="39.06911935426532" lon="16.167676550210974"><ele>187.66666666666666</ele><time>2026-04-27T12:46:29.999Z</time></trkpt><trkpt lat="39.069020344244564" lon="16.167732224046087"><ele>180.33333333333334</ele><time>2026-04-27T12:46:31.999Z</time></trkpt><trkpt lat="39.06894896646266" lon="16.167790404143776"><ele>173.0</ele><time>2026-04-27T12:46:33.999Z</time></trkpt><trkpt lat="39.06888063749623" lon="16.167800914863566"><ele>165.66666666666669</ele><time>2026-04-27T12:46:36.999Z</time></trkpt><trkpt lat="39.0688839039128" lon="16.167712368223274"><ele>158.33333333333334</ele><time>2026-04-27T12:46:40.999Z</time></trkpt><trkpt lat="39.068962375823176" lon="16.167620808522614"><ele>151.0</ele><time>2026-04-27T12:46:42.999Z</time></trkpt><trkpt lat="39.068976341204035" lon="16.167537788552885"><ele>151.0</ele><time>2026-04-27T12:46:43.999Z</time></trkpt><trkpt lat="39.06897875384951" lon="16.167448038315648"><ele>151.0</ele><time>2026-04-27T12:46:44.999Z</time></trkpt><trkpt lat="39.068969115126826" lon="16.16735742758961"><ele>151.0</ele><time>2026-04-27T12:46:45.999Z</time></trkpt><trkpt lat="39.06894542605966" lon="16.167208529988596"><ele>151.0</ele><time>2026-04-27T12:46:47.999Z</time></trkpt><trkpt lat="39.0688749921772" lon="16.167163028061065"><ele>151.0</ele><time>2026-04-27T12:46:50.999Z</time></trkpt><trkpt lat="39.06887532556859" lon="16.167250177341803"><ele>151.0</ele><time>2026-04-27T12:46:52.999Z</time></trkpt><trkpt lat="39.06888651082814" lon="16.167339006592847"><ele>151.0</ele><time>2026-04-27T12:46:53.999Z</time></trkpt><trkpt lat="39.06886632119182" lon="16.167428839425753"><ele>151.0</ele><time>2026-04-27T12:46:54.999Z</time></trkpt><trkpt lat="39.06879352766931" lon="16.167547313671115"><ele>151.0</ele><time>2026-04-27T12:46:56.999Z</time></trkpt><trkpt lat="39.06874309984901" lon="16.16759776946488"><ele>151.0</ele><time>2026-04-27T12:46:57.999Z</time></trkpt><trkpt lat="39.068690902278476" lon="16.16765657320425"><ele>151.0</ele><time>2026-04-27T12:46:58.999Z</time></trkpt><trkpt lat="39.06862846629944" lon="16.167738911926484"><ele>151.0</ele><time>2026-04-27T12:46:59.999Z</time></trkpt><trkpt lat="39.06857663401975" lon="16.16781731141927"><ele>151.0</ele><time>2026-04-27T12:47:00.999Z</time></trkpt><trkpt lat="39.06853299631322" lon="16.16788562432755"><ele>151.0</ele><time>2026-04-27T12:47:01.999Z</time></trkpt><trkpt lat="39.06846755614798" lon="16.16793592082597"><ele>151.0</ele><time>2026-04-27T12:47:04.999Z</time></trkpt><trkpt lat="39.068454238626245" lon="16.167824665570066"><ele>151.0</ele><time>2026-04-27T12:47:07.999Z</time></trkpt><trkpt lat="39.06853727075052" lon="16.16772597544806"><ele>151.0</ele><time>2026-04-27T12:47:09.999Z</time></trkpt><trkpt lat="39.06857988010739" lon="16.16766048391697"><ele>151.0</ele><time>2026-04-27T12:47:10.999Z</time></trkpt><trkpt lat="39.068620177966274" lon="16.16758827526214"><ele>151.0</ele><time>2026-04-27T12:47:11.999Z</time></trkpt><trkpt lat="39.068656275842336" lon="16.167438425613522"><ele>151.0</ele><time>2026-04-27T12:47:13.999Z</time></trkpt><trkpt lat="39.06865610350224" lon="16.16734550201133"><ele>151.0</ele><time>2026-04-27T12:47:14.999Z</time></trkpt><trkpt lat="39.0686654898396" lon="16.167258339818808"><ele>151.0</ele><time>2026-04-27T12:47:15.999Z</time></trkpt><trkpt lat="39.06867346513986" lon="16.16716827987052"><ele>151.0</ele><time>2026-04-27T12:47:16.999Z</time></trkpt><trkpt lat="39.06866955528414" lon="16.16701728804568"><ele>150.0</ele><time>2026-04-27T12:47:18.999Z</time></trkpt><trkpt lat="39.06861819622534" lon="16.16689641413527"><ele>149.0</ele><time>2026-04-27T12:47:20.999Z</time></trkpt><trkpt lat="39.06854871951669" lon="16.166893645455268"><ele>148.0</ele><time>2026-04-27T12:47:23.999Z</time></trkpt><trkpt lat="39.0685289227059" lon="16.167025710990135"><ele>147.0</ele><time>2026-04-27T12:47:25.999Z</time></trkpt><trkpt lat="39.0685189096148" lon="16.16712755532271"><ele>146.0</ele><time>2026-04-27T12:47:26.999Z</time></trkpt><trkpt lat="39.068493191844894" lon="16.16721693917567"><ele>145.0</ele><time>2026-04-27T12:47:27.999Z</time></trkpt><trkpt lat="39.06845946306904" lon="16.167287449660414"><ele>145.0</ele><time>2026-04-27T12:47:28.999Z</time></trkpt><trkpt lat="39.06842640820105" lon="16.16735745926962"><ele>145.0</ele><time>2026-04-27T12:47:29.999Z</time></trkpt><trkpt lat="39.068375738137476" lon="16.167446074382568"><ele>145.0</ele><time>2026-04-27T12:47:31.999Z</time></trkpt><trkpt lat="39.068296097578376" lon="16.167432632409785"><ele>145.0</ele><time>2026-04-27T12:47:35.999Z</time></trkpt><trkpt lat="39.068293553343665" lon="16.16733391150145"><ele>145.0</ele><time>2026-04-27T12:47:38.999Z</time></trkpt><trkpt lat="39.068296121589" lon="16.167109393263303"><ele>145.0</ele><time>2026-04-27T12:47:39.999Z</time></trkpt><trkpt lat="39.06829519197607" lon="16.16701997338067"><ele>145.0</ele><time>2026-04-27T12:47:40.999Z</time></trkpt><trkpt lat="39.06830708735546" lon="16.166934280255894"><ele>145.0</ele><time>2026-04-27T12:47:41.999Z</time></trkpt><trkpt lat="39.06830637229335" lon="16.166809032155562"><ele>145.0</ele><time>2026-04-27T12:47:43.999Z</time></trkpt><trkpt lat="39.06825738897045" lon="16.166681962066505"><ele>145.0</ele><time>2026-04-27T12:47:45.999Z</time></trkpt><trkpt lat="39.068208807341904" lon="16.166596509877852"><ele>145.0</ele><time>2026-04-27T12:47:47.999Z</time></trkpt><trkpt lat="39.06814692862465" lon="16.16650512371347"><ele>139.83333333333334</ele><time>2026-04-27T12:47:49.999Z</time></trkpt><trkpt lat="39.068082990054386" lon="16.166422313359423"><ele>134.66666666666669</ele><time>2026-04-27T12:47:51.999Z</time></trkpt><trkpt lat="39.06801521722171" lon="16.166300830084843"><ele>129.5</ele><time>2026-04-27T12:47:53.999Z</time></trkpt><trkpt lat="39.067968613995234" lon="16.16624345204568"><ele>124.33333333333334</ele><time>2026-04-27T12:47:54.999Z</time></trkpt><trkpt lat="39.067919117574874" lon="16.16618347199021"><ele>119.16666666666667</ele><time>2026-04-27T12:47:55.999Z</time></trkpt><trkpt lat="39.06788555626715" lon="16.166113770344516"><ele>114.0</ele><time>2026-04-27T12:47:56.999Z</time></trkpt><trkpt lat="39.067852414266625" lon="16.165968442627232"><ele>114.0</ele><time>2026-04-27T12:47:58.999Z</time></trkpt><trkpt lat="39.0678512587014" lon="16.165813410293698"><ele>114.0</ele><time>2026-04-27T12:47:59.999Z</time></trkpt><trkpt lat="39.067802901618585" lon="16.165685593511416"><ele>114.0</ele><time>2026-04-27T12:48:02Z</time></trkpt><trkpt lat="39.06772926134683" lon="16.16557469524275"><ele>114.0</ele><time>2026-04-27T12:48:04Z</time></trkpt><trkpt lat="39.067715631905536" lon="16.165436872996285"><ele>116.0</ele><time>2026-04-27T12:48:06Z</time></trkpt><trkpt lat="39.06764645090051" lon="16.165323988749392"><ele>118.0</ele><time>2026-04-27T12:48:08Z</time></trkpt><trkpt lat="39.067579888091416" lon="16.165264005767106"><ele>120.0</ele><time>2026-04-27T12:48:09Z</time></trkpt><trkpt lat="39.067515710561" lon="16.16523819935151"><ele>122.0</ele><time>2026-04-27T12:48:10Z</time></trkpt><trkpt lat="39.067433334702336" lon="16.165166184757155"><ele>124.0</ele><time>2026-04-27T12:48:12Z</time></trkpt><trkpt lat="39.06740276364039" lon="16.165044612652153"><ele>124.0</ele><time>2026-04-27T12:50:00.999Z</time></trkpt><trkpt lat="39.06744704467983" lon="16.16487059411697"><ele>124.0</ele><time>2026-04-27T12:50:02.999Z</time></trkpt><trkpt lat="39.06748355309253" lon="16.164770914913007"><ele>124.0</ele><time>2026-04-27T12:50:03.999Z</time></trkpt><trkpt lat="39.06751227217676" lon="16.164677216407192"><ele>124.0</ele><time>2026-04-27T12:50:04.999Z</time></trkpt><trkpt lat="39.06752478487269" lon="16.164579508105533"><ele>124.0</ele><time>2026-04-27T12:50:05.999Z</time></trkpt><trkpt lat="39.06752507881538" lon="16.16448911249292"><ele>122.2</ele><time>2026-04-27T12:50:07Z</time></trkpt><trkpt lat="39.06749129017502" lon="16.164343421803224"><ele>120.4</ele><time>2026-04-27T12:50:09Z</time></trkpt><trkpt lat="39.067466271798956" lon="16.164262691793244"><ele>118.6</ele><time>2026-04-27T12:50:10Z</time></trkpt><trkpt lat="39.06743546209977" lon="16.164166545536578"><ele>116.8</ele><time>2026-04-27T12:50:12Z</time></trkpt><trkpt lat="39.06738299669756" lon="16.164090600497715"><ele>115.0</ele><time>2026-04-27T12:50:15Z</time></trkpt><trkpt lat="39.06727897043176" lon="16.16416420710877"><ele>108.8</ele><time>2026-04-27T12:50:18Z</time></trkpt><trkpt lat="39.06721570589203" lon="16.164212759309933"><ele>102.6</ele><time>2026-04-27T12:50:19Z</time></trkpt><trkpt lat="39.06714137853607" lon="16.164368544465386"><ele>96.4</ele><time>2026-04-27T12:50:21Z</time></trkpt><trkpt lat="39.067096196850386" lon="16.16448344568711"><ele>90.2</ele><time>2026-04-27T12:50:22Z</time></trkpt><trkpt lat="39.06704224471829" lon="16.164583588065945"><ele>84.0</ele><time>2026-04-27T12:50:23Z</time></trkpt><trkpt lat="39.06699829155462" lon="16.1646662349049"><ele>84.0</ele><time>2026-04-27T12:50:24Z</time></trkpt><trkpt lat="39.06695034743936" lon="16.164760205298414"><ele>84.0</ele><time>2026-04-27T12:50:26Z</time></trkpt><trkpt lat="39.06689630735932" lon="16.164823152470433"><ele>84.0</ele><time>2026-04-27T12:50:28Z</time></trkpt><trkpt lat="39.06683038238395" lon="16.164883204512783"><ele>84.0</ele><time>2026-04-27T12:50:30Z</time></trkpt><trkpt lat="39.06675890144586" lon="16.16482317455676"><ele>84.0</ele><time>2026-04-27T12:50:34Z</time></trkpt><trkpt lat="39.06671364305683" lon="16.164728843195718"><ele>84.0</ele><time>2026-04-27T12:50:35Z</time></trkpt><trkpt lat="39.06667847768379" lon="16.16461842271939"><ele>84.0</ele><time>2026-04-27T12:50:37Z</time></trkpt><trkpt lat="39.06666963445302" lon="16.16453052153861"><ele>84.0</ele><time>2026-04-27T12:50:39Z</time></trkpt><trkpt lat="39.06659343270595" lon="16.16445016144854"><ele>84.0</ele><time>2026-04-27T12:50:42Z</time></trkpt><trkpt lat="39.06652915477552" lon="16.164412930448"><ele>84.0</ele><time>2026-04-27T12:50:44Z</time></trkpt><trkpt lat="39.0664904352498" lon="16.164346858424736"><ele>84.0</ele><time>2026-04-27T12:50:45Z</time></trkpt><trkpt lat="39.066452632634" lon="16.164269968940317"><ele>84.0</ele><time>2026-04-27T12:50:46Z</time></trkpt><trkpt lat="39.066415437605585" lon="16.164201188022588"><ele>84.0</ele><time>2026-04-27T12:50:47Z</time></trkpt><trkpt lat="39.06635850325719" lon="16.164068175172332"><ele>81.83333333333333</ele><time>2026-04-27T12:50:48.999Z</time></trkpt><trkpt lat="39.06629451660119" lon="16.16398925839694"><ele>79.66666666666667</ele><time>2026-04-27T12:50:50.999Z</time></trkpt><trkpt lat="39.066217968370395" lon="16.163940938282817"><ele>77.5</ele><time>2026-04-27T12:50:53.999Z</time></trkpt><trkpt lat="39.06616060815594" lon="16.163873843282417"><ele>75.33333333333334</ele><time>2026-04-27T12:50:56.999Z</time></trkpt><trkpt lat="39.06610701233909" lon="16.16382752182911"><ele>73.16666666666667</ele><time>2026-04-27T12:50:58.999Z</time></trkpt><trkpt lat="39.06603290604791" lon="16.16376949540049"><ele>71.0</ele><time>2026-04-27T12:51:00.999Z</time></trkpt><trkpt lat="39.065969418004435" lon="16.163732645852043"><ele>71.0</ele><time>2026-04-27T12:51:02.999Z</time></trkpt><trkpt lat="39.06590566968459" lon="16.163704633980636"><ele>71.0</ele><time>2026-04-27T12:51:04.999Z</time></trkpt><trkpt lat="39.06581999938431" lon="16.163628647479616"><ele>71.0</ele><time>2026-04-27T12:51:06.999Z</time></trkpt><trkpt lat="39.0657301695734" lon="16.163552832026877"><ele>71.0</ele><time>2026-04-27T12:51:09.999Z</time></trkpt><trkpt lat="39.06567847037133" lon="16.163480638243044"><ele>71.0</ele><time>2026-04-27T12:51:12.999Z</time></trkpt><trkpt lat="39.06560645466707" lon="16.163400751498468"><ele>70.33333333333334</ele><time>2026-04-27T12:51:14.999Z</time></trkpt><trkpt lat="39.06557974011695" lon="16.16328048808582"><ele>69.66666666666667</ele><time>2026-04-27T12:51:16.999Z</time></trkpt><trkpt lat="39.065575736029366" lon="16.163189157191372"><ele>69.0</ele><time>2026-04-27T12:51:18.999Z</time></trkpt><trkpt lat="39.06557213857396" lon="16.163061134932583"><ele>68.33333333333333</ele><time>2026-04-27T12:51:21.999Z</time></trkpt><trkpt lat="39.06558095402848" lon="16.162963915714087"><ele>67.66666666666666</ele><time>2026-04-27T12:51:23.999Z</time></trkpt><trkpt lat="39.06556447712936" lon="16.16284921993163"><ele>67.0</ele><time>2026-04-27T12:51:25.999Z</time></trkpt><trkpt lat="39.065530947553235" lon="16.162735558277053"><ele>66.8</ele><time>2026-04-27T12:51:27.999Z</time></trkpt><trkpt lat="39.06549049373519" lon="16.16260354988404"><ele>66.6</ele><time>2026-04-27T12:51:29.999Z</time></trkpt><trkpt lat="39.06545198784753" lon="16.16252176744085"><ele>66.39999999999999</ele><time>2026-04-27T12:51:31.999Z</time></trkpt><trkpt lat="39.065421012411676" lon="16.16241620216897"><ele>66.2</ele><time>2026-04-27T12:51:33.999Z</time></trkpt><trkpt lat="39.065367303911536" lon="16.162324166387315"><ele>66.0</ele><time>2026-04-27T12:51:35.999Z</time></trkpt><trkpt lat="39.06529562782566" lon="16.162240071515633"><ele>65.6</ele><time>2026-04-27T12:51:37.999Z</time></trkpt><trkpt lat="39.06520614374" lon="16.162132419500878"><ele>65.19999999999999</ele><time>2026-04-27T12:51:39.999Z</time></trkpt><trkpt lat="39.065097419446644" lon="16.16201703685151"><ele>64.80000000000001</ele><time>2026-04-27T12:51:41.999Z</time></trkpt><trkpt lat="39.06502367936559" lon="16.161966308844384"><ele>64.4</ele><time>2026-04-27T12:51:42.999Z</time></trkpt><trkpt lat="39.064947379630574" lon="16.161913841246932"><ele>64.0</ele><time>2026-04-27T12:51:43.999Z</time></trkpt><trkpt lat="39.06487434141507" lon="16.161840058238486"><ele>64.0</ele><time>2026-04-27T12:51:44.999Z</time></trkpt><trkpt lat="39.06479020391669" lon="16.161764237636596"><ele>64.0</ele><time>2026-04-27T12:51:45.999Z</time></trkpt><trkpt lat="39.0647036562248" lon="16.161692031446755"><ele>64.0</ele><time>2026-04-27T12:51:46.999Z</time></trkpt><trkpt lat="39.06463517372437" lon="16.16162924042417"><ele>64.0</ele><time>2026-04-27T12:51:47.999Z</time></trkpt><trkpt lat="39.06455760824158" lon="16.161523834725372"><ele>64.0</ele><time>2026-04-27T12:51:49.999Z</time></trkpt><trkpt lat="39.06451909877414" lon="16.161392426316155"><ele>65.0</ele><time>2026-04-27T12:51:51.999Z</time></trkpt><trkpt lat="39.064479720493665" lon="16.161221471827805"><ele>66.0</ele><time>2026-04-27T12:51:53.999Z</time></trkpt><trkpt lat="39.06444983160523" lon="16.161100687403486"><ele>67.0</ele><time>2026-04-27T12:51:54.999Z</time></trkpt><trkpt lat="39.06441442909894" lon="16.1609710341228"><ele>68.0</ele><time>2026-04-27T12:51:55.999Z</time></trkpt><trkpt lat="39.064371634071335" lon="16.160829438358366"><ele>68.0</ele><time>2026-04-27T12:51:56.999Z</time></trkpt><trkpt lat="39.06433197001239" lon="16.160710784464065"><ele>68.0</ele><time>2026-04-27T12:51:57.999Z</time></trkpt><trkpt lat="39.06429767682037" lon="16.160620510289206"><ele>68.0</ele><time>2026-04-27T12:51:58.999Z</time></trkpt><trkpt lat="39.06420370457115" lon="16.16049860958755"><ele>68.0</ele><time>2026-04-27T12:52:00.999Z</time></trkpt><trkpt lat="39.064135423959826" lon="16.160421379863532"><ele>68.0</ele><time>2026-04-27T12:52:01.999Z</time></trkpt><trkpt lat="39.06406714659218" lon="16.160348883209167"><ele>67.2</ele><time>2026-04-27T12:52:02.999Z</time></trkpt><trkpt lat="39.06399402227856" lon="16.16027892520203"><ele>66.4</ele><time>2026-04-27T12:52:03.999Z</time></trkpt><trkpt lat="39.06391011511761" lon="16.160212924213464"><ele>65.60000000000001</ele><time>2026-04-27T12:52:04.999Z</time></trkpt><trkpt lat="39.06382673419032" lon="16.16012654952997"><ele>64.8</ele><time>2026-04-27T12:52:05.999Z</time></trkpt><trkpt lat="39.06374936522812" lon="16.16003036520692"><ele>64.0</ele><time>2026-04-27T12:52:06.999Z</time></trkpt><trkpt lat="39.06366579707573" lon="16.15992256289049"><ele>68.25</ele><time>2026-04-27T12:52:07.999Z</time></trkpt><trkpt lat="39.0635807732956" lon="16.15981461667385"><ele>72.5</ele><time>2026-04-27T12:52:08.999Z</time></trkpt><trkpt lat="39.063492962008525" lon="16.15970476296699"><ele>76.75</ele><time>2026-04-27T12:52:09.999Z</time></trkpt><trkpt lat="39.06339346616728" lon="16.159594672795997"><ele>81.0</ele><time>2026-04-27T12:52:10.999Z</time></trkpt><trkpt lat="39.063314378831514" lon="16.159503433965444"><ele>78.0</ele><time>2026-04-27T12:52:11.999Z</time></trkpt><trkpt lat="39.06325066337397" lon="16.159433989023743"><ele>75.0</ele><time>2026-04-27T12:52:15Z</time></trkpt><trkpt lat="39.06318297746854" lon="16.159371062796772"><ele>72.0</ele><time>2026-04-27T12:52:18Z</time></trkpt><trkpt lat="39.06315361282095" lon="16.159294990734338"><ele>69.0</ele><time>2026-04-27T12:52:21Z</time></trkpt><trkpt lat="39.063092606749585" lon="16.159200377425467"><ele>66.0</ele><time>2026-04-27T12:52:23Z</time></trkpt><trkpt lat="39.06303241378684" lon="16.159098558379867"><ele>63.0</ele><time>2026-04-27T12:52:24Z</time></trkpt><trkpt lat="39.06298149646246" lon="16.15897642723116"><ele>63.0</ele><time>2026-04-27T12:52:25Z</time></trkpt><trkpt lat="39.0629323309322" lon="16.15889579972408"><ele>63.0</ele><time>2026-04-27T12:52:26Z</time></trkpt><trkpt lat="39.062888392359945" lon="16.158813368377572"><ele>63.0</ele><time>2026-04-27T12:52:27Z</time></trkpt><trkpt lat="39.06283734065854" lon="16.158738522112277"><ele>63.0</ele><time>2026-04-27T12:52:28Z</time></trkpt><trkpt lat="39.062778624007755" lon="16.158669756100657"><ele>63.0</ele><time>2026-04-27T12:52:29Z</time></trkpt><trkpt lat="39.06271291777126" lon="16.158600349482956"><ele>63.0</ele><time>2026-04-27T12:52:30Z</time></trkpt><trkpt lat="39.062649607175025" lon="16.158520188105093"><ele>63.0</ele><time>2026-04-27T12:52:31Z</time></trkpt><trkpt lat="39.0625910088362" lon="16.15843426808861"><ele>63.0</ele><time>2026-04-27T12:52:32Z</time></trkpt><trkpt lat="39.06252196729594" lon="16.158310402830875"><ele>63.0</ele><time>2026-04-27T12:52:33Z</time></trkpt><trkpt lat="39.06243206850308" lon="16.158179355305837"><ele>63.0</ele><time>2026-04-27T12:52:34Z</time></trkpt><trkpt lat="39.062358794255076" lon="16.15805285112674"><ele>61.599999999999994</ele><time>2026-04-27T12:52:35Z</time></trkpt><trkpt lat="39.06228445327839" lon="16.15793609757519"><ele>60.199999999999996</ele><time>2026-04-27T12:52:36Z</time></trkpt><trkpt lat="39.06221782418579" lon="16.157825415398797"><ele>58.8</ele><time>2026-04-27T12:52:37Z</time></trkpt><trkpt lat="39.062157691934104" lon="16.157707679585894"><ele>57.4</ele><time>2026-04-27T12:52:38Z</time></trkpt><trkpt lat="39.062102312798984" lon="16.157602569104814"><ele>56.0</ele><time>2026-04-27T12:52:39Z</time></trkpt><trkpt lat="39.0620460552853" lon="16.157486636950456"><ele>55.8</ele><time>2026-04-27T12:52:40Z</time></trkpt><trkpt lat="39.06200016630266" lon="16.15736212609955"><ele>55.599999999999994</ele><time>2026-04-27T12:52:41Z</time></trkpt><trkpt lat="39.06195293526233" lon="16.157247346489964"><ele>55.4</ele><time>2026-04-27T12:52:42Z</time></trkpt><trkpt lat="39.061889922632794" lon="16.157150935939853"><ele>55.2</ele><time>2026-04-27T12:52:43Z</time></trkpt><trkpt lat="39.06182292592189" lon="16.157057772197923"><ele>55.0</ele><time>2026-04-27T12:52:44Z</time></trkpt><trkpt lat="39.061771989011675" lon="16.156858176294655"><ele>55.0</ele><time>2026-04-27T12:52:45Z</time></trkpt><trkpt lat="39.061705736939" lon="16.156710829213228"><ele>55.0</ele><time>2026-04-27T12:52:46Z</time></trkpt><trkpt lat="39.06164046108343" lon="16.156540595067614"><ele>55.0</ele><time>2026-04-27T12:52:47Z</time></trkpt><trkpt lat="39.06158287383319" lon="16.156381622683973"><ele>55.0</ele><time>2026-04-27T12:52:48Z</time></trkpt><trkpt lat="39.06151743218241" lon="16.156234319175486"><ele>55.0</ele><time>2026-04-27T12:52:49Z</time></trkpt><trkpt lat="39.061436934371486" lon="16.156076443963634"><ele>55.0</ele><time>2026-04-27T12:52:50Z</time></trkpt><trkpt lat="39.06136956047416" lon="16.15592993284532"><ele>55.0</ele><time>2026-04-27T12:52:51Z</time></trkpt><trkpt lat="39.06132032171984" lon="16.155804053585555"><ele>55.0</ele><time>2026-04-27T12:52:51.999Z</time></trkpt><trkpt lat="39.06128197529311" lon="16.155679779166057"><ele>55.0</ele><time>2026-04-27T12:52:52.999Z</time></trkpt><trkpt lat="39.06126171860569" lon="16.155527167645904"><ele>55.0</ele><time>2026-04-27T12:52:53.999Z</time></trkpt><trkpt lat="39.061231663723646" lon="16.155376605547207"><ele>55.0</ele><time>2026-04-27T12:52:54.999Z</time></trkpt><trkpt lat="39.061179340016835" lon="16.155236881807657"><ele>55.0</ele><time>2026-04-27T12:52:55.999Z</time></trkpt><trkpt lat="39.0611032614993" lon="16.155086936955755"><ele>55.0</ele><time>2026-04-27T12:52:56.999Z</time></trkpt><trkpt lat="39.0610428176556" lon="16.154933212720426"><ele>55.0</ele><time>2026-04-27T12:52:57.999Z</time></trkpt><trkpt lat="39.060991717208005" lon="16.154799064588552"><ele>55.0</ele><time>2026-04-27T12:52:58.999Z</time></trkpt><trkpt lat="39.060944048238674" lon="16.15468255729403"><ele>55.0</ele><time>2026-04-27T12:52:59.999Z</time></trkpt><trkpt lat="39.06092456598827" lon="16.154575159648836"><ele>55.0</ele><time>2026-04-27T12:53:00.999Z</time></trkpt><trkpt lat="39.060924129281474" lon="16.15444227412983"><ele>54.6</ele><time>2026-04-27T12:53:01.999Z</time></trkpt><trkpt lat="39.06090536296099" lon="16.154314099575025"><ele>54.2</ele><time>2026-04-27T12:53:02.999Z</time></trkpt><trkpt lat="39.060856015855826" lon="16.1542134792884"><ele>53.8</ele><time>2026-04-27T12:53:03.999Z</time></trkpt><trkpt lat="39.060777679328794" lon="16.15408081824398"><ele>53.4</ele><time>2026-04-27T12:53:04.999Z</time></trkpt><trkpt lat="39.060706072469614" lon="16.153987079391367"><ele>53.0</ele><time>2026-04-27T12:53:05.999Z</time></trkpt><trkpt lat="39.06064920140386" lon="16.153913195901346"><ele>53.0</ele><time>2026-04-27T12:53:06.999Z</time></trkpt><trkpt lat="39.0605655623265" lon="16.15385633046236"><ele>53.0</ele><time>2026-04-27T12:53:07.999Z</time></trkpt><trkpt lat="39.060490400338004" lon="16.15381253953168"><ele>53.0</ele><time>2026-04-27T12:53:08.999Z</time></trkpt><trkpt lat="39.06043132149418" lon="16.153740932181726"><ele>53.0</ele><time>2026-04-27T12:53:09.999Z</time></trkpt><trkpt lat="39.060393512660454" lon="16.153627592310723"><ele>53.0</ele><time>2026-04-27T12:53:10.999Z</time></trkpt><trkpt lat="39.0603411447041" lon="16.1534670344764"><ele>53.0</ele><time>2026-04-27T12:53:11.999Z</time></trkpt><trkpt lat="39.06026602266372" lon="16.15327931383036"><ele>53.0</ele><time>2026-04-27T12:53:12.999Z</time></trkpt><trkpt lat="39.0601736263427" lon="16.15308934915675"><ele>53.0</ele><time>2026-04-27T12:53:13.999Z</time></trkpt><trkpt lat="39.06008567561071" lon="16.152882868333553"><ele>53.0</ele><time>2026-04-27T12:53:14.999Z</time></trkpt><trkpt lat="39.05999785868752" lon="16.152666534964478"><ele>53.0</ele><time>2026-04-27T12:53:15.999Z</time></trkpt><trkpt lat="39.05991503665924" lon="16.152449809135504"><ele>53.0</ele><time>2026-04-27T12:53:16.999Z</time></trkpt><trkpt lat="39.05982643154628" lon="16.15223233290138"><ele>53.0</ele><time>2026-04-27T12:53:17.999Z</time></trkpt><trkpt lat="39.05974358584171" lon="16.152035692357124"><ele>53.0</ele><time>2026-04-27T12:53:18.999Z</time></trkpt><trkpt lat="39.059667783979556" lon="16.15184777527192"><ele>53.0</ele><time>2026-04-27T12:53:19.999Z</time></trkpt><trkpt lat="39.05958313168358" lon="16.15165075702618"><ele>53.0</ele><time>2026-04-27T12:53:20.999Z</time></trkpt><trkpt lat="39.05949884022784" lon="16.151447878852508"><ele>53.0</ele><time>2026-04-27T12:53:21.999Z</time></trkpt><trkpt lat="39.05941599509947" lon="16.151246705296625"><ele>53.0</ele><time>2026-04-27T12:53:22.999Z</time></trkpt><trkpt lat="39.05934660645458" lon="16.151067919537983"><ele>53.0</ele><time>2026-04-27T12:53:23.999Z</time></trkpt><trkpt lat="39.05928185759511" lon="16.15091265598602"><ele>53.0</ele><time>2026-04-27T12:53:24.999Z</time></trkpt><trkpt lat="39.05922860799336" lon="16.1507927144317"><ele>53.0</ele><time>2026-04-27T12:53:25.999Z</time></trkpt><trkpt lat="39.059188577133185" lon="16.150696286370568"><ele>53.0</ele><time>2026-04-27T12:53:26.999Z</time></trkpt><trkpt lat="39.059157467569506" lon="16.150601415881614"><ele>53.0</ele><time>2026-04-27T12:53:27.999Z</time></trkpt><trkpt lat="39.05914159137468" lon="16.15047888266553"><ele>53.25</ele><time>2026-04-27T12:53:28.999Z</time></trkpt><trkpt lat="39.05911949696405" lon="16.150344661315675"><ele>53.5</ele><time>2026-04-27T12:53:29.999Z</time></trkpt><trkpt lat="39.05907149385953" lon="16.150223198146207"><ele>53.75</ele><time>2026-04-27T12:53:30.999Z</time></trkpt><trkpt lat="39.05900445203795" lon="16.15008635577589"><ele>54.0</ele><time>2026-04-27T12:53:31.999Z</time></trkpt><trkpt lat="39.058943392194315" lon="16.149927467507077"><ele>53.400000000000006</ele><time>2026-04-27T12:53:32.999Z</time></trkpt><trkpt lat="39.05888346810154" lon="16.14979738707949"><ele>52.800000000000004</ele><time>2026-04-27T12:53:33.999Z</time></trkpt><trkpt lat="39.058850218109626" lon="16.14968739259989"><ele>52.2</ele><time>2026-04-27T12:53:34.999Z</time></trkpt><trkpt lat="39.058807523399544" lon="16.149580157764362"><ele>51.599999999999994</ele><time>2026-04-27T12:53:35.999Z</time></trkpt><trkpt lat="39.05878406880021" lon="16.149455999327635"><ele>51.0</ele><time>2026-04-27T12:53:36.999Z</time></trkpt><trkpt lat="39.05875300135691" lon="16.149297097634253"><ele>51.0</ele><time>2026-04-27T12:53:37.999Z</time></trkpt><trkpt lat="39.05872499721493" lon="16.149181229169596"><ele>51.0</ele><time>2026-04-27T12:53:38.999Z</time></trkpt><trkpt lat="39.058662001675486" lon="16.149071757691903"><ele>51.0</ele><time>2026-04-27T12:53:40.999Z</time></trkpt><trkpt lat="39.05861191269092" lon="16.149009029287257"><ele>51.0</ele><time>2026-04-27T12:53:41.999Z</time></trkpt><trkpt lat="39.05854724638576" lon="16.148988061024674"><ele>51.0</ele><time>2026-04-27T12:53:43.999Z</time></trkpt><trkpt lat="39.05849009927378" lon="16.1489386451657"><ele>51.0</ele><time>2026-04-27T12:53:46.999Z</time></trkpt><trkpt lat="39.058378765933846" lon="16.148909968003654"><ele>50.4</ele><time>2026-04-27T12:53:48.999Z</time></trkpt><trkpt lat="39.0582845423896" lon="16.148850727586947"><ele>49.8</ele><time>2026-04-27T12:53:49.999Z</time></trkpt><trkpt lat="39.05821726224966" lon="16.148795226188817"><ele>49.199999999999996</ele><time>2026-04-27T12:53:50.999Z</time></trkpt><trkpt lat="39.05815532346874" lon="16.148722952191388"><ele>48.599999999999994</ele><time>2026-04-27T12:53:51.999Z</time></trkpt><trkpt lat="39.05805201228113" lon="16.14862975789949"><ele>48.0</ele><time>2026-04-27T12:53:52.999Z</time></trkpt><trkpt lat="39.057952175116455" lon="16.148541018335813"><ele>48.0</ele><time>2026-04-27T12:53:53.999Z</time></trkpt><trkpt lat="39.057835269058394" lon="16.148440619459887"><ele>48.0</ele><time>2026-04-27T12:53:54.999Z</time></trkpt><trkpt lat="39.05772108005267" lon="16.14834824281256"><ele>48.0</ele><time>2026-04-27T12:53:55.999Z</time></trkpt><trkpt lat="39.057606116835096" lon="16.148253394163035"><ele>48.0</ele><time>2026-04-27T12:53:56.999Z</time></trkpt><trkpt lat="39.05748451470248" lon="16.14815464932458"><ele>48.25</ele><time>2026-04-27T12:53:57.999Z</time></trkpt><trkpt lat="39.05735690406274" lon="16.148052808554795"><ele>48.5</ele><time>2026-04-27T12:53:58.999Z</time></trkpt><trkpt lat="39.05723470491795" lon="16.147950292828963"><ele>48.75</ele><time>2026-04-27T12:53:59.999Z</time></trkpt><trkpt lat="39.057106441042656" lon="16.147859673331027"><ele>49.0</ele><time>2026-04-27T12:54:00.999Z</time></trkpt><trkpt lat="39.05698956579728" lon="16.14777306161278"><ele>49.0</ele><time>2026-04-27T12:54:01.999Z</time></trkpt><trkpt lat="39.0568932957442" lon="16.147702801282655"><ele>49.0</ele><time>2026-04-27T12:54:02.999Z</time></trkpt><trkpt lat="39.05680332703334" lon="16.14763924574973"><ele>49.0</ele><time>2026-04-27T12:54:03.999Z</time></trkpt><trkpt lat="39.056715016938966" lon="16.147575318581904"><ele>49.0</ele><time>2026-04-27T12:54:04.999Z</time></trkpt><trkpt lat="39.05662056411147" lon="16.14749791891043"><ele>49.0</ele><time>2026-04-27T12:54:05.999Z</time></trkpt><trkpt lat="39.05654419781462" lon="16.14742294488849"><ele>49.0</ele><time>2026-04-27T12:54:06.999Z</time></trkpt><trkpt lat="39.056425675001684" lon="16.14728811343543"><ele>49.0</ele><time>2026-04-27T12:54:07.999Z</time></trkpt><trkpt lat="39.0563233697748" lon="16.14721591350143"><ele>49.0</ele><time>2026-04-27T12:54:08.999Z</time></trkpt><trkpt lat="39.05619130445877" lon="16.147129787207597"><ele>49.0</ele><time>2026-04-27T12:54:09.999Z</time></trkpt><trkpt lat="39.05605878094014" lon="16.147044549630696"><ele>49.0</ele><time>2026-04-27T12:54:10.999Z</time></trkpt><trkpt lat="39.055920702725054" lon="16.1469414230029"><ele>49.0</ele><time>2026-04-27T12:54:11.999Z</time></trkpt><trkpt lat="39.05579186837894" lon="16.146840372969184"><ele>49.0</ele><time>2026-04-27T12:54:12.999Z</time></trkpt><trkpt lat="39.05565831602414" lon="16.146740333679723"><ele>48.0</ele><time>2026-04-27T12:54:13.999Z</time></trkpt><trkpt lat="39.05552736801622" lon="16.146637320786482"><ele>47.0</ele><time>2026-04-27T12:54:14.999Z</time></trkpt><trkpt lat="39.05539759852946" lon="16.146541941174004"><ele>46.0</ele><time>2026-04-27T12:54:15.999Z</time></trkpt><trkpt lat="39.055263696020056" lon="16.146442271840396"><ele>46.0</ele><time>2026-04-27T12:54:16.999Z</time></trkpt><trkpt lat="39.055140195801" lon="16.146348942947437"><ele>46.0</ele><time>2026-04-27T12:54:17.999Z</time></trkpt><trkpt lat="39.05502253546017" lon="16.146271686998052"><ele>46.0</ele><time>2026-04-27T12:54:19Z</time></trkpt><trkpt lat="39.0549075354268" lon="16.146192072480797"><ele>46.0</ele><time>2026-04-27T12:54:20Z</time></trkpt><trkpt lat="39.05479860741529" lon="16.146109464733243"><ele>46.0</ele><time>2026-04-27T12:54:21Z</time></trkpt><trkpt lat="39.054697069322" lon="16.14602672142304"><ele>46.0</ele><time>2026-04-27T12:54:22Z</time></trkpt><trkpt lat="39.05462400428696" lon="16.14595692595349"><ele>46.0</ele><time>2026-04-27T12:54:23Z</time></trkpt><trkpt lat="39.05450987808598" lon="16.145872206746287"><ele>46.0</ele><time>2026-04-27T12:54:25Z</time></trkpt><trkpt lat="39.054435085763956" lon="16.145803894496247"><ele>46.0</ele><time>2026-04-27T12:54:26Z</time></trkpt><trkpt lat="39.05436304549447" lon="16.145755138944338"><ele>47.599999999999994</ele><time>2026-04-27T12:54:27Z</time></trkpt><trkpt lat="39.05430238648197" lon="16.145703918145202"><ele>49.2</ele><time>2026-04-27T12:54:28Z</time></trkpt><trkpt lat="39.05418234218317" lon="16.145621380909997"><ele>50.800000000000004</ele><time>2026-04-27T12:54:30Z</time></trkpt><trkpt lat="39.05411036029" lon="16.145570938337585"><ele>52.400000000000006</ele><time>2026-04-27T12:54:31Z</time></trkpt><trkpt lat="39.05402393760958" lon="16.145509359186082"><ele>54.0</ele><time>2026-04-27T12:54:32Z</time></trkpt><trkpt lat="39.053954196155026" lon="16.145459186906574"><ele>54.0</ele><time>2026-04-27T12:54:33Z</time></trkpt><trkpt lat="39.05388719540929" lon="16.1454100631413"><ele>54.0</ele><time>2026-04-27T12:54:34Z</time></trkpt><trkpt lat="39.053816293661264" lon="16.14535490522887"><ele>54.0</ele><time>2026-04-27T12:54:35Z</time></trkpt><trkpt lat="39.05373420765606" lon="16.145280127560476"><ele>54.0</ele><time>2026-04-27T12:54:36Z</time></trkpt><trkpt lat="39.053671682944625" lon="16.145224967169092"><ele>54.0</ele><time>2026-04-27T12:54:37Z</time></trkpt><trkpt lat="39.05360240686698" lon="16.145178844875264"><ele>54.0</ele><time>2026-04-27T12:54:38Z</time></trkpt><trkpt lat="39.053542982129926" lon="16.145133062227575"><ele>54.0</ele><time>2026-04-27T12:54:39Z</time></trkpt><trkpt lat="39.05347852685497" lon="16.145108862496752"><ele>54.0</ele><time>2026-04-27T12:54:40Z</time></trkpt><trkpt lat="39.0534063334419" lon="16.145100388172924"><ele>54.0</ele><time>2026-04-27T12:54:41Z</time></trkpt><trkpt lat="39.053326884314245" lon="16.145094076297667"><ele>54.0</ele><time>2026-04-27T12:54:42Z</time></trkpt><trkpt lat="39.05324982072628" lon="16.145086658735575"><ele>54.0</ele><time>2026-04-27T12:54:43Z</time></trkpt><trkpt lat="39.05317983130821" lon="16.145044061477915"><ele>54.0</ele><time>2026-04-27T12:54:44Z</time></trkpt><trkpt lat="39.05309757972618" lon="16.14498540124615"><ele>55.800000000000004</ele><time>2026-04-27T12:54:45Z</time></trkpt><trkpt lat="39.053007030776996" lon="16.144907750958044"><ele>57.60000000000001</ele><time>2026-04-27T12:54:46Z</time></trkpt><trkpt lat="39.052933728421316" lon="16.144846103451776"><ele>59.4</ele><time>2026-04-27T12:54:47Z</time></trkpt><trkpt lat="39.05283855514685" lon="16.14479008924384"><ele>61.2</ele><time>2026-04-27T12:54:48Z</time></trkpt><trkpt lat="39.05274455482867" lon="16.144767076015658"><ele>63.0</ele><time>2026-04-27T12:54:49Z</time></trkpt><trkpt lat="39.052657131372726" lon="16.144737044550443"><ele>63.0</ele><time>2026-04-27T12:54:50Z</time></trkpt><trkpt lat="39.052559145862475" lon="16.14466252393751"><ele>63.0</ele><time>2026-04-27T12:54:52Z</time></trkpt><trkpt lat="39.052492585869" lon="16.144628653664988"><ele>63.0</ele><time>2026-04-27T12:54:53Z</time></trkpt><trkpt lat="39.05242715355257" lon="16.144578343583735"><ele>63.0</ele><time>2026-04-27T12:54:53.999Z</time></trkpt><trkpt lat="39.052353585876354" lon="16.144507666829263"><ele>63.0</ele><time>2026-04-27T12:54:54.999Z</time></trkpt><trkpt lat="39.05226366529925" lon="16.14443010200627"><ele>65.16666666666667</ele><time>2026-04-27T12:54:55.999Z</time></trkpt><trkpt lat="39.05217711446348" lon="16.144342815774362"><ele>67.33333333333333</ele><time>2026-04-27T12:54:56.999Z</time></trkpt><trkpt lat="39.05210680281965" lon="16.144271227001656"><ele>69.5</ele><time>2026-04-27T12:54:57.999Z</time></trkpt><trkpt lat="39.05204834882795" lon="16.144212514965414"><ele>71.66666666666666</ele><time>2026-04-27T12:54:58.999Z</time></trkpt><trkpt lat="39.05199581627911" lon="16.144148949019076"><ele>73.83333333333333</ele><time>2026-04-27T12:54:59.999Z</time></trkpt><trkpt lat="39.05194792873452" lon="16.144076281289962"><ele>76.0</ele><time>2026-04-27T12:55:00.999Z</time></trkpt><trkpt lat="39.051894835884646" lon="16.14396069167934"><ele>76.0</ele><time>2026-04-27T12:55:01.999Z</time></trkpt><trkpt lat="39.05183731674048" lon="16.14386646505836"><ele>76.0</ele><time>2026-04-27T12:55:02.999Z</time></trkpt><trkpt lat="39.05177102941773" lon="16.14381459143017"><ele>76.0</ele><time>2026-04-27T12:55:03.999Z</time></trkpt><trkpt lat="39.051687349373395" lon="16.14376785108032"><ele>76.0</ele><time>2026-04-27T12:55:04.999Z</time></trkpt><trkpt lat="39.05158887579023" lon="16.143728476040714"><ele>76.0</ele><time>2026-04-27T12:55:05.999Z</time></trkpt><trkpt lat="39.05151597723592" lon="16.143683469439605"><ele>76.0</ele><time>2026-04-27T12:55:06.999Z</time></trkpt><trkpt lat="39.05146317983065" lon="16.14362566488274"><ele>76.0</ele><time>2026-04-27T12:55:08.999Z</time></trkpt><trkpt lat="39.051634672301844" lon="16.143658661104347"><ele>76.0</ele><time>2026-04-27T12:57:18.999Z</time></trkpt><trkpt lat="39.051697965539596" lon="16.143676958391158"><ele>76.0</ele><time>2026-04-27T12:57:19.999Z</time></trkpt><trkpt lat="39.051802835562505" lon="16.143690740587534"><ele>76.0</ele><time>2026-04-27T12:57:20.999Z</time></trkpt><trkpt lat="39.05190255214558" lon="16.14371071254504"><ele>76.0</ele><time>2026-04-27T12:57:21.999Z</time></trkpt><trkpt lat="39.05199127816378" lon="16.143748133883296"><ele>76.0</ele><time>2026-04-27T12:57:22.999Z</time></trkpt><trkpt lat="39.05205174831256" lon="16.143786572438003"><ele>76.0</ele><time>2026-04-27T12:57:23.999Z</time></trkpt><trkpt lat="39.052065875393176" lon="16.14367893758503"><ele>76.0</ele><time>2026-04-27T12:57:27.999Z</time></trkpt><trkpt lat="39.052012464780056" lon="16.14363299888012"><ele>76.0</ele><time>2026-04-27T12:57:28.999Z</time></trkpt><trkpt lat="39.05193422980887" lon="16.143609533019504"><ele>76.0</ele><time>2026-04-27T12:57:29.999Z</time></trkpt><trkpt lat="39.051873040128825" lon="16.143580135870454"><ele>76.0</ele><time>2026-04-27T12:57:30.999Z</time></trkpt><trkpt lat="39.05179937417769" lon="16.14353714420103"><ele>76.0</ele><time>2026-04-27T12:57:31.999Z</time></trkpt><trkpt lat="39.05172326014858" lon="16.143499013399822"><ele>76.0</ele><time>2026-04-27T12:57:32.999Z</time></trkpt><trkpt lat="39.05165097815809" lon="16.143450899462227"><ele>76.0</ele><time>2026-04-27T12:57:33.999Z</time></trkpt><trkpt lat="39.05157116470048" lon="16.14339970846415"><ele>76.0</ele><time>2026-04-27T12:57:34.999Z</time></trkpt><trkpt lat="39.051507318473575" lon="16.143351430523683"><ele>76.0</ele><time>2026-04-27T12:57:35.999Z</time></trkpt><trkpt lat="39.051450827131966" lon="16.143305446745718"><ele>76.0</ele><time>2026-04-27T12:57:36.999Z</time></trkpt><trkpt lat="39.051387466838605" lon="16.143193068250614"><ele>76.0</ele><time>2026-04-27T12:57:38.999Z</time></trkpt><trkpt lat="39.051390773248315" lon="16.143045598137803"><ele>73.33333333333333</ele><time>2026-04-27T12:57:40.999Z</time></trkpt><trkpt lat="39.05140191038106" lon="16.142949852408137"><ele>70.66666666666666</ele><time>2026-04-27T12:57:41.999Z</time></trkpt><trkpt lat="39.05140090463138" lon="16.142855191443104"><ele>68.0</ele><time>2026-04-27T12:57:42.999Z</time></trkpt><trkpt lat="39.05139165178451" lon="16.142747744117788"><ele>65.33333333333333</ele><time>2026-04-27T12:57:43.999Z</time></trkpt><trkpt lat="39.051375040505086" lon="16.142626769768324"><ele>62.666666666666664</ele><time>2026-04-27T12:57:44.999Z</time></trkpt><trkpt lat="39.05135201816328" lon="16.14250437021895"><ele>60.0</ele><time>2026-04-27T12:57:45.999Z</time></trkpt><trkpt lat="39.05133321750119" lon="16.142402432231634"><ele>61.0</ele><time>2026-04-27T12:57:46.999Z</time></trkpt><trkpt lat="39.05131776136726" lon="16.14230085878193"><ele>62.0</ele><time>2026-04-27T12:57:47.999Z</time></trkpt><trkpt lat="39.05131506851277" lon="16.142214371080414"><ele>63.0</ele><time>2026-04-27T12:57:48.999Z</time></trkpt><trkpt lat="39.05132701393851" lon="16.14213392682548"><ele>64.0</ele><time>2026-04-27T12:57:49.999Z</time></trkpt><trkpt lat="39.05136668541467" lon="16.142031599383756"><ele>65.0</ele><time>2026-04-27T12:57:51.999Z</time></trkpt><trkpt lat="39.05144480805425" lon="16.14217657608542"><ele>66.0</ele><time>2026-04-27T12:57:57.999Z</time></trkpt><trkpt lat="39.051433628662636" lon="16.142280003240014"><ele>66.0</ele><time>2026-04-27T12:57:58.999Z</time></trkpt><trkpt lat="39.051439039617165" lon="16.142383034748306"><ele>66.0</ele><time>2026-04-27T12:57:59.999Z</time></trkpt><trkpt lat="39.05144884555" lon="16.142490015373177"><ele>66.0</ele><time>2026-04-27T12:58:01.999Z</time></trkpt><trkpt lat="39.05150793148254" lon="16.142436424284067"><ele>66.0</ele><time>2026-04-27T12:58:04.999Z</time></trkpt><trkpt lat="39.05152693942709" lon="16.14227620179245"><ele>66.0</ele><time>2026-04-27T12:58:06.999Z</time></trkpt><trkpt lat="39.051556012376686" lon="16.14216440569938"><ele>66.0</ele><time>2026-04-27T12:58:07.999Z</time></trkpt><trkpt lat="39.051577104031125" lon="16.142082581881123"><ele>66.0</ele><time>2026-04-27T12:58:08.999Z</time></trkpt><trkpt lat="39.0516083829468" lon="16.14199078710905"><ele>66.0</ele><time>2026-04-27T12:58:10.999Z</time></trkpt><trkpt lat="39.05167334571862" lon="16.14198630622642"><ele>66.0</ele><time>2026-04-27T12:58:14.999Z</time></trkpt><trkpt lat="39.05162608178127" lon="16.14211735865548"><ele>66.0</ele><time>2026-04-27T12:58:16.999Z</time></trkpt><trkpt lat="39.051620376864356" lon="16.142212409554723"><ele>66.0</ele><time>2026-04-27T12:58:17.999Z</time></trkpt><trkpt lat="39.051642013014764" lon="16.142351695330305"><ele>72.4</ele><time>2026-04-27T12:58:19.999Z</time></trkpt><trkpt lat="39.05168832591839" lon="16.1424930819644"><ele>78.8</ele><time>2026-04-27T12:58:21.999Z</time></trkpt><trkpt lat="39.051712949984434" lon="16.142629766953384"><ele>85.2</ele><time>2026-04-27T12:58:23.999Z</time></trkpt><trkpt lat="39.05173077746935" lon="16.142717115244338"><ele>91.60000000000001</ele><time>2026-04-27T12:58:24.999Z</time></trkpt><trkpt lat="39.05176322956938" lon="16.14280802155084"><ele>98.0</ele><time>2026-04-27T12:58:25.999Z</time></trkpt><trkpt lat="39.05186516343071" lon="16.142881648878276"><ele>97.99999999999999</ele><time>2026-04-27T12:58:27.999Z</time></trkpt><trkpt lat="39.05194372552701" lon="16.14287561197596"><ele>98.0</ele><time>2026-04-27T12:58:29.999Z</time></trkpt><trkpt lat="39.05194380425241" lon="16.142769723710163"><ele>98.0</ele><time>2026-04-27T12:58:32Z</time></trkpt><trkpt lat="39.05190595168814" lon="16.142697233705594"><ele>98.0</ele><time>2026-04-27T12:58:33Z</time></trkpt><trkpt lat="39.051871743437474" lon="16.142624826676407"><ele>97.99999999999999</ele><time>2026-04-27T12:58:34Z</time></trkpt><trkpt lat="39.051824950710724" lon="16.1425111334371"><ele>98.0</ele><time>2026-04-27T12:58:36Z</time></trkpt><trkpt lat="39.05181229986635" lon="16.14237302599595"><ele>98.49999999999999</ele><time>2026-04-27T12:58:38Z</time></trkpt><trkpt lat="39.051846619253276" lon="16.14229491518492"><ele>99.0</ele><time>2026-04-27T12:58:39Z</time></trkpt><trkpt lat="39.051882370079205" lon="16.142212535577624"><ele>99.5</ele><time>2026-04-27T12:58:40Z</time></trkpt><trkpt lat="39.051923534334705" lon="16.142141401192983"><ele>100.0</ele><time>2026-04-27T12:58:41Z</time></trkpt><trkpt lat="39.05201196737158" lon="16.14209781440106"><ele>100.49999999999999</ele><time>2026-04-27T12:58:43Z</time></trkpt><trkpt lat="39.05212509359474" lon="16.142180122871284"><ele>101.0</ele><time>2026-04-27T12:58:45Z</time></trkpt><trkpt lat="39.052207353887106" lon="16.142242137960842"><ele>101.0</ele><time>2026-04-27T12:58:46Z</time></trkpt><trkpt lat="39.052297988732775" lon="16.142307049714884"><ele>101.0</ele><time>2026-04-27T12:58:47Z</time></trkpt><trkpt lat="39.05234725993765" lon="16.142358141436357"><ele>101.0</ele><time>2026-04-27T12:58:48Z</time></trkpt><trkpt lat="39.05242817663057" lon="16.142307245063005"><ele>101.0</ele><time>2026-04-27T12:58:51Z</time></trkpt><trkpt lat="39.052383787026514" lon="16.14221490087917"><ele>101.0</ele><time>2026-04-27T12:58:54Z</time></trkpt><trkpt lat="39.05231382066401" lon="16.14209049114877"><ele>100.99999999999999</ele><time>2026-04-27T12:58:56Z</time></trkpt><trkpt lat="39.05235637615788" lon="16.14199669805657"><ele>101.0</ele><time>2026-04-27T12:58:59Z</time></trkpt><trkpt lat="39.05244723464216" lon="16.141970852527447"><ele>101.0</ele><time>2026-04-27T12:59:00.999Z</time></trkpt><trkpt lat="39.05249897742043" lon="16.14203268090129"><ele>101.0</ele><time>2026-04-27T12:59:01.999Z</time></trkpt><trkpt lat="39.052556763140984" lon="16.14213314418761"><ele>100.99999999999999</ele><time>2026-04-27T12:59:02.999Z</time></trkpt><trkpt lat="39.05262774330478" lon="16.14218319885982"><ele>101.0</ele><time>2026-04-27T12:59:04.999Z</time></trkpt><trkpt lat="39.052680667840335" lon="16.14210599228227"><ele>106.99999999999999</ele><time>2026-04-27T12:59:06.999Z</time></trkpt><trkpt lat="39.05267009941036" lon="16.141989742091145"><ele>113.0</ele><time>2026-04-27T12:59:08.999Z</time></trkpt><trkpt lat="39.05262605152901" lon="16.14192196128576"><ele>119.0</ele><time>2026-04-27T12:59:09.999Z</time></trkpt><trkpt lat="39.05261719458694" lon="16.14183477289336"><ele>125.0</ele><time>2026-04-27T12:59:10.999Z</time></trkpt><trkpt lat="39.052637703452504" lon="16.141738558685198"><ele>131.0</ele><time>2026-04-27T12:59:11.999Z</time></trkpt><trkpt lat="39.05267510205456" lon="16.141650987700313"><ele>137.0</ele><time>2026-04-27T12:59:12.999Z</time></trkpt><trkpt lat="39.05272478296373" lon="16.14153773966596"><ele>138.0</ele><time>2026-04-27T12:59:13.999Z</time></trkpt><trkpt lat="39.052795265568584" lon="16.14141592743169"><ele>139.0</ele><time>2026-04-27T12:59:14.999Z</time></trkpt><trkpt lat="39.05287167584089" lon="16.141300632228834"><ele>140.0</ele><time>2026-04-27T12:59:15.999Z</time></trkpt><trkpt lat="39.052956562668264" lon="16.141207595779086"><ele>141.0</ele><time>2026-04-27T12:59:16.999Z</time></trkpt><trkpt lat="39.053005810153735" lon="16.141109265894737"><ele>142.0</ele><time>2026-04-27T12:59:17.999Z</time></trkpt><trkpt lat="39.053015483620655" lon="16.14101631471274"><ele>142.0</ele><time>2026-04-27T12:59:18.999Z</time></trkpt><trkpt lat="39.05299416380122" lon="16.140938038228295"><ele>142.0</ele><time>2026-04-27T12:59:19.999Z</time></trkpt><trkpt lat="39.052925744649585" lon="16.140824800137334"><ele>142.0</ele><time>2026-04-27T12:59:21.999Z</time></trkpt><trkpt lat="39.052861221792526" lon="16.140731996060108"><ele>142.0</ele><time>2026-04-27T12:59:22.999Z</time></trkpt><trkpt lat="39.05278795126309" lon="16.14063725488159"><ele>142.0</ele><time>2026-04-27T12:59:23.999Z</time></trkpt><trkpt lat="39.052728888173085" lon="16.140507960506365"><ele>143.4</ele><time>2026-04-27T12:59:24.999Z</time></trkpt><trkpt lat="39.05266032813916" lon="16.140379051121016"><ele>144.79999999999998</ele><time>2026-04-27T12:59:25.999Z</time></trkpt><trkpt lat="39.0526062193463" lon="16.1402600880868"><ele>146.2</ele><time>2026-04-27T12:59:26.999Z</time></trkpt><trkpt lat="39.052552334548125" lon="16.140164362441425"><ele>147.6</ele><time>2026-04-27T12:59:27.999Z</time></trkpt><trkpt lat="39.05250017345589" lon="16.14002840155317"><ele>149.0</ele><time>2026-04-27T12:59:28.999Z</time></trkpt><trkpt lat="39.0524528786445" lon="16.13987976726344"><ele>149.0</ele><time>2026-04-27T12:59:29.999Z</time></trkpt><trkpt lat="39.05240194098035" lon="16.13973546992609"><ele>149.0</ele><time>2026-04-27T12:59:30.999Z</time></trkpt><trkpt lat="39.052359345770725" lon="16.13960717037859"><ele>149.0</ele><time>2026-04-27T12:59:31.999Z</time></trkpt><trkpt lat="39.05231821161697" lon="16.139477629099705"><ele>149.0</ele><time>2026-04-27T12:59:32.999Z</time></trkpt><trkpt lat="39.052294963360914" lon="16.139342155907915"><ele>149.0</ele><time>2026-04-27T12:59:33.999Z</time></trkpt><trkpt lat="39.052273234975" lon="16.139234482554258"><ele>149.0</ele><time>2026-04-27T12:59:34.999Z</time></trkpt><trkpt lat="39.05226074609429" lon="16.139146791648752"><ele>149.0</ele><time>2026-04-27T12:59:35.999Z</time></trkpt><trkpt lat="39.052279483759214" lon="16.13902075215168"><ele>149.0</ele><time>2026-04-27T12:59:37.999Z</time></trkpt><trkpt lat="39.05235481705653" lon="16.138979974373065"><ele>149.0</ele><time>2026-04-27T12:59:39.999Z</time></trkpt><trkpt lat="39.05243889256013" lon="16.139032065226207"><ele>149.0</ele><time>2026-04-27T12:59:42.999Z</time></trkpt><trkpt lat="39.052517967168214" lon="16.13906370850265"><ele>149.0</ele><time>2026-04-27T12:59:44.999Z</time></trkpt><trkpt lat="39.052601627521476" lon="16.139050703738526"><ele>153.0</ele><time>2026-04-27T12:59:46.999Z</time></trkpt><trkpt lat="39.05264520571589" lon="16.138936452211894"><ele>157.0</ele><time>2026-04-27T12:59:48.999Z</time></trkpt><trkpt lat="39.05262139503281" lon="16.13879247951392"><ele>161.0</ele><time>2026-04-27T12:59:50.999Z</time></trkpt><trkpt lat="39.052559853201636" lon="16.13872054340721"><ele>165.0</ele><time>2026-04-27T12:59:51.999Z</time></trkpt><trkpt lat="39.05249707365899" lon="16.138662760897937"><ele>169.0</ele><time>2026-04-27T12:59:52.999Z</time></trkpt><trkpt lat="39.052435335547834" lon="16.13862269206497"><ele>173.0</ele><time>2026-04-27T12:59:53.999Z</time></trkpt><trkpt lat="39.05237904795072" lon="16.13849735501336"><ele>173.0</ele><time>2026-04-27T12:59:55.999Z</time></trkpt><trkpt lat="39.05242213828883" lon="16.138329358780375"><ele>173.0</ele><time>2026-04-27T12:59:57.999Z</time></trkpt><trkpt lat="39.052461463739924" lon="16.13822779135998"><ele>173.0</ele><time>2026-04-27T12:59:58.999Z</time></trkpt><trkpt lat="39.05251955751685" lon="16.138140257600917"><ele>173.0</ele><time>2026-04-27T12:59:59.999Z</time></trkpt><trkpt lat="39.05257282365677" lon="16.138035942218778"><ele>173.0</ele><time>2026-04-27T13:00:00.999Z</time></trkpt><trkpt lat="39.052610691241846" lon="16.137948749533365"><ele>176.33333333333331</ele><time>2026-04-27T13:00:01.999Z</time></trkpt><trkpt lat="39.05264502361176" lon="16.137852063221388"><ele>179.66666666666666</ele><time>2026-04-27T13:00:02.999Z</time></trkpt><trkpt lat="39.05266801816184" lon="16.13776514996435"><ele>183.0</ele><time>2026-04-27T13:00:03.999Z</time></trkpt><trkpt lat="39.052687531942524" lon="16.13768433590256"><ele>186.33333333333331</ele><time>2026-04-27T13:00:04.999Z</time></trkpt><trkpt lat="39.052713663332874" lon="16.137576429339052"><ele>189.66666666666666</ele><time>2026-04-27T13:00:05.999Z</time></trkpt><trkpt lat="39.052751076231615" lon="16.137447450718977"><ele>193.0</ele><time>2026-04-27T13:00:06.999Z</time></trkpt><trkpt lat="39.05279881612621" lon="16.137317251480397"><ele>193.60000000000002</ele><time>2026-04-27T13:00:07.999Z</time></trkpt><trkpt lat="39.05285858414237" lon="16.13721143004048"><ele>194.20000000000002</ele><time>2026-04-27T13:00:08.999Z</time></trkpt><trkpt lat="39.05293087211447" lon="16.137127920747762"><ele>194.8</ele><time>2026-04-27T13:00:09.999Z</time></trkpt><trkpt lat="39.05301404943511" lon="16.137042534810462"><ele>195.4</ele><time>2026-04-27T13:00:10.999Z</time></trkpt><trkpt lat="39.053095547125075" lon="16.136948746576998"><ele>196.0</ele><time>2026-04-27T13:00:11.999Z</time></trkpt><trkpt lat="39.05315422234357" lon="16.136852933858176"><ele>196.0</ele><time>2026-04-27T13:00:12.999Z</time></trkpt><trkpt lat="39.053209596197185" lon="16.13675785509357"><ele>196.0</ele><time>2026-04-27T13:00:13.999Z</time></trkpt><trkpt lat="39.05326968318998" lon="16.13665570069982"><ele>196.0</ele><time>2026-04-27T13:00:14.999Z</time></trkpt><trkpt lat="39.053354506106814" lon="16.136544714482625"><ele>196.0</ele><time>2026-04-27T13:00:15.999Z</time></trkpt><trkpt lat="39.053421996227875" lon="16.136417772765906"><ele>196.0</ele><time>2026-04-27T13:00:16.999Z</time></trkpt><trkpt lat="39.053481824453144" lon="16.136315553643705"><ele>198.60000000000002</ele><time>2026-04-27T13:00:17.999Z</time></trkpt><trkpt lat="39.05353509023627" lon="16.136233145065177"><ele>201.2</ele><time>2026-04-27T13:00:18.999Z</time></trkpt><trkpt lat="39.05358214627054" lon="16.136165269627167"><ele>203.8</ele><time>2026-04-27T13:00:19.999Z</time></trkpt><trkpt lat="39.05363956160286" lon="16.136091003198576"><ele>206.39999999999998</ele><time>2026-04-27T13:00:21.999Z</time></trkpt><trkpt lat="39.053549174936784" lon="16.135911601105782"><ele>209.0</ele><time>2026-04-27T13:00:23.999Z</time></trkpt><trkpt lat="39.05350019327883" lon="16.135781959324188"><ele>208.39999999999998</ele><time>2026-04-27T13:00:24.999Z</time></trkpt><trkpt lat="39.05344616628371" lon="16.135647891047036"><ele>207.8</ele><time>2026-04-27T13:00:25.999Z</time></trkpt><trkpt lat="39.053372286145894" lon="16.1355480596315"><ele>207.2</ele><time>2026-04-27T13:00:26.999Z</time></trkpt><trkpt lat="39.05329002349414" lon="16.13547223829675"><ele>206.60000000000002</ele><time>2026-04-27T13:00:27.999Z</time></trkpt><trkpt lat="39.05318369418255" lon="16.13541225374449"><ele>206.0</ele><time>2026-04-27T13:00:28.999Z</time></trkpt><trkpt lat="39.05304963271689" lon="16.135348041768918"><ele>208.25</ele><time>2026-04-27T13:00:29.999Z</time></trkpt><trkpt lat="39.05290953547089" lon="16.135276692564936"><ele>210.5</ele><time>2026-04-27T13:00:30.999Z</time></trkpt><trkpt lat="39.0527758435077" lon="16.13522277198445"><ele>212.75</ele><time>2026-04-27T13:00:31.999Z</time></trkpt><trkpt lat="39.052644957796446" lon="16.135162071724206"><ele>215.0</ele><time>2026-04-27T13:00:32.999Z</time></trkpt><trkpt lat="39.052520709018445" lon="16.13510013082285"><ele>216.25</ele><time>2026-04-27T13:00:33.999Z</time></trkpt><trkpt lat="39.05240917940923" lon="16.135028527273768"><ele>217.5</ele><time>2026-04-27T13:00:34.999Z</time></trkpt><trkpt lat="39.05230288817355" lon="16.134963882036175"><ele>218.75</ele><time>2026-04-27T13:00:35.999Z</time></trkpt><trkpt lat="39.052197370124375" lon="16.134906795780324"><ele>220.0</ele><time>2026-04-27T13:00:37Z</time></trkpt><trkpt lat="39.052106745191665" lon="16.134840470808186"><ele>220.75</ele><time>2026-04-27T13:00:38Z</time></trkpt><trkpt lat="39.052031364145165" lon="16.13482517842922"><ele>221.5</ele><time>2026-04-27T13:00:39Z</time></trkpt><trkpt lat="39.05193853043132" lon="16.134694825882274"><ele>222.25</ele><time>2026-04-27T13:00:41Z</time></trkpt><trkpt lat="39.0518828244948" lon="16.134565358293187"><ele>223.0</ele><time>2026-04-27T13:00:42Z</time></trkpt><trkpt lat="39.05182372521051" lon="16.134423772715635"><ele>223.0</ele><time>2026-04-27T13:00:43Z</time></trkpt><trkpt lat="39.051766434764396" lon="16.134292227092406"><ele>223.0</ele><time>2026-04-27T13:00:44Z</time></trkpt><trkpt lat="39.05171523858698" lon="16.134179055837343"><ele>223.0</ele><time>2026-04-27T13:00:45Z</time></trkpt><trkpt lat="39.05166246177283" lon="16.134086013565767"><ele>223.0</ele><time>2026-04-27T13:00:46Z</time></trkpt><trkpt lat="39.05158970983471" lon="16.134001148126686"><ele>223.0</ele><time>2026-04-27T13:00:47Z</time></trkpt><trkpt lat="39.05150493785084" lon="16.133919292366034"><ele>223.8</ele><time>2026-04-27T13:00:48Z</time></trkpt><trkpt lat="39.05143069056537" lon="16.13383859088325"><ele>224.60000000000002</ele><time>2026-04-27T13:00:49Z</time></trkpt><trkpt lat="39.0513601815983" lon="16.13374722054113"><ele>225.39999999999998</ele><time>2026-04-27T13:00:50Z</time></trkpt><trkpt lat="39.05128764554386" lon="16.133640775683006"><ele>226.2</ele><time>2026-04-27T13:00:51Z</time></trkpt><trkpt lat="39.05125102389253" lon="16.133519120038564"><ele>227.0</ele><time>2026-04-27T13:00:52Z</time></trkpt><trkpt lat="39.051244250341185" lon="16.133373646102275"><ele>225.75</ele><time>2026-04-27T13:00:53Z</time></trkpt><trkpt lat="39.05125672590601" lon="16.133203067228646"><ele>224.5</ele><time>2026-04-27T13:00:54Z</time></trkpt><trkpt lat="39.051268252122" lon="16.133045798768904"><ele>223.25</ele><time>2026-04-27T13:00:55Z</time></trkpt><trkpt lat="39.051284336175044" lon="16.132897006362832"><ele>222.0</ele><time>2026-04-27T13:00:56Z</time></trkpt><trkpt lat="39.051300418894506" lon="16.132750784582583"><ele>222.0</ele><time>2026-04-27T13:00:57Z</time></trkpt><trkpt lat="39.05133898013915" lon="16.13259089278975"><ele>222.0</ele><time>2026-04-27T13:00:58Z</time></trkpt><trkpt lat="39.05138532705521" lon="16.132435714226396"><ele>222.0</ele><time>2026-04-27T13:00:59Z</time></trkpt><trkpt lat="39.05142129497213" lon="16.132310401373708"><ele>222.0</ele><time>2026-04-27T13:01:00Z</time></trkpt><trkpt lat="39.05143950007898" lon="16.13220415216948"><ele>222.0</ele><time>2026-04-27T13:01:01Z</time></trkpt><trkpt lat="39.051402700977945" lon="16.132129167752076"><ele>219.5</ele><time>2026-04-27T13:01:02Z</time></trkpt><trkpt lat="39.05130439272252" lon="16.132019693008576"><ele>217.0</ele><time>2026-04-27T13:01:04Z</time></trkpt><trkpt lat="39.05121651232032" lon="16.131943502755544"><ele>214.5</ele><time>2026-04-27T13:01:05Z</time></trkpt><trkpt lat="39.05110647261921" lon="16.13189833246414"><ele>212.0</ele><time>2026-04-27T13:01:05.999Z</time></trkpt><trkpt lat="39.05100553010355" lon="16.131868994086112"><ele>212.0</ele><time>2026-04-27T13:01:06.999Z</time></trkpt><trkpt lat="39.05090532398961" lon="16.13186153810454"><ele>212.0</ele><time>2026-04-27T13:01:07.999Z</time></trkpt><trkpt lat="39.05079949790427" lon="16.131843907262603"><ele>212.0</ele><time>2026-04-27T13:01:08.999Z</time></trkpt><trkpt lat="39.050682626828035" lon="16.1317598631706"><ele>212.0</ele><time>2026-04-27T13:01:09.999Z</time></trkpt><trkpt lat="39.05055958099533" lon="16.13172164618096"><ele>212.6</ele><time>2026-04-27T13:01:10.999Z</time></trkpt><trkpt lat="39.05047154700288" lon="16.13165659156358"><ele>213.2</ele><time>2026-04-27T13:01:11.999Z</time></trkpt><trkpt lat="39.0504013597904" lon="16.131554312865482"><ele>213.8</ele><time>2026-04-27T13:01:12.999Z</time></trkpt><trkpt lat="39.05030834349907" lon="16.131482488529944"><ele>214.4</ele><time>2026-04-27T13:01:13.999Z</time></trkpt><trkpt lat="39.05019426788421" lon="16.13146078597844"><ele>215.0</ele><time>2026-04-27T13:01:14.999Z</time></trkpt><trkpt lat="39.05009020494848" lon="16.131425712005434"><ele>210.75</ele><time>2026-04-27T13:01:15.999Z</time></trkpt><trkpt lat="39.049974937703674" lon="16.131361395311654"><ele>206.5</ele><time>2026-04-27T13:01:16.999Z</time></trkpt><trkpt lat="39.049876444004134" lon="16.131308370731134"><ele>202.25</ele><time>2026-04-27T13:01:17.999Z</time></trkpt><trkpt lat="39.04977394283008" lon="16.131267326814132"><ele>198.0</ele><time>2026-04-27T13:01:18.999Z</time></trkpt><trkpt lat="39.04966258524216" lon="16.131250606415513"><ele>197.4</ele><time>2026-04-27T13:01:19.999Z</time></trkpt><trkpt lat="39.04957321005141" lon="16.131231112852088"><ele>196.8</ele><time>2026-04-27T13:01:20.999Z</time></trkpt><trkpt lat="39.04949175594673" lon="16.131203188183946"><ele>196.2</ele><time>2026-04-27T13:01:22.999Z</time></trkpt><trkpt lat="39.04941720820187" lon="16.131128735747552"><ele>195.6</ele><time>2026-04-27T13:01:24.999Z</time></trkpt><trkpt lat="39.049361287594884" lon="16.131006622909453"><ele>195.0</ele><time>2026-04-27T13:01:26.999Z</time></trkpt><trkpt lat="39.04928170121717" lon="16.131071578719663"><ele>195.0</ele><time>2026-04-27T13:01:28.999Z</time></trkpt><trkpt lat="39.04922532583366" lon="16.131122526097734"><ele>195.0</ele><time>2026-04-27T13:01:30.999Z</time></trkpt><trkpt lat="39.04910643587514" lon="16.131136390831244"><ele>195.0</ele><time>2026-04-27T13:01:32.999Z</time></trkpt><trkpt lat="39.04898645841747" lon="16.13118719902512"><ele>195.0</ele><time>2026-04-27T13:01:34.999Z</time></trkpt><trkpt lat="39.0489039061861" lon="16.131231405491256"><ele>195.0</ele><time>2026-04-27T13:01:35.999Z</time></trkpt><trkpt lat="39.04882937022737" lon="16.13127026845728"><ele>194.14285714285714</ele><time>2026-04-27T13:01:36.999Z</time></trkpt><trkpt lat="39.04874236094171" lon="16.131301072937458"><ele>193.28571428571428</ele><time>2026-04-27T13:01:37.999Z</time></trkpt><trkpt lat="39.04867081049979" lon="16.131318241418718"><ele>192.42857142857144</ele><time>2026-04-27T13:01:38.999Z</time></trkpt><trkpt lat="39.04859508481524" lon="16.13132034510573"><ele>191.57142857142856</ele><time>2026-04-27T13:01:39.999Z</time></trkpt><trkpt lat="39.048519732111956" lon="16.13131992126265"><ele>190.71428571428572</ele><time>2026-04-27T13:01:40.999Z</time></trkpt><trkpt lat="39.04845384919775" lon="16.131319550683752"><ele>189.85714285714286</ele><time>2026-04-27T13:01:41.999Z</time></trkpt><trkpt lat="39.048384600645015" lon="16.131319161170993"><ele>189.0</ele><time>2026-04-27T13:01:42.999Z</time></trkpt><trkpt lat="39.048309828729266" lon="16.13131064586433"><ele>188.16666666666666</ele><time>2026-04-27T13:01:43.999Z</time></trkpt><trkpt lat="39.048242422071986" lon="16.131289783839765"><ele>187.33333333333334</ele><time>2026-04-27T13:01:44.999Z</time></trkpt><trkpt lat="39.04817555183089" lon="16.13124287218999"><ele>186.5</ele><time>2026-04-27T13:01:45.999Z</time></trkpt><trkpt lat="39.04811637186242" lon="16.131195120807867"><ele>185.66666666666669</ele><time>2026-04-27T13:01:46.999Z</time></trkpt><trkpt lat="39.04803168041387" lon="16.131152474907072"><ele>184.83333333333334</ele><time>2026-04-27T13:01:47.999Z</time></trkpt><trkpt lat="39.04797878384709" lon="16.13104006677816"><ele>184.0</ele><time>2026-04-27T13:01:48.999Z</time></trkpt><trkpt lat="39.04789060674412" lon="16.130935623096843"><ele>184.0</ele><time>2026-04-27T13:01:49.999Z</time></trkpt><trkpt lat="39.04782188855236" lon="16.130814147556315"><ele>184.0</ele><time>2026-04-27T13:01:50.999Z</time></trkpt><trkpt lat="39.04775606381624" lon="16.130734990763063"><ele>184.0</ele><time>2026-04-27T13:01:51.999Z</time></trkpt><trkpt lat="39.04770873608317" lon="16.13064908782298"><ele>184.0</ele><time>2026-04-27T13:01:52.999Z</time></trkpt><trkpt lat="39.04767700081932" lon="16.130577482044618"><ele>184.0</ele><time>2026-04-27T13:01:53.999Z</time></trkpt><trkpt lat="39.04763866354503" lon="16.130486244215007"><ele>184.0</ele><time>2026-04-27T13:01:54.999Z</time></trkpt><trkpt lat="39.04759676470011" lon="16.13039079734133"><ele>184.33333333333334</ele><time>2026-04-27T13:01:55.999Z</time></trkpt><trkpt lat="39.04755348069618" lon="16.130299309797564"><ele>184.66666666666669</ele><time>2026-04-27T13:01:56.999Z</time></trkpt><trkpt lat="39.04751428689314" lon="16.130216998360773"><ele>185.0</ele><time>2026-04-27T13:01:57.999Z</time></trkpt><trkpt lat="39.047475012997566" lon="16.130142212651524"><ele>185.33333333333334</ele><time>2026-04-27T13:01:58.999Z</time></trkpt><trkpt lat="39.04742240103269" lon="16.130066556378377"><ele>185.66666666666666</ele><time>2026-04-27T13:02:00.999Z</time></trkpt><trkpt lat="39.04749816249784" lon="16.129963634339134"><ele>186.0</ele><time>2026-04-27T13:02:02.999Z</time></trkpt><trkpt lat="39.04755382426157" lon="16.129912367714226"><ele>186.0</ele><time>2026-04-27T13:02:03.999Z</time></trkpt><trkpt lat="39.047614135888516" lon="16.12985802028792"><ele>186.0</ele><time>2026-04-27T13:02:04.999Z</time></trkpt><trkpt lat="39.04767047683902" lon="16.129774043703673"><ele>186.0</ele><time>2026-04-27T13:02:05.999Z</time></trkpt><trkpt lat="39.04774267318965" lon="16.129705045954328"><ele>186.0</ele><time>2026-04-27T13:02:06.999Z</time></trkpt><trkpt lat="39.047820296052656" lon="16.12966643013684"><ele>186.0</ele><time>2026-04-27T13:02:07.999Z</time></trkpt><trkpt lat="39.04789255608687" lon="16.129613903838703"><ele>186.0</ele><time>2026-04-27T13:02:08.999Z</time></trkpt><trkpt lat="39.047986171885796" lon="16.12962357979974"><ele>186.0</ele><time>2026-04-27T13:02:09.999Z</time></trkpt><trkpt lat="39.04809216560949" lon="16.129587154811297"><ele>186.0</ele><time>2026-04-27T13:02:10.999Z</time></trkpt><trkpt lat="39.04818747290732" lon="16.129572593440813"><ele>186.0</ele><time>2026-04-27T13:02:11.999Z</time></trkpt><trkpt lat="39.04827875401484" lon="16.129547997337372"><ele>186.0</ele><time>2026-04-27T13:02:12.999Z</time></trkpt><trkpt lat="39.04836877283392" lon="16.129532871142157"><ele>186.0</ele><time>2026-04-27T13:02:13.999Z</time></trkpt><trkpt lat="39.0484580805002" lon="16.1295233223669"><ele>183.33333333333334</ele><time>2026-04-27T13:02:14.999Z</time></trkpt><trkpt lat="39.04853733139754" lon="16.12950310269895"><ele>180.66666666666666</ele><time>2026-04-27T13:02:15.999Z</time></trkpt><trkpt lat="39.0485867562299" lon="16.129427130801393"><ele>178.0</ele><time>2026-04-27T13:02:16.999Z</time></trkpt><trkpt lat="39.04865867811299" lon="16.129357343488092"><ele>175.33333333333331</ele><time>2026-04-27T13:02:17.999Z</time></trkpt><trkpt lat="39.04874405029917" lon="16.12930052847303"><ele>172.66666666666666</ele><time>2026-04-27T13:02:18.999Z</time></trkpt><trkpt lat="39.04881725720649" lon="16.129249809499296"><ele>170.0</ele><time>2026-04-27T13:02:19.999Z</time></trkpt><trkpt lat="39.048893584074115" lon="16.129267708198324"><ele>170.0</ele><time>2026-04-27T13:02:20.999Z</time></trkpt><trkpt lat="39.04898989393206" lon="16.129292890720645"><ele>170.0</ele><time>2026-04-27T13:02:21.999Z</time></trkpt><trkpt lat="39.04909865932617" lon="16.12930721894859"><ele>170.0</ele><time>2026-04-27T13:02:22.999Z</time></trkpt><trkpt lat="39.049183451322044" lon="16.129295585347663"><ele>170.0</ele><time>2026-04-27T13:02:23.999Z</time></trkpt><trkpt lat="39.04927437386201" lon="16.129284316480042"><ele>170.0</ele><time>2026-04-27T13:02:24.999Z</time></trkpt><trkpt lat="39.0493882946993" lon="16.12925187591619"><ele>169.0</ele><time>2026-04-27T13:02:25.999Z</time></trkpt><trkpt lat="39.049496726802374" lon="16.129274899283647"><ele>168.0</ele><time>2026-04-27T13:02:26.999Z</time></trkpt><trkpt lat="39.04961207537597" lon="16.129301967983043"><ele>167.0</ele><time>2026-04-27T13:02:27.999Z</time></trkpt><trkpt lat="39.04973827684176" lon="16.12934172372617"><ele>166.0</ele><time>2026-04-27T13:02:28.999Z</time></trkpt><trkpt lat="39.049849721654816" lon="16.12935435585866"><ele>166.0</ele><time>2026-04-27T13:02:29.999Z</time></trkpt><trkpt lat="39.04992933144857" lon="16.12937783540557"><ele>166.0</ele><time>2026-04-27T13:02:30.999Z</time></trkpt><trkpt lat="39.05000809670486" lon="16.129337907790227"><ele>166.0</ele><time>2026-04-27T13:02:31.999Z</time></trkpt><trkpt lat="39.05010248071633" lon="16.129324665136263"><ele>166.0</ele><time>2026-04-27T13:02:32.999Z</time></trkpt><trkpt lat="39.05020002785929" lon="16.129314109049325"><ele>166.0</ele><time>2026-04-27T13:02:33.999Z</time></trkpt><trkpt lat="39.050315951756524" lon="16.129314461615827"><ele>166.75</ele><time>2026-04-27T13:02:34.999Z</time></trkpt><trkpt lat="39.05043849232591" lon="16.12926371779091"><ele>167.5</ele><time>2026-04-27T13:02:35.999Z</time></trkpt><trkpt lat="39.05056516362875" lon="16.12923646872697"><ele>168.25</ele><time>2026-04-27T13:02:36.999Z</time></trkpt><trkpt lat="39.05068072919699" lon="16.129183458375554"><ele>169.0</ele><time>2026-04-27T13:02:37.999Z</time></trkpt><trkpt lat="39.05078258826097" lon="16.129095670144306"><ele>168.25</ele><time>2026-04-27T13:02:38.999Z</time></trkpt><trkpt lat="39.05088448116951" lon="16.128990241488303"><ele>167.5</ele><time>2026-04-27T13:02:39.999Z</time></trkpt><trkpt lat="39.05101005391994" lon="16.128864782886932"><ele>166.75</ele><time>2026-04-27T13:02:40.999Z</time></trkpt><trkpt lat="39.051115910938975" lon="16.128761380011387"><ele>166.0</ele><time>2026-04-27T13:02:41.999Z</time></trkpt><trkpt lat="39.05122604324458" lon="16.128653854965652"><ele>166.0</ele><time>2026-04-27T13:02:43Z</time></trkpt><trkpt lat="39.051353195994835" lon="16.128534949051602"><ele>166.0</ele><time>2026-04-27T13:02:44Z</time></trkpt><trkpt lat="39.05146969424898" lon="16.128420587279123"><ele>166.0</ele><time>2026-04-27T13:02:45Z</time></trkpt><trkpt lat="39.051561214100175" lon="16.128302567441736"><ele>166.0</ele><time>2026-04-27T13:02:46Z</time></trkpt><trkpt lat="39.05164877071525" lon="16.12816938840646"><ele>167.66666666666669</ele><time>2026-04-27T13:02:47Z</time></trkpt><trkpt lat="39.05173756988986" lon="16.128021314156157"><ele>169.33333333333334</ele><time>2026-04-27T13:02:48Z</time></trkpt><trkpt lat="39.051833009565115" lon="16.12785525183601"><ele>171.0</ele><time>2026-04-27T13:02:49Z</time></trkpt><trkpt lat="39.05192248490881" lon="16.12769882230389"><ele>171.0</ele><time>2026-04-27T13:02:50Z</time></trkpt><trkpt lat="39.052004735478654" lon="16.127564395496332"><ele>171.0</ele><time>2026-04-27T13:02:51Z</time></trkpt><trkpt lat="39.05207355487313" lon="16.12744163348444"><ele>171.0</ele><time>2026-04-27T13:02:52Z</time></trkpt><trkpt lat="39.0521399961514" lon="16.12731751488863"><ele>171.0</ele><time>2026-04-27T13:02:53Z</time></trkpt><trkpt lat="39.05219985114292" lon="16.12719845185967"><ele>169.8</ele><time>2026-04-27T13:02:54Z</time></trkpt><trkpt lat="39.05226550900971" lon="16.127085639469442"><ele>168.60000000000002</ele><time>2026-04-27T13:02:55Z</time></trkpt><trkpt lat="39.05234245046302" lon="16.12698547400139"><ele>167.4</ele><time>2026-04-27T13:02:56Z</time></trkpt><trkpt lat="39.05242613113055" lon="16.12690876541102"><ele>166.2</ele><time>2026-04-27T13:02:57Z</time></trkpt><trkpt lat="39.05253535320886" lon="16.126861658098765"><ele>165.0</ele><time>2026-04-27T13:02:58Z</time></trkpt><trkpt lat="39.05264328338559" lon="16.126763990257427"><ele>165.0</ele><time>2026-04-27T13:02:59Z</time></trkpt><trkpt lat="39.052752825136324" lon="16.126673167284313"><ele>165.0</ele><time>2026-04-27T13:03:00Z</time></trkpt><trkpt lat="39.05284701727219" lon="16.12660992657467"><ele>165.0</ele><time>2026-04-27T13:03:01Z</time></trkpt><trkpt lat="39.052939747199765" lon="16.12656370862633"><ele>165.0</ele><time>2026-04-27T13:03:02Z</time></trkpt><trkpt lat="39.05299783727318" lon="16.126473829890347"><ele>165.0</ele><time>2026-04-27T13:03:03Z</time></trkpt><trkpt lat="39.05306201081986" lon="16.12637544492998"><ele>163.66666666666666</ele><time>2026-04-27T13:03:04Z</time></trkpt><trkpt lat="39.053123258556056" lon="16.12628228176869"><ele>162.33333333333334</ele><time>2026-04-27T13:03:05Z</time></trkpt><trkpt lat="39.0531773424264" lon="16.126192628733385"><ele>161.0</ele><time>2026-04-27T13:03:06Z</time></trkpt><trkpt lat="39.0532187781589" lon="16.126102710493488"><ele>159.66666666666669</ele><time>2026-04-27T13:03:07Z</time></trkpt><trkpt lat="39.05325116156245" lon="16.126022704724257"><ele>158.33333333333334</ele><time>2026-04-27T13:03:08Z</time></trkpt><trkpt lat="39.0532106985583" lon="16.125898996748386"><ele>157.0</ele><time>2026-04-27T13:03:10Z</time></trkpt><trkpt lat="39.05317297575556" lon="16.125790999208327"><ele>155.0</ele><time>2026-04-27T13:03:10.999Z</time></trkpt><trkpt lat="39.05311293762772" lon="16.12563390637778"><ele>153.0</ele><time>2026-04-27T13:03:11.999Z</time></trkpt><trkpt lat="39.053052050483096" lon="16.125472500886836"><ele>151.0</ele><time>2026-04-27T13:03:12.999Z</time></trkpt><trkpt lat="39.053004607903134" lon="16.125321320868952"><ele>149.0</ele><time>2026-04-27T13:03:13.999Z</time></trkpt><trkpt lat="39.052976876394645" lon="16.125172947497987"><ele>149.0</ele><time>2026-04-27T13:03:14.999Z</time></trkpt><trkpt lat="39.05293668086407" lon="16.125037669777598"><ele>149.0</ele><time>2026-04-27T13:03:15.999Z</time></trkpt><trkpt lat="39.0528927509859" lon="16.124912430451502"><ele>149.0</ele><time>2026-04-27T13:03:16.999Z</time></trkpt><trkpt lat="39.052846446980354" lon="16.124780654030246"><ele>149.0</ele><time>2026-04-27T13:03:17.999Z</time></trkpt><trkpt lat="39.052794690704964" lon="16.1246784864356"><ele>149.0</ele><time>2026-04-27T13:03:18.999Z</time></trkpt><trkpt lat="39.05275145885073" lon="16.124597381569"><ele>148.33333333333331</ele><time>2026-04-27T13:03:19.999Z</time></trkpt><trkpt lat="39.052721290036054" lon="16.12451061372616"><ele>147.66666666666666</ele><time>2026-04-27T13:03:21.999Z</time></trkpt><trkpt lat="39.052752089174874" lon="16.124423966849612"><ele>147.0</ele><time>2026-04-27T13:03:24.999Z</time></trkpt><trkpt lat="39.0528076208113" lon="16.1243496567937"><ele>146.33333333333334</ele><time>2026-04-27T13:03:27.999Z</time></trkpt><trkpt lat="39.05281013028605" lon="16.12426743925636"><ele>145.66666666666669</ele><time>2026-04-27T13:03:29.999Z</time></trkpt><trkpt lat="39.052769943982035" lon="16.124126774550604"><ele>145.0</ele><time>2026-04-27T13:03:30.999Z</time></trkpt><trkpt lat="39.05270320804378" lon="16.124011907814236"><ele>145.0</ele><time>2026-04-27T13:03:31.999Z</time></trkpt><trkpt lat="39.05266252532053" lon="16.123886620872906"><ele>145.0</ele><time>2026-04-27T13:03:32.999Z</time></trkpt><trkpt lat="39.05263364471811" lon="16.12377222297235"><ele>145.0</ele><time>2026-04-27T13:03:33.999Z</time></trkpt><trkpt lat="39.052595298183455" lon="16.123659795247555"><ele>145.0</ele><time>2026-04-27T13:03:34.999Z</time></trkpt><trkpt lat="39.052551387460326" lon="16.12355326358762"><ele>145.0</ele><time>2026-04-27T13:03:35.999Z</time></trkpt><trkpt lat="39.052496425426575" lon="16.123456178536543"><ele>142.6</ele><time>2026-04-27T13:03:36.999Z</time></trkpt><trkpt lat="39.05242681494934" lon="16.123372711164144"><ele>140.2</ele><time>2026-04-27T13:03:37.999Z</time></trkpt><trkpt lat="39.05235097202769" lon="16.123305268446963"><ele>137.8</ele><time>2026-04-27T13:03:38.999Z</time></trkpt><trkpt lat="39.0522782165503" lon="16.123232988651605"><ele>135.4</ele><time>2026-04-27T13:03:39.999Z</time></trkpt><trkpt lat="39.052197134137344" lon="16.12317075357191"><ele>133.0</ele><time>2026-04-27T13:03:40.999Z</time></trkpt><trkpt lat="39.052109900304465" lon="16.123096680822474"><ele>133.0</ele><time>2026-04-27T13:03:41.999Z</time></trkpt><trkpt lat="39.05202059158311" lon="16.123028167571785"><ele>133.0</ele><time>2026-04-27T13:03:42.999Z</time></trkpt><trkpt lat="39.05191540985934" lon="16.122983305513053"><ele>133.0</ele><time>2026-04-27T13:03:43.999Z</time></trkpt><trkpt lat="39.05180582960102" lon="16.122933481730772"><ele>133.0</ele><time>2026-04-27T13:03:44.999Z</time></trkpt><trkpt lat="39.05169312348485" lon="16.12289968956275"><ele>133.0</ele><time>2026-04-27T13:03:45.999Z</time></trkpt><trkpt lat="39.05156662067912" lon="16.12288007965364"><ele>129.75</ele><time>2026-04-27T13:03:46.999Z</time></trkpt><trkpt lat="39.05143079512321" lon="16.12287591946905"><ele>126.5</ele><time>2026-04-27T13:03:47.999Z</time></trkpt><trkpt lat="39.05130034245381" lon="16.122886899620223"><ele>123.25</ele><time>2026-04-27T13:03:48.999Z</time></trkpt><trkpt lat="39.051176953498135" lon="16.12289719200651"><ele>120.0</ele><time>2026-04-27T13:03:49.999Z</time></trkpt><trkpt lat="39.05106094790199" lon="16.122873452950657"><ele>120.0</ele><time>2026-04-27T13:03:50.999Z</time></trkpt><trkpt lat="39.05093467496133" lon="16.122877658336815"><ele>120.0</ele><time>2026-04-27T13:03:51.999Z</time></trkpt><trkpt lat="39.05080866482304" lon="16.122889509723407"><ele>120.0</ele><time>2026-04-27T13:03:52.999Z</time></trkpt><trkpt lat="39.050684190610774" lon="16.122901822395622"><ele>120.0</ele><time>2026-04-27T13:03:53.999Z</time></trkpt><trkpt lat="39.0505635572288" lon="16.122917482868694"><ele>117.25</ele><time>2026-04-27T13:03:54.999Z</time></trkpt><trkpt lat="39.05043956521321" lon="16.122944369099933"><ele>114.5</ele><time>2026-04-27T13:03:55.999Z</time></trkpt><trkpt lat="39.05033763725382" lon="16.12298282437554"><ele>111.75</ele><time>2026-04-27T13:03:56.999Z</time></trkpt><trkpt lat="39.050226733503166" lon="16.123054264485212"><ele>109.0</ele><time>2026-04-27T13:03:57.999Z</time></trkpt><trkpt lat="39.05012536804352" lon="16.123161275839113"><ele>106.0</ele><time>2026-04-27T13:03:58.999Z</time></trkpt><trkpt lat="39.05004000006957" lon="16.12331095499538"><ele>103.0</ele><time>2026-04-27T13:03:59.999Z</time></trkpt><trkpt lat="39.04996306738795" lon="16.12348611608837"><ele>100.0</ele><time>2026-04-27T13:04:00.999Z</time></trkpt><trkpt lat="39.04988757405603" lon="16.123678977806296"><ele>100.0</ele><time>2026-04-27T13:04:01.999Z</time></trkpt><trkpt lat="39.049792526737264" lon="16.123844116978294"><ele>100.0</ele><time>2026-04-27T13:04:02.999Z</time></trkpt><trkpt lat="39.049704712486886" lon="16.124035401507573"><ele>100.0</ele><time>2026-04-27T13:04:03.999Z</time></trkpt><trkpt lat="39.049621285254446" lon="16.12420735464714"><ele>101.75</ele><time>2026-04-27T13:04:04.999Z</time></trkpt><trkpt lat="39.049531561485196" lon="16.124366233920547"><ele>103.5</ele><time>2026-04-27T13:04:05.999Z</time></trkpt><trkpt lat="39.04942849925238" lon="16.124484499580895"><ele>105.25</ele><time>2026-04-27T13:04:06.999Z</time></trkpt><trkpt lat="39.04931478413827" lon="16.124569018192556"><ele>107.0</ele><time>2026-04-27T13:04:07.999Z</time></trkpt><trkpt lat="39.04919450980992" lon="16.12460577912523"><ele>106.5</ele><time>2026-04-27T13:04:08.999Z</time></trkpt><trkpt lat="39.04907215568072" lon="16.124610128432227"><ele>106.0</ele><time>2026-04-27T13:04:09.999Z</time></trkpt><trkpt lat="39.04893854202984" lon="16.124575773177813"><ele>105.5</ele><time>2026-04-27T13:04:10.999Z</time></trkpt><trkpt lat="39.04880238982381" lon="16.124477077463798"><ele>105.0</ele><time>2026-04-27T13:04:11.999Z</time></trkpt><trkpt lat="39.04867680117917" lon="16.12434421475648"><ele>105.0</ele><time>2026-04-27T13:04:12.999Z</time></trkpt><trkpt lat="39.048563691708225" lon="16.12419689691329"><ele>105.0</ele><time>2026-04-27T13:04:13.999Z</time></trkpt><trkpt lat="39.04844909111121" lon="16.124071781048162"><ele>105.0</ele><time>2026-04-27T13:04:14.999Z</time></trkpt><trkpt lat="39.048325752347395" lon="16.123969715676466"><ele>102.66666666666666</ele><time>2026-04-27T13:04:15.999Z</time></trkpt><trkpt lat="39.048192912572084" lon="16.123882172220867"><ele>100.33333333333333</ele><time>2026-04-27T13:04:16.999Z</time></trkpt><trkpt lat="39.048054160807865" lon="16.123787966636982"><ele>98.0</ele><time>2026-04-27T13:04:17.999Z</time></trkpt><trkpt lat="39.04792744828462" lon="16.123688209227456"><ele>98.0</ele><time>2026-04-27T13:04:18.999Z</time></trkpt><trkpt lat="39.04781547337063" lon="16.12357761084015"><ele>98.0</ele><time>2026-04-27T13:04:19.999Z</time></trkpt><trkpt lat="39.04772743483519" lon="16.12344381130522"><ele>98.0</ele><time>2026-04-27T13:04:20.999Z</time></trkpt><trkpt lat="39.04766756433817" lon="16.123298629204353"><ele>98.0</ele><time>2026-04-27T13:04:21.999Z</time></trkpt><trkpt lat="39.04762364699397" lon="16.123147874685333"><ele>95.0</ele><time>2026-04-27T13:04:22.999Z</time></trkpt><trkpt lat="39.047620595993095" lon="16.122986738523164"><ele>92.0</ele><time>2026-04-27T13:04:23.999Z</time></trkpt><trkpt lat="39.04764758257122" lon="16.122830100037223"><ele>89.0</ele><time>2026-04-27T13:04:24.999Z</time></trkpt><trkpt lat="39.04774233278198" lon="16.122691146174578"><ele>86.0</ele><time>2026-04-27T13:04:25.999Z</time></trkpt><trkpt lat="39.04785165388579" lon="16.122530983042065"><ele>82.33333333333334</ele><time>2026-04-27T13:04:26.999Z</time></trkpt><trkpt lat="39.04797981650867" lon="16.122374197160735"><ele>78.66666666666667</ele><time>2026-04-27T13:04:27.999Z</time></trkpt><trkpt lat="39.04810284501582" lon="16.122238259460495"><ele>75.0</ele><time>2026-04-27T13:04:28.999Z</time></trkpt><trkpt lat="39.04821567882885" lon="16.122111405449832"><ele>75.5</ele><time>2026-04-27T13:04:29.999Z</time></trkpt><trkpt lat="39.04831711220355" lon="16.121989047630265"><ele>76.0</ele><time>2026-04-27T13:04:30.999Z</time></trkpt><trkpt lat="39.04839882911568" lon="16.12185559175891"><ele>76.5</ele><time>2026-04-27T13:04:31.999Z</time></trkpt><trkpt lat="39.048440117983326" lon="16.12169194409394"><ele>77.0</ele><time>2026-04-27T13:04:32.999Z</time></trkpt><trkpt lat="39.04847665922999" lon="16.12152730788739"><ele>75.25</ele><time>2026-04-27T13:04:33.999Z</time></trkpt><trkpt lat="39.048507182517746" lon="16.121359602518385"><ele>73.5</ele><time>2026-04-27T13:04:34.999Z</time></trkpt><trkpt lat="39.04853104556739" lon="16.12119311492743"><ele>71.75</ele><time>2026-04-27T13:04:35.999Z</time></trkpt><trkpt lat="39.04854818976292" lon="16.121026741697857"><ele>70.0</ele><time>2026-04-27T13:04:36.999Z</time></trkpt><trkpt lat="39.048556509170986" lon="16.120854655998677"><ele>69.25</ele><time>2026-04-27T13:04:37.999Z</time></trkpt><trkpt lat="39.04854266061763" lon="16.120681661053492"><ele>68.5</ele><time>2026-04-27T13:04:38.999Z</time></trkpt><trkpt lat="39.04850932641858" lon="16.12051760114448"><ele>67.75</ele><time>2026-04-27T13:04:39.999Z</time></trkpt><trkpt lat="39.04844536767549" lon="16.120364316081588"><ele>67.0</ele><time>2026-04-27T13:04:40.999Z</time></trkpt><trkpt lat="39.04834596886869" lon="16.120228830463923"><ele>63.0</ele><time>2026-04-27T13:04:41.999Z</time></trkpt><trkpt lat="39.048235952016135" lon="16.120094196418073"><ele>59.0</ele><time>2026-04-27T13:04:42.999Z</time></trkpt><trkpt lat="39.04813095624874" lon="16.119953771285548"><ele>55.0</ele><time>2026-04-27T13:04:43.999Z</time></trkpt><trkpt lat="39.04803832701337" lon="16.119788527036068"><ele>54.666666666666664</ele><time>2026-04-27T13:04:44.999Z</time></trkpt><trkpt lat="39.04796221488784" lon="16.11959526037639"><ele>54.33333333333333</ele><time>2026-04-27T13:04:45.999Z</time></trkpt><trkpt lat="39.04789053500446" lon="16.119396905289058"><ele>54.0</ele><time>2026-04-27T13:04:46.999Z</time></trkpt><trkpt lat="39.04782614522084" lon="16.119209783184555"><ele>53.66666666666667</ele><time>2026-04-27T13:04:47.999Z</time></trkpt><trkpt lat="39.04776489171191" lon="16.119027921392753"><ele>53.333333333333336</ele><time>2026-04-27T13:04:49Z</time></trkpt><trkpt lat="39.04770164831647" lon="16.118831107920478"><ele>53.0</ele><time>2026-04-27T13:04:50Z</time></trkpt><trkpt lat="39.04763980466634" lon="16.118627677782424"><ele>53.0</ele><time>2026-04-27T13:04:51Z</time></trkpt><trkpt lat="39.04759384245056" lon="16.118415100871385"><ele>53.0</ele><time>2026-04-27T13:04:52Z</time></trkpt><trkpt lat="39.0475849341923" lon="16.11818252053301"><ele>53.0</ele><time>2026-04-27T13:04:53Z</time></trkpt><trkpt lat="39.04756462690228" lon="16.117970916268305"><ele>52.0</ele><time>2026-04-27T13:04:54Z</time></trkpt><trkpt lat="39.04754651867839" lon="16.11776812421234"><ele>51.0</ele><time>2026-04-27T13:04:55Z</time></trkpt><trkpt lat="39.04751235338746" lon="16.117580398394033"><ele>50.0</ele><time>2026-04-27T13:04:56Z</time></trkpt><trkpt lat="39.04749523960888" lon="16.117394984348582"><ele>48.25</ele><time>2026-04-27T13:04:57Z</time></trkpt><trkpt lat="39.047484122481485" lon="16.117213178234582"><ele>46.5</ele><time>2026-04-27T13:04:58Z</time></trkpt><trkpt lat="39.047503658201045" lon="16.1170409326814"><ele>44.75</ele><time>2026-04-27T13:04:59Z</time></trkpt><trkpt lat="39.04754372224201" lon="16.116880101641257"><ele>43.0</ele><time>2026-04-27T13:05:00Z</time></trkpt><trkpt lat="39.04762101348495" lon="16.11671783774105"><ele>41.333333333333336</ele><time>2026-04-27T13:05:01Z</time></trkpt><trkpt lat="39.04771724613994" lon="16.11655377848517"><ele>39.666666666666664</ele><time>2026-04-27T13:05:02Z</time></trkpt><trkpt lat="39.04783355726878" lon="16.116416930842774"><ele>38.0</ele><time>2026-04-27T13:05:03Z</time></trkpt><trkpt lat="39.0479441979444" lon="16.116301592470993"><ele>38.0</ele><time>2026-04-27T13:05:04Z</time></trkpt><trkpt lat="39.048053445969614" lon="16.116185181211005"><ele>38.0</ele><time>2026-04-27T13:05:05Z</time></trkpt><trkpt lat="39.048143916497985" lon="16.116053893975863"><ele>38.0</ele><time>2026-04-27T13:05:06Z</time></trkpt><trkpt lat="39.04824479748143" lon="16.1159430895997"><ele>38.0</ele><time>2026-04-27T13:05:07Z</time></trkpt><trkpt lat="39.04830857740035" lon="16.11580607033816"><ele>36.75</ele><time>2026-04-27T13:05:08Z</time></trkpt><trkpt lat="39.04836350507579" lon="16.115671728749394"><ele>35.5</ele><time>2026-04-27T13:05:09Z</time></trkpt><trkpt lat="39.048402157344846" lon="16.115527020287335"><ele>34.25</ele><time>2026-04-27T13:05:10Z</time></trkpt><trkpt lat="39.04842686328851" lon="16.11538057860078"><ele>33.0</ele><time>2026-04-27T13:05:11Z</time></trkpt><trkpt lat="39.048435852408126" lon="16.115240275115685"><ele>33.0</ele><time>2026-04-27T13:05:12Z</time></trkpt><trkpt lat="39.04842753415117" lon="16.1151174855982"><ele>33.0</ele><time>2026-04-27T13:05:12.999Z</time></trkpt><trkpt lat="39.04842206633023" lon="16.115019064554996"><ele>33.0</ele><time>2026-04-27T13:05:13.999Z</time></trkpt><trkpt lat="39.04839723790573" lon="16.114905221885202"><ele>33.0</ele><time>2026-04-27T13:05:15.999Z</time></trkpt><trkpt lat="39.048198598096405" lon="16.11496714316971"><ele>33.0</ele><time>2026-04-27T13:05:18.999Z</time></trkpt><trkpt lat="39.0480944002295" lon="16.11504886547376"><ele>33.0</ele><time>2026-04-27T13:05:19.999Z</time></trkpt><trkpt lat="39.04798324991833" lon="16.115159221690117"><ele>33.0</ele><time>2026-04-27T13:05:20.999Z</time></trkpt><trkpt lat="39.0478743680213" lon="16.115270666276523"><ele>33.0</ele><time>2026-04-27T13:05:21.999Z</time></trkpt><trkpt lat="39.04777087279407" lon="16.115382174340112"><ele>33.0</ele><time>2026-04-27T13:05:22.999Z</time></trkpt><trkpt lat="39.04766633084925" lon="16.11549481015701"><ele>33.0</ele><time>2026-04-27T13:05:23.999Z</time></trkpt><trkpt lat="39.047555441383146" lon="16.115614284938626"><ele>33.0</ele><time>2026-04-27T13:05:24.999Z</time></trkpt><trkpt lat="39.047438518464894" lon="16.11574026029571"><ele>33.0</ele><time>2026-04-27T13:05:25.999Z</time></trkpt><trkpt lat="39.04732399235089" lon="16.11586117748837"><ele>33.5</ele><time>2026-04-27T13:05:26.999Z</time></trkpt><trkpt lat="39.04721135361301" lon="16.115977243617703"><ele>34.0</ele><time>2026-04-27T13:05:27.999Z</time></trkpt><trkpt lat="39.0470987038951" lon="16.116093301128917"><ele>34.5</ele><time>2026-04-27T13:05:28.999Z</time></trkpt><trkpt lat="39.0469953869144" lon="16.116211535009253"><ele>35.0</ele><time>2026-04-27T13:05:29.999Z</time></trkpt><trkpt lat="39.046904391974216" lon="16.116335592030786"><ele>35.0</ele><time>2026-04-27T13:05:30.999Z</time></trkpt><trkpt lat="39.04683677655731" lon="16.11648231808185"><ele>35.0</ele><time>2026-04-27T13:05:31.999Z</time></trkpt><trkpt lat="39.046806966314676" lon="16.116672765603436"><ele>35.0</ele><time>2026-04-27T13:05:32.999Z</time></trkpt><trkpt lat="39.04677543444814" lon="16.116866596975896"><ele>35.0</ele><time>2026-04-27T13:05:33.999Z</time></trkpt><trkpt lat="39.0467402812531" lon="16.117077175608014"><ele>36.0</ele><time>2026-04-27T13:05:34.999Z</time></trkpt><trkpt lat="39.04670262113962" lon="16.117298611653975"><ele>37.0</ele><time>2026-04-27T13:05:35.999Z</time></trkpt><trkpt lat="39.04666194799961" lon="16.117521175073506"><ele>38.0</ele><time>2026-04-27T13:05:36.999Z</time></trkpt><trkpt lat="39.04662120984767" lon="16.117725190088375"><ele>35.33333333333333</ele><time>2026-04-27T13:05:37.999Z</time></trkpt><trkpt lat="39.04657766686804" lon="16.117912299424383"><ele>32.666666666666664</ele><time>2026-04-27T13:05:38.999Z</time></trkpt><trkpt lat="39.04655123358963" lon="16.11811224917128"><ele>30.0</ele><time>2026-04-27T13:05:39.999Z</time></trkpt><trkpt lat="39.04654940025549" lon="16.11831142039489"><ele>30.0</ele><time>2026-04-27T13:05:40.999Z</time></trkpt><trkpt lat="39.046558934718014" lon="16.1184823226957"><ele>30.0</ele><time>2026-04-27T13:05:41.999Z</time></trkpt><trkpt lat="39.046546386715356" lon="16.11863299672867"><ele>30.0</ele><time>2026-04-27T13:05:42.999Z</time></trkpt><trkpt lat="39.046508341623195" lon="16.11875546027239"><ele>30.0</ele><time>2026-04-27T13:05:43.999Z</time></trkpt><trkpt lat="39.0464483600493" lon="16.118865398189396"><ele>30.0</ele><time>2026-04-27T13:05:44.999Z</time></trkpt><trkpt lat="39.04636533889209" lon="16.118940916838984"><ele>30.0</ele><time>2026-04-27T13:05:45.999Z</time></trkpt><trkpt lat="39.046275319413326" lon="16.118996276548604"><ele>30.0</ele><time>2026-04-27T13:05:46.999Z</time></trkpt><trkpt lat="39.04618397909186" lon="16.1190388259504"><ele>30.0</ele><time>2026-04-27T13:05:47.999Z</time></trkpt><trkpt lat="39.04606132371056" lon="16.119007969824484"><ele>30.0</ele><time>2026-04-27T13:05:48.999Z</time></trkpt><trkpt lat="39.04590673624259" lon="16.118953521026732"><ele>30.333333333333336</ele><time>2026-04-27T13:05:49.999Z</time></trkpt><trkpt lat="39.04574069525797" lon="16.11888746810213"><ele>30.666666666666668</ele><time>2026-04-27T13:05:50.999Z</time></trkpt><trkpt lat="39.04555969208754" lon="16.118832042319013"><ele>31.0</ele><time>2026-04-27T13:05:51.999Z</time></trkpt><trkpt lat="39.04538007234494" lon="16.118742551664766"><ele>31.0</ele><time>2026-04-27T13:05:52.999Z</time></trkpt><trkpt lat="39.045204973925316" lon="16.118693997332013"><ele>31.0</ele><time>2026-04-27T13:05:53.999Z</time></trkpt><trkpt lat="39.0450383557318" lon="16.118631647294894"><ele>31.0</ele><time>2026-04-27T13:05:54.999Z</time></trkpt><trkpt lat="39.044865857705815" lon="16.118568812569006"><ele>32.333333333333336</ele><time>2026-04-27T13:05:55.999Z</time></trkpt><trkpt lat="39.04468628091118" lon="16.118493716524473"><ele>33.666666666666664</ele><time>2026-04-27T13:05:56.999Z</time></trkpt><trkpt lat="39.044514318441394" lon="16.118425929119773"><ele>35.0</ele><time>2026-04-27T13:05:57.999Z</time></trkpt><trkpt lat="39.044367797331596" lon="16.118367471137724"><ele>35.0</ele><time>2026-04-27T13:05:58.999Z</time></trkpt><trkpt lat="39.04423837725506" lon="16.118330198795846"><ele>35.0</ele><time>2026-04-27T13:05:59.999Z</time></trkpt><trkpt lat="39.04414723637974" lon="16.118301633839483"><ele>35.0</ele><time>2026-04-27T13:06:00.999Z</time></trkpt><trkpt lat="39.04406064875707" lon="16.11830082965897"><ele>35.0</ele><time>2026-04-27T13:06:01.999Z</time></trkpt><trkpt lat="39.04397349035011" lon="16.118332825165542"><ele>35.0</ele><time>2026-04-27T13:06:02.999Z</time></trkpt><trkpt lat="39.04388653343774" lon="16.118370651938935"><ele>33.2</ele><time>2026-04-27T13:06:03.999Z</time></trkpt><trkpt lat="39.043788058892595" lon="16.118423996926193"><ele>31.4</ele><time>2026-04-27T13:06:04.999Z</time></trkpt><trkpt lat="39.043686684984664" lon="16.11848768047856"><ele>29.6</ele><time>2026-04-27T13:06:05.999Z</time></trkpt><trkpt lat="39.04359323252671" lon="16.118544578110185"><ele>27.8</ele><time>2026-04-27T13:06:06.999Z</time></trkpt><trkpt lat="39.04349430618549" lon="16.118600297641713"><ele>26.0</ele><time>2026-04-27T13:06:07.999Z</time></trkpt><trkpt lat="39.04338417373483" lon="16.11865604700883"><ele>25.200000000000003</ele><time>2026-04-27T13:06:08.999Z</time></trkpt><trkpt lat="39.04327622923874" lon="16.11869937886482"><ele>24.400000000000002</ele><time>2026-04-27T13:06:09.999Z</time></trkpt><trkpt lat="39.04317133702195" lon="16.118736775897972"><ele>23.6</ele><time>2026-04-27T13:06:10.999Z</time></trkpt><trkpt lat="39.043072133869025" lon="16.118767789444536"><ele>22.8</ele><time>2026-04-27T13:06:11.999Z</time></trkpt><trkpt lat="39.0429704497345" lon="16.11879996616048"><ele>22.0</ele><time>2026-04-27T13:06:12.999Z</time></trkpt><trkpt lat="39.04288932942955" lon="16.11883117651006"><ele>22.0</ele><time>2026-04-27T13:06:13.999Z</time></trkpt><trkpt lat="39.04282112641278" lon="16.118870687829435"><ele>22.0</ele><time>2026-04-27T13:06:14.999Z</time></trkpt><trkpt lat="39.04274366142808" lon="16.1188740257391"><ele>22.0</ele><time>2026-04-27T13:06:15.999Z</time></trkpt><trkpt lat="39.04267096507158" lon="16.118917616300095"><ele>22.0</ele><time>2026-04-27T13:06:16.999Z</time></trkpt><trkpt lat="39.04259689185779" lon="16.118961480625146"><ele>22.0</ele><time>2026-04-27T13:06:17.999Z</time></trkpt><trkpt lat="39.04253062438256" lon="16.119012226183003"><ele>22.0</ele><time>2026-04-27T13:06:18.999Z</time></trkpt><trkpt lat="39.04247397676761" lon="16.119052760838883"><ele>21.333333333333332</ele><time>2026-04-27T13:06:19.999Z</time></trkpt><trkpt lat="39.042413952277954" lon="16.11908793043903"><ele>20.666666666666668</ele><time>2026-04-27T13:06:20.999Z</time></trkpt><trkpt lat="39.0421537600697" lon="16.118795748282825"><ele>20.0</ele><time>2026-04-27T13:06:23.999Z</time></trkpt><trkpt lat="39.042099452046145" lon="16.118688962538513"><ele>19.833333333333336</ele><time>2026-04-27T13:06:25.999Z</time></trkpt><trkpt lat="39.04208702727554" lon="16.118536169106054"><ele>19.666666666666668</ele><time>2026-04-27T13:06:27.999Z</time></trkpt><trkpt lat="39.04208127555671" lon="16.11845054020107"><ele>19.5</ele><time>2026-04-27T13:06:28.999Z</time></trkpt><trkpt lat="39.042071845482184" lon="16.118366113314263"><ele>19.333333333333332</ele><time>2026-04-27T13:06:29.999Z</time></trkpt><trkpt lat="39.042062107652" lon="16.118283883455682"><ele>19.166666666666664</ele><time>2026-04-27T13:06:30.999Z</time></trkpt><trkpt lat="39.04204161296337" lon="16.118122034862733"><ele>19.0</ele><time>2026-04-27T13:06:32.999Z</time></trkpt><trkpt lat="39.042034189800226" lon="16.118030540662357"><ele>18.833333333333332</ele><time>2026-04-27T13:06:33.999Z</time></trkpt><trkpt lat="39.0420323485613" lon="16.117929195594584"><ele>18.666666666666664</ele><time>2026-04-27T13:06:34.999Z</time></trkpt><trkpt lat="39.042034677513875" lon="16.117825438311645"><ele>18.5</ele><time>2026-04-27T13:06:35.999Z</time></trkpt><trkpt lat="39.04203076350609" lon="16.11771773722448"><ele>18.333333333333332</ele><time>2026-04-27T13:06:36.999Z</time></trkpt><trkpt lat="39.04202682191034" lon="16.11760232718087"><ele>18.166666666666668</ele><time>2026-04-27T13:06:37.999Z</time></trkpt><trkpt lat="39.04202377217593" lon="16.117458023976283"><ele>18.0</ele><time>2026-04-27T13:06:38.999Z</time></trkpt><trkpt lat="39.04201620984394" lon="16.117270358145994"><ele>18.0</ele><time>2026-04-27T13:06:39.999Z</time></trkpt><trkpt lat="39.0420071167124" lon="16.11709502950265"><ele>18.0</ele><time>2026-04-27T13:06:40.999Z</time></trkpt><trkpt lat="39.04199598971422" lon="16.116935066163606"><ele>18.0</ele><time>2026-04-27T13:06:41.999Z</time></trkpt><trkpt lat="39.041986983745346" lon="16.116763479438056"><ele>18.0</ele><time>2026-04-27T13:06:42.999Z</time></trkpt><trkpt lat="39.041970541179104" lon="16.116591842699552"><ele>17.25</ele><time>2026-04-27T13:06:43.999Z</time></trkpt><trkpt lat="39.041957316574795" lon="16.11642661273127"><ele>16.5</ele><time>2026-04-27T13:06:44.999Z</time></trkpt><trkpt lat="39.04194404749826" lon="16.11625986984874"><ele>15.75</ele><time>2026-04-27T13:06:45.999Z</time></trkpt><trkpt lat="39.04193375384124" lon="16.11609126908028"><ele>15.0</ele><time>2026-04-27T13:06:46.999Z</time></trkpt><trkpt lat="39.04193143944154" lon="16.11593071278315"><ele>15.0</ele><time>2026-04-27T13:06:47.999Z</time></trkpt><trkpt lat="39.04193656262736" lon="16.11578838267666"><ele>15.0</ele><time>2026-04-27T13:06:48.999Z</time></trkpt><trkpt lat="39.041934430350764" lon="16.115647792256127"><ele>15.0</ele><time>2026-04-27T13:06:49.999Z</time></trkpt><trkpt lat="39.041936800587386" lon="16.115506740794036"><ele>15.0</ele><time>2026-04-27T13:06:50.999Z</time></trkpt><trkpt lat="39.04192651853871" lon="16.115375311618948"><ele>15.0</ele><time>2026-04-27T13:06:51.999Z</time></trkpt><trkpt lat="39.04190163580294" lon="16.11523743600848"><ele>14.833333333333334</ele><time>2026-04-27T13:06:52.999Z</time></trkpt><trkpt lat="39.04186313593489" lon="16.115124164001376"><ele>14.666666666666668</ele><time>2026-04-27T13:06:53.998Z</time></trkpt><trkpt lat="39.04182191350857" lon="16.115037112577898"><ele>14.5</ele><time>2026-04-27T13:06:54.999Z</time></trkpt><trkpt lat="39.04179219116625" lon="16.1149502781367"><ele>14.333333333333334</ele><time>2026-04-27T13:06:55.999Z</time></trkpt><trkpt lat="39.04177583717599" lon="16.11483122660741"><ele>14.166666666666668</ele><time>2026-04-27T13:06:56.999Z</time></trkpt><trkpt lat="39.04176821688429" lon="16.114703626795098"><ele>14.0</ele><time>2026-04-27T13:06:57.999Z</time></trkpt><trkpt lat="39.04176282794676" lon="16.114575158484797"><ele>14.0</ele><time>2026-04-27T13:06:58.999Z</time></trkpt><trkpt lat="39.04175768091164" lon="16.1144541420926"><ele>13.999999999999998</ele><time>2026-04-27T13:06:59.999Z</time></trkpt><trkpt lat="39.04174688280386" lon="16.114325188088728"><ele>13.999999999999998</ele><time>2026-04-27T13:07:00.999Z</time></trkpt><trkpt lat="39.041733946025424" lon="16.11420068684313"><ele>14.0</ele><time>2026-04-27T13:07:01.999Z</time></trkpt><trkpt lat="39.041721087846426" lon="16.114074244584295"><ele>14.0</ele><time>2026-04-27T13:07:02.999Z</time></trkpt><trkpt lat="39.04170840200757" lon="16.113955064263887"><ele>14.000000000000002</ele><time>2026-04-27T13:07:03.999Z</time></trkpt><trkpt lat="39.0416970666243" lon="16.113847095283006"><ele>14.0</ele><time>2026-04-27T13:07:04.999Z</time></trkpt><trkpt lat="39.04168335576082" lon="16.11374031075672"><ele>14.0</ele><time>2026-04-27T13:07:05.999Z</time></trkpt><trkpt lat="39.041668151605386" lon="16.113636672914264"><ele>14.0</ele><time>2026-04-27T13:07:06.999Z</time></trkpt><trkpt lat="39.04165496850742" lon="16.11354093957945"><ele>14.000000000000002</ele><time>2026-04-27T13:07:07.999Z</time></trkpt><trkpt lat="39.04163996073728" lon="16.113444660661983"><ele>14.0</ele><time>2026-04-27T13:07:08.999Z</time></trkpt><trkpt lat="39.0416259767888" lon="16.11335277082804"><ele>13.333333333333334</ele><time>2026-04-27T13:07:09.999Z</time></trkpt><trkpt lat="39.04161965823624" lon="16.113260824102934"><ele>12.666666666666668</ele><time>2026-04-27T13:07:10.999Z</time></trkpt><trkpt lat="39.041614636277444" lon="16.11316525975926"><ele>12.0</ele><time>2026-04-27T13:07:11.999Z</time></trkpt><trkpt lat="39.04160080133209" lon="16.113068915786528"><ele>11.333333333333334</ele><time>2026-04-27T13:07:12.999Z</time></trkpt><trkpt lat="39.04158887028074" lon="16.112983991443347"><ele>10.666666666666668</ele><time>2026-04-27T13:07:13.999Z</time></trkpt><trkpt lat="39.04156168783754" lon="16.11282187211243"><ele>10.0</ele><time>2026-04-27T13:07:17.999Z</time></trkpt><trkpt lat="39.041541300625326" lon="16.11272031956485"><ele>9.8</ele><time>2026-04-27T13:07:18.999Z</time></trkpt><trkpt lat="39.041515409085854" lon="16.112609901275828"><ele>9.6</ele><time>2026-04-27T13:07:19.999Z</time></trkpt><trkpt lat="39.04148834197306" lon="16.112482156863795"><ele>9.4</ele><time>2026-04-27T13:07:20.999Z</time></trkpt><trkpt lat="39.041458050961275" lon="16.11234648124277"><ele>9.2</ele><time>2026-04-27T13:07:21.999Z</time></trkpt><trkpt lat="39.04142597282313" lon="16.112199163233427"><ele>9.0</ele><time>2026-04-27T13:07:22.999Z</time></trkpt><trkpt lat="39.04137988794365" lon="16.112046337232798"><ele>9.5</ele><time>2026-04-27T13:07:23.999Z</time></trkpt><trkpt lat="39.04133907244036" lon="16.111891964446556"><ele>10.0</ele><time>2026-04-27T13:07:24.999Z</time></trkpt><trkpt lat="39.04129659460708" lon="16.111729043405287"><ele>10.5</ele><time>2026-04-27T13:07:25.999Z</time></trkpt><trkpt lat="39.041263907832324" lon="16.111576954091763"><ele>11.0</ele><time>2026-04-27T13:07:26.999Z</time></trkpt><trkpt lat="39.041225471729796" lon="16.111435327772575"><ele>11.25</ele><time>2026-04-27T13:07:27.999Z</time></trkpt><trkpt lat="39.04118311235863" lon="16.11129218145204"><ele>11.5</ele><time>2026-04-27T13:07:28.999Z</time></trkpt><trkpt lat="39.041139781190225" lon="16.11114598690592"><ele>11.75</ele><time>2026-04-27T13:07:29.999Z</time></trkpt><trkpt lat="39.04109115088302" lon="16.1110039858727"><ele>12.0</ele><time>2026-04-27T13:07:30.999Z</time></trkpt><trkpt lat="39.04104531064149" lon="16.11085005423344"><ele>11.5</ele><time>2026-04-27T13:07:31.999Z</time></trkpt><trkpt lat="39.0409988720412" lon="16.11070632976744"><ele>11.0</ele><time>2026-04-27T13:07:32.999Z</time></trkpt><trkpt lat="39.040944358104596" lon="16.110553336807328"><ele>10.5</ele><time>2026-04-27T13:07:33.999Z</time></trkpt><trkpt lat="39.040897658488205" lon="16.11038898552592"><ele>10.0</ele><time>2026-04-27T13:07:34.999Z</time></trkpt><trkpt lat="39.04085022862249" lon="16.110240885158838"><ele>10.0</ele><time>2026-04-27T13:07:35.999Z</time></trkpt><trkpt lat="39.04078688658062" lon="16.110085395539148"><ele>10.0</ele><time>2026-04-27T13:07:36.999Z</time></trkpt><trkpt lat="39.04071828602105" lon="16.109924585702448"><ele>10.0</ele><time>2026-04-27T13:07:37.999Z</time></trkpt><trkpt lat="39.04065150507238" lon="16.109779031700015"><ele>10.0</ele><time>2026-04-27T13:07:38.999Z</time></trkpt><trkpt lat="39.040594364242345" lon="16.10965565493508"><ele>9.75</ele><time>2026-04-27T13:07:39.999Z</time></trkpt><trkpt lat="39.04053305363112" lon="16.10952302444819"><ele>9.5</ele><time>2026-04-27T13:07:40.999Z</time></trkpt><trkpt lat="39.04046822384825" lon="16.109383510604875"><ele>9.25</ele><time>2026-04-27T13:07:41.999Z</time></trkpt><trkpt lat="39.04040083619066" lon="16.109245608109877"><ele>9.0</ele><time>2026-04-27T13:07:42.999Z</time></trkpt><trkpt lat="39.04032513588957" lon="16.109099888613873"><ele>9.0</ele><time>2026-04-27T13:07:43.999Z</time></trkpt><trkpt lat="39.040249112383805" lon="16.108946469221138"><ele>9.0</ele><time>2026-04-27T13:07:44.999Z</time></trkpt><trkpt lat="39.040169558361534" lon="16.10880759409528"><ele>9.0</ele><time>2026-04-27T13:07:45.999Z</time></trkpt><trkpt lat="39.040089081232054" lon="16.108670057711404"><ele>9.0</ele><time>2026-04-27T13:07:46.999Z</time></trkpt><trkpt lat="39.04001090592731" lon="16.108540669058467"><ele>9.5</ele><time>2026-04-27T13:07:47.999Z</time></trkpt><trkpt lat="39.039929247006555" lon="16.108420531984486"><ele>10.0</ele><time>2026-04-27T13:07:48.999Z</time></trkpt><trkpt lat="39.03984858777819" lon="16.108295029603347"><ele>10.5</ele><time>2026-04-27T13:07:49.999Z</time></trkpt><trkpt lat="39.039764070430834" lon="16.108167095516514"><ele>11.0</ele><time>2026-04-27T13:07:50.999Z</time></trkpt><trkpt lat="39.03968385204231" lon="16.108049035035116"><ele>11.25</ele><time>2026-04-27T13:07:51.999Z</time></trkpt><trkpt lat="39.0396050190998" lon="16.10793053631988"><ele>11.5</ele><time>2026-04-27T13:07:52.999Z</time></trkpt><trkpt lat="39.03951131061649" lon="16.107809717601924"><ele>11.75</ele><time>2026-04-27T13:07:53.999Z</time></trkpt><trkpt lat="39.03941363906279" lon="16.107686366183817"><ele>12.0</ele><time>2026-04-27T13:07:54.999Z</time></trkpt><trkpt lat="39.03933448605082" lon="16.107584384151526"><ele>12.0</ele><time>2026-04-27T13:07:55.999Z</time></trkpt><trkpt lat="39.039244687989296" lon="16.10748585739471"><ele>12.0</ele><time>2026-04-27T13:07:56.999Z</time></trkpt><trkpt lat="39.03915408315414" lon="16.107386424861076"><ele>12.0</ele><time>2026-04-27T13:07:57.999Z</time></trkpt><trkpt lat="39.03905273397349" lon="16.107276371277898"><ele>12.0</ele><time>2026-04-27T13:07:58.999Z</time></trkpt><trkpt lat="39.03893613960216" lon="16.107151253763437"><ele>11.5</ele><time>2026-04-27T13:07:59.999Z</time></trkpt><trkpt lat="39.03883506674966" lon="16.10703792629937"><ele>11.0</ele><time>2026-04-27T13:08:00.999Z</time></trkpt><trkpt lat="39.038722314470476" lon="16.10692358739454"><ele>10.5</ele><time>2026-04-27T13:08:01.999Z</time></trkpt><trkpt lat="39.03861313957826" lon="16.10681282879478"><ele>10.0</ele><time>2026-04-27T13:08:02.999Z</time></trkpt><trkpt lat="39.038498650634686" lon="16.106694112234045"><ele>9.75</ele><time>2026-04-27T13:08:03.999Z</time></trkpt><trkpt lat="39.038391544387444" lon="16.106576697838225"><ele>9.5</ele><time>2026-04-27T13:08:04.999Z</time></trkpt><trkpt lat="39.03827682690219" lon="16.106459200596326"><ele>9.25</ele><time>2026-04-27T13:08:05.999Z</time></trkpt><trkpt lat="39.03817024113959" lon="16.10635091085407"><ele>9.0</ele><time>2026-04-27T13:08:06.999Z</time></trkpt><trkpt lat="39.03806211749606" lon="16.106248845089834"><ele>9.0</ele><time>2026-04-27T13:08:07.999Z</time></trkpt><trkpt lat="39.03796061748534" lon="16.10613993420266"><ele>9.0</ele><time>2026-04-27T13:08:08.999Z</time></trkpt><trkpt lat="39.0378518028919" lon="16.10602329260536"><ele>9.0</ele><time>2026-04-27T13:08:09.999Z</time></trkpt><trkpt lat="39.03773681833785" lon="16.10590740822286"><ele>9.0</ele><time>2026-04-27T13:08:10.999Z</time></trkpt><trkpt lat="39.037626280634974" lon="16.10579520828653"><ele>8.75</ele><time>2026-04-27T13:08:11.999Z</time></trkpt><trkpt lat="39.037517402977095" lon="16.105678555528712"><ele>8.5</ele><time>2026-04-27T13:08:12.999Z</time></trkpt><trkpt lat="39.03739728166424" lon="16.10557212862918"><ele>8.25</ele><time>2026-04-27T13:08:13.999Z</time></trkpt><trkpt lat="39.03728773369933" lon="16.10546417176459"><ele>8.0</ele><time>2026-04-27T13:08:14.999Z</time></trkpt><trkpt lat="39.03715811087401" lon="16.105324784034803"><ele>8.0</ele><time>2026-04-27T13:08:15.999Z</time></trkpt><trkpt lat="39.037022827820735" lon="16.105184745258214"><ele>8.0</ele><time>2026-04-27T13:08:16.999Z</time></trkpt><trkpt lat="39.03689504608538" lon="16.105046173074676"><ele>8.0</ele><time>2026-04-27T13:08:17.999Z</time></trkpt><trkpt lat="39.036773185450244" lon="16.104925421463236"><ele>7.75</ele><time>2026-04-27T13:08:18.999Z</time></trkpt><trkpt lat="39.036666120395566" lon="16.10482163090963"><ele>7.5</ele><time>2026-04-27T13:08:19.999Z</time></trkpt><trkpt lat="39.03656909451085" lon="16.104721333588937"><ele>7.25</ele><time>2026-04-27T13:08:20.999Z</time></trkpt><trkpt lat="39.036455016319486" lon="16.10460480932796"><ele>7.0</ele><time>2026-04-27T13:08:21.999Z</time></trkpt><trkpt lat="39.036343618860684" lon="16.104485651828742"><ele>7.0</ele><time>2026-04-27T13:08:22.999Z</time></trkpt><trkpt lat="39.036225656403666" lon="16.10436527160827"><ele>7.0</ele><time>2026-04-27T13:08:23.999Z</time></trkpt><trkpt lat="39.036104467934784" lon="16.104238688682788"><ele>7.0</ele><time>2026-04-27T13:08:24.999Z</time></trkpt><trkpt lat="39.035981770044465" lon="16.104112136040403"><ele>7.0</ele><time>2026-04-27T13:08:25.999Z</time></trkpt><trkpt lat="39.03586002417386" lon="16.103991942281738"><ele>7.0</ele><time>2026-04-27T13:08:26.999Z</time></trkpt><trkpt lat="39.035750004769405" lon="16.103879214991547"><ele>7.0</ele><time>2026-04-27T13:08:27.999Z</time></trkpt><trkpt lat="39.03563490553865" lon="16.10375639376389"><ele>7.0</ele><time>2026-04-27T13:08:28.999Z</time></trkpt><trkpt lat="39.03551660666989" lon="16.10363430070564"><ele>7.0</ele><time>2026-04-27T13:08:29.999Z</time></trkpt><trkpt lat="39.03539751216738" lon="16.103508587090182"><ele>7.0</ele><time>2026-04-27T13:08:30.999Z</time></trkpt><trkpt lat="39.03527370305252" lon="16.10339185881487"><ele>7.0</ele><time>2026-04-27T13:08:31.999Z</time></trkpt><trkpt lat="39.035168637364755" lon="16.103285085079655"><ele>7.0</ele><time>2026-04-27T13:08:32.999Z</time></trkpt><trkpt lat="39.0350583837916" lon="16.103157201109713"><ele>7.0</ele><time>2026-04-27T13:08:33.999Z</time></trkpt><trkpt lat="39.03494974606842" lon="16.103036604215195"><ele>7.0</ele><time>2026-04-27T13:08:34.999Z</time></trkpt><trkpt lat="39.034831079339405" lon="16.102915510351792"><ele>7.0</ele><time>2026-04-27T13:08:35.999Z</time></trkpt><trkpt lat="39.034723712879305" lon="16.102799876887616"><ele>7.0</ele><time>2026-04-27T13:08:36.999Z</time></trkpt><trkpt lat="39.034625149286285" lon="16.10270163053026"><ele>7.000000000000001</ele><time>2026-04-27T13:08:37.999Z</time></trkpt><trkpt lat="39.03455105956018" lon="16.102624202433145"><ele>7.0</ele><time>2026-04-27T13:08:38.999Z</time></trkpt><trkpt lat="39.03449722018722" lon="16.10256946017947"><ele>7.0</ele><time>2026-04-27T13:08:39.999Z</time></trkpt><trkpt lat="39.03440792180938" lon="16.102564000602076"><ele>7.0</ele><time>2026-04-27T13:08:41.999Z</time></trkpt><trkpt lat="39.034351988562285" lon="16.102602766952966"><ele>7.000000000000001</ele><time>2026-04-27T13:08:42.999Z</time></trkpt><trkpt lat="39.034292495510535" lon="16.102643869945403"><ele>7.0</ele><time>2026-04-27T13:08:43.999Z</time></trkpt><trkpt lat="39.03422492487388" lon="16.10263808414866"><ele>7.0</ele><time>2026-04-27T13:08:45.999Z</time></trkpt><trkpt lat="39.034169180354425" lon="16.10251746789871"><ele>6.999999999999999</ele><time>2026-04-27T13:08:48.999Z</time></trkpt><trkpt lat="39.034139536041785" lon="16.10240701858191"><ele>6.999999999999999</ele><time>2026-04-27T13:08:50.999Z</time></trkpt><trkpt lat="39.03412718666518" lon="16.102280217426966"><ele>7.0</ele><time>2026-04-27T13:09:47.999Z</time></trkpt><trkpt lat="39.0341457992582" lon="16.102167721253995"><ele>7.0</ele><time>2026-04-27T13:09:48.999Z</time></trkpt><trkpt lat="39.034154595355204" lon="16.10206751280685"><ele>6.857142857142857</ele><time>2026-04-27T13:09:49.999Z</time></trkpt><trkpt lat="39.03416368763533" lon="16.10197394912234"><ele>6.714285714285714</ele><time>2026-04-27T13:09:50.999Z</time></trkpt><trkpt lat="39.03416026985044" lon="16.10189143829936"><ele>6.571428571428571</ele><time>2026-04-27T13:09:51.999Z</time></trkpt><trkpt lat="39.03417682696679" lon="16.101795365833237"><ele>6.428571428571429</ele><time>2026-04-27T13:09:53.999Z</time></trkpt><trkpt lat="39.034195583555594" lon="16.101712565969102"><ele>6.285714285714286</ele><time>2026-04-27T13:10:00.999Z</time></trkpt><trkpt lat="39.034140524363686" lon="16.101634025802714"><ele>6.142857142857142</ele><time>2026-04-27T13:10:04.999Z</time></trkpt><trkpt lat="39.03407419551625" lon="16.101639782624193"><ele>6.0</ele><time>2026-04-27T13:10:05.999Z</time></trkpt><trkpt lat="39.033992640317386" lon="16.1016379732201"><ele>6.0</ele><time>2026-04-27T13:10:06.999Z</time></trkpt><trkpt lat="39.03389621525014" lon="16.10167239454583"><ele>6.0</ele><time>2026-04-27T13:10:07.999Z</time></trkpt><trkpt lat="39.033762827428454" lon="16.101720010674818"><ele>6.0</ele><time>2026-04-27T13:10:08.999Z</time></trkpt><trkpt lat="39.033618547496815" lon="16.101771515021948"><ele>6.0</ele><time>2026-04-27T13:10:09.999Z</time></trkpt><trkpt lat="39.03348647803596" lon="16.101818660534843"><ele>6.0</ele><time>2026-04-27T13:10:10.999Z</time></trkpt><trkpt lat="39.03337208779456" lon="16.10185924506641"><ele>6.0</ele><time>2026-04-27T13:10:11.999Z</time></trkpt><trkpt lat="39.033268798266555" lon="16.101895834930048"><ele>6.0</ele><time>2026-04-27T13:10:12.999Z</time></trkpt><trkpt lat="39.03316326839059" lon="16.101933218352926"><ele>6.0</ele><time>2026-04-27T13:10:13.999Z</time></trkpt><trkpt lat="39.03305103849987" lon="16.101972975272165"><ele>6.0</ele><time>2026-04-27T13:10:14.999Z</time></trkpt><trkpt lat="39.03293518438028" lon="16.102013857296278"><ele>6.0</ele><time>2026-04-27T13:10:15.999Z</time></trkpt><trkpt lat="39.03281570433693" lon="16.10205600101394"><ele>6.0</ele><time>2026-04-27T13:10:16.999Z</time></trkpt><trkpt lat="39.03271149081337" lon="16.10209275982934"><ele>6.0</ele><time>2026-04-27T13:10:17.999Z</time></trkpt><trkpt lat="39.03261933418991" lon="16.102125265870797"><ele>6.0</ele><time>2026-04-27T13:10:18.999Z</time></trkpt><trkpt lat="39.03254200481411" lon="16.102152541933275"><ele>5.2</ele><time>2026-04-27T13:10:19.999Z</time></trkpt><trkpt lat="39.03245259312782" lon="16.102203579394107"><ele>4.3999999999999995</ele><time>2026-04-27T13:10:21.999Z</time></trkpt><trkpt lat="39.03242429838576" lon="16.10203399782522"><ele>3.6</ele><time>2026-04-27T13:10:24.999Z</time></trkpt><trkpt lat="39.03243174684393" lon="16.101926452314853"><ele>2.8</ele><time>2026-04-27T13:10:25.999Z</time></trkpt><trkpt lat="39.03242485205085" lon="16.101818506370194"><ele>2.0</ele><time>2026-04-27T13:10:26.999Z</time></trkpt><trkpt lat="39.03240407527057" lon="16.101721625486814"><ele>1.9999999999999998</ele><time>2026-04-27T13:10:27.999Z</time></trkpt><trkpt lat="39.03238619813703" lon="16.101634728465168"><ele>2.0</ele><time>2026-04-27T13:10:31.999Z</time></trkpt><trkpt lat="39.03244894794114" lon="16.101612938070833"><ele>2.0</ele><time>2026-04-27T13:10:33.999Z</time></trkpt><trkpt lat="39.03252572675786" lon="16.10172188457167"><ele>2.0</ele><time>2026-04-27T13:10:35.999Z</time></trkpt><trkpt lat="39.03254004238776" lon="16.101820067743894"><ele>1.9999999999999998</ele><time>2026-04-27T13:10:36.999Z</time></trkpt><trkpt lat="39.03255748970282" lon="16.101944018545694"><ele>2.0</ele><time>2026-04-27T13:10:37.999Z</time></trkpt><trkpt lat="39.03258577385169" lon="16.10203459705959"><ele>2.8</ele><time>2026-04-27T13:10:38.999Z</time></trkpt><trkpt lat="39.03263197059994" lon="16.102106668904206"><ele>3.6</ele><time>2026-04-27T13:10:39.999Z</time></trkpt><trkpt lat="39.032678720871665" lon="16.102200875970553"><ele>4.3999999999999995</ele><time>2026-04-27T13:10:40.999Z</time></trkpt><trkpt lat="39.03274074687657" lon="16.102350135680574"><ele>5.2</ele><time>2026-04-27T13:10:42.999Z</time></trkpt><trkpt lat="39.03277605262525" lon="16.102435445681003"><ele>6.0</ele><time>2026-04-27T13:10:43.999Z</time></trkpt><trkpt lat="39.0328077323107" lon="16.102556949354323"><ele>6.4</ele><time>2026-04-27T13:10:44.999Z</time></trkpt><trkpt lat="39.0328443173587" lon="16.102707942536693"><ele>6.8</ele><time>2026-04-27T13:10:45.999Z</time></trkpt><trkpt lat="39.032883431006425" lon="16.102831483112876"><ele>7.200000000000001</ele><time>2026-04-27T13:10:46.999Z</time></trkpt><trkpt lat="39.032920836777436" lon="16.102942981207978"><ele>7.6000000000000005</ele><time>2026-04-27T13:10:47.999Z</time></trkpt><trkpt lat="39.03295647570512" lon="16.1030458049151"><ele>8.0</ele><time>2026-04-27T13:10:48.999Z</time></trkpt><trkpt lat="39.03299495237748" lon="16.103157461218917"><ele>8.0</ele><time>2026-04-27T13:10:49.999Z</time></trkpt><trkpt lat="39.03302187085353" lon="16.103270816856764"><ele>8.0</ele><time>2026-04-27T13:10:50.999Z</time></trkpt><trkpt lat="39.03306341884511" lon="16.10336948986328"><ele>8.0</ele><time>2026-04-27T13:10:51.999Z</time></trkpt><trkpt lat="39.03307366867891" lon="16.10348553022181"><ele>8.0</ele><time>2026-04-27T13:10:52.999Z</time></trkpt><trkpt lat="39.03309526359171" lon="16.103619774482528"><ele>8.0</ele><time>2026-04-27T13:10:53.999Z</time></trkpt><trkpt lat="39.03311848409333" lon="16.1037526259126"><ele>8.0</ele><time>2026-04-27T13:10:54.999Z</time></trkpt><trkpt lat="39.033144863562065" lon="16.103878105273814"><ele>8.0</ele><time>2026-04-27T13:10:55.999Z</time></trkpt><trkpt lat="39.03317335321453" lon="16.10400064538909"><ele>8.0</ele><time>2026-04-27T13:10:56.999Z</time></trkpt><trkpt lat="39.0332046487246" lon="16.104131029746835"><ele>8.0</ele><time>2026-04-27T13:10:57.999Z</time></trkpt><trkpt lat="39.03323737934756" lon="16.104270433416435"><ele>8.0</ele><time>2026-04-27T13:10:58.999Z</time></trkpt><trkpt lat="39.033269690781815" lon="16.104417750735912"><ele>7.75</ele><time>2026-04-27T13:10:59.999Z</time></trkpt><trkpt lat="39.03330266658482" lon="16.10456221665323"><ele>7.5</ele><time>2026-04-27T13:11:00.999Z</time></trkpt><trkpt lat="39.03334484143751" lon="16.104711148020634"><ele>7.25</ele><time>2026-04-27T13:11:01.999Z</time></trkpt><trkpt lat="39.03338778246048" lon="16.104856114000782"><ele>7.0</ele><time>2026-04-27T13:11:02.999Z</time></trkpt><trkpt lat="39.033428757394276" lon="16.104998675292382"><ele>6.75</ele><time>2026-04-27T13:11:03.999Z</time></trkpt><trkpt lat="39.03346665386239" lon="16.105150555043316"><ele>6.5</ele><time>2026-04-27T13:11:04.999Z</time></trkpt><trkpt lat="39.0335033567557" lon="16.105303326107286"><ele>6.25</ele><time>2026-04-27T13:11:05.999Z</time></trkpt><trkpt lat="39.033538695340155" lon="16.105462371403267"><ele>6.0</ele><time>2026-04-27T13:11:07Z</time></trkpt><trkpt lat="39.033579878657314" lon="16.105635474565123"><ele>6.5</ele><time>2026-04-27T13:11:08Z</time></trkpt><trkpt lat="39.03362563009067" lon="16.105811396430717"><ele>7.0</ele><time>2026-04-27T13:11:09Z</time></trkpt><trkpt lat="39.03366076611368" lon="16.105994515694896"><ele>7.5</ele><time>2026-04-27T13:11:10Z</time></trkpt><trkpt lat="39.03369169087906" lon="16.106183817890418"><ele>8.0</ele><time>2026-04-27T13:11:11Z</time></trkpt><trkpt lat="39.03372340684107" lon="16.106372480075926"><ele>8.0</ele><time>2026-04-27T13:11:12Z</time></trkpt><trkpt lat="39.033749521835105" lon="16.106542462582173"><ele>8.0</ele><time>2026-04-27T13:11:13Z</time></trkpt><trkpt lat="39.033778400325765" lon="16.106703913746276"><ele>8.0</ele><time>2026-04-27T13:11:14Z</time></trkpt><trkpt lat="39.03380750459943" lon="16.106858342416782"><ele>8.0</ele><time>2026-04-27T13:11:15Z</time></trkpt><trkpt lat="39.03383493973376" lon="16.107008397629137"><ele>8.25</ele><time>2026-04-27T13:11:16Z</time></trkpt><trkpt lat="39.03387232293075" lon="16.10717640012358"><ele>8.5</ele><time>2026-04-27T13:11:17Z</time></trkpt><trkpt lat="39.03391002147328" lon="16.107352897033252"><ele>8.75</ele><time>2026-04-27T13:11:18Z</time></trkpt><trkpt lat="39.033936473734165" lon="16.10752234578795"><ele>9.0</ele><time>2026-04-27T13:11:19Z</time></trkpt><trkpt lat="39.03397967296839" lon="16.107692302513584"><ele>9.0</ele><time>2026-04-27T13:11:20Z</time></trkpt><trkpt lat="39.03402536935507" lon="16.107869776083355"><ele>9.0</ele><time>2026-04-27T13:11:21Z</time></trkpt><trkpt lat="39.034066787104265" lon="16.10804756362956"><ele>9.0</ele><time>2026-04-27T13:11:22Z</time></trkpt><trkpt lat="39.03410469830244" lon="16.10822758793783"><ele>9.0</ele><time>2026-04-27T13:11:23Z</time></trkpt><trkpt lat="39.03414409161763" lon="16.108409140405367"><ele>9.25</ele><time>2026-04-27T13:11:24Z</time></trkpt><trkpt lat="39.034179696242816" lon="16.108589918674866"><ele>9.5</ele><time>2026-04-27T13:11:25Z</time></trkpt><trkpt lat="39.0342172548675" lon="16.108779967752508"><ele>9.75</ele><time>2026-04-27T13:11:26Z</time></trkpt><trkpt lat="39.03425261761654" lon="16.10896178986925"><ele>10.0</ele><time>2026-04-27T13:11:27Z</time></trkpt><trkpt lat="39.03429078242262" lon="16.1091552833051"><ele>10.0</ele><time>2026-04-27T13:11:28Z</time></trkpt><trkpt lat="39.034329359542355" lon="16.109348664506047"><ele>10.0</ele><time>2026-04-27T13:11:29Z</time></trkpt><trkpt lat="39.03436933299148" lon="16.10954250187179"><ele>10.0</ele><time>2026-04-27T13:11:30Z</time></trkpt><trkpt lat="39.034410866310644" lon="16.1097462827936"><ele>10.0</ele><time>2026-04-27T13:11:31Z</time></trkpt><trkpt lat="39.034452855734195" lon="16.109924308339124"><ele>10.0</ele><time>2026-04-27T13:11:32Z</time></trkpt><trkpt lat="39.03447893428313" lon="16.110072065895217"><ele>10.0</ele><time>2026-04-27T13:11:33Z</time></trkpt><trkpt lat="39.03448951510315" lon="16.110204495110672"><ele>10.0</ele><time>2026-04-27T13:11:34Z</time></trkpt><trkpt lat="39.03449543716407" lon="16.11037406970222"><ele>10.0</ele><time>2026-04-27T13:11:35Z</time></trkpt><trkpt lat="39.03450153773986" lon="16.11058917749905"><ele>10.0</ele><time>2026-04-27T13:11:36Z</time></trkpt><trkpt lat="39.034510158720614" lon="16.110781604401335"><ele>10.0</ele><time>2026-04-27T13:11:36.999Z</time></trkpt><trkpt lat="39.034506581463624" lon="16.1109312348321"><ele>10.0</ele><time>2026-04-27T13:11:37.999Z</time></trkpt><trkpt lat="39.03450204112142" lon="16.1110521001752"><ele>10.0</ele><time>2026-04-27T13:11:38.999Z</time></trkpt><trkpt lat="39.03453071292692" lon="16.11116835778582"><ele>10.0</ele><time>2026-04-27T13:11:40.999Z</time></trkpt><trkpt lat="39.03457397711504" lon="16.111232948829908"><ele>10.0</ele><time>2026-04-27T13:11:43.999Z</time></trkpt><trkpt lat="39.03460203963336" lon="16.11132496415347"><ele>10.0</ele><time>2026-04-27T13:11:52.999Z</time></trkpt><trkpt lat="39.03463815962645" lon="16.111424831057814"><ele>10.0</ele><time>2026-04-27T13:11:54.999Z</time></trkpt><trkpt lat="39.03468108323736" lon="16.11154546245742"><ele>10.0</ele><time>2026-04-27T13:11:56.999Z</time></trkpt><trkpt lat="39.034738978020854" lon="16.111679341373907"><ele>10.0</ele><time>2026-04-27T13:11:58.999Z</time></trkpt><trkpt lat="39.03477949238842" lon="16.111775544141675"><ele>10.0</ele><time>2026-04-27T13:11:59.999Z</time></trkpt><trkpt lat="39.03481506686005" lon="16.111862234426336"><ele>10.0</ele><time>2026-04-27T13:12:00.999Z</time></trkpt><trkpt lat="39.03485439261853" lon="16.11194004272887"><ele>10.0</ele><time>2026-04-27T13:12:01.999Z</time></trkpt><trkpt lat="39.03489786101594" lon="16.112017913468613"><ele>10.0</ele><time>2026-04-27T13:12:02.999Z</time></trkpt><trkpt lat="39.034933755756064" lon="16.112094858563417"><ele>10.0</ele><time>2026-04-27T13:12:03.999Z</time></trkpt><trkpt lat="39.03496561941033" lon="16.112172925561183"><ele>10.0</ele><time>2026-04-27T13:12:04.999Z</time></trkpt><trkpt lat="39.035001065599104" lon="16.1122469596338"><ele>10.0</ele><time>2026-04-27T13:12:05.999Z</time></trkpt><trkpt lat="39.03507931621111" lon="16.112367582726286"><ele>10.0</ele><time>2026-04-27T13:12:07.999Z</time></trkpt><trkpt lat="39.03512125741955" lon="16.112437550202472"><ele>10.0</ele><time>2026-04-27T13:12:08.999Z</time></trkpt><trkpt lat="39.035168777330064" lon="16.11252011497832"><ele>10.0</ele><time>2026-04-27T13:12:09.999Z</time></trkpt><trkpt lat="39.03521567784043" lon="16.112612982898682"><ele>10.0</ele><time>2026-04-27T13:12:10.999Z</time></trkpt><trkpt lat="39.03527089464329" lon="16.112722861946104"><ele>10.5</ele><time>2026-04-27T13:12:11.999Z</time></trkpt><trkpt lat="39.03532459011323" lon="16.112827278415054"><ele>11.0</ele><time>2026-04-27T13:12:12.999Z</time></trkpt><trkpt lat="39.03536691523901" lon="16.11291603218257"><ele>11.5</ele><time>2026-04-27T13:12:13.999Z</time></trkpt><trkpt lat="39.03541001824797" lon="16.113025119580126"><ele>12.0</ele><time>2026-04-27T13:12:14.999Z</time></trkpt><trkpt lat="39.035457348750946" lon="16.113125258008942"><ele>12.499999999999998</ele><time>2026-04-27T13:12:15.999Z</time></trkpt><trkpt lat="39.03549647211949" lon="16.113199227385184"><ele>13.0</ele><time>2026-04-27T13:12:16.999Z</time></trkpt><trkpt lat="39.03554144922163" lon="16.113268651832914"><ele>13.600000000000001</ele><time>2026-04-27T13:12:17.999Z</time></trkpt><trkpt lat="39.03560420321721" lon="16.113373525238767"><ele>14.200000000000001</ele><time>2026-04-27T13:12:18.999Z</time></trkpt><trkpt lat="39.03567547684288" lon="16.113480108856614"><ele>14.8</ele><time>2026-04-27T13:12:19.999Z</time></trkpt><trkpt lat="39.03572841787532" lon="16.113560199472143"><ele>15.4</ele><time>2026-04-27T13:12:20.999Z</time></trkpt><trkpt lat="39.035768304809274" lon="16.113627508007255"><ele>16.0</ele><time>2026-04-27T13:12:21.999Z</time></trkpt><trkpt lat="39.03580084276558" lon="16.113764171733273"><ele>16.0</ele><time>2026-04-27T13:12:23.999Z</time></trkpt><trkpt lat="39.03585044190708" lon="16.11383269463115"><ele>16.0</ele><time>2026-04-27T13:12:25.999Z</time></trkpt><trkpt lat="39.035726767895426" lon="16.114047592824036"><ele>16.0</ele><time>2026-04-27T13:12:26.999Z</time></trkpt><trkpt lat="39.03566123679191" lon="16.1142012829519"><ele>16.0</ele><time>2026-04-27T13:12:27.999Z</time></trkpt><trkpt lat="39.03560051996083" lon="16.114345794339133"><ele>16.25</ele><time>2026-04-27T13:12:28.999Z</time></trkpt><trkpt lat="39.03553136261845" lon="16.1144849760245"><ele>16.5</ele><time>2026-04-27T13:12:29.999Z</time></trkpt><trkpt lat="39.035450576292895" lon="16.114613841194174"><ele>16.75</ele><time>2026-04-27T13:12:30.999Z</time></trkpt><trkpt lat="39.03537813821603" lon="16.11474347469894"><ele>17.0</ele><time>2026-04-27T13:12:31.999Z</time></trkpt><trkpt lat="39.035290740390835" lon="16.114883978461286"><ele>17.333333333333336</ele><time>2026-04-27T13:12:32.999Z</time></trkpt><trkpt lat="39.03520401203322" lon="16.11504812193522"><ele>17.666666666666668</ele><time>2026-04-27T13:12:33.999Z</time></trkpt><trkpt lat="39.03512457315963" lon="16.115208230463665"><ele>18.0</ele><time>2026-04-27T13:12:34.999Z</time></trkpt><trkpt lat="39.03499126344348" lon="16.115307470575253"><ele>18.0</ele><time>2026-04-27T13:12:35.999Z</time></trkpt><trkpt lat="39.03491084381714" lon="16.11547218555665"><ele>18.0</ele><time>2026-04-27T13:12:36.999Z</time></trkpt><trkpt lat="39.03484294928844" lon="16.115661306867576"><ele>18.0</ele><time>2026-04-27T13:12:37.999Z</time></trkpt><trkpt lat="39.034792479818606" lon="16.115845448132475"><ele>18.166666666666668</ele><time>2026-04-27T13:12:38.999Z</time></trkpt><trkpt lat="39.03474223612601" lon="16.11597673250168"><ele>18.333333333333332</ele><time>2026-04-27T13:12:39.999Z</time></trkpt><trkpt lat="39.03469699557872" lon="16.116085973347232"><ele>18.5</ele><time>2026-04-27T13:12:40.999Z</time></trkpt><trkpt lat="39.03465902831398" lon="16.11618550934128"><ele>18.666666666666664</ele><time>2026-04-27T13:12:41.999Z</time></trkpt><trkpt lat="39.03463252691919" lon="16.11627468333476"><ele>18.833333333333332</ele><time>2026-04-27T13:12:42.999Z</time></trkpt><trkpt lat="39.03461642482553" lon="16.116366907681066"><ele>19.0</ele><time>2026-04-27T13:12:43.999Z</time></trkpt><trkpt lat="39.03463246108006" lon="16.11648226189865"><ele>19.4</ele><time>2026-04-27T13:12:44.999Z</time></trkpt><trkpt lat="39.03471147817101" lon="16.11658001908966"><ele>19.799999999999997</ele><time>2026-04-27T13:12:45.999Z</time></trkpt><trkpt lat="39.03478058082365" lon="16.116667141030504"><ele>20.200000000000003</ele><time>2026-04-27T13:12:46.999Z</time></trkpt><trkpt lat="39.034857629219694" lon="16.116757891475267"><ele>20.6</ele><time>2026-04-27T13:12:47.999Z</time></trkpt><trkpt lat="39.03492892469926" lon="16.116855507312085"><ele>21.0</ele><time>2026-04-27T13:12:48.999Z</time></trkpt><trkpt lat="39.03496819524981" lon="16.11692140987984"><ele>21.0</ele><time>2026-04-27T13:12:49.999Z</time></trkpt><trkpt lat="39.03499586383017" lon="16.1170289185042"><ele>21.0</ele><time>2026-04-27T13:12:51.999Z</time></trkpt><trkpt lat="39.0349292095581" lon="16.117094882642373"><ele>21.0</ele><time>2026-04-27T13:12:53.999Z</time></trkpt><trkpt lat="39.03486975280954" lon="16.11713487179903"><ele>21.0</ele><time>2026-04-27T13:12:54.999Z</time></trkpt><trkpt lat="39.034783693336045" lon="16.11719643422613"><ele>21.0</ele><time>2026-04-27T13:12:55.999Z</time></trkpt><trkpt lat="39.034654261637975" lon="16.11727861278238"><ele>21.0</ele><time>2026-04-27T13:12:56.999Z</time></trkpt><trkpt lat="39.03451535029524" lon="16.117370811189115"><ele>21.0</ele><time>2026-04-27T13:12:57.999Z</time></trkpt><trkpt lat="39.03439462536175" lon="16.117450118568286"><ele>21.0</ele><time>2026-04-27T13:12:58.999Z</time></trkpt><trkpt lat="39.03427268883888" lon="16.117527507782807"><ele>21.0</ele><time>2026-04-27T13:12:59.999Z</time></trkpt><trkpt lat="39.034150519923735" lon="16.117607263009543"><ele>22.0</ele><time>2026-04-27T13:13:00.999Z</time></trkpt><trkpt lat="39.034039535743794" lon="16.117685992756297"><ele>23.0</ele><time>2026-04-27T13:13:01.999Z</time></trkpt><trkpt lat="39.033931564302854" lon="16.117767681434753"><ele>24.0</ele><time>2026-04-27T13:13:02.999Z</time></trkpt><trkpt lat="39.0338187899455" lon="16.117858682406677"><ele>25.0</ele><time>2026-04-27T13:13:03.999Z</time></trkpt><trkpt lat="39.0336979283683" lon="16.117956685098573"><ele>25.0</ele><time>2026-04-27T13:13:04.999Z</time></trkpt><trkpt lat="39.033570568629194" lon="16.118068435523366"><ele>25.0</ele><time>2026-04-27T13:13:05.999Z</time></trkpt><trkpt lat="39.03343824620244" lon="16.11815023238041"><ele>25.0</ele><time>2026-04-27T13:13:06.999Z</time></trkpt><trkpt lat="39.033294666569624" lon="16.118202398208986"><ele>26.0</ele><time>2026-04-27T13:13:07.999Z</time></trkpt><trkpt lat="39.03316144863408" lon="16.118287148562306"><ele>27.0</ele><time>2026-04-27T13:13:08.999Z</time></trkpt><trkpt lat="39.0330393270204" lon="16.118373835541224"><ele>28.0</ele><time>2026-04-27T13:13:09.999Z</time></trkpt><trkpt lat="39.032928433725154" lon="16.118453351892708"><ele>29.0</ele><time>2026-04-27T13:13:10.999Z</time></trkpt><trkpt lat="39.032825826180144" lon="16.11852968140792"><ele>29.0</ele><time>2026-04-27T13:13:11.999Z</time></trkpt><trkpt lat="39.03273474696327" lon="16.118609755539406"><ele>29.0</ele><time>2026-04-27T13:13:13Z</time></trkpt><trkpt lat="39.032639665137765" lon="16.11869811877179"><ele>29.0</ele><time>2026-04-27T13:13:14Z</time></trkpt><trkpt lat="39.03254541050449" lon="16.118786901686438"><ele>29.0</ele><time>2026-04-27T13:13:15Z</time></trkpt><trkpt lat="39.0324613866948" lon="16.118866941688076"><ele>29.0</ele><time>2026-04-27T13:13:16Z</time></trkpt><trkpt lat="39.03238959464612" lon="16.11893949480068"><ele>28.833333333333332</ele><time>2026-04-27T13:13:17Z</time></trkpt><trkpt lat="39.03233626615103" lon="16.119004446580945"><ele>28.666666666666664</ele><time>2026-04-27T13:13:18Z</time></trkpt><trkpt lat="39.032297056421925" lon="16.119078368874984"><ele>28.5</ele><time>2026-04-27T13:13:19Z</time></trkpt><trkpt lat="39.0322704435058" lon="16.11920627902325"><ele>28.333333333333336</ele><time>2026-04-27T13:13:21Z</time></trkpt><trkpt lat="39.03229805707374" lon="16.11930842687149"><ele>28.166666666666668</ele><time>2026-04-27T13:13:24Z</time></trkpt><trkpt lat="39.03222575131327" lon="16.119266127519314"><ele>28.0</ele><time>2026-04-27T13:13:25Z</time></trkpt><trkpt lat="39.03233388296693" lon="16.119384013576788"><ele>28.75</ele><time>2026-04-27T13:13:26Z</time></trkpt><trkpt lat="39.03240290002721" lon="16.119403441963527"><ele>29.5</ele><time>2026-04-27T13:13:28Z</time></trkpt><trkpt lat="39.03250691532519" lon="16.119263675129012"><ele>30.25</ele><time>2026-04-27T13:13:29Z</time></trkpt><trkpt lat="39.032618239154715" lon="16.119172514728945"><ele>31.0</ele><time>2026-04-27T13:13:30Z</time></trkpt><trkpt lat="39.03274361576085" lon="16.11913219171451"><ele>30.5</ele><time>2026-04-27T13:13:31Z</time></trkpt><trkpt lat="39.0328640303801" lon="16.11907655394607"><ele>30.0</ele><time>2026-04-27T13:13:32Z</time></trkpt><trkpt lat="39.032989309487256" lon="16.118999799194658"><ele>29.5</ele><time>2026-04-27T13:13:33Z</time></trkpt><trkpt lat="39.03312123018776" lon="16.118934758631184"><ele>29.0</ele><time>2026-04-27T13:13:34Z</time></trkpt><trkpt lat="39.03326774533825" lon="16.118869484834434"><ele>29.0</ele><time>2026-04-27T13:13:35Z</time></trkpt><trkpt lat="39.03338947118283" lon="16.118823951395594"><ele>29.0</ele><time>2026-04-27T13:13:36Z</time></trkpt><trkpt lat="39.033525908836985" lon="16.118806143516284"><ele>29.0</ele><time>2026-04-27T13:13:37Z</time></trkpt><trkpt lat="39.033666235952744" lon="16.1187673596167"><ele>29.0</ele><time>2026-04-27T13:13:38Z</time></trkpt><trkpt lat="39.033804872546916" lon="16.11871124296425"><ele>29.0</ele><time>2026-04-27T13:13:39Z</time></trkpt><trkpt lat="39.03394904957647" lon="16.118683236208657"><ele>29.0</ele><time>2026-04-27T13:13:40Z</time></trkpt><trkpt lat="39.034085079248435" lon="16.11868826623445"><ele>29.0</ele><time>2026-04-27T13:13:41Z</time></trkpt><trkpt lat="39.034216484895765" lon="16.118717743241326"><ele>29.0</ele><time>2026-04-27T13:13:42Z</time></trkpt><trkpt lat="39.034361565290205" lon="16.118759308986384"><ele>29.0</ele><time>2026-04-27T13:13:43Z</time></trkpt><trkpt lat="39.03450791006277" lon="16.118795125970546"><ele>29.0</ele><time>2026-04-27T13:13:44Z</time></trkpt><trkpt lat="39.034638046731104" lon="16.11883015814628"><ele>29.0</ele><time>2026-04-27T13:13:44.999Z</time></trkpt><trkpt lat="39.03475533408086" lon="16.1188783723019"><ele>29.0</ele><time>2026-04-27T13:13:45.999Z</time></trkpt><trkpt lat="39.03486740621176" lon="16.118947795453757"><ele>29.0</ele><time>2026-04-27T13:13:46.999Z</time></trkpt><trkpt lat="39.0349646004491" lon="16.11904914672809"><ele>29.0</ele><time>2026-04-27T13:13:47.999Z</time></trkpt><trkpt lat="39.035067211781914" lon="16.11917474939988"><ele>29.0</ele><time>2026-04-27T13:13:48.999Z</time></trkpt><trkpt lat="39.03518567176999" lon="16.11931888053063"><ele>29.0</ele><time>2026-04-27T13:13:49.999Z</time></trkpt><trkpt lat="39.0353123154264" lon="16.119473436567112"><ele>33.666666666666664</ele><time>2026-04-27T13:13:50.999Z</time></trkpt><trkpt lat="39.03544656071449" lon="16.119636602755968"><ele>38.333333333333336</ele><time>2026-04-27T13:13:51.999Z</time></trkpt><trkpt lat="39.0355833033888" lon="16.119801998875822"><ele>43.0</ele><time>2026-04-27T13:13:52.999Z</time></trkpt><trkpt lat="39.03571485080276" lon="16.11996111106922"><ele>43.66666666666667</ele><time>2026-04-27T13:13:53.999Z</time></trkpt><trkpt lat="39.03584026944055" lon="16.12011281029442"><ele>44.333333333333336</ele><time>2026-04-27T13:13:54.999Z</time></trkpt><trkpt lat="39.03596380621847" lon="16.120262233276758"><ele>45.0</ele><time>2026-04-27T13:13:55.999Z</time></trkpt><trkpt lat="39.03608896311395" lon="16.12041361586365"><ele>45.0</ele><time>2026-04-27T13:13:56.999Z</time></trkpt><trkpt lat="39.03621457743269" lon="16.12057068054097"><ele>45.0</ele><time>2026-04-27T13:13:57.999Z</time></trkpt><trkpt lat="39.03634626817903" lon="16.12073375043755"><ele>45.0</ele><time>2026-04-27T13:13:58.999Z</time></trkpt><trkpt lat="39.03648526528438" lon="16.12090502597702"><ele>42.666666666666664</ele><time>2026-04-27T13:13:59.999Z</time></trkpt><trkpt lat="39.03662899590533" lon="16.12107901027041"><ele>40.33333333333333</ele><time>2026-04-27T13:14:00.999Z</time></trkpt><trkpt lat="39.03678121671379" lon="16.121263853635185"><ele>38.0</ele><time>2026-04-27T13:14:01.999Z</time></trkpt><trkpt lat="39.036932526012" lon="16.121450622320026"><ele>44.0</ele><time>2026-04-27T13:14:02.999Z</time></trkpt><trkpt lat="39.03707521945892" lon="16.121621637867577"><ele>50.0</ele><time>2026-04-27T13:14:03.999Z</time></trkpt><trkpt lat="39.0372078893038" lon="16.121775532890236"><ele>56.0</ele><time>2026-04-27T13:14:04.999Z</time></trkpt><trkpt lat="39.03733065016033" lon="16.121927774833743"><ele>56.0</ele><time>2026-04-27T13:14:05.999Z</time></trkpt><trkpt lat="39.03743846025028" lon="16.122061509738423"><ele>56.0</ele><time>2026-04-27T13:14:06.999Z</time></trkpt><trkpt lat="39.0375251479761" lon="16.122174442866292"><ele>56.0</ele><time>2026-04-27T13:14:07.999Z</time></trkpt><trkpt lat="39.037592516350045" lon="16.122311657201028"><ele>56.0</ele><time>2026-04-27T13:14:08.999Z</time></trkpt><trkpt lat="39.03765974750094" lon="16.12248012030672"><ele>54.66666666666667</ele><time>2026-04-27T13:14:09.999Z</time></trkpt><trkpt lat="39.037743861558305" lon="16.12268106859618"><ele>53.33333333333333</ele><time>2026-04-27T13:14:10.999Z</time></trkpt><trkpt lat="39.037831403675845" lon="16.122860335504942"><ele>52.0</ele><time>2026-04-27T13:14:11.999Z</time></trkpt><trkpt lat="39.03792425749793" lon="16.123014284207493"><ele>52.0</ele><time>2026-04-27T13:14:12.999Z</time></trkpt><trkpt lat="39.03801668145872" lon="16.12315458300989"><ele>52.0</ele><time>2026-04-27T13:14:13.999Z</time></trkpt><trkpt lat="39.03811361561845" lon="16.123289459641885"><ele>52.0</ele><time>2026-04-27T13:14:14.999Z</time></trkpt><trkpt lat="39.03823543231924" lon="16.123419336899797"><ele>52.0</ele><time>2026-04-27T13:14:15.999Z</time></trkpt><trkpt lat="39.03839846532342" lon="16.123512693268747"><ele>49.666666666666664</ele><time>2026-04-27T13:14:16.999Z</time></trkpt><trkpt lat="39.03858140625032" lon="16.123590603591357"><ele>47.33333333333333</ele><time>2026-04-27T13:14:17.999Z</time></trkpt><trkpt lat="39.03876241197243" lon="16.12367154352748"><ele>45.0</ele><time>2026-04-27T13:14:18.999Z</time></trkpt><trkpt lat="39.03894281473714" lon="16.123751086035398"><ele>45.0</ele><time>2026-04-27T13:14:19.999Z</time></trkpt><trkpt lat="39.03911865842844" lon="16.12382911011693"><ele>45.0</ele><time>2026-04-27T13:14:20.999Z</time></trkpt><trkpt lat="39.039285789132904" lon="16.12390569107622"><ele>45.0</ele><time>2026-04-27T13:14:21.999Z</time></trkpt><trkpt lat="39.03944365888779" lon="16.123971206737913"><ele>38.666666666666664</ele><time>2026-04-27T13:14:22.999Z</time></trkpt><trkpt lat="39.039603228512405" lon="16.12400633544341"><ele>32.33333333333333</ele><time>2026-04-27T13:14:23.999Z</time></trkpt><trkpt lat="39.03975644737412" lon="16.123995625138388"><ele>26.0</ele><time>2026-04-27T13:14:24.999Z</time></trkpt><trkpt lat="39.03991033945653" lon="16.12394673123014"><ele>25.25</ele><time>2026-04-27T13:14:25.999Z</time></trkpt><trkpt lat="39.040056659016194" lon="16.123904060592178"><ele>24.5</ele><time>2026-04-27T13:14:26.999Z</time></trkpt><trkpt lat="39.04019493585478" lon="16.123884247290054"><ele>23.75</ele><time>2026-04-27T13:14:27.999Z</time></trkpt><trkpt lat="39.04032582212418" lon="16.123883013588827"><ele>23.0</ele><time>2026-04-27T13:14:28.999Z</time></trkpt><trkpt lat="39.040447658914516" lon="16.123898334481396"><ele>23.0</ele><time>2026-04-27T13:14:29.999Z</time></trkpt><trkpt lat="39.04057361224145" lon="16.123935046003"><ele>23.0</ele><time>2026-04-27T13:14:30.999Z</time></trkpt><trkpt lat="39.04068858976126" lon="16.123982942930414"><ele>23.0</ele><time>2026-04-27T13:14:31.999Z</time></trkpt><trkpt lat="39.04079125844188" lon="16.124057443720073"><ele>23.0</ele><time>2026-04-27T13:14:32.999Z</time></trkpt><trkpt lat="39.04086834144674" lon="16.124114670910014"><ele>23.0</ele><time>2026-04-27T13:14:33.999Z</time></trkpt><trkpt lat="39.04099738976013" lon="16.12400138364778"><ele>23.0</ele><time>2026-04-27T13:14:35.999Z</time></trkpt><trkpt lat="39.04087135642737" lon="16.123991384545857"><ele>23.0</ele><time>2026-04-27T13:14:47.999Z</time></trkpt><trkpt lat="39.04081266372117" lon="16.124052943723427"><ele>23.0</ele><time>2026-04-27T13:14:48.999Z</time></trkpt><trkpt lat="39.04076278894758" lon="16.12416052098712"><ele>27.75</ele><time>2026-04-27T13:14:49.999Z</time></trkpt><trkpt lat="39.04071472434637" lon="16.124300432133072"><ele>32.5</ele><time>2026-04-27T13:14:50.999Z</time></trkpt><trkpt lat="39.04066017244248" lon="16.124419153676886"><ele>37.25</ele><time>2026-04-27T13:14:51.999Z</time></trkpt><trkpt lat="39.040578390510056" lon="16.124535805645028"><ele>42.0</ele><time>2026-04-27T13:14:52.999Z</time></trkpt><trkpt lat="39.04045862478434" lon="16.124623216019206"><ele>42.0</ele><time>2026-04-27T13:14:53.999Z</time></trkpt><trkpt lat="39.04036714914212" lon="16.124741648402612"><ele>42.0</ele><time>2026-04-27T13:14:54.999Z</time></trkpt><trkpt lat="39.04027862402438" lon="16.12486033082748"><ele>42.0</ele><time>2026-04-27T13:14:55.999Z</time></trkpt><trkpt lat="39.04019055540473" lon="16.124978401254513"><ele>42.0</ele><time>2026-04-27T13:14:56.999Z</time></trkpt><trkpt lat="39.040102968011105" lon="16.125095840315275"><ele>43.25</ele><time>2026-04-27T13:14:57.999Z</time></trkpt><trkpt lat="39.04001914323962" lon="16.125229142451982"><ele>44.5</ele><time>2026-04-27T13:14:58.999Z</time></trkpt><trkpt lat="39.03994150516299" lon="16.12536705142618"><ele>45.75</ele><time>2026-04-27T13:14:59.999Z</time></trkpt><trkpt lat="39.03986828821633" lon="16.12549673584005"><ele>47.0</ele><time>2026-04-27T13:15:00.999Z</time></trkpt><trkpt lat="39.03979887731805" lon="16.1256220811043"><ele>57.5</ele><time>2026-04-27T13:15:01.999Z</time></trkpt><trkpt lat="39.03973902972833" lon="16.125762591274622"><ele>68.0</ele><time>2026-04-27T13:15:02.999Z</time></trkpt><trkpt lat="39.03968613857055" lon="16.125929007016357"><ele>78.5</ele><time>2026-04-27T13:15:03.999Z</time></trkpt><trkpt lat="39.039652235336035" lon="16.12610386060896"><ele>89.0</ele><time>2026-04-27T13:15:04.999Z</time></trkpt><trkpt lat="39.03963049497672" lon="16.126287963621888"><ele>89.0</ele><time>2026-04-27T13:15:05.999Z</time></trkpt><trkpt lat="39.03961494197063" lon="16.126471037710527"><ele>89.0</ele><time>2026-04-27T13:15:06.999Z</time></trkpt><trkpt lat="39.03961369763097" lon="16.12664107448046"><ele>89.0</ele><time>2026-04-27T13:15:07.999Z</time></trkpt><trkpt lat="39.039620791626554" lon="16.12680799088753"><ele>89.0</ele><time>2026-04-27T13:15:08.999Z</time></trkpt><trkpt lat="39.039640281598935" lon="16.12699066498273"><ele>88.0</ele><time>2026-04-27T13:15:09.999Z</time></trkpt><trkpt lat="39.03968538966266" lon="16.127206247203535"><ele>87.0</ele><time>2026-04-27T13:15:10.999Z</time></trkpt><trkpt lat="39.03973942864206" lon="16.12740488686508"><ele>86.0</ele><time>2026-04-27T13:15:11.999Z</time></trkpt><trkpt lat="39.03980006265199" lon="16.12760219772477"><ele>84.66666666666667</ele><time>2026-04-27T13:15:12.999Z</time></trkpt><trkpt lat="39.03987366728776" lon="16.127820965150473"><ele>83.33333333333333</ele><time>2026-04-27T13:15:13.999Z</time></trkpt><trkpt lat="39.03994306623173" lon="16.128029229634134"><ele>82.0</ele><time>2026-04-27T13:15:14.999Z</time></trkpt><trkpt lat="39.03999195057204" lon="16.12820914957401"><ele>72.0</ele><time>2026-04-27T13:15:15.999Z</time></trkpt><trkpt lat="39.04001174649976" lon="16.128387529904913"><ele>62.0</ele><time>2026-04-27T13:15:16.999Z</time></trkpt><trkpt lat="39.04001903585817" lon="16.128581247250196"><ele>52.0</ele><time>2026-04-27T13:15:17.999Z</time></trkpt><trkpt lat="39.040011503663074" lon="16.128769687997586"><ele>42.0</ele><time>2026-04-27T13:15:19Z</time></trkpt><trkpt lat="39.039978133751326" lon="16.128955931027367"><ele>57.33333333333333</ele><time>2026-04-27T13:15:20Z</time></trkpt><trkpt lat="39.03993446489654" lon="16.12915473878801"><ele>72.66666666666666</ele><time>2026-04-27T13:15:21Z</time></trkpt><trkpt lat="39.039857506210176" lon="16.129337359952334"><ele>88.0</ele><time>2026-04-27T13:15:22Z</time></trkpt><trkpt lat="39.03977242313538" lon="16.129517399063577"><ele>88.0</ele><time>2026-04-27T13:15:23Z</time></trkpt><trkpt lat="39.03965949978172" lon="16.129680622638524"><ele>88.0</ele><time>2026-04-27T13:15:24Z</time></trkpt><trkpt lat="39.0395560264527" lon="16.129867630290814"><ele>88.0</ele><time>2026-04-27T13:15:25Z</time></trkpt><trkpt lat="39.03945020308327" lon="16.130067831444602"><ele>92.33333333333333</ele><time>2026-04-27T13:15:26Z</time></trkpt><trkpt lat="39.03933354299777" lon="16.130286746547032"><ele>96.66666666666666</ele><time>2026-04-27T13:15:27Z</time></trkpt><trkpt lat="39.03922155534314" lon="16.13049292648219"><ele>101.0</ele><time>2026-04-27T13:15:28Z</time></trkpt><trkpt lat="39.03912126829484" lon="16.13067766020356"><ele>94.0</ele><time>2026-04-27T13:15:29Z</time></trkpt><trkpt lat="39.03903300142884" lon="16.13086873735651"><ele>87.0</ele><time>2026-04-27T13:15:30Z</time></trkpt><trkpt lat="39.038928803032924" lon="16.131057242819683"><ele>80.0</ele><time>2026-04-27T13:15:31Z</time></trkpt><trkpt lat="39.038827020938676" lon="16.13126340566295"><ele>80.0</ele><time>2026-04-27T13:15:32Z</time></trkpt><trkpt lat="39.038734183739734" lon="16.131478407419245"><ele>80.0</ele><time>2026-04-27T13:15:33Z</time></trkpt><trkpt lat="39.03864037757662" lon="16.131688414991682"><ele>80.0</ele><time>2026-04-27T13:15:34Z</time></trkpt><trkpt lat="39.03858645366034" lon="16.131904297699272"><ele>77.0</ele><time>2026-04-27T13:15:35Z</time></trkpt><trkpt lat="39.03855107605508" lon="16.132123711437284"><ele>74.0</ele><time>2026-04-27T13:15:36Z</time></trkpt><trkpt lat="39.038534853168535" lon="16.13233969468983"><ele>71.0</ele><time>2026-04-27T13:15:37Z</time></trkpt><trkpt lat="39.03853547557498" lon="16.132565821565386"><ele>69.33333333333334</ele><time>2026-04-27T13:15:38Z</time></trkpt><trkpt lat="39.0385554941866" lon="16.13279691459966"><ele>67.66666666666667</ele><time>2026-04-27T13:15:39Z</time></trkpt><trkpt lat="39.03859558536438" lon="16.133022026882596"><ele>66.0</ele><time>2026-04-27T13:15:40Z</time></trkpt><trkpt lat="39.038665584755535" lon="16.133221130324372"><ele>68.33333333333333</ele><time>2026-04-27T13:15:41Z</time></trkpt><trkpt lat="39.038711905965094" lon="16.133431689035483"><ele>70.66666666666666</ele><time>2026-04-27T13:15:42Z</time></trkpt><trkpt lat="39.03877990981778" lon="16.13364922078878"><ele>73.0</ele><time>2026-04-27T13:15:43Z</time></trkpt><trkpt lat="39.03885652965811" lon="16.133885134326334"><ele>77.33333333333333</ele><time>2026-04-27T13:15:44Z</time></trkpt><trkpt lat="39.0389372529768" lon="16.134135953075248"><ele>81.66666666666667</ele><time>2026-04-27T13:15:45Z</time></trkpt><trkpt lat="39.03901730169587" lon="16.134390338590013"><ele>86.0</ele><time>2026-04-27T13:15:46Z</time></trkpt><trkpt lat="39.039094671151574" lon="16.134636904298244"><ele>76.66666666666667</ele><time>2026-04-27T13:15:46.999Z</time></trkpt><trkpt lat="39.03916720002893" lon="16.134868043703342"><ele>67.33333333333333</ele><time>2026-04-27T13:15:47.999Z</time></trkpt><trkpt lat="39.039241354576795" lon="16.135099281176167"><ele>58.0</ele><time>2026-04-27T13:15:48.999Z</time></trkpt><trkpt lat="39.03933088845333" lon="16.135332060815433"><ele>58.0</ele><time>2026-04-27T13:15:49.999Z</time></trkpt><trkpt lat="39.03943008870313" lon="16.135557238561656"><ele>58.0</ele><time>2026-04-27T13:15:50.999Z</time></trkpt><trkpt lat="39.039548514972886" lon="16.135787409709696"><ele>58.0</ele><time>2026-04-27T13:15:51.999Z</time></trkpt><trkpt lat="39.039680291182044" lon="16.136007893613375"><ele>59.33333333333333</ele><time>2026-04-27T13:15:52.999Z</time></trkpt><trkpt lat="39.039821176870824" lon="16.13620556136515"><ele>60.66666666666667</ele><time>2026-04-27T13:15:53.999Z</time></trkpt><trkpt lat="39.03996239129688" lon="16.136400236983665"><ele>62.0</ele><time>2026-04-27T13:15:54.999Z</time></trkpt><trkpt lat="39.04010705076499" lon="16.136581435408335"><ele>62.0</ele><time>2026-04-27T13:15:55.999Z</time></trkpt><trkpt lat="39.0402541247963" lon="16.13674897291605"><ele>62.0</ele><time>2026-04-27T13:15:56.999Z</time></trkpt><trkpt lat="39.04040728243235" lon="16.136914442554502"><ele>62.0</ele><time>2026-04-27T13:15:57.999Z</time></trkpt><trkpt lat="39.04055845789" lon="16.137074787171628"><ele>62.0</ele><time>2026-04-27T13:15:58.999Z</time></trkpt><trkpt lat="39.04070970205416" lon="16.13723291750313"><ele>62.0</ele><time>2026-04-27T13:15:59.999Z</time></trkpt><trkpt lat="39.040840804468885" lon="16.137363268470985"><ele>62.0</ele><time>2026-04-27T13:16:00.999Z</time></trkpt><trkpt lat="39.04095765202589" lon="16.137469553478294"><ele>61.0</ele><time>2026-04-27T13:16:01.999Z</time></trkpt><trkpt lat="39.0410677156467" lon="16.137564119573746"><ele>60.0</ele><time>2026-04-27T13:16:02.999Z</time></trkpt><trkpt lat="39.04115860773315" lon="16.137666556967574"><ele>59.0</ele><time>2026-04-27T13:16:03.999Z</time></trkpt><trkpt lat="39.04125194312535" lon="16.137779678409096"><ele>58.0</ele><time>2026-04-27T13:16:04.999Z</time></trkpt><trkpt lat="39.041342819224134" lon="16.13788981925063"><ele>58.0</ele><time>2026-04-27T13:16:05.999Z</time></trkpt><trkpt lat="39.04143878377269" lon="16.137998489418443"><ele>58.0</ele><time>2026-04-27T13:16:06.999Z</time></trkpt><trkpt lat="39.041556078312965" lon="16.138125093441708"><ele>58.0</ele><time>2026-04-27T13:16:07.999Z</time></trkpt><trkpt lat="39.041676822070336" lon="16.138252518803913"><ele>58.0</ele><time>2026-04-27T13:16:08.999Z</time></trkpt><trkpt lat="39.0418095876241" lon="16.138392631172056"><ele>58.0</ele><time>2026-04-27T13:16:09.999Z</time></trkpt><trkpt lat="39.04195766793339" lon="16.138549766120672"><ele>58.0</ele><time>2026-04-27T13:16:10.999Z</time></trkpt><trkpt lat="39.04210437027027" lon="16.138707685887866"><ele>58.0</ele><time>2026-04-27T13:16:11.999Z</time></trkpt><trkpt lat="39.04222753899941" lon="16.138853712546307"><ele>58.0</ele><time>2026-04-27T13:16:12.999Z</time></trkpt><trkpt lat="39.04233495376142" lon="16.139012723832547"><ele>58.0</ele><time>2026-04-27T13:16:13.999Z</time></trkpt><trkpt lat="39.04242715347684" lon="16.139180788463335"><ele>58.0</ele><time>2026-04-27T13:16:14.999Z</time></trkpt><trkpt lat="39.0425022715493" lon="16.13936594645363"><ele>57.666666666666664</ele><time>2026-04-27T13:16:15.999Z</time></trkpt><trkpt lat="39.04256344712887" lon="16.139573649816313"><ele>57.33333333333333</ele><time>2026-04-27T13:16:16.999Z</time></trkpt><trkpt lat="39.04260540110824" lon="16.139798366902927"><ele>57.0</ele><time>2026-04-27T13:16:17.999Z</time></trkpt><trkpt lat="39.04262129910253" lon="16.140010339100712"><ele>59.75</ele><time>2026-04-27T13:16:18.999Z</time></trkpt><trkpt lat="39.0426277404888" lon="16.14018401821778"><ele>62.5</ele><time>2026-04-27T13:16:19.999Z</time></trkpt><trkpt lat="39.04263268282377" lon="16.140354155715386"><ele>65.25</ele><time>2026-04-27T13:16:20.999Z</time></trkpt><trkpt lat="39.04263807058853" lon="16.14054863083817"><ele>68.0</ele><time>2026-04-27T13:16:21.999Z</time></trkpt><trkpt lat="39.04264994569813" lon="16.1407708100616"><ele>71.66666666666667</ele><time>2026-04-27T13:16:22.999Z</time></trkpt><trkpt lat="39.04267043606682" lon="16.14101513010026"><ele>75.33333333333333</ele><time>2026-04-27T13:16:23.999Z</time></trkpt><trkpt lat="39.04271271434139" lon="16.14124676895147"><ele>79.0</ele><time>2026-04-27T13:16:24.999Z</time></trkpt><trkpt lat="39.0427698743957" lon="16.141460296922048"><ele>81.33333333333333</ele><time>2026-04-27T13:16:25.999Z</time></trkpt><trkpt lat="39.04282832473594" lon="16.141653835440618"><ele>83.66666666666667</ele><time>2026-04-27T13:16:26.999Z</time></trkpt><trkpt lat="39.04288918363406" lon="16.141838428560362"><ele>86.0</ele><time>2026-04-27T13:16:27.999Z</time></trkpt><trkpt lat="39.042962672527416" lon="16.142007707091302"><ele>86.0</ele><time>2026-04-27T13:16:28.999Z</time></trkpt><trkpt lat="39.04304543552338" lon="16.142151103499288"><ele>86.0</ele><time>2026-04-27T13:16:29.999Z</time></trkpt><trkpt lat="39.0431488894451" lon="16.14228945945673"><ele>86.0</ele><time>2026-04-27T13:16:30.999Z</time></trkpt><trkpt lat="39.043282589127195" lon="16.14243123354607"><ele>78.66666666666667</ele><time>2026-04-27T13:16:31.999Z</time></trkpt><trkpt lat="39.04342678509677" lon="16.14256403287212"><ele>71.33333333333333</ele><time>2026-04-27T13:16:32.999Z</time></trkpt><trkpt lat="39.043585562852826" lon="16.142684271541842"><ele>64.0</ele><time>2026-04-27T13:16:33.999Z</time></trkpt><trkpt lat="39.04373235986535" lon="16.14279927697758"><ele>64.0</ele><time>2026-04-27T13:16:34.999Z</time></trkpt><trkpt lat="39.0438803598443" lon="16.142916228620845"><ele>64.0</ele><time>2026-04-27T13:16:35.999Z</time></trkpt><trkpt lat="39.04402868374472" lon="16.14302147591044"><ele>64.0</ele><time>2026-04-27T13:16:36.999Z</time></trkpt><trkpt lat="39.044173046257846" lon="16.143121996928997"><ele>64.33333333333333</ele><time>2026-04-27T13:16:37.999Z</time></trkpt><trkpt lat="39.04432444564157" lon="16.143232220611193"><ele>64.66666666666667</ele><time>2026-04-27T13:16:38.999Z</time></trkpt><trkpt lat="39.04448226282607" lon="16.14335056891116"><ele>65.0</ele><time>2026-04-27T13:16:39.999Z</time></trkpt><trkpt lat="39.04463976520083" lon="16.143470370101536"><ele>65.0</ele><time>2026-04-27T13:16:40.999Z</time></trkpt><trkpt lat="39.04479811375088" lon="16.143589408375316"><ele>65.0</ele><time>2026-04-27T13:16:41.999Z</time></trkpt><trkpt lat="39.044955529001875" lon="16.143707987471664"><ele>65.0</ele><time>2026-04-27T13:16:42.999Z</time></trkpt><trkpt lat="39.04511717953297" lon="16.14383008053926"><ele>62.0</ele><time>2026-04-27T13:16:43.999Z</time></trkpt><trkpt lat="39.04527138565265" lon="16.14394709714046"><ele>59.0</ele><time>2026-04-27T13:16:44.999Z</time></trkpt><trkpt lat="39.045416671857495" lon="16.144057344913524"><ele>56.0</ele><time>2026-04-27T13:16:45.999Z</time></trkpt><trkpt lat="39.04555792575784" lon="16.144161166385405"><ele>56.0</ele><time>2026-04-27T13:16:46.999Z</time></trkpt><trkpt lat="39.04569382117733" lon="16.144260066800552"><ele>56.0</ele><time>2026-04-27T13:16:47.999Z</time></trkpt><trkpt lat="39.04583022882606" lon="16.14435825654053"><ele>56.0</ele><time>2026-04-27T13:16:48.999Z</time></trkpt><trkpt lat="39.04595871175192" lon="16.144449126186682"><ele>56.0</ele><time>2026-04-27T13:16:49.999Z</time></trkpt><trkpt lat="39.04607942429888" lon="16.144521608975705"><ele>56.0</ele><time>2026-04-27T13:16:50.999Z</time></trkpt><trkpt lat="39.04621151927066" lon="16.14457916028053"><ele>56.0</ele><time>2026-04-27T13:16:51.999Z</time></trkpt><trkpt lat="39.0463489662641" lon="16.144628675558437"><ele>56.0</ele><time>2026-04-27T13:16:52.999Z</time></trkpt><trkpt lat="39.046504840142134" lon="16.144674133638247"><ele>54.0</ele><time>2026-04-27T13:16:53.999Z</time></trkpt><trkpt lat="39.04665815392568" lon="16.14471317644187"><ele>52.0</ele><time>2026-04-27T13:16:54.999Z</time></trkpt><trkpt lat="39.046793232052536" lon="16.14474747981782"><ele>50.0</ele><time>2026-04-27T13:16:55.999Z</time></trkpt><trkpt lat="39.04691876995569" lon="16.14477915413174"><ele>48.0</ele><time>2026-04-27T13:16:56.999Z</time></trkpt><trkpt lat="39.04704514191107" lon="16.14481103889915"><ele>48.0</ele><time>2026-04-27T13:16:57.999Z</time></trkpt><trkpt lat="39.04715455388924" lon="16.14484006284084"><ele>48.0</ele><time>2026-04-27T13:16:58.999Z</time></trkpt><trkpt lat="39.04725787732381" lon="16.144867962338992"><ele>48.0</ele><time>2026-04-27T13:16:59.999Z</time></trkpt><trkpt lat="39.04737299056735" lon="16.144900529895555"><ele>48.0</ele><time>2026-04-27T13:17:00.999Z</time></trkpt><trkpt lat="39.04751596646645" lon="16.144942657932717"><ele>54.66666666666667</ele><time>2026-04-27T13:17:01.999Z</time></trkpt><trkpt lat="39.0476720846954" lon="16.144994018599274"><ele>61.333333333333336</ele><time>2026-04-27T13:17:02.999Z</time></trkpt><trkpt lat="39.04783546233788" lon="16.145075219889318"><ele>68.0</ele><time>2026-04-27T13:17:03.999Z</time></trkpt><trkpt lat="39.04801117859653" lon="16.14518912571085"><ele>68.0</ele><time>2026-04-27T13:17:04.999Z</time></trkpt><trkpt lat="39.048172915159604" lon="16.145306211729256"><ele>68.0</ele><time>2026-04-27T13:17:05.999Z</time></trkpt><trkpt lat="39.04833443572896" lon="16.145435204292802"><ele>68.0</ele><time>2026-04-27T13:17:06.999Z</time></trkpt><trkpt lat="39.04850382351225" lon="16.145580583194405"><ele>69.0</ele><time>2026-04-27T13:17:07.999Z</time></trkpt><trkpt lat="39.048677656287616" lon="16.145724976522875"><ele>70.0</ele><time>2026-04-27T13:17:08.999Z</time></trkpt><trkpt lat="39.04884209649846" lon="16.145861242413986"><ele>71.0</ele><time>2026-04-27T13:17:09.999Z</time></trkpt><trkpt lat="39.04897799623451" lon="16.145973721463612"><ele>71.0</ele><time>2026-04-27T13:17:10.999Z</time></trkpt><trkpt lat="39.04909823842444" lon="16.146072037055838"><ele>71.0</ele><time>2026-04-27T13:17:11.999Z</time></trkpt><trkpt lat="39.049214477187384" lon="16.146167079250752"><ele>71.0</ele><time>2026-04-27T13:17:12.999Z</time></trkpt><trkpt lat="39.049342655924924" lon="16.146271947338185"><ele>71.0</ele><time>2026-04-27T13:17:13.999Z</time></trkpt><trkpt lat="39.04947983055004" lon="16.14638690324684"><ele>69.25</ele><time>2026-04-27T13:17:14.999Z</time></trkpt><trkpt lat="39.04960877936861" lon="16.14649528665227"><ele>67.5</ele><time>2026-04-27T13:17:15.999Z</time></trkpt><trkpt lat="39.049735148754294" lon="16.146605198415347"><ele>65.75</ele><time>2026-04-27T13:17:16.999Z</time></trkpt><trkpt lat="39.04984884657821" lon="16.146705050014134"><ele>64.0</ele><time>2026-04-27T13:17:17.999Z</time></trkpt><trkpt lat="39.049962595145615" lon="16.146805988367507"><ele>64.0</ele><time>2026-04-27T13:17:18.999Z</time></trkpt><trkpt lat="39.05007925519952" lon="16.146909510340432"><ele>64.0</ele><time>2026-04-27T13:17:19.999Z</time></trkpt><trkpt lat="39.0501864298421" lon="16.147005801376167"><ele>64.0</ele><time>2026-04-27T13:17:20.999Z</time></trkpt><trkpt lat="39.05028050052162" lon="16.147090423203025"><ele>64.0</ele><time>2026-04-27T13:17:21.999Z</time></trkpt><trkpt lat="39.050371837013344" lon="16.14717258535034"><ele>63.99999999999999</ele><time>2026-04-27T13:17:22.999Z</time></trkpt><trkpt lat="39.050455551118276" lon="16.147245739590677"><ele>64.0</ele><time>2026-04-27T13:17:23.999Z</time></trkpt><trkpt lat="39.05052580865649" lon="16.147306026300313"><ele>64.0</ele><time>2026-04-27T13:17:25Z</time></trkpt><trkpt lat="39.0505972923965" lon="16.147365905037372"><ele>64.0</ele><time>2026-04-27T13:17:26Z</time></trkpt><trkpt lat="39.05066061452847" lon="16.14741823694608"><ele>63.99999999999999</ele><time>2026-04-27T13:17:27Z</time></trkpt><trkpt lat="39.05073356929969" lon="16.147477651139848"><ele>64.0</ele><time>2026-04-27T13:17:28Z</time></trkpt><trkpt lat="39.050811908909544" lon="16.147541450810085"><ele>63.75</ele><time>2026-04-27T13:17:29Z</time></trkpt><trkpt lat="39.05090867318034" lon="16.14761691737313"><ele>63.5</ele><time>2026-04-27T13:17:30Z</time></trkpt><trkpt lat="39.05101082075736" lon="16.147695867674372"><ele>63.25</ele><time>2026-04-27T13:17:31Z</time></trkpt><trkpt lat="39.05111340108252" lon="16.14778538219864"><ele>63.0</ele><time>2026-04-27T13:17:32Z</time></trkpt><trkpt lat="39.051222368376386" lon="16.14788785310536"><ele>63.0</ele><time>2026-04-27T13:17:33Z</time></trkpt><trkpt lat="39.05134566065657" lon="16.14799771692732"><ele>63.0</ele><time>2026-04-27T13:17:34Z</time></trkpt><trkpt lat="39.0514652614172" lon="16.14809493467769"><ele>63.0</ele><time>2026-04-27T13:17:35Z</time></trkpt><trkpt lat="39.05157844387639" lon="16.148187477701104"><ele>63.0</ele><time>2026-04-27T13:17:36Z</time></trkpt><trkpt lat="39.05168838325482" lon="16.148288598747065"><ele>63.25</ele><time>2026-04-27T13:17:37Z</time></trkpt><trkpt lat="39.05179252651944" lon="16.14838030939395"><ele>63.5</ele><time>2026-04-27T13:17:38Z</time></trkpt><trkpt lat="39.05190186596435" lon="16.14845847292322"><ele>63.75</ele><time>2026-04-27T13:17:39Z</time></trkpt><trkpt lat="39.05202892766738" lon="16.148524874481108"><ele>64.0</ele><time>2026-04-27T13:17:40Z</time></trkpt><trkpt lat="39.05216232226067" lon="16.148579649439633"><ele>64.0</ele><time>2026-04-27T13:17:41Z</time></trkpt><trkpt lat="39.05232790562577" lon="16.148626923409218"><ele>64.0</ele><time>2026-04-27T13:17:42Z</time></trkpt><trkpt lat="39.05249669557689" lon="16.148663859129602"><ele>64.0</ele><time>2026-04-27T13:17:43Z</time></trkpt><trkpt lat="39.05266575805791" lon="16.148694414019797"><ele>61.666666666666664</ele><time>2026-04-27T13:17:44Z</time></trkpt><trkpt lat="39.052850289586864" lon="16.14872519614656"><ele>59.33333333333333</ele><time>2026-04-27T13:17:45Z</time></trkpt><trkpt lat="39.05301063397117" lon="16.148751568935"><ele>57.0</ele><time>2026-04-27T13:17:46Z</time></trkpt><trkpt lat="39.05314016447764" lon="16.14877383822713"><ele>57.0</ele><time>2026-04-27T13:17:47Z</time></trkpt><trkpt lat="39.053262449479554" lon="16.148794740781646"><ele>57.0</ele><time>2026-04-27T13:17:48Z</time></trkpt><trkpt lat="39.0533958224204" lon="16.14882446090754"><ele>57.0</ele><time>2026-04-27T13:17:49Z</time></trkpt><trkpt lat="39.05354986176752" lon="16.14886284795689"><ele>57.0</ele><time>2026-04-27T13:17:50Z</time></trkpt><trkpt lat="39.05371208856701" lon="16.14889415465202"><ele>56.25</ele><time>2026-04-27T13:17:51Z</time></trkpt><trkpt lat="39.05385714409473" lon="16.148914378793055"><ele>55.5</ele><time>2026-04-27T13:17:51.999Z</time></trkpt><trkpt lat="39.05399083657655" lon="16.14893495306796"><ele>54.75</ele><time>2026-04-27T13:17:52.999Z</time></trkpt><trkpt lat="39.05408991345918" lon="16.148953404194625"><ele>54.0</ele><time>2026-04-27T13:17:53.999Z</time></trkpt><trkpt lat="39.054169749225395" lon="16.14897139580217"><ele>53.400000000000006</ele><time>2026-04-27T13:17:54.999Z</time></trkpt><trkpt lat="39.05427619969855" lon="16.148995451368016"><ele>52.800000000000004</ele><time>2026-04-27T13:17:56.999Z</time></trkpt><trkpt lat="39.05422648348102" lon="16.149100150948065"><ele>52.2</ele><time>2026-04-27T13:17:57.999Z</time></trkpt><trkpt lat="39.05428620429953" lon="16.14919140561871"><ele>51.599999999999994</ele><time>2026-04-27T13:17:58.999Z</time></trkpt><trkpt lat="39.05436819916205" lon="16.14929206035101"><ele>51.0</ele><time>2026-04-27T13:17:59.999Z</time></trkpt><trkpt lat="39.05443899985166" lon="16.149373404386402"><ele>54.0</ele><time>2026-04-27T13:18:00.999Z</time></trkpt><trkpt lat="39.05450715886114" lon="16.149451322580838"><ele>57.0</ele><time>2026-04-27T13:18:01.999Z</time></trkpt><trkpt lat="39.05460890936367" lon="16.149564852002026"><ele>59.99999999999999</ele><time>2026-04-27T13:18:02.999Z</time></trkpt><trkpt lat="39.05470129250783" lon="16.149670066464605"><ele>63.0</ele><time>2026-04-27T13:18:03.999Z</time></trkpt><trkpt lat="39.054756207871606" lon="16.149751817189063"><ele>66.0</ele><time>2026-04-27T13:18:04.999Z</time></trkpt><trkpt lat="39.054794021622484" lon="16.149835951665313"><ele>69.0</ele><time>2026-04-27T13:18:05.999Z</time></trkpt><trkpt lat="39.05481525883719" lon="16.14991551964801"><ele>72.0</ele><time>2026-04-27T13:18:06.999Z</time></trkpt><trkpt lat="39.05481456753378" lon="16.150046701898543"><ele>75.0</ele><time>2026-04-27T13:18:08.999Z</time></trkpt><trkpt lat="39.05475038897322" lon="16.150075998231337"><ele>78.0</ele><time>2026-04-27T13:18:10.999Z</time></trkpt><trkpt lat="39.0546811477768" lon="16.15003785048936"><ele>81.0</ele><time>2026-04-27T13:18:11.999Z</time></trkpt><trkpt lat="39.05460299623346" lon="16.149987016245174"><ele>84.0</ele><time>2026-04-27T13:18:12.999Z</time></trkpt><trkpt lat="39.05451423727176" lon="16.149919000033293"><ele>80.4</ele><time>2026-04-27T13:18:13.999Z</time></trkpt><trkpt lat="39.054417316358126" lon="16.149852888900448"><ele>76.80000000000001</ele><time>2026-04-27T13:18:14.999Z</time></trkpt><trkpt lat="39.05432402029285" lon="16.149796863130593"><ele>73.19999999999999</ele><time>2026-04-27T13:18:15.999Z</time></trkpt><trkpt lat="39.05422155163499" lon="16.149736653147635"><ele>69.6</ele><time>2026-04-27T13:18:16.999Z</time></trkpt><trkpt lat="39.05411640466936" lon="16.14967904392449"><ele>66.0</ele><time>2026-04-27T13:18:17.999Z</time></trkpt><trkpt lat="39.05402646650849" lon="16.149648523364156"><ele>66.0</ele><time>2026-04-27T13:18:18.999Z</time></trkpt><trkpt lat="39.053969265065604" lon="16.14958861863264"><ele>66.0</ele><time>2026-04-27T13:18:19.999Z</time></trkpt><trkpt lat="39.05386764252202" lon="16.149555554787252"><ele>66.0</ele><time>2026-04-27T13:18:21.999Z</time></trkpt><trkpt lat="39.05379844462859" lon="16.149671119532638"><ele>66.0</ele><time>2026-04-27T13:18:23.999Z</time></trkpt><trkpt lat="39.0538017244239" lon="16.149765978045327"><ele>66.0</ele><time>2026-04-27T13:18:24.999Z</time></trkpt><trkpt lat="39.05382894857732" lon="16.14987658700052"><ele>69.19999999999999</ele><time>2026-04-27T13:18:25.999Z</time></trkpt><trkpt lat="39.05386682508385" lon="16.15002228845153"><ele>72.39999999999999</ele><time>2026-04-27T13:18:26.999Z</time></trkpt><trkpt lat="39.05390849622025" lon="16.15014780198399"><ele>75.6</ele><time>2026-04-27T13:18:27.999Z</time></trkpt><trkpt lat="39.05394766406181" lon="16.15026577532504"><ele>78.8</ele><time>2026-04-27T13:18:28.999Z</time></trkpt><trkpt lat="39.053980708198274" lon="16.150381806808447"><ele>82.0</ele><time>2026-04-27T13:18:29.999Z</time></trkpt><trkpt lat="39.054004535738684" lon="16.150508895780096"><ele>82.0</ele><time>2026-04-27T13:18:30.999Z</time></trkpt><trkpt lat="39.05404132092001" lon="16.150636332492088"><ele>82.0</ele><time>2026-04-27T13:18:31.999Z</time></trkpt><trkpt lat="39.05409022701266" lon="16.150740926471883"><ele>82.0</ele><time>2026-04-27T13:18:32.999Z</time></trkpt><trkpt lat="39.05409228725966" lon="16.150868404161116"><ele>82.0</ele><time>2026-04-27T13:18:33.999Z</time></trkpt><trkpt lat="39.05409827213429" lon="16.15099975537138"><ele>82.0</ele><time>2026-04-27T13:18:34.999Z</time></trkpt><trkpt lat="39.05409554728067" lon="16.151114654907328"><ele>85.16666666666666</ele><time>2026-04-27T13:18:35.999Z</time></trkpt><trkpt lat="39.054078529503926" lon="16.151219726314796"><ele>88.33333333333333</ele><time>2026-04-27T13:18:36.999Z</time></trkpt><trkpt lat="39.05405030293069" lon="16.151330712707843"><ele>91.5</ele><time>2026-04-27T13:18:37.999Z</time></trkpt><trkpt lat="39.0540203686578" lon="16.15143352831791"><ele>94.66666666666666</ele><time>2026-04-27T13:18:38.999Z</time></trkpt><trkpt lat="39.05398606704758" lon="16.151519631442444"><ele>97.83333333333333</ele><time>2026-04-27T13:18:39.999Z</time></trkpt><trkpt lat="39.05395301766967" lon="16.151609732487"><ele>101.0</ele><time>2026-04-27T13:18:40.999Z</time></trkpt><trkpt lat="39.05391784199436" lon="16.15172836272147"><ele>101.33333333333333</ele><time>2026-04-27T13:18:42.999Z</time></trkpt><trkpt lat="39.053930443737926" lon="16.15181661275088"><ele>101.66666666666666</ele><time>2026-04-27T13:18:43.999Z</time></trkpt><trkpt lat="39.053982443397935" lon="16.151914499001357"><ele>102.0</ele><time>2026-04-27T13:18:44.999Z</time></trkpt><trkpt lat="39.054075783968415" lon="16.1519807648461"><ele>102.33333333333334</ele><time>2026-04-27T13:18:45.999Z</time></trkpt><trkpt lat="39.05414700399536" lon="16.152029075185443"><ele>102.66666666666667</ele><time>2026-04-27T13:18:46.999Z</time></trkpt><trkpt lat="39.05421635092949" lon="16.15207864654959"><ele>103.0</ele><time>2026-04-27T13:18:47.999Z</time></trkpt><trkpt lat="39.05428463595063" lon="16.152159167209305"><ele>103.0</ele><time>2026-04-27T13:18:48.999Z</time></trkpt><trkpt lat="39.054355742861944" lon="16.152261959966435"><ele>103.0</ele><time>2026-04-27T13:18:49.999Z</time></trkpt><trkpt lat="39.05442489987322" lon="16.152342508470845"><ele>103.0</ele><time>2026-04-27T13:18:50.999Z</time></trkpt><trkpt lat="39.05449288236713" lon="16.152399164158776"><ele>103.0</ele><time>2026-04-27T13:18:51.999Z</time></trkpt><trkpt lat="39.05459914667321" lon="16.152423946250014"><ele>103.0</ele><time>2026-04-27T13:18:52.999Z</time></trkpt><trkpt lat="39.05468847493315" lon="16.152452054844957"><ele>105.33333333333334</ele><time>2026-04-27T13:18:53.999Z</time></trkpt><trkpt lat="39.054780498866016" lon="16.152477218236648"><ele>107.66666666666667</ele><time>2026-04-27T13:18:54.999Z</time></trkpt><trkpt lat="39.05484512202184" lon="16.152506792051568"><ele>110.0</ele><time>2026-04-27T13:18:55.999Z</time></trkpt><trkpt lat="39.054915213220426" lon="16.152571612795153"><ele>112.33333333333334</ele><time>2026-04-27T13:18:57.999Z</time></trkpt><trkpt lat="39.054978048551185" lon="16.152669822616758"><ele>114.66666666666667</ele><time>2026-04-27T13:18:59.999Z</time></trkpt><trkpt lat="39.05501927211991" lon="16.152752932869834"><ele>117.0</ele><time>2026-04-27T13:19:00.999Z</time></trkpt><trkpt lat="39.05506082530605" lon="16.152843736727544"><ele>117.0</ele><time>2026-04-27T13:19:01.999Z</time></trkpt><trkpt lat="39.05511352707767" lon="16.153002457557342"><ele>116.99999999999999</ele><time>2026-04-27T13:19:03.999Z</time></trkpt><trkpt lat="39.055141787239734" lon="16.15310395654044"><ele>116.99999999999999</ele><time>2026-04-27T13:19:04.999Z</time></trkpt><trkpt lat="39.05517063110499" lon="16.15321432721451"><ele>117.0</ele><time>2026-04-27T13:19:05.999Z</time></trkpt><trkpt lat="39.05519431330497" lon="16.153320382370683"><ele>117.0</ele><time>2026-04-27T13:19:06.999Z</time></trkpt><trkpt lat="39.05521773756644" lon="16.153426877804076"><ele>120.0</ele><time>2026-04-27T13:19:07.999Z</time></trkpt><trkpt lat="39.055239753708754" lon="16.153526970138746"><ele>122.99999999999999</ele><time>2026-04-27T13:19:08.999Z</time></trkpt><trkpt lat="39.055276521661945" lon="16.153671413862668"><ele>125.99999999999999</ele><time>2026-04-27T13:19:10.999Z</time></trkpt><trkpt lat="39.05528393625547" lon="16.153754680837956"><ele>129.0</ele><time>2026-04-27T13:19:12.999Z</time></trkpt><trkpt lat="39.0552134951169" lon="16.153820779883606"><ele>132.0</ele><time>2026-04-27T13:19:14.999Z</time></trkpt><trkpt lat="39.05510381766741" lon="16.153894984168403"><ele>132.0</ele><time>2026-04-27T13:19:16.999Z</time></trkpt><trkpt lat="39.05504795118319" lon="16.153956902604005"><ele>132.0</ele><time>2026-04-27T13:19:18.999Z</time></trkpt><trkpt lat="39.05508304441023" lon="16.154186476412562"><ele>132.0</ele><time>2026-04-27T13:19:21.999Z</time></trkpt><trkpt lat="39.05520801762229" lon="16.15426669920496"><ele>132.0</ele><time>2026-04-27T13:19:22.999Z</time></trkpt><trkpt lat="39.05532380225975" lon="16.154344692188527"><ele>134.79999999999998</ele><time>2026-04-27T13:19:23.999Z</time></trkpt><trkpt lat="39.05542970519549" lon="16.154407865022783"><ele>137.6</ele><time>2026-04-27T13:19:24.999Z</time></trkpt><trkpt lat="39.05553109450588" lon="16.154456909199002"><ele>140.39999999999998</ele><time>2026-04-27T13:19:25.999Z</time></trkpt><trkpt lat="39.05562125076386" lon="16.154499258143495"><ele>143.2</ele><time>2026-04-27T13:19:26.999Z</time></trkpt><trkpt lat="39.055699941334126" lon="16.154538188764885"><ele>146.0</ele><time>2026-04-27T13:19:27.999Z</time></trkpt><trkpt lat="39.05576645577052" lon="16.15457109554338"><ele>144.2</ele><time>2026-04-27T13:19:28.999Z</time></trkpt><trkpt lat="39.055832070571796" lon="16.15460440586173"><ele>142.39999999999998</ele><time>2026-04-27T13:19:29.999Z</time></trkpt><trkpt lat="39.05592401941177" lon="16.154660924726787"><ele>140.6</ele><time>2026-04-27T13:19:31Z</time></trkpt><trkpt lat="39.05603682710838" lon="16.154703337286684"><ele>138.79999999999998</ele><time>2026-04-27T13:19:32Z</time></trkpt><trkpt lat="39.05613392821081" lon="16.154723298632796"><ele>137.0</ele><time>2026-04-27T13:19:33Z</time></trkpt><trkpt lat="39.05620864182511" lon="16.15474018332195"><ele>137.0</ele><time>2026-04-27T13:19:34Z</time></trkpt><trkpt lat="39.05627002576988" lon="16.15476012930786"><ele>137.0</ele><time>2026-04-27T13:19:35Z</time></trkpt><trkpt lat="39.05637919450713" lon="16.1548298550424"><ele>137.0</ele><time>2026-04-27T13:19:37Z</time></trkpt><trkpt lat="39.0564368663039" lon="16.154877136154795"><ele>137.0</ele><time>2026-04-27T13:19:38Z</time></trkpt><trkpt lat="39.056491025043385" lon="16.154925116031546"><ele>137.0</ele><time>2026-04-27T13:19:39Z</time></trkpt><trkpt lat="39.05654626434604" lon="16.154974898764316"><ele>137.0</ele><time>2026-04-27T13:19:40Z</time></trkpt><trkpt lat="39.05659548206222" lon="16.155068943429274"><ele>139.16666666666666</ele><time>2026-04-27T13:19:42Z</time></trkpt><trkpt lat="39.05657286420809" lon="16.15520141176594"><ele>141.33333333333331</ele><time>2026-04-27T13:19:44Z</time></trkpt><trkpt lat="39.056522652551145" lon="16.155309903094626"><ele>143.5</ele><time>2026-04-27T13:19:45Z</time></trkpt><trkpt lat="39.05646707916838" lon="16.15540058653288"><ele>145.66666666666666</ele><time>2026-04-27T13:19:46Z</time></trkpt><trkpt lat="39.05641970860909" lon="16.155477263170663"><ele>147.83333333333334</ele><time>2026-04-27T13:19:47Z</time></trkpt><trkpt lat="39.05637609377432" lon="16.155551062746742"><ele>150.0</ele><time>2026-04-27T13:19:48Z</time></trkpt><trkpt lat="39.056342033012264" lon="16.155639892612218"><ele>150.0</ele><time>2026-04-27T13:19:49Z</time></trkpt><trkpt lat="39.0562362937051" lon="16.15568970017162"><ele>150.0</ele><time>2026-04-27T13:19:51Z</time></trkpt><trkpt lat="39.056168358182695" lon="16.15568334298325"><ele>150.0</ele><time>2026-04-27T13:19:52Z</time></trkpt><trkpt lat="39.05607622835754" lon="16.15568000739716"><ele>150.0</ele><time>2026-04-27T13:19:53Z</time></trkpt><trkpt lat="39.05601201468213" lon="16.15569919788777"><ele>150.0</ele><time>2026-04-27T13:19:54Z</time></trkpt><trkpt lat="39.05595576944472" lon="16.155743587658517"><ele>150.0</ele><time>2026-04-27T13:19:54.999Z</time></trkpt><trkpt lat="39.05589953890292" lon="16.15580079087285"><ele>152.5</ele><time>2026-04-27T13:19:55.999Z</time></trkpt><trkpt lat="39.055843756062316" lon="16.155874258461406"><ele>155.0</ele><time>2026-04-27T13:19:56.999Z</time></trkpt><trkpt lat="39.05579495649997" lon="16.155947828533595"><ele>157.5</ele><time>2026-04-27T13:19:57.999Z</time></trkpt><trkpt lat="39.05573643565482" lon="16.156022326404752"><ele>160.0</ele><time>2026-04-27T13:19:58.999Z</time></trkpt><trkpt lat="39.055670547067464" lon="16.156109666980637"><ele>162.5</ele><time>2026-04-27T13:19:59.999Z</time></trkpt><trkpt lat="39.05561374064707" lon="16.156188429068116"><ele>165.0</ele><time>2026-04-27T13:20:00.999Z</time></trkpt><trkpt lat="39.05557135491634" lon="16.156259001612124"><ele>166.2</ele><time>2026-04-27T13:20:01.999Z</time></trkpt><trkpt lat="39.055499645785744" lon="16.15636422772394"><ele>167.4</ele><time>2026-04-27T13:20:03.999Z</time></trkpt><trkpt lat="39.055532026645594" lon="16.156553256671796"><ele>168.60000000000002</ele><time>2026-04-27T13:20:05.999Z</time></trkpt><trkpt lat="39.05561030265249" lon="16.156621421000803"><ele>169.8</ele><time>2026-04-27T13:20:06.999Z</time></trkpt><trkpt lat="39.055668948377146" lon="16.156674927557944"><ele>171.0</ele><time>2026-04-27T13:20:07.999Z</time></trkpt><trkpt lat="39.05573889970363" lon="16.156735720361187"><ele>172.66666666666666</ele><time>2026-04-27T13:20:08.999Z</time></trkpt><trkpt lat="39.05579721969351" lon="16.156790731082385"><ele>174.33333333333334</ele><time>2026-04-27T13:20:09.999Z</time></trkpt><trkpt lat="39.055855285177714" lon="16.156847776414256"><ele>176.0</ele><time>2026-04-27T13:20:10.999Z</time></trkpt><trkpt lat="39.055899486079106" lon="16.156909312458048"><ele>177.66666666666669</ele><time>2026-04-27T13:20:11.999Z</time></trkpt><trkpt lat="39.05593756250116" lon="16.1570139002826"><ele>179.33333333333334</ele><time>2026-04-27T13:20:12.999Z</time></trkpt><trkpt lat="39.055956354707526" lon="16.15714422742956"><ele>181.0</ele><time>2026-04-27T13:20:13.999Z</time></trkpt><trkpt lat="39.0559652345209" lon="16.157295371389427"><ele>185.25</ele><time>2026-04-27T13:20:14.999Z</time></trkpt><trkpt lat="39.05596897611193" lon="16.157454627235776"><ele>189.5</ele><time>2026-04-27T13:20:15.999Z</time></trkpt><trkpt lat="39.05597044777664" lon="16.157604036696494"><ele>193.75</ele><time>2026-04-27T13:20:16.999Z</time></trkpt><trkpt lat="39.05597093631548" lon="16.157747790184917"><ele>198.0</ele><time>2026-04-27T13:20:17.999Z</time></trkpt><trkpt lat="39.05597075117613" lon="16.1578887006737"><ele>198.0</ele><time>2026-04-27T13:20:18.999Z</time></trkpt><trkpt lat="39.05596786437196" lon="16.15803271719153"><ele>198.0</ele><time>2026-04-27T13:20:19.999Z</time></trkpt><trkpt lat="39.055962736667375" lon="16.158165967597746"><ele>198.0</ele><time>2026-04-27T13:20:20.999Z</time></trkpt><trkpt lat="39.055956252290954" lon="16.15829359320455"><ele>198.0</ele><time>2026-04-27T13:20:21.999Z</time></trkpt><trkpt lat="39.05594539172823" lon="16.15843514318814"><ele>198.0</ele><time>2026-04-27T13:20:22.999Z</time></trkpt><trkpt lat="39.05591705663069" lon="16.15856679923289"><ele>198.8</ele><time>2026-04-27T13:20:23.999Z</time></trkpt><trkpt lat="39.055872595574805" lon="16.158705254173903"><ele>199.60000000000002</ele><time>2026-04-27T13:20:24.999Z</time></trkpt><trkpt lat="39.05581739793834" lon="16.158855218013475"><ele>200.39999999999998</ele><time>2026-04-27T13:20:25.999Z</time></trkpt><trkpt lat="39.055789609374884" lon="16.15898850506664"><ele>201.2</ele><time>2026-04-27T13:20:26.999Z</time></trkpt><trkpt lat="39.05576041202634" lon="16.159089844488648"><ele>202.0</ele><time>2026-04-27T13:20:27.999Z</time></trkpt><trkpt lat="39.05575905150561" lon="16.159173850221755"><ele>202.6</ele><time>2026-04-27T13:20:28.999Z</time></trkpt><trkpt lat="39.055750537820444" lon="16.159272647979744"><ele>203.2</ele><time>2026-04-27T13:20:29.999Z</time></trkpt><trkpt lat="39.05575975016601" lon="16.15941425155653"><ele>203.8</ele><time>2026-04-27T13:20:30.999Z</time></trkpt><trkpt lat="39.05577192840351" lon="16.159526522849916"><ele>204.4</ele><time>2026-04-27T13:20:31.999Z</time></trkpt><trkpt lat="39.055812835090855" lon="16.159627896407493"><ele>205.0</ele><time>2026-04-27T13:20:32.999Z</time></trkpt><trkpt lat="39.05589795722147" lon="16.159730375402432"><ele>205.0</ele><time>2026-04-27T13:20:33.999Z</time></trkpt><trkpt lat="39.05596310985309" lon="16.159828689640733"><ele>205.0</ele><time>2026-04-27T13:20:34.999Z</time></trkpt><trkpt lat="39.05600348859179" lon="16.15991173816938"><ele>205.0</ele><time>2026-04-27T13:20:35.999Z</time></trkpt><trkpt lat="39.05601269325609" lon="16.160116887437145"><ele>205.0</ele><time>2026-04-27T13:20:37.999Z</time></trkpt><trkpt lat="39.05601204407626" lon="16.160258572480576"><ele>205.0</ele><time>2026-04-27T13:20:38.999Z</time></trkpt><trkpt lat="39.056008339160684" lon="16.160409591754206"><ele>206.8</ele><time>2026-04-27T13:20:39.999Z</time></trkpt><trkpt lat="39.05601043615721" lon="16.16053551113168"><ele>208.6</ele><time>2026-04-27T13:20:40.999Z</time></trkpt><trkpt lat="39.0560162440524" lon="16.160670540640098"><ele>210.39999999999998</ele><time>2026-04-27T13:20:41.999Z</time></trkpt><trkpt lat="39.056033352302464" lon="16.160811729190915"><ele>212.2</ele><time>2026-04-27T13:20:42.999Z</time></trkpt><trkpt lat="39.05606272838235" lon="16.16095736855512"><ele>214.0</ele><time>2026-04-27T13:20:43.999Z</time></trkpt><trkpt lat="39.05609474709494" lon="16.161102221906038"><ele>216.25</ele><time>2026-04-27T13:20:44.999Z</time></trkpt><trkpt lat="39.056139095941326" lon="16.161247861850693"><ele>218.5</ele><time>2026-04-27T13:20:45.999Z</time></trkpt><trkpt lat="39.05618887753647" lon="16.161390263665915"><ele>220.75</ele><time>2026-04-27T13:20:46.999Z</time></trkpt><trkpt lat="39.05624596450189" lon="16.16153645084716"><ele>223.0</ele><time>2026-04-27T13:20:47.999Z</time></trkpt><trkpt lat="39.056313581245234" lon="16.161690936884728"><ele>225.5</ele><time>2026-04-27T13:20:48.999Z</time></trkpt><trkpt lat="39.056383168756525" lon="16.161845467212807"><ele>228.0</ele><time>2026-04-27T13:20:49.999Z</time></trkpt><trkpt lat="39.05644980813708" lon="16.161982215934515"><ele>230.5</ele><time>2026-04-27T13:20:50.999Z</time></trkpt><trkpt lat="39.05651991607261" lon="16.1621054746303"><ele>233.0</ele><time>2026-04-27T13:20:51.999Z</time></trkpt><trkpt lat="39.05658966438357" lon="16.16223089808295"><ele>231.4</ele><time>2026-04-27T13:20:52.999Z</time></trkpt><trkpt lat="39.05662168043671" lon="16.16234516802022"><ele>229.8</ele><time>2026-04-27T13:20:53.999Z</time></trkpt><trkpt lat="39.05664393307724" lon="16.162454397240072"><ele>228.2</ele><time>2026-04-27T13:20:54.999Z</time></trkpt><trkpt lat="39.056653927706975" lon="16.162581274231528"><ele>226.6</ele><time>2026-04-27T13:20:55.999Z</time></trkpt><trkpt lat="39.056680659374315" lon="16.162724752812757"><ele>225.0</ele><time>2026-04-27T13:20:56.999Z</time></trkpt><trkpt lat="39.05669285182869" lon="16.16285705588913"><ele>225.0</ele><time>2026-04-27T13:20:57.999Z</time></trkpt><trkpt lat="39.05670099130539" lon="16.16299363014334"><ele>225.0</ele><time>2026-04-27T13:20:58.999Z</time></trkpt><trkpt lat="39.05669789309582" lon="16.163124873235684"><ele>225.0</ele><time>2026-04-27T13:20:59.999Z</time></trkpt><trkpt lat="39.05669192273717" lon="16.16327133434673"><ele>225.0</ele><time>2026-04-27T13:21:00.999Z</time></trkpt><trkpt lat="39.056692965235456" lon="16.163421958557354"><ele>225.0</ele><time>2026-04-27T13:21:01.999Z</time></trkpt><trkpt lat="39.05670739715804" lon="16.163572690884372"><ele>225.8</ele><time>2026-04-27T13:21:02.999Z</time></trkpt><trkpt lat="39.05671011303442" lon="16.163718230129753"><ele>226.6</ele><time>2026-04-27T13:21:03.999Z</time></trkpt><trkpt lat="39.056728121227756" lon="16.163856579781424"><ele>227.39999999999998</ele><time>2026-04-27T13:21:04.999Z</time></trkpt><trkpt lat="39.056747803219565" lon="16.163982722411365"><ele>228.2</ele><time>2026-04-27T13:21:05.999Z</time></trkpt><trkpt lat="39.056766606109115" lon="16.164100251539217"><ele>229.0</ele><time>2026-04-27T13:21:06.999Z</time></trkpt><trkpt lat="39.056787974135" lon="16.164215892036847"><ele>231.39999999999998</ele><time>2026-04-27T13:21:07.999Z</time></trkpt><trkpt lat="39.056813938766105" lon="16.16432115894152"><ele>233.79999999999998</ele><time>2026-04-27T13:21:08.999Z</time></trkpt><trkpt lat="39.056846287034055" lon="16.1644304097804"><ele>236.20000000000002</ele><time>2026-04-27T13:21:09.999Z</time></trkpt><trkpt lat="39.056898259821395" lon="16.16453402008625"><ele>238.60000000000002</ele><time>2026-04-27T13:21:10.999Z</time></trkpt><trkpt lat="39.057006952058586" lon="16.164609973712544"><ele>241.0</ele><time>2026-04-27T13:21:11.999Z</time></trkpt><trkpt lat="39.05711302048629" lon="16.16467640059381"><ele>241.0</ele><time>2026-04-27T13:21:12.999Z</time></trkpt><trkpt lat="39.057210441252714" lon="16.1647509014793"><ele>241.00000000000003</ele><time>2026-04-27T13:21:13.999Z</time></trkpt><trkpt lat="39.057312204998624" lon="16.164814023009914"><ele>241.00000000000003</ele><time>2026-04-27T13:21:14.999Z</time></trkpt><trkpt lat="39.05739437926298" lon="16.164880915391123"><ele>241.0</ele><time>2026-04-27T13:21:15.999Z</time></trkpt><trkpt lat="39.057477985338686" lon="16.16491340881516"><ele>241.0</ele><time>2026-04-27T13:21:16.999Z</time></trkpt><trkpt lat="39.057528595260685" lon="16.164985631842836"><ele>239.0</ele><time>2026-04-27T13:21:17.999Z</time></trkpt><trkpt lat="39.057579518877034" lon="16.165120525170583"><ele>237.00000000000003</ele><time>2026-04-27T13:21:19.999Z</time></trkpt><trkpt lat="39.057636213622665" lon="16.16523443200857"><ele>235.00000000000003</ele><time>2026-04-27T13:21:20.999Z</time></trkpt><trkpt lat="39.05768504591181" lon="16.16532468767748"><ele>233.0</ele><time>2026-04-27T13:21:21.999Z</time></trkpt><trkpt lat="39.05774615199748" lon="16.16542171930001"><ele>231.0</ele><time>2026-04-27T13:21:22.999Z</time></trkpt><trkpt lat="39.05780316262848" lon="16.165502827802605"><ele>231.0</ele><time>2026-04-27T13:21:23.999Z</time></trkpt><trkpt lat="39.057871183981256" lon="16.165593864132582"><ele>231.0</ele><time>2026-04-27T13:21:24.999Z</time></trkpt><trkpt lat="39.057934414320414" lon="16.165677741427597"><ele>231.0</ele><time>2026-04-27T13:21:25.999Z</time></trkpt><trkpt lat="39.05799535817638" lon="16.165754859303053"><ele>231.0</ele><time>2026-04-27T13:21:26.999Z</time></trkpt><trkpt lat="39.05804899276998" lon="16.16582092844394"><ele>231.0</ele><time>2026-04-27T13:21:27.999Z</time></trkpt><trkpt lat="39.05810976527229" lon="16.165879873804013"><ele>231.0</ele><time>2026-04-27T13:21:28.999Z</time></trkpt><trkpt lat="39.05818929932953" lon="16.165918371543487"><ele>229.83333333333334</ele><time>2026-04-27T13:21:29.999Z</time></trkpt><trkpt lat="39.058278409988766" lon="16.16592988089593"><ele>228.66666666666669</ele><time>2026-04-27T13:21:30.999Z</time></trkpt><trkpt lat="39.05834664053045" lon="16.16594053724788"><ele>227.5</ele><time>2026-04-27T13:21:31.999Z</time></trkpt><trkpt lat="39.05841747311768" lon="16.165957547673628"><ele>226.33333333333334</ele><time>2026-04-27T13:21:32.999Z</time></trkpt><trkpt lat="39.0584865663647" lon="16.166056266334806"><ele>225.16666666666669</ele><time>2026-04-27T13:21:34.999Z</time></trkpt><trkpt lat="39.05853673623818" lon="16.16616835967514"><ele>224.0</ele><time>2026-04-27T13:21:35.999Z</time></trkpt><trkpt lat="39.058580417812266" lon="16.166286719848483"><ele>224.0</ele><time>2026-04-27T13:21:37Z</time></trkpt><trkpt lat="39.0586180475557" lon="16.166400819680923"><ele>223.99999999999997</ele><time>2026-04-27T13:21:38Z</time></trkpt><trkpt lat="39.058652834096875" lon="16.166517528116437"><ele>223.99999999999997</ele><time>2026-04-27T13:21:39Z</time></trkpt><trkpt lat="39.05868443941478" lon="16.166640129295896"><ele>224.0</ele><time>2026-04-27T13:21:40Z</time></trkpt><trkpt lat="39.05871730348855" lon="16.16676929265353"><ele>224.0</ele><time>2026-04-27T13:21:41Z</time></trkpt><trkpt lat="39.0587564744891" lon="16.166897691569524"><ele>226.0</ele><time>2026-04-27T13:21:42Z</time></trkpt><trkpt lat="39.05879762896199" lon="16.16702496832511"><ele>227.99999999999997</ele><time>2026-04-27T13:21:43Z</time></trkpt><trkpt lat="39.05883971582485" lon="16.167150677566863"><ele>229.99999999999997</ele><time>2026-04-27T13:21:44Z</time></trkpt><trkpt lat="39.05888403601022" lon="16.16727913414046"><ele>232.0</ele><time>2026-04-27T13:21:45Z</time></trkpt><trkpt lat="39.058927265509645" lon="16.167401998699912"><ele>234.0</ele><time>2026-04-27T13:21:46Z</time></trkpt><trkpt lat="39.05897143686425" lon="16.167520496455634"><ele>234.39999999999998</ele><time>2026-04-27T13:21:47Z</time></trkpt><trkpt lat="39.059018632394725" lon="16.167646519147414"><ele>234.79999999999998</ele><time>2026-04-27T13:21:48Z</time></trkpt><trkpt lat="39.059067483266034" lon="16.167773420421987"><ele>235.20000000000002</ele><time>2026-04-27T13:21:49Z</time></trkpt><trkpt lat="39.05911532340743" lon="16.167897696243067"><ele>235.60000000000002</ele><time>2026-04-27T13:21:50Z</time></trkpt><trkpt lat="39.05915946038077" lon="16.16801662044047"><ele>236.0</ele><time>2026-04-27T13:21:51Z</time></trkpt><trkpt lat="39.059198064479865" lon="16.168126177660152"><ele>233.20000000000002</ele><time>2026-04-27T13:21:52Z</time></trkpt><trkpt lat="39.0592213372155" lon="16.1682447916087"><ele>230.40000000000003</ele><time>2026-04-27T13:21:53Z</time></trkpt><trkpt lat="39.05921198412878" lon="16.168366561711842"><ele>227.6</ele><time>2026-04-27T13:21:54Z</time></trkpt><trkpt lat="39.05920691056446" lon="16.168500626012776"><ele>224.8</ele><time>2026-04-27T13:21:55Z</time></trkpt><trkpt lat="39.059202955835225" lon="16.168628381209885"><ele>222.0</ele><time>2026-04-27T13:21:56Z</time></trkpt><trkpt lat="39.05920736996988" lon="16.168771147400207"><ele>222.0</ele><time>2026-04-27T13:21:57Z</time></trkpt><trkpt lat="39.0592098601291" lon="16.168925116332733"><ele>222.0</ele><time>2026-04-27T13:21:58Z</time></trkpt><trkpt lat="39.05921107368932" lon="16.16908247471457"><ele>222.0</ele><time>2026-04-27T13:21:59Z</time></trkpt><trkpt lat="39.0592053748509" lon="16.169224824080125"><ele>222.0</ele><time>2026-04-27T13:22:00Z</time></trkpt><trkpt lat="39.05919011968476" lon="16.169349997401813"><ele>222.39999999999998</ele><time>2026-04-27T13:22:00.999Z</time></trkpt><trkpt lat="39.05917493834344" lon="16.169468908399633"><ele>222.79999999999998</ele><time>2026-04-27T13:22:01.999Z</time></trkpt><trkpt lat="39.059158606064976" lon="16.169598624427362"><ele>223.2</ele><time>2026-04-27T13:22:02.999Z</time></trkpt><trkpt lat="39.05913610279004" lon="16.169731022696215"><ele>223.6</ele><time>2026-04-27T13:22:03.999Z</time></trkpt><trkpt lat="39.059101619811884" lon="16.169859650852043"><ele>224.0</ele><time>2026-04-27T13:22:04.999Z</time></trkpt><trkpt lat="39.05907873214991" lon="16.169977720791383"><ele>224.83333333333334</ele><time>2026-04-27T13:22:05.999Z</time></trkpt><trkpt lat="39.05906649338185" lon="16.170079531855674"><ele>225.66666666666669</ele><time>2026-04-27T13:22:06.999Z</time></trkpt><trkpt lat="39.05907733731377" lon="16.170178475738936"><ele>226.5</ele><time>2026-04-27T13:22:07.999Z</time></trkpt><trkpt lat="39.05912137227252" lon="16.1702793793628"><ele>227.33333333333331</ele><time>2026-04-27T13:22:08.999Z</time></trkpt><trkpt lat="39.05916351570028" lon="16.17035980672049"><ele>228.16666666666666</ele><time>2026-04-27T13:22:09.999Z</time></trkpt><trkpt lat="39.05921306267931" lon="16.17047501929268"><ele>229.0</ele><time>2026-04-27T13:22:10.999Z</time></trkpt><trkpt lat="39.05925017055933" lon="16.170591706285048"><ele>229.6</ele><time>2026-04-27T13:22:11.999Z</time></trkpt><trkpt lat="39.05928544124763" lon="16.170745391682996"><ele>230.2</ele><time>2026-04-27T13:22:12.999Z</time></trkpt><trkpt lat="39.05931865386048" lon="16.170883577192225"><ele>230.79999999999998</ele><time>2026-04-27T13:22:13.999Z</time></trkpt><trkpt lat="39.05934707891693" lon="16.171012328508976"><ele>231.39999999999998</ele><time>2026-04-27T13:22:14.999Z</time></trkpt><trkpt lat="39.05936997540645" lon="16.171138050234653"><ele>232.0</ele><time>2026-04-27T13:22:15.999Z</time></trkpt><trkpt lat="39.05938898316503" lon="16.17126137020371"><ele>232.0</ele><time>2026-04-27T13:22:16.999Z</time></trkpt><trkpt lat="39.059404776686016" lon="16.171386489084103"><ele>232.0</ele><time>2026-04-27T13:22:17.999Z</time></trkpt><trkpt lat="39.059415678834704" lon="16.171507478132252"><ele>232.0</ele><time>2026-04-27T13:22:18.999Z</time></trkpt><trkpt lat="39.05937353398981" lon="16.17160843252691"><ele>232.0</ele><time>2026-04-27T13:22:19.999Z</time></trkpt><trkpt lat="39.05930981594692" lon="16.171703816395684"><ele>232.0</ele><time>2026-04-27T13:22:20.999Z</time></trkpt><trkpt lat="39.05926113914586" lon="16.17180737985688"><ele>232.6</ele><time>2026-04-27T13:22:21.999Z</time></trkpt><trkpt lat="39.05924093642539" lon="16.171928491347437"><ele>233.2</ele><time>2026-04-27T13:22:22.999Z</time></trkpt><trkpt lat="39.05924173492014" lon="16.17205661198887"><ele>233.8</ele><time>2026-04-27T13:22:23.999Z</time></trkpt><trkpt lat="39.059239768442055" lon="16.172193934716105"><ele>234.4</ele><time>2026-04-27T13:22:24.999Z</time></trkpt><trkpt lat="39.05924664495734" lon="16.172315380494034"><ele>235.0</ele><time>2026-04-27T13:22:25.999Z</time></trkpt><trkpt lat="39.05924689773035" lon="16.172443151153725"><ele>235.0</ele><time>2026-04-27T13:22:26.999Z</time></trkpt><trkpt lat="39.05923620534265" lon="16.17256721269551"><ele>235.0</ele><time>2026-04-27T13:22:27.999Z</time></trkpt><trkpt lat="39.05920690563814" lon="16.1727017526861"><ele>235.0</ele><time>2026-04-27T13:22:28.999Z</time></trkpt><trkpt lat="39.0591639889399" lon="16.172858181506864"><ele>235.0</ele><time>2026-04-27T13:22:29.999Z</time></trkpt><trkpt lat="39.05911049409015" lon="16.17298942028778"><ele>235.0</ele><time>2026-04-27T13:22:30.999Z</time></trkpt><trkpt lat="39.05908499441058" lon="16.17308513597706"><ele>236.75</ele><time>2026-04-27T13:22:31.999Z</time></trkpt><trkpt lat="39.059158859921986" lon="16.173292033142022"><ele>238.5</ele><time>2026-04-27T13:22:33.999Z</time></trkpt><trkpt lat="39.05924564475536" lon="16.173399281734497"><ele>240.25</ele><time>2026-04-27T13:22:34.999Z</time></trkpt><trkpt lat="39.059334601682295" lon="16.173512395870002"><ele>242.0</ele><time>2026-04-27T13:22:35.999Z</time></trkpt><trkpt lat="39.059394476393656" lon="16.17360750202424"><ele>242.0</ele><time>2026-04-27T13:22:36.999Z</time></trkpt><trkpt lat="39.05944276329754" lon="16.173721987071502"><ele>242.0</ele><time>2026-04-27T13:22:37.999Z</time></trkpt><trkpt lat="39.059461806240215" lon="16.173844720007956"><ele>242.0</ele><time>2026-04-27T13:22:38.999Z</time></trkpt><trkpt lat="39.05945656818888" lon="16.173995487708435"><ele>242.0</ele><time>2026-04-27T13:22:39.999Z</time></trkpt><trkpt lat="39.059435789699826" lon="16.174172726454987"><ele>244.0</ele><time>2026-04-27T13:22:40.999Z</time></trkpt><trkpt lat="39.05941704984727" lon="16.174357140557284"><ele>246.0</ele><time>2026-04-27T13:22:41.999Z</time></trkpt><trkpt lat="39.05940677119401" lon="16.174530396114445"><ele>248.0</ele><time>2026-04-27T13:22:42.999Z</time></trkpt><trkpt lat="39.05940344361902" lon="16.174684247800904"><ele>250.0</ele><time>2026-04-27T13:22:43.999Z</time></trkpt><trkpt lat="39.05939988907162" lon="16.174827933060683"><ele>250.5</ele><time>2026-04-27T13:22:44.999Z</time></trkpt><trkpt lat="39.05938924002863" lon="16.174974576871755"><ele>251.0</ele><time>2026-04-27T13:22:45.999Z</time></trkpt><trkpt lat="39.05935165684741" lon="16.175126209063194"><ele>251.5</ele><time>2026-04-27T13:22:46.999Z</time></trkpt><trkpt lat="39.05930081866793" lon="16.175292339087104"><ele>252.0</ele><time>2026-04-27T13:22:47.999Z</time></trkpt><trkpt lat="39.05925323970432" lon="16.175422834964806"><ele>252.0</ele><time>2026-04-27T13:22:48.999Z</time></trkpt><trkpt lat="39.05920459424537" lon="16.175511647602423"><ele>252.0</ele><time>2026-04-27T13:22:49.999Z</time></trkpt><trkpt lat="39.05918146534729" lon="16.17559816052543"><ele>252.0</ele><time>2026-04-27T13:22:50.999Z</time></trkpt><trkpt lat="39.0591933490645" lon="16.175698398948718"><ele>252.0</ele><time>2026-04-27T13:22:51.999Z</time></trkpt><trkpt lat="39.059214151317825" lon="16.175783626539236"><ele>252.0</ele><time>2026-04-27T13:22:52.999Z</time></trkpt><trkpt lat="39.05929016967653" lon="16.175855424721203"><ele>252.0</ele><time>2026-04-27T13:22:54.999Z</time></trkpt><trkpt lat="39.059470219985315" lon="16.175649828383936"><ele>252.0</ele><time>2026-04-27T13:22:59.999Z</time></trkpt><trkpt lat="39.05950207495176" lon="16.175565486115392"><ele>252.0</ele><time>2026-04-27T13:23:00.999Z</time></trkpt><trkpt lat="39.059538864885944" lon="16.175470624083463"><ele>252.0</ele><time>2026-04-27T13:23:01.999Z</time></trkpt><trkpt lat="39.059556796518464" lon="16.17538245159313"><ele>252.0</ele><time>2026-04-27T13:23:02.999Z</time></trkpt><trkpt lat="39.05961093058674" lon="16.175292111630988"><ele>252.0</ele><time>2026-04-27T13:23:04.999Z</time></trkpt><trkpt lat="39.0596422903463" lon="16.175196379281086"><ele>252.0</ele><time>2026-04-27T13:23:06.999Z</time></trkpt><trkpt lat="39.0596698381092" lon="16.175120340664115"><ele>252.0</ele><time>2026-04-27T13:23:09.999Z</time></trkpt><trkpt lat="39.05953808139876" lon="16.175327655832167"><ele>252.0</ele><time>2026-04-27T13:23:13.999Z</time></trkpt><trkpt lat="39.05949395266078" lon="16.175459549091354"><ele>252.0</ele><time>2026-04-27T13:23:14.999Z</time></trkpt><trkpt lat="39.05944362216997" lon="16.175568246837614"><ele>252.0</ele><time>2026-04-27T13:23:15.999Z</time></trkpt><trkpt lat="39.059393828329995" lon="16.175676558069924"><ele>250.8</ele><time>2026-04-27T13:23:16.999Z</time></trkpt><trkpt lat="39.059349007363174" lon="16.17578955492241"><ele>249.6</ele><time>2026-04-27T13:23:17.999Z</time></trkpt><trkpt lat="39.059311815951645" lon="16.175907738785614"><ele>248.40000000000003</ele><time>2026-04-27T13:23:18.999Z</time></trkpt><trkpt lat="39.0592695973581" lon="16.176043025719167"><ele>247.20000000000002</ele><time>2026-04-27T13:23:19.999Z</time></trkpt><trkpt lat="39.05922313818562" lon="16.176210459084785"><ele>246.0</ele><time>2026-04-27T13:23:20.999Z</time></trkpt><trkpt lat="39.059190455248476" lon="16.17639105674128"><ele>246.33333333333331</ele><time>2026-04-27T13:23:21.999Z</time></trkpt><trkpt lat="39.05917895505923" lon="16.176587738069973"><ele>246.66666666666666</ele><time>2026-04-27T13:23:22.999Z</time></trkpt><trkpt lat="39.05918954109115" lon="16.17679807554751"><ele>247.0</ele><time>2026-04-27T13:23:23.999Z</time></trkpt><trkpt lat="39.059219654130786" lon="16.17700886145107"><ele>247.0</ele><time>2026-04-27T13:23:24.999Z</time></trkpt><trkpt lat="39.059269145269816" lon="16.177202032034234"><ele>247.0</ele><time>2026-04-27T13:23:25.999Z</time></trkpt><trkpt lat="39.059322460618304" lon="16.177391082142567"><ele>247.0</ele><time>2026-04-27T13:23:26.999Z</time></trkpt><trkpt lat="39.05937924068543" lon="16.177576780448273"><ele>249.0</ele><time>2026-04-27T13:23:27.999Z</time></trkpt><trkpt lat="39.05942630592255" lon="16.177738514248738"><ele>251.0</ele><time>2026-04-27T13:23:28.999Z</time></trkpt><trkpt lat="39.059467845056005" lon="16.177893921671235"><ele>253.0</ele><time>2026-04-27T13:23:29.999Z</time></trkpt><trkpt lat="39.05947980051526" lon="16.178066241851305"><ele>255.0</ele><time>2026-04-27T13:23:30.999Z</time></trkpt><trkpt lat="39.05949899749057" lon="16.178244280651253"><ele>259.0</ele><time>2026-04-27T13:23:31.999Z</time></trkpt><trkpt lat="39.0595037364787" lon="16.17842978294732"><ele>263.0</ele><time>2026-04-27T13:23:32.999Z</time></trkpt><trkpt lat="39.0594950614637" lon="16.178621538089196"><ele>267.0</ele><time>2026-04-27T13:23:33.999Z</time></trkpt><trkpt lat="39.05948104513466" lon="16.178822280341066"><ele>271.3333333333333</ele><time>2026-04-27T13:23:34.999Z</time></trkpt><trkpt lat="39.05947251173778" lon="16.17903091329482"><ele>275.66666666666663</ele><time>2026-04-27T13:23:35.999Z</time></trkpt><trkpt lat="39.059472529722704" lon="16.17923598776264"><ele>280.0</ele><time>2026-04-27T13:23:36.999Z</time></trkpt><trkpt lat="39.05951140599447" lon="16.179436072596655"><ele>280.0</ele><time>2026-04-27T13:23:37.999Z</time></trkpt><trkpt lat="39.059528575517454" lon="16.17964654096256"><ele>280.0</ele><time>2026-04-27T13:23:38.999Z</time></trkpt><trkpt lat="39.05956271270106" lon="16.179861704287774"><ele>280.0</ele><time>2026-04-27T13:23:39.999Z</time></trkpt><trkpt lat="39.05959722030428" lon="16.18007562119796"><ele>281.75</ele><time>2026-04-27T13:23:40.999Z</time></trkpt><trkpt lat="39.05962430779087" lon="16.18026591462055"><ele>283.5</ele><time>2026-04-27T13:23:41.999Z</time></trkpt><trkpt lat="39.05963886918897" lon="16.18044967278627"><ele>285.25</ele><time>2026-04-27T13:23:43Z</time></trkpt><trkpt lat="39.05964033872366" lon="16.180632109768627"><ele>287.0</ele><time>2026-04-27T13:23:44Z</time></trkpt><trkpt lat="39.05962274256077" lon="16.180822657531387"><ele>289.6666666666667</ele><time>2026-04-27T13:23:45Z</time></trkpt><trkpt lat="39.05958629232212" lon="16.18101257515547"><ele>292.3333333333333</ele><time>2026-04-27T13:23:46Z</time></trkpt><trkpt lat="39.05954827588334" lon="16.181200364885616"><ele>295.0</ele><time>2026-04-27T13:23:47Z</time></trkpt><trkpt lat="39.059479400530996" lon="16.181379370934863"><ele>297.0</ele><time>2026-04-27T13:23:48Z</time></trkpt><trkpt lat="39.05939286552998" lon="16.18158747102874"><ele>299.0</ele><time>2026-04-27T13:23:49Z</time></trkpt><trkpt lat="39.05934597490915" lon="16.181806864128358"><ele>301.0</ele><time>2026-04-27T13:23:50Z</time></trkpt><trkpt lat="39.05933245481945" lon="16.182058221092056"><ele>301.0</ele><time>2026-04-27T13:23:51Z</time></trkpt><trkpt lat="39.05932635317951" lon="16.182319352756714"><ele>301.0</ele><time>2026-04-27T13:23:52Z</time></trkpt><trkpt lat="39.05932006478978" lon="16.182577049936977"><ele>301.0</ele><time>2026-04-27T13:23:53Z</time></trkpt><trkpt lat="39.05931456054095" lon="16.18280261324633"><ele>303.0</ele><time>2026-04-27T13:23:54Z</time></trkpt><trkpt lat="39.05930632958298" lon="16.183008053931808"><ele>305.0</ele><time>2026-04-27T13:23:55Z</time></trkpt><trkpt lat="39.05927804779001" lon="16.183206559014053"><ele>307.0</ele><time>2026-04-27T13:23:56Z</time></trkpt><trkpt lat="39.05924151502469" lon="16.183398467476206"><ele>308.5</ele><time>2026-04-27T13:23:57Z</time></trkpt><trkpt lat="39.05923408423277" lon="16.18359058343892"><ele>310.0</ele><time>2026-04-27T13:23:58Z</time></trkpt><trkpt lat="39.0592556950053" lon="16.183764716039914"><ele>311.5</ele><time>2026-04-27T13:23:59Z</time></trkpt><trkpt lat="39.05932320225141" lon="16.18391760754261"><ele>313.0</ele><time>2026-04-27T13:24:00Z</time></trkpt><trkpt lat="39.05941647642606" lon="16.184037698088243"><ele>316.75</ele><time>2026-04-27T13:24:01Z</time></trkpt><trkpt lat="39.05953459253877" lon="16.184126538826785"><ele>320.5</ele><time>2026-04-27T13:24:02Z</time></trkpt><trkpt lat="39.059622798866265" lon="16.184260070410733"><ele>324.25</ele><time>2026-04-27T13:24:03Z</time></trkpt><trkpt lat="39.05969616381552" lon="16.184397597411955"><ele>328.0</ele><time>2026-04-27T13:24:04Z</time></trkpt><trkpt lat="39.059764560121806" lon="16.18455250268599"><ele>328.0</ele><time>2026-04-27T13:24:05Z</time></trkpt><trkpt lat="39.05981802921834" lon="16.184720161756367"><ele>328.0</ele><time>2026-04-27T13:24:06Z</time></trkpt><trkpt lat="39.05986799633002" lon="16.18489018514494"><ele>328.0</ele><time>2026-04-27T13:24:07Z</time></trkpt><trkpt lat="39.05991647317663" lon="16.185052288496138"><ele>328.0</ele><time>2026-04-27T13:24:08Z</time></trkpt><trkpt lat="39.05996571963418" lon="16.185216593157076"><ele>327.25</ele><time>2026-04-27T13:24:08.999Z</time></trkpt><trkpt lat="39.06001803480153" lon="16.185391359168417"><ele>326.5</ele><time>2026-04-27T13:24:09.999Z</time></trkpt><trkpt lat="39.06007066102842" lon="16.185573384035848"><ele>325.75</ele><time>2026-04-27T13:24:10.999Z</time></trkpt><trkpt lat="39.060123207152415" lon="16.185754380686518"><ele>325.0</ele><time>2026-04-27T13:24:11.999Z</time></trkpt><trkpt lat="39.06017815186968" lon="16.18593615168672"><ele>330.3333333333333</ele><time>2026-04-27T13:24:12.999Z</time></trkpt><trkpt lat="39.060235336631166" lon="16.186119950895645"><ele>335.6666666666667</ele><time>2026-04-27T13:24:13.999Z</time></trkpt><trkpt lat="39.060292993875414" lon="16.18630635187577"><ele>341.0</ele><time>2026-04-27T13:24:14.999Z</time></trkpt><trkpt lat="39.06034966389569" lon="16.186492736904924"><ele>346.6666666666667</ele><time>2026-04-27T13:24:15.999Z</time></trkpt><trkpt lat="39.06040710060244" lon="16.186678384028895"><ele>352.3333333333333</ele><time>2026-04-27T13:24:16.999Z</time></trkpt><trkpt lat="39.060472524197294" lon="16.186869128594715"><ele>358.0</ele><time>2026-04-27T13:24:17.999Z</time></trkpt><trkpt lat="39.06057213700532" lon="16.18704092342203"><ele>358.0</ele><time>2026-04-27T13:24:18.999Z</time></trkpt><trkpt lat="39.06068149387575" lon="16.187211782541418"><ele>358.0</ele><time>2026-04-27T13:24:19.999Z</time></trkpt><trkpt lat="39.06079199478858" lon="16.18738938929077"><ele>358.0</ele><time>2026-04-27T13:24:20.999Z</time></trkpt><trkpt lat="39.06090373632804" lon="16.187570289455017"><ele>356.66666666666663</ele><time>2026-04-27T13:24:21.999Z</time></trkpt><trkpt lat="39.06101470529611" lon="16.187748940611755"><ele>355.3333333333333</ele><time>2026-04-27T13:24:22.999Z</time></trkpt><trkpt lat="39.061117369590534" lon="16.187911414177123"><ele>354.0</ele><time>2026-04-27T13:24:23.999Z</time></trkpt><trkpt lat="39.06121916250426" lon="16.188069963892872"><ele>362.3333333333333</ele><time>2026-04-27T13:24:24.999Z</time></trkpt><trkpt lat="39.06132656068132" lon="16.188237773479447"><ele>370.66666666666663</ele><time>2026-04-27T13:24:25.999Z</time></trkpt><trkpt lat="39.06143181962458" lon="16.188404520431146"><ele>379.0</ele><time>2026-04-27T13:24:26.999Z</time></trkpt><trkpt lat="39.06153193933146" lon="16.188573568861457"><ele>375.66666666666663</ele><time>2026-04-27T13:24:27.999Z</time></trkpt><trkpt lat="39.061615863438114" lon="16.18874710525192"><ele>372.3333333333333</ele><time>2026-04-27T13:24:28.999Z</time></trkpt><trkpt lat="39.06168923919222" lon="16.18892725401778"><ele>369.0</ele><time>2026-04-27T13:24:29.999Z</time></trkpt><trkpt lat="39.06174710208736" lon="16.18910857354059"><ele>369.0</ele><time>2026-04-27T13:24:30.999Z</time></trkpt><trkpt lat="39.06179513956907" lon="16.189303351023156"><ele>369.0</ele><time>2026-04-27T13:24:31.999Z</time></trkpt><trkpt lat="39.06182610698163" lon="16.189512325323886"><ele>369.0</ele><time>2026-04-27T13:24:32.999Z</time></trkpt><trkpt lat="39.06183776851044" lon="16.18974130543075"><ele>373.3333333333333</ele><time>2026-04-27T13:24:33.999Z</time></trkpt><trkpt lat="39.061848056156045" lon="16.18998195093761"><ele>377.66666666666663</ele><time>2026-04-27T13:24:34.999Z</time></trkpt><trkpt lat="39.06185127428059" lon="16.19022958114087"><ele>382.0</ele><time>2026-04-27T13:24:35.999Z</time></trkpt><trkpt lat="39.06185597425536" lon="16.190485812255833"><ele>385.66666666666663</ele><time>2026-04-27T13:24:36.999Z</time></trkpt><trkpt lat="39.06186392395495" lon="16.19074390877406"><ele>389.3333333333333</ele><time>2026-04-27T13:24:37.999Z</time></trkpt><trkpt lat="39.06187405301974" lon="16.191006714708177"><ele>393.0</ele><time>2026-04-27T13:24:38.999Z</time></trkpt><trkpt lat="39.06189441484437" lon="16.191275710497845"><ele>396.0</ele><time>2026-04-27T13:24:39.999Z</time></trkpt><trkpt lat="39.06193010953465" lon="16.191541884426787"><ele>399.0</ele><time>2026-04-27T13:24:40.999Z</time></trkpt><trkpt lat="39.06197434165998" lon="16.191808054287684"><ele>402.0</ele><time>2026-04-27T13:24:41.999Z</time></trkpt><trkpt lat="39.06202922900371" lon="16.19207150195892"><ele>402.0</ele><time>2026-04-27T13:24:42.999Z</time></trkpt><trkpt lat="39.062093015246035" lon="16.192324378728127"><ele>402.0</ele><time>2026-04-27T13:24:43.999Z</time></trkpt><trkpt lat="39.06216290334408" lon="16.192571056642073"><ele>402.0</ele><time>2026-04-27T13:24:44.999Z</time></trkpt><trkpt lat="39.062229718077596" lon="16.192799596280665"><ele>405.66666666666663</ele><time>2026-04-27T13:24:45.999Z</time></trkpt><trkpt lat="39.062289486035084" lon="16.19300413040399"><ele>409.3333333333333</ele><time>2026-04-27T13:24:46.999Z</time></trkpt><trkpt lat="39.06234514074423" lon="16.193195088693802"><ele>413.0</ele><time>2026-04-27T13:24:47.999Z</time></trkpt><trkpt lat="39.062402912363375" lon="16.193393310526172"><ele>413.0</ele><time>2026-04-27T13:24:48.999Z</time></trkpt><trkpt lat="39.06245959126724" lon="16.19358688664942"><ele>413.0</ele><time>2026-04-27T13:24:49.999Z</time></trkpt><trkpt lat="39.062509568223305" lon="16.193754494864"><ele>413.0</ele><time>2026-04-27T13:24:50.999Z</time></trkpt><trkpt lat="39.06255256063352" lon="16.193898952208748"><ele>413.0</ele><time>2026-04-27T13:24:51.999Z</time></trkpt><trkpt lat="39.062589855602916" lon="16.19402481673068"><ele>413.0</ele><time>2026-04-27T13:24:52.999Z</time></trkpt><trkpt lat="39.06261626874559" lon="16.194113956622875"><ele>413.0</ele><time>2026-04-27T13:24:53.999Z</time></trkpt><trkpt lat="39.062629915948015" lon="16.194214342727008"><ele>413.0</ele><time>2026-04-27T13:24:55.999Z</time></trkpt><trkpt lat="39.062649062300565" lon="16.194317981909464"><ele>413.0</ele><time>2026-04-27T13:24:57.999Z</time></trkpt><trkpt lat="39.062790698317436" lon="16.19436715022814"><ele>413.0</ele><time>2026-04-27T13:24:58.999Z</time></trkpt><trkpt lat="39.062904947115314" lon="16.194395592346922"><ele>413.0</ele><time>2026-04-27T13:24:59.999Z</time></trkpt><trkpt lat="39.063048735623546" lon="16.194374463274187"><ele>413.0</ele><time>2026-04-27T13:25:00.999Z</time></trkpt><trkpt lat="39.06319829383623" lon="16.194388250187497"><ele>413.0</ele><time>2026-04-27T13:25:01.999Z</time></trkpt><trkpt lat="39.063359552815584" lon="16.19441643022505"><ele>410.0</ele><time>2026-04-27T13:25:02.999Z</time></trkpt><trkpt lat="39.06352548935552" lon="16.19444991073016"><ele>407.0</ele><time>2026-04-27T13:25:03.999Z</time></trkpt><trkpt lat="39.06368347968016" lon="16.194485977896125"><ele>404.0</ele><time>2026-04-27T13:25:04.999Z</time></trkpt><trkpt lat="39.063834090928566" lon="16.194627735266597"><ele>404.0</ele><time>2026-04-27T13:25:05.999Z</time></trkpt><trkpt lat="39.064018362427305" lon="16.194713566297935"><ele>404.0</ele><time>2026-04-27T13:25:06.999Z</time></trkpt><trkpt lat="39.06418363194286" lon="16.194800828576728"><ele>404.0</ele><time>2026-04-27T13:25:07.999Z</time></trkpt><trkpt lat="39.06432886841606" lon="16.194881466368876"><ele>407.75</ele><time>2026-04-27T13:25:08.999Z</time></trkpt><trkpt lat="39.064470923373015" lon="16.194964101895103"><ele>411.5</ele><time>2026-04-27T13:25:09.999Z</time></trkpt><trkpt lat="39.064604520400025" lon="16.19505081105976"><ele>415.25</ele><time>2026-04-27T13:25:10.999Z</time></trkpt><trkpt lat="39.064711038605836" lon="16.19516529881141"><ele>419.0</ele><time>2026-04-27T13:25:11.999Z</time></trkpt><trkpt lat="39.06482108233286" lon="16.195316423401987"><ele>419.0</ele><time>2026-04-27T13:25:12.999Z</time></trkpt><trkpt lat="39.06493775715561" lon="16.19549881245994"><ele>419.0</ele><time>2026-04-27T13:25:13.999Z</time></trkpt><trkpt lat="39.06506170797917" lon="16.19569172957959"><ele>419.0</ele><time>2026-04-27T13:25:14.999Z</time></trkpt><trkpt lat="39.06518734888672" lon="16.195887277493334"><ele>420.25</ele><time>2026-04-27T13:25:15.999Z</time></trkpt><trkpt lat="39.06530658530979" lon="16.196072857287444"><ele>421.5</ele><time>2026-04-27T13:25:16.999Z</time></trkpt><trkpt lat="39.06539794751262" lon="16.19621391643971"><ele>422.75</ele><time>2026-04-27T13:25:17.999Z</time></trkpt><trkpt lat="39.0654489529784" lon="16.19629054950022"><ele>424.0</ele><time>2026-04-27T13:25:18.999Z</time></trkpt><trkpt lat="39.06550937327513" lon="16.19638078054587"><ele>424.00000000000006</ele><time>2026-04-27T13:25:20.999Z</time></trkpt><trkpt lat="39.06544353412005" lon="16.196477807567998"><ele>424.0</ele><time>2026-04-27T13:25:23.999Z</time></trkpt><trkpt lat="39.065373975108585" lon="16.196481085353803"><ele>424.0</ele><time>2026-04-27T13:25:24.999Z</time></trkpt><trkpt lat="39.06529915507521" lon="16.19646445550119"><ele>424.0</ele><time>2026-04-27T13:25:25.999Z</time></trkpt><trkpt lat="39.06522091322009" lon="16.196423465542672"><ele>424.00000000000006</ele><time>2026-04-27T13:25:26.999Z</time></trkpt><trkpt lat="39.065144455450564" lon="16.1963602275103"><ele>424.0</ele><time>2026-04-27T13:25:27.999Z</time></trkpt><trkpt lat="39.06506840546723" lon="16.196282719444696"><ele>424.0</ele><time>2026-04-27T13:25:28.999Z</time></trkpt><trkpt lat="39.06499394187084" lon="16.19619614335405"><ele>424.0</ele><time>2026-04-27T13:25:29.999Z</time></trkpt><trkpt lat="39.06492908971833" lon="16.1961102949193"><ele>424.0</ele><time>2026-04-27T13:25:30.999Z</time></trkpt><trkpt lat="39.06486893541205" lon="16.196025075537385"><ele>424.0</ele><time>2026-04-27T13:25:31.999Z</time></trkpt><trkpt lat="39.064806808702876" lon="16.195942784145725"><ele>424.0</ele><time>2026-04-27T13:25:32.999Z</time></trkpt><trkpt lat="39.064743208165645" lon="16.195865471440225"><ele>423.1666666666667</ele><time>2026-04-27T13:25:33.999Z</time></trkpt><trkpt lat="39.06467557534729" lon="16.195783135674436"><ele>422.33333333333337</ele><time>2026-04-27T13:25:34.999Z</time></trkpt><trkpt lat="39.06460708706338" lon="16.195709538029128"><ele>421.5</ele><time>2026-04-27T13:25:35.999Z</time></trkpt><trkpt lat="39.064551692161295" lon="16.195641585610456"><ele>420.66666666666663</ele><time>2026-04-27T13:25:36.999Z</time></trkpt><trkpt lat="39.06450508120574" lon="16.19558387702254"><ele>419.8333333333333</ele><time>2026-04-27T13:25:37.999Z</time></trkpt><trkpt lat="39.06442222899374" lon="16.19549105105201"><ele>419.0</ele><time>2026-04-27T13:25:39.999Z</time></trkpt><trkpt lat="39.06434832640096" lon="16.19546207055603"><ele>419.0</ele><time>2026-04-27T13:25:41.999Z</time></trkpt><trkpt lat="39.06427590790996" lon="16.195423584634565"><ele>419.0</ele><time>2026-04-27T13:25:45.999Z</time></trkpt><trkpt lat="39.06440309683623" lon="16.195576186470486"><ele>419.0</ele><time>2026-04-27T13:25:51Z</time></trkpt><trkpt lat="39.06448091190793" lon="16.195638088594357"><ele>419.0</ele><time>2026-04-27T13:25:52Z</time></trkpt><trkpt lat="39.06465105398208" lon="16.195759752166598"><ele>420.25</ele><time>2026-04-27T13:25:54Z</time></trkpt><trkpt lat="39.06474295392001" lon="16.19587253189785"><ele>421.5</ele><time>2026-04-27T13:25:55Z</time></trkpt><trkpt lat="39.064835076772795" lon="16.195995817678355"><ele>422.75</ele><time>2026-04-27T13:25:56Z</time></trkpt><trkpt lat="39.06492916102916" lon="16.196113023891858"><ele>424.0</ele><time>2026-04-27T13:25:57Z</time></trkpt><trkpt lat="39.065020436044776" lon="16.19622311421776"><ele>424.0</ele><time>2026-04-27T13:25:58Z</time></trkpt><trkpt lat="39.065106006610534" lon="16.196317156099585"><ele>424.0</ele><time>2026-04-27T13:25:59Z</time></trkpt><trkpt lat="39.06520476154956" lon="16.196386101302537"><ele>424.0</ele><time>2026-04-27T13:26:00Z</time></trkpt><trkpt lat="39.06530291620262" lon="16.19642118746049"><ele>424.0</ele><time>2026-04-27T13:26:01Z</time></trkpt><trkpt lat="39.06540449912254" lon="16.19643716346806"><ele>424.0</ele><time>2026-04-27T13:26:02Z</time></trkpt><trkpt lat="39.065496081155196" lon="16.196449078267182"><ele>424.0</ele><time>2026-04-27T13:26:03Z</time></trkpt><trkpt lat="39.0655860485712" lon="16.19647798397261"><ele>424.0</ele><time>2026-04-27T13:26:04Z</time></trkpt><trkpt lat="39.065656917662054" lon="16.196542114310432"><ele>424.0</ele><time>2026-04-27T13:26:05Z</time></trkpt><trkpt lat="39.06572110427702" lon="16.196622652911277"><ele>424.0</ele><time>2026-04-27T13:26:06Z</time></trkpt><trkpt lat="39.06572796077676" lon="16.196775315074824"><ele>424.0</ele><time>2026-04-27T13:26:07Z</time></trkpt><trkpt lat="39.06576566599632" lon="16.196895237749686"><ele>426.79999999999995</ele><time>2026-04-27T13:26:08Z</time></trkpt><trkpt lat="39.065720625071485" lon="16.19701618867819"><ele>429.59999999999997</ele><time>2026-04-27T13:26:09Z</time></trkpt><trkpt lat="39.065640010661426" lon="16.19709908461244"><ele>432.4</ele><time>2026-04-27T13:26:10Z</time></trkpt><trkpt lat="39.06555565255097" lon="16.197147388215562"><ele>435.2</ele><time>2026-04-27T13:26:11Z</time></trkpt><trkpt lat="39.065442532625056" lon="16.197062304975393"><ele>438.0</ele><time>2026-04-27T13:26:12Z</time></trkpt><trkpt lat="39.065487360674936" lon="16.19713344161598"><ele>438.0</ele><time>2026-04-27T13:26:13Z</time></trkpt><trkpt lat="39.06522008248523" lon="16.19693304176869"><ele>438.0</ele><time>2026-04-27T13:26:14Z</time></trkpt><trkpt lat="39.06506930963183" lon="16.196850330098258"><ele>442.25</ele><time>2026-04-27T13:26:14.999Z</time></trkpt><trkpt lat="39.06493094602982" lon="16.19677259174072"><ele>446.5</ele><time>2026-04-27T13:26:15.999Z</time></trkpt><trkpt lat="39.06479435185394" lon="16.196707002463835"><ele>450.75</ele><time>2026-04-27T13:26:16.999Z</time></trkpt><trkpt lat="39.064659235975356" lon="16.196654459932788"><ele>455.0</ele><time>2026-04-27T13:26:17.999Z</time></trkpt><trkpt lat="39.06451942580237" lon="16.196613298892732"><ele>455.0</ele><time>2026-04-27T13:26:18.999Z</time></trkpt><trkpt lat="39.06438181875397" lon="16.19660145256412"><ele>455.0</ele><time>2026-04-27T13:26:19.999Z</time></trkpt><trkpt lat="39.06424128469118" lon="16.1966254573698"><ele>455.0</ele><time>2026-04-27T13:26:20.999Z</time></trkpt><trkpt lat="39.06410465957345" lon="16.196702731929204"><ele>455.0</ele><time>2026-04-27T13:26:21.999Z</time></trkpt><trkpt lat="39.06394693168037" lon="16.19679282555493"><ele>454.0</ele><time>2026-04-27T13:26:22.999Z</time></trkpt><trkpt lat="39.06377078881162" lon="16.196879402556416"><ele>453.0</ele><time>2026-04-27T13:26:23.999Z</time></trkpt><trkpt lat="39.063599592119544" lon="16.196999594079365"><ele>452.0</ele><time>2026-04-27T13:26:24.999Z</time></trkpt><trkpt lat="39.06344569740883" lon="16.197129741773175"><ele>452.0</ele><time>2026-04-27T13:26:25.999Z</time></trkpt><trkpt lat="39.06331840080276" lon="16.197252230608367"><ele>452.0</ele><time>2026-04-27T13:26:26.999Z</time></trkpt><trkpt lat="39.063184493098866" lon="16.197377291420178"><ele>452.0</ele><time>2026-04-27T13:26:27.999Z</time></trkpt><trkpt lat="39.0630385306213" lon="16.19747388700951"><ele>460.0</ele><time>2026-04-27T13:26:28.999Z</time></trkpt><trkpt lat="39.0628748288797" lon="16.197542546284517"><ele>468.0</ele><time>2026-04-27T13:26:29.999Z</time></trkpt><trkpt lat="39.062703393879616" lon="16.19758243125729"><ele>476.0</ele><time>2026-04-27T13:26:30.999Z</time></trkpt><trkpt lat="39.06252090845628" lon="16.19761856754123"><ele>477.3333333333333</ele><time>2026-04-27T13:26:31.999Z</time></trkpt><trkpt lat="39.06234297632206" lon="16.197663469377904"><ele>478.66666666666663</ele><time>2026-04-27T13:26:32.999Z</time></trkpt><trkpt lat="39.0621932842333" lon="16.19770585036694"><ele>480.0</ele><time>2026-04-27T13:26:33.999Z</time></trkpt><trkpt lat="39.062061430170026" lon="16.19773735990695"><ele>480.0</ele><time>2026-04-27T13:26:34.999Z</time></trkpt><trkpt lat="39.06193291173799" lon="16.197759258983478"><ele>480.0</ele><time>2026-04-27T13:26:35.999Z</time></trkpt><trkpt lat="39.06181392228646" lon="16.19775919727109"><ele>480.0</ele><time>2026-04-27T13:26:36.999Z</time></trkpt><trkpt lat="39.061695899086594" lon="16.19769787448581"><ele>480.0</ele><time>2026-04-27T13:26:37.999Z</time></trkpt><trkpt lat="39.06161192433569" lon="16.197590400773734"><ele>480.2</ele><time>2026-04-27T13:26:38.999Z</time></trkpt><trkpt lat="39.06156193185248" lon="16.1974684092975"><ele>480.4</ele><time>2026-04-27T13:26:39.999Z</time></trkpt><trkpt lat="39.0615177225384" lon="16.197377761869785"><ele>480.6</ele><time>2026-04-27T13:26:40.999Z</time></trkpt><trkpt lat="39.06144848791825" lon="16.197332325835724"><ele>480.8</ele><time>2026-04-27T13:26:41.999Z</time></trkpt><trkpt lat="39.06137448951423" lon="16.19734414539349"><ele>481.0</ele><time>2026-04-27T13:26:42.999Z</time></trkpt><trkpt lat="39.06128082810954" lon="16.197482357873167"><ele>479.5</ele><time>2026-04-27T13:26:44.999Z</time></trkpt><trkpt lat="39.06124665314678" lon="16.19763287557173"><ele>478.0</ele><time>2026-04-27T13:26:46.999Z</time></trkpt><trkpt lat="39.06135471001266" lon="16.19781433040687"><ele>476.5</ele><time>2026-04-27T13:26:47.999Z</time></trkpt><trkpt lat="39.06142761080096" lon="16.197951015729185"><ele>475.0</ele><time>2026-04-27T13:26:48.999Z</time></trkpt><trkpt lat="39.06148900245139" lon="16.19806612193875"><ele>475.00000000000006</ele><time>2026-04-27T13:26:49.999Z</time></trkpt><trkpt lat="39.06154003749145" lon="16.198161812594837"><ele>475.0</ele><time>2026-04-27T13:26:50.999Z</time></trkpt><trkpt lat="39.061575945997454" lon="16.19823435209907"><ele>475.0</ele><time>2026-04-27T13:26:51.999Z</time></trkpt><trkpt lat="39.06161613965321" lon="16.19831243360215"><ele>475.0</ele><time>2026-04-27T13:26:52.999Z</time></trkpt><trkpt lat="39.061667785482165" lon="16.19841049706466"><ele>475.00000000000006</ele><time>2026-04-27T13:26:53.999Z</time></trkpt><trkpt lat="39.06173052656524" lon="16.1985252515659"><ele>475.0</ele><time>2026-04-27T13:26:54.999Z</time></trkpt><trkpt lat="39.061841891928076" lon="16.198614580235628"><ele>478.0</ele><time>2026-04-27T13:26:55.999Z</time></trkpt><trkpt lat="39.06191519476694" lon="16.19875417367378"><ele>481.0</ele><time>2026-04-27T13:26:56.999Z</time></trkpt><trkpt lat="39.06198349820729" lon="16.198899114315477"><ele>484.0</ele><time>2026-04-27T13:26:57.999Z</time></trkpt><trkpt lat="39.062039018955666" lon="16.199066791240746"><ele>487.0</ele><time>2026-04-27T13:26:58.999Z</time></trkpt><trkpt lat="39.06203282859428" lon="16.199283674263597"><ele>487.0</ele><time>2026-04-27T13:26:59.999Z</time></trkpt><trkpt lat="39.06212592089591" lon="16.199446865722756"><ele>487.0</ele><time>2026-04-27T13:27:00.999Z</time></trkpt><trkpt lat="39.06219772359788" lon="16.199586804821063"><ele>487.0</ele><time>2026-04-27T13:27:01.999Z</time></trkpt><trkpt lat="39.0622172643456" lon="16.199727359030472"><ele>487.0</ele><time>2026-04-27T13:27:02.999Z</time></trkpt><trkpt lat="39.062190240235005" lon="16.19987110422507"><ele>486.75</ele><time>2026-04-27T13:27:03.999Z</time></trkpt><trkpt lat="39.06216815842062" lon="16.200045673736547"><ele>486.5</ele><time>2026-04-27T13:27:04.999Z</time></trkpt><trkpt lat="39.06217332004994" lon="16.200189732251165"><ele>486.25</ele><time>2026-04-27T13:27:05.999Z</time></trkpt><trkpt lat="39.062240087975354" lon="16.200326600214947"><ele>486.0</ele><time>2026-04-27T13:27:06.999Z</time></trkpt><trkpt lat="39.06232743423873" lon="16.20046298273191"><ele>486.0</ele><time>2026-04-27T13:27:07.999Z</time></trkpt><trkpt lat="39.062400748072974" lon="16.200623007735985"><ele>486.0</ele><time>2026-04-27T13:27:08.999Z</time></trkpt><trkpt lat="39.06245313068618" lon="16.200794753893685"><ele>486.0</ele><time>2026-04-27T13:27:09.999Z</time></trkpt><trkpt lat="39.06251093107301" lon="16.200981133198333"><ele>486.0</ele><time>2026-04-27T13:27:10.999Z</time></trkpt><trkpt lat="39.062565529104425" lon="16.20115737280914"><ele>493.75</ele><time>2026-04-27T13:27:11.999Z</time></trkpt><trkpt lat="39.062614716451925" lon="16.201316146901185"><ele>501.5</ele><time>2026-04-27T13:27:12.999Z</time></trkpt><trkpt lat="39.06265066517843" lon="16.201463941975597"><ele>509.25</ele><time>2026-04-27T13:27:13.999Z</time></trkpt><trkpt lat="39.062634736571255" lon="16.201607718255804"><ele>517.0</ele><time>2026-04-27T13:27:14.999Z</time></trkpt><trkpt lat="39.0625966001933" lon="16.201777287569662"><ele>517.0</ele><time>2026-04-27T13:27:15.999Z</time></trkpt><trkpt lat="39.06255334103457" lon="16.201967803443356"><ele>517.0</ele><time>2026-04-27T13:27:16.999Z</time></trkpt><trkpt lat="39.06251269494963" lon="16.202159607258473"><ele>517.0</ele><time>2026-04-27T13:27:17.999Z</time></trkpt><trkpt lat="39.06247500742861" lon="16.202340353867612"><ele>510.75</ele><time>2026-04-27T13:27:18.999Z</time></trkpt><trkpt lat="39.06243182828497" lon="16.20251775400447"><ele>504.5</ele><time>2026-04-27T13:27:19.999Z</time></trkpt><trkpt lat="39.06236631499567" lon="16.202688511642563"><ele>498.25</ele><time>2026-04-27T13:27:20.999Z</time></trkpt><trkpt lat="39.062285235724595" lon="16.202852569811668"><ele>492.0</ele><time>2026-04-27T13:27:21.999Z</time></trkpt><trkpt lat="39.06220790810719" lon="16.203004461416825"><ele>492.0</ele><time>2026-04-27T13:27:22.999Z</time></trkpt><trkpt lat="39.062141528873674" lon="16.20314476988479"><ele>492.0</ele><time>2026-04-27T13:27:23.999Z</time></trkpt><trkpt lat="39.062107768202765" lon="16.20330832667652"><ele>492.0</ele><time>2026-04-27T13:27:24.999Z</time></trkpt><trkpt lat="39.062101137225284" lon="16.203484567783576"><ele>492.0</ele><time>2026-04-27T13:27:25.999Z</time></trkpt><trkpt lat="39.06214899801485" lon="16.203673771519863"><ele>495.0</ele><time>2026-04-27T13:27:26.999Z</time></trkpt><trkpt lat="39.062223556382115" lon="16.20384308951176"><ele>498.0</ele><time>2026-04-27T13:27:27.999Z</time></trkpt><trkpt lat="39.06226506035124" lon="16.204012370248375"><ele>501.0</ele><time>2026-04-27T13:27:28.999Z</time></trkpt><trkpt lat="39.06225194531165" lon="16.204170207478317"><ele>504.0</ele><time>2026-04-27T13:27:29.999Z</time></trkpt><trkpt lat="39.062247724679864" lon="16.204332916670044"><ele>505.0</ele><time>2026-04-27T13:27:30.999Z</time></trkpt><trkpt lat="39.062221470265975" lon="16.20444998160903"><ele>506.0</ele><time>2026-04-27T13:27:31.999Z</time></trkpt><trkpt lat="39.06215486676158" lon="16.204550026948386"><ele>507.0</ele><time>2026-04-27T13:27:32.999Z</time></trkpt><trkpt lat="39.06209438375351" lon="16.204672005282642"><ele>508.0</ele><time>2026-04-27T13:27:33.999Z</time></trkpt><trkpt lat="39.062066064325066" lon="16.20480932438333"><ele>509.0</ele><time>2026-04-27T13:27:34.999Z</time></trkpt><trkpt lat="39.062135225733265" lon="16.20499232932069"><ele>510.5</ele><time>2026-04-27T13:27:35.999Z</time></trkpt><trkpt lat="39.062180207471165" lon="16.205156993903678"><ele>512.0</ele><time>2026-04-27T13:27:36.999Z</time></trkpt><trkpt lat="39.06219356945764" lon="16.205316344718508"><ele>513.5</ele><time>2026-04-27T13:27:37.999Z</time></trkpt><trkpt lat="39.06219693807633" lon="16.205497148084227"><ele>515.0</ele><time>2026-04-27T13:27:38.999Z</time></trkpt><trkpt lat="39.062246404660605" lon="16.20567427368097"><ele>515.8</ele><time>2026-04-27T13:27:39.999Z</time></trkpt><trkpt lat="39.062333771312844" lon="16.205809318599584"><ele>516.6</ele><time>2026-04-27T13:27:40.999Z</time></trkpt><trkpt lat="39.062408084860884" lon="16.2059441490484"><ele>517.4</ele><time>2026-04-27T13:27:41.999Z</time></trkpt><trkpt lat="39.06246512903964" lon="16.206027983692316"><ele>518.2</ele><time>2026-04-27T13:27:42.999Z</time></trkpt><trkpt lat="39.06252482298292" lon="16.206084664259755"><ele>519.0</ele><time>2026-04-27T13:27:43.999Z</time></trkpt><trkpt lat="39.062614441576116" lon="16.20608252819088"><ele>526.75</ele><time>2026-04-27T13:27:44.999Z</time></trkpt><trkpt lat="39.062690174388" lon="16.205954389732398"><ele>534.5</ele><time>2026-04-27T13:27:45.999Z</time></trkpt><trkpt lat="39.062658817970934" lon="16.20580311078401"><ele>542.25</ele><time>2026-04-27T13:27:46.999Z</time></trkpt><trkpt lat="39.06257464848215" lon="16.205705203289536"><ele>550.0</ele><time>2026-04-27T13:27:47.999Z</time></trkpt><trkpt lat="39.06248893779015" lon="16.20558008085643"><ele>541.25</ele><time>2026-04-27T13:27:48.999Z</time></trkpt><trkpt lat="39.06244215693918" lon="16.205498017488342"><ele>532.5</ele><time>2026-04-27T13:27:49.999Z</time></trkpt><trkpt lat="39.0624045748326" lon="16.20535030201913"><ele>523.75</ele><time>2026-04-27T13:27:50.999Z</time></trkpt><trkpt lat="39.06241359227139" lon="16.205183691711674"><ele>515.0</ele><time>2026-04-27T13:27:51.999Z</time></trkpt><trkpt lat="39.06242466181452" lon="16.204999739145293"><ele>513.5</ele><time>2026-04-27T13:27:52.999Z</time></trkpt><trkpt lat="39.062425781811875" lon="16.20481966364157"><ele>512.0</ele><time>2026-04-27T13:27:53.999Z</time></trkpt><trkpt lat="39.062424354892336" lon="16.204652068014358"><ele>510.5</ele><time>2026-04-27T13:27:55Z</time></trkpt><trkpt lat="39.06249882352941" lon="16.20449012940516"><ele>509.0</ele><time>2026-04-27T13:27:56Z</time></trkpt><trkpt lat="39.06252603670071" lon="16.204331202816245"><ele>518.25</ele><time>2026-04-27T13:27:57Z</time></trkpt><trkpt lat="39.06254377923031" lon="16.204140667653434"><ele>527.5</ele><time>2026-04-27T13:27:58Z</time></trkpt><trkpt lat="39.06253611223348" lon="16.20395556969824"><ele>536.75</ele><time>2026-04-27T13:27:59Z</time></trkpt><trkpt lat="39.062583413992485" lon="16.203773274199744"><ele>546.0</ele><time>2026-04-27T13:28:00Z</time></trkpt><trkpt lat="39.06262331209056" lon="16.20361327894113"><ele>546.0</ele><time>2026-04-27T13:28:01Z</time></trkpt><trkpt lat="39.06266999139863" lon="16.203491848780015"><ele>546.0</ele><time>2026-04-27T13:28:02Z</time></trkpt><trkpt lat="39.062742186906775" lon="16.20341913829334"><ele>546.0</ele><time>2026-04-27T13:28:03Z</time></trkpt><trkpt lat="39.062835756228424" lon="16.20331035388008"><ele>546.0</ele><time>2026-04-27T13:28:04Z</time></trkpt><trkpt lat="39.06292750465899" lon="16.203161403171702"><ele>540.3333333333334</ele><time>2026-04-27T13:28:05Z</time></trkpt><trkpt lat="39.06302038263555" lon="16.20298221334481"><ele>534.6666666666667</ele><time>2026-04-27T13:28:06Z</time></trkpt><trkpt lat="39.063105288858104" lon="16.202776662452756"><ele>529.0</ele><time>2026-04-27T13:28:07Z</time></trkpt><trkpt lat="39.06316956070814" lon="16.20259392961526"><ele>529.0</ele><time>2026-04-27T13:28:08Z</time></trkpt><trkpt lat="39.0632197014677" lon="16.202443616415326"><ele>529.0</ele><time>2026-04-27T13:28:09Z</time></trkpt><trkpt lat="39.063272278775294" lon="16.202305354590248"><ele>529.0</ele><time>2026-04-27T13:28:10Z</time></trkpt><trkpt lat="39.063302187571075" lon="16.20216267266957"><ele>529.0</ele><time>2026-04-27T13:28:11Z</time></trkpt><trkpt lat="39.0632829174588" lon="16.20201370685728"><ele>526.6</ele><time>2026-04-27T13:28:12Z</time></trkpt><trkpt lat="39.0632383531148" lon="16.20188999557383"><ele>524.2</ele><time>2026-04-27T13:28:13Z</time></trkpt><trkpt lat="39.06324308317402" lon="16.20180612183277"><ele>521.8000000000001</ele><time>2026-04-27T13:28:14Z</time></trkpt><trkpt lat="39.063300904149486" lon="16.2017623739731"><ele>519.4</ele><time>2026-04-27T13:28:15Z</time></trkpt><trkpt lat="39.06337119409422" lon="16.20187241319226"><ele>517.0</ele><time>2026-04-27T13:28:16Z</time></trkpt><trkpt lat="39.0633850135846" lon="16.2020185656763"><ele>520.0</ele><time>2026-04-27T13:28:18Z</time></trkpt><trkpt lat="39.0633575367185" lon="16.202164113797732"><ele>523.0</ele><time>2026-04-27T13:28:19Z</time></trkpt><trkpt lat="39.06332547868159" lon="16.202344525348128"><ele>526.0</ele><time>2026-04-27T13:28:19.999Z</time></trkpt><trkpt lat="39.06327956227239" lon="16.202523104797088"><ele>529.0</ele><time>2026-04-27T13:28:20.999Z</time></trkpt><trkpt lat="39.063244529394375" lon="16.202685036003196"><ele>529.0</ele><time>2026-04-27T13:28:21.999Z</time></trkpt><trkpt lat="39.063196197766224" lon="16.202832392532752"><ele>529.0</ele><time>2026-04-27T13:28:22.999Z</time></trkpt><trkpt lat="39.063207200701136" lon="16.20302565852357"><ele>529.0</ele><time>2026-04-27T13:28:23.999Z</time></trkpt><trkpt lat="39.06324222277229" lon="16.203235476973806"><ele>529.0</ele><time>2026-04-27T13:28:24.999Z</time></trkpt><trkpt lat="39.06326743508691" lon="16.203414120486478"><ele>533.25</ele><time>2026-04-27T13:28:25.999Z</time></trkpt><trkpt lat="39.063247616947244" lon="16.203572431036562"><ele>537.5</ele><time>2026-04-27T13:28:26.999Z</time></trkpt><trkpt lat="39.06321268229656" lon="16.203756889561955"><ele>541.75</ele><time>2026-04-27T13:28:27.999Z</time></trkpt><trkpt lat="39.063186250086765" lon="16.20395417867903"><ele>546.0</ele><time>2026-04-27T13:28:28.999Z</time></trkpt><trkpt lat="39.06314735247805" lon="16.204136767956246"><ele>547.6666666666666</ele><time>2026-04-27T13:28:29.999Z</time></trkpt><trkpt lat="39.06312231292853" lon="16.204321391091238"><ele>549.3333333333333</ele><time>2026-04-27T13:28:30.999Z</time></trkpt><trkpt lat="39.06314060068719" lon="16.204514064631137"><ele>551.0</ele><time>2026-04-27T13:28:31.999Z</time></trkpt><trkpt lat="39.06321051316609" lon="16.20470747142209"><ele>552.3333333333333</ele><time>2026-04-27T13:28:32.999Z</time></trkpt><trkpt lat="39.06327216602171" lon="16.204891602746027"><ele>553.6666666666666</ele><time>2026-04-27T13:28:33.999Z</time></trkpt><trkpt lat="39.06330633694398" lon="16.20507413984771"><ele>555.0</ele><time>2026-04-27T13:28:34.999Z</time></trkpt><trkpt lat="39.06330767415196" lon="16.20527205057984"><ele>567.0</ele><time>2026-04-27T13:28:35.999Z</time></trkpt><trkpt lat="39.06333421367482" lon="16.205480313096658"><ele>579.0</ele><time>2026-04-27T13:28:36.999Z</time></trkpt><trkpt lat="39.063423449870726" lon="16.205675601717942"><ele>591.0</ele><time>2026-04-27T13:28:37.999Z</time></trkpt><trkpt lat="39.06348562947229" lon="16.20585817752232"><ele>591.0</ele><time>2026-04-27T13:28:38.999Z</time></trkpt><trkpt lat="39.06351971863042" lon="16.20604135116144"><ele>591.0</ele><time>2026-04-27T13:28:39.999Z</time></trkpt><trkpt lat="39.063532405206715" lon="16.206208097218283"><ele>591.0</ele><time>2026-04-27T13:28:40.999Z</time></trkpt><trkpt lat="39.06351782546032" lon="16.206332351706713"><ele>591.0</ele><time>2026-04-27T13:28:41.999Z</time></trkpt><trkpt lat="39.06352453186702" lon="16.20643902881103"><ele>591.0</ele><time>2026-04-27T13:28:42.999Z</time></trkpt><trkpt lat="39.06351943245763" lon="16.20653538358864"><ele>591.0</ele><time>2026-04-27T13:28:43.999Z</time></trkpt><trkpt lat="39.06359453016412" lon="16.20661552760314"><ele>591.0</ele><time>2026-04-27T13:28:44.999Z</time></trkpt><trkpt lat="39.063668377757224" lon="16.20664833004715"><ele>591.0</ele><time>2026-04-27T13:28:45.999Z</time></trkpt><trkpt lat="39.063752468613835" lon="16.206439311798587"><ele>591.0</ele><time>2026-04-27T13:28:46.999Z</time></trkpt><trkpt lat="39.06372045046241" lon="16.206232363396904"><ele>591.0</ele><time>2026-04-27T13:28:48.999Z</time></trkpt><trkpt lat="39.06371856163129" lon="16.206051714295338"><ele>591.0</ele><time>2026-04-27T13:28:49.999Z</time></trkpt><trkpt lat="39.0637144840322" lon="16.20585466800888"><ele>591.0</ele><time>2026-04-27T13:28:50.999Z</time></trkpt><trkpt lat="39.06369280624148" lon="16.205689086822026"><ele>591.0</ele><time>2026-04-27T13:28:51.999Z</time></trkpt><trkpt lat="39.06365856026411" lon="16.205535365214562"><ele>591.75</ele><time>2026-04-27T13:28:52.999Z</time></trkpt><trkpt lat="39.06362753705351" lon="16.20539403536373"><ele>592.5</ele><time>2026-04-27T13:28:53.999Z</time></trkpt><trkpt lat="39.06363692596987" lon="16.2052500095811"><ele>593.25</ele><time>2026-04-27T13:28:54.999Z</time></trkpt><trkpt lat="39.06369816637321" lon="16.205082247468678"><ele>594.0</ele><time>2026-04-27T13:28:55.999Z</time></trkpt><trkpt lat="39.063739278589104" lon="16.20490656115398"><ele>592.75</ele><time>2026-04-27T13:28:56.999Z</time></trkpt><trkpt lat="39.063744421001985" lon="16.20473966526584"><ele>591.5</ele><time>2026-04-27T13:28:57.999Z</time></trkpt><trkpt lat="39.063765746790295" lon="16.204575086380792"><ele>590.25</ele><time>2026-04-27T13:28:58.999Z</time></trkpt><trkpt lat="39.0637802834805" lon="16.204471182777077"><ele>589.0</ele><time>2026-04-27T13:28:59.999Z</time></trkpt><trkpt lat="39.0638845758424" lon="16.20442717795913"><ele>589.0</ele><time>2026-04-27T13:29:01.999Z</time></trkpt><trkpt lat="39.06388044486275" lon="16.204516133435803"><ele>589.0</ele><time>2026-04-27T13:29:02.999Z</time></trkpt><trkpt lat="39.06385341932433" lon="16.204704119704974"><ele>589.0</ele><time>2026-04-27T13:29:04.999Z</time></trkpt><trkpt lat="39.063819749417334" lon="16.204910855882822"><ele>589.0</ele><time>2026-04-27T13:29:05.999Z</time></trkpt><trkpt lat="39.063795028117354" lon="16.205082878936544"><ele>589.5</ele><time>2026-04-27T13:29:06.999Z</time></trkpt><trkpt lat="39.0637779583067" lon="16.20525248449192"><ele>590.0</ele><time>2026-04-27T13:29:07.999Z</time></trkpt><trkpt lat="39.0637962885581" lon="16.205434609874782"><ele>590.5</ele><time>2026-04-27T13:29:08.999Z</time></trkpt><trkpt lat="39.06385249186906" lon="16.2055976335084"><ele>591.0</ele><time>2026-04-27T13:29:09.999Z</time></trkpt><trkpt lat="39.06392387855326" lon="16.20582156040584"><ele>591.0</ele><time>2026-04-27T13:29:10.999Z</time></trkpt><trkpt lat="39.063989791808986" lon="16.206030825760976"><ele>591.0</ele><time>2026-04-27T13:29:11.999Z</time></trkpt><trkpt lat="39.06403999596399" lon="16.206221392477165"><ele>591.0</ele><time>2026-04-27T13:29:12.999Z</time></trkpt><trkpt lat="39.0640711020423" lon="16.20641761278687"><ele>590.0</ele><time>2026-04-27T13:29:13.999Z</time></trkpt><trkpt lat="39.064078063724175" lon="16.20662647496813"><ele>589.0</ele><time>2026-04-27T13:29:14.999Z</time></trkpt><trkpt lat="39.064085096515385" lon="16.20684780484697"><ele>588.0</ele><time>2026-04-27T13:29:15.999Z</time></trkpt><trkpt lat="39.064092659083" lon="16.207061616411227"><ele>588.0</ele><time>2026-04-27T13:29:16.999Z</time></trkpt><trkpt lat="39.06410209590409" lon="16.207248302042355"><ele>588.0</ele><time>2026-04-27T13:29:17.999Z</time></trkpt><trkpt lat="39.06409373325037" lon="16.207375529425065"><ele>588.0</ele><time>2026-04-27T13:29:18.999Z</time></trkpt><trkpt lat="39.064056772568684" lon="16.207494142664796"><ele>588.0</ele><time>2026-04-27T13:29:19.999Z</time></trkpt><trkpt lat="39.06397540825575" lon="16.207591140270384"><ele>589.6</ele><time>2026-04-27T13:29:20.999Z</time></trkpt><trkpt lat="39.06389055863284" lon="16.20770737739455"><ele>591.1999999999999</ele><time>2026-04-27T13:29:21.999Z</time></trkpt><trkpt lat="39.063846064640565" lon="16.20779897169242"><ele>592.8</ele><time>2026-04-27T13:29:22.999Z</time></trkpt><trkpt lat="39.063858244660565" lon="16.207881438315326"><ele>594.4</ele><time>2026-04-27T13:29:23.999Z</time></trkpt><trkpt lat="39.06391241895992" lon="16.207964993865517"><ele>596.0</ele><time>2026-04-27T13:29:24.999Z</time></trkpt><trkpt lat="39.064053595070405" lon="16.208003047405573"><ele>603.5</ele><time>2026-04-27T13:29:25.999Z</time></trkpt><trkpt lat="39.064180259960466" lon="16.208065057841186"><ele>611.0</ele><time>2026-04-27T13:29:26.999Z</time></trkpt><trkpt lat="39.06428775238364" lon="16.208132727991355"><ele>618.5</ele><time>2026-04-27T13:29:27.999Z</time></trkpt><trkpt lat="39.06437674922188" lon="16.20822456955439"><ele>626.0</ele><time>2026-04-27T13:29:28.999Z</time></trkpt><trkpt lat="39.064415233661904" lon="16.208319920924815"><ele>626.0</ele><time>2026-04-27T13:29:29.999Z</time></trkpt><trkpt lat="39.064451227064296" lon="16.20845177321291"><ele>626.0</ele><time>2026-04-27T13:29:30.999Z</time></trkpt><trkpt lat="39.064490128246675" lon="16.208591664273065"><ele>626.0</ele><time>2026-04-27T13:29:31.999Z</time></trkpt><trkpt lat="39.06454485023817" lon="16.20870522455721"><ele>626.0</ele><time>2026-04-27T13:29:32.999Z</time></trkpt><trkpt lat="39.064646251859614" lon="16.20875768659204"><ele>626.0</ele><time>2026-04-27T13:29:33.999Z</time></trkpt><trkpt lat="39.064739854825845" lon="16.208685421578057"><ele>626.0</ele><time>2026-04-27T13:29:34.999Z</time></trkpt><trkpt lat="39.06484330669856" lon="16.208562097124496"><ele>626.0</ele><time>2026-04-27T13:29:35.999Z</time></trkpt><trkpt lat="39.06488575109675" lon="16.208397077363294"><ele>626.0</ele><time>2026-04-27T13:29:36.999Z</time></trkpt><trkpt lat="39.064883430284056" lon="16.208251171649888"><ele>626.0</ele><time>2026-04-27T13:29:37.999Z</time></trkpt><trkpt lat="39.06483935841596" lon="16.208129655852808"><ele>627.25</ele><time>2026-04-27T13:29:38.999Z</time></trkpt><trkpt lat="39.06470497072138" lon="16.207993262839473"><ele>628.5</ele><time>2026-04-27T13:29:39.999Z</time></trkpt><trkpt lat="39.06460676965957" lon="16.207888188453392"><ele>629.75</ele><time>2026-04-27T13:29:40.999Z</time></trkpt><trkpt lat="39.06453057000201" lon="16.207791140301648"><ele>631.0</ele><time>2026-04-27T13:29:41.999Z</time></trkpt><trkpt lat="39.064514886142256" lon="16.207702366045524"><ele>631.0</ele><time>2026-04-27T13:29:42.999Z</time></trkpt><trkpt lat="39.06461446252885" lon="16.20757534596982"><ele>631.0</ele><time>2026-04-27T13:29:44.999Z</time></trkpt><trkpt lat="39.06473046140765" lon="16.20763707146657"><ele>631.0</ele><time>2026-04-27T13:29:45.999Z</time></trkpt><trkpt lat="39.06475796980142" lon="16.207731624838534"><ele>631.0</ele><time>2026-04-27T13:29:46.999Z</time></trkpt><trkpt lat="39.064806513094055" lon="16.207844748379653"><ele>631.0</ele><time>2026-04-27T13:29:47.999Z</time></trkpt><trkpt lat="39.064882742439146" lon="16.20799260054422"><ele>636.0</ele><time>2026-04-27T13:29:48.999Z</time></trkpt><trkpt lat="39.0649731829202" lon="16.208181461094316"><ele>641.0</ele><time>2026-04-27T13:29:49.999Z</time></trkpt><trkpt lat="39.0650633164743" lon="16.208368870666767"><ele>646.0</ele><time>2026-04-27T13:29:50.999Z</time></trkpt><trkpt lat="39.06514038044874" lon="16.208502070687974"><ele>646.0</ele><time>2026-04-27T13:29:51.999Z</time></trkpt><trkpt lat="39.06518317084631" lon="16.208585343883495"><ele>646.0</ele><time>2026-04-27T13:29:52.999Z</time></trkpt><trkpt lat="39.06522625923594" lon="16.208664303079072"><ele>646.0</ele><time>2026-04-27T13:29:53.999Z</time></trkpt><trkpt lat="39.06513428809723" lon="16.208806041694977"><ele>646.0</ele><time>2026-04-27T13:29:54.999Z</time></trkpt><trkpt lat="39.06511351942005" lon="16.208980502863312"><ele>646.0</ele><time>2026-04-27T13:29:55.999Z</time></trkpt><trkpt lat="39.0650886268321" lon="16.209136792105642"><ele>646.25</ele><time>2026-04-27T13:29:56.999Z</time></trkpt><trkpt lat="39.06506536177298" lon="16.20928758870519"><ele>646.5</ele><time>2026-04-27T13:29:57.999Z</time></trkpt><trkpt lat="39.06500869780357" lon="16.20944602703235"><ele>646.75</ele><time>2026-04-27T13:29:58.999Z</time></trkpt><trkpt lat="39.06501044347002" lon="16.209619485645963"><ele>647.0</ele><time>2026-04-27T13:29:59.999Z</time></trkpt><trkpt lat="39.06499900009196" lon="16.209776526257745"><ele>648.4000000000001</ele><time>2026-04-27T13:30:01Z</time></trkpt><trkpt lat="39.064980120503044" lon="16.209921731969885"><ele>649.8000000000001</ele><time>2026-04-27T13:30:02Z</time></trkpt><trkpt lat="39.064983067698485" lon="16.21003801599335"><ele>651.2</ele><time>2026-04-27T13:30:03Z</time></trkpt><trkpt lat="39.065008783396905" lon="16.210154831306298"><ele>652.6</ele><time>2026-04-27T13:30:04Z</time></trkpt><trkpt lat="39.06505965121571" lon="16.210270638629396"><ele>654.0</ele><time>2026-04-27T13:30:05Z</time></trkpt><trkpt lat="39.06508367999105" lon="16.21039565736149"><ele>654.0</ele><time>2026-04-27T13:30:06Z</time></trkpt><trkpt lat="39.06512470614141" lon="16.2105168339448"><ele>654.0</ele><time>2026-04-27T13:30:07Z</time></trkpt><trkpt lat="39.06518265966442" lon="16.210658898542494"><ele>654.0</ele><time>2026-04-27T13:30:08Z</time></trkpt><trkpt lat="39.06521843632738" lon="16.210785765018837"><ele>654.0</ele><time>2026-04-27T13:30:09Z</time></trkpt><trkpt lat="39.06518883278024" lon="16.210946385008185"><ele>655.0</ele><time>2026-04-27T13:30:11Z</time></trkpt><trkpt lat="39.06514407524365" lon="16.211103593254155"><ele>656.0</ele><time>2026-04-27T13:30:13Z</time></trkpt><trkpt lat="39.06512155974893" lon="16.211184029580416"><ele>657.0</ele><time>2026-04-27T13:30:14Z</time></trkpt><trkpt lat="39.065102046796696" lon="16.211283487753647"><ele>658.0</ele><time>2026-04-27T13:30:15Z</time></trkpt><trkpt lat="39.06510463757791" lon="16.211425892736873"><ele>659.0</ele><time>2026-04-27T13:30:16Z</time></trkpt><trkpt lat="39.065055542673754" lon="16.211503734962022"><ele>660.0</ele><time>2026-04-27T13:30:17Z</time></trkpt><trkpt lat="39.06521531747054" lon="16.21165195777031"><ele>661.0</ele><time>2026-04-27T13:30:18Z</time></trkpt><trkpt lat="39.06528589110681" lon="16.21179016842715"><ele>662.0</ele><time>2026-04-27T13:30:19Z</time></trkpt><trkpt lat="39.065351348844025" lon="16.211929897879696"><ele>662.0</ele><time>2026-04-27T13:30:20Z</time></trkpt><trkpt lat="39.06541450125671" lon="16.212064669656243"><ele>662.0</ele><time>2026-04-27T13:30:21Z</time></trkpt><trkpt lat="39.06544580113049" lon="16.21222386866354"><ele>662.0</ele><time>2026-04-27T13:30:22Z</time></trkpt><trkpt lat="39.06551420123083" lon="16.212349012941388"><ele>662.0</ele><time>2026-04-27T13:30:22.999Z</time></trkpt><trkpt lat="39.06558147908717" lon="16.21247367156943"><ele>663.5</ele><time>2026-04-27T13:30:23.999Z</time></trkpt><trkpt lat="39.065652241970014" lon="16.212604787568054"><ele>665.0</ele><time>2026-04-27T13:30:24.999Z</time></trkpt><trkpt lat="39.0657101392151" lon="16.212720215699626"><ele>666.5</ele><time>2026-04-27T13:30:25.999Z</time></trkpt><trkpt lat="39.065770609296244" lon="16.212851486802407"><ele>668.0</ele><time>2026-04-27T13:30:26.999Z</time></trkpt><trkpt lat="39.06582599681736" lon="16.212980587557322"><ele>669.2</ele><time>2026-04-27T13:30:27.999Z</time></trkpt><trkpt lat="39.065870263640605" lon="16.213096213070134"><ele>670.4</ele><time>2026-04-27T13:30:28.999Z</time></trkpt><trkpt lat="39.06591435554707" lon="16.21323025171431"><ele>671.6</ele><time>2026-04-27T13:30:29.999Z</time></trkpt><trkpt lat="39.065946867972904" lon="16.2133586657383"><ele>672.8000000000001</ele><time>2026-04-27T13:30:30.999Z</time></trkpt><trkpt lat="39.06597211473407" lon="16.213489846985876"><ele>674.0</ele><time>2026-04-27T13:30:31.999Z</time></trkpt><trkpt lat="39.06599195471674" lon="16.213622444104438"><ele>676.25</ele><time>2026-04-27T13:30:32.999Z</time></trkpt><trkpt lat="39.0660397053251" lon="16.213758355089137"><ele>678.5</ele><time>2026-04-27T13:30:33.999Z</time></trkpt><trkpt lat="39.06609582860931" lon="16.21387341921362"><ele>680.75</ele><time>2026-04-27T13:30:34.999Z</time></trkpt><trkpt lat="39.06618250203479" lon="16.21399030144868"><ele>683.0</ele><time>2026-04-27T13:30:35.999Z</time></trkpt><trkpt lat="39.06628161749224" lon="16.214093172474673"><ele>681.0</ele><time>2026-04-27T13:30:36.999Z</time></trkpt><trkpt lat="39.06640236665655" lon="16.214189775240644"><ele>679.0</ele><time>2026-04-27T13:30:37.999Z</time></trkpt><trkpt lat="39.06654797691981" lon="16.21428279110929"><ele>677.0</ele><time>2026-04-27T13:30:38.999Z</time></trkpt><trkpt lat="39.0666726589966" lon="16.214361056305616"><ele>675.0</ele><time>2026-04-27T13:30:39.999Z</time></trkpt><trkpt lat="39.06679004173702" lon="16.214436139709868"><ele>675.0</ele><time>2026-04-27T13:30:40.999Z</time></trkpt><trkpt lat="39.066899307119336" lon="16.214508737732068"><ele>675.0</ele><time>2026-04-27T13:30:41.999Z</time></trkpt><trkpt lat="39.0669975670572" lon="16.214579636069786"><ele>675.0</ele><time>2026-04-27T13:30:42.999Z</time></trkpt><trkpt lat="39.067082000107234" lon="16.214647628281973"><ele>675.0</ele><time>2026-04-27T13:30:43.999Z</time></trkpt><trkpt lat="39.06716418392421" lon="16.214730370614145"><ele>675.0</ele><time>2026-04-27T13:30:44.999Z</time></trkpt><trkpt lat="39.06721024821831" lon="16.214817166464805"><ele>677.6</ele><time>2026-04-27T13:30:45.999Z</time></trkpt><trkpt lat="39.067243966239324" lon="16.214920065722367"><ele>680.2</ele><time>2026-04-27T13:30:46.999Z</time></trkpt><trkpt lat="39.06729801227516" lon="16.21503919723321"><ele>682.8</ele><time>2026-04-27T13:30:47.999Z</time></trkpt><trkpt lat="39.06736064349313" lon="16.215140608410533"><ele>685.4</ele><time>2026-04-27T13:30:48.999Z</time></trkpt><trkpt lat="39.06731338747756" lon="16.215313540155286"><ele>688.0</ele><time>2026-04-27T13:30:49.999Z</time></trkpt><trkpt lat="39.06730503761336" lon="16.215482354018665"><ele>691.25</ele><time>2026-04-27T13:30:50.999Z</time></trkpt><trkpt lat="39.06730916135429" lon="16.215674471932065"><ele>694.5</ele><time>2026-04-27T13:30:51.999Z</time></trkpt><trkpt lat="39.06732647535235" lon="16.215852882148077"><ele>697.75</ele><time>2026-04-27T13:30:52.999Z</time></trkpt><trkpt lat="39.067342192692266" lon="16.215982965021116"><ele>701.0</ele><time>2026-04-27T13:30:53.999Z</time></trkpt><trkpt lat="39.067369811536956" lon="16.21610119207448"><ele>701.0</ele><time>2026-04-27T13:30:54.999Z</time></trkpt><trkpt lat="39.06735255025615" lon="16.216206885712104"><ele>701.0</ele><time>2026-04-27T13:30:55.999Z</time></trkpt><trkpt lat="39.06722689073627" lon="16.21623228583453"><ele>701.0</ele><time>2026-04-27T13:30:58.999Z</time></trkpt><trkpt lat="39.06716918742946" lon="16.21617882438988"><ele>701.0</ele><time>2026-04-27T13:30:59.999Z</time></trkpt><trkpt lat="39.067112306560546" lon="16.21603648333274"><ele>701.0</ele><time>2026-04-27T13:31:01.999Z</time></trkpt><trkpt lat="39.06708367512494" lon="16.21594515109278"><ele>701.0</ele><time>2026-04-27T13:31:02.999Z</time></trkpt><trkpt lat="39.06700277413062" lon="16.215844948736965"><ele>701.0</ele><time>2026-04-27T13:31:04.999Z</time></trkpt><trkpt lat="39.06694356292704" lon="16.215935640822757"><ele>701.0</ele><time>2026-04-27T13:31:07.999Z</time></trkpt><trkpt lat="39.066882100380916" lon="16.215966656598525"><ele>701.0</ele><time>2026-04-27T13:31:09.999Z</time></trkpt><trkpt lat="39.06691287152331" lon="16.21607072453685"><ele>701.0</ele><time>2026-04-27T13:31:10.999Z</time></trkpt><trkpt lat="39.0669099020193" lon="16.216211778618224"><ele>701.0</ele><time>2026-04-27T13:31:11.999Z</time></trkpt><trkpt lat="39.06688862135792" lon="16.216353076991364"><ele>701.0</ele><time>2026-04-27T13:31:12.999Z</time></trkpt><trkpt lat="39.066840639481946" lon="16.216511147832993"><ele>701.0</ele><time>2026-04-27T13:31:13.999Z</time></trkpt><trkpt lat="39.066801546935004" lon="16.21662014053163"><ele>701.0</ele><time>2026-04-27T13:31:14.999Z</time></trkpt><trkpt lat="39.06677587592314" lon="16.2167109868878"><ele>701.0</ele><time>2026-04-27T13:31:15.999Z</time></trkpt><trkpt lat="39.066767083070715" lon="16.216796823151018"><ele>702.8</ele><time>2026-04-27T13:31:16.999Z</time></trkpt><trkpt lat="39.06679391792869" lon="16.21691394852058"><ele>704.5999999999999</ele><time>2026-04-27T13:31:17.999Z</time></trkpt><trkpt lat="39.066792659472355" lon="16.217034602775794"><ele>706.4</ele><time>2026-04-27T13:31:18.999Z</time></trkpt><trkpt lat="39.066784909742765" lon="16.217143706166027"><ele>708.2</ele><time>2026-04-27T13:31:19.999Z</time></trkpt><trkpt lat="39.0666970578214" lon="16.21723299744532"><ele>710.0</ele><time>2026-04-27T13:31:21.999Z</time></trkpt><trkpt lat="39.066625450343494" lon="16.217279529029287"><ele>716.2</ele><time>2026-04-27T13:31:22.999Z</time></trkpt><trkpt lat="39.06652728333507" lon="16.217368360765505"><ele>722.4</ele><time>2026-04-27T13:31:23.999Z</time></trkpt><trkpt lat="39.066430502956784" lon="16.217469915621685"><ele>728.5999999999999</ele><time>2026-04-27T13:31:24.999Z</time></trkpt><trkpt lat="39.06635906129384" lon="16.217548082765084"><ele>734.8</ele><time>2026-04-27T13:31:25.999Z</time></trkpt><trkpt lat="39.06629702370975" lon="16.217624229147898"><ele>741.0</ele><time>2026-04-27T13:31:26.999Z</time></trkpt><trkpt lat="39.066264478307254" lon="16.21770349099679"><ele>741.0</ele><time>2026-04-27T13:31:27.999Z</time></trkpt><trkpt lat="39.066187676241206" lon="16.21781370792592"><ele>741.0</ele><time>2026-04-27T13:31:28.999Z</time></trkpt><trkpt lat="39.066097638278926" lon="16.217933896861574"><ele>741.0</ele><time>2026-04-27T13:31:29.999Z</time></trkpt><trkpt lat="39.06602510917202" lon="16.218026956469743"><ele>741.0</ele><time>2026-04-27T13:31:30.999Z</time></trkpt><trkpt lat="39.06595003742899" lon="16.218123650055027"><ele>741.0</ele><time>2026-04-27T13:31:31.999Z</time></trkpt><trkpt lat="39.065971533485516" lon="16.218035964436105"><ele>741.0</ele><time>2026-04-27T13:31:32.999Z</time></trkpt><trkpt lat="39.0659185780766" lon="16.217990744118435"><ele>741.0</ele><time>2026-04-27T13:31:35.999Z</time></trkpt><trkpt lat="39.06583897533856" lon="16.217934067477593"><ele>741.0</ele><time>2026-04-27T13:31:38.999Z</time></trkpt><trkpt lat="39.0657632253927" lon="16.217851052664464"><ele>741.0</ele><time>2026-04-27T13:31:41.999Z</time></trkpt><trkpt lat="39.065731248867685" lon="16.217682937188922"><ele>743.8</ele><time>2026-04-27T13:31:43.999Z</time></trkpt><trkpt lat="39.06569969335023" lon="16.21758318868607"><ele>746.5999999999999</ele><time>2026-04-27T13:31:44.999Z</time></trkpt><trkpt lat="39.065673520018564" lon="16.21747392680308"><ele>749.4</ele><time>2026-04-27T13:31:45.999Z</time></trkpt><trkpt lat="39.065613387263305" lon="16.217359096721413"><ele>752.2</ele><time>2026-04-27T13:31:46.999Z</time></trkpt><trkpt lat="39.06556006402423" lon="16.21720661906697"><ele>755.0</ele><time>2026-04-27T13:31:47.999Z</time></trkpt><trkpt lat="39.06551760413938" lon="16.217102897415028"><ele>755.0</ele><time>2026-04-27T13:31:48.999Z</time></trkpt><trkpt lat="39.0654652344407" lon="16.217018911044544"><ele>755.0</ele><time>2026-04-27T13:31:49.999Z</time></trkpt><trkpt lat="39.065355533177595" lon="16.21701742265357"><ele>755.0</ele><time>2026-04-27T13:31:51.999Z</time></trkpt><trkpt lat="39.06541344600711" lon="16.21708237813306"><ele>755.0</ele><time>2026-04-27T13:31:53.999Z</time></trkpt><trkpt lat="39.06540398763722" lon="16.217170223431385"><ele>755.0</ele><time>2026-04-27T13:31:54.999Z</time></trkpt><trkpt lat="39.06543048953224" lon="16.217381379271824"><ele>757.6</ele><time>2026-04-27T13:31:55.999Z</time></trkpt><trkpt lat="39.06541965463021" lon="16.217509424730437"><ele>760.2</ele><time>2026-04-27T13:31:56.999Z</time></trkpt><trkpt lat="39.06544219165147" lon="16.21766064686965"><ele>762.8</ele><time>2026-04-27T13:31:57.999Z</time></trkpt><trkpt lat="39.0654475766922" lon="16.217747773270943"><ele>765.4</ele><time>2026-04-27T13:31:58.999Z</time></trkpt><trkpt lat="39.065367783832144" lon="16.2177706415455"><ele>768.0</ele><time>2026-04-27T13:32:00.999Z</time></trkpt><trkpt lat="39.06533158828222" lon="16.217673580813884"><ele>768.0</ele><time>2026-04-27T13:32:03.998Z</time></trkpt><trkpt lat="39.065296014106195" lon="16.217538830957906"><ele>768.0</ele><time>2026-04-27T13:32:05.998Z</time></trkpt><trkpt lat="39.06520884714941" lon="16.217328880103125"><ele>768.0</ele><time>2026-04-27T13:32:06.999Z</time></trkpt><trkpt lat="39.06516998128666" lon="16.217199277293147"><ele>768.0</ele><time>2026-04-27T13:32:07.999Z</time></trkpt><trkpt lat="39.06513840623545" lon="16.217126894030297"><ele>768.0</ele><time>2026-04-27T13:32:08.999Z</time></trkpt><trkpt lat="39.06494823183207" lon="16.217347085441446"><ele>768.0</ele><time>2026-04-27T13:32:15.999Z</time></trkpt><trkpt lat="39.064965901900116" lon="16.21747070165989"><ele>768.0</ele><time>2026-04-27T13:32:17Z</time></trkpt><trkpt lat="39.06499273826693" lon="16.217600694022437"><ele>768.0</ele><time>2026-04-27T13:32:17.999Z</time></trkpt><trkpt lat="39.06500902621545" lon="16.21772197921855"><ele>768.0</ele><time>2026-04-27T13:32:18.999Z</time></trkpt><trkpt lat="39.06501516072616" lon="16.217836183446142"><ele>768.0</ele><time>2026-04-27T13:32:19.999Z</time></trkpt><trkpt lat="39.06502485722915" lon="16.21795462867298"><ele>768.0</ele><time>2026-04-27T13:32:20.999Z</time></trkpt><trkpt lat="39.065020888786314" lon="16.21808731504077"><ele>768.0</ele><time>2026-04-27T13:32:21.999Z</time></trkpt><trkpt lat="39.065009618023495" lon="16.218265863998923"><ele>768.8333333333334</ele><time>2026-04-27T13:32:22.999Z</time></trkpt><trkpt lat="39.065004574655866" lon="16.21838679620479"><ele>769.6666666666667</ele><time>2026-04-27T13:32:23.999Z</time></trkpt><trkpt lat="39.06501823607353" lon="16.218483199974983"><ele>770.5</ele><time>2026-04-27T13:32:24.999Z</time></trkpt><trkpt lat="39.065029090052825" lon="16.218585430152494"><ele>771.3333333333334</ele><time>2026-04-27T13:32:25.999Z</time></trkpt><trkpt lat="39.06504141294878" lon="16.218699117571894"><ele>772.1666666666667</ele><time>2026-04-27T13:32:26.999Z</time></trkpt><trkpt lat="39.06506417320065" lon="16.2188241347307"><ele>773.0</ele><time>2026-04-27T13:32:27.999Z</time></trkpt><trkpt lat="39.06508091430668" lon="16.218989298105523"><ele>775.25</ele><time>2026-04-27T13:32:28.999Z</time></trkpt><trkpt lat="39.06509045779254" lon="16.2191380311672"><ele>777.5</ele><time>2026-04-27T13:32:29.999Z</time></trkpt><trkpt lat="39.06507905255051" lon="16.21926683420074"><ele>779.75</ele><time>2026-04-27T13:32:30.999Z</time></trkpt><trkpt lat="39.06503407660783" lon="16.21941050753637"><ele>782.0</ele><time>2026-04-27T13:32:31.999Z</time></trkpt><trkpt lat="39.06499466609577" lon="16.219570357916417"><ele>782.0</ele><time>2026-04-27T13:32:32.999Z</time></trkpt><trkpt lat="39.064965327866105" lon="16.219723553955863"><ele>782.0</ele><time>2026-04-27T13:32:33.999Z</time></trkpt><trkpt lat="39.0649388882232" lon="16.219857378958167"><ele>782.0</ele><time>2026-04-27T13:32:34.999Z</time></trkpt><trkpt lat="39.06492781727342" lon="16.21996328731853"><ele>782.0</ele><time>2026-04-27T13:32:35.999Z</time></trkpt><trkpt lat="39.06489791253851" lon="16.220036330967105"><ele>782.0</ele><time>2026-04-27T13:32:36.999Z</time></trkpt><trkpt lat="39.06482561936346" lon="16.22015753998725"><ele>783.1666666666667</ele><time>2026-04-27T13:32:38.999Z</time></trkpt><trkpt lat="39.064779061595296" lon="16.22021504029914"><ele>784.3333333333334</ele><time>2026-04-27T13:32:39.999Z</time></trkpt><trkpt lat="39.06474054412353" lon="16.22028895232213"><ele>785.5</ele><time>2026-04-27T13:32:40.999Z</time></trkpt><trkpt lat="39.06469893473965" lon="16.220377741758618"><ele>786.6666666666667</ele><time>2026-04-27T13:32:41.999Z</time></trkpt><trkpt lat="39.06466659668149" lon="16.22046435478575"><ele>787.8333333333334</ele><time>2026-04-27T13:32:42.999Z</time></trkpt><trkpt lat="39.06466065687312" lon="16.220582366028285"><ele>789.0</ele><time>2026-04-27T13:32:43.999Z</time></trkpt><trkpt lat="39.06466767680246" lon="16.22069011287991"><ele>789.0</ele><time>2026-04-27T13:32:44.999Z</time></trkpt><trkpt lat="39.06467605494666" lon="16.220776755536285"><ele>789.0</ele><time>2026-04-27T13:32:45.999Z</time></trkpt><trkpt lat="39.06469263395548" lon="16.220855323777297"><ele>789.0</ele><time>2026-04-27T13:32:46.999Z</time></trkpt><trkpt lat="39.064707443884316" lon="16.220954080212397"><ele>789.0</ele><time>2026-04-27T13:32:47.999Z</time></trkpt><trkpt lat="39.06471357855476" lon="16.221079619122165"><ele>789.0</ele><time>2026-04-27T13:32:48.999Z</time></trkpt><trkpt lat="39.064698046215206" lon="16.221217706634498"><ele>789.0</ele><time>2026-04-27T13:32:49.999Z</time></trkpt><trkpt lat="39.06469125997459" lon="16.221362144040437"><ele>794.0</ele><time>2026-04-27T13:32:50.999Z</time></trkpt><trkpt lat="39.06468626564943" lon="16.221495092151308"><ele>799.0</ele><time>2026-04-27T13:32:51.999Z</time></trkpt><trkpt lat="39.06467405882354" lon="16.221613731348768"><ele>804.0</ele><time>2026-04-27T13:32:52.999Z</time></trkpt><trkpt lat="39.06465186675058" lon="16.22171836017743"><ele>809.0</ele><time>2026-04-27T13:32:53.999Z</time></trkpt><trkpt lat="39.06459392091594" lon="16.221841576487407"><ele>814.0</ele><time>2026-04-27T13:32:55.999Z</time></trkpt><trkpt lat="39.06453395685379" lon="16.221903901664454"><ele>813.9999999999999</ele><time>2026-04-27T13:32:56.999Z</time></trkpt><trkpt lat="39.06448679829972" lon="16.221963082726194"><ele>814.0</ele><time>2026-04-27T13:32:57.999Z</time></trkpt><trkpt lat="39.064471364728064" lon="16.222065900999514"><ele>814.0</ele><time>2026-04-27T13:32:59.999Z</time></trkpt><trkpt lat="39.06450347054226" lon="16.222155234549998"><ele>814.0</ele><time>2026-04-27T13:33:01.999Z</time></trkpt><trkpt lat="39.06456101890462" lon="16.222202968360204"><ele>813.9999999999999</ele><time>2026-04-27T13:33:03.999Z</time></trkpt><trkpt lat="39.064638053751366" lon="16.22228382251887"><ele>814.0</ele><time>2026-04-27T13:33:05.999Z</time></trkpt><trkpt lat="39.06471541712978" lon="16.222384184065394"><ele>814.0000000000001</ele><time>2026-04-27T13:33:07.999Z</time></trkpt><trkpt lat="39.06477052075363" lon="16.22243038247515"><ele>814.0</ele><time>2026-04-27T13:33:08.999Z</time></trkpt><trkpt lat="39.06483601410259" lon="16.222470050823254"><ele>814.0</ele><time>2026-04-27T13:33:09.999Z</time></trkpt><trkpt lat="39.06489547189619" lon="16.22249990330536"><ele>814.0</ele><time>2026-04-27T13:33:10.999Z</time></trkpt><trkpt lat="39.0648423930397" lon="16.222439930451536"><ele>814.0</ele><time>2026-04-27T13:34:05.998Z</time></trkpt><trkpt lat="39.06478593772091" lon="16.222390058470225"><ele>814.0000000000001</ele><time>2026-04-27T13:34:09.998Z</time></trkpt><trkpt lat="39.06472319554941" lon="16.222350089404593"><ele>814.0</ele><time>2026-04-27T13:34:12.999Z</time></trkpt><trkpt lat="39.06465855174352" lon="16.222275942172413"><ele>814.0000000000001</ele><time>2026-04-27T13:34:15.999Z</time></trkpt><trkpt lat="39.06460557687987" lon="16.222227263716096"><ele>814.0</ele><time>2026-04-27T13:34:17.999Z</time></trkpt><trkpt lat="39.064531991533" lon="16.22219827320341"><ele>814.0</ele><time>2026-04-27T13:34:21.999Z</time></trkpt><trkpt lat="39.06447566006782" lon="16.22214284534992"><ele>814.0</ele><time>2026-04-27T13:34:26.999Z</time></trkpt><trkpt lat="39.06448181706891" lon="16.22205281555709"><ele>814.0</ele><time>2026-04-27T13:34:55.999Z</time></trkpt><trkpt lat="39.06453182867153" lon="16.221980148985544"><ele>814.0000000000001</ele><time>2026-04-27T13:34:57.999Z</time></trkpt><trkpt lat="39.06459045845263" lon="16.221904701523208"><ele>814.0</ele><time>2026-04-27T13:34:59.999Z</time></trkpt><trkpt lat="39.06463689574853" lon="16.221811503703"><ele>814.0</ele><time>2026-04-27T13:35:02.999Z</time></trkpt><trkpt lat="39.06465978720762" lon="16.221706691022803"><ele>814.0</ele><time>2026-04-27T13:35:04.999Z</time></trkpt><trkpt lat="39.064665189903884" lon="16.22157968826342"><ele>814.0</ele><time>2026-04-27T13:35:06.999Z</time></trkpt><trkpt lat="39.06467443028795" lon="16.221451445245627"><ele>814.0</ele><time>2026-04-27T13:35:08.999Z</time></trkpt><trkpt lat="39.06468450526416" lon="16.2213361269012"><ele>814.0</ele><time>2026-04-27T13:35:10.999Z</time></trkpt><trkpt lat="39.06469279553583" lon="16.221204410539517"><ele>807.75</ele><time>2026-04-27T13:35:12.999Z</time></trkpt><trkpt lat="39.064699322264765" lon="16.22106097493868"><ele>801.5</ele><time>2026-04-27T13:35:14.999Z</time></trkpt><trkpt lat="39.06469971993686" lon="16.220925308855648"><ele>795.25</ele><time>2026-04-27T13:35:16.999Z</time></trkpt><trkpt lat="39.064686674578994" lon="16.22079403694872"><ele>789.0</ele><time>2026-04-27T13:35:18.999Z</time></trkpt><trkpt lat="39.064623362143514" lon="16.220595601574576"><ele>785.8000000000001</ele><time>2026-04-27T13:35:21.999Z</time></trkpt><trkpt lat="39.06462797840217" lon="16.220467779351168"><ele>782.6</ele><time>2026-04-27T13:35:23.999Z</time></trkpt><trkpt lat="39.06465642287651" lon="16.22034130507667"><ele>779.4</ele><time>2026-04-27T13:35:25.999Z</time></trkpt><trkpt lat="39.064726297166494" lon="16.220256666706142"><ele>776.2</ele><time>2026-04-27T13:35:27.999Z</time></trkpt><trkpt lat="39.06480495388525" lon="16.22015744297865"><ele>773.0</ele><time>2026-04-27T13:35:29.999Z</time></trkpt><trkpt lat="39.064868606519845" lon="16.220070960407163"><ele>773.0</ele><time>2026-04-27T13:35:31.999Z</time></trkpt><trkpt lat="39.06493556526078" lon="16.219960969403324"><ele>773.0</ele><time>2026-04-27T13:35:33.999Z</time></trkpt><trkpt lat="39.06497671826161" lon="16.21982738586379"><ele>773.0</ele><time>2026-04-27T13:35:35.999Z</time></trkpt><trkpt lat="39.065014571255176" lon="16.219713971619658"><ele>773.0</ele><time>2026-04-27T13:35:37.999Z</time></trkpt><trkpt lat="39.06501672008519" lon="16.219615133346217"><ele>773.0</ele><time>2026-04-27T13:35:42.999Z</time></trkpt><trkpt lat="39.06504719624797" lon="16.219489796520826"><ele>774.8</ele><time>2026-04-27T13:35:44.999Z</time></trkpt><trkpt lat="39.0650768681743" lon="16.21938349213702"><ele>776.5999999999999</ele><time>2026-04-27T13:35:46.999Z</time></trkpt><trkpt lat="39.064956109234465" lon="16.219428763080575"><ele>778.4000000000001</ele><time>2026-04-27T13:35:55.999Z</time></trkpt><trkpt lat="39.06485414076316" lon="16.219509773204216"><ele>780.2</ele><time>2026-04-27T13:35:56.999Z</time></trkpt><trkpt lat="39.06477671542735" lon="16.219562156210653"><ele>782.0</ele><time>2026-04-27T13:35:57.999Z</time></trkpt><trkpt lat="39.064713754868194" lon="16.219597145841853"><ele>780.2</ele><time>2026-04-27T13:35:58.999Z</time></trkpt><trkpt lat="39.06465347410629" lon="16.219628661764922"><ele>778.4000000000001</ele><time>2026-04-27T13:35:59.999Z</time></trkpt><trkpt lat="39.064592703788854" lon="16.219658950002984"><ele>776.5999999999999</ele><time>2026-04-27T13:36:00.999Z</time></trkpt><trkpt lat="39.06452583049428" lon="16.21969895488424"><ele>774.8</ele><time>2026-04-27T13:36:01.999Z</time></trkpt><trkpt lat="39.06444876055176" lon="16.21980077626011"><ele>773.0</ele><time>2026-04-27T13:36:03.999Z</time></trkpt><trkpt lat="39.064399846883546" lon="16.2199639148098"><ele>773.0</ele><time>2026-04-27T13:36:05.999Z</time></trkpt><trkpt lat="39.06437813094548" lon="16.220053931961957"><ele>773.0</ele><time>2026-04-27T13:36:06.999Z</time></trkpt><trkpt lat="39.064379085758965" lon="16.2201364767498"><ele>773.0</ele><time>2026-04-27T13:36:07.999Z</time></trkpt><trkpt lat="39.06434731876701" lon="16.220210195733294"><ele>773.0</ele><time>2026-04-27T13:36:08.999Z</time></trkpt><trkpt lat="39.06432844237964" lon="16.22029858652252"><ele>773.0</ele><time>2026-04-27T13:36:09.999Z</time></trkpt><trkpt lat="39.06429832393594" lon="16.220378331510144"><ele>773.0</ele><time>2026-04-27T13:36:10.998Z</time></trkpt><trkpt lat="39.06423973731511" lon="16.220490844549715"><ele>773.0</ele><time>2026-04-27T13:36:12.998Z</time></trkpt><trkpt lat="39.064189192845156" lon="16.220540198371488"><ele>773.0</ele><time>2026-04-27T13:36:13.998Z</time></trkpt><trkpt lat="39.06411710715164" lon="16.2206416650662"><ele>773.0</ele><time>2026-04-27T13:36:15.998Z</time></trkpt><trkpt lat="39.06406640670982" lon="16.22078687572689"><ele>773.0</ele><time>2026-04-27T13:36:17.998Z</time></trkpt><trkpt lat="39.06403043132117" lon="16.220861604981618"><ele>773.0</ele><time>2026-04-27T13:36:19Z</time></trkpt><trkpt lat="39.063995246562534" lon="16.220932525855815"><ele>773.0</ele><time>2026-04-27T13:36:20Z</time></trkpt><trkpt lat="39.06394708535801" lon="16.22105068639125"><ele>769.5999999999999</ele><time>2026-04-27T13:36:22Z</time></trkpt><trkpt lat="39.063892883127366" lon="16.221110282405267"><ele>766.1999999999999</ele><time>2026-04-27T13:36:23Z</time></trkpt><trkpt lat="39.06384387475183" lon="16.221166371223322"><ele>762.8</ele><time>2026-04-27T13:36:24Z</time></trkpt><trkpt lat="39.06377455787714" lon="16.221218030643033"><ele>759.4</ele><time>2026-04-27T13:36:25Z</time></trkpt><trkpt lat="39.06366904916659" lon="16.22129792534914"><ele>756.0</ele><time>2026-04-27T13:36:27Z</time></trkpt><trkpt lat="39.063561833108174" lon="16.221341006202316"><ele>756.0</ele><time>2026-04-27T13:36:29Z</time></trkpt><trkpt lat="39.063482114686046" lon="16.221348765864576"><ele>756.0</ele><time>2026-04-27T13:36:30Z</time></trkpt><trkpt lat="39.06340248709953" lon="16.221347697234883"><ele>756.0</ele><time>2026-04-27T13:36:31Z</time></trkpt><trkpt lat="39.06333649511266" lon="16.221349450941315"><ele>756.0</ele><time>2026-04-27T13:36:32Z</time></trkpt><trkpt lat="39.06325207154693" lon="16.22138820052846"><ele>756.0</ele><time>2026-04-27T13:36:33.999Z</time></trkpt><trkpt lat="39.06316517925243" lon="16.221474868175537"><ele>756.0</ele><time>2026-04-27T13:36:35.999Z</time></trkpt><trkpt lat="39.06306882788561" lon="16.22154518330379"><ele>756.5</ele><time>2026-04-27T13:36:37.999Z</time></trkpt><trkpt lat="39.063011074988154" lon="16.221599488606596"><ele>757.0</ele><time>2026-04-27T13:36:38.999Z</time></trkpt><trkpt lat="39.0629421813354" lon="16.221633891973642"><ele>757.5</ele><time>2026-04-27T13:36:39.999Z</time></trkpt><trkpt lat="39.06289713152118" lon="16.221701386504975"><ele>758.0</ele><time>2026-04-27T13:36:40.999Z</time></trkpt><trkpt lat="39.06281882390291" lon="16.221810862372468"><ele>758.5</ele><time>2026-04-27T13:36:42.999Z</time></trkpt><trkpt lat="39.06277003876058" lon="16.221865707548744"><ele>759.0</ele><time>2026-04-27T13:36:43.999Z</time></trkpt><trkpt lat="39.062734068133246" lon="16.221947849863515"><ele>759.0</ele><time>2026-04-27T13:36:44.999Z</time></trkpt><trkpt lat="39.062708687202075" lon="16.222060303670123"><ele>759.0</ele><time>2026-04-27T13:36:45.999Z</time></trkpt><trkpt lat="39.06266397054335" lon="16.22213800541819"><ele>759.0</ele><time>2026-04-27T13:36:46.999Z</time></trkpt><trkpt lat="39.06259661560824" lon="16.22219739207848"><ele>759.0</ele><time>2026-04-27T13:36:47.999Z</time></trkpt><trkpt lat="39.06250535774306" lon="16.22226504704951"><ele>759.0</ele><time>2026-04-27T13:36:49.999Z</time></trkpt><trkpt lat="39.06247281449368" lon="16.2223745398162"><ele>759.0</ele><time>2026-04-27T13:36:51.999Z</time></trkpt><trkpt lat="39.06246864241626" lon="16.222469107244493"><ele>757.8000000000001</ele><time>2026-04-27T13:36:53.999Z</time></trkpt><trkpt lat="39.06246437371074" lon="16.222563418328907"><ele>756.6</ele><time>2026-04-27T13:36:56.999Z</time></trkpt><trkpt lat="39.062440211509674" lon="16.222653117928086"><ele>755.4</ele><time>2026-04-27T13:36:58.999Z</time></trkpt><trkpt lat="39.0623434235751" lon="16.22281850488361"><ele>754.2</ele><time>2026-04-27T13:37:01.999Z</time></trkpt><trkpt lat="39.062286929611126" lon="16.222880952082235"><ele>753.0</ele><time>2026-04-27T13:37:02.999Z</time></trkpt><trkpt lat="39.06222585362922" lon="16.222960662085764"><ele>753.0</ele><time>2026-04-27T13:37:03.999Z</time></trkpt><trkpt lat="39.0621590321141" lon="16.22304792876623"><ele>753.0</ele><time>2026-04-27T13:37:04.999Z</time></trkpt><trkpt lat="39.062104385051214" lon="16.22311753079873"><ele>753.0</ele><time>2026-04-27T13:37:05.999Z</time></trkpt><trkpt lat="39.06205802653207" lon="16.223173656482434"><ele>753.0</ele><time>2026-04-27T13:37:06.999Z</time></trkpt><trkpt lat="39.06200236411786" lon="16.22323462619179"><ele>753.0</ele><time>2026-04-27T13:37:07.999Z</time></trkpt><trkpt lat="39.06192385481063" lon="16.223310003172916"><ele>753.0</ele><time>2026-04-27T13:37:08.999Z</time></trkpt><trkpt lat="39.0618548144286" lon="16.223377286549784"><ele>757.4</ele><time>2026-04-27T13:37:09.999Z</time></trkpt><trkpt lat="39.06175759971877" lon="16.223461955711926"><ele>761.8</ele><time>2026-04-27T13:37:11.999Z</time></trkpt><trkpt lat="39.06172757294477" lon="16.22359653908789"><ele>766.2</ele><time>2026-04-27T13:37:13.999Z</time></trkpt><trkpt lat="39.06175395965963" lon="16.223735251097466"><ele>770.6</ele><time>2026-04-27T13:37:15.999Z</time></trkpt><trkpt lat="39.06178535742426" lon="16.22381618710706"><ele>775.0</ele><time>2026-04-27T13:37:16.999Z</time></trkpt><trkpt lat="39.06180591063972" lon="16.22390540477457"><ele>777.6666666666666</ele><time>2026-04-27T13:37:17.999Z</time></trkpt><trkpt lat="39.06180359634965" lon="16.224018747669977"><ele>780.3333333333333</ele><time>2026-04-27T13:37:18.999Z</time></trkpt><trkpt lat="39.06180266394302" lon="16.224127458820313"><ele>783.0</ele><time>2026-04-27T13:37:19.999Z</time></trkpt><trkpt lat="39.06179826351492" lon="16.224233763709403"><ele>785.6666666666667</ele><time>2026-04-27T13:37:20.999Z</time></trkpt><trkpt lat="39.06179242243181" lon="16.2243197023355"><ele>788.3333333333334</ele><time>2026-04-27T13:37:21.999Z</time></trkpt><trkpt lat="39.06178429948223" lon="16.224418204643673"><ele>791.0</ele><time>2026-04-27T13:37:22.999Z</time></trkpt><trkpt lat="39.06177786250632" lon="16.224505288211706"><ele>791.0</ele><time>2026-04-27T13:37:23.999Z</time></trkpt><trkpt lat="39.0617657423135" lon="16.224644604310782"><ele>791.0</ele><time>2026-04-27T13:37:25.999Z</time></trkpt><trkpt lat="39.06170670584591" lon="16.22477348432745"><ele>791.0</ele><time>2026-04-27T13:37:27.999Z</time></trkpt><trkpt lat="39.06166739714086" lon="16.224904781611844"><ele>791.0</ele><time>2026-04-27T13:37:29.999Z</time></trkpt><trkpt lat="39.061632194954214" lon="16.225028343963967"><ele>791.0</ele><time>2026-04-27T13:37:31.999Z</time></trkpt><trkpt lat="39.06159997712682" lon="16.225161162581582"><ele>789.8333333333334</ele><time>2026-04-27T13:37:33.999Z</time></trkpt><trkpt lat="39.061572906803" lon="16.225318094568156"><ele>788.6666666666667</ele><time>2026-04-27T13:37:35.999Z</time></trkpt><trkpt lat="39.06156085532579" lon="16.225406533650418"><ele>787.5</ele><time>2026-04-27T13:37:36.999Z</time></trkpt><trkpt lat="39.06154723067032" lon="16.2254966379776"><ele>786.3333333333333</ele><time>2026-04-27T13:37:37.999Z</time></trkpt><trkpt lat="39.06153611749273" lon="16.225587586950187"><ele>785.1666666666666</ele><time>2026-04-27T13:37:38.999Z</time></trkpt><trkpt lat="39.061513182520706" lon="16.22572318165478"><ele>784.0</ele><time>2026-04-27T13:37:40.999Z</time></trkpt><trkpt lat="39.061453347194984" lon="16.225810751862983"><ele>788.2</ele><time>2026-04-27T13:37:42.999Z</time></trkpt><trkpt lat="39.06137204080126" lon="16.22594902242216"><ele>792.4000000000001</ele><time>2026-04-27T13:37:44.999Z</time></trkpt><trkpt lat="39.0612968717708" lon="16.226048673906476"><ele>796.6</ele><time>2026-04-27T13:37:46.999Z</time></trkpt><trkpt lat="39.06120605370758" lon="16.22611017203243"><ele>800.8</ele><time>2026-04-27T13:37:48.999Z</time></trkpt><trkpt lat="39.06115087541403" lon="16.22615856080243"><ele>805.0</ele><time>2026-04-27T13:37:49.999Z</time></trkpt><trkpt lat="39.06109889506579" lon="16.22621874519168"><ele>804.9999999999999</ele><time>2026-04-27T13:37:50.999Z</time></trkpt><trkpt lat="39.061038041787285" lon="16.22630091560158"><ele>805.0</ele><time>2026-04-27T13:37:51.999Z</time></trkpt><trkpt lat="39.060985899020224" lon="16.226376578519893"><ele>805.0</ele><time>2026-04-27T13:37:52.999Z</time></trkpt><trkpt lat="39.06090541888832" lon="16.226478107529623"><ele>805.0</ele><time>2026-04-27T13:37:54.999Z</time></trkpt><trkpt lat="39.060853143651656" lon="16.226546648952723"><ele>804.9999999999999</ele><time>2026-04-27T13:37:55.999Z</time></trkpt><trkpt lat="39.06078122067904" lon="16.22662272682615"><ele>805.0</ele><time>2026-04-27T13:37:56.999Z</time></trkpt><trkpt lat="39.06071163184986" lon="16.226688885200094"><ele>806.8333333333333</ele><time>2026-04-27T13:37:57.999Z</time></trkpt><trkpt lat="39.060664042963424" lon="16.226755764311545"><ele>808.6666666666666</ele><time>2026-04-27T13:37:58.999Z</time></trkpt><trkpt lat="39.06063205751525" lon="16.22683367188032"><ele>810.5</ele><time>2026-04-27T13:37:59.999Z</time></trkpt><trkpt lat="39.060611776058636" lon="16.226910424946155"><ele>812.3333333333333</ele><time>2026-04-27T13:38:00.999Z</time></trkpt><trkpt lat="39.060587774350175" lon="16.22707664976375"><ele>814.1666666666666</ele><time>2026-04-27T13:38:02.999Z</time></trkpt><trkpt lat="39.06055929743367" lon="16.22716739398311"><ele>816.0</ele><time>2026-04-27T13:38:03.999Z</time></trkpt><trkpt lat="39.060529971042435" lon="16.22724819352818"><ele>819.8333333333334</ele><time>2026-04-27T13:38:04.999Z</time></trkpt><trkpt lat="39.060491286797586" lon="16.227332037522753"><ele>823.6666666666667</ele><time>2026-04-27T13:38:05.999Z</time></trkpt><trkpt lat="39.060457695017014" lon="16.227422268346594"><ele>827.5</ele><time>2026-04-27T13:38:06.999Z</time></trkpt><trkpt lat="39.06042998280696" lon="16.22749663591199"><ele>831.3333333333334</ele><time>2026-04-27T13:38:07.999Z</time></trkpt><trkpt lat="39.060381555571134" lon="16.227608178110362"><ele>835.1666666666667</ele><time>2026-04-27T13:38:09.999Z</time></trkpt><trkpt lat="39.06030555633092" lon="16.227648914575465"><ele>839.0</ele><time>2026-04-27T13:38:11.999Z</time></trkpt><trkpt lat="39.06022384998917" lon="16.227594888934515"><ele>839.0</ele><time>2026-04-27T13:38:13.999Z</time></trkpt><trkpt lat="39.06014137533341" lon="16.227485531350094"><ele>839.0</ele><time>2026-04-27T13:38:15.999Z</time></trkpt><trkpt lat="39.06007092830335" lon="16.227528562124725"><ele>839.0</ele><time>2026-04-27T13:38:17.999Z</time></trkpt><trkpt lat="39.06009147810427" lon="16.22767583768017"><ele>839.0</ele><time>2026-04-27T13:38:19.998Z</time></trkpt><trkpt lat="39.06010326233105" lon="16.227809269602087"><ele>839.0</ele><time>2026-04-27T13:38:21.998Z</time></trkpt><trkpt lat="39.060115304306166" lon="16.227942087536647"><ele>839.0000000000001</ele><time>2026-04-27T13:38:23.998Z</time></trkpt><trkpt lat="39.06011619968007" lon="16.22810969876379"><ele>839.0</ele><time>2026-04-27T13:38:26Z</time></trkpt><trkpt lat="39.0601176896685" lon="16.22820340092128"><ele>839.0</ele><time>2026-04-27T13:38:27Z</time></trkpt><trkpt lat="39.06011436034591" lon="16.228294870664886"><ele>839.0</ele><time>2026-04-27T13:38:28Z</time></trkpt><trkpt lat="39.0601045946519" lon="16.228398563634936"><ele>839.0000000000001</ele><time>2026-04-27T13:38:29Z</time></trkpt><trkpt lat="39.06005067604591" lon="16.228476753167485"><ele>839.0</ele><time>2026-04-27T13:38:30Z</time></trkpt><trkpt lat="39.05996470481448" lon="16.2285521748694"><ele>839.0000000000001</ele><time>2026-04-27T13:38:57.999Z</time></trkpt><trkpt lat="39.059909148643996" lon="16.228601894501526"><ele>839.0</ele><time>2026-04-27T13:38:58.999Z</time></trkpt><trkpt lat="39.05984847429969" lon="16.22868486334762"><ele>839.0</ele><time>2026-04-27T13:38:59.999Z</time></trkpt><trkpt lat="39.05978770530592" lon="16.228762216276635"><ele>839.0</ele><time>2026-04-27T13:39:00.999Z</time></trkpt><trkpt lat="39.05970921614994" lon="16.22884938782703"><ele>839.0000000000001</ele><time>2026-04-27T13:39:01.999Z</time></trkpt><trkpt lat="39.05962571982709" lon="16.228920206307972"><ele>839.0</ele><time>2026-04-27T13:39:02.999Z</time></trkpt><trkpt lat="39.05956176636527" lon="16.228966983330576"><ele>845.8000000000001</ele><time>2026-04-27T13:39:03.999Z</time></trkpt><trkpt lat="39.05950767032595" lon="16.229014194654297"><ele>852.6</ele><time>2026-04-27T13:39:05.999Z</time></trkpt><trkpt lat="39.059412033678164" lon="16.229069336140558"><ele>859.4</ele><time>2026-04-27T13:39:11.999Z</time></trkpt><trkpt lat="39.059333896860245" lon="16.229110299867386"><ele>866.2</ele><time>2026-04-27T13:39:12.999Z</time></trkpt><trkpt lat="39.059239270177876" lon="16.229144762725806"><ele>873.0</ele><time>2026-04-27T13:39:13.999Z</time></trkpt><trkpt lat="39.059141380627125" lon="16.229159740868372"><ele>869.5</ele><time>2026-04-27T13:39:14.999Z</time></trkpt><trkpt lat="39.05905148736999" lon="16.229169936076453"><ele>866.0</ele><time>2026-04-27T13:39:15.999Z</time></trkpt><trkpt lat="39.05895477872237" lon="16.229175327256264"><ele>862.5</ele><time>2026-04-27T13:39:16.999Z</time></trkpt><trkpt lat="39.05888623559838" lon="16.22921559499915"><ele>859.0</ele><time>2026-04-27T13:39:17.999Z</time></trkpt><trkpt lat="39.05882666376439" lon="16.22925942083907"><ele>855.5</ele><time>2026-04-27T13:39:18.999Z</time></trkpt><trkpt lat="39.058764582453165" lon="16.229319811605695"><ele>852.0</ele><time>2026-04-27T13:39:19.999Z</time></trkpt><trkpt lat="39.05869498564658" lon="16.229401481189605"><ele>852.0</ele><time>2026-04-27T13:39:20.999Z</time></trkpt><trkpt lat="39.05862870284082" lon="16.229485949369383"><ele>852.0</ele><time>2026-04-27T13:39:21.999Z</time></trkpt><trkpt lat="39.05856008357216" lon="16.22955452213182"><ele>852.0</ele><time>2026-04-27T13:39:22.999Z</time></trkpt><trkpt lat="39.05848116295475" lon="16.229611129753003"><ele>852.0</ele><time>2026-04-27T13:39:23.999Z</time></trkpt><trkpt lat="39.05839407361372" lon="16.229660434906453"><ele>852.0</ele><time>2026-04-27T13:39:24.999Z</time></trkpt><trkpt lat="39.05831122178251" lon="16.229709314411807"><ele>855.4000000000001</ele><time>2026-04-27T13:39:25.999Z</time></trkpt><trkpt lat="39.05822758866932" lon="16.22976463448152"><ele>858.8000000000001</ele><time>2026-04-27T13:39:26.999Z</time></trkpt><trkpt lat="39.05812294037138" lon="16.229836282595297"><ele>862.2</ele><time>2026-04-27T13:39:27.999Z</time></trkpt><trkpt lat="39.058034965090314" lon="16.229929205673226"><ele>865.6</ele><time>2026-04-27T13:39:28.999Z</time></trkpt><trkpt lat="39.05794844595294" lon="16.22998764815645"><ele>869.0</ele><time>2026-04-27T13:39:29.999Z</time></trkpt><trkpt lat="39.05784711053507" lon="16.230051552734025"><ele>869.0</ele><time>2026-04-27T13:39:30.999Z</time></trkpt><trkpt lat="39.057743080704476" lon="16.230109152442846"><ele>869.0000000000001</ele><time>2026-04-27T13:39:31.999Z</time></trkpt><trkpt lat="39.05765335727324" lon="16.230151205084386"><ele>869.0000000000001</ele><time>2026-04-27T13:39:32.999Z</time></trkpt><trkpt lat="39.05755866770985" lon="16.230190712759693"><ele>869.0</ele><time>2026-04-27T13:39:33.999Z</time></trkpt><trkpt lat="39.05745994661791" lon="16.230221215281528"><ele>869.0</ele><time>2026-04-27T13:39:34.999Z</time></trkpt><trkpt lat="39.0573793868665" lon="16.2302405908367"><ele>866.2</ele><time>2026-04-27T13:39:35.999Z</time></trkpt><trkpt lat="39.0572993969974" lon="16.230259521213643"><ele>863.4000000000001</ele><time>2026-04-27T13:39:36.999Z</time></trkpt><trkpt lat="39.05722905340835" lon="16.230298179548996"><ele>860.6</ele><time>2026-04-27T13:39:37.999Z</time></trkpt><trkpt lat="39.057160137145836" lon="16.230360133241184"><ele>857.8</ele><time>2026-04-27T13:39:38.999Z</time></trkpt><trkpt lat="39.057087257832215" lon="16.230448248670225"><ele>855.0</ele><time>2026-04-27T13:39:39.999Z</time></trkpt><trkpt lat="39.0569935412864" lon="16.230550403769495"><ele>855.0</ele><time>2026-04-27T13:39:40.999Z</time></trkpt><trkpt lat="39.0568801488444" lon="16.23061300489646"><ele>855.0</ele><time>2026-04-27T13:39:41.999Z</time></trkpt><trkpt lat="39.05678188248179" lon="16.23070865180784"><ele>855.0</ele><time>2026-04-27T13:39:42.999Z</time></trkpt><trkpt lat="39.056692438403665" lon="16.230774698087323"><ele>855.0</ele><time>2026-04-27T13:39:43.999Z</time></trkpt><trkpt lat="39.05661129988486" lon="16.230812258681475"><ele>855.0</ele><time>2026-04-27T13:39:44.999Z</time></trkpt><trkpt lat="39.0565405012472" lon="16.23085560698621"><ele>854.8333333333334</ele><time>2026-04-27T13:39:45.999Z</time></trkpt><trkpt lat="39.05645991564109" lon="16.230894938023226"><ele>854.6666666666667</ele><time>2026-04-27T13:39:46.999Z</time></trkpt><trkpt lat="39.056370705278844" lon="16.23091349724061"><ele>854.5</ele><time>2026-04-27T13:39:47.999Z</time></trkpt><trkpt lat="39.05628967617937" lon="16.230956613801148"><ele>854.3333333333334</ele><time>2026-04-27T13:39:48.999Z</time></trkpt><trkpt lat="39.05623081610787" lon="16.231002007549264"><ele>854.1666666666667</ele><time>2026-04-27T13:39:49.999Z</time></trkpt><trkpt lat="39.056171702131714" lon="16.231058185900103"><ele>854.0</ele><time>2026-04-27T13:39:50.999Z</time></trkpt><trkpt lat="39.05610653368378" lon="16.23111750988905"><ele>854.0</ele><time>2026-04-27T13:39:51.999Z</time></trkpt><trkpt lat="39.05603030499695" lon="16.231192096320004"><ele>854.0000000000001</ele><time>2026-04-27T13:39:52.999Z</time></trkpt><trkpt lat="39.055953326883895" lon="16.231269074516874"><ele>854.0000000000001</ele><time>2026-04-27T13:39:53.999Z</time></trkpt><trkpt lat="39.055879817759916" lon="16.231342583626894"><ele>854.0</ele><time>2026-04-27T13:39:54.999Z</time></trkpt><trkpt lat="39.05579276064775" lon="16.231425912022498"><ele>854.0</ele><time>2026-04-27T13:39:55.999Z</time></trkpt><trkpt lat="39.0557162037112" lon="16.23149569693361"><ele>851.8000000000001</ele><time>2026-04-27T13:39:56.999Z</time></trkpt><trkpt lat="39.05563955254805" lon="16.23156246269826"><ele>849.6000000000001</ele><time>2026-04-27T13:39:57.999Z</time></trkpt><trkpt lat="39.055563719915476" lon="16.23162742129696"><ele>847.4</ele><time>2026-04-27T13:39:58.999Z</time></trkpt><trkpt lat="39.055469935236495" lon="16.231703942435633"><ele>845.2</ele><time>2026-04-27T13:39:59.999Z</time></trkpt><trkpt lat="39.05537672580006" lon="16.231777228952723"><ele>843.0</ele><time>2026-04-27T13:40:00.999Z</time></trkpt><trkpt lat="39.055274209829186" lon="16.23185244601537"><ele>843.0</ele><time>2026-04-27T13:40:01.999Z</time></trkpt><trkpt lat="39.05516040644979" lon="16.23193168810383"><ele>843.0</ele><time>2026-04-27T13:40:02.999Z</time></trkpt><trkpt lat="39.055046034594035" lon="16.232002609393263"><ele>843.0</ele><time>2026-04-27T13:40:03.999Z</time></trkpt><trkpt lat="39.05493157368001" lon="16.232071488098796"><ele>843.0</ele><time>2026-04-27T13:40:04.999Z</time></trkpt><trkpt lat="39.05482744875006" lon="16.232125965858167"><ele>844.5</ele><time>2026-04-27T13:40:05.999Z</time></trkpt><trkpt lat="39.054714112621056" lon="16.232187744790387"><ele>846.0</ele><time>2026-04-27T13:40:06.999Z</time></trkpt><trkpt lat="39.054604733154676" lon="16.232250059721483"><ele>847.5</ele><time>2026-04-27T13:40:07.999Z</time></trkpt><trkpt lat="39.05450023547896" lon="16.23231164045465"><ele>849.0</ele><time>2026-04-27T13:40:08.999Z</time></trkpt><trkpt lat="39.05439455521789" lon="16.232364841843683"><ele>849.0</ele><time>2026-04-27T13:40:09.999Z</time></trkpt><trkpt lat="39.054287550562414" lon="16.232408876251426"><ele>849.0</ele><time>2026-04-27T13:40:10.999Z</time></trkpt><trkpt lat="39.05418184020524" lon="16.232458676016694"><ele>849.0</ele><time>2026-04-27T13:40:11.999Z</time></trkpt><trkpt lat="39.05409025643953" lon="16.23251861236205"><ele>849.0</ele><time>2026-04-27T13:40:12.999Z</time></trkpt><trkpt lat="39.05399435974881" lon="16.232570621232576"><ele>849.0</ele><time>2026-04-27T13:40:13.999Z</time></trkpt><trkpt lat="39.05390092190757" lon="16.23261719364238"><ele>845.5</ele><time>2026-04-27T13:40:14.999Z</time></trkpt><trkpt lat="39.05380454376695" lon="16.232667129080333"><ele>842.0</ele><time>2026-04-27T13:40:15.999Z</time></trkpt><trkpt lat="39.053720492438046" lon="16.232714626669722"><ele>838.5</ele><time>2026-04-27T13:40:16.999Z</time></trkpt><trkpt lat="39.05365776888901" lon="16.232768260737156"><ele>835.0</ele><time>2026-04-27T13:40:17.999Z</time></trkpt><trkpt lat="39.05361193937641" lon="16.232832480888614"><ele>831.5</ele><time>2026-04-27T13:40:18.999Z</time></trkpt><trkpt lat="39.0535825769444" lon="16.232951834821666"><ele>828.0</ele><time>2026-04-27T13:40:19.999Z</time></trkpt><trkpt lat="39.0535630079025" lon="16.233061570432643"><ele>829.75</ele><time>2026-04-27T13:40:20.999Z</time></trkpt><trkpt lat="39.05351884118373" lon="16.233203310094453"><ele>831.5</ele><time>2026-04-27T13:40:21.999Z</time></trkpt><trkpt lat="39.05348061254745" lon="16.23333628860924"><ele>833.25</ele><time>2026-04-27T13:40:22.999Z</time></trkpt><trkpt lat="39.05344629838327" lon="16.233429253090765"><ele>835.0</ele><time>2026-04-27T13:40:23.999Z</time></trkpt><trkpt lat="39.05335336981086" lon="16.233578147313974"><ele>834.9999999999999</ele><time>2026-04-27T13:40:25.998Z</time></trkpt><trkpt lat="39.05329952075138" lon="16.233661396334167"><ele>835.0</ele><time>2026-04-27T13:40:26.998Z</time></trkpt><trkpt lat="39.053230613136286" lon="16.233741487898047"><ele>835.0</ele><time>2026-04-27T13:40:27.998Z</time></trkpt><trkpt lat="39.05316235987472" lon="16.233833235411076"><ele>835.0</ele><time>2026-04-27T13:40:28.998Z</time></trkpt><trkpt lat="39.05310485250754" lon="16.233912888856032"><ele>834.9999999999999</ele><time>2026-04-27T13:40:29.998Z</time></trkpt><trkpt lat="39.05305094397013" lon="16.23399237445894"><ele>835.0</ele><time>2026-04-27T13:40:31Z</time></trkpt><trkpt lat="39.05299818671894" lon="16.234118954273043"><ele>830.5</ele><time>2026-04-27T13:40:33Z</time></trkpt><trkpt lat="39.05292611931121" lon="16.234252357109906"><ele>826.0</ele><time>2026-04-27T13:40:35Z</time></trkpt><trkpt lat="39.05290640999717" lon="16.234440125590712"><ele>821.5</ele><time>2026-04-27T13:40:36Z</time></trkpt><trkpt lat="39.052911856701336" lon="16.234585608479616"><ele>817.0</ele><time>2026-04-27T13:40:37Z</time></trkpt><trkpt lat="39.05291511596356" lon="16.234677177225134"><ele>817.0</ele><time>2026-04-27T13:40:38Z</time></trkpt><trkpt lat="39.052873417705534" lon="16.23474895082072"><ele>817.0</ele><time>2026-04-27T13:40:40Z</time></trkpt><trkpt lat="39.05280812245137" lon="16.234820122190822"><ele>817.0</ele><time>2026-04-27T13:40:42Z</time></trkpt><trkpt lat="39.05268441731586" lon="16.23483203768397"><ele>817.0</ele><time>2026-04-27T13:40:44Z</time></trkpt><trkpt lat="39.052611257139795" lon="16.23490974383635"><ele>817.0</ele><time>2026-04-27T13:40:45Z</time></trkpt><trkpt lat="39.05254117010771" lon="16.23499281225556"><ele>816.4999999999999</ele><time>2026-04-27T13:40:46Z</time></trkpt><trkpt lat="39.05248919951204" lon="16.235071280514465"><ele>816.0</ele><time>2026-04-27T13:40:47Z</time></trkpt><trkpt lat="39.05242941228844" lon="16.235155529966043"><ele>815.5</ele><time>2026-04-27T13:40:47.999Z</time></trkpt><trkpt lat="39.0523596998354" lon="16.23523982381279"><ele>815.0</ele><time>2026-04-27T13:40:48.999Z</time></trkpt><trkpt lat="39.052297902469476" lon="16.235314435844995"><ele>814.4999999999999</ele><time>2026-04-27T13:40:49.999Z</time></trkpt><trkpt lat="39.05222899962319" lon="16.235373828208125"><ele>814.0</ele><time>2026-04-27T13:40:51.999Z</time></trkpt><trkpt lat="39.05230211140737" lon="16.23552251989954"><ele>814.0</ele><time>2026-04-27T13:40:53.999Z</time></trkpt><trkpt lat="39.05237994903811" lon="16.23559123847223"><ele>814.0</ele><time>2026-04-27T13:40:55.999Z</time></trkpt><trkpt lat="39.05239349279379" lon="16.23571419681816"><ele>814.0</ele><time>2026-04-27T13:40:58.999Z</time></trkpt><trkpt lat="39.05235501981915" lon="16.23583346953774"><ele>814.0</ele><time>2026-04-27T13:40:59.999Z</time></trkpt><trkpt lat="39.05230460662116" lon="16.235936727104804"><ele>814.0</ele><time>2026-04-27T13:41:00.999Z</time></trkpt><trkpt lat="39.0522736032649" lon="16.23605964539484"><ele>817.4000000000001</ele><time>2026-04-27T13:41:01.999Z</time></trkpt><trkpt lat="39.05226541025964" lon="16.236194227150033"><ele>820.8</ele><time>2026-04-27T13:41:02.999Z</time></trkpt><trkpt lat="39.05226118897293" lon="16.236280834390257"><ele>824.2</ele><time>2026-04-27T13:41:03.999Z</time></trkpt><trkpt lat="39.05225800108823" lon="16.23642054194909"><ele>827.5999999999999</ele><time>2026-04-27T13:41:05.999Z</time></trkpt><trkpt lat="39.052167550805656" lon="16.236515326117207"><ele>831.0</ele><time>2026-04-27T13:41:06.999Z</time></trkpt><trkpt lat="39.05213214386536" lon="16.23659345232682"><ele>836.0</ele><time>2026-04-27T13:41:07.999Z</time></trkpt><trkpt lat="39.05209749730398" lon="16.23669046279182"><ele>841.0</ele><time>2026-04-27T13:41:08.999Z</time></trkpt><trkpt lat="39.05205732679818" lon="16.236813123099402"><ele>845.9999999999999</ele><time>2026-04-27T13:41:09.999Z</time></trkpt><trkpt lat="39.052010735801375" lon="16.23693546030013"><ele>851.0</ele><time>2026-04-27T13:41:10.999Z</time></trkpt><trkpt lat="39.05197577689611" lon="16.237046085687794"><ele>856.0</ele><time>2026-04-27T13:41:11.999Z</time></trkpt><trkpt lat="39.05192708048172" lon="16.237147012877852"><ele>856.0</ele><time>2026-04-27T13:41:12.999Z</time></trkpt><trkpt lat="39.05184777646525" lon="16.237225694841097"><ele>855.9999999999999</ele><time>2026-04-27T13:41:13.999Z</time></trkpt><trkpt lat="39.05177887982176" lon="16.23729982648391"><ele>855.9999999999999</ele><time>2026-04-27T13:41:14.999Z</time></trkpt><trkpt lat="39.051694765279315" lon="16.237375550826584"><ele>856.0</ele><time>2026-04-27T13:41:15.999Z</time></trkpt><trkpt lat="39.051616868913605" lon="16.237466473196633"><ele>856.0</ele><time>2026-04-27T13:41:16.999Z</time></trkpt><trkpt lat="39.05154794256626" lon="16.237604087754278"><ele>857.1999999999999</ele><time>2026-04-27T13:41:17.999Z</time></trkpt><trkpt lat="39.051467143718696" lon="16.237743395218445"><ele>858.3999999999999</ele><time>2026-04-27T13:41:18.999Z</time></trkpt><trkpt lat="39.051400213627645" lon="16.23784649445833"><ele>859.6</ele><time>2026-04-27T13:41:19.999Z</time></trkpt><trkpt lat="39.05137368590686" lon="16.237940886348714"><ele>860.8</ele><time>2026-04-27T13:41:20.999Z</time></trkpt><trkpt lat="39.051332216894274" lon="16.23802346146151"><ele>862.0</ele><time>2026-04-27T13:41:21.999Z</time></trkpt><trkpt lat="39.05129664543928" lon="16.238114412295253"><ele>863.8333333333333</ele><time>2026-04-27T13:41:22.999Z</time></trkpt><trkpt lat="39.051239620719436" lon="16.238183096201936"><ele>865.6666666666666</ele><time>2026-04-27T13:41:23.999Z</time></trkpt><trkpt lat="39.05118385688892" lon="16.238260112734707"><ele>867.5</ele><time>2026-04-27T13:41:24.999Z</time></trkpt><trkpt lat="39.05110679014613" lon="16.238331706623363"><ele>869.3333333333333</ele><time>2026-04-27T13:41:25.999Z</time></trkpt><trkpt lat="39.05103010453253" lon="16.238393527620943"><ele>871.1666666666666</ele><time>2026-04-27T13:41:26.999Z</time></trkpt><trkpt lat="39.05094419442558" lon="16.23846443675907"><ele>873.0</ele><time>2026-04-27T13:41:27.999Z</time></trkpt><trkpt lat="39.0508540842685" lon="16.23850550196882"><ele>872.4</ele><time>2026-04-27T13:41:28.999Z</time></trkpt><trkpt lat="39.05076340933873" lon="16.238535880487905"><ele>871.8</ele><time>2026-04-27T13:41:29.999Z</time></trkpt><trkpt lat="39.05065946039807" lon="16.23854317727519"><ele>871.2</ele><time>2026-04-27T13:41:30.999Z</time></trkpt><trkpt lat="39.05056184724719" lon="16.238552162033564"><ele>870.6</ele><time>2026-04-27T13:41:31.999Z</time></trkpt><trkpt lat="39.0504928099438" lon="16.2385843854999"><ele>870.0</ele><time>2026-04-27T13:41:32.999Z</time></trkpt><trkpt lat="39.0504324830409" lon="16.238712462690966"><ele>870.0</ele><time>2026-04-27T13:41:34.999Z</time></trkpt><trkpt lat="39.05040591141257" lon="16.238805330797483"><ele>870.0</ele><time>2026-04-27T13:41:35.999Z</time></trkpt><trkpt lat="39.05035929142625" lon="16.238891637309614"><ele>870.0</ele><time>2026-04-27T13:41:36.999Z</time></trkpt><trkpt lat="39.05032128931947" lon="16.238962187749294"><ele>870.0</ele><time>2026-04-27T13:41:37.999Z</time></trkpt><trkpt lat="39.05024488451049" lon="16.239035448482717"><ele>870.0</ele><time>2026-04-27T13:41:38.999Z</time></trkpt><trkpt lat="39.0501683033487" lon="16.23910172488933"><ele>870.0</ele><time>2026-04-27T13:41:39.999Z</time></trkpt><trkpt lat="39.05008254199831" lon="16.239183476365458"><ele>873.0</ele><time>2026-04-27T13:41:40.999Z</time></trkpt><trkpt lat="39.05000534500532" lon="16.239258804746058"><ele>876.0</ele><time>2026-04-27T13:41:41.999Z</time></trkpt><trkpt lat="39.0499290783981" lon="16.239345419056743"><ele>879.0</ele><time>2026-04-27T13:41:42.999Z</time></trkpt><trkpt lat="39.04984489070866" lon="16.23941597243969"><ele>882.0</ele><time>2026-04-27T13:41:43.999Z</time></trkpt><trkpt lat="39.049771825132716" lon="16.239472171022747"><ele>885.0</ele><time>2026-04-27T13:41:44.999Z</time></trkpt><trkpt lat="39.049671403550434" lon="16.23950618152327"><ele>885.0</ele><time>2026-04-27T13:41:45.999Z</time></trkpt><trkpt lat="39.04956454712094" lon="16.239545297601087"><ele>885.0</ele><time>2026-04-27T13:41:46.999Z</time></trkpt><trkpt lat="39.04942360018814" lon="16.23958284222198"><ele>885.0</ele><time>2026-04-27T13:41:47.999Z</time></trkpt><trkpt lat="39.049298682701426" lon="16.239638004607116"><ele>885.0</ele><time>2026-04-27T13:41:48.999Z</time></trkpt><trkpt lat="39.04918974825624" lon="16.23965963875951"><ele>885.5</ele><time>2026-04-27T13:41:49.999Z</time></trkpt><trkpt lat="39.04909765344813" lon="16.239665020494275"><ele>886.0</ele><time>2026-04-27T13:41:50.999Z</time></trkpt><trkpt lat="39.04902318933237" lon="16.2396775743621"><ele>886.5</ele><time>2026-04-27T13:41:51.999Z</time></trkpt><trkpt lat="39.04895228762599" lon="16.239698520511652"><ele>887.0</ele><time>2026-04-27T13:41:52.999Z</time></trkpt><trkpt lat="39.04889833716563" lon="16.239753467432937"><ele>887.5</ele><time>2026-04-27T13:41:53.999Z</time></trkpt><trkpt lat="39.04882917683006" lon="16.239828673938177"><ele>888.0</ele><time>2026-04-27T13:41:54.999Z</time></trkpt><trkpt lat="39.04875268474942" lon="16.239952387992904"><ele>888.0</ele><time>2026-04-27T13:41:55.999Z</time></trkpt><trkpt lat="39.048659307237976" lon="16.24007846113474"><ele>888.0</ele><time>2026-04-27T13:41:56.999Z</time></trkpt><trkpt lat="39.04858040079979" lon="16.240168449268953"><ele>888.0</ele><time>2026-04-27T13:41:57.999Z</time></trkpt><trkpt lat="39.0485187170475" lon="16.240237969847957"><ele>888.0</ele><time>2026-04-27T13:41:58.999Z</time></trkpt><trkpt lat="39.048479472732296" lon="16.240327492941496"><ele>888.0</ele><time>2026-04-27T13:41:59.999Z</time></trkpt><trkpt lat="39.0484587461541" lon="16.240441442559195"><ele>888.0</ele><time>2026-04-27T13:42:00.999Z</time></trkpt><trkpt lat="39.0484256715154" lon="16.240588371410627"><ele>888.0</ele><time>2026-04-27T13:42:01.999Z</time></trkpt><trkpt lat="39.04839316230814" lon="16.240736841781143"><ele>888.0</ele><time>2026-04-27T13:42:02.999Z</time></trkpt><trkpt lat="39.04834413944611" lon="16.2408611063467"><ele>888.0</ele><time>2026-04-27T13:42:03.999Z</time></trkpt><trkpt lat="39.04829659201878" lon="16.24098825795052"><ele>886.5999999999999</ele><time>2026-04-27T13:42:04.999Z</time></trkpt><trkpt lat="39.04823380696365" lon="16.24110448980645"><ele>885.1999999999999</ele><time>2026-04-27T13:42:05.999Z</time></trkpt><trkpt lat="39.04815377244358" lon="16.241198424185168"><ele>883.8</ele><time>2026-04-27T13:42:06.999Z</time></trkpt><trkpt lat="39.04808966752825" lon="16.241273970903617"><ele>882.4</ele><time>2026-04-27T13:42:07.999Z</time></trkpt><trkpt lat="39.048014103511036" lon="16.241347123841763"><ele>881.0</ele><time>2026-04-27T13:42:08.999Z</time></trkpt><trkpt lat="39.04793297879427" lon="16.241417693032247"><ele>885.8</ele><time>2026-04-27T13:42:09.999Z</time></trkpt><trkpt lat="39.04786664374188" lon="16.241491808904907"><ele>890.5999999999999</ele><time>2026-04-27T13:42:10.999Z</time></trkpt><trkpt lat="39.04781845739257" lon="16.2415783200832"><ele>895.4</ele><time>2026-04-27T13:42:11.999Z</time></trkpt><trkpt lat="39.04774793254503" lon="16.241676271200312"><ele>900.2</ele><time>2026-04-27T13:42:12.999Z</time></trkpt><trkpt lat="39.04767838544903" lon="16.241806273657595"><ele>905.0</ele><time>2026-04-27T13:42:13.999Z</time></trkpt><trkpt lat="39.04758641895636" lon="16.241951159536395"><ele>905.0</ele><time>2026-04-27T13:42:14.999Z</time></trkpt><trkpt lat="39.0475019859341" lon="16.2420748534419"><ele>905.0</ele><time>2026-04-27T13:42:15.999Z</time></trkpt><trkpt lat="39.04742255120593" lon="16.242175105228537"><ele>905.0</ele><time>2026-04-27T13:42:16.999Z</time></trkpt><trkpt lat="39.04733457386202" lon="16.242261909011354"><ele>905.0</ele><time>2026-04-27T13:42:17.999Z</time></trkpt><trkpt lat="39.047263909943446" lon="16.242333787984325"><ele>905.0</ele><time>2026-04-27T13:42:18.999Z</time></trkpt><trkpt lat="39.04718331544442" lon="16.242393246539493"><ele>904.0000000000001</ele><time>2026-04-27T13:42:19.999Z</time></trkpt><trkpt lat="39.04710715656754" lon="16.24245120844789"><ele>903.0</ele><time>2026-04-27T13:42:20.999Z</time></trkpt><trkpt lat="39.04704041846158" lon="16.242528663032118"><ele>902.0</ele><time>2026-04-27T13:42:21.999Z</time></trkpt><trkpt lat="39.04697620607519" lon="16.24260843713936"><ele>901.0</ele><time>2026-04-27T13:42:22.999Z</time></trkpt><trkpt lat="39.04692278743664" lon="16.242691612909418"><ele>900.0000000000001</ele><time>2026-04-27T13:42:23.999Z</time></trkpt><trkpt lat="39.046857123743195" lon="16.24276000020805"><ele>899.0</ele><time>2026-04-27T13:42:24.999Z</time></trkpt><trkpt lat="39.04679285296182" lon="16.24283118495582"><ele>899.0000000000001</ele><time>2026-04-27T13:42:25.999Z</time></trkpt><trkpt lat="39.04672796195094" lon="16.242907839573387"><ele>899.0</ele><time>2026-04-27T13:42:26.999Z</time></trkpt><trkpt lat="39.04666872232855" lon="16.242976120656472"><ele>899.0</ele><time>2026-04-27T13:42:27.999Z</time></trkpt><trkpt lat="39.04659440106081" lon="16.2430445783659"><ele>899.0</ele><time>2026-04-27T13:42:28.999Z</time></trkpt><trkpt lat="39.046527734714815" lon="16.24311892316582"><ele>899.0000000000001</ele><time>2026-04-27T13:42:29.999Z</time></trkpt><trkpt lat="39.046449671180845" lon="16.24318359644131"><ele>899.0</ele><time>2026-04-27T13:42:30.999Z</time></trkpt><trkpt lat="39.04637290850731" lon="16.24324989771805"><ele>898.6</ele><time>2026-04-27T13:42:31.999Z</time></trkpt><trkpt lat="39.04628446160495" lon="16.24332276319091"><ele>898.2</ele><time>2026-04-27T13:42:32.999Z</time></trkpt><trkpt lat="39.046173906329436" lon="16.243398373689637"><ele>897.8000000000001</ele><time>2026-04-27T13:42:33.998Z</time></trkpt><trkpt lat="39.046079798484875" lon="16.243467726132558"><ele>897.4000000000001</ele><time>2026-04-27T13:42:34.998Z</time></trkpt><trkpt lat="39.04600559312097" lon="16.243544167864716"><ele>897.0</ele><time>2026-04-27T13:42:36Z</time></trkpt><trkpt lat="39.04593457334184" lon="16.243627261855952"><ele>897.0</ele><time>2026-04-27T13:42:37Z</time></trkpt><trkpt lat="39.045874306185574" lon="16.24371601840797"><ele>897.0</ele><time>2026-04-27T13:42:38Z</time></trkpt><trkpt lat="39.04579905484997" lon="16.24379024218769"><ele>897.0</ele><time>2026-04-27T13:42:39Z</time></trkpt><trkpt lat="39.04569666015924" lon="16.243855048284523"><ele>897.0</ele><time>2026-04-27T13:42:40Z</time></trkpt><trkpt lat="39.04558662069781" lon="16.2439544204438"><ele>897.0</ele><time>2026-04-27T13:42:41Z</time></trkpt><trkpt lat="39.045492389339245" lon="16.244033904861645"><ele>899.2</ele><time>2026-04-27T13:42:42Z</time></trkpt><trkpt lat="39.04540056464851" lon="16.244085180439328"><ele>901.4000000000001</ele><time>2026-04-27T13:42:43Z</time></trkpt><trkpt lat="39.04530752662206" lon="16.244137978122748"><ele>903.5999999999999</ele><time>2026-04-27T13:42:44Z</time></trkpt><trkpt lat="39.04521778877418" lon="16.244180399984558"><ele>905.8</ele><time>2026-04-27T13:42:45Z</time></trkpt><trkpt lat="39.04510440910747" lon="16.244197947880014"><ele>908.0</ele><time>2026-04-27T13:42:46Z</time></trkpt><trkpt lat="39.04498353605256" lon="16.244215762759662"><ele>907.25</ele><time>2026-04-27T13:42:47Z</time></trkpt><trkpt lat="39.04485197931863" lon="16.244223885327028"><ele>906.5</ele><time>2026-04-27T13:42:48Z</time></trkpt><trkpt lat="39.044739453942476" lon="16.24424429642665"><ele>905.75</ele><time>2026-04-27T13:42:49Z</time></trkpt><trkpt lat="39.04462216223673" lon="16.24427333333188"><ele>905.0</ele><time>2026-04-27T13:42:50Z</time></trkpt><trkpt lat="39.04450382044076" lon="16.2443129537587"><ele>905.0</ele><time>2026-04-27T13:42:51Z</time></trkpt><trkpt lat="39.044382898136575" lon="16.24433907067764"><ele>905.0</ele><time>2026-04-27T13:42:52Z</time></trkpt><trkpt lat="39.04427203358333" lon="16.244358161489526"><ele>905.0</ele><time>2026-04-27T13:42:53Z</time></trkpt><trkpt lat="39.0441606171918" lon="16.244386313434816"><ele>905.0</ele><time>2026-04-27T13:42:53.999Z</time></trkpt><trkpt lat="39.04404091263476" lon="16.2444237712157"><ele>903.0</ele><time>2026-04-27T13:42:54.999Z</time></trkpt><trkpt lat="39.04389594558275" lon="16.244464205713484"><ele>901.0</ele><time>2026-04-27T13:42:55.999Z</time></trkpt><trkpt lat="39.043745279330885" lon="16.24448753598239"><ele>899.0</ele><time>2026-04-27T13:42:56.999Z</time></trkpt><trkpt lat="39.04360106735244" lon="16.244509948273517"><ele>897.0</ele><time>2026-04-27T13:42:57.999Z</time></trkpt><trkpt lat="39.043466048132636" lon="16.24453087207318"><ele>897.0</ele><time>2026-04-27T13:42:58.999Z</time></trkpt><trkpt lat="39.04334604077117" lon="16.24455470299497"><ele>897.0</ele><time>2026-04-27T13:42:59.999Z</time></trkpt><trkpt lat="39.04325073712303" lon="16.24460131653545"><ele>897.0</ele><time>2026-04-27T13:43:00.999Z</time></trkpt><trkpt lat="39.04316804499204" lon="16.244688188610123"><ele>897.0</ele><time>2026-04-27T13:43:01.999Z</time></trkpt><trkpt lat="39.043068920622225" lon="16.244811815859514"><ele>900.25</ele><time>2026-04-27T13:43:02.999Z</time></trkpt><trkpt lat="39.042967134087036" lon="16.2449381922131"><ele>903.5</ele><time>2026-04-27T13:43:03.999Z</time></trkpt><trkpt lat="39.04286540214045" lon="16.245060337859645"><ele>906.75</ele><time>2026-04-27T13:43:04.999Z</time></trkpt><trkpt lat="39.04276267062986" lon="16.245168754495573"><ele>910.0</ele><time>2026-04-27T13:43:05.999Z</time></trkpt><trkpt lat="39.04268107930983" lon="16.245270479185617"><ele>910.0</ele><time>2026-04-27T13:43:06.999Z</time></trkpt><trkpt lat="39.04260936967875" lon="16.245352471903644"><ele>910.0</ele><time>2026-04-27T13:43:07.999Z</time></trkpt><trkpt lat="39.04253923013941" lon="16.2454634913012"><ele>910.0</ele><time>2026-04-27T13:43:08.999Z</time></trkpt><trkpt lat="39.042462779829705" lon="16.245586570926516"><ele>910.0</ele><time>2026-04-27T13:43:09.999Z</time></trkpt><trkpt lat="39.04237163553647" lon="16.24568270995965"><ele>910.0</ele><time>2026-04-27T13:43:10.999Z</time></trkpt><trkpt lat="39.042258959329935" lon="16.245783615063345"><ele>910.75</ele><time>2026-04-27T13:43:11.999Z</time></trkpt><trkpt lat="39.04214283132454" lon="16.24589649049257"><ele>911.5</ele><time>2026-04-27T13:43:12.999Z</time></trkpt><trkpt lat="39.04204114958657" lon="16.24598251439626"><ele>912.25</ele><time>2026-04-27T13:43:13.999Z</time></trkpt><trkpt lat="39.041959810861776" lon="16.246054399684756"><ele>913.0</ele><time>2026-04-27T13:43:14.999Z</time></trkpt><trkpt lat="39.04184780545218" lon="16.24612354941005"><ele>913.0</ele><time>2026-04-27T13:43:15.999Z</time></trkpt><trkpt lat="39.041720826600226" lon="16.24617826527161"><ele>913.0</ele><time>2026-04-27T13:43:16.999Z</time></trkpt><trkpt lat="39.04159343908452" lon="16.24624833353423"><ele>913.0</ele><time>2026-04-27T13:43:17.999Z</time></trkpt><trkpt lat="39.04149346264759" lon="16.246328339746395"><ele>913.0</ele><time>2026-04-27T13:43:18.999Z</time></trkpt><trkpt lat="39.04139814495615" lon="16.246440735831403"><ele>914.0</ele><time>2026-04-27T13:43:19.999Z</time></trkpt><trkpt lat="39.0413184060106" lon="16.246575747140408"><ele>915.0</ele><time>2026-04-27T13:43:20.999Z</time></trkpt><trkpt lat="39.04120877906872" lon="16.246689480037173"><ele>916.0</ele><time>2026-04-27T13:43:21.999Z</time></trkpt><trkpt lat="39.041116524788826" lon="16.246782045215483"><ele>917.0</ele><time>2026-04-27T13:43:22.999Z</time></trkpt><trkpt lat="39.041011962853" lon="16.246853134803445"><ele>917.0</ele><time>2026-04-27T13:43:23.999Z</time></trkpt><trkpt lat="39.04090758797793" lon="16.246930967733103"><ele>917.0</ele><time>2026-04-27T13:43:24.999Z</time></trkpt><trkpt lat="39.040819326392864" lon="16.246999746203386"><ele>917.0</ele><time>2026-04-27T13:43:25.999Z</time></trkpt><trkpt lat="39.040718585232106" lon="16.24705539503306"><ele>917.0</ele><time>2026-04-27T13:43:26.999Z</time></trkpt><trkpt lat="39.040618280899366" lon="16.247098945707382"><ele>917.0</ele><time>2026-04-27T13:43:27.999Z</time></trkpt><trkpt lat="39.040515999113005" lon="16.24713011208861"><ele>916.0</ele><time>2026-04-27T13:43:28.999Z</time></trkpt><trkpt lat="39.0404233405633" lon="16.24717756072338"><ele>915.0</ele><time>2026-04-27T13:43:29.999Z</time></trkpt><trkpt lat="39.040325368109315" lon="16.247242651157553"><ele>914.0</ele><time>2026-04-27T13:43:30.999Z</time></trkpt><trkpt lat="39.04022774017426" lon="16.24732079467509"><ele>913.0</ele><time>2026-04-27T13:43:31.999Z</time></trkpt><trkpt lat="39.04015186240827" lon="16.247413360077694"><ele>912.0</ele><time>2026-04-27T13:43:32.999Z</time></trkpt><trkpt lat="39.04007203239377" lon="16.247530694419325"><ele>912.0</ele><time>2026-04-27T13:43:33.999Z</time></trkpt><trkpt lat="39.04000094164347" lon="16.24762272340763"><ele>912.0</ele><time>2026-04-27T13:43:34.999Z</time></trkpt><trkpt lat="39.03992252192274" lon="16.247699370148954"><ele>912.0</ele><time>2026-04-27T13:43:35.999Z</time></trkpt><trkpt lat="39.03983324444546" lon="16.247784481304304"><ele>912.0</ele><time>2026-04-27T13:43:36.999Z</time></trkpt><trkpt lat="39.0397421993686" lon="16.247876321764117"><ele>912.0</ele><time>2026-04-27T13:43:37.999Z</time></trkpt><trkpt lat="39.03967474194667" lon="16.247976170511112"><ele>911.2</ele><time>2026-04-27T13:43:38.999Z</time></trkpt><trkpt lat="39.039646234257575" lon="16.248121756509608"><ele>910.4000000000001</ele><time>2026-04-27T13:43:39.999Z</time></trkpt><trkpt lat="39.03960962242282" lon="16.248264914034305"><ele>909.5999999999999</ele><time>2026-04-27T13:43:40.999Z</time></trkpt><trkpt lat="39.03956711797239" lon="16.24839145809992"><ele>908.8</ele><time>2026-04-27T13:43:41.999Z</time></trkpt><trkpt lat="39.03953656965664" lon="16.24849197945015"><ele>908.0</ele><time>2026-04-27T13:43:42.999Z</time></trkpt><trkpt lat="39.03949849251753" lon="16.248567778958787"><ele>907.25</ele><time>2026-04-27T13:43:43.999Z</time></trkpt><trkpt lat="39.03943801789124" lon="16.24864960779202"><ele>906.5</ele><time>2026-04-27T13:43:44.999Z</time></trkpt><trkpt lat="39.03932249528941" lon="16.24874523553012"><ele>905.75</ele><time>2026-04-27T13:43:45.999Z</time></trkpt><trkpt lat="39.03922945849465" lon="16.248839097373"><ele>905.0</ele><time>2026-04-27T13:43:46.999Z</time></trkpt><trkpt lat="39.03913512818695" lon="16.24893563367115"><ele>900.25</ele><time>2026-04-27T13:43:47.999Z</time></trkpt><trkpt lat="39.03903583376875" lon="16.249044298108796"><ele>895.5</ele><time>2026-04-27T13:43:48.999Z</time></trkpt><trkpt lat="39.03890975828842" lon="16.2491010809551"><ele>890.75</ele><time>2026-04-27T13:43:49.999Z</time></trkpt><trkpt lat="39.03881093765304" lon="16.24920641980492"><ele>886.0</ele><time>2026-04-27T13:43:50.999Z</time></trkpt><trkpt lat="39.03872521971983" lon="16.24932798299207"><ele>886.0</ele><time>2026-04-27T13:43:51.999Z</time></trkpt><trkpt lat="39.03865411555787" lon="16.24943463676745"><ele>885.9999999999999</ele><time>2026-04-27T13:43:52.999Z</time></trkpt><trkpt lat="39.03858125311502" lon="16.249522178319737"><ele>885.9999999999999</ele><time>2026-04-27T13:43:53.999Z</time></trkpt><trkpt lat="39.03849903268522" lon="16.24960338821354"><ele>886.0</ele><time>2026-04-27T13:43:54.999Z</time></trkpt><trkpt lat="39.0384318361332" lon="16.249687856538113"><ele>886.0</ele><time>2026-04-27T13:43:55.999Z</time></trkpt><trkpt lat="39.03836210635396" lon="16.249773043733942"><ele>887.75</ele><time>2026-04-27T13:43:56.999Z</time></trkpt><trkpt lat="39.03825743613404" lon="16.249804793873594"><ele>889.5</ele><time>2026-04-27T13:43:57.999Z</time></trkpt><trkpt lat="39.03815665625691" lon="16.249865493353237"><ele>891.25</ele><time>2026-04-27T13:43:58.999Z</time></trkpt><trkpt lat="39.038010530512075" lon="16.249902072157713"><ele>893.0</ele><time>2026-04-27T13:43:59.999Z</time></trkpt><trkpt lat="39.03786280364883" lon="16.249969302527266"><ele>893.0</ele><time>2026-04-27T13:44:00.999Z</time></trkpt><trkpt lat="39.03771695744804" lon="16.250041955624138"><ele>893.0</ele><time>2026-04-27T13:44:01.999Z</time></trkpt><trkpt lat="39.03759666687732" lon="16.250094970282877"><ele>893.0</ele><time>2026-04-27T13:44:02.999Z</time></trkpt><trkpt lat="39.03748924757753" lon="16.25015713997637"><ele>893.0</ele><time>2026-04-27T13:44:03.999Z</time></trkpt><trkpt lat="39.03740296045979" lon="16.250242067745095"><ele>893.6666666666667</ele><time>2026-04-27T13:44:04.999Z</time></trkpt><trkpt lat="39.03732889827599" lon="16.25030656938716"><ele>894.3333333333334</ele><time>2026-04-27T13:44:05.999Z</time></trkpt><trkpt lat="39.03726665578536" lon="16.250368807114757"><ele>895.0</ele><time>2026-04-27T13:44:06.999Z</time></trkpt><trkpt lat="39.03721142323378" lon="16.25044083790909"><ele>895.6666666666667</ele><time>2026-04-27T13:44:07.999Z</time></trkpt><trkpt lat="39.03715294020806" lon="16.250506582736225"><ele>896.3333333333334</ele><time>2026-04-27T13:44:08.999Z</time></trkpt><trkpt lat="39.03710932750374" lon="16.25060365591525"><ele>897.0</ele><time>2026-04-27T13:44:09.999Z</time></trkpt><trkpt lat="39.03697168789337" lon="16.250620744705124"><ele>897.25</ele><time>2026-04-27T13:44:10.999Z</time></trkpt><trkpt lat="39.03685067533909" lon="16.25070343154995"><ele>897.5</ele><time>2026-04-27T13:44:11.999Z</time></trkpt><trkpt lat="39.0367351265387" lon="16.250805799880908"><ele>897.75</ele><time>2026-04-27T13:44:12.999Z</time></trkpt><trkpt lat="39.03662551221158" lon="16.250915196333082"><ele>898.0</ele><time>2026-04-27T13:44:13.999Z</time></trkpt><trkpt lat="39.0365113018827" lon="16.251043444557443"><ele>898.0</ele><time>2026-04-27T13:44:14.999Z</time></trkpt><trkpt lat="39.03639721082117" lon="16.251189918963764"><ele>898.0</ele><time>2026-04-27T13:44:15.999Z</time></trkpt><trkpt lat="39.03629839750081" lon="16.25134259440727"><ele>898.0</ele><time>2026-04-27T13:44:16.999Z</time></trkpt><trkpt lat="39.03619407896751" lon="16.25146050244578"><ele>898.75</ele><time>2026-04-27T13:44:17.999Z</time></trkpt><trkpt lat="39.03610689577355" lon="16.2515828303818"><ele>899.5</ele><time>2026-04-27T13:44:18.999Z</time></trkpt><trkpt lat="39.0360233861485" lon="16.251700003886175"><ele>900.25</ele><time>2026-04-27T13:44:19.999Z</time></trkpt><trkpt lat="39.035935339690674" lon="16.251823543076533"><ele>901.0</ele><time>2026-04-27T13:44:20.999Z</time></trkpt><trkpt lat="39.035847323933574" lon="16.25194703919981"><ele>901.25</ele><time>2026-04-27T13:44:21.999Z</time></trkpt><trkpt lat="39.03575528763938" lon="16.252076176591274"><ele>901.5</ele><time>2026-04-27T13:44:22.999Z</time></trkpt><trkpt lat="39.03566050700713" lon="16.252209164605514"><ele>901.75</ele><time>2026-04-27T13:44:23.999Z</time></trkpt><trkpt lat="39.035559312941054" lon="16.252351151394123"><ele>902.0</ele><time>2026-04-27T13:44:24.999Z</time></trkpt><trkpt lat="39.03545195791627" lon="16.25250178272081"><ele>902.0</ele><time>2026-04-27T13:44:25.999Z</time></trkpt><trkpt lat="39.0353444083632" lon="16.252652618401893"><ele>902.0</ele><time>2026-04-27T13:44:26.999Z</time></trkpt><trkpt lat="39.03523533370368" lon="16.25280559979147"><ele>902.0</ele><time>2026-04-27T13:44:27.999Z</time></trkpt><trkpt lat="39.03512325247273" lon="16.25296271715296"><ele>902.0</ele><time>2026-04-27T13:44:28.999Z</time></trkpt><trkpt lat="39.03501009934111" lon="16.25312095831325"><ele>902.0</ele><time>2026-04-27T13:44:29.999Z</time></trkpt><trkpt lat="39.034896269887206" lon="16.253279197872523"><ele>902.0</ele><time>2026-04-27T13:44:30.999Z</time></trkpt><trkpt lat="39.03478749485081" lon="16.253430411054055"><ele>901.0</ele><time>2026-04-27T13:44:31.999Z</time></trkpt><trkpt lat="39.03468366486665" lon="16.253584496219382"><ele>900.0</ele><time>2026-04-27T13:44:32.999Z</time></trkpt><trkpt lat="39.03458891423168" lon="16.2537492066797"><ele>899.0</ele><time>2026-04-27T13:44:33.999Z</time></trkpt><trkpt lat="39.03449632386251" lon="16.253926981406284"><ele>899.3333333333334</ele><time>2026-04-27T13:44:34.999Z</time></trkpt><trkpt lat="39.03440494019716" lon="16.25412574543547"><ele>899.6666666666667</ele><time>2026-04-27T13:44:35.999Z</time></trkpt><trkpt lat="39.03431734388813" lon="16.254329125136696"><ele>900.0</ele><time>2026-04-27T13:44:36.999Z</time></trkpt><trkpt lat="39.03423561969359" lon="16.254520666241135"><ele>900.0</ele><time>2026-04-27T13:44:37.999Z</time></trkpt><trkpt lat="39.03415679743426" lon="16.254707404725025"><ele>900.0</ele><time>2026-04-27T13:44:38.999Z</time></trkpt><trkpt lat="39.034076014100776" lon="16.25489819641977"><ele>900.0</ele><time>2026-04-27T13:44:39.998Z</time></trkpt><trkpt lat="39.0339966328367" lon="16.25508366737961"><ele>900.0</ele><time>2026-04-27T13:44:40.998Z</time></trkpt><trkpt lat="39.03392050897311" lon="16.25526152757058"><ele>900.0</ele><time>2026-04-27T13:44:42Z</time></trkpt><trkpt lat="39.033850326989224" lon="16.255425504796097"><ele>900.0</ele><time>2026-04-27T13:44:43Z</time></trkpt><trkpt lat="39.033794277229134" lon="16.255597629372684"><ele>900.0</ele><time>2026-04-27T13:44:44Z</time></trkpt><trkpt lat="39.033708245713534" lon="16.255744530352413"><ele>900.3333333333333</ele><time>2026-04-27T13:44:45Z</time></trkpt><trkpt lat="39.03362683237975" lon="16.255900950939825"><ele>900.6666666666666</ele><time>2026-04-27T13:44:46Z</time></trkpt><trkpt lat="39.033534749576546" lon="16.25606160455609"><ele>901.0</ele><time>2026-04-27T13:44:47Z</time></trkpt><trkpt lat="39.03343405338047" lon="16.256213732500502"><ele>901.0</ele><time>2026-04-27T13:44:48Z</time></trkpt><trkpt lat="39.033323973674946" lon="16.256358543352274"><ele>901.0</ele><time>2026-04-27T13:44:49Z</time></trkpt><trkpt lat="39.03320264844765" lon="16.256509341234572"><ele>901.0</ele><time>2026-04-27T13:44:50Z</time></trkpt><trkpt lat="39.033078129472244" lon="16.256663527657906"><ele>900.6666666666666</ele><time>2026-04-27T13:44:51Z</time></trkpt><trkpt lat="39.03294911098817" lon="16.25682328562566"><ele>900.3333333333333</ele><time>2026-04-27T13:44:52Z</time></trkpt><trkpt lat="39.03281831372468" lon="16.256985246171773"><ele>900.0</ele><time>2026-04-27T13:44:53Z</time></trkpt><trkpt lat="39.03268667921364" lon="16.25714824344432"><ele>901.0</ele><time>2026-04-27T13:44:54Z</time></trkpt><trkpt lat="39.03255288659477" lon="16.25731391301741"><ele>902.0</ele><time>2026-04-27T13:44:55Z</time></trkpt><trkpt lat="39.03241799773959" lon="16.25747911843856"><ele>903.0</ele><time>2026-04-27T13:44:56Z</time></trkpt><trkpt lat="39.03228555396629" lon="16.257641232422205"><ele>903.3333333333333</ele><time>2026-04-27T13:44:57Z</time></trkpt><trkpt lat="39.032155587965384" lon="16.257799632663318"><ele>903.6666666666666</ele><time>2026-04-27T13:44:58Z</time></trkpt><trkpt lat="39.032021133381775" lon="16.257962403613465"><ele>904.0</ele><time>2026-04-27T13:44:58.999Z</time></trkpt><trkpt lat="39.03187350261135" lon="16.258131139217372"><ele>904.3333333333333</ele><time>2026-04-27T13:44:59.999Z</time></trkpt><trkpt lat="39.03171145106394" lon="16.258296452324593"><ele>904.6666666666667</ele><time>2026-04-27T13:45:00.999Z</time></trkpt><trkpt lat="39.03153143462478" lon="16.25845723217714"><ele>905.0</ele><time>2026-04-27T13:45:01.999Z</time></trkpt><trkpt lat="39.031351143428914" lon="16.258616390524114"><ele>905.0</ele><time>2026-04-27T13:45:02.999Z</time></trkpt><trkpt lat="39.031173055960636" lon="16.258773541642537"><ele>905.0</ele><time>2026-04-27T13:45:03.999Z</time></trkpt><trkpt lat="39.03099326949823" lon="16.25893213152582"><ele>905.0</ele><time>2026-04-27T13:45:04.999Z</time></trkpt><trkpt lat="39.030814344394344" lon="16.25908996159812"><ele>905.5</ele><time>2026-04-27T13:45:05.999Z</time></trkpt><trkpt lat="39.03062953794812" lon="16.25925297961633"><ele>906.0</ele><time>2026-04-27T13:45:06.999Z</time></trkpt><trkpt lat="39.03044182059175" lon="16.259418987065573"><ele>906.0</ele><time>2026-04-27T13:45:07.999Z</time></trkpt><trkpt lat="39.03025024184947" lon="16.259583745108976"><ele>906.0</ele><time>2026-04-27T13:45:08.999Z</time></trkpt><trkpt lat="39.03005600749342" lon="16.259744531701163"><ele>908.0</ele><time>2026-04-27T13:45:09.999Z</time></trkpt><trkpt lat="39.02985654490024" lon="16.259879147621657"><ele>910.0</ele><time>2026-04-27T13:45:10.999Z</time></trkpt><trkpt lat="39.02963993641931" lon="16.25999069741704"><ele>910.0</ele><time>2026-04-27T13:45:11.999Z</time></trkpt><trkpt lat="39.029413507038505" lon="16.26009157043403"><ele>910.0</ele><time>2026-04-27T13:45:12.999Z</time></trkpt><trkpt lat="39.02918257909429" lon="16.260191595218252"><ele>911.5</ele><time>2026-04-27T13:45:13.999Z</time></trkpt><trkpt lat="39.028952459611176" lon="16.260296712239402"><ele>913.0</ele><time>2026-04-27T13:45:14.999Z</time></trkpt><trkpt lat="39.02872233997027" lon="16.260400903381186"><ele>913.0</ele><time>2026-04-27T13:45:15.999Z</time></trkpt><trkpt lat="39.02849192710206" lon="16.260505227268524"><ele>913.0</ele><time>2026-04-27T13:45:16.999Z</time></trkpt><trkpt lat="39.02827112766858" lon="16.2605999639206"><ele>914.6666666666666</ele><time>2026-04-27T13:45:17.999Z</time></trkpt><trkpt lat="39.02805786318955" lon="16.26069381721386"><ele>916.3333333333333</ele><time>2026-04-27T13:45:18.999Z</time></trkpt><trkpt lat="39.027852492911464" lon="16.260785584695043"><ele>918.0</ele><time>2026-04-27T13:45:19.999Z</time></trkpt><trkpt lat="39.02764978300781" lon="16.26089130293205"><ele>919.6666666666667</ele><time>2026-04-27T13:45:20.999Z</time></trkpt><trkpt lat="39.027460161589" lon="16.26102364914712"><ele>921.3333333333334</ele><time>2026-04-27T13:45:21.999Z</time></trkpt><trkpt lat="39.02727336176067" lon="16.261188729113872"><ele>923.0</ele><time>2026-04-27T13:45:22.999Z</time></trkpt><trkpt lat="39.02709455901003" lon="16.26136111120725"><ele>921.6666666666667</ele><time>2026-04-27T13:45:23.999Z</time></trkpt><trkpt lat="39.026938580777376" lon="16.261557468800007"><ele>920.3333333333333</ele><time>2026-04-27T13:45:24.999Z</time></trkpt><trkpt lat="39.02677264193389" lon="16.26171981010235"><ele>919.0</ele><time>2026-04-27T13:45:25.999Z</time></trkpt><trkpt lat="39.026611298014984" lon="16.26186764413145"><ele>922.6666666666666</ele><time>2026-04-27T13:45:26.999Z</time></trkpt><trkpt lat="39.02645753698906" lon="16.262014833775492"><ele>926.3333333333333</ele><time>2026-04-27T13:45:27.999Z</time></trkpt><trkpt lat="39.02629385881339" lon="16.26213433588662"><ele>930.0</ele><time>2026-04-27T13:45:28.999Z</time></trkpt><trkpt lat="39.02614430275302" lon="16.26227846533846"><ele>930.0</ele><time>2026-04-27T13:45:30Z</time></trkpt><trkpt lat="39.02599251072527" lon="16.262424749609504"><ele>930.0</ele><time>2026-04-27T13:45:31Z</time></trkpt><trkpt lat="39.02584698454357" lon="16.26256499539185"><ele>930.0</ele><time>2026-04-27T13:45:32Z</time></trkpt><trkpt lat="39.02569903813542" lon="16.262707573573984"><ele>930.0</ele><time>2026-04-27T13:45:33Z</time></trkpt><trkpt lat="39.0255505527495" lon="16.262850492173122"><ele>930.0</ele><time>2026-04-27T13:45:34Z</time></trkpt><trkpt lat="39.02540771590338" lon="16.2629879567815"><ele>930.0</ele><time>2026-04-27T13:45:35Z</time></trkpt><trkpt lat="39.025265537410064" lon="16.263124194412875"><ele>930.3333333333333</ele><time>2026-04-27T13:45:36Z</time></trkpt><trkpt lat="39.02512002450383" lon="16.263263775647122"><ele>930.6666666666666</ele><time>2026-04-27T13:45:37Z</time></trkpt><trkpt lat="39.02496896882642" lon="16.26340878364807"><ele>931.0</ele><time>2026-04-27T13:45:38Z</time></trkpt><trkpt lat="39.02480881378743" lon="16.263563523488674"><ele>931.3333333333333</ele><time>2026-04-27T13:45:39Z</time></trkpt><trkpt lat="39.024643452526135" lon="16.263724538596623"><ele>931.6666666666667</ele><time>2026-04-27T13:45:40Z</time></trkpt><trkpt lat="39.02446626722148" lon="16.26389458153677"><ele>932.0</ele><time>2026-04-27T13:45:41Z</time></trkpt><trkpt lat="39.02427995739525" lon="16.264073214918334"><ele>933.0</ele><time>2026-04-27T13:45:42Z</time></trkpt><trkpt lat="39.0240885656682" lon="16.264259156575207"><ele>934.0</ele><time>2026-04-27T13:45:43Z</time></trkpt><trkpt lat="39.02389414293546" lon="16.264448149435154"><ele>934.0</ele><time>2026-04-27T13:45:44Z</time></trkpt><trkpt lat="39.02370916271073" lon="16.264626903561275"><ele>934.0</ele><time>2026-04-27T13:45:45Z</time></trkpt><trkpt lat="39.02353907393553" lon="16.264792686098215"><ele>934.0</ele><time>2026-04-27T13:45:46Z</time></trkpt><trkpt lat="39.023383795528375" lon="16.264958372629753"><ele>936.6666666666666</ele><time>2026-04-27T13:45:47Z</time></trkpt><trkpt lat="39.0232430336023" lon="16.26515059270741"><ele>939.3333333333333</ele><time>2026-04-27T13:45:48Z</time></trkpt><trkpt lat="39.02311951659944" lon="16.26536393706333"><ele>942.0</ele><time>2026-04-27T13:45:49Z</time></trkpt><trkpt lat="39.02303487082739" lon="16.265580033352755"><ele>943.3333333333333</ele><time>2026-04-27T13:45:50Z</time></trkpt><trkpt lat="39.02297894612398" lon="16.265787123356343"><ele>944.6666666666666</ele><time>2026-04-27T13:45:51Z</time></trkpt><trkpt lat="39.02291096153972" lon="16.265996867341265"><ele>946.0</ele><time>2026-04-27T13:45:52Z</time></trkpt><trkpt lat="39.02283427736451" lon="16.266211639952814"><ele>946.0</ele><time>2026-04-27T13:45:53Z</time></trkpt><trkpt lat="39.02275676799262" lon="16.26643428756174"><ele>946.0</ele><time>2026-04-27T13:45:54Z</time></trkpt><trkpt lat="39.02266094624368" lon="16.266617185268224"><ele>946.0</ele><time>2026-04-27T13:45:55Z</time></trkpt><trkpt lat="39.02259354140771" lon="16.266789949658587"><ele>946.25</ele><time>2026-04-27T13:45:56Z</time></trkpt><trkpt lat="39.02252155319273" lon="16.266938298878117"><ele>946.5</ele><time>2026-04-27T13:45:57Z</time></trkpt><trkpt lat="39.02242941001442" lon="16.26705237032747"><ele>946.75</ele><time>2026-04-27T13:45:58Z</time></trkpt><trkpt lat="39.02232545601122" lon="16.267142008585648"><ele>947.0</ele><time>2026-04-27T13:45:59Z</time></trkpt><trkpt lat="39.022214592160424" lon="16.26720619263688"><ele>945.5</ele><time>2026-04-27T13:46:00Z</time></trkpt><trkpt lat="39.02208588084543" lon="16.267238728598517"><ele>944.0</ele><time>2026-04-27T13:46:01Z</time></trkpt><trkpt lat="39.02194044076471" lon="16.267255608261124"><ele>942.5</ele><time>2026-04-27T13:46:02Z</time></trkpt><trkpt lat="39.02179520619602" lon="16.267287113508"><ele>941.0</ele><time>2026-04-27T13:46:03Z</time></trkpt><trkpt lat="39.02166979848774" lon="16.267319283687225"><ele>935.0</ele><time>2026-04-27T13:46:04Z</time></trkpt><trkpt lat="39.021566947432696" lon="16.267343893274404"><ele>928.9999999999999</ele><time>2026-04-27T13:46:05Z</time></trkpt><trkpt lat="39.02149335991971" lon="16.267446554750805"><ele>922.9999999999999</ele><time>2026-04-27T13:46:06Z</time></trkpt><trkpt lat="39.02144144336987" lon="16.26755591589173"><ele>917.0</ele><time>2026-04-27T13:46:07Z</time></trkpt><trkpt lat="39.02143626344275" lon="16.267707388491093"><ele>911.0</ele><time>2026-04-27T13:46:08Z</time></trkpt><trkpt lat="39.02146882515845" lon="16.267864743700443"><ele>911.0</ele><time>2026-04-27T13:46:09Z</time></trkpt><trkpt lat="39.02153669338808" lon="16.268021935344663"><ele>911.0</ele><time>2026-04-27T13:46:10Z</time></trkpt><trkpt lat="39.02159553034147" lon="16.26821412574879"><ele>911.0</ele><time>2026-04-27T13:46:11Z</time></trkpt><trkpt lat="39.02166449469845" lon="16.26839467879134"><ele>915.5</ele><time>2026-04-27T13:46:12Z</time></trkpt><trkpt lat="39.02172604191881" lon="16.268555767517043"><ele>920.0</ele><time>2026-04-27T13:46:13Z</time></trkpt><trkpt lat="39.02178569920018" lon="16.268711780257235"><ele>924.5</ele><time>2026-04-27T13:46:14Z</time></trkpt><trkpt lat="39.02184903275277" lon="16.268869628481845"><ele>929.0</ele><time>2026-04-27T13:46:15Z</time></trkpt><trkpt lat="39.02192904312875" lon="16.269031253715465"><ele>929.0</ele><time>2026-04-27T13:46:16Z</time></trkpt><trkpt lat="39.0220286366808" lon="16.269182539753153"><ele>929.0</ele><time>2026-04-27T13:46:17Z</time></trkpt><trkpt lat="39.022153358318306" lon="16.26930431949134"><ele>929.0</ele><time>2026-04-27T13:46:18Z</time></trkpt><trkpt lat="39.02225973519614" lon="16.269446913439324"><ele>929.0</ele><time>2026-04-27T13:46:19Z</time></trkpt><trkpt lat="39.02237040449252" lon="16.26956538638122"><ele>929.0</ele><time>2026-04-27T13:46:20Z</time></trkpt><trkpt lat="39.022470723867364" lon="16.26967276445628"><ele>929.0</ele><time>2026-04-27T13:46:21Z</time></trkpt><trkpt lat="39.0225683500509" lon="16.269777259772827"><ele>929.0</ele><time>2026-04-27T13:46:22Z</time></trkpt><trkpt lat="39.0226626805638" lon="16.26987901659332"><ele>929.8000000000001</ele><time>2026-04-27T13:46:23Z</time></trkpt><trkpt lat="39.022748898305984" lon="16.269974092784693"><ele>930.6000000000001</ele><time>2026-04-27T13:46:24Z</time></trkpt><trkpt lat="39.02281834781168" lon="16.270072338632882"><ele>931.4</ele><time>2026-04-27T13:46:25Z</time></trkpt><trkpt lat="39.02287022582493" lon="16.27018554554952"><ele>932.2</ele><time>2026-04-27T13:46:26Z</time></trkpt><trkpt lat="39.02287425230339" lon="16.270308774495945"><ele>933.0</ele><time>2026-04-27T13:46:27Z</time></trkpt><trkpt lat="39.02284444947138" lon="16.270415532617626"><ele>933.0</ele><time>2026-04-27T13:46:28Z</time></trkpt><trkpt lat="39.0228066321968" lon="16.27052362796599"><ele>933.0</ele><time>2026-04-27T13:46:29Z</time></trkpt><trkpt lat="39.022736605453744" lon="16.270576034287263"><ele>933.0</ele><time>2026-04-27T13:46:30Z</time></trkpt><trkpt lat="39.02266560705222" lon="16.270631783849968"><ele>933.0</ele><time>2026-04-27T13:46:32Z</time></trkpt><trkpt lat="39.02274930096144" lon="16.270747217837904"><ele>933.0</ele><time>2026-04-27T13:46:36Z</time></trkpt><trkpt lat="39.022781816230925" lon="16.27083541250274"><ele>933.8333333333334</ele><time>2026-04-27T13:46:41Z</time></trkpt><trkpt lat="39.02271820288791" lon="16.270885461252178"><ele>934.6666666666667</ele><time>2026-04-27T13:46:44.999Z</time></trkpt><trkpt lat="39.02263102276534" lon="16.270903321602"><ele>935.5</ele><time>2026-04-27T13:46:46.999Z</time></trkpt><trkpt lat="39.02256197863867" lon="16.270901469725292"><ele>936.3333333333334</ele><time>2026-04-27T13:46:48.001Z</time></trkpt><trkpt lat="39.02247893906278" lon="16.270894244731238"><ele>937.1666666666667</ele><time>2026-04-27T13:46:49.001Z</time></trkpt><trkpt lat="39.02238598042839" lon="16.270884279357254"><ele>938.0</ele><time>2026-04-27T13:46:50.001Z</time></trkpt><trkpt lat="39.02227855369517" lon="16.270873172697765"><ele>938.8333333333334</ele><time>2026-04-27T13:46:51.001Z</time></trkpt><trkpt lat="39.02218659960717" lon="16.270864007914202"><ele>939.6666666666667</ele><time>2026-04-27T13:46:52.001Z</time></trkpt><trkpt lat="39.02210266514248" lon="16.270846016117577"><ele>940.5</ele><time>2026-04-27T13:46:53.001Z</time></trkpt><trkpt lat="39.02202759350938" lon="16.270823936446142"><ele>941.3333333333333</ele><time>2026-04-27T13:46:54.001Z</time></trkpt><trkpt lat="39.02194555768693" lon="16.270788040488966"><ele>942.1666666666666</ele><time>2026-04-27T13:46:55.001Z</time></trkpt><trkpt lat="39.02186457707049" lon="16.270751684887696"><ele>943.0</ele><time>2026-04-27T13:46:56.001Z</time></trkpt><trkpt lat="39.021783790051444" lon="16.27076935472941"><ele>942.9999999999999</ele><time>2026-04-27T13:46:58.001Z</time></trkpt><trkpt lat="39.02177284572457" lon="16.270904848587044"><ele>943.0</ele><time>2026-04-27T13:47:00.001Z</time></trkpt><trkpt lat="39.021818977465685" lon="16.270978057221892"><ele>943.0</ele><time>2026-04-27T13:47:01.001Z</time></trkpt><trkpt lat="39.02188539269239" lon="16.271034204944087"><ele>943.0</ele><time>2026-04-27T13:47:02.001Z</time></trkpt><trkpt lat="39.02194538355412" lon="16.271106916375015"><ele>942.9999999999999</ele><time>2026-04-27T13:47:03Z</time></trkpt><trkpt lat="39.021974030015045" lon="16.271188918530026"><ele>943.0</ele><time>2026-04-27T13:47:04Z</time></trkpt><trkpt lat="39.022012559314156" lon="16.271331807262968"><ele>943.0</ele><time>2026-04-27T13:47:06Z</time></trkpt><trkpt lat="39.02212099989176" lon="16.27141481916354"><ele>943.0</ele><time>2026-04-27T13:47:08Z</time></trkpt><trkpt lat="39.02221217625668" lon="16.27146486174094"><ele>943.0</ele><time>2026-04-27T13:47:09Z</time></trkpt><trkpt lat="39.022290872147124" lon="16.271527033889704"><ele>943.0</ele><time>2026-04-27T13:47:10Z</time></trkpt><trkpt lat="39.02236945245758" lon="16.271608813719517"><ele>943.0</ele><time>2026-04-27T13:47:11Z</time></trkpt><trkpt lat="39.02243995467043" lon="16.271693863134875"><ele>945.6666666666666</ele><time>2026-04-27T13:47:12Z</time></trkpt><trkpt lat="39.022501214756154" lon="16.27177204633995"><ele>948.3333333333333</ele><time>2026-04-27T13:47:13Z</time></trkpt><trkpt lat="39.02256139779862" lon="16.271834267508254"><ele>951.0</ele><time>2026-04-27T13:47:14Z</time></trkpt><trkpt lat="39.02264263498141" lon="16.271913235384638"><ele>953.6666666666667</ele><time>2026-04-27T13:47:15Z</time></trkpt><trkpt lat="39.02270687910552" lon="16.271997317026514"><ele>956.3333333333334</ele><time>2026-04-27T13:47:16Z</time></trkpt><trkpt lat="39.02275858531467" lon="16.2720551217318"><ele>959.0</ele><time>2026-04-27T13:47:17Z</time></trkpt><trkpt lat="39.02278884427922" lon="16.272152823957246"><ele>959.0</ele><time>2026-04-27T13:47:19Z</time></trkpt><trkpt lat="39.02273816641455" lon="16.272241417862666"><ele>959.0000000000001</ele><time>2026-04-27T13:47:21Z</time></trkpt><trkpt lat="39.02267843870565" lon="16.27229676157006"><ele>959.0000000000001</ele><time>2026-04-27T13:47:22Z</time></trkpt><trkpt lat="39.022565608574695" lon="16.272305609105242"><ele>959.0</ele><time>2026-04-27T13:47:24Z</time></trkpt><trkpt lat="39.02250193408883" lon="16.272275150836187"><ele>959.0</ele><time>2026-04-27T13:47:25Z</time></trkpt><trkpt lat="39.02239737728497" lon="16.272216928708353"><ele>958.8000000000001</ele><time>2026-04-27T13:47:27Z</time></trkpt><trkpt lat="39.02229537846485" lon="16.27226389396785"><ele>958.6000000000001</ele><time>2026-04-27T13:47:29Z</time></trkpt><trkpt lat="39.02221894167964" lon="16.27229501200338"><ele>958.4</ele><time>2026-04-27T13:47:30Z</time></trkpt><trkpt lat="39.0221303155066" lon="16.27229944320395"><ele>958.2</ele><time>2026-04-27T13:47:31Z</time></trkpt><trkpt lat="39.022034834471036" lon="16.27229154481801"><ele>958.0</ele><time>2026-04-27T13:47:32Z</time></trkpt><trkpt lat="39.02195669553702" lon="16.272270475144754"><ele>957.9999999999999</ele><time>2026-04-27T13:47:33Z</time></trkpt><trkpt lat="39.021886526505035" lon="16.272243843400144"><ele>958.0</ele><time>2026-04-27T13:47:34Z</time></trkpt><trkpt lat="39.021819841201456" lon="16.272215461173353"><ele>958.0</ele><time>2026-04-27T13:47:35Z</time></trkpt><trkpt lat="39.021738458580465" lon="16.27221296411416"><ele>958.0</ele><time>2026-04-27T13:47:36Z</time></trkpt><trkpt lat="39.02163470236785" lon="16.272218993419674"><ele>957.9999999999999</ele><time>2026-04-27T13:47:37Z</time></trkpt><trkpt lat="39.02153491254929" lon="16.27223178064641"><ele>958.0</ele><time>2026-04-27T13:47:38Z</time></trkpt><trkpt lat="39.02143324536075" lon="16.272239073585453"><ele>959.1666666666666</ele><time>2026-04-27T13:47:39Z</time></trkpt><trkpt lat="39.021362277506114" lon="16.272273253543037"><ele>960.3333333333333</ele><time>2026-04-27T13:47:41Z</time></trkpt><trkpt lat="39.02134281877422" lon="16.272353965478526"><ele>961.5</ele><time>2026-04-27T13:47:46Z</time></trkpt><trkpt lat="39.02140090046529" lon="16.27242152347787"><ele>962.6666666666667</ele><time>2026-04-27T13:47:49Z</time></trkpt><trkpt lat="39.021445600881506" lon="16.272504384977353"><ele>963.8333333333334</ele><time>2026-04-27T13:47:51Z</time></trkpt><trkpt lat="39.021498801765915" lon="16.272555738555965"><ele>965.0</ele><time>2026-04-27T13:47:55Z</time></trkpt><trkpt lat="39.021687010447906" lon="16.27278154106672"><ele>967.3333333333334</ele><time>2026-04-27T13:47:56Z</time></trkpt><trkpt lat="39.02175084539367" lon="16.272856397716033"><ele>969.6666666666667</ele><time>2026-04-27T13:47:57Z</time></trkpt><trkpt lat="39.02180487481993" lon="16.27292521691595"><ele>972.0</ele><time>2026-04-27T13:47:58Z</time></trkpt><trkpt lat="39.021857355402794" lon="16.27300031838022"><ele>974.3333333333333</ele><time>2026-04-27T13:47:59Z</time></trkpt><trkpt lat="39.021919682679574" lon="16.27308903794969"><ele>976.6666666666666</ele><time>2026-04-27T13:48:00Z</time></trkpt><trkpt lat="39.02196933661937" lon="16.273172265794745"><ele>979.0</ele><time>2026-04-27T13:48:01Z</time></trkpt><trkpt lat="39.022025749992686" lon="16.27326117931013"><ele>980.9999999999999</ele><time>2026-04-27T13:48:02Z</time></trkpt><trkpt lat="39.0221274765718" lon="16.27335420583755"><ele>983.0</ele><time>2026-04-27T13:48:04Z</time></trkpt><trkpt lat="39.02218443610677" lon="16.273416130694034"><ele>985.0</ele><time>2026-04-27T13:48:05Z</time></trkpt><trkpt lat="39.02222163530233" lon="16.27350069914412"><ele>987.0</ele><time>2026-04-27T13:48:06Z</time></trkpt><trkpt lat="39.02226137430013" lon="16.273575479772187"><ele>988.9999999999999</ele><time>2026-04-27T13:48:07Z</time></trkpt><trkpt lat="39.022319408732834" lon="16.273673147194557"><ele>991.0</ele><time>2026-04-27T13:48:09Z</time></trkpt><trkpt lat="39.02238583842775" lon="16.273746350370985"><ele>991.0</ele><time>2026-04-27T13:48:12Z</time></trkpt><trkpt lat="39.0224102324417" lon="16.273825277074273"><ele>990.9999999999999</ele><time>2026-04-27T13:48:23Z</time></trkpt><trkpt lat="39.02245878496121" lon="16.274101624887027"><ele>990.9999999999999</ele><time>2026-04-27T13:48:24Z</time></trkpt><trkpt lat="39.022465409163495" lon="16.274189603022943"><ele>991.0</ele><time>2026-04-27T13:48:25Z</time></trkpt><trkpt lat="39.0224542273334" lon="16.274279527705197"><ele>991.0</ele><time>2026-04-27T13:48:26Z</time></trkpt><trkpt lat="39.02243980779013" lon="16.274395857643427"><ele>992.5999999999999</ele><time>2026-04-27T13:48:27Z</time></trkpt><trkpt lat="39.02242452074765" lon="16.274500861636078"><ele>994.1999999999999</ele><time>2026-04-27T13:48:28Z</time></trkpt><trkpt lat="39.02241516557408" lon="16.27461928345218"><ele>995.8000000000001</ele><time>2026-04-27T13:48:29Z</time></trkpt><trkpt lat="39.02240154579644" lon="16.274733211242605"><ele>997.4000000000001</ele><time>2026-04-27T13:48:30Z</time></trkpt><trkpt lat="39.022384329223655" lon="16.274855751747594"><ele>999.0</ele><time>2026-04-27T13:48:31Z</time></trkpt><trkpt lat="39.02238703273806" lon="16.274991108260828"><ele>1001.5</ele><time>2026-04-27T13:48:32Z</time></trkpt><trkpt lat="39.02238043049743" lon="16.27511402581074"><ele>1004.0</ele><time>2026-04-27T13:48:33Z</time></trkpt><trkpt lat="39.02237027742564" lon="16.275230542956933"><ele>1006.5</ele><time>2026-04-27T13:48:34Z</time></trkpt><trkpt lat="39.022366781079526" lon="16.275347456716723"><ele>1009.0</ele><time>2026-04-27T13:48:35Z</time></trkpt><trkpt lat="39.022367452897925" lon="16.275459033909094"><ele>1011.5</ele><time>2026-04-27T13:48:36Z</time></trkpt><trkpt lat="39.02237369953966" lon="16.275551694021008"><ele>1014.0</ele><time>2026-04-27T13:48:37Z</time></trkpt><trkpt lat="39.022384951687485" lon="16.27565395883769"><ele>1016.6</ele><time>2026-04-27T13:48:38Z</time></trkpt><trkpt lat="39.02240402587253" lon="16.27575658366857"><ele>1019.2</ele><time>2026-04-27T13:48:39Z</time></trkpt><trkpt lat="39.02240836076651" lon="16.2758665008941"><ele>1021.8000000000001</ele><time>2026-04-27T13:48:40Z</time></trkpt><trkpt lat="39.0224151546821" lon="16.276002118151954"><ele>1024.4</ele><time>2026-04-27T13:48:41Z</time></trkpt><trkpt lat="39.022456875934715" lon="16.276161184298022"><ele>1027.0</ele><time>2026-04-27T13:48:42Z</time></trkpt><trkpt lat="39.02244852072629" lon="16.276281628120067"><ele>1027.0</ele><time>2026-04-27T13:48:43Z</time></trkpt><trkpt lat="39.02243509495896" lon="16.276382963836955"><ele>1027.0</ele><time>2026-04-27T13:48:44Z</time></trkpt><trkpt lat="39.02242679458578" lon="16.276468146671043"><ele>1027.0</ele><time>2026-04-27T13:48:44.999Z</time></trkpt><trkpt lat="39.02243404057086" lon="16.276607065920974"><ele>1027.0</ele><time>2026-04-27T13:48:46.999Z</time></trkpt><trkpt lat="39.022440341377134" lon="16.27672071207496"><ele>1027.0</ele><time>2026-04-27T13:48:47.999Z</time></trkpt><trkpt lat="39.022452676842036" lon="16.276821555845377"><ele>1027.0</ele><time>2026-04-27T13:48:48.999Z</time></trkpt><trkpt lat="39.02246350866613" lon="16.276905075256288"><ele>1027.6666666666665</ele><time>2026-04-27T13:48:49.999Z</time></trkpt><trkpt lat="39.0224494959096" lon="16.27698643808802"><ele>1028.3333333333333</ele><time>2026-04-27T13:48:51.999Z</time></trkpt><trkpt lat="39.022515895563814" lon="16.277073291686303"><ele>1029.0</ele><time>2026-04-27T13:48:54Z</time></trkpt><trkpt lat="39.02255886554649" lon="16.2771425961954"><ele>1029.6666666666667</ele><time>2026-04-27T13:48:55.001Z</time></trkpt><trkpt lat="39.022577171094476" lon="16.277314927012444"><ele>1030.3333333333335</ele><time>2026-04-27T13:48:57Z</time></trkpt><trkpt lat="39.022588143030596" lon="16.277421753470794"><ele>1031.0</ele><time>2026-04-27T13:48:58.001Z</time></trkpt><trkpt lat="39.022595881273595" lon="16.277518483421165"><ele>1035.5</ele><time>2026-04-27T13:48:59Z</time></trkpt><trkpt lat="39.022589643815884" lon="16.27762269225361"><ele>1040.0</ele><time>2026-04-27T13:49:00Z</time></trkpt><trkpt lat="39.022586027670286" lon="16.277720015471157"><ele>1044.5</ele><time>2026-04-27T13:49:01.001Z</time></trkpt><trkpt lat="39.02257973466127" lon="16.27782056608471"><ele>1049.0</ele><time>2026-04-27T13:49:02Z</time></trkpt><trkpt lat="39.02261758554234" lon="16.277973786339953"><ele>1053.5</ele><time>2026-04-27T13:49:04.001Z</time></trkpt><trkpt lat="39.02261805513996" lon="16.27807230056203"><ele>1058.0</ele><time>2026-04-27T13:49:05Z</time></trkpt><trkpt lat="39.02260549637414" lon="16.278161828896884"><ele>1059.8333333333335</ele><time>2026-04-27T13:49:06Z</time></trkpt><trkpt lat="39.022593045885145" lon="16.278253127460218"><ele>1061.6666666666667</ele><time>2026-04-27T13:49:07.001Z</time></trkpt><trkpt lat="39.022585641019226" lon="16.278384586695235"><ele>1063.5</ele><time>2026-04-27T13:49:09Z</time></trkpt><trkpt lat="39.022567154560434" lon="16.278473751245564"><ele>1065.3333333333333</ele><time>2026-04-27T13:49:10Z</time></trkpt><trkpt lat="39.022532713278736" lon="16.27857801760185"><ele>1067.1666666666665</ele><time>2026-04-27T13:49:12Z</time></trkpt><trkpt lat="39.02258327834695" lon="16.27864635298696"><ele>1069.0</ele><time>2026-04-27T13:49:15Z</time></trkpt><trkpt lat="39.02257551566076" lon="16.278792359308834"><ele>1073.2</ele><time>2026-04-27T13:49:17Z</time></trkpt><trkpt lat="39.022583224438776" lon="16.27897946963679"><ele>1077.4</ele><time>2026-04-27T13:49:19Z</time></trkpt><trkpt lat="39.022587860907066" lon="16.279083746537097"><ele>1081.6</ele><time>2026-04-27T13:49:20Z</time></trkpt><trkpt lat="39.02258956019881" lon="16.279168500406943"><ele>1085.8</ele><time>2026-04-27T13:49:21Z</time></trkpt><trkpt lat="39.02264179302473" lon="16.279268952840564"><ele>1090.0</ele><time>2026-04-27T13:49:23Z</time></trkpt><trkpt lat="39.022673938077325" lon="16.279344428422043"><ele>1090.0</ele><time>2026-04-27T13:49:24Z</time></trkpt><trkpt lat="39.02270678866653" lon="16.279439842085317"><ele>1090.0</ele><time>2026-04-27T13:49:25Z</time></trkpt><trkpt lat="39.022744163151934" lon="16.279536923449886"><ele>1090.0</ele><time>2026-04-27T13:49:26Z</time></trkpt><trkpt lat="39.022778798124946" lon="16.279638888670014"><ele>1090.0</ele><time>2026-04-27T13:49:27Z</time></trkpt><trkpt lat="39.02280707137709" lon="16.279761111379248"><ele>1090.0</ele><time>2026-04-27T13:49:28Z</time></trkpt><trkpt lat="39.02285327115386" lon="16.279860287808383"><ele>1090.0</ele><time>2026-04-27T13:49:29Z</time></trkpt><trkpt lat="39.022914334266865" lon="16.279971332207676"><ele>1092.2</ele><time>2026-04-27T13:49:30Z</time></trkpt><trkpt lat="39.02297623638029" lon="16.280065357894834"><ele>1094.4</ele><time>2026-04-27T13:49:31Z</time></trkpt><trkpt lat="39.023001590848175" lon="16.280153718584128"><ele>1096.6</ele><time>2026-04-27T13:49:32Z</time></trkpt><trkpt lat="39.02296130334259" lon="16.280295833060634"><ele>1098.8</ele><time>2026-04-27T13:49:34Z</time></trkpt><trkpt lat="39.02292804608712" lon="16.280414083502112"><ele>1101.0</ele><time>2026-04-27T13:49:35Z</time></trkpt><trkpt lat="39.02290544091488" lon="16.28053040764486"><ele>1102.6666666666667</ele><time>2026-04-27T13:49:36Z</time></trkpt><trkpt lat="39.02289406208271" lon="16.28065789889169"><ele>1104.3333333333333</ele><time>2026-04-27T13:49:37Z</time></trkpt><trkpt lat="39.0228948492098" lon="16.280781216754765"><ele>1106.0</ele><time>2026-04-27T13:49:38Z</time></trkpt><trkpt lat="39.022881144279545" lon="16.280872541452776"><ele>1107.6666666666665</ele><time>2026-04-27T13:49:39Z</time></trkpt><trkpt lat="39.022854281227914" lon="16.280973593450536"><ele>1109.3333333333333</ele><time>2026-04-27T13:49:40Z</time></trkpt><trkpt lat="39.022782900349945" lon="16.28105259803934"><ele>1111.0</ele><time>2026-04-27T13:49:41Z</time></trkpt><trkpt lat="39.022698199563195" lon="16.28112343739499"><ele>1111.0</ele><time>2026-04-27T13:49:42Z</time></trkpt><trkpt lat="39.02259397166419" lon="16.281195034171382"><ele>1111.0</ele><time>2026-04-27T13:49:43Z</time></trkpt><trkpt lat="39.022502028638065" lon="16.281281079748144"><ele>1111.0</ele><time>2026-04-27T13:49:44Z</time></trkpt><trkpt lat="39.022408585212176" lon="16.281376727116854"><ele>1111.0</ele><time>2026-04-27T13:49:45Z</time></trkpt><trkpt lat="39.02231819712515" lon="16.28145038242343"><ele>1114.0</ele><time>2026-04-27T13:49:46Z</time></trkpt><trkpt lat="39.0222322591939" lon="16.281508606653667"><ele>1117.0</ele><time>2026-04-27T13:49:47Z</time></trkpt><trkpt lat="39.02215000582485" lon="16.281554325666367"><ele>1120.0</ele><time>2026-04-27T13:49:48Z</time></trkpt><trkpt lat="39.022033274784306" lon="16.281536005119353"><ele>1123.0</ele><time>2026-04-27T13:49:49Z</time></trkpt><trkpt lat="39.02192053524865" lon="16.281504621281304"><ele>1126.0</ele><time>2026-04-27T13:49:50Z</time></trkpt><trkpt lat="39.021782393349" lon="16.281467529670785"><ele>1124.3999999999999</ele><time>2026-04-27T13:49:51Z</time></trkpt><trkpt lat="39.02163926044068" lon="16.28143067286162"><ele>1122.8</ele><time>2026-04-27T13:49:52Z</time></trkpt><trkpt lat="39.021521047190745" lon="16.2813908721789"><ele>1121.1999999999998</ele><time>2026-04-27T13:49:53Z</time></trkpt><trkpt lat="39.02143689753738" lon="16.281373971117034"><ele>1119.6</ele><time>2026-04-27T13:49:54Z</time></trkpt><trkpt lat="39.02136414086096" lon="16.281381725722024"><ele>1118.0</ele><time>2026-04-27T13:49:55Z</time></trkpt><trkpt lat="39.02130126196352" lon="16.281419111581293"><ele>1118.1666666666667</ele><time>2026-04-27T13:49:56Z</time></trkpt><trkpt lat="39.02124951366413" lon="16.28148718486118"><ele>1118.3333333333335</ele><time>2026-04-27T13:49:57Z</time></trkpt><trkpt lat="39.021208692916275" lon="16.28156045816557"><ele>1118.5</ele><time>2026-04-27T13:49:58Z</time></trkpt><trkpt lat="39.02118045357012" lon="16.281653551705162"><ele>1118.6666666666667</ele><time>2026-04-27T13:49:59Z</time></trkpt><trkpt lat="39.021186069195196" lon="16.28175174346804"><ele>1118.8333333333333</ele><time>2026-04-27T13:50:00Z</time></trkpt><trkpt lat="39.021212373856926" lon="16.28185921220199"><ele>1119.0</ele><time>2026-04-27T13:50:01Z</time></trkpt><trkpt lat="39.02122070734809" lon="16.28195823876056"><ele>1119.0</ele><time>2026-04-27T13:50:02Z</time></trkpt><trkpt lat="39.021223337155234" lon="16.282048020162577"><ele>1119.0</ele><time>2026-04-27T13:50:03Z</time></trkpt><trkpt lat="39.021194808893966" lon="16.28212489688056"><ele>1119.0</ele><time>2026-04-27T13:50:04Z</time></trkpt><trkpt lat="39.02115253790334" lon="16.282217133162344"><ele>1119.0</ele><time>2026-04-27T13:50:05Z</time></trkpt><trkpt lat="39.02108548253721" lon="16.28230253809416"><ele>1119.0</ele><time>2026-04-27T13:50:06Z</time></trkpt><trkpt lat="39.02097380638191" lon="16.282369097275208"><ele>1119.0</ele><time>2026-04-27T13:50:07Z</time></trkpt><trkpt lat="39.02085581698895" lon="16.28241384273264"><ele>1116.5</ele><time>2026-04-27T13:50:08Z</time></trkpt><trkpt lat="39.020760929960815" lon="16.282468105209883"><ele>1114.0</ele><time>2026-04-27T13:50:09Z</time></trkpt><trkpt lat="39.02068367512733" lon="16.28251934115683"><ele>1111.5</ele><time>2026-04-27T13:50:10Z</time></trkpt><trkpt lat="39.02060670330631" lon="16.28256565670248"><ele>1109.0</ele><time>2026-04-27T13:50:11Z</time></trkpt><trkpt lat="39.02054106056312" lon="16.282626257180052"><ele>1106.5</ele><time>2026-04-27T13:50:12Z</time></trkpt><trkpt lat="39.02047235839843" lon="16.2826853290917"><ele>1104.0</ele><time>2026-04-27T13:50:13Z</time></trkpt><trkpt lat="39.020393838924605" lon="16.282745502030785"><ele>1104.0</ele><time>2026-04-27T13:50:14Z</time></trkpt><trkpt lat="39.02031863149306" lon="16.282802446999842"><ele>1104.0</ele><time>2026-04-27T13:50:15Z</time></trkpt><trkpt lat="39.02025859657614" lon="16.282869247251224"><ele>1104.0</ele><time>2026-04-27T13:50:16Z</time></trkpt><trkpt lat="39.02018667662372" lon="16.28298480239031"><ele>1104.0</ele><time>2026-04-27T13:50:17Z</time></trkpt><trkpt lat="39.020124274348305" lon="16.283097783480507"><ele>1104.0</ele><time>2026-04-27T13:50:18Z</time></trkpt><trkpt lat="39.02007995572821" lon="16.283185348897412"><ele>1106.6000000000001</ele><time>2026-04-27T13:50:19Z</time></trkpt><trkpt lat="39.01997777677363" lon="16.28325517893807"><ele>1109.2</ele><time>2026-04-27T13:50:21Z</time></trkpt><trkpt lat="39.019908925687474" lon="16.28324895732319"><ele>1111.8000000000002</ele><time>2026-04-27T13:50:22Z</time></trkpt><trkpt lat="39.01981692362322" lon="16.283245471391922"><ele>1114.4</ele><time>2026-04-27T13:50:23Z</time></trkpt><trkpt lat="39.019681105320934" lon="16.283257504968514"><ele>1117.0</ele><time>2026-04-27T13:50:24Z</time></trkpt><trkpt lat="39.01956217273053" lon="16.283271523777433"><ele>1117.0</ele><time>2026-04-27T13:50:25Z</time></trkpt><trkpt lat="39.01944907107887" lon="16.28327843150703"><ele>1117.0</ele><time>2026-04-27T13:50:26Z</time></trkpt><trkpt lat="39.01934594961742" lon="16.2832838245022"><ele>1117.0</ele><time>2026-04-27T13:50:27Z</time></trkpt><trkpt lat="39.01922784706379" lon="16.28326177996672"><ele>1117.0</ele><time>2026-04-27T13:50:28Z</time></trkpt><trkpt lat="39.01911332329449" lon="16.283238430446435"><ele>1119.25</ele><time>2026-04-27T13:50:29Z</time></trkpt><trkpt lat="39.01899192634556" lon="16.283220100290578"><ele>1121.5</ele><time>2026-04-27T13:50:30Z</time></trkpt><trkpt lat="39.0188709135349" lon="16.28320785062368"><ele>1123.75</ele><time>2026-04-27T13:50:31Z</time></trkpt><trkpt lat="39.01875273732086" lon="16.283156670475535"><ele>1126.0</ele><time>2026-04-27T13:50:32Z</time></trkpt><trkpt lat="39.01863621163383" lon="16.2830990562891"><ele>1124.8</ele><time>2026-04-27T13:50:33Z</time></trkpt><trkpt lat="39.01852925633967" lon="16.283057771908773"><ele>1123.6</ele><time>2026-04-27T13:50:34Z</time></trkpt><trkpt lat="39.018422217461875" lon="16.283027185045366"><ele>1122.4</ele><time>2026-04-27T13:50:35Z</time></trkpt><trkpt lat="39.01832268224374" lon="16.282982055532354"><ele>1121.2</ele><time>2026-04-27T13:50:36Z</time></trkpt><trkpt lat="39.01823189679843" lon="16.282907600912893"><ele>1120.0</ele><time>2026-04-27T13:50:37Z</time></trkpt><trkpt lat="39.01814815737556" lon="16.28283534189558"><ele>1120.0</ele><time>2026-04-27T13:50:38Z</time></trkpt><trkpt lat="39.01806317192922" lon="16.282791061708657"><ele>1120.0</ele><time>2026-04-27T13:50:39Z</time></trkpt><trkpt lat="39.017951222926655" lon="16.28276395158447"><ele>1120.0</ele><time>2026-04-27T13:50:40Z</time></trkpt><trkpt lat="39.017821871547795" lon="16.282742844663975"><ele>1120.0</ele><time>2026-04-27T13:50:41Z</time></trkpt><trkpt lat="39.0177286283756" lon="16.282727800391154"><ele>1120.0</ele><time>2026-04-27T13:50:42Z</time></trkpt><trkpt lat="39.01763899441423" lon="16.282719423099092"><ele>1120.0</ele><time>2026-04-27T13:50:43Z</time></trkpt><trkpt lat="39.017559990169104" lon="16.28273562397822"><ele>1120.0</ele><time>2026-04-27T13:50:44Z</time></trkpt><trkpt lat="39.01745489056181" lon="16.282765481771293"><ele>1120.0</ele><time>2026-04-27T13:50:45Z</time></trkpt><trkpt lat="39.0173546766383" lon="16.282786367350248"><ele>1120.0</ele><time>2026-04-27T13:50:46Z</time></trkpt><trkpt lat="39.01723907185653" lon="16.2827897848045"><ele>1120.0</ele><time>2026-04-27T13:50:47Z</time></trkpt><trkpt lat="39.017096608487144" lon="16.282801414016596"><ele>1118.5</ele><time>2026-04-27T13:50:48Z</time></trkpt><trkpt lat="39.01693664888057" lon="16.28280794535122"><ele>1117.0</ele><time>2026-04-27T13:50:49Z</time></trkpt><trkpt lat="39.01680309656172" lon="16.282815061378134"><ele>1115.5</ele><time>2026-04-27T13:50:50Z</time></trkpt><trkpt lat="39.01667394971123" lon="16.282843501340007"><ele>1114.0</ele><time>2026-04-27T13:50:51Z</time></trkpt><trkpt lat="39.01655411601037" lon="16.2828824726184"><ele>1112.0</ele><time>2026-04-27T13:50:51.999Z</time></trkpt><trkpt lat="39.01643616606187" lon="16.282914131604063"><ele>1110.0</ele><time>2026-04-27T13:50:52.999Z</time></trkpt><trkpt lat="39.01629402798065" lon="16.282918268726075"><ele>1108.0</ele><time>2026-04-27T13:50:53.999Z</time></trkpt><trkpt lat="39.016134949423815" lon="16.282912577227403"><ele>1106.0</ele><time>2026-04-27T13:50:54.999Z</time></trkpt><trkpt lat="39.016005682316845" lon="16.282921899437103"><ele>1106.0</ele><time>2026-04-27T13:50:55.999Z</time></trkpt><trkpt lat="39.0158922622337" lon="16.282927347201955"><ele>1106.0</ele><time>2026-04-27T13:50:56.999Z</time></trkpt><trkpt lat="39.01579921270484" lon="16.28293676525779"><ele>1106.0</ele><time>2026-04-27T13:50:57.999Z</time></trkpt><trkpt lat="39.01572417421172" lon="16.282932726158496"><ele>1106.0</ele><time>2026-04-27T13:50:58.999Z</time></trkpt><trkpt lat="39.01571707370823" lon="16.28307099021878"><ele>1106.0</ele><time>2026-04-27T13:51:17Z</time></trkpt><trkpt lat="39.01572336971257" lon="16.28318241112021"><ele>1105.0</ele><time>2026-04-27T13:51:18Z</time></trkpt><trkpt lat="39.015742328635156" lon="16.283292509691922"><ele>1104.0</ele><time>2026-04-27T13:51:19Z</time></trkpt><trkpt lat="39.015766681482376" lon="16.28339769690819"><ele>1103.0</ele><time>2026-04-27T13:51:20Z</time></trkpt><trkpt lat="39.015774390997535" lon="16.28350873188763"><ele>1102.0</ele><time>2026-04-27T13:51:22Z</time></trkpt><trkpt lat="39.01578702599577" lon="16.283603444697214"><ele>1101.0</ele><time>2026-04-27T13:51:24Z</time></trkpt><trkpt lat="39.01580038023518" lon="16.283746587729464"><ele>1100.0</ele><time>2026-04-27T13:51:26Z</time></trkpt><trkpt lat="39.01583960846853" lon="16.283849973963424"><ele>1103.0</ele><time>2026-04-27T13:51:28Z</time></trkpt><trkpt lat="39.015923291988365" lon="16.283903560747486"><ele>1106.0</ele><time>2026-04-27T13:51:30Z</time></trkpt><trkpt lat="39.0160193855497" lon="16.283946645374925"><ele>1109.0</ele><time>2026-04-27T13:51:32Z</time></trkpt><trkpt lat="39.01615360990629" lon="16.2840005380159"><ele>1112.0</ele><time>2026-04-27T13:51:34Z</time></trkpt><trkpt lat="39.0162257531313" lon="16.284025711955763"><ele>1115.0</ele><time>2026-04-27T13:51:35Z</time></trkpt><trkpt lat="39.016330853608096" lon="16.284073614958334"><ele>1115.0</ele><time>2026-04-27T13:51:37Z</time></trkpt><trkpt lat="39.01619910726982" lon="16.283992671643688"><ele>1115.0</ele><time>2026-04-27T13:52:00Z</time></trkpt><trkpt lat="39.016093672791676" lon="16.283950154485836"><ele>1115.0</ele><time>2026-04-27T13:52:01Z</time></trkpt><trkpt lat="39.01600316075242" lon="16.28391368852963"><ele>1115.0</ele><time>2026-04-27T13:52:02Z</time></trkpt><trkpt lat="39.01591765662821" lon="16.283863111024726"><ele>1115.0</ele><time>2026-04-27T13:52:04Z</time></trkpt><trkpt lat="39.01585708042497" lon="16.28376497677852"><ele>1115.0</ele><time>2026-04-27T13:52:06Z</time></trkpt><trkpt lat="39.01584202660799" lon="16.283644872967105"><ele>1115.0</ele><time>2026-04-27T13:52:08Z</time></trkpt><trkpt lat="39.015831105352426" lon="16.283555466618196"><ele>1115.0</ele><time>2026-04-27T13:52:09Z</time></trkpt><trkpt lat="39.01582183751729" lon="16.283457174293037"><ele>1115.0</ele><time>2026-04-27T13:52:10Z</time></trkpt><trkpt lat="39.015814457922794" lon="16.283339056963307"><ele>1115.0</ele><time>2026-04-27T13:52:11Z</time></trkpt><trkpt lat="39.01580130214672" lon="16.283219962212808"><ele>1115.0</ele><time>2026-04-27T13:52:12Z</time></trkpt><trkpt lat="39.01578801966212" lon="16.283129901415013"><ele>1112.1666666666667</ele><time>2026-04-27T13:52:13Z</time></trkpt><trkpt lat="39.01577310790668" lon="16.283048801303735"><ele>1109.3333333333335</ele><time>2026-04-27T13:52:14Z</time></trkpt><trkpt lat="39.015740760867196" lon="16.28295055336211"><ele>1106.5</ele><time>2026-04-27T13:52:16Z</time></trkpt><trkpt lat="39.01563673608736" lon="16.28291424630854"><ele>1103.6666666666667</ele><time>2026-04-27T13:52:18Z</time></trkpt><trkpt lat="39.01555823459559" lon="16.28294646355331"><ele>1100.8333333333333</ele><time>2026-04-27T13:52:19Z</time></trkpt><trkpt lat="39.015470353412546" lon="16.282977622463985"><ele>1098.0</ele><time>2026-04-27T13:52:20Z</time></trkpt><trkpt lat="39.01539131960954" lon="16.28301655179421"><ele>1098.0</ele><time>2026-04-27T13:52:21Z</time></trkpt><trkpt lat="39.015315702389934" lon="16.28302858969871"><ele>1098.0</ele><time>2026-04-27T13:52:22Z</time></trkpt><trkpt lat="39.01523983398361" lon="16.28301785783527"><ele>1098.0</ele><time>2026-04-27T13:52:23Z</time></trkpt><trkpt lat="39.01515770397372" lon="16.283020378070844"><ele>1098.0</ele><time>2026-04-27T13:52:24Z</time></trkpt><trkpt lat="39.01507669671819" lon="16.28307871948444"><ele>1098.0</ele><time>2026-04-27T13:52:25Z</time></trkpt><trkpt lat="39.01500798557069" lon="16.283157795931633"><ele>1098.0</ele><time>2026-04-27T13:52:26Z</time></trkpt><trkpt lat="39.014945540681566" lon="16.283219265913797"><ele>1093.6666666666667</ele><time>2026-04-27T13:52:27Z</time></trkpt><trkpt lat="39.01489975054478" lon="16.283291148919005"><ele>1089.3333333333333</ele><time>2026-04-27T13:52:28Z</time></trkpt><trkpt lat="39.014863769696554" lon="16.283363323097824"><ele>1085.0</ele><time>2026-04-27T13:52:29Z</time></trkpt><trkpt lat="39.014825012652985" lon="16.283450986160712"><ele>1080.6666666666665</ele><time>2026-04-27T13:52:30Z</time></trkpt><trkpt lat="39.0147870543106" lon="16.283555399843628"><ele>1076.3333333333333</ele><time>2026-04-27T13:52:31Z</time></trkpt><trkpt lat="39.01475958788201" lon="16.28366054020395"><ele>1072.0</ele><time>2026-04-27T13:52:32Z</time></trkpt><trkpt lat="39.01473711673532" lon="16.28378106916282"><ele>1072.0</ele><time>2026-04-27T13:52:33Z</time></trkpt><trkpt lat="39.014715330868015" lon="16.28391513624247"><ele>1072.0</ele><time>2026-04-27T13:52:34Z</time></trkpt><trkpt lat="39.01469802974883" lon="16.28404561696011"><ele>1072.0</ele><time>2026-04-27T13:52:35Z</time></trkpt><trkpt lat="39.014665382301764" lon="16.284179558184864"><ele>1072.0</ele><time>2026-04-27T13:52:36Z</time></trkpt><trkpt lat="39.01463057979072" lon="16.284307179788854"><ele>1072.0</ele><time>2026-04-27T13:52:37Z</time></trkpt><trkpt lat="39.014600105076816" lon="16.284445372678558"><ele>1072.5</ele><time>2026-04-27T13:52:38Z</time></trkpt><trkpt lat="39.01455922780776" lon="16.284549205794217"><ele>1073.0</ele><time>2026-04-27T13:52:39Z</time></trkpt><trkpt lat="39.01454165092348" lon="16.284628333429406"><ele>1073.5</ele><time>2026-04-27T13:52:40Z</time></trkpt><trkpt lat="39.014488716333545" lon="16.28475972734984"><ele>1074.0</ele><time>2026-04-27T13:52:42Z</time></trkpt><trkpt lat="39.01443449194554" lon="16.284821103493147"><ele>1074.5</ele><time>2026-04-27T13:52:43Z</time></trkpt><trkpt lat="39.014376900891264" lon="16.284864108077024"><ele>1075.0</ele><time>2026-04-27T13:52:44Z</time></trkpt><trkpt lat="39.01426184967391" lon="16.284888208452887"><ele>1075.2</ele><time>2026-04-27T13:52:46Z</time></trkpt><trkpt lat="39.01417091681013" lon="16.284853076946764"><ele>1075.4</ele><time>2026-04-27T13:52:47Z</time></trkpt><trkpt lat="39.01406980604139" lon="16.284808177122418"><ele>1075.6</ele><time>2026-04-27T13:52:48Z</time></trkpt><trkpt lat="39.01395847162043" lon="16.284760609886753"><ele>1075.8</ele><time>2026-04-27T13:52:49Z</time></trkpt><trkpt lat="39.0138418477281" lon="16.28474083915793"><ele>1076.0</ele><time>2026-04-27T13:52:50Z</time></trkpt><trkpt lat="39.013707593019824" lon="16.284739282714803"><ele>1076.2</ele><time>2026-04-27T13:52:51Z</time></trkpt><trkpt lat="39.01358491504018" lon="16.28472475911269"><ele>1076.3999999999999</ele><time>2026-04-27T13:52:52Z</time></trkpt><trkpt lat="39.01348823108836" lon="16.284709415859236"><ele>1076.6</ele><time>2026-04-27T13:52:53Z</time></trkpt><trkpt lat="39.013400495045204" lon="16.28470553188122"><ele>1076.8</ele><time>2026-04-27T13:52:54Z</time></trkpt><trkpt lat="39.01331384655419" lon="16.284704383835134"><ele>1077.0</ele><time>2026-04-27T13:52:55Z</time></trkpt><trkpt lat="39.013239647530014" lon="16.28469167640444"><ele>1077.0</ele><time>2026-04-27T13:52:55.999Z</time></trkpt><trkpt lat="39.01316394261841" lon="16.284689655952466"><ele>1077.0</ele><time>2026-04-27T13:52:56.999Z</time></trkpt><trkpt lat="39.01309249526829" lon="16.284685120363385"><ele>1077.0</ele><time>2026-04-27T13:52:57.999Z</time></trkpt><trkpt lat="39.01302891800485" lon="16.28469981131641"><ele>1077.0</ele><time>2026-04-27T13:52:58.999Z</time></trkpt><trkpt lat="39.012963872338496" lon="16.284725173043693"><ele>1077.0</ele><time>2026-04-27T13:52:59.999Z</time></trkpt><trkpt lat="39.01289240732882" lon="16.284762961282677"><ele>1077.0</ele><time>2026-04-27T13:53:00.999Z</time></trkpt><trkpt lat="39.01282377272225" lon="16.284841520522697"><ele>1077.0</ele><time>2026-04-27T13:53:01.999Z</time></trkpt><trkpt lat="39.01273157534175" lon="16.28491329138974"><ele>1073.2</ele><time>2026-04-27T13:53:02.999Z</time></trkpt><trkpt lat="39.01263102923706" lon="16.284967663044217"><ele>1069.4</ele><time>2026-04-27T13:53:03.999Z</time></trkpt><trkpt lat="39.01253826267979" lon="16.28501647138085"><ele>1065.6</ele><time>2026-04-27T13:53:04.999Z</time></trkpt><trkpt lat="39.01244077843324" lon="16.285054852336245"><ele>1061.8</ele><time>2026-04-27T13:53:06Z</time></trkpt><trkpt lat="39.012340345906104" lon="16.285090922412145"><ele>1058.0</ele><time>2026-04-27T13:53:07Z</time></trkpt><trkpt lat="39.01223824041899" lon="16.285117635534164"><ele>1055.8</ele><time>2026-04-27T13:53:08Z</time></trkpt><trkpt lat="39.012142263353105" lon="16.28515783221848"><ele>1053.6</ele><time>2026-04-27T13:53:09Z</time></trkpt><trkpt lat="39.01205473914565" lon="16.28520173242458"><ele>1051.4</ele><time>2026-04-27T13:53:10Z</time></trkpt><trkpt lat="39.01196042632745" lon="16.285238908500727"><ele>1049.2</ele><time>2026-04-27T13:53:11Z</time></trkpt><trkpt lat="39.01186512888825" lon="16.28525588223775"><ele>1047.0</ele><time>2026-04-27T13:53:12Z</time></trkpt><trkpt lat="39.01179986855696" lon="16.285278319663053"><ele>1047.0</ele><time>2026-04-27T13:53:13Z</time></trkpt><trkpt lat="39.011726718368855" lon="16.285288164205827"><ele>1047.0</ele><time>2026-04-27T13:53:14Z</time></trkpt><trkpt lat="39.011645219343144" lon="16.285289719572507"><ele>1047.0</ele><time>2026-04-27T13:53:15Z</time></trkpt><trkpt lat="39.01155791140201" lon="16.285273278001867"><ele>1047.0</ele><time>2026-04-27T13:53:16Z</time></trkpt><trkpt lat="39.011459999190784" lon="16.285244472818118"><ele>1047.0</ele><time>2026-04-27T13:53:17Z</time></trkpt><trkpt lat="39.01132318331319" lon="16.285176318791336"><ele>1045.5</ele><time>2026-04-27T13:53:18Z</time></trkpt><trkpt lat="39.01117977708616" lon="16.285115343814873"><ele>1044.0</ele><time>2026-04-27T13:53:19Z</time></trkpt><trkpt lat="39.01106404585755" lon="16.285087327585256"><ele>1042.5</ele><time>2026-04-27T13:53:20Z</time></trkpt><trkpt lat="39.010938424181305" lon="16.285101087901722"><ele>1041.0</ele><time>2026-04-27T13:53:21Z</time></trkpt><trkpt lat="39.010819446687066" lon="16.285126528613223"><ele>1041.0</ele><time>2026-04-27T13:53:22Z</time></trkpt><trkpt lat="39.01067505331672" lon="16.285129640448364"><ele>1041.0</ele><time>2026-04-27T13:53:23Z</time></trkpt><trkpt lat="39.010515868621745" lon="16.285155820631257"><ele>1041.0</ele><time>2026-04-27T13:53:24Z</time></trkpt><trkpt lat="39.01035464605385" lon="16.285185442900527"><ele>1041.0</ele><time>2026-04-27T13:53:25Z</time></trkpt><trkpt lat="39.01020849259723" lon="16.285213514036954"><ele>1041.0</ele><time>2026-04-27T13:53:26Z</time></trkpt><trkpt lat="39.01008962852988" lon="16.285225991753695"><ele>1041.0</ele><time>2026-04-27T13:53:27Z</time></trkpt><trkpt lat="39.010012961593695" lon="16.285251689561857"><ele>1041.0</ele><time>2026-04-27T13:53:28Z</time></trkpt><trkpt lat="39.00995686120236" lon="16.285315112326586"><ele>1041.0</ele><time>2026-04-27T13:53:30Z</time></trkpt><trkpt lat="39.00994332485162" lon="16.285468707247972"><ele>1041.6666666666667</ele><time>2026-04-27T13:53:32Z</time></trkpt><trkpt lat="39.009922624557085" lon="16.285557416075946"><ele>1042.3333333333333</ele><time>2026-04-27T13:53:33Z</time></trkpt><trkpt lat="39.00983228710138" lon="16.28563204777389"><ele>1043.0</ele><time>2026-04-27T13:53:35Z</time></trkpt><trkpt lat="39.00984722852869" lon="16.285740644489827"><ele>1043.6666666666665</ele><time>2026-04-27T13:53:38Z</time></trkpt><trkpt lat="39.009910744827394" lon="16.28572105341052"><ele>1044.3333333333333</ele><time>2026-04-27T13:53:41Z</time></trkpt><trkpt lat="39.00997684930151" lon="16.285711965254"><ele>1045.0</ele><time>2026-04-27T13:53:43Z</time></trkpt><trkpt lat="39.01034349389296" lon="16.28592023806777"><ele>1041.0</ele><time>2026-04-27T13:53:46Z</time></trkpt><trkpt lat="39.01044678538183" lon="16.285945282019334"><ele>1037.0</ele><time>2026-04-27T13:53:48Z</time></trkpt><trkpt lat="39.01038717952987" lon="16.28601489836815"><ele>1033.0</ele><time>2026-04-27T13:53:52Z</time></trkpt><trkpt lat="39.01031580085889" lon="16.286083431990267"><ele>1029.0</ele><time>2026-04-27T13:53:54Z</time></trkpt><trkpt lat="39.010225513939545" lon="16.28612783052916"><ele>1025.0</ele><time>2026-04-27T13:53:55Z</time></trkpt><trkpt lat="39.01013696762093" lon="16.28619748620004"><ele>1025.0</ele><time>2026-04-27T13:53:56Z</time></trkpt><trkpt lat="39.01004073963695" lon="16.286275012822145"><ele>1025.0</ele><time>2026-04-27T13:53:57Z</time></trkpt><trkpt lat="39.009951658461326" lon="16.286322827241126"><ele>1025.0</ele><time>2026-04-27T13:53:58Z</time></trkpt><trkpt lat="39.00987755158424" lon="16.286359080950994"><ele>1025.0</ele><time>2026-04-27T13:53:59Z</time></trkpt><trkpt lat="39.009830223043714" lon="16.28641539329378"><ele>1025.0</ele><time>2026-04-27T13:54:00Z</time></trkpt><trkpt lat="39.00993389851666" lon="16.286521541794038"><ele>1019.8</ele><time>2026-04-27T13:54:02Z</time></trkpt><trkpt lat="39.01000054006619" lon="16.286544285004517"><ele>1014.6</ele><time>2026-04-27T13:54:03Z</time></trkpt><trkpt lat="39.010088653709154" lon="16.28656739037972"><ele>1009.4000000000001</ele><time>2026-04-27T13:54:04Z</time></trkpt><trkpt lat="39.01021777748508" lon="16.28657444699737"><ele>1004.2</ele><time>2026-04-27T13:54:06Z</time></trkpt><trkpt lat="39.01031698496231" lon="16.286566471943285"><ele>999.0</ele><time>2026-04-27T13:54:08Z</time></trkpt><trkpt lat="39.010386109845804" lon="16.286610988308315"><ele>999.0</ele><time>2026-04-27T13:54:11Z</time></trkpt><trkpt lat="39.0103194565657" lon="16.286750358170213"><ele>999.0000000000001</ele><time>2026-04-27T13:54:13Z</time></trkpt><trkpt lat="39.01028421264904" lon="16.286846230465603"><ele>999.0000000000001</ele><time>2026-04-27T13:54:14Z</time></trkpt><trkpt lat="39.01025552607999" lon="16.28695953759553"><ele>999.0</ele><time>2026-04-27T13:54:15Z</time></trkpt><trkpt lat="39.01021753322818" lon="16.287073212025934"><ele>999.0</ele><time>2026-04-27T13:54:16Z</time></trkpt><trkpt lat="39.010155282048515" lon="16.28715019940487"><ele>999.0</ele><time>2026-04-27T13:54:17Z</time></trkpt><trkpt lat="39.01009119183949" lon="16.28720535160163"><ele>999.0000000000001</ele><time>2026-04-27T13:54:18Z</time></trkpt><trkpt lat="39.01000271422837" lon="16.287224693427817"><ele>999.0000000000001</ele><time>2026-04-27T13:54:19Z</time></trkpt><trkpt lat="39.00990798176516" lon="16.287255302946352"><ele>999.0</ele><time>2026-04-27T13:54:20Z</time></trkpt><trkpt lat="39.00985436910872" lon="16.287321041622377"><ele>999.0</ele><time>2026-04-27T13:54:22Z</time></trkpt><trkpt lat="39.00994010700062" lon="16.287476422492755"><ele>995.0</ele><time>2026-04-27T13:54:24Z</time></trkpt><trkpt lat="39.01001997574318" lon="16.287512426064396"><ele>991.0</ele><time>2026-04-27T13:54:25Z</time></trkpt><trkpt lat="39.01009802040948" lon="16.287534069443875"><ele>987.0</ele><time>2026-04-27T13:54:26Z</time></trkpt><trkpt lat="39.010184820170956" lon="16.28752855969358"><ele>983.0</ele><time>2026-04-27T13:54:27Z</time></trkpt><trkpt lat="39.01027749689081" lon="16.287610718629875"><ele>979.0</ele><time>2026-04-27T13:54:29Z</time></trkpt><trkpt lat="39.01026565696777" lon="16.287698870425256"><ele>975.0</ele><time>2026-04-27T13:54:31Z</time></trkpt><trkpt lat="39.01020036166015" lon="16.28777353423683"><ele>975.0</ele><time>2026-04-27T13:54:32Z</time></trkpt><trkpt lat="39.010137696874594" lon="16.287821115807542"><ele>975.0</ele><time>2026-04-27T13:54:33Z</time></trkpt><trkpt lat="39.01010146928892" lon="16.28793276988704"><ele>975.0</ele><time>2026-04-27T13:54:35Z</time></trkpt><trkpt lat="39.01016020480205" lon="16.28808996396084"><ele>975.0</ele><time>2026-04-27T13:54:37Z</time></trkpt><trkpt lat="39.01025031427907" lon="16.288208483235117"><ele>975.0</ele><time>2026-04-27T13:54:38Z</time></trkpt><trkpt lat="39.01030011040934" lon="16.288297272796893"><ele>971.2</ele><time>2026-04-27T13:54:39Z</time></trkpt><trkpt lat="39.010349692720304" lon="16.288457995011488"><ele>967.4</ele><time>2026-04-27T13:54:41Z</time></trkpt><trkpt lat="39.010435297535416" lon="16.288557085325476"><ele>963.5999999999999</ele><time>2026-04-27T13:54:43Z</time></trkpt><trkpt lat="39.010533179248895" lon="16.288536901861466"><ele>959.8</ele><time>2026-04-27T13:54:44Z</time></trkpt><trkpt lat="39.01063084969784" lon="16.288540722629257"><ele>956.0</ele><time>2026-04-27T13:54:45Z</time></trkpt><trkpt lat="39.01070151960679" lon="16.288545172490462"><ele>956.0</ele><time>2026-04-27T13:54:46Z</time></trkpt><trkpt lat="39.010765196424295" lon="16.28855034398444"><ele>955.9999999999999</ele><time>2026-04-27T13:54:47Z</time></trkpt><trkpt lat="39.01085125497536" lon="16.28859311799448"><ele>955.9999999999999</ele><time>2026-04-27T13:54:49Z</time></trkpt><trkpt lat="39.01087534099581" lon="16.2887025623334"><ele>956.0</ele><time>2026-04-27T13:54:51Z</time></trkpt><trkpt lat="39.01073938349639" lon="16.288869887049096"><ele>956.0</ele><time>2026-04-27T13:54:52Z</time></trkpt><trkpt lat="39.01060304369767" lon="16.28893571900792"><ele>950.8</ele><time>2026-04-27T13:54:57Z</time></trkpt><trkpt lat="39.01050785355176" lon="16.28898845914625"><ele>945.5999999999999</ele><time>2026-04-27T13:54:58Z</time></trkpt><trkpt lat="39.01040774083953" lon="16.28903987220514"><ele>940.4</ele><time>2026-04-27T13:54:59Z</time></trkpt><trkpt lat="39.01029937413399" lon="16.289094358193665"><ele>935.2</ele><time>2026-04-27T13:55:00Z</time></trkpt><trkpt lat="39.01018749044123" lon="16.289147598045687"><ele>930.0</ele><time>2026-04-27T13:55:01Z</time></trkpt><trkpt lat="39.01007413357659" lon="16.289197059377113"><ele>933.5</ele><time>2026-04-27T13:55:01.999Z</time></trkpt><trkpt lat="39.009962793467686" lon="16.289253279211152"><ele>937.0</ele><time>2026-04-27T13:55:02.999Z</time></trkpt><trkpt lat="39.0098494804644" lon="16.28932154424092"><ele>940.5</ele><time>2026-04-27T13:55:03.999Z</time></trkpt><trkpt lat="39.009743384726484" lon="16.289394321984723"><ele>944.0</ele><time>2026-04-27T13:55:04.999Z</time></trkpt><trkpt lat="39.009635263788255" lon="16.28943968837858"><ele>944.0</ele><time>2026-04-27T13:55:05.999Z</time></trkpt><trkpt lat="39.00953211974787" lon="16.289474259445523"><ele>944.0000000000001</ele><time>2026-04-27T13:55:06.999Z</time></trkpt><trkpt lat="39.00942777546207" lon="16.289428442327193"><ele>944.0000000000001</ele><time>2026-04-27T13:55:07.999Z</time></trkpt><trkpt lat="39.00931088851836" lon="16.289425750533198"><ele>944.0</ele><time>2026-04-27T13:55:08.999Z</time></trkpt><trkpt lat="39.00920349193568" lon="16.289424039481275"><ele>944.0</ele><time>2026-04-27T13:55:09.999Z</time></trkpt><trkpt lat="39.009096201012575" lon="16.289439030306372"><ele>947.8000000000001</ele><time>2026-04-27T13:55:10.999Z</time></trkpt><trkpt lat="39.00898831885236" lon="16.289442355395142"><ele>951.6000000000001</ele><time>2026-04-27T13:55:12Z</time></trkpt><trkpt lat="39.00888885459241" lon="16.289493334681683"><ele>955.4</ele><time>2026-04-27T13:55:13Z</time></trkpt><trkpt lat="39.00880180067711" lon="16.289588580749353"><ele>959.2</ele><time>2026-04-27T13:55:14Z</time></trkpt><trkpt lat="39.0087161010973" lon="16.289694638209827"><ele>963.0</ele><time>2026-04-27T13:55:15Z</time></trkpt><trkpt lat="39.00863118330945" lon="16.289780067165065"><ele>957.5</ele><time>2026-04-27T13:55:16Z</time></trkpt><trkpt lat="39.00855388918265" lon="16.289854928452694"><ele>952.0</ele><time>2026-04-27T13:55:17Z</time></trkpt><trkpt lat="39.008446511008785" lon="16.289901035307345"><ele>946.5</ele><time>2026-04-27T13:55:18Z</time></trkpt><trkpt lat="39.008314052804955" lon="16.28993099006727"><ele>941.0</ele><time>2026-04-27T13:55:19Z</time></trkpt><trkpt lat="39.00817851407951" lon="16.289987366892305"><ele>941.0</ele><time>2026-04-27T13:55:20Z</time></trkpt><trkpt lat="39.008054845084324" lon="16.290042487495402"><ele>941.0</ele><time>2026-04-27T13:55:21Z</time></trkpt><trkpt lat="39.0079180995619" lon="16.290102998392808"><ele>941.0</ele><time>2026-04-27T13:55:22Z</time></trkpt><trkpt lat="39.00780254271268" lon="16.29020178097625"><ele>941.0</ele><time>2026-04-27T13:55:23Z</time></trkpt><trkpt lat="39.0077245379373" lon="16.290349915481862"><ele>941.0</ele><time>2026-04-27T13:55:24Z</time></trkpt><trkpt lat="39.00765724079374" lon="16.290510422646747"><ele>941.0</ele><time>2026-04-27T13:55:25Z</time></trkpt><trkpt lat="39.00759415210615" lon="16.29067315942331"><ele>941.0</ele><time>2026-04-27T13:55:26Z</time></trkpt><trkpt lat="39.0075367428641" lon="16.29081433708774"><ele>941.0</ele><time>2026-04-27T13:55:27Z</time></trkpt><trkpt lat="39.00748113163187" lon="16.290948669006468"><ele>939.5</ele><time>2026-04-27T13:55:28Z</time></trkpt><trkpt lat="39.00742539521014" lon="16.291086976007605"><ele>938.0</ele><time>2026-04-27T13:55:29Z</time></trkpt><trkpt lat="39.00737573295188" lon="16.291217610856375"><ele>936.5</ele><time>2026-04-27T13:55:30Z</time></trkpt><trkpt lat="39.0073426789428" lon="16.291357979015284"><ele>935.0</ele><time>2026-04-27T13:55:31Z</time></trkpt><trkpt lat="39.00729621137149" lon="16.29148433220651"><ele>935.0</ele><time>2026-04-27T13:55:32Z</time></trkpt><trkpt lat="39.0072843861885" lon="16.29163058053673"><ele>935.0</ele><time>2026-04-27T13:55:33Z</time></trkpt><trkpt lat="39.00730844648091" lon="16.29177178663602"><ele>935.0</ele><time>2026-04-27T13:55:34Z</time></trkpt><trkpt lat="39.007317258846385" lon="16.29190915742359"><ele>935.0</ele><time>2026-04-27T13:55:35Z</time></trkpt><trkpt lat="39.00731583144957" lon="16.292041044775786"><ele>935.0</ele><time>2026-04-27T13:55:36Z</time></trkpt><trkpt lat="39.00728323697511" lon="16.2921433310306"><ele>935.0</ele><time>2026-04-27T13:55:37Z</time></trkpt><trkpt lat="39.00726106977331" lon="16.292252585627736"><ele>935.0</ele><time>2026-04-27T13:55:38Z</time></trkpt><trkpt lat="39.007184977974894" lon="16.29234493463893"><ele>935.0</ele><time>2026-04-27T13:55:39Z</time></trkpt><trkpt lat="39.007114356688916" lon="16.292440836909435"><ele>935.0</ele><time>2026-04-27T13:55:40Z</time></trkpt><trkpt lat="39.00705561274889" lon="16.292553054778775"><ele>935.0</ele><time>2026-04-27T13:55:41Z</time></trkpt><trkpt lat="39.00700060098511" lon="16.292636023951523"><ele>930.8333333333334</ele><time>2026-04-27T13:55:42Z</time></trkpt><trkpt lat="39.00695362454648" lon="16.292724568087845"><ele>926.6666666666667</ele><time>2026-04-27T13:55:44Z</time></trkpt><trkpt lat="39.0069199525213" lon="16.292802855459772"><ele>922.5</ele><time>2026-04-27T13:55:47Z</time></trkpt><trkpt lat="39.00695324649045" lon="16.29289834940187"><ele>918.3333333333333</ele><time>2026-04-27T13:56:28Z</time></trkpt><trkpt lat="39.006906688523074" lon="16.29296880309893"><ele>914.1666666666666</ele><time>2026-04-27T13:56:29Z</time></trkpt><trkpt lat="39.00682623945855" lon="16.293017053726604"><ele>910.0</ele><time>2026-04-27T13:56:30Z</time></trkpt><trkpt lat="39.006737465521105" lon="16.29300776253946"><ele>910.0</ele><time>2026-04-27T13:56:31Z</time></trkpt><trkpt lat="39.0066656958978" lon="16.29302536175848"><ele>910.0</ele><time>2026-04-27T13:56:32Z</time></trkpt><trkpt lat="39.00658342858711" lon="16.293036460702087"><ele>910.0</ele><time>2026-04-27T13:56:33Z</time></trkpt><trkpt lat="39.00649337583081" lon="16.293053479413636"><ele>910.0</ele><time>2026-04-27T13:56:34Z</time></trkpt><trkpt lat="39.00639275762499" lon="16.293086554937773"><ele>910.0</ele><time>2026-04-27T13:56:35Z</time></trkpt><trkpt lat="39.006285995987106" lon="16.293122150069973"><ele>905.8</ele><time>2026-04-27T13:56:36Z</time></trkpt><trkpt lat="39.00618184476993" lon="16.29315684917829"><ele>901.6</ele><time>2026-04-27T13:56:37Z</time></trkpt><trkpt lat="39.00608135665395" lon="16.293190329279756"><ele>897.4000000000001</ele><time>2026-04-27T13:56:38Z</time></trkpt><trkpt lat="39.0059859945125" lon="16.2932226698796"><ele>893.2</ele><time>2026-04-27T13:56:39Z</time></trkpt><trkpt lat="39.00588584454334" lon="16.29326203012432"><ele>889.0</ele><time>2026-04-27T13:56:40Z</time></trkpt><trkpt lat="39.00579116468898" lon="16.29329921661073"><ele>889.0</ele><time>2026-04-27T13:56:41Z</time></trkpt><trkpt lat="39.005689726418304" lon="16.29333755031227"><ele>889.0000000000001</ele><time>2026-04-27T13:56:42Z</time></trkpt><trkpt lat="39.0055968239041" lon="16.29342666721541"><ele>889.0000000000001</ele><time>2026-04-27T13:56:43Z</time></trkpt><trkpt lat="39.00554880465649" lon="16.29355496745407"><ele>889.0</ele><time>2026-04-27T13:56:44Z</time></trkpt><trkpt lat="39.005483112204146" lon="16.29363458774267"><ele>889.0</ele><time>2026-04-27T13:56:45Z</time></trkpt><trkpt lat="39.00540602540152" lon="16.29368111588852"><ele>889.0</ele><time>2026-04-27T13:56:46Z</time></trkpt><trkpt lat="39.005318354904354" lon="16.29372332109054"><ele>889.0000000000001</ele><time>2026-04-27T13:56:47Z</time></trkpt><trkpt lat="39.00522046054392" lon="16.293773745664037"><ele>889.0000000000001</ele><time>2026-04-27T13:56:48Z</time></trkpt><trkpt lat="39.005123142625486" lon="16.29383292494199"><ele>889.0</ele><time>2026-04-27T13:56:49Z</time></trkpt><trkpt lat="39.00502437923881" lon="16.293882508805773"><ele>889.0</ele><time>2026-04-27T13:56:50Z</time></trkpt><trkpt lat="39.00492065945749" lon="16.29391152622898"><ele>881.5</ele><time>2026-04-27T13:56:51Z</time></trkpt><trkpt lat="39.00481298705099" lon="16.29393582876614"><ele>874.0</ele><time>2026-04-27T13:56:52Z</time></trkpt><trkpt lat="39.00470095962395" lon="16.293959775979694"><ele>866.5</ele><time>2026-04-27T13:56:53Z</time></trkpt><trkpt lat="39.004588978946025" lon="16.29399098262198"><ele>859.0</ele><time>2026-04-27T13:56:54Z</time></trkpt><trkpt lat="39.00447001155071" lon="16.29402993939749"><ele>859.0</ele><time>2026-04-27T13:56:55Z</time></trkpt><trkpt lat="39.00436033797039" lon="16.294065852838685"><ele>859.0</ele><time>2026-04-27T13:56:56Z</time></trkpt><trkpt lat="39.00424474122874" lon="16.29410554692056"><ele>859.0</ele><time>2026-04-27T13:56:57Z</time></trkpt><trkpt lat="39.004129325106625" lon="16.294152169085663"><ele>859.0</ele><time>2026-04-27T13:56:58Z</time></trkpt><trkpt lat="39.003998477295504" lon="16.294224254987153"><ele>860.5</ele><time>2026-04-27T13:56:59Z</time></trkpt><trkpt lat="39.00389370725414" lon="16.294306364286992"><ele>862.0</ele><time>2026-04-27T13:57:00Z</time></trkpt><trkpt lat="39.00379883722639" lon="16.29442930354835"><ele>863.5</ele><time>2026-04-27T13:57:01Z</time></trkpt><trkpt lat="39.00372876224003" lon="16.294577401474942"><ele>865.0</ele><time>2026-04-27T13:57:02Z</time></trkpt><trkpt lat="39.003670231138415" lon="16.294713575830517"><ele>861.2</ele><time>2026-04-27T13:57:02.999Z</time></trkpt><trkpt lat="39.00361616282344" lon="16.294831433678148"><ele>857.4</ele><time>2026-04-27T13:57:03.999Z</time></trkpt><trkpt lat="39.00355354360374" lon="16.29492163810412"><ele>853.5999999999999</ele><time>2026-04-27T13:57:04.999Z</time></trkpt><trkpt lat="39.00348205726569" lon="16.294994769481004"><ele>849.8</ele><time>2026-04-27T13:57:05.999Z</time></trkpt><trkpt lat="39.003408243894015" lon="16.29505008716642"><ele>846.0</ele><time>2026-04-27T13:57:06.999Z</time></trkpt><trkpt lat="39.003320307107174" lon="16.295072434678925"><ele>844.25</ele><time>2026-04-27T13:57:07.999Z</time></trkpt><trkpt lat="39.00321374697116" lon="16.29509583058668"><ele>842.5</ele><time>2026-04-27T13:57:08.999Z</time></trkpt><trkpt lat="39.003105791633196" lon="16.295121626956764"><ele>840.75</ele><time>2026-04-27T13:57:09.999Z</time></trkpt><trkpt lat="39.002994242724846" lon="16.295166548431787"><ele>839.0</ele><time>2026-04-27T13:57:10.999Z</time></trkpt><trkpt lat="39.002879907939956" lon="16.295230842631565"><ele>839.0</ele><time>2026-04-27T13:57:11.999Z</time></trkpt><trkpt lat="39.002785248823834" lon="16.295290326339526"><ele>839.0</ele><time>2026-04-27T13:57:12.999Z</time></trkpt><trkpt lat="39.002691807113024" lon="16.295355969851457"><ele>839.0</ele><time>2026-04-27T13:57:13.999Z</time></trkpt><trkpt lat="39.002603877539016" lon="16.295398342631824"><ele>839.0</ele><time>2026-04-27T13:57:14.999Z</time></trkpt><trkpt lat="39.00250731387397" lon="16.2954164898471"><ele>839.0</ele><time>2026-04-27T13:57:15.999Z</time></trkpt><trkpt lat="39.00239206092989" lon="16.29542203616667"><ele>834.75</ele><time>2026-04-27T13:57:16.999Z</time></trkpt><trkpt lat="39.002275463224386" lon="16.29542711901771"><ele>830.5</ele><time>2026-04-27T13:57:18Z</time></trkpt><trkpt lat="39.00216069802425" lon="16.29543989026208"><ele>826.25</ele><time>2026-04-27T13:57:19Z</time></trkpt><trkpt lat="39.00204878416674" lon="16.29546372641846"><ele>822.0</ele><time>2026-04-27T13:57:20Z</time></trkpt><trkpt lat="39.001935802571126" lon="16.295500393734073"><ele>822.0</ele><time>2026-04-27T13:57:21Z</time></trkpt><trkpt lat="39.001820821487975" lon="16.295557227757723"><ele>822.0</ele><time>2026-04-27T13:57:22Z</time></trkpt><trkpt lat="39.00174658063171" lon="16.295593988179196"><ele>822.0</ele><time>2026-04-27T13:57:23Z</time></trkpt><trkpt lat="39.001645524860976" lon="16.295616809440787"><ele>822.0</ele><time>2026-04-27T13:57:25Z</time></trkpt><trkpt lat="39.00159974374481" lon="16.295536070502845"><ele>822.0</ele><time>2026-04-27T13:57:26Z</time></trkpt><trkpt lat="39.00157014748529" lon="16.295395637457837"><ele>820.5</ele><time>2026-04-27T13:57:27Z</time></trkpt><trkpt lat="39.001556441156865" lon="16.29529059776822"><ele>819.0</ele><time>2026-04-27T13:57:28Z</time></trkpt><trkpt lat="39.0014670114711" lon="16.295194128441707"><ele>817.5</ele><time>2026-04-27T13:57:30Z</time></trkpt><trkpt lat="39.00129286032676" lon="16.295216886392502"><ele>816.0</ele><time>2026-04-27T13:57:32Z</time></trkpt><trkpt lat="39.00118969304329" lon="16.295304128102767"><ele>816.0</ele><time>2026-04-27T13:57:33Z</time></trkpt><trkpt lat="39.00110031974174" lon="16.295410900727106"><ele>816.0</ele><time>2026-04-27T13:57:34Z</time></trkpt><trkpt lat="39.00101905850322" lon="16.2954965563412"><ele>816.0</ele><time>2026-04-27T13:57:35Z</time></trkpt><trkpt lat="39.00092997927188" lon="16.295584280535024"><ele>816.0</ele><time>2026-04-27T13:57:36Z</time></trkpt><trkpt lat="39.0008386007342" lon="16.295666594925112"><ele>808.25</ele><time>2026-04-27T13:57:37Z</time></trkpt><trkpt lat="39.000741312236386" lon="16.295719066888825"><ele>800.5</ele><time>2026-04-27T13:57:38Z</time></trkpt><trkpt lat="39.00063231343561" lon="16.29575539363221"><ele>792.75</ele><time>2026-04-27T13:57:39Z</time></trkpt><trkpt lat="39.000511524273534" lon="16.29574632305247"><ele>785.0</ele><time>2026-04-27T13:57:40Z</time></trkpt><trkpt lat="39.000392397901976" lon="16.29576504721705"><ele>785.0</ele><time>2026-04-27T13:57:41Z</time></trkpt><trkpt lat="39.00029239781792" lon="16.295815544254715"><ele>785.0</ele><time>2026-04-27T13:57:42Z</time></trkpt><trkpt lat="39.00019837137108" lon="16.295918324214604"><ele>785.0</ele><time>2026-04-27T13:57:43Z</time></trkpt><trkpt lat="39.000097821407415" lon="16.2959417797547"><ele>785.0</ele><time>2026-04-27T13:57:44Z</time></trkpt><trkpt lat="38.99999664592157" lon="16.29595195296336"><ele>785.0</ele><time>2026-04-27T13:57:45Z</time></trkpt><trkpt lat="38.99988823889936" lon="16.2959634814845"><ele>785.0</ele><time>2026-04-27T13:57:46Z</time></trkpt><trkpt lat="38.999779220174545" lon="16.29596962771158"><ele>785.0</ele><time>2026-04-27T13:57:47Z</time></trkpt><trkpt lat="38.99966384236778" lon="16.295971531868574"><ele>785.0</ele><time>2026-04-27T13:57:48Z</time></trkpt><trkpt lat="38.99953242000215" lon="16.29599571645182"><ele>785.0</ele><time>2026-04-27T13:57:49Z</time></trkpt><trkpt lat="38.99939353216485" lon="16.295975128401473"><ele>785.0</ele><time>2026-04-27T13:57:50Z</time></trkpt><trkpt lat="38.999257280731236" lon="16.295972209156506"><ele>785.0</ele><time>2026-04-27T13:57:51Z</time></trkpt><trkpt lat="38.99911612508408" lon="16.295973323289054"><ele>785.0</ele><time>2026-04-27T13:57:52Z</time></trkpt><trkpt lat="38.99897969923186" lon="16.296004704809526"><ele>785.0</ele><time>2026-04-27T13:57:53Z</time></trkpt><trkpt lat="38.99884489832732" lon="16.296017853334703"><ele>782.25</ele><time>2026-04-27T13:57:54Z</time></trkpt><trkpt lat="38.998709687431976" lon="16.296022691578905"><ele>779.5</ele><time>2026-04-27T13:57:55Z</time></trkpt><trkpt lat="38.99857817468349" lon="16.295991103235572"><ele>776.75</ele><time>2026-04-27T13:57:56Z</time></trkpt><trkpt lat="38.99844587945425" lon="16.2959760191424"><ele>774.0</ele><time>2026-04-27T13:57:57Z</time></trkpt><trkpt lat="38.99831780328291" lon="16.29596545850021"><ele>771.0</ele><time>2026-04-27T13:57:58Z</time></trkpt><trkpt lat="38.9981924359689" lon="16.295983723919086"><ele>768.0</ele><time>2026-04-27T13:57:59Z</time></trkpt><trkpt lat="38.99806876122912" lon="16.2959770901741"><ele>765.0</ele><time>2026-04-27T13:58:00Z</time></trkpt><trkpt lat="38.997946651077505" lon="16.295964159194025"><ele>762.0</ele><time>2026-04-27T13:58:01Z</time></trkpt><trkpt lat="38.99781921855568" lon="16.295933948295456"><ele>762.0</ele><time>2026-04-27T13:58:02Z</time></trkpt><trkpt lat="38.99767834043047" lon="16.29589977652699"><ele>762.0</ele><time>2026-04-27T13:58:03Z</time></trkpt><trkpt lat="38.99753398312415" lon="16.29586873807491"><ele>762.0</ele><time>2026-04-27T13:58:04Z</time></trkpt><trkpt lat="38.997398206477186" lon="16.295841001009485"><ele>762.0</ele><time>2026-04-27T13:58:05Z</time></trkpt><trkpt lat="38.99727894499224" lon="16.29583021115307"><ele>759.0</ele><time>2026-04-27T13:58:06Z</time></trkpt><trkpt lat="38.99716981790242" lon="16.295826942815136"><ele>756.0</ele><time>2026-04-27T13:58:07Z</time></trkpt><trkpt lat="38.99704270793897" lon="16.295898579210725"><ele>753.0</ele><time>2026-04-27T13:58:08Z</time></trkpt><trkpt lat="38.99690466195564" lon="16.295989870080398"><ele>750.0</ele><time>2026-04-27T13:58:09Z</time></trkpt><trkpt lat="38.99675298317759" lon="16.296059220263015"><ele>747.5</ele><time>2026-04-27T13:58:10Z</time></trkpt><trkpt lat="38.996605394644426" lon="16.296116534465117"><ele>745.0</ele><time>2026-04-27T13:58:11Z</time></trkpt><trkpt lat="38.996469851383786" lon="16.296169962376947"><ele>742.5</ele><time>2026-04-27T13:58:12Z</time></trkpt><trkpt lat="38.99633757873955" lon="16.296225131307438"><ele>740.0</ele><time>2026-04-27T13:58:13Z</time></trkpt><trkpt lat="38.99620986924627" lon="16.296282574546392"><ele>740.0</ele><time>2026-04-27T13:58:14Z</time></trkpt><trkpt lat="38.996081673391615" lon="16.29634063518268"><ele>740.0</ele><time>2026-04-27T13:58:15Z</time></trkpt><trkpt lat="38.99594747148368" lon="16.296424986121195"><ele>740.0</ele><time>2026-04-27T13:58:16Z</time></trkpt><trkpt lat="38.995802364512336" lon="16.296521881826244"><ele>740.0</ele><time>2026-04-27T13:58:17Z</time></trkpt><trkpt lat="38.99566315204481" lon="16.296621293070764"><ele>736.25</ele><time>2026-04-27T13:58:18Z</time></trkpt><trkpt lat="38.995537277435666" lon="16.296705105741534"><ele>732.5</ele><time>2026-04-27T13:58:19Z</time></trkpt><trkpt lat="38.9954129777275" lon="16.296760568032195"><ele>728.75</ele><time>2026-04-27T13:58:20Z</time></trkpt><trkpt lat="38.995265066606315" lon="16.29680198157657"><ele>725.0</ele><time>2026-04-27T13:58:21Z</time></trkpt><trkpt lat="38.99508416332219" lon="16.296830700850705"><ele>723.6666666666666</ele><time>2026-04-27T13:58:22Z</time></trkpt><trkpt lat="38.99489636978965" lon="16.296817576344765"><ele>722.3333333333334</ele><time>2026-04-27T13:58:23Z</time></trkpt><trkpt lat="38.994704650850835" lon="16.296826070676804"><ele>721.0</ele><time>2026-04-27T13:58:24Z</time></trkpt><trkpt lat="38.99451995364821" lon="16.29685064774786"><ele>721.0</ele><time>2026-04-27T13:58:25Z</time></trkpt><trkpt lat="38.99436447392932" lon="16.296878791154544"><ele>721.0</ele><time>2026-04-27T13:58:26Z</time></trkpt><trkpt lat="38.994229358281665" lon="16.29689605110067"><ele>721.0</ele><time>2026-04-27T13:58:27Z</time></trkpt><trkpt lat="38.99408662874085" lon="16.29691375482899"><ele>721.0</ele><time>2026-04-27T13:58:28Z</time></trkpt><trkpt lat="38.993939026117154" lon="16.296917084593613"><ele>720.5</ele><time>2026-04-27T13:58:29Z</time></trkpt><trkpt lat="38.99378555900983" lon="16.29690539840413"><ele>720.0</ele><time>2026-04-27T13:58:30Z</time></trkpt><trkpt lat="38.99364657539973" lon="16.29690898185843"><ele>719.5</ele><time>2026-04-27T13:58:31Z</time></trkpt><trkpt lat="38.9935071291944" lon="16.296894615914443"><ele>719.0</ele><time>2026-04-27T13:58:32Z</time></trkpt><trkpt lat="38.993367805419595" lon="16.29687820228353"><ele>717.75</ele><time>2026-04-27T13:58:33Z</time></trkpt><trkpt lat="38.99323646922628" lon="16.296862135073116"><ele>716.5</ele><time>2026-04-27T13:58:34Z</time></trkpt><trkpt lat="38.99309752341042" lon="16.296860718388345"><ele>715.25</ele><time>2026-04-27T13:58:35Z</time></trkpt><trkpt lat="38.99293402746517" lon="16.296847459106424"><ele>714.0</ele><time>2026-04-27T13:58:36Z</time></trkpt><trkpt lat="38.992758415106636" lon="16.29684244807555"><ele>714.0</ele><time>2026-04-27T13:58:37Z</time></trkpt><trkpt lat="38.99258193334156" lon="16.29684445169036"><ele>714.0</ele><time>2026-04-27T13:58:38Z</time></trkpt><trkpt lat="38.9924092821739" lon="16.296849155180833"><ele>714.0</ele><time>2026-04-27T13:58:39Z</time></trkpt><trkpt lat="38.99225188563115" lon="16.296855839823653"><ele>712.5</ele><time>2026-04-27T13:58:40Z</time></trkpt><trkpt lat="38.99210477558482" lon="16.296862087596875"><ele>711.0</ele><time>2026-04-27T13:58:41Z</time></trkpt><trkpt lat="38.99197763424812" lon="16.29686248852674"><ele>709.5</ele><time>2026-04-27T13:58:42Z</time></trkpt><trkpt lat="38.99187907054794" lon="16.296847452900906"><ele>708.0</ele><time>2026-04-27T13:58:43Z</time></trkpt><trkpt lat="38.991778810680565" lon="16.29681106118846"><ele>708.0</ele><time>2026-04-27T13:58:44Z</time></trkpt><trkpt lat="38.991691256649666" lon="16.29674594523362"><ele>708.0</ele><time>2026-04-27T13:58:45Z</time></trkpt><trkpt lat="38.99163581556345" lon="16.296655404479115"><ele>708.0</ele><time>2026-04-27T13:58:46Z</time></trkpt><trkpt lat="38.99157013491562" lon="16.296603034430465"><ele>708.0</ele><time>2026-04-27T13:58:47Z</time></trkpt><trkpt lat="38.99147790367748" lon="16.29655424047785"><ele>708.0</ele><time>2026-04-27T13:58:49Z</time></trkpt><trkpt lat="38.99142328258157" lon="16.296677742721286"><ele>706.8571428571429</ele><time>2026-04-27T13:58:51Z</time></trkpt><trkpt lat="38.99140662182201" lon="16.29676067924925"><ele>705.7142857142857</ele><time>2026-04-27T13:58:52Z</time></trkpt><trkpt lat="38.991442799548615" lon="16.296841389942397"><ele>704.5714285714286</ele><time>2026-04-27T13:58:56Z</time></trkpt><trkpt lat="38.99146378474344" lon="16.296918429454102"><ele>703.4285714285714</ele><time>2026-04-27T13:58:59Z</time></trkpt><trkpt lat="38.99152648208715" lon="16.29697971705329"><ele>702.2857142857142</ele><time>2026-04-27T13:59:02Z</time></trkpt><trkpt lat="38.99157052325867" lon="16.29707966759338"><ele>701.1428571428571</ele><time>2026-04-27T13:59:05Z</time></trkpt><trkpt lat="38.991543809198674" lon="16.297159048671343"><ele>700.0</ele><time>2026-04-27T13:59:09Z</time></trkpt><trkpt lat="38.99133461629476" lon="16.297007293884615"><ele>700.0</ele><time>2026-04-27T14:03:06Z</time></trkpt><trkpt lat="38.991269795998065" lon="16.296956255016017"><ele>700.0</ele><time>2026-04-27T14:03:07Z</time></trkpt><trkpt lat="38.99121008877032" lon="16.29690903719718"><ele>700.0</ele><time>2026-04-27T14:03:08Z</time></trkpt><trkpt lat="38.991150682488474" lon="16.29686676034092"><ele>700.0</ele><time>2026-04-27T14:03:09Z</time></trkpt><trkpt lat="38.991092821710225" lon="16.29682164656146"><ele>700.0</ele><time>2026-04-27T14:03:10Z</time></trkpt><trkpt lat="38.99102571296283" lon="16.29676557889971"><ele>700.0</ele><time>2026-04-27T14:03:11Z</time></trkpt><trkpt lat="38.99095761997438" lon="16.296706958476186"><ele>700.0</ele><time>2026-04-27T14:03:12Z</time></trkpt><trkpt lat="38.99088904555301" lon="16.296670518246085"><ele>696.4</ele><time>2026-04-27T14:03:13Z</time></trkpt><trkpt lat="38.990815735166905" lon="16.296644947664934"><ele>692.8</ele><time>2026-04-27T14:03:14Z</time></trkpt><trkpt lat="38.99070916134408" lon="16.296661311945066"><ele>689.2</ele><time>2026-04-27T14:03:15Z</time></trkpt><trkpt lat="38.990599719724045" lon="16.2967266647845"><ele>685.6</ele><time>2026-04-27T14:03:15.999Z</time></trkpt><trkpt lat="38.99051391697829" lon="16.296775574770738"><ele>682.0</ele><time>2026-04-27T14:03:16.999Z</time></trkpt><trkpt lat="38.9904248300811" lon="16.2968189320702"><ele>682.0</ele><time>2026-04-27T14:03:17.999Z</time></trkpt><trkpt lat="38.990343712592036" lon="16.296857142657203"><ele>682.0</ele><time>2026-04-27T14:03:18.999Z</time></trkpt><trkpt lat="38.99026310832531" lon="16.296871648436436"><ele>682.0</ele><time>2026-04-27T14:03:19.999Z</time></trkpt><trkpt lat="38.99018324068283" lon="16.29687567639431"><ele>682.0</ele><time>2026-04-27T14:03:20.999Z</time></trkpt><trkpt lat="38.99007835686468" lon="16.296870720797738"><ele>682.0</ele><time>2026-04-27T14:03:21.999Z</time></trkpt><trkpt lat="38.98996844413314" lon="16.296853713114093"><ele>680.0</ele><time>2026-04-27T14:03:22.999Z</time></trkpt><trkpt lat="38.98987689380386" lon="16.2968360682062"><ele>678.0</ele><time>2026-04-27T14:03:23.999Z</time></trkpt><trkpt lat="38.98981315325724" lon="16.296823507072936"><ele>676.0</ele><time>2026-04-27T14:03:24.999Z</time></trkpt><trkpt lat="38.98974567572115" lon="16.2968102094987"><ele>674.0</ele><time>2026-04-27T14:03:26.999Z</time></trkpt><trkpt lat="38.989636471725" lon="16.29678924858385"><ele>672.0</ele><time>2026-04-27T14:03:28.999Z</time></trkpt><trkpt lat="38.9895547530625" lon="16.296773074439944"><ele>670.0</ele><time>2026-04-27T14:03:29.999Z</time></trkpt><trkpt lat="38.98947265060128" lon="16.29675008797408"><ele>670.0</ele><time>2026-04-27T14:03:30.999Z</time></trkpt><trkpt lat="38.98938899389818" lon="16.29672505520595"><ele>670.0</ele><time>2026-04-27T14:03:31.999Z</time></trkpt><trkpt lat="38.98930461493585" lon="16.29670610256697"><ele>670.0</ele><time>2026-04-27T14:03:32.999Z</time></trkpt><trkpt lat="38.98921368997924" lon="16.296693943028952"><ele>670.0</ele><time>2026-04-27T14:03:34Z</time></trkpt><trkpt lat="38.98911326683754" lon="16.296727453594215"><ele>670.0</ele><time>2026-04-27T14:03:35Z</time></trkpt><trkpt lat="38.989035350837064" lon="16.29677374451962"><ele>667.0</ele><time>2026-04-27T14:03:36Z</time></trkpt><trkpt lat="38.988951939016395" lon="16.29684103878833"><ele>664.0</ele><time>2026-04-27T14:03:37Z</time></trkpt><trkpt lat="38.98887767800663" lon="16.296916749568094"><ele>661.0</ele><time>2026-04-27T14:03:38Z</time></trkpt><trkpt lat="38.98880085031251" lon="16.296996401129643"><ele>658.0</ele><time>2026-04-27T14:03:40Z</time></trkpt><trkpt lat="38.988733530337505" lon="16.29706076107475"><ele>655.0</ele><time>2026-04-27T14:03:42Z</time></trkpt><trkpt lat="38.98865619146972" lon="16.297124870944124"><ele>655.0</ele><time>2026-04-27T14:03:44Z</time></trkpt><trkpt lat="38.98855049237445" lon="16.297182629146583"><ele>655.0</ele><time>2026-04-27T14:03:46Z</time></trkpt><trkpt lat="38.98847868068179" lon="16.297201841655287"><ele>655.0</ele><time>2026-04-27T14:03:47Z</time></trkpt><trkpt lat="38.98839537958589" lon="16.297212908138548"><ele>655.0</ele><time>2026-04-27T14:03:48Z</time></trkpt><trkpt lat="38.98831660112571" lon="16.29719109306532"><ele>655.0</ele><time>2026-04-27T14:03:49Z</time></trkpt><trkpt lat="38.98823734255172" lon="16.297190353972148"><ele>655.0</ele><time>2026-04-27T14:03:50Z</time></trkpt><trkpt lat="38.98816307784374" lon="16.29719365713361"><ele>651.6</ele><time>2026-04-27T14:03:51Z</time></trkpt><trkpt lat="38.988084017834346" lon="16.297205831928615"><ele>648.2</ele><time>2026-04-27T14:03:52Z</time></trkpt><trkpt lat="38.98801026249281" lon="16.297283299503267"><ele>644.8</ele><time>2026-04-27T14:03:53Z</time></trkpt><trkpt lat="38.987962500464384" lon="16.297399782103486"><ele>641.4</ele><time>2026-04-27T14:03:54Z</time></trkpt><trkpt lat="38.9879169290348" lon="16.297495152120295"><ele>638.0</ele><time>2026-04-27T14:03:55Z</time></trkpt><trkpt lat="38.98786747002063" lon="16.297591141679657"><ele>638.0</ele><time>2026-04-27T14:03:56Z</time></trkpt><trkpt lat="38.98781693156" lon="16.297685234458058"><ele>638.0</ele><time>2026-04-27T14:03:57Z</time></trkpt><trkpt lat="38.98776525263664" lon="16.297776564751732"><ele>638.0</ele><time>2026-04-27T14:03:58Z</time></trkpt><trkpt lat="38.98771087310004" lon="16.29786784426626"><ele>638.0</ele><time>2026-04-27T14:03:59Z</time></trkpt><trkpt lat="38.98764706240753" lon="16.29795011772207"><ele>638.0</ele><time>2026-04-27T14:04:00Z</time></trkpt><trkpt lat="38.98757393153841" lon="16.298016769988823"><ele>638.0</ele><time>2026-04-27T14:04:01Z</time></trkpt><trkpt lat="38.98749279443764" lon="16.298082611203235"><ele>633.6</ele><time>2026-04-27T14:04:02Z</time></trkpt><trkpt lat="38.987420244014125" lon="16.298159484453326"><ele>629.1999999999999</ele><time>2026-04-27T14:04:03Z</time></trkpt><trkpt lat="38.9873546573984" lon="16.2982323366187"><ele>624.8</ele><time>2026-04-27T14:04:04Z</time></trkpt><trkpt lat="38.9872861236852" lon="16.298286655553472"><ele>620.4</ele><time>2026-04-27T14:04:05Z</time></trkpt><trkpt lat="38.98720357953466" lon="16.29832742133859"><ele>616.0</ele><time>2026-04-27T14:04:06Z</time></trkpt><trkpt lat="38.98709469624213" lon="16.29835615870558"><ele>616.0</ele><time>2026-04-27T14:04:07Z</time></trkpt><trkpt lat="38.98696532415212" lon="16.29838594317905"><ele>616.0</ele><time>2026-04-27T14:04:08Z</time></trkpt><trkpt lat="38.98683445094637" lon="16.29841560265774"><ele>616.0</ele><time>2026-04-27T14:04:09Z</time></trkpt><trkpt lat="38.98670956485367" lon="16.298446542176382"><ele>616.0</ele><time>2026-04-27T14:04:10Z</time></trkpt><trkpt lat="38.986593415018284" lon="16.29847271925177"><ele>614.8333333333334</ele><time>2026-04-27T14:04:11Z</time></trkpt><trkpt lat="38.98649374978564" lon="16.298485778897938"><ele>613.6666666666667</ele><time>2026-04-27T14:04:12Z</time></trkpt><trkpt lat="38.98640704490419" lon="16.298484275891386"><ele>612.5</ele><time>2026-04-27T14:04:13Z</time></trkpt><trkpt lat="38.98632936147051" lon="16.298478749121585"><ele>611.3333333333334</ele><time>2026-04-27T14:04:14Z</time></trkpt><trkpt lat="38.986250182422054" lon="16.298501686407096"><ele>610.1666666666666</ele><time>2026-04-27T14:04:15Z</time></trkpt><trkpt lat="38.98616747063891" lon="16.298568114179673"><ele>609.0</ele><time>2026-04-27T14:04:16Z</time></trkpt><trkpt lat="38.98613058089141" lon="16.298733352515377"><ele>609.0</ele><time>2026-04-27T14:04:17Z</time></trkpt><trkpt lat="38.98610083620104" lon="16.298899892147325"><ele>609.0</ele><time>2026-04-27T14:04:18Z</time></trkpt><trkpt lat="38.98606596571232" lon="16.29904834483257"><ele>609.0</ele><time>2026-04-27T14:04:19Z</time></trkpt><trkpt lat="38.986035402288564" lon="16.299163475245233"><ele>609.0</ele><time>2026-04-27T14:04:20Z</time></trkpt><trkpt lat="38.986008664230695" lon="16.29924584951771"><ele>609.0</ele><time>2026-04-27T14:04:21Z</time></trkpt><trkpt lat="38.98588145124404" lon="16.299307104910046"><ele>607.0</ele><time>2026-04-27T14:04:23Z</time></trkpt><trkpt lat="38.9857850781381" lon="16.299293533390667"><ele>605.0</ele><time>2026-04-27T14:04:24Z</time></trkpt><trkpt lat="38.98568734360265" lon="16.299273218281296"><ele>603.0</ele><time>2026-04-27T14:04:25Z</time></trkpt><trkpt lat="38.985627808659686" lon="16.299199659800106"><ele>601.0</ele><time>2026-04-27T14:04:26Z</time></trkpt><trkpt lat="38.985591404150426" lon="16.29909640195928"><ele>599.0</ele><time>2026-04-27T14:04:27Z</time></trkpt><trkpt lat="38.985565863224714" lon="16.298946889825874"><ele>599.25</ele><time>2026-04-27T14:04:28Z</time></trkpt><trkpt lat="38.98552837955893" lon="16.298781777051058"><ele>599.5</ele><time>2026-04-27T14:04:29Z</time></trkpt><trkpt lat="38.98547788798229" lon="16.298622945182654"><ele>599.75</ele><time>2026-04-27T14:04:30Z</time></trkpt><trkpt lat="38.98543435737692" lon="16.298456264234446"><ele>600.0</ele><time>2026-04-27T14:04:31Z</time></trkpt><trkpt lat="38.98539353526168" lon="16.298289373689524"><ele>600.0</ele><time>2026-04-27T14:04:32Z</time></trkpt><trkpt lat="38.98535230313221" lon="16.29812216283963"><ele>600.0</ele><time>2026-04-27T14:04:33Z</time></trkpt><trkpt lat="38.98531704211802" lon="16.29795065498419"><ele>600.0</ele><time>2026-04-27T14:04:34Z</time></trkpt><trkpt lat="38.98528779844731" lon="16.29779656234476"><ele>600.0</ele><time>2026-04-27T14:04:35Z</time></trkpt><trkpt lat="38.985269993186556" lon="16.297667952891842"><ele>597.4</ele><time>2026-04-27T14:04:36Z</time></trkpt><trkpt lat="38.98526709590593" lon="16.29756886213412"><ele>594.8</ele><time>2026-04-27T14:04:37Z</time></trkpt><trkpt lat="38.98529815190969" lon="16.29748447515643"><ele>592.2</ele><time>2026-04-27T14:04:38Z</time></trkpt><trkpt lat="38.98537165798098" lon="16.29741165992015"><ele>589.6</ele><time>2026-04-27T14:04:39Z</time></trkpt><trkpt lat="38.985494752233166" lon="16.297370964204724"><ele>587.0</ele><time>2026-04-27T14:04:40Z</time></trkpt><trkpt lat="38.98564529799238" lon="16.29734052482613"><ele>587.0</ele><time>2026-04-27T14:04:41Z</time></trkpt><trkpt lat="38.985775242715135" lon="16.297321879068576"><ele>587.0</ele><time>2026-04-27T14:04:42Z</time></trkpt><trkpt lat="38.98587552935127" lon="16.297292571975674"><ele>587.0</ele><time>2026-04-27T14:04:43Z</time></trkpt><trkpt lat="38.98593895221981" lon="16.297225509413664"><ele>587.0</ele><time>2026-04-27T14:04:45Z</time></trkpt><trkpt lat="38.98588405244556" lon="16.29715098626353"><ele>587.0</ele><time>2026-04-27T14:04:47Z</time></trkpt><trkpt lat="38.985746307926895" lon="16.297091015663888"><ele>582.25</ele><time>2026-04-27T14:04:49Z</time></trkpt><trkpt lat="38.9856070772441" lon="16.297088249766272"><ele>577.5</ele><time>2026-04-27T14:04:50Z</time></trkpt><trkpt lat="38.985457399374624" lon="16.297073661577127"><ele>572.75</ele><time>2026-04-27T14:04:51Z</time></trkpt><trkpt lat="38.98532447156256" lon="16.297087318854967"><ele>568.0</ele><time>2026-04-27T14:04:52Z</time></trkpt><trkpt lat="38.985197311664656" lon="16.297095696319115"><ele>568.0</ele><time>2026-04-27T14:04:53Z</time></trkpt><trkpt lat="38.98506920182367" lon="16.2971314973792"><ele>568.0</ele><time>2026-04-27T14:04:54Z</time></trkpt><trkpt lat="38.98494034303317" lon="16.29715432006043"><ele>568.0</ele><time>2026-04-27T14:04:55Z</time></trkpt><trkpt lat="38.98481304582985" lon="16.297211061029888"><ele>568.0</ele><time>2026-04-27T14:04:56Z</time></trkpt><trkpt lat="38.98469438592722" lon="16.297279126728156"><ele>569.0</ele><time>2026-04-27T14:04:57Z</time></trkpt><trkpt lat="38.98458614357334" lon="16.29736011225448"><ele>570.0</ele><time>2026-04-27T14:04:58Z</time></trkpt><trkpt lat="38.984495031585624" lon="16.297459005209195"><ele>571.0</ele><time>2026-04-27T14:04:59Z</time></trkpt><trkpt lat="38.98441661204643" lon="16.29757708593129"><ele>572.0</ele><time>2026-04-27T14:04:59.999Z</time></trkpt><trkpt lat="38.98438782801645" lon="16.297737412807223"><ele>572.0</ele><time>2026-04-27T14:05:00.999Z</time></trkpt><trkpt lat="38.984318949149326" lon="16.29786683684314"><ele>572.0</ele><time>2026-04-27T14:05:01.999Z</time></trkpt><trkpt lat="38.98425360800614" lon="16.29798600114836"><ele>572.0</ele><time>2026-04-27T14:05:02.999Z</time></trkpt><trkpt lat="38.98416580845381" lon="16.298108638116467"><ele>572.0</ele><time>2026-04-27T14:05:03.999Z</time></trkpt><trkpt lat="38.98406972765099" lon="16.298232451742663"><ele>566.25</ele><time>2026-04-27T14:05:04.999Z</time></trkpt><trkpt lat="38.983963725380086" lon="16.298354079787945"><ele>560.5</ele><time>2026-04-27T14:05:05.999Z</time></trkpt><trkpt lat="38.98385619079088" lon="16.29846020989874"><ele>554.75</ele><time>2026-04-27T14:05:06.999Z</time></trkpt><trkpt lat="38.983740833872254" lon="16.29855297351864"><ele>549.0</ele><time>2026-04-27T14:05:07.999Z</time></trkpt><trkpt lat="38.98362062186738" lon="16.2986229949107"><ele>549.0</ele><time>2026-04-27T14:05:08.999Z</time></trkpt><trkpt lat="38.98350472058862" lon="16.298692464881707"><ele>549.0</ele><time>2026-04-27T14:05:09.999Z</time></trkpt><trkpt lat="38.983396345984104" lon="16.29876179751394"><ele>549.0</ele><time>2026-04-27T14:05:10.999Z</time></trkpt><trkpt lat="38.98329803329308" lon="16.298845064168393"><ele>549.0</ele><time>2026-04-27T14:05:11.999Z</time></trkpt><trkpt lat="38.98321250563825" lon="16.298943204449767"><ele>544.0</ele><time>2026-04-27T14:05:12.999Z</time></trkpt><trkpt lat="38.98315267305554" lon="16.299069077259084"><ele>539.0</ele><time>2026-04-27T14:05:13.999Z</time></trkpt><trkpt lat="38.98313265408092" lon="16.29926477125424"><ele>534.0</ele><time>2026-04-27T14:05:14.999Z</time></trkpt><trkpt lat="38.98309332905235" lon="16.29946365386454"><ele>529.0</ele><time>2026-04-27T14:05:15.999Z</time></trkpt><trkpt lat="38.98303792088827" lon="16.29963339424815"><ele>530.5</ele><time>2026-04-27T14:05:16.999Z</time></trkpt><trkpt lat="38.982955725788436" lon="16.29979861575596"><ele>532.0</ele><time>2026-04-27T14:05:17.999Z</time></trkpt><trkpt lat="38.98287370682832" lon="16.2999218078068"><ele>533.5</ele><time>2026-04-27T14:05:18.999Z</time></trkpt><trkpt lat="38.98276533513792" lon="16.30002226436456"><ele>535.0</ele><time>2026-04-27T14:05:19.999Z</time></trkpt><trkpt lat="38.98263449684944" lon="16.30015826128762"><ele>535.0</ele><time>2026-04-27T14:05:20.999Z</time></trkpt><trkpt lat="38.98251700597923" lon="16.300309475508534"><ele>535.0</ele><time>2026-04-27T14:05:21.999Z</time></trkpt><trkpt lat="38.982418778373244" lon="16.300450088674506"><ele>535.0</ele><time>2026-04-27T14:05:22.999Z</time></trkpt><trkpt lat="38.982316182706406" lon="16.300565461396587"><ele>535.0</ele><time>2026-04-27T14:05:23.999Z</time></trkpt><trkpt lat="38.982194572940436" lon="16.30068048313365"><ele>532.0</ele><time>2026-04-27T14:05:24.999Z</time></trkpt><trkpt lat="38.98205632643487" lon="16.300796460886197"><ele>529.0</ele><time>2026-04-27T14:05:25.999Z</time></trkpt><trkpt lat="38.98191350064947" lon="16.300911884473987"><ele>526.0</ele><time>2026-04-27T14:05:26.999Z</time></trkpt><trkpt lat="38.981760586567994" lon="16.301032030239675"><ele>519.6666666666667</ele><time>2026-04-27T14:05:27.999Z</time></trkpt><trkpt lat="38.981612258200975" lon="16.301145513395387"><ele>513.3333333333334</ele><time>2026-04-27T14:05:28.999Z</time></trkpt><trkpt lat="38.981471493827655" lon="16.30124930778059"><ele>507.0</ele><time>2026-04-27T14:05:29.999Z</time></trkpt><trkpt lat="38.981335011725264" lon="16.301347098445024"><ele>510.25</ele><time>2026-04-27T14:05:30.999Z</time></trkpt><trkpt lat="38.98120479086137" lon="16.301438613010887"><ele>513.5</ele><time>2026-04-27T14:05:31.999Z</time></trkpt><trkpt lat="38.98107820461206" lon="16.3015136318787"><ele>516.75</ele><time>2026-04-27T14:05:32.999Z</time></trkpt><trkpt lat="38.98096808676895" lon="16.301572766333997"><ele>520.0</ele><time>2026-04-27T14:05:33.999Z</time></trkpt><trkpt lat="38.9808693988768" lon="16.30163042974906"><ele>515.25</ele><time>2026-04-27T14:05:34.999Z</time></trkpt><trkpt lat="38.980786443559374" lon="16.301683491231966"><ele>510.5</ele><time>2026-04-27T14:05:35.999Z</time></trkpt><trkpt lat="38.980710748736335" lon="16.301763175053598"><ele>505.75</ele><time>2026-04-27T14:05:36.999Z</time></trkpt><trkpt lat="38.98064157074735" lon="16.30190412633414"><ele>501.0</ele><time>2026-04-27T14:05:37.999Z</time></trkpt><trkpt lat="38.98059416229406" lon="16.302076206292675"><ele>501.0</ele><time>2026-04-27T14:05:38.999Z</time></trkpt><trkpt lat="38.98055130606796" lon="16.30223423371952"><ele>501.0</ele><time>2026-04-27T14:05:40Z</time></trkpt><trkpt lat="38.98050440268382" lon="16.302373931971463"><ele>501.0</ele><time>2026-04-27T14:05:41Z</time></trkpt><trkpt lat="38.980455719057666" lon="16.302502691390444"><ele>501.0</ele><time>2026-04-27T14:05:42Z</time></trkpt><trkpt lat="38.980398372255806" lon="16.30262234555138"><ele>501.0</ele><time>2026-04-27T14:05:43Z</time></trkpt><trkpt lat="38.98031065241349" lon="16.30277368168373"><ele>501.0</ele><time>2026-04-27T14:05:44Z</time></trkpt><trkpt lat="38.98022927693632" lon="16.302912352902073"><ele>501.0</ele><time>2026-04-27T14:05:45Z</time></trkpt><trkpt lat="38.98018096801899" lon="16.303029993659162"><ele>501.0</ele><time>2026-04-27T14:05:46Z</time></trkpt><trkpt lat="38.98011720445273" lon="16.30311089488503"><ele>501.0</ele><time>2026-04-27T14:05:47Z</time></trkpt><trkpt lat="38.98008308158047" lon="16.303233505195916"><ele>501.0</ele><time>2026-04-27T14:05:48Z</time></trkpt><trkpt lat="38.98008803336445" lon="16.303403162699546"><ele>501.0</ele><time>2026-04-27T14:05:49Z</time></trkpt><trkpt lat="38.98011288045311" lon="16.303559958774155"><ele>501.0</ele><time>2026-04-27T14:05:50Z</time></trkpt><trkpt lat="38.980157477206916" lon="16.3037030938841"><ele>501.0</ele><time>2026-04-27T14:05:51Z</time></trkpt><trkpt lat="38.980215226649136" lon="16.30381731546851"><ele>501.0</ele><time>2026-04-27T14:05:52Z</time></trkpt><trkpt lat="38.980287477167835" lon="16.303905568326524"><ele>501.0</ele><time>2026-04-27T14:05:53Z</time></trkpt><trkpt lat="38.980394533163775" lon="16.303936285346673"><ele>501.0</ele><time>2026-04-27T14:05:54Z</time></trkpt><trkpt lat="38.980501469157964" lon="16.30394910073748"><ele>501.0</ele><time>2026-04-27T14:05:55Z</time></trkpt><trkpt lat="38.98060525012175" lon="16.303924139656946"><ele>501.0</ele><time>2026-04-27T14:05:56Z</time></trkpt><trkpt lat="38.98071878355585" lon="16.303890783987622"><ele>501.0</ele><time>2026-04-27T14:05:57Z</time></trkpt><trkpt lat="38.98083922772821" lon="16.303863273042005"><ele>501.0</ele><time>2026-04-27T14:05:58Z</time></trkpt><trkpt lat="38.98098037486824" lon="16.303871086826216"><ele>501.0</ele><time>2026-04-27T14:05:59Z</time></trkpt><trkpt lat="38.98113398907347" lon="16.303859950169194"><ele>499.75</ele><time>2026-04-27T14:06:00Z</time></trkpt><trkpt lat="38.98128627305729" lon="16.303849794554917"><ele>498.5</ele><time>2026-04-27T14:06:01Z</time></trkpt><trkpt lat="38.981434130037705" lon="16.30384119143521"><ele>497.25</ele><time>2026-04-27T14:06:02Z</time></trkpt><trkpt lat="38.981569287722365" lon="16.303833834461493"><ele>496.0</ele><time>2026-04-27T14:06:03Z</time></trkpt><trkpt lat="38.981693152870974" lon="16.303828385285804"><ele>495.4</ele><time>2026-04-27T14:06:04Z</time></trkpt><trkpt lat="38.98181046176927" lon="16.303826744897354"><ele>494.8</ele><time>2026-04-27T14:06:05Z</time></trkpt><trkpt lat="38.981927679041696" lon="16.303828691698236"><ele>494.19999999999993</ele><time>2026-04-27T14:06:06Z</time></trkpt><trkpt lat="38.98203892876407" lon="16.303832666214298"><ele>493.59999999999997</ele><time>2026-04-27T14:06:07Z</time></trkpt><trkpt lat="38.98213752367237" lon="16.30383975926224"><ele>493.0</ele><time>2026-04-27T14:06:08Z</time></trkpt><trkpt lat="38.98222124587424" lon="16.303850336670486"><ele>487.59999999999997</ele><time>2026-04-27T14:06:09Z</time></trkpt><trkpt lat="38.982328576511556" lon="16.303943292981227"><ele>482.19999999999993</ele><time>2026-04-27T14:06:11Z</time></trkpt><trkpt lat="38.982389467283056" lon="16.304029976235135"><ele>476.8</ele><time>2026-04-27T14:06:12Z</time></trkpt><trkpt lat="38.98244828668314" lon="16.304113908384036"><ele>471.4</ele><time>2026-04-27T14:06:13Z</time></trkpt><trkpt lat="38.982492108857116" lon="16.304180693100207"><ele>466.0</ele><time>2026-04-27T14:06:14Z</time></trkpt><trkpt lat="38.982585206855504" lon="16.304308205336845"><ele>466.00000000000006</ele><time>2026-04-27T14:06:16Z</time></trkpt><trkpt lat="38.98265858002028" lon="16.304367059895686"><ele>466.0</ele><time>2026-04-27T14:06:17Z</time></trkpt><trkpt lat="38.98272077055878" lon="16.30441827974208"><ele>466.0</ele><time>2026-04-27T14:06:18Z</time></trkpt><trkpt lat="38.98277053424781" lon="16.304480962443243"><ele>466.0</ele><time>2026-04-27T14:06:20Z</time></trkpt><trkpt lat="38.98273550579601" lon="16.304567256204944"><ele>466.00000000000006</ele><time>2026-04-27T14:06:22Z</time></trkpt><trkpt lat="38.98265321016544" lon="16.304591839807085"><ele>466.0</ele><time>2026-04-27T14:06:23Z</time></trkpt><trkpt lat="38.98256197615484" lon="16.30454212443263"><ele>466.00000000000006</ele><time>2026-04-27T14:06:24Z</time></trkpt><trkpt lat="38.98247841021532" lon="16.304546292785858"><ele>466.0</ele><time>2026-04-27T14:06:25Z</time></trkpt><trkpt lat="38.982414539429946" lon="16.30457212373789"><ele>466.0</ele><time>2026-04-27T14:06:27Z</time></trkpt><trkpt lat="38.982438420397735" lon="16.304696953407486"><ele>466.0</ele><time>2026-04-27T14:06:29Z</time></trkpt><trkpt lat="38.98252870119275" lon="16.304717800017663"><ele>466.00000000000006</ele><time>2026-04-27T14:06:30Z</time></trkpt><trkpt lat="38.982573082934586" lon="16.30479658647121"><ele>466.0</ele><time>2026-04-27T14:06:32Z</time></trkpt><trkpt lat="38.98248465124602" lon="16.304889281718452"><ele>460.6</ele><time>2026-04-27T14:06:34Z</time></trkpt><trkpt lat="38.98239646766447" lon="16.304966332557072"><ele>455.20000000000005</ele><time>2026-04-27T14:06:37Z</time></trkpt><trkpt lat="38.98230234908126" lon="16.305035455596528"><ele>449.79999999999995</ele><time>2026-04-27T14:06:39Z</time></trkpt><trkpt lat="38.98221407796712" lon="16.30505405538395"><ele>444.4</ele><time>2026-04-27T14:06:41Z</time></trkpt><trkpt lat="38.98213856614127" lon="16.30507783019234"><ele>439.0</ele><time>2026-04-27T14:06:43Z</time></trkpt><trkpt lat="38.982050680699864" lon="16.30510980114415"><ele>439.0</ele><time>2026-04-27T14:06:45Z</time></trkpt><trkpt lat="38.98197337809872" lon="16.305188696717625"><ele>439.0</ele><time>2026-04-27T14:06:47Z</time></trkpt><trkpt lat="38.98188710314333" lon="16.305231477048263"><ele>439.0</ele><time>2026-04-27T14:06:50Z</time></trkpt><trkpt lat="38.981686821266976" lon="16.305285108002938"><ele>439.0</ele><time>2026-04-27T14:07:31.999Z</time></trkpt><trkpt lat="38.9816202668052" lon="16.30532177247822"><ele>439.0</ele><time>2026-04-27T14:07:32.999Z</time></trkpt><trkpt lat="38.98153597158736" lon="16.305306588583235"><ele>439.0</ele><time>2026-04-27T14:07:33.999Z</time></trkpt><trkpt lat="38.98151244404305" lon="16.305425128047784"><ele>439.0</ele><time>2026-04-27T14:07:34.999Z</time></trkpt><trkpt lat="38.98169254492621" lon="16.3055154371949"><ele>439.0</ele><time>2026-04-27T14:07:35.999Z</time></trkpt><trkpt lat="38.98178688510442" lon="16.3056043032932"><ele>436.00000000000006</ele><time>2026-04-27T14:07:36.999Z</time></trkpt><trkpt lat="38.981846536526255" lon="16.305647505213678"><ele>433.0</ele><time>2026-04-27T14:07:37.999Z</time></trkpt><trkpt lat="38.981918034651066" lon="16.30570766352096"><ele>430.0</ele><time>2026-04-27T14:07:40.999Z</time></trkpt><trkpt lat="38.98190988621727" lon="16.3057912715927"><ele>427.0</ele><time>2026-04-27T14:07:43.999Z</time></trkpt><trkpt lat="38.981846389661975" lon="16.30582092979163"><ele>424.00000000000006</ele><time>2026-04-27T14:07:48Z</time></trkpt><trkpt lat="38.98176820745009" lon="16.30583613885687"><ele>421.0</ele><time>2026-04-27T14:07:50Z</time></trkpt><trkpt lat="38.98167145026838" lon="16.305853748216144"><ele>420.4</ele><time>2026-04-27T14:07:52Z</time></trkpt><trkpt lat="38.98156221580499" lon="16.305879953680744"><ele>419.8</ele><time>2026-04-27T14:07:54Z</time></trkpt><trkpt lat="38.98142898911772" lon="16.305923927258362"><ele>419.2</ele><time>2026-04-27T14:07:56Z</time></trkpt><trkpt lat="38.9813525604502" lon="16.305970486745508"><ele>418.59999999999997</ele><time>2026-04-27T14:07:57Z</time></trkpt><trkpt lat="38.98127248190383" lon="16.3060181138197"><ele>418.0</ele><time>2026-04-27T14:07:58Z</time></trkpt><trkpt lat="38.98118774431036" lon="16.306074662743086"><ele>418.00000000000006</ele><time>2026-04-27T14:07:59Z</time></trkpt><trkpt lat="38.981103217308885" lon="16.30613600808235"><ele>418.0</ele><time>2026-04-27T14:08:00Z</time></trkpt><trkpt lat="38.981028417375924" lon="16.306192333865038"><ele>418.0</ele><time>2026-04-27T14:08:01Z</time></trkpt><trkpt lat="38.980956975821606" lon="16.306249931960426"><ele>418.0</ele><time>2026-04-27T14:08:02Z</time></trkpt><trkpt lat="38.98089293565585" lon="16.306302336851868"><ele>418.00000000000006</ele><time>2026-04-27T14:08:03Z</time></trkpt><trkpt lat="38.98082413992215" lon="16.30636102545236"><ele>418.0</ele><time>2026-04-27T14:08:04Z</time></trkpt><trkpt lat="38.980750966831486" lon="16.30643046258028"><ele>413.0</ele><time>2026-04-27T14:08:05Z</time></trkpt><trkpt lat="38.98067852693779" lon="16.306457047315288"><ele>408.0</ele><time>2026-04-27T14:08:06Z</time></trkpt><trkpt lat="38.98057281682384" lon="16.30650470619029"><ele>403.0</ele><time>2026-04-27T14:08:07Z</time></trkpt><trkpt lat="38.98046450160777" lon="16.30654793975456"><ele>398.0</ele><time>2026-04-27T14:08:08Z</time></trkpt><trkpt lat="38.98035525811002" lon="16.306581750963566"><ele>393.0</ele><time>2026-04-27T14:08:09Z</time></trkpt><trkpt lat="38.98024794522146" lon="16.30661496462472"><ele>393.0</ele><time>2026-04-27T14:08:10Z</time></trkpt><trkpt lat="38.98013567862274" lon="16.3066575810591"><ele>393.0</ele><time>2026-04-27T14:08:11Z</time></trkpt><trkpt lat="38.98003236024431" lon="16.30671483760528"><ele>393.0</ele><time>2026-04-27T14:08:12Z</time></trkpt><trkpt lat="38.97994302048587" lon="16.30676961782419"><ele>393.0</ele><time>2026-04-27T14:08:13Z</time></trkpt><trkpt lat="38.97985538834749" lon="16.30682031499925"><ele>393.0</ele><time>2026-04-27T14:08:14Z</time></trkpt><trkpt lat="38.97976543021626" lon="16.30686727375228"><ele>392.79999999999995</ele><time>2026-04-27T14:08:15Z</time></trkpt><trkpt lat="38.97967010497922" lon="16.30690381148464"><ele>392.6</ele><time>2026-04-27T14:08:16Z</time></trkpt><trkpt lat="38.979574695134815" lon="16.30692634221445"><ele>392.4</ele><time>2026-04-27T14:08:17Z</time></trkpt><trkpt lat="38.979464874582035" lon="16.306935021288243"><ele>392.20000000000005</ele><time>2026-04-27T14:08:18Z</time></trkpt><trkpt lat="38.97934416872405" lon="16.306939799447424"><ele>392.0</ele><time>2026-04-27T14:08:19Z</time></trkpt><trkpt lat="38.97922104293473" lon="16.30694804853267"><ele>390.75</ele><time>2026-04-27T14:08:20Z</time></trkpt><trkpt lat="38.97910045477322" lon="16.3069567104919"><ele>389.5</ele><time>2026-04-27T14:08:21Z</time></trkpt><trkpt lat="38.97897336062339" lon="16.306961875367733"><ele>388.25</ele><time>2026-04-27T14:08:22Z</time></trkpt><trkpt lat="38.97885692064285" lon="16.306964983498414"><ele>387.0</ele><time>2026-04-27T14:08:23Z</time></trkpt><trkpt lat="38.97874434289622" lon="16.30696594483027"><ele>387.0</ele><time>2026-04-27T14:08:24Z</time></trkpt><trkpt lat="38.97862725710659" lon="16.306972191972857"><ele>387.0</ele><time>2026-04-27T14:08:25Z</time></trkpt><trkpt lat="38.97851496130192" lon="16.306994337199956"><ele>387.0</ele><time>2026-04-27T14:08:26Z</time></trkpt><trkpt lat="38.97842469699242" lon="16.307021058360796"><ele>387.0</ele><time>2026-04-27T14:08:27Z</time></trkpt><trkpt lat="38.9783311596217" lon="16.30706291750975"><ele>387.0</ele><time>2026-04-27T14:08:28Z</time></trkpt><trkpt lat="38.978233686484884" lon="16.307138792343434"><ele>383.75</ele><time>2026-04-27T14:08:29Z</time></trkpt><trkpt lat="38.97814812486398" lon="16.307228579891497"><ele>380.5</ele><time>2026-04-27T14:08:30Z</time></trkpt><trkpt lat="38.97805860639829" lon="16.30733579272534"><ele>377.25</ele><time>2026-04-27T14:08:31Z</time></trkpt><trkpt lat="38.97797230597804" lon="16.307442059160245"><ele>374.0</ele><time>2026-04-27T14:08:32Z</time></trkpt><trkpt lat="38.977890513808745" lon="16.3075431318455"><ele>370.6</ele><time>2026-04-27T14:08:33Z</time></trkpt><trkpt lat="38.977814011183696" lon="16.307638871006205"><ele>367.2</ele><time>2026-04-27T14:08:34Z</time></trkpt><trkpt lat="38.97774751203075" lon="16.307722091363466"><ele>363.8</ele><time>2026-04-27T14:08:35Z</time></trkpt><trkpt lat="38.97768217650461" lon="16.307804793472393"><ele>360.40000000000003</ele><time>2026-04-27T14:08:36Z</time></trkpt><trkpt lat="38.977617308998965" lon="16.307887647145325"><ele>357.0</ele><time>2026-04-27T14:08:37Z</time></trkpt><trkpt lat="38.97755377319947" lon="16.307969267332517"><ele>355.8333333333333</ele><time>2026-04-27T14:08:38Z</time></trkpt><trkpt lat="38.97748949333982" lon="16.308052821372126"><ele>354.6666666666667</ele><time>2026-04-27T14:08:39Z</time></trkpt><trkpt lat="38.97742565643597" lon="16.308135799630346"><ele>353.5</ele><time>2026-04-27T14:08:40Z</time></trkpt><trkpt lat="38.97736330045627" lon="16.308215644424454"><ele>352.33333333333337</ele><time>2026-04-27T14:08:41Z</time></trkpt><trkpt lat="38.97730161267322" lon="16.30828846024758"><ele>351.1666666666667</ele><time>2026-04-27T14:08:42Z</time></trkpt><trkpt lat="38.97724345131829" lon="16.308345837097747"><ele>350.0</ele><time>2026-04-27T14:08:43Z</time></trkpt><trkpt lat="38.97718160131445" lon="16.308386700037516"><ele>348.1666666666667</ele><time>2026-04-27T14:08:44Z</time></trkpt><trkpt lat="38.977114324762645" lon="16.30840245432118"><ele>346.33333333333337</ele><time>2026-04-27T14:08:45Z</time></trkpt><trkpt lat="38.9770393036341" lon="16.30840960023118"><ele>344.5</ele><time>2026-04-27T14:08:46Z</time></trkpt><trkpt lat="38.97697026094988" lon="16.3083667903635"><ele>342.6666666666667</ele><time>2026-04-27T14:08:47Z</time></trkpt><trkpt lat="38.97691876802657" lon="16.308310947006962"><ele>340.8333333333333</ele><time>2026-04-27T14:08:48Z</time></trkpt><trkpt lat="38.97688699680268" lon="16.308217140667953"><ele>339.0</ele><time>2026-04-27T14:08:49Z</time></trkpt><trkpt lat="38.97686501990711" lon="16.30809097633326"><ele>341.75</ele><time>2026-04-27T14:08:50Z</time></trkpt><trkpt lat="38.9768474238026" lon="16.30795759916501"><ele>344.5</ele><time>2026-04-27T14:08:51Z</time></trkpt><trkpt lat="38.97682803427172" lon="16.307816347430418"><ele>347.25</ele><time>2026-04-27T14:08:52Z</time></trkpt><trkpt lat="38.97681343726311" lon="16.307647427378814"><ele>350.0</ele><time>2026-04-27T14:08:53Z</time></trkpt><trkpt lat="38.9767997541843" lon="16.307461914544646"><ele>350.0</ele><time>2026-04-27T14:08:54Z</time></trkpt><trkpt lat="38.97677361674123" lon="16.307284979714662"><ele>350.0</ele><time>2026-04-27T14:08:55Z</time></trkpt><trkpt lat="38.97672116716757" lon="16.307123999407093"><ele>350.0</ele><time>2026-04-27T14:08:56Z</time></trkpt><trkpt lat="38.976650895649236" lon="16.306974505059014"><ele>350.0</ele><time>2026-04-27T14:08:57Z</time></trkpt><trkpt lat="38.97658465554655" lon="16.30683371085953"><ele>347.0</ele><time>2026-04-27T14:08:58Z</time></trkpt><trkpt lat="38.97649727442658" lon="16.306711333185703"><ele>344.0</ele><time>2026-04-27T14:08:59Z</time></trkpt><trkpt lat="38.97640270502732" lon="16.306596975217918"><ele>341.0</ele><time>2026-04-27T14:09:00Z</time></trkpt><trkpt lat="38.97631448847811" lon="16.306472553890345"><ele>338.0</ele><time>2026-04-27T14:09:01Z</time></trkpt><trkpt lat="38.97622681727786" lon="16.306353211793084"><ele>338.0</ele><time>2026-04-27T14:09:02Z</time></trkpt><trkpt lat="38.9761520541172" lon="16.306247692007794"><ele>338.0</ele><time>2026-04-27T14:09:03Z</time></trkpt><trkpt lat="38.97608220762596" lon="16.30614719059769"><ele>338.0</ele><time>2026-04-27T14:09:04Z</time></trkpt><trkpt lat="38.97601959473387" lon="16.306042606819208"><ele>338.0</ele><time>2026-04-27T14:09:05Z</time></trkpt><trkpt lat="38.97596720338838" lon="16.305926741069847"><ele>338.0</ele><time>2026-04-27T14:09:06Z</time></trkpt><trkpt lat="38.97594649604717" lon="16.30578770040465"><ele>338.0</ele><time>2026-04-27T14:09:07Z</time></trkpt><trkpt lat="38.97593580118161" lon="16.305666061783263"><ele>338.0</ele><time>2026-04-27T14:09:08Z</time></trkpt><trkpt lat="38.97592106323302" lon="16.305548835736044"><ele>338.0</ele><time>2026-04-27T14:09:09Z</time></trkpt><trkpt lat="38.97590869492286" lon="16.305439657381434"><ele>338.0</ele><time>2026-04-27T14:09:10Z</time></trkpt><trkpt lat="38.975897868167685" lon="16.3053532919276"><ele>338.0</ele><time>2026-04-27T14:09:11Z</time></trkpt><trkpt lat="38.97586576904766" lon="16.305282994581738"><ele>338.0</ele><time>2026-04-27T14:09:12Z</time></trkpt><trkpt lat="38.975818389476004" lon="16.30517870515482"><ele>333.83333333333337</ele><time>2026-04-27T14:09:14Z</time></trkpt><trkpt lat="38.975700020785226" lon="16.305179082172465"><ele>329.6666666666667</ele><time>2026-04-27T14:09:16Z</time></trkpt><trkpt lat="38.975620602844096" lon="16.30521423789494"><ele>325.5</ele><time>2026-04-27T14:09:17Z</time></trkpt><trkpt lat="38.97555524678685" lon="16.30525420872707"><ele>321.3333333333333</ele><time>2026-04-27T14:09:18Z</time></trkpt><trkpt lat="38.97549072953135" lon="16.3052936663666"><ele>317.16666666666663</ele><time>2026-04-27T14:09:19Z</time></trkpt><trkpt lat="38.97542276969322" lon="16.305336897716845"><ele>313.0</ele><time>2026-04-27T14:09:20Z</time></trkpt><trkpt lat="38.97535220442325" lon="16.305384835126212"><ele>313.0</ele><time>2026-04-27T14:09:21Z</time></trkpt><trkpt lat="38.97529370728871" lon="16.305435621484268"><ele>313.0</ele><time>2026-04-27T14:09:22Z</time></trkpt><trkpt lat="38.9752286269016" lon="16.305529870992537"><ele>313.0</ele><time>2026-04-27T14:09:23Z</time></trkpt><trkpt lat="38.97518055650997" lon="16.305643237202187"><ele>313.0</ele><time>2026-04-27T14:09:24Z</time></trkpt><trkpt lat="38.975146405961134" lon="16.305744151452185"><ele>313.0</ele><time>2026-04-27T14:09:25Z</time></trkpt><trkpt lat="38.975121445755356" lon="16.30584066093944"><ele>313.0</ele><time>2026-04-27T14:09:26Z</time></trkpt><trkpt lat="38.9750892774382" lon="16.305928656785316"><ele>313.6</ele><time>2026-04-27T14:09:27Z</time></trkpt><trkpt lat="38.97505389015281" lon="16.306018087871113"><ele>314.20000000000005</ele><time>2026-04-27T14:09:28Z</time></trkpt><trkpt lat="38.97501059973503" lon="16.30611472435351"><ele>314.8</ele><time>2026-04-27T14:09:29Z</time></trkpt><trkpt lat="38.9749701847448" lon="16.306224226079596"><ele>315.40000000000003</ele><time>2026-04-27T14:09:30Z</time></trkpt><trkpt lat="38.97494817158018" lon="16.306389060684758"><ele>316.0</ele><time>2026-04-27T14:09:31Z</time></trkpt><trkpt lat="38.97494917161589" lon="16.306554482780836"><ele>311.40000000000003</ele><time>2026-04-27T14:09:32Z</time></trkpt><trkpt lat="38.974961773692456" lon="16.306708503536477"><ele>306.8</ele><time>2026-04-27T14:09:33Z</time></trkpt><trkpt lat="38.97497060021915" lon="16.30684303293018"><ele>302.20000000000005</ele><time>2026-04-27T14:09:34Z</time></trkpt><trkpt lat="38.974979268756925" lon="16.306975154362426"><ele>297.6</ele><time>2026-04-27T14:09:35Z</time></trkpt><trkpt lat="38.97498840468615" lon="16.30712422128307"><ele>293.0</ele><time>2026-04-27T14:09:36Z</time></trkpt><trkpt lat="38.97499372415611" lon="16.307279260638676"><ele>291.75</ele><time>2026-04-27T14:09:37Z</time></trkpt><trkpt lat="38.974995136334606" lon="16.30743224818904"><ele>290.5</ele><time>2026-04-27T14:09:37.999Z</time></trkpt><trkpt lat="38.97499513633354" lon="16.307589580130617"><ele>289.25</ele><time>2026-04-27T14:09:38.999Z</time></trkpt><trkpt lat="38.9749958007558" lon="16.30775303625382"><ele>288.0</ele><time>2026-04-27T14:09:39.999Z</time></trkpt><trkpt lat="38.97499884603903" lon="16.307909651019404"><ele>288.0</ele><time>2026-04-27T14:09:40.999Z</time></trkpt><trkpt lat="38.97499702375092" lon="16.30806150634351"><ele>288.0</ele><time>2026-04-27T14:09:41.999Z</time></trkpt><trkpt lat="38.974978393259626" lon="16.308204168751704"><ele>288.0</ele><time>2026-04-27T14:09:42.999Z</time></trkpt><trkpt lat="38.974949686358826" lon="16.308346309095743"><ele>288.0</ele><time>2026-04-27T14:09:43.999Z</time></trkpt><trkpt lat="38.97491745582602" lon="16.3085005869622"><ele>286.75</ele><time>2026-04-27T14:09:44.999Z</time></trkpt><trkpt lat="38.97489335818918" lon="16.30865128618546"><ele>285.5</ele><time>2026-04-27T14:09:45.999Z</time></trkpt><trkpt lat="38.97488363631237" lon="16.308820352174852"><ele>284.25</ele><time>2026-04-27T14:09:46.999Z</time></trkpt><trkpt lat="38.97489682125271" lon="16.30900419606895"><ele>283.0</ele><time>2026-04-27T14:09:47.999Z</time></trkpt><trkpt lat="38.97492758971928" lon="16.309192770104552"><ele>283.0</ele><time>2026-04-27T14:09:48.999Z</time></trkpt><trkpt lat="38.97497269685342" lon="16.309358127506624"><ele>283.0</ele><time>2026-04-27T14:09:49.999Z</time></trkpt><trkpt lat="38.97501425840521" lon="16.30949906871071"><ele>283.0</ele><time>2026-04-27T14:09:50.999Z</time></trkpt><trkpt lat="38.97506092782837" lon="16.309641634287605"><ele>283.0</ele><time>2026-04-27T14:09:52Z</time></trkpt><trkpt lat="38.975134592031644" lon="16.309794704542558"><ele>283.0</ele><time>2026-04-27T14:09:53Z</time></trkpt><trkpt lat="38.9752149515308" lon="16.309917172266"><ele>283.0</ele><time>2026-04-27T14:09:54Z</time></trkpt><trkpt lat="38.975281899327584" lon="16.310027194808733"><ele>283.0</ele><time>2026-04-27T14:09:55Z</time></trkpt><trkpt lat="38.97533165420014" lon="16.310112914827528"><ele>283.0</ele><time>2026-04-27T14:09:56Z</time></trkpt><trkpt lat="38.97537018723661" lon="16.310188578837487"><ele>283.0</ele><time>2026-04-27T14:09:58Z</time></trkpt><trkpt lat="38.97521928797941" lon="16.31019399990699"><ele>283.0</ele><time>2026-04-27T14:10:01Z</time></trkpt><trkpt lat="38.975106963427045" lon="16.310150726440515"><ele>283.0</ele><time>2026-04-27T14:10:02Z</time></trkpt><trkpt lat="38.97498653436171" lon="16.31012155991424"><ele>283.0</ele><time>2026-04-27T14:10:03Z</time></trkpt><trkpt lat="38.974870151583985" lon="16.310121732126994"><ele>283.0</ele><time>2026-04-27T14:10:04Z</time></trkpt><trkpt lat="38.97475916822264" lon="16.31012498513836"><ele>280.4</ele><time>2026-04-27T14:10:05Z</time></trkpt><trkpt lat="38.97465672092416" lon="16.310105915336155"><ele>277.8</ele><time>2026-04-27T14:10:06Z</time></trkpt><trkpt lat="38.974558536864926" lon="16.310063127757612"><ele>275.2</ele><time>2026-04-27T14:10:07Z</time></trkpt><trkpt lat="38.974461590677805" lon="16.310002736415253"><ele>272.6</ele><time>2026-04-27T14:10:08Z</time></trkpt><trkpt lat="38.97439917037471" lon="16.309949328041302"><ele>270.0</ele><time>2026-04-27T14:10:09Z</time></trkpt><trkpt lat="38.97429926611632" lon="16.309920578688104"><ele>267.0</ele><time>2026-04-27T14:10:11Z</time></trkpt><trkpt lat="38.97413921050209" lon="16.30999174000325"><ele>264.0</ele><time>2026-04-27T14:10:13Z</time></trkpt><trkpt lat="38.97405320451766" lon="16.310079008162308"><ele>261.0</ele><time>2026-04-27T14:10:14Z</time></trkpt><trkpt lat="38.97397256257356" lon="16.31015906194412"><ele>258.0</ele><time>2026-04-27T14:10:15Z</time></trkpt><trkpt lat="38.97389940101304" lon="16.310231689904995"><ele>258.0</ele><time>2026-04-27T14:10:16Z</time></trkpt><trkpt lat="38.97382965233527" lon="16.310300929876725"><ele>258.0</ele><time>2026-04-27T14:10:17Z</time></trkpt><trkpt lat="38.97375683247496" lon="16.310373218628474"><ele>258.0</ele><time>2026-04-27T14:10:18Z</time></trkpt><trkpt lat="38.973678819639005" lon="16.310450599423753"><ele>258.0</ele><time>2026-04-27T14:10:19Z</time></trkpt><trkpt lat="38.9736001147542" lon="16.310528662817582"><ele>258.0</ele><time>2026-04-27T14:10:20Z</time></trkpt><trkpt lat="38.97352723629016" lon="16.310601364867914"><ele>255.33333333333334</ele><time>2026-04-27T14:10:21Z</time></trkpt><trkpt lat="38.97345354337554" lon="16.31067492595178"><ele>252.66666666666669</ele><time>2026-04-27T14:10:22Z</time></trkpt><trkpt lat="38.97337782488371" lon="16.31075050898327"><ele>250.0</ele><time>2026-04-27T14:10:23Z</time></trkpt><trkpt lat="38.97330639137003" lon="16.310821873253367"><ele>247.33333333333334</ele><time>2026-04-27T14:10:24Z</time></trkpt><trkpt lat="38.97324264328386" lon="16.310886045108656"><ele>244.66666666666669</ele><time>2026-04-27T14:10:25Z</time></trkpt><trkpt lat="38.9731777259564" lon="16.31095219975031"><ele>242.0</ele><time>2026-04-27T14:10:26Z</time></trkpt><trkpt lat="38.973114387852696" lon="16.311014568100877"><ele>241.28571428571428</ele><time>2026-04-27T14:10:27Z</time></trkpt><trkpt lat="38.973060477147776" lon="16.31106663827818"><ele>240.57142857142856</ele><time>2026-04-27T14:10:28Z</time></trkpt><trkpt lat="38.973001912240754" lon="16.311123203755216"><ele>239.85714285714283</ele><time>2026-04-27T14:10:29Z</time></trkpt><trkpt lat="38.97293854744017" lon="16.311184405261454"><ele>239.1428571428571</ele><time>2026-04-27T14:10:30Z</time></trkpt><trkpt lat="38.97288199280127" lon="16.311239029104048"><ele>238.42857142857142</ele><time>2026-04-27T14:10:31Z</time></trkpt><trkpt lat="38.9728285285908" lon="16.31129066799694"><ele>237.71428571428567</ele><time>2026-04-27T14:10:32Z</time></trkpt><trkpt lat="38.972770540795345" lon="16.311346675925503"><ele>236.99999999999997</ele><time>2026-04-27T14:10:33Z</time></trkpt><trkpt lat="38.9727208736555" lon="16.311405244484767"><ele>235.83333333333334</ele><time>2026-04-27T14:10:34Z</time></trkpt><trkpt lat="38.9726677752949" lon="16.311456096988717"><ele>234.66666666666669</ele><time>2026-04-27T14:10:35Z</time></trkpt><trkpt lat="38.97261289161931" lon="16.311510131240972"><ele>233.5</ele><time>2026-04-27T14:10:36Z</time></trkpt><trkpt lat="38.97255104122363" lon="16.31157102438914"><ele>232.33333333333334</ele><time>2026-04-27T14:10:37Z</time></trkpt><trkpt lat="38.97248908382401" lon="16.31163194565579"><ele>231.16666666666669</ele><time>2026-04-27T14:10:38Z</time></trkpt><trkpt lat="38.97243403881299" lon="16.311686066653188"><ele>230.0</ele><time>2026-04-27T14:10:39Z</time></trkpt><trkpt lat="38.97233346792757" lon="16.311784949292523"><ele>229.85714285714283</ele><time>2026-04-27T14:10:41Z</time></trkpt><trkpt lat="38.972282573273475" lon="16.31183498959815"><ele>229.71428571428572</ele><time>2026-04-27T14:10:42Z</time></trkpt><trkpt lat="38.97223043212078" lon="16.311886475616173"><ele>229.57142857142856</ele><time>2026-04-27T14:10:43Z</time></trkpt><trkpt lat="38.97217723992534" lon="16.311960897428545"><ele>229.42857142857142</ele><time>2026-04-27T14:10:45Z</time></trkpt><trkpt lat="38.972115155050226" lon="16.311861904629392"><ele>229.28571428571428</ele><time>2026-04-27T14:10:48Z</time></trkpt><trkpt lat="38.97208579444269" lon="16.311779608213037"><ele>229.14285714285714</ele><time>2026-04-27T14:10:50Z</time></trkpt><trkpt lat="38.97205027343841" lon="16.311709715892167"><ele>229.0</ele><time>2026-04-27T14:10:56Z</time></trkpt><trkpt lat="38.97200445852501" lon="16.311650152719587"><ele>228.99999999999997</ele><time>2026-04-27T14:11:00Z</time></trkpt><trkpt lat="38.97194657173392" lon="16.311599212534517"><ele>229.0</ele><time>2026-04-27T14:11:07Z</time></trkpt><trkpt lat="38.97204949938509" lon="16.311495312725523"><ele>229.0</ele><time>2026-04-27T14:12:57.807Z</time></trkpt><trkpt lat="38.972009543684905" lon="16.311586942602894"><ele>229.0</ele><time>2026-04-27T14:15:23.014Z</time></trkpt><trkpt lat="38.97194792084553" lon="16.31156593756063"><ele>228.99999999999997</ele><time>2026-04-27T14:15:44.014Z</time></trkpt><trkpt lat="38.97190061127642" lon="16.3116395999769"><ele>229.0</ele><time>2026-04-27T14:15:55.015Z</time></trkpt><trkpt lat="38.971909915967004" lon="16.31150645616881"><ele>228.99999999999997</ele><time>2026-04-27T14:32:54Z</time></trkpt><trkpt lat="38.971843059974795" lon="16.31153568077301"><ele>229.0</ele><time>2026-04-27T14:32:59Z</time></trkpt><trkpt lat="38.97175291434349" lon="16.311583353473022"><ele>229.0</ele><time>2026-04-27T14:33:01Z</time></trkpt><trkpt lat="38.97170141383001" lon="16.311643638170615"><ele>229.0</ele><time>2026-04-27T14:33:03Z</time></trkpt><trkpt lat="38.97164150282383" lon="16.311704345271025"><ele>228.99999999999997</ele><time>2026-04-27T14:33:06Z</time></trkpt><trkpt lat="38.971564333086796" lon="16.31174005883845"><ele>229.0</ele><time>2026-04-27T14:33:23.001Z</time></trkpt><trkpt lat="38.97144609313862" lon="16.311735610929087"><ele>228.0</ele><time>2026-04-27T14:33:25.001Z</time></trkpt><trkpt lat="38.97137956827015" lon="16.31175919629641"><ele>227.0</ele><time>2026-04-27T14:33:27.001Z</time></trkpt><trkpt lat="38.97132029562074" lon="16.311819353817093"><ele>226.0</ele><time>2026-04-27T14:33:29.001Z</time></trkpt><trkpt lat="38.97124599886978" lon="16.311881456706075"><ele>225.0</ele><time>2026-04-27T14:33:31.001Z</time></trkpt><trkpt lat="38.97127375348418" lon="16.311955987963902"><ele>224.0</ele><time>2026-04-27T14:33:33.001Z</time></trkpt><trkpt lat="38.97131160003675" lon="16.312043162388953"><ele>223.0</ele><time>2026-04-27T14:33:37.001Z</time></trkpt><trkpt lat="38.97124458640958" lon="16.31200979431764"><ele>222.0</ele><time>2026-04-27T14:33:42.001Z</time></trkpt><trkpt lat="38.97118144632393" lon="16.312070153261082"><ele>222.0</ele><time>2026-04-27T14:33:48.001Z</time></trkpt><trkpt lat="38.97111946936979" lon="16.312158054632903"><ele>222.0</ele><time>2026-04-27T14:33:52.001Z</time></trkpt><trkpt lat="38.97110071753705" lon="16.312236428204056"><ele>222.0</ele><time>2026-04-27T14:33:55.001Z</time></trkpt><trkpt lat="38.97110767612175" lon="16.312327189130063"><ele>222.0</ele><time>2026-04-27T14:33:58.001Z</time></trkpt><trkpt lat="38.971140769802716" lon="16.31243269323218"><ele>222.0</ele><time>2026-04-27T14:34:00.001Z</time></trkpt><trkpt lat="38.97118527689682" lon="16.31250289275775"><ele>222.0</ele><time>2026-04-27T14:34:01Z</time></trkpt><trkpt lat="38.97122094488562" lon="16.312591091447928"><ele>221.83333333333334</ele><time>2026-04-27T14:34:02Z</time></trkpt><trkpt lat="38.971243514794324" lon="16.312667361570032"><ele>221.66666666666669</ele><time>2026-04-27T14:34:03Z</time></trkpt><trkpt lat="38.971276672015215" lon="16.312759265235847"><ele>221.5</ele><time>2026-04-27T14:34:05Z</time></trkpt><trkpt lat="38.971291010748075" lon="16.312861746118923"><ele>221.33333333333334</ele><time>2026-04-27T14:34:08Z</time></trkpt><trkpt lat="38.97137555069558" lon="16.312845488849103"><ele>221.16666666666669</ele><time>2026-04-27T14:34:11Z</time></trkpt><trkpt lat="38.971437201607706" lon="16.312777746075874"><ele>221.0</ele><time>2026-04-27T14:34:12Z</time></trkpt><trkpt lat="38.97150422472016" lon="16.312692757575107"><ele>221.0</ele><time>2026-04-27T14:34:13Z</time></trkpt><trkpt lat="38.97156365937279" lon="16.312607624839554"><ele>221.00000000000003</ele><time>2026-04-27T14:34:14Z</time></trkpt><trkpt lat="38.97165874891883" lon="16.312491349001927"><ele>221.00000000000003</ele><time>2026-04-27T14:34:16Z</time></trkpt><trkpt lat="38.97174606468468" lon="16.31240513685719"><ele>221.0</ele><time>2026-04-27T14:34:18Z</time></trkpt><trkpt lat="38.97180762136758" lon="16.312344358314938"><ele>221.0</ele><time>2026-04-27T14:34:21Z</time></trkpt><trkpt lat="38.97184912254583" lon="16.312281542543193"><ele>221.16666666666669</ele><time>2026-04-27T14:34:23Z</time></trkpt><trkpt lat="38.97175160152279" lon="16.312286285671522"><ele>221.33333333333334</ele><time>2026-04-27T14:34:25Z</time></trkpt><trkpt lat="38.971705663127025" lon="16.31219155039697"><ele>221.5</ele><time>2026-04-27T14:34:27Z</time></trkpt><trkpt lat="38.971667486074395" lon="16.31211687877955"><ele>221.66666666666669</ele><time>2026-04-27T14:34:28Z</time></trkpt><trkpt lat="38.97162690426194" lon="16.312037503567222"><ele>221.83333333333334</ele><time>2026-04-27T14:34:29Z</time></trkpt><trkpt lat="38.97156619822193" lon="16.31191980680106"><ele>222.0</ele><time>2026-04-27T14:34:31Z</time></trkpt><trkpt lat="38.97151520801103" lon="16.311824545755865"><ele>222.0</ele><time>2026-04-27T14:34:33Z</time></trkpt><trkpt lat="38.97147156821284" lon="16.311739713297687"><ele>222.0</ele><time>2026-04-27T14:34:36Z</time></trkpt><trkpt lat="38.97143328898894" lon="16.311674330160677"><ele>222.0</ele><time>2026-04-27T14:34:48Z</time></trkpt><trkpt lat="38.97139442841787" lon="16.311552325089732"><ele>222.0</ele><time>2026-04-27T14:34:51Z</time></trkpt><trkpt lat="38.97138492049777" lon="16.31145958485618"><ele>222.0</ele><time>2026-04-27T14:34:53Z</time></trkpt><trkpt lat="38.971376586472054" lon="16.311378294660983"><ele>222.0</ele><time>2026-04-27T14:34:54Z</time></trkpt><trkpt lat="38.971365847054194" lon="16.311273542382857"><ele>222.16666666666666</ele><time>2026-04-27T14:34:55Z</time></trkpt><trkpt lat="38.971394758300214" lon="16.311185197393684"><ele>222.33333333333331</ele><time>2026-04-27T14:34:56Z</time></trkpt><trkpt lat="38.971367638869474" lon="16.31110575892956"><ele>222.5</ele><time>2026-04-27T14:34:57Z</time></trkpt><trkpt lat="38.971330018666436" lon="16.310989077890298"><ele>222.66666666666666</ele><time>2026-04-27T14:34:59Z</time></trkpt><trkpt lat="38.971285270571165" lon="16.31088841137499"><ele>222.83333333333331</ele><time>2026-04-27T14:35:01Z</time></trkpt><trkpt lat="38.97124568675192" lon="16.31078500224071"><ele>223.0</ele><time>2026-04-27T14:35:03Z</time></trkpt><trkpt lat="38.97121547195166" lon="16.310700351269617"><ele>222.99999999999997</ele><time>2026-04-27T14:35:04Z</time></trkpt><trkpt lat="38.97117811902479" lon="16.310596645911865"><ele>223.0</ele><time>2026-04-27T14:35:05Z</time></trkpt><trkpt lat="38.97115367359553" lon="16.31049291593342"><ele>223.0</ele><time>2026-04-27T14:35:06Z</time></trkpt><trkpt lat="38.97110817888962" lon="16.31039930539933"><ele>223.0</ele><time>2026-04-27T14:35:07Z</time></trkpt><trkpt lat="38.971071137885986" lon="16.31028462178939"><ele>222.99999999999997</ele><time>2026-04-27T14:35:08Z</time></trkpt><trkpt lat="38.97103011853459" lon="16.310197066971547"><ele>223.0</ele><time>2026-04-27T14:35:09Z</time></trkpt><trkpt lat="38.97099654777003" lon="16.310104669442538"><ele>223.16666666666666</ele><time>2026-04-27T14:35:10Z</time></trkpt><trkpt lat="38.97097049155571" lon="16.31000041074895"><ele>223.33333333333331</ele><time>2026-04-27T14:35:11Z</time></trkpt><trkpt lat="38.97095196109533" lon="16.309901666179282"><ele>223.5</ele><time>2026-04-27T14:35:12Z</time></trkpt><trkpt lat="38.97093894096149" lon="16.30981171354104"><ele>223.66666666666669</ele><time>2026-04-27T14:35:13Z</time></trkpt><trkpt lat="38.970885706981036" lon="16.30974700531376"><ele>223.83333333333334</ele><time>2026-04-27T14:35:14Z</time></trkpt><trkpt lat="38.97083807182815" lon="16.309676820633936"><ele>224.0</ele><time>2026-04-27T14:35:15Z</time></trkpt><trkpt lat="38.97076646237138" lon="16.309582409944053"><ele>221.83333333333334</ele><time>2026-04-27T14:35:16Z</time></trkpt><trkpt lat="38.97067778173896" lon="16.309525359148186"><ele>219.66666666666669</ele><time>2026-04-27T14:35:17Z</time></trkpt><trkpt lat="38.970597091371914" lon="16.309488774857762"><ele>217.5</ele><time>2026-04-27T14:35:18Z</time></trkpt><trkpt lat="38.97052332503504" lon="16.309459389531643"><ele>215.33333333333331</ele><time>2026-04-27T14:35:19Z</time></trkpt><trkpt lat="38.970450470372114" lon="16.30943061644086"><ele>213.16666666666666</ele><time>2026-04-27T14:35:20Z</time></trkpt><trkpt lat="38.97037029243453" lon="16.309400017190647"><ele>211.0</ele><time>2026-04-27T14:35:21.001Z</time></trkpt><trkpt lat="38.97029736284635" lon="16.30937255605485"><ele>210.99999999999997</ele><time>2026-04-27T14:35:22.001Z</time></trkpt><trkpt lat="38.970220275125456" lon="16.30934216842231"><ele>211.0</ele><time>2026-04-27T14:35:23.001Z</time></trkpt><trkpt lat="38.97014435403835" lon="16.309312240673247"><ele>211.0</ele><time>2026-04-27T14:35:24.001Z</time></trkpt><trkpt lat="38.97006994562739" lon="16.30928290921671"><ele>211.0</ele><time>2026-04-27T14:35:25.001Z</time></trkpt><trkpt lat="38.969996105502716" lon="16.309255379497202"><ele>210.99999999999997</ele><time>2026-04-27T14:35:26.001Z</time></trkpt><trkpt lat="38.96992407438304" lon="16.30923112831731"><ele>211.0</ele><time>2026-04-27T14:35:27.001Z</time></trkpt><trkpt lat="38.96985989267124" lon="16.309212481084298"><ele>209.8</ele><time>2026-04-27T14:35:28.001Z</time></trkpt><trkpt lat="38.9697889561899" lon="16.30919237367918"><ele>208.60000000000002</ele><time>2026-04-27T14:35:29.001Z</time></trkpt><trkpt lat="38.969685996315064" lon="16.309167088060022"><ele>207.4</ele><time>2026-04-27T14:35:31.001Z</time></trkpt><trkpt lat="38.969602447356436" lon="16.309179832952488"><ele>206.2</ele><time>2026-04-27T14:35:34.001Z</time></trkpt><trkpt lat="38.96950095053118" lon="16.309157706339256"><ele>205.0</ele><time>2026-04-27T14:35:37.001Z</time></trkpt><trkpt lat="38.969429112718295" lon="16.309224622923775"><ele>205.0</ele><time>2026-04-27T14:35:39.001Z</time></trkpt><trkpt lat="38.96938430014407" lon="16.309371315579234"><ele>205.0</ele><time>2026-04-27T14:35:41.001Z</time></trkpt><trkpt lat="38.96927062064342" lon="16.30939017042376"><ele>205.0</ele><time>2026-04-27T14:35:42.001Z</time></trkpt><trkpt lat="38.96923276154816" lon="16.309494348679234"><ele>205.0</ele><time>2026-04-27T14:35:44.001Z</time></trkpt><trkpt lat="38.969202562373276" lon="16.309577448853506"><ele>205.0</ele><time>2026-04-27T14:35:46.001Z</time></trkpt><trkpt lat="38.96916510465656" lon="16.309680522621782"><ele>204.66666666666666</ele><time>2026-04-27T14:35:48.001Z</time></trkpt><trkpt lat="38.969132795005514" lon="16.30976943028599"><ele>204.33333333333331</ele><time>2026-04-27T14:35:51Z</time></trkpt><trkpt lat="38.9690939504924" lon="16.309876320180248"><ele>204.0</ele><time>2026-04-27T14:35:53Z</time></trkpt><trkpt lat="38.969056176824864" lon="16.30998038582602"><ele>203.66666666666669</ele><time>2026-04-27T14:35:54Z</time></trkpt><trkpt lat="38.96902334062496" lon="16.31007287572362"><ele>203.33333333333334</ele><time>2026-04-27T14:35:55Z</time></trkpt><trkpt lat="38.96899378724327" lon="16.310156118881444"><ele>203.0</ele><time>2026-04-27T14:35:56Z</time></trkpt><trkpt lat="38.96896738267336" lon="16.310230492777094"><ele>203.00000000000003</ele><time>2026-04-27T14:35:57Z</time></trkpt><trkpt lat="38.96893431085265" lon="16.31032364635348"><ele>203.0</ele><time>2026-04-27T14:35:58Z</time></trkpt><trkpt lat="38.96889875500457" lon="16.31042379671111"><ele>203.0</ele><time>2026-04-27T14:35:59Z</time></trkpt><trkpt lat="38.968864529771004" lon="16.310520199104467"><ele>203.0</ele><time>2026-04-27T14:36:00Z</time></trkpt><trkpt lat="38.968833494498895" lon="16.310607616320997"><ele>203.00000000000003</ele><time>2026-04-27T14:36:01Z</time></trkpt><trkpt lat="38.9687990035668" lon="16.31070481389737"><ele>203.0</ele><time>2026-04-27T14:36:03Z</time></trkpt><trkpt lat="38.968767766349124" lon="16.310796734673378"><ele>203.60000000000002</ele><time>2026-04-27T14:36:06Z</time></trkpt><trkpt lat="38.968740376040714" lon="16.310877335269865"><ele>204.20000000000002</ele><time>2026-04-27T14:36:07Z</time></trkpt><trkpt lat="38.96869697682961" lon="16.31101424907133"><ele>204.8</ele><time>2026-04-27T14:36:09Z</time></trkpt><trkpt lat="38.968707191263036" lon="16.311116641401888"><ele>205.4</ele><time>2026-04-27T14:36:11Z</time></trkpt><trkpt lat="38.96861477543066" lon="16.311084840778943"><ele>206.0</ele><time>2026-04-27T14:36:13Z</time></trkpt><trkpt lat="38.96852764860466" lon="16.31103398946374"><ele>206.0</ele><time>2026-04-27T14:36:15Z</time></trkpt><trkpt lat="38.96845186612204" lon="16.310975254105962"><ele>206.0</ele><time>2026-04-27T14:36:17Z</time></trkpt><trkpt lat="38.96838107884491" lon="16.310929013342037"><ele>206.0</ele><time>2026-04-27T14:36:19Z</time></trkpt><trkpt lat="38.968293859618704" lon="16.31090496021786"><ele>206.0</ele><time>2026-04-27T14:36:21Z</time></trkpt><trkpt lat="38.968192990331076" lon="16.310890853264727"><ele>206.0</ele><time>2026-04-27T14:36:23Z</time></trkpt><trkpt lat="38.96808073576814" lon="16.31089043427812"><ele>205.00000000000003</ele><time>2026-04-27T14:36:25Z</time></trkpt><trkpt lat="38.96801420650393" lon="16.310895512796353"><ele>204.0</ele><time>2026-04-27T14:36:26Z</time></trkpt><trkpt lat="38.967885094247336" lon="16.31089136042938"><ele>203.0</ele><time>2026-04-27T14:36:28Z</time></trkpt><trkpt lat="38.96781324024051" lon="16.310890637274564"><ele>202.0</ele><time>2026-04-27T14:36:29Z</time></trkpt><trkpt lat="38.967745316949944" lon="16.310890413308012"><ele>201.00000000000003</ele><time>2026-04-27T14:36:30Z</time></trkpt><trkpt lat="38.96768387815548" lon="16.310868540136923"><ele>200.0</ele><time>2026-04-27T14:36:31Z</time></trkpt><trkpt lat="38.96755648207344" lon="16.310868185265626"><ele>198.8</ele><time>2026-04-27T14:36:33Z</time></trkpt><trkpt lat="38.967479979781324" lon="16.31086781730482"><ele>197.6</ele><time>2026-04-27T14:36:34Z</time></trkpt><trkpt lat="38.96738495884292" lon="16.310867410295355"><ele>196.39999999999998</ele><time>2026-04-27T14:36:35Z</time></trkpt><trkpt lat="38.967272594015974" lon="16.31086692899452"><ele>195.2</ele><time>2026-04-27T14:36:36Z</time></trkpt><trkpt lat="38.96714504141153" lon="16.310866753519228"><ele>194.0</ele><time>2026-04-27T14:36:37Z</time></trkpt><trkpt lat="38.96702081279504" lon="16.31086531645555"><ele>194.0</ele><time>2026-04-27T14:36:38Z</time></trkpt><trkpt lat="38.96691122190615" lon="16.310849228156258"><ele>194.0</ele><time>2026-04-27T14:36:39Z</time></trkpt><trkpt lat="38.9668048586057" lon="16.310840330036974"><ele>194.0</ele><time>2026-04-27T14:36:40Z</time></trkpt><trkpt lat="38.96670966722178" lon="16.310787706531304"><ele>194.0</ele><time>2026-04-27T14:36:41Z</time></trkpt><trkpt lat="38.966635099011754" lon="16.31074090978869"><ele>194.0</ele><time>2026-04-27T14:36:42Z</time></trkpt><trkpt lat="38.966564472879696" lon="16.310709702367877"><ele>193.39999999999998</ele><time>2026-04-27T14:36:43Z</time></trkpt><trkpt lat="38.9664570044206" lon="16.310711125719102"><ele>192.8</ele><time>2026-04-27T14:36:45Z</time></trkpt><trkpt lat="38.96636955447162" lon="16.310721389975452"><ele>192.2</ele><time>2026-04-27T14:36:47Z</time></trkpt><trkpt lat="38.96634794939801" lon="16.31056995353731"><ele>191.60000000000002</ele><time>2026-04-27T14:36:49Z</time></trkpt><trkpt lat="38.966262691261555" lon="16.310665360574678"><ele>191.0</ele><time>2026-04-27T14:36:51Z</time></trkpt><trkpt lat="38.96629807429379" lon="16.310544187707908"><ele>191.0</ele><time>2026-04-27T14:36:55Z</time></trkpt><trkpt lat="38.96621152953918" lon="16.310665685181284"><ele>191.0</ele><time>2026-04-27T14:38:02Z</time></trkpt><trkpt lat="38.966155843936455" lon="16.310617604046474"><ele>191.0</ele><time>2026-04-27T14:38:39Z</time></trkpt><trkpt lat="38.96607623741716" lon="16.310665212053596"><ele>191.0</ele><time>2026-04-27T14:38:51Z</time></trkpt><trkpt lat="38.96612725234042" lon="16.3105992584583"><ele>191.0</ele><time>2026-04-27T14:39:54Z</time></trkpt><trkpt lat="38.96610306994331" lon="16.31050375443049"><ele>191.0</ele><time>2026-04-27T14:40:06Z</time></trkpt><trkpt lat="38.96598931530958" lon="16.31036812192384"><ele>191.0</ele><time>2026-04-27T14:40:08Z</time></trkpt><trkpt lat="38.96588246105672" lon="16.310296838221028"><ele>191.0</ele><time>2026-04-27T14:40:09Z</time></trkpt><trkpt lat="38.965765074009965" lon="16.31022850861859"><ele>191.0</ele><time>2026-04-27T14:40:10Z</time></trkpt><trkpt lat="38.9656241089187" lon="16.310174798939585"><ele>191.0</ele><time>2026-04-27T14:40:11Z</time></trkpt><trkpt lat="38.96550234808737" lon="16.310117639758143"><ele>190.0</ele><time>2026-04-27T14:40:12Z</time></trkpt><trkpt lat="38.965366424174675" lon="16.3100449711151"><ele>189.0</ele><time>2026-04-27T14:40:13Z</time></trkpt><trkpt lat="38.96522587559738" lon="16.30996891431882"><ele>188.0</ele><time>2026-04-27T14:40:14Z</time></trkpt><trkpt lat="38.96510190185514" lon="16.309900687968927"><ele>187.0</ele><time>2026-04-27T14:40:15Z</time></trkpt><trkpt lat="38.96498813766649" lon="16.30983536377273"><ele>186.0</ele><time>2026-04-27T14:40:16Z</time></trkpt><trkpt lat="38.96487834317113" lon="16.3097789831024"><ele>185.0</ele><time>2026-04-27T14:40:17Z</time></trkpt><trkpt lat="38.96477646919769" lon="16.309720256902683"><ele>184.0</ele><time>2026-04-27T14:40:18Z</time></trkpt><trkpt lat="38.96467133660596" lon="16.309672080648305"><ele>183.0</ele><time>2026-04-27T14:40:19Z</time></trkpt><trkpt lat="38.96457433022729" lon="16.309634668433656"><ele>182.0</ele><time>2026-04-27T14:40:20Z</time></trkpt><trkpt lat="38.96447049125217" lon="16.309603186739245"><ele>181.6</ele><time>2026-04-27T14:40:21Z</time></trkpt><trkpt lat="38.96435420039245" lon="16.30957555876758"><ele>181.2</ele><time>2026-04-27T14:40:22Z</time></trkpt><trkpt lat="38.96424276023198" lon="16.30956448227"><ele>180.8</ele><time>2026-04-27T14:40:23Z</time></trkpt><trkpt lat="38.96413439168903" lon="16.309568079942228"><ele>180.4</ele><time>2026-04-27T14:40:24Z</time></trkpt><trkpt lat="38.964028211578594" lon="16.30956403430412"><ele>180.0</ele><time>2026-04-27T14:40:25Z</time></trkpt><trkpt lat="38.96393237908045" lon="16.30959933011387"><ele>178.83333333333334</ele><time>2026-04-27T14:40:26Z</time></trkpt><trkpt lat="38.9638329021659" lon="16.309613394502605"><ele>177.66666666666666</ele><time>2026-04-27T14:40:27Z</time></trkpt><trkpt lat="38.96374537016202" lon="16.309622847317403"><ele>176.5</ele><time>2026-04-27T14:40:28Z</time></trkpt><trkpt lat="38.96366361631021" lon="16.309621665824032"><ele>175.33333333333331</ele><time>2026-04-27T14:40:29Z</time></trkpt><trkpt lat="38.96358491067486" lon="16.309604995949428"><ele>174.16666666666666</ele><time>2026-04-27T14:40:30Z</time></trkpt><trkpt lat="38.963509520350705" lon="16.309572006009446"><ele>173.0</ele><time>2026-04-27T14:40:31Z</time></trkpt><trkpt lat="38.96342142793437" lon="16.309546996489367"><ele>172.16666666666666</ele><time>2026-04-27T14:40:32Z</time></trkpt><trkpt lat="38.96336221561737" lon="16.309492827985135"><ele>171.33333333333331</ele><time>2026-04-27T14:40:33Z</time></trkpt><trkpt lat="38.96330264808622" lon="16.309441524474305"><ele>170.5</ele><time>2026-04-27T14:40:34Z</time></trkpt><trkpt lat="38.96324553600226" lon="16.309378422306725"><ele>169.66666666666666</ele><time>2026-04-27T14:40:35Z</time></trkpt><trkpt lat="38.96319643456663" lon="16.30930412860096"><ele>168.83333333333334</ele><time>2026-04-27T14:40:36Z</time></trkpt><trkpt lat="38.96313440019496" lon="16.309222393422928"><ele>168.0</ele><time>2026-04-27T14:40:37Z</time></trkpt><trkpt lat="38.96308393803243" lon="16.309140254735944"><ele>168.0</ele><time>2026-04-27T14:40:38Z</time></trkpt><trkpt lat="38.96300851785056" lon="16.309112330881373"><ele>168.0</ele><time>2026-04-27T14:40:39Z</time></trkpt><trkpt lat="38.96293921696532" lon="16.309113702234235"><ele>168.0</ele><time>2026-04-27T14:40:40Z</time></trkpt><trkpt lat="38.962830459838734" lon="16.30914421557155"><ele>168.0</ele><time>2026-04-27T14:40:42Z</time></trkpt><trkpt lat="38.96277343299054" lon="16.309236295253097"><ele>168.0</ele><time>2026-04-27T14:40:43Z</time></trkpt><trkpt lat="38.96275763822599" lon="16.30933484261842"><ele>168.0</ele><time>2026-04-27T14:40:44Z</time></trkpt><trkpt lat="38.962768594957964" lon="16.30944218717452"><ele>168.0</ele><time>2026-04-27T14:40:45Z</time></trkpt><trkpt lat="38.96275855421974" lon="16.309535733907676"><ele>168.0</ele><time>2026-04-27T14:40:46Z</time></trkpt><trkpt lat="38.962764722199445" lon="16.30964665356942"><ele>168.0</ele><time>2026-04-27T14:40:47Z</time></trkpt><trkpt lat="38.96274993439574" lon="16.309756449202997"><ele>168.0</ele><time>2026-04-27T14:40:48Z</time></trkpt><trkpt lat="38.96270925404039" lon="16.3098818993597"><ele>168.0</ele><time>2026-04-27T14:40:49Z</time></trkpt><trkpt lat="38.962653989311065" lon="16.31004454651925"><ele>168.0</ele><time>2026-04-27T14:40:50Z</time></trkpt><trkpt lat="38.962587247943404" lon="16.31023415009256"><ele>168.0</ele><time>2026-04-27T14:40:51Z</time></trkpt><trkpt lat="38.96252395029504" lon="16.310413866695956"><ele>168.0</ele><time>2026-04-27T14:40:52Z</time></trkpt><trkpt lat="38.962460733644605" lon="16.31059335327593"><ele>168.0</ele><time>2026-04-27T14:40:53Z</time></trkpt><trkpt lat="38.96239604496782" lon="16.310777019354894"><ele>168.0</ele><time>2026-04-27T14:40:54Z</time></trkpt><trkpt lat="38.96232659410507" lon="16.310974206455853"><ele>168.0</ele><time>2026-04-27T14:40:55Z</time></trkpt><trkpt lat="38.96225366499864" lon="16.311182254415446"><ele>168.0</ele><time>2026-04-27T14:40:56Z</time></trkpt><trkpt lat="38.962214829529884" lon="16.311401564270376"><ele>168.0</ele><time>2026-04-27T14:40:57Z</time></trkpt><trkpt lat="38.962150033621874" lon="16.311596503787136"><ele>168.0</ele><time>2026-04-27T14:40:58Z</time></trkpt><trkpt lat="38.96208588316206" lon="16.311791042518863"><ele>168.33333333333334</ele><time>2026-04-27T14:40:59Z</time></trkpt><trkpt lat="38.96201668429289" lon="16.31199020168984"><ele>168.66666666666669</ele><time>2026-04-27T14:41:00Z</time></trkpt><trkpt lat="38.96190990136418" lon="16.31215554103854"><ele>169.0</ele><time>2026-04-27T14:41:01Z</time></trkpt><trkpt lat="38.961849494577166" lon="16.31233407349906"><ele>169.39999999999998</ele><time>2026-04-27T14:41:02Z</time></trkpt><trkpt lat="38.96180189901397" lon="16.312500520272422"><ele>169.8</ele><time>2026-04-27T14:41:03Z</time></trkpt><trkpt lat="38.96176640193848" lon="16.312647994815"><ele>170.2</ele><time>2026-04-27T14:41:04Z</time></trkpt><trkpt lat="38.96173885379261" lon="16.31276583330605"><ele>170.60000000000002</ele><time>2026-04-27T14:41:05Z</time></trkpt><trkpt lat="38.9617162961242" lon="16.312855567491294"><ele>171.0</ele><time>2026-04-27T14:41:06Z</time></trkpt><trkpt lat="38.961685271366015" lon="16.312937080947506"><ele>169.5</ele><time>2026-04-27T14:41:07Z</time></trkpt><trkpt lat="38.96168346074692" lon="16.313078879951636"><ele>168.0</ele><time>2026-04-27T14:41:08Z</time></trkpt><trkpt lat="38.96166244292518" lon="16.313241577703014"><ele>166.5</ele><time>2026-04-27T14:41:09Z</time></trkpt><trkpt lat="38.961652282044255" lon="16.31341985267887"><ele>165.0</ele><time>2026-04-27T14:41:10Z</time></trkpt><trkpt lat="38.96163061446169" lon="16.313620419657955"><ele>165.0</ele><time>2026-04-27T14:41:11Z</time></trkpt><trkpt lat="38.961558166473765" lon="16.31381834221729"><ele>165.0</ele><time>2026-04-27T14:41:12Z</time></trkpt><trkpt lat="38.96151454614363" lon="16.314050072066017"><ele>165.0</ele><time>2026-04-27T14:41:13Z</time></trkpt><trkpt lat="38.96146784870465" lon="16.314286768165545"><ele>164.66666666666666</ele><time>2026-04-27T14:41:14Z</time></trkpt><trkpt lat="38.9614148903874" lon="16.314527747989022"><ele>164.33333333333331</ele><time>2026-04-27T14:41:15Z</time></trkpt><trkpt lat="38.96135807117043" lon="16.314756809023937"><ele>164.0</ele><time>2026-04-27T14:41:16Z</time></trkpt><trkpt lat="38.961296345388405" lon="16.3149777152179"><ele>164.33333333333331</ele><time>2026-04-27T14:41:17Z</time></trkpt><trkpt lat="38.96123035905353" lon="16.315207030614975"><ele>164.66666666666666</ele><time>2026-04-27T14:41:18Z</time></trkpt><trkpt lat="38.96116139852569" lon="16.315444524319755"><ele>165.0</ele><time>2026-04-27T14:41:19Z</time></trkpt><trkpt lat="38.96109122661652" lon="16.315682666595265"><ele>165.0</ele><time>2026-04-27T14:41:20Z</time></trkpt><trkpt lat="38.96101989757993" lon="16.3159273209444"><ele>165.0</ele><time>2026-04-27T14:41:21Z</time></trkpt><trkpt lat="38.960947106838034" lon="16.31617698892574"><ele>165.0</ele><time>2026-04-27T14:41:22Z</time></trkpt><trkpt lat="38.960890537042566" lon="16.31642648771238"><ele>163.33333333333334</ele><time>2026-04-27T14:41:23Z</time></trkpt><trkpt lat="38.96081960615275" lon="16.316655566751216"><ele>161.66666666666669</ele><time>2026-04-27T14:41:24Z</time></trkpt><trkpt lat="38.96073704152269" lon="16.316881067345967"><ele>160.0</ele><time>2026-04-27T14:41:25Z</time></trkpt><trkpt lat="38.96066718789665" lon="16.317115053938732"><ele>160.33333333333334</ele><time>2026-04-27T14:41:26Z</time></trkpt><trkpt lat="38.96059662503697" lon="16.31735141575295"><ele>160.66666666666666</ele><time>2026-04-27T14:41:27Z</time></trkpt><trkpt lat="38.96052573013519" lon="16.317588890250008"><ele>161.0</ele><time>2026-04-27T14:41:28Z</time></trkpt><trkpt lat="38.960454886653686" lon="16.317826192540277"><ele>161.0</ele><time>2026-04-27T14:41:29Z</time></trkpt><trkpt lat="38.96038470169174" lon="16.318061920033827"><ele>161.0</ele><time>2026-04-27T14:41:30Z</time></trkpt><trkpt lat="38.96031955467045" lon="16.318292140558828"><ele>161.0</ele><time>2026-04-27T14:41:31Z</time></trkpt><trkpt lat="38.960257343409644" lon="16.31851074098206"><ele>160.33333333333331</ele><time>2026-04-27T14:41:32Z</time></trkpt><trkpt lat="38.96019573510661" lon="16.318721868475986"><ele>159.66666666666666</ele><time>2026-04-27T14:41:33Z</time></trkpt><trkpt lat="38.96013430675946" lon="16.31891852163766"><ele>159.0</ele><time>2026-04-27T14:41:34Z</time></trkpt><trkpt lat="38.960091119448414" lon="16.319097247310605"><ele>158.83333333333334</ele><time>2026-04-27T14:41:35Z</time></trkpt><trkpt lat="38.96003845320345" lon="16.319230573197192"><ele>158.66666666666666</ele><time>2026-04-27T14:41:36Z</time></trkpt><trkpt lat="38.95999143786795" lon="16.319321944204088"><ele>158.5</ele><time>2026-04-27T14:41:37Z</time></trkpt><trkpt lat="38.959934434476786" lon="16.31936317593439"><ele>158.33333333333331</ele><time>2026-04-27T14:41:38Z</time></trkpt><trkpt lat="38.95987830561608" lon="16.31940813137064"><ele>158.16666666666666</ele><time>2026-04-27T14:41:39Z</time></trkpt><trkpt lat="38.95981300610262" lon="16.319441363890174"><ele>158.0</ele><time>2026-04-27T14:41:40Z</time></trkpt><trkpt lat="38.95973106747439" lon="16.319478381690537"><ele>157.5</ele><time>2026-04-27T14:41:41Z</time></trkpt><trkpt lat="38.959646539156054" lon="16.319525308652825"><ele>157.0</ele><time>2026-04-27T14:41:42Z</time></trkpt><trkpt lat="38.959569858555184" lon="16.319544976691574"><ele>156.5</ele><time>2026-04-27T14:41:43Z</time></trkpt><trkpt lat="38.9595062375978" lon="16.319533462067593"><ele>156.0</ele><time>2026-04-27T14:41:44Z</time></trkpt><trkpt lat="38.959441039733605" lon="16.319550661734016"><ele>155.5</ele><time>2026-04-27T14:41:45Z</time></trkpt><trkpt lat="38.959362554399" lon="16.31960482415765"><ele>155.0</ele><time>2026-04-27T14:41:46Z</time></trkpt><trkpt lat="38.95930253225101" lon="16.319685262193886"><ele>155.5</ele><time>2026-04-27T14:41:47Z</time></trkpt><trkpt lat="38.95927561335223" lon="16.31982651982622"><ele>156.0</ele><time>2026-04-27T14:41:48Z</time></trkpt><trkpt lat="38.9592849643304" lon="16.319954276537416"><ele>156.5</ele><time>2026-04-27T14:41:49Z</time></trkpt><trkpt lat="38.959359785748944" lon="16.320088253257165"><ele>157.0</ele><time>2026-04-27T14:41:50Z</time></trkpt><trkpt lat="38.95944970881104" lon="16.32018163047727"><ele>157.0</ele><time>2026-04-27T14:41:51Z</time></trkpt><trkpt lat="38.95948628849791" lon="16.32030195475837"><ele>157.0</ele><time>2026-04-27T14:41:52Z</time></trkpt><trkpt lat="38.95948190960477" lon="16.320428724834343"><ele>157.0</ele><time>2026-04-27T14:41:53Z</time></trkpt><trkpt lat="38.959465991214365" lon="16.320566923481795"><ele>157.0</ele><time>2026-04-27T14:41:54Z</time></trkpt><trkpt lat="38.9594475668807" lon="16.320733480802602"><ele>157.0</ele><time>2026-04-27T14:41:55Z</time></trkpt><trkpt lat="38.95942277498425" lon="16.320920884869626"><ele>156.5</ele><time>2026-04-27T14:41:56Z</time></trkpt><trkpt lat="38.95939847509397" lon="16.321113070769336"><ele>156.0</ele><time>2026-04-27T14:41:57Z</time></trkpt><trkpt lat="38.95937522804039" lon="16.321296929780804"><ele>155.5</ele><time>2026-04-27T14:41:58Z</time></trkpt><trkpt lat="38.95935310785966" lon="16.321471876434348"><ele>155.0</ele><time>2026-04-27T14:41:59Z</time></trkpt><trkpt lat="38.95932966439957" lon="16.321657288786525"><ele>154.33333333333331</ele><time>2026-04-27T14:42:00Z</time></trkpt><trkpt lat="38.95930113854032" lon="16.32184977619005"><ele>153.66666666666666</ele><time>2026-04-27T14:42:01Z</time></trkpt><trkpt lat="38.95926230257361" lon="16.3220446576383"><ele>153.0</ele><time>2026-04-27T14:42:02Z</time></trkpt><trkpt lat="38.95921548986106" lon="16.32223513169522"><ele>151.33333333333334</ele><time>2026-04-27T14:42:03Z</time></trkpt><trkpt lat="38.959164764738965" lon="16.322422477883563"><ele>149.66666666666669</ele><time>2026-04-27T14:42:04Z</time></trkpt><trkpt lat="38.95910988217472" lon="16.322607784533044"><ele>148.0</ele><time>2026-04-27T14:42:05Z</time></trkpt><trkpt lat="38.95905363791904" lon="16.32279625382643"><ele>148.0</ele><time>2026-04-27T14:42:06Z</time></trkpt><trkpt lat="38.95900189388461" lon="16.322995415476935"><ele>148.0</ele><time>2026-04-27T14:42:07Z</time></trkpt><trkpt lat="38.95893646423985" lon="16.323195919170466"><ele>148.0</ele><time>2026-04-27T14:42:08Z</time></trkpt><trkpt lat="38.95889033029325" lon="16.32340861504981"><ele>148.0</ele><time>2026-04-27T14:42:09Z</time></trkpt><trkpt lat="38.95881509933004" lon="16.323610630842477"><ele>148.0</ele><time>2026-04-27T14:42:10Z</time></trkpt><trkpt lat="38.95875469374472" lon="16.323817040591567"><ele>148.0</ele><time>2026-04-27T14:42:11Z</time></trkpt><trkpt lat="38.95869731052816" lon="16.32401312267447"><ele>147.5</ele><time>2026-04-27T14:42:12Z</time></trkpt><trkpt lat="38.95864031548737" lon="16.324207878429572"><ele>147.0</ele><time>2026-04-27T14:42:13Z</time></trkpt><trkpt lat="38.958585812720656" lon="16.32439411790821"><ele>146.5</ele><time>2026-04-27T14:42:14Z</time></trkpt><trkpt lat="38.95854049289857" lon="16.324548978631668"><ele>146.0</ele><time>2026-04-27T14:42:15Z</time></trkpt><trkpt lat="38.95850901542324" lon="16.324656539153008"><ele>145.8</ele><time>2026-04-27T14:42:16Z</time></trkpt><trkpt lat="38.95849717477564" lon="16.324738923609527"><ele>145.6</ele><time>2026-04-27T14:42:17Z</time></trkpt><trkpt lat="38.95846648001757" lon="16.3248182503514"><ele>145.4</ele><time>2026-04-27T14:42:20Z</time></trkpt><trkpt lat="38.95836011966498" lon="16.32463856217986"><ele>145.2</ele><time>2026-04-27T14:42:25Z</time></trkpt><trkpt lat="38.95831152320352" lon="16.32449179045342"><ele>145.0</ele><time>2026-04-27T14:42:27Z</time></trkpt><trkpt lat="38.95828484333259" lon="16.324392435091944"><ele>144.75</ele><time>2026-04-27T14:42:28Z</time></trkpt><trkpt lat="38.958249987525654" lon="16.324245310340448"><ele>144.5</ele><time>2026-04-27T14:42:30Z</time></trkpt><trkpt lat="38.95821581088773" lon="16.324150405193222"><ele>144.25</ele><time>2026-04-27T14:42:31Z</time></trkpt><trkpt lat="38.95808665330789" lon="16.324125573159066"><ele>144.0</ele><time>2026-04-27T14:42:32Z</time></trkpt><trkpt lat="38.957971715407105" lon="16.324189113176015"><ele>144.0</ele><time>2026-04-27T14:42:33Z</time></trkpt><trkpt lat="38.95785154852767" lon="16.32420614771445"><ele>144.0</ele><time>2026-04-27T14:42:34Z</time></trkpt><trkpt lat="38.9577558684096" lon="16.32421793369113"><ele>144.0</ele><time>2026-04-27T14:42:35Z</time></trkpt><trkpt lat="38.95766807954282" lon="16.32422175628991"><ele>144.0</ele><time>2026-04-27T14:42:36Z</time></trkpt><trkpt lat="38.95760895577996" lon="16.324193101281356"><ele>144.0</ele><time>2026-04-27T14:42:37Z</time></trkpt><trkpt lat="38.957532348719674" lon="16.32408002303649"><ele>143.5</ele><time>2026-04-27T14:42:39Z</time></trkpt><trkpt lat="38.957478382305034" lon="16.323982303065424"><ele>143.0</ele><time>2026-04-27T14:42:40Z</time></trkpt><trkpt lat="38.95743909977291" lon="16.32385212942885"><ele>142.5</ele><time>2026-04-27T14:42:41Z</time></trkpt><trkpt lat="38.95739856442842" lon="16.323706892480203"><ele>142.0</ele><time>2026-04-27T14:42:42Z</time></trkpt><trkpt lat="38.95735815160989" lon="16.323517632977296"><ele>141.75</ele><time>2026-04-27T14:42:43Z</time></trkpt><trkpt lat="38.95732515858488" lon="16.323322167219807"><ele>141.5</ele><time>2026-04-27T14:42:44Z</time></trkpt><trkpt lat="38.95729916514319" lon="16.3231855763152"><ele>141.25</ele><time>2026-04-27T14:42:45Z</time></trkpt><trkpt lat="38.95725813678" lon="16.32300204652366"><ele>141.0</ele><time>2026-04-27T14:42:46Z</time></trkpt><trkpt lat="38.95721675580164" lon="16.322825495620947"><ele>141.0</ele><time>2026-04-27T14:42:47Z</time></trkpt><trkpt lat="38.957175507010525" lon="16.322642610254075"><ele>141.0</ele><time>2026-04-27T14:42:48Z</time></trkpt><trkpt lat="38.95713098669148" lon="16.322452571939195"><ele>141.0</ele><time>2026-04-27T14:42:49Z</time></trkpt><trkpt lat="38.95709005489214" lon="16.32229225915192"><ele>141.0</ele><time>2026-04-27T14:42:50Z</time></trkpt><trkpt lat="38.95705614643735" lon="16.322159454134198"><ele>141.5</ele><time>2026-04-27T14:42:51Z</time></trkpt><trkpt lat="38.95702998981245" lon="16.32205016730062"><ele>142.0</ele><time>2026-04-27T14:42:52Z</time></trkpt><trkpt lat="38.95700495719194" lon="16.321943932958575"><ele>142.5</ele><time>2026-04-27T14:42:54Z</time></trkpt><trkpt lat="38.95680665594257" lon="16.321961085883398"><ele>143.0</ele><time>2026-04-27T14:43:01Z</time></trkpt><trkpt lat="38.95671869373991" lon="16.322047424279813"><ele>142.25</ele><time>2026-04-27T14:43:02Z</time></trkpt><trkpt lat="38.95662410030163" lon="16.322140271467173"><ele>141.5</ele><time>2026-04-27T14:43:03Z</time></trkpt><trkpt lat="38.956519095311194" lon="16.322243337965762"><ele>140.75</ele><time>2026-04-27T14:43:04Z</time></trkpt><trkpt lat="38.95641350314857" lon="16.322346303173756"><ele>140.0</ele><time>2026-04-27T14:43:05Z</time></trkpt><trkpt lat="38.95630703524015" lon="16.322449861991593"><ele>139.5</ele><time>2026-04-27T14:43:06Z</time></trkpt><trkpt lat="38.95620475258418" lon="16.32254922616439"><ele>139.0</ele><time>2026-04-27T14:43:07Z</time></trkpt><trkpt lat="38.95610904697391" lon="16.32263628253374"><ele>138.5</ele><time>2026-04-27T14:43:08Z</time></trkpt><trkpt lat="38.956017225991495" lon="16.322718724441714"><ele>138.0</ele><time>2026-04-27T14:43:09Z</time></trkpt><trkpt lat="38.95593046652009" lon="16.322792995256858"><ele>137.4</ele><time>2026-04-27T14:43:10Z</time></trkpt><trkpt lat="38.95584121426334" lon="16.322865082478213"><ele>136.8</ele><time>2026-04-27T14:43:11Z</time></trkpt><trkpt lat="38.955756005085874" lon="16.322930570677812"><ele>136.2</ele><time>2026-04-27T14:43:12Z</time></trkpt><trkpt lat="38.955671791134506" lon="16.32299258072976"><ele>135.6</ele><time>2026-04-27T14:43:13Z</time></trkpt><trkpt lat="38.95558105872548" lon="16.323053727204297"><ele>135.0</ele><time>2026-04-27T14:43:14Z</time></trkpt><trkpt lat="38.95548234064965" lon="16.323114147877945"><ele>135.0</ele><time>2026-04-27T14:43:15Z</time></trkpt><trkpt lat="38.95537125599893" lon="16.323180023177354"><ele>135.0</ele><time>2026-04-27T14:43:16Z</time></trkpt><trkpt lat="38.955246392850604" lon="16.32324751912836"><ele>135.0</ele><time>2026-04-27T14:43:17Z</time></trkpt><trkpt lat="38.95511097540047" lon="16.323321630630684"><ele>135.0</ele><time>2026-04-27T14:43:18Z</time></trkpt><trkpt lat="38.954979613375514" lon="16.323393520481904"><ele>134.25</ele><time>2026-04-27T14:43:19Z</time></trkpt><trkpt lat="38.954860069919704" lon="16.32346057995831"><ele>133.5</ele><time>2026-04-27T14:43:20Z</time></trkpt><trkpt lat="38.95473195929012" lon="16.323531895123143"><ele>132.75</ele><time>2026-04-27T14:43:21Z</time></trkpt><trkpt lat="38.95459210457428" lon="16.323609424653327"><ele>132.0</ele><time>2026-04-27T14:43:22Z</time></trkpt><trkpt lat="38.95444634333662" lon="16.32369005644595"><ele>132.0</ele><time>2026-04-27T14:43:23Z</time></trkpt><trkpt lat="38.95431723427083" lon="16.323761476658504"><ele>132.0</ele><time>2026-04-27T14:43:24Z</time></trkpt><trkpt lat="38.95420128376144" lon="16.323826029709114"><ele>132.0</ele><time>2026-04-27T14:43:25Z</time></trkpt><trkpt lat="38.95407828572879" lon="16.32389552341853"><ele>132.0</ele><time>2026-04-27T14:43:26Z</time></trkpt><trkpt lat="38.953939723821954" lon="16.323974341825537"><ele>131.0</ele><time>2026-04-27T14:43:27Z</time></trkpt><trkpt lat="38.95380118436771" lon="16.324053080825205"><ele>130.0</ele><time>2026-04-27T14:43:28Z</time></trkpt><trkpt lat="38.95367119869286" lon="16.32413098456067"><ele>129.0</ele><time>2026-04-27T14:43:29Z</time></trkpt><trkpt lat="38.953533347413874" lon="16.324211352942832"><ele>128.0</ele><time>2026-04-27T14:43:30Z</time></trkpt><trkpt lat="38.95338950093087" lon="16.324298917927194"><ele>127.66666666666666</ele><time>2026-04-27T14:43:31Z</time></trkpt><trkpt lat="38.953233801940385" lon="16.324391934562897"><ele>127.33333333333334</ele><time>2026-04-27T14:43:32Z</time></trkpt><trkpt lat="38.95306013021593" lon="16.324495394572956"><ele>127.0</ele><time>2026-04-27T14:43:33Z</time></trkpt><trkpt lat="38.95288208536109" lon="16.32460181191312"><ele>127.0</ele><time>2026-04-27T14:43:34Z</time></trkpt><trkpt lat="38.95270279880158" lon="16.324712467545403"><ele>127.0</ele><time>2026-04-27T14:43:35Z</time></trkpt><trkpt lat="38.95252170123506" lon="16.324828860634568"><ele>127.0</ele><time>2026-04-27T14:43:36Z</time></trkpt><trkpt lat="38.952332875837186" lon="16.324967094476147"><ele>125.33333333333334</ele><time>2026-04-27T14:43:37Z</time></trkpt><trkpt lat="38.95215466572239" lon="16.325112284957633"><ele>123.66666666666666</ele><time>2026-04-27T14:43:38Z</time></trkpt><trkpt lat="38.95198623648564" lon="16.325265445684366"><ele>122.0</ele><time>2026-04-27T14:43:39Z</time></trkpt><trkpt lat="38.95182137313907" lon="16.325427535131084"><ele>121.66666666666666</ele><time>2026-04-27T14:43:40Z</time></trkpt><trkpt lat="38.951666646771066" lon="16.32558153620525"><ele>121.33333333333334</ele><time>2026-04-27T14:43:41Z</time></trkpt><trkpt lat="38.95151427211784" lon="16.325731122886598"><ele>121.0</ele><time>2026-04-27T14:43:42Z</time></trkpt><trkpt lat="38.95135649056636" lon="16.32588441471225"><ele>121.0</ele><time>2026-04-27T14:43:43Z</time></trkpt><trkpt lat="38.9512130894662" lon="16.326026117007217"><ele>121.0</ele><time>2026-04-27T14:43:44Z</time></trkpt><trkpt lat="38.951074618745196" lon="16.32616303784192"><ele>121.0</ele><time>2026-04-27T14:43:45Z</time></trkpt><trkpt lat="38.950932960169006" lon="16.326303376516346"><ele>120.0</ele><time>2026-04-27T14:43:46Z</time></trkpt><trkpt lat="38.95078546375993" lon="16.326446590391917"><ele>119.0</ele><time>2026-04-27T14:43:47Z</time></trkpt><trkpt lat="38.95064515853576" lon="16.326584560708614"><ele>118.0</ele><time>2026-04-27T14:43:48Z</time></trkpt><trkpt lat="38.9505160183456" lon="16.326712338739828"><ele>118.0</ele><time>2026-04-27T14:43:49Z</time></trkpt><trkpt lat="38.95039142225076" lon="16.326836039573784"><ele>118.0</ele><time>2026-04-27T14:43:50Z</time></trkpt><trkpt lat="38.95027348668143" lon="16.32695306013084"><ele>118.0</ele><time>2026-04-27T14:43:51Z</time></trkpt><trkpt lat="38.95015906202583" lon="16.32706659579989"><ele>118.0</ele><time>2026-04-27T14:43:52Z</time></trkpt><trkpt lat="38.95004775891643" lon="16.327177376329413"><ele>118.0</ele><time>2026-04-27T14:43:53Z</time></trkpt><trkpt lat="38.94993973772102" lon="16.32728818344161"><ele>118.0</ele><time>2026-04-27T14:43:54Z</time></trkpt><trkpt lat="38.94986432784813" lon="16.327377160363948"><ele>118.0</ele><time>2026-04-27T14:43:55Z</time></trkpt><trkpt lat="38.949801434034114" lon="16.327453660751324"><ele>117.25</ele><time>2026-04-27T14:43:56Z</time></trkpt><trkpt lat="38.94978699487695" lon="16.32766369218742"><ele>116.5</ele><time>2026-04-27T14:43:57Z</time></trkpt><trkpt lat="38.94974292030479" lon="16.327826378906487"><ele>115.75</ele><time>2026-04-27T14:43:58Z</time></trkpt><trkpt lat="38.949706991691826" lon="16.327972185599968"><ele>115.0</ele><time>2026-04-27T14:43:59Z</time></trkpt><trkpt lat="38.949677205543395" lon="16.328101903704432"><ele>114.75</ele><time>2026-04-27T14:44:00Z</time></trkpt><trkpt lat="38.949648126217426" lon="16.328231012991083"><ele>114.5</ele><time>2026-04-27T14:44:01Z</time></trkpt><trkpt lat="38.94961829433889" lon="16.328363463448422"><ele>114.25</ele><time>2026-04-27T14:44:02Z</time></trkpt><trkpt lat="38.94958595856359" lon="16.328507030852023"><ele>114.0</ele><time>2026-04-27T14:44:03Z</time></trkpt><trkpt lat="38.94955024874588" lon="16.328668369871206"><ele>114.0</ele><time>2026-04-27T14:44:04Z</time></trkpt><trkpt lat="38.9495141628807" lon="16.32883938399169"><ele>114.0</ele><time>2026-04-27T14:44:05Z</time></trkpt><trkpt lat="38.94947876440426" lon="16.32901046695286"><ele>114.0</ele><time>2026-04-27T14:44:06Z</time></trkpt><trkpt lat="38.94944403155896" lon="16.329198378510725"><ele>114.0</ele><time>2026-04-27T14:44:07Z</time></trkpt><trkpt lat="38.94941802175555" lon="16.329374063818204"><ele>113.6</ele><time>2026-04-27T14:44:08Z</time></trkpt><trkpt lat="38.949398477589824" lon="16.32953607692189"><ele>113.2</ele><time>2026-04-27T14:44:09Z</time></trkpt><trkpt lat="38.94938381597312" lon="16.32967967895662"><ele>112.79999999999998</ele><time>2026-04-27T14:44:10Z</time></trkpt><trkpt lat="38.94937612024494" lon="16.329792069825366"><ele>112.39999999999999</ele><time>2026-04-27T14:44:11Z</time></trkpt><trkpt lat="38.94937184120845" lon="16.3299038364266"><ele>112.0</ele><time>2026-04-27T14:44:13Z</time></trkpt><trkpt lat="38.94934446405347" lon="16.329987863300307"><ele>111.75</ele><time>2026-04-27T14:44:22Z</time></trkpt><trkpt lat="38.94921450502486" lon="16.32994520855585"><ele>111.5</ele><time>2026-04-27T14:44:23Z</time></trkpt><trkpt lat="38.9491063285191" lon="16.329945891805576"><ele>111.25</ele><time>2026-04-27T14:44:24Z</time></trkpt><trkpt lat="38.94899293456739" lon="16.329963260678685"><ele>111.0</ele><time>2026-04-27T14:44:25Z</time></trkpt><trkpt lat="38.94881172966769" lon="16.329990243082264"><ele>110.75</ele><time>2026-04-27T14:44:26Z</time></trkpt><trkpt lat="38.94864513791357" lon="16.33001390740074"><ele>110.5</ele><time>2026-04-27T14:44:27Z</time></trkpt><trkpt lat="38.948503745768804" lon="16.330038509819452"><ele>110.25</ele><time>2026-04-27T14:44:28Z</time></trkpt><trkpt lat="38.94837224977985" lon="16.33007196906842"><ele>110.0</ele><time>2026-04-27T14:44:29Z</time></trkpt><trkpt lat="38.94826777867077" lon="16.330090873304883"><ele>109.2</ele><time>2026-04-27T14:44:30Z</time></trkpt><trkpt lat="38.94819008007704" lon="16.3301105852966"><ele>108.4</ele><time>2026-04-27T14:44:31Z</time></trkpt><trkpt lat="38.948125236087314" lon="16.330124299176024"><ele>107.6</ele><time>2026-04-27T14:44:32Z</time></trkpt><trkpt lat="38.94801764933314" lon="16.330114284412385"><ele>106.8</ele><time>2026-04-27T14:44:34Z</time></trkpt><trkpt lat="38.9479289767437" lon="16.330107299454518"><ele>106.0</ele><time>2026-04-27T14:44:35Z</time></trkpt><trkpt lat="38.94781112125229" lon="16.33009820101744"><ele>106.0</ele><time>2026-04-27T14:44:36Z</time></trkpt><trkpt lat="38.9476815235996" lon="16.330225740150887"><ele>106.0</ele><time>2026-04-27T14:44:37Z</time></trkpt><trkpt lat="38.94753494554856" lon="16.330348886641787"><ele>106.0</ele><time>2026-04-27T14:44:38Z</time></trkpt><trkpt lat="38.94739705277612" lon="16.330443193701072"><ele>106.0</ele><time>2026-04-27T14:44:39Z</time></trkpt><trkpt lat="38.94725035261903" lon="16.33052681958434"><ele>106.0</ele><time>2026-04-27T14:44:40Z</time></trkpt><trkpt lat="38.94710789817481" lon="16.330597059858153"><ele>106.0</ele><time>2026-04-27T14:44:41Z</time></trkpt><trkpt lat="38.946974768235364" lon="16.33069755741178"><ele>105.75</ele><time>2026-04-27T14:44:42Z</time></trkpt><trkpt lat="38.94683910721464" lon="16.330735723721048"><ele>105.5</ele><time>2026-04-27T14:44:43Z</time></trkpt><trkpt lat="38.94669241452408" lon="16.330810707890027"><ele>105.25</ele><time>2026-04-27T14:44:44Z</time></trkpt><trkpt lat="38.94656029326971" lon="16.330878243774507"><ele>105.0</ele><time>2026-04-27T14:44:45Z</time></trkpt><trkpt lat="38.94643661247843" lon="16.33094003394267"><ele>104.5</ele><time>2026-04-27T14:44:46Z</time></trkpt><trkpt lat="38.94631224395332" lon="16.330999004822637"><ele>104.0</ele><time>2026-04-27T14:44:47Z</time></trkpt><trkpt lat="38.946195021550196" lon="16.331050104943508"><ele>103.5</ele><time>2026-04-27T14:44:48Z</time></trkpt><trkpt lat="38.94606622081364" lon="16.331101626709355"><ele>103.0</ele><time>2026-04-27T14:44:49Z</time></trkpt><trkpt lat="38.94592522622509" lon="16.331145690896374"><ele>102.66666666666667</ele><time>2026-04-27T14:44:50Z</time></trkpt><trkpt lat="38.94578830656241" lon="16.331180425724465"><ele>102.33333333333334</ele><time>2026-04-27T14:44:51Z</time></trkpt><trkpt lat="38.9456371313269" lon="16.331216173762378"><ele>102.0</ele><time>2026-04-27T14:44:52Z</time></trkpt><trkpt lat="38.9454746727114" lon="16.331247375392905"><ele>102.0</ele><time>2026-04-27T14:44:53Z</time></trkpt><trkpt lat="38.94530775629045" lon="16.331276149232792"><ele>102.0</ele><time>2026-04-27T14:44:54Z</time></trkpt><trkpt lat="38.94513669054219" lon="16.33130413212485"><ele>102.0</ele><time>2026-04-27T14:44:55Z</time></trkpt><trkpt lat="38.94497027533398" lon="16.331328822018616"><ele>101.0</ele><time>2026-04-27T14:44:56Z</time></trkpt><trkpt lat="38.94480310336463" lon="16.331351031291007"><ele>100.0</ele><time>2026-04-27T14:44:57Z</time></trkpt><trkpt lat="38.94463683293934" lon="16.331373407816848"><ele>99.0</ele><time>2026-04-27T14:44:58Z</time></trkpt><trkpt lat="38.944474374471675" lon="16.331432416187134"><ele>99.0</ele><time>2026-04-27T14:44:59Z</time></trkpt><trkpt lat="38.94429074919859" lon="16.33146687357099"><ele>99.0</ele><time>2026-04-27T14:45:00Z</time></trkpt><trkpt lat="38.94409492051964" lon="16.331502669921786"><ele>99.0</ele><time>2026-04-27T14:45:01Z</time></trkpt><trkpt lat="38.9439097001296" lon="16.33153052323659"><ele>99.0</ele><time>2026-04-27T14:45:02Z</time></trkpt><trkpt lat="38.94372068527843" lon="16.331501814267227"><ele>99.0</ele><time>2026-04-27T14:45:03Z</time></trkpt><trkpt lat="38.943533928343804" lon="16.331524975991478"><ele>99.0</ele><time>2026-04-27T14:45:04Z</time></trkpt><trkpt lat="38.94334296594663" lon="16.331552042893897"><ele>98.0</ele><time>2026-04-27T14:45:05Z</time></trkpt><trkpt lat="38.943130244352965" lon="16.331581269732638"><ele>97.0</ele><time>2026-04-27T14:45:06Z</time></trkpt><trkpt lat="38.94294398586909" lon="16.331666409429133"><ele>96.0</ele><time>2026-04-27T14:45:07Z</time></trkpt><trkpt lat="38.94274729917901" lon="16.33169092994062"><ele>95.66666666666667</ele><time>2026-04-27T14:45:08Z</time></trkpt><trkpt lat="38.942547395761125" lon="16.331716124760824"><ele>95.33333333333334</ele><time>2026-04-27T14:45:09Z</time></trkpt><trkpt lat="38.9423505240206" lon="16.33174300367046"><ele>95.0</ele><time>2026-04-27T14:45:10Z</time></trkpt><trkpt lat="38.94216163999191" lon="16.33171551529953"><ele>95.0</ele><time>2026-04-27T14:45:11Z</time></trkpt><trkpt lat="38.941983893652534" lon="16.331739888624934"><ele>95.0</ele><time>2026-04-27T14:45:12Z</time></trkpt><trkpt lat="38.94181783332149" lon="16.33176272985228"><ele>95.0</ele><time>2026-04-27T14:45:13Z</time></trkpt><trkpt lat="38.94165780203554" lon="16.331784741794564"><ele>94.0</ele><time>2026-04-27T14:45:14Z</time></trkpt><trkpt lat="38.94150438721296" lon="16.33180584375"><ele>93.0</ele><time>2026-04-27T14:45:15Z</time></trkpt><trkpt lat="38.94135584858952" lon="16.3318264246244"><ele>92.0</ele><time>2026-04-27T14:45:16Z</time></trkpt><trkpt lat="38.941207153869314" lon="16.331847758632918"><ele>92.0</ele><time>2026-04-27T14:45:17Z</time></trkpt><trkpt lat="38.941052281910075" lon="16.33187040102385"><ele>92.0</ele><time>2026-04-27T14:45:18Z</time></trkpt><trkpt lat="38.94089457123757" lon="16.331893459177838"><ele>92.0</ele><time>2026-04-27T14:45:19Z</time></trkpt><trkpt lat="38.94074486020361" lon="16.33191277305667"><ele>92.0</ele><time>2026-04-27T14:45:20Z</time></trkpt><trkpt lat="38.940591871428055" lon="16.33196628795257"><ele>92.0</ele><time>2026-04-27T14:45:21Z</time></trkpt><trkpt lat="38.94041831101113" lon="16.33199871638905"><ele>92.0</ele><time>2026-04-27T14:45:22Z</time></trkpt><trkpt lat="38.9402397471969" lon="16.332027135318995"><ele>92.0</ele><time>2026-04-27T14:45:23Z</time></trkpt><trkpt lat="38.94005500657528" lon="16.332043425313422"><ele>92.0</ele><time>2026-04-27T14:45:24Z</time></trkpt><trkpt lat="38.939871848464314" lon="16.331995545097826"><ele>92.0</ele><time>2026-04-27T14:45:25Z</time></trkpt><trkpt lat="38.93970041409119" lon="16.33205545876581"><ele>91.66666666666667</ele><time>2026-04-27T14:45:26Z</time></trkpt><trkpt lat="38.93953946255079" lon="16.332046739870698"><ele>91.33333333333333</ele><time>2026-04-27T14:45:27Z</time></trkpt><trkpt lat="38.93938154193189" lon="16.33203391322946"><ele>91.0</ele><time>2026-04-27T14:45:28Z</time></trkpt><trkpt lat="38.93922915454464" lon="16.332024351507204"><ele>89.33333333333333</ele><time>2026-04-27T14:45:29Z</time></trkpt><trkpt lat="38.939076686074316" lon="16.331986551535962"><ele>87.66666666666667</ele><time>2026-04-27T14:45:30Z</time></trkpt><trkpt lat="38.93891731585136" lon="16.331980071998945"><ele>86.0</ele><time>2026-04-27T14:45:31Z</time></trkpt><trkpt lat="38.93875037632124" lon="16.331973170773825"><ele>86.0</ele><time>2026-04-27T14:45:32Z</time></trkpt><trkpt lat="38.93857549793553" lon="16.331965941355197"><ele>86.0</ele><time>2026-04-27T14:45:33Z</time></trkpt><trkpt lat="38.93839457309259" lon="16.331958461973876"><ele>86.0</ele><time>2026-04-27T14:45:34Z</time></trkpt><trkpt lat="38.938206019920216" lon="16.331950623001823"><ele>85.33333333333334</ele><time>2026-04-27T14:45:35Z</time></trkpt><trkpt lat="38.938008505845396" lon="16.331942399622445"><ele>84.66666666666667</ele><time>2026-04-27T14:45:36Z</time></trkpt><trkpt lat="38.93780722752677" lon="16.331934019491676"><ele>84.0</ele><time>2026-04-27T14:45:37Z</time></trkpt><trkpt lat="38.93760514668538" lon="16.331926213584765"><ele>84.33333333333333</ele><time>2026-04-27T14:45:38Z</time></trkpt><trkpt lat="38.9374143235813" lon="16.33191876295242"><ele>84.66666666666666</ele><time>2026-04-27T14:45:39Z</time></trkpt><trkpt lat="38.93722601927593" lon="16.331911608311138"><ele>85.0</ele><time>2026-04-27T14:45:40Z</time></trkpt><trkpt lat="38.937041122528434" lon="16.331904524142928"><ele>85.0</ele><time>2026-04-27T14:45:41Z</time></trkpt><trkpt lat="38.936853679168756" lon="16.331897342404655"><ele>85.0</ele><time>2026-04-27T14:45:42Z</time></trkpt><trkpt lat="38.936660363054685" lon="16.331889935656747"><ele>85.0</ele><time>2026-04-27T14:45:43Z</time></trkpt><trkpt lat="38.93645379736015" lon="16.331882021258668"><ele>84.33333333333333</ele><time>2026-04-27T14:45:44Z</time></trkpt><trkpt lat="38.936238768333084" lon="16.331873784041214"><ele>83.66666666666667</ele><time>2026-04-27T14:45:45Z</time></trkpt><trkpt lat="38.936033151318924" lon="16.33186590598715"><ele>83.0</ele><time>2026-04-27T14:45:46Z</time></trkpt><trkpt lat="38.93583519444217" lon="16.33185832146837"><ele>82.0</ele><time>2026-04-27T14:45:47Z</time></trkpt><trkpt lat="38.93563291145539" lon="16.331851639665885"><ele>81.0</ele><time>2026-04-27T14:45:48Z</time></trkpt><trkpt lat="38.93543066381247" lon="16.331844876402464"><ele>80.0</ele><time>2026-04-27T14:45:49Z</time></trkpt><trkpt lat="38.935226071761974" lon="16.33185837312542"><ele>79.66666666666667</ele><time>2026-04-27T14:45:50Z</time></trkpt><trkpt lat="38.93502278279121" lon="16.331853039708225"><ele>79.33333333333333</ele><time>2026-04-27T14:45:51Z</time></trkpt><trkpt lat="38.93482485738474" lon="16.3318271810714"><ele>79.0</ele><time>2026-04-27T14:45:52Z</time></trkpt><trkpt lat="38.93463083102294" lon="16.331842599299804"><ele>79.0</ele><time>2026-04-27T14:45:53Z</time></trkpt><trkpt lat="38.934450909128365" lon="16.331832832699888"><ele>79.0</ele><time>2026-04-27T14:45:54Z</time></trkpt><trkpt lat="38.93427936822218" lon="16.331823359721632"><ele>79.0</ele><time>2026-04-27T14:45:55Z</time></trkpt><trkpt lat="38.9341076561458" lon="16.33181354596253"><ele>79.0</ele><time>2026-04-27T14:45:56Z</time></trkpt><trkpt lat="38.9339329941612" lon="16.331806265192082"><ele>79.0</ele><time>2026-04-27T14:45:57Z</time></trkpt><trkpt lat="38.933758364405264" lon="16.331800098590918"><ele>79.0</ele><time>2026-04-27T14:45:58Z</time></trkpt><trkpt lat="38.93358894839604" lon="16.331791637566532"><ele>79.0</ele><time>2026-04-27T14:45:59Z</time></trkpt><trkpt lat="38.933432822529205" lon="16.331780532713154"><ele>79.0</ele><time>2026-04-27T14:46:00Z</time></trkpt><trkpt lat="38.933286388132615" lon="16.33176381218687"><ele>79.0</ele><time>2026-04-27T14:46:01Z</time></trkpt><trkpt lat="38.933144569218825" lon="16.331741224601465"><ele>79.0</ele><time>2026-04-27T14:46:02Z</time></trkpt><trkpt lat="38.933016352741575" lon="16.331717438818384"><ele>78.66666666666666</ele><time>2026-04-27T14:46:03Z</time></trkpt><trkpt lat="38.932917851075054" lon="16.331698168132466"><ele>78.33333333333333</ele><time>2026-04-27T14:46:04Z</time></trkpt><trkpt lat="38.93284651167467" lon="16.331689442114712"><ele>78.0</ele><time>2026-04-27T14:46:05Z</time></trkpt><trkpt lat="38.932755944578275" lon="16.331702318489892"><ele>77.66666666666667</ele><time>2026-04-27T14:46:07Z</time></trkpt><trkpt lat="38.93267781061129" lon="16.33168025707118"><ele>77.33333333333334</ele><time>2026-04-27T14:46:09Z</time></trkpt><trkpt lat="38.93260705884418" lon="16.33162978878458"><ele>77.0</ele><time>2026-04-27T14:46:13Z</time></trkpt><trkpt lat="38.9325435700159" lon="16.331593413699892"><ele>76.8</ele><time>2026-04-27T14:46:14Z</time></trkpt><trkpt lat="38.93247818835391" lon="16.331527275731865"><ele>76.6</ele><time>2026-04-27T14:46:15Z</time></trkpt><trkpt lat="38.93240673703629" lon="16.33150110815426"><ele>76.39999999999999</ele><time>2026-04-27T14:46:16Z</time></trkpt><trkpt lat="38.932311197932385" lon="16.331549826539852"><ele>76.2</ele><time>2026-04-27T14:46:17Z</time></trkpt><trkpt lat="38.93219747904385" lon="16.331640730140563"><ele>76.0</ele><time>2026-04-27T14:46:18Z</time></trkpt><trkpt lat="38.93207326239386" lon="16.331720095461225"><ele>76.0</ele><time>2026-04-27T14:46:19Z</time></trkpt><trkpt lat="38.93194288288052" lon="16.331751762845585"><ele>76.0</ele><time>2026-04-27T14:46:20Z</time></trkpt><trkpt lat="38.93180847251511" lon="16.33175609914201"><ele>76.0</ele><time>2026-04-27T14:46:21Z</time></trkpt><trkpt lat="38.93167515827412" lon="16.3317685787606"><ele>76.0</ele><time>2026-04-27T14:46:22Z</time></trkpt><trkpt lat="38.93153104895273" lon="16.331780828607716"><ele>76.0</ele><time>2026-04-27T14:46:23Z</time></trkpt><trkpt lat="38.931363877575805" lon="16.33178820726023"><ele>76.0</ele><time>2026-04-27T14:46:24Z</time></trkpt><trkpt lat="38.931184208719955" lon="16.331791058684022"><ele>76.0</ele><time>2026-04-27T14:46:25Z</time></trkpt><trkpt lat="38.93099432770453" lon="16.331793712411795"><ele>75.33333333333333</ele><time>2026-04-27T14:46:26Z</time></trkpt><trkpt lat="38.930798759870434" lon="16.33179217299204"><ele>74.66666666666667</ele><time>2026-04-27T14:46:27Z</time></trkpt><trkpt lat="38.93060211170598" lon="16.33179260644754"><ele>74.0</ele><time>2026-04-27T14:46:28Z</time></trkpt><trkpt lat="38.93040634846116" lon="16.331791769204358"><ele>74.0</ele><time>2026-04-27T14:46:29Z</time></trkpt><trkpt lat="38.93021344865395" lon="16.331791931778795"><ele>74.0</ele><time>2026-04-27T14:46:30Z</time></trkpt><trkpt lat="38.930023816420636" lon="16.33180793697882"><ele>74.0</ele><time>2026-04-27T14:46:31Z</time></trkpt><trkpt lat="38.92984793106487" lon="16.3318490285868"><ele>72.66666666666667</ele><time>2026-04-27T14:46:32Z</time></trkpt><trkpt lat="38.92967852906447" lon="16.331907176284275"><ele>71.33333333333333</ele><time>2026-04-27T14:46:33Z</time></trkpt><trkpt lat="38.92950581466137" lon="16.331980085341865"><ele>70.0</ele><time>2026-04-27T14:46:34Z</time></trkpt><trkpt lat="38.92931292704628" lon="16.33201011276429"><ele>70.0</ele><time>2026-04-27T14:46:35Z</time></trkpt><trkpt lat="38.929141881938264" lon="16.332086317743077"><ele>70.0</ele><time>2026-04-27T14:46:36Z</time></trkpt><trkpt lat="38.928969480309796" lon="16.332164590094635"><ele>70.0</ele><time>2026-04-27T14:46:37Z</time></trkpt><trkpt lat="38.92879391083578" lon="16.33224400855672"><ele>69.66666666666666</ele><time>2026-04-27T14:46:38Z</time></trkpt><trkpt lat="38.92861157803872" lon="16.33232516978423"><ele>69.33333333333333</ele><time>2026-04-27T14:46:39Z</time></trkpt><trkpt lat="38.92842167341127" lon="16.33241045020885"><ele>69.0</ele><time>2026-04-27T14:46:40Z</time></trkpt><trkpt lat="38.92823321065913" lon="16.332495193839883"><ele>69.0</ele><time>2026-04-27T14:46:41Z</time></trkpt><trkpt lat="38.92804529300653" lon="16.332581470950167"><ele>69.0</ele><time>2026-04-27T14:46:42Z</time></trkpt><trkpt lat="38.927858358940355" lon="16.332671006461297"><ele>69.0</ele><time>2026-04-27T14:46:43Z</time></trkpt><trkpt lat="38.927664396579736" lon="16.332766213105323"><ele>68.66666666666667</ele><time>2026-04-27T14:46:44Z</time></trkpt><trkpt lat="38.92746137819064" lon="16.332865864775734"><ele>68.33333333333334</ele><time>2026-04-27T14:46:45Z</time></trkpt><trkpt lat="38.927247073438714" lon="16.332961905640506"><ele>68.0</ele><time>2026-04-27T14:46:46Z</time></trkpt><trkpt lat="38.92701197492958" lon="16.33305602437006"><ele>67.5</ele><time>2026-04-27T14:46:47Z</time></trkpt><trkpt lat="38.92676594511598" lon="16.333158932288427"><ele>67.0</ele><time>2026-04-27T14:46:48Z</time></trkpt><trkpt lat="38.926517687921745" lon="16.333266970823022"><ele>66.0</ele><time>2026-04-27T14:46:49Z</time></trkpt><trkpt lat="38.926271105695214" lon="16.333378056695356"><ele>65.0</ele><time>2026-04-27T14:46:50Z</time></trkpt><trkpt lat="38.92603472865803" lon="16.33348538830881"><ele>63.5</ele><time>2026-04-27T14:46:51Z</time></trkpt><trkpt lat="38.92579511579002" lon="16.33359412852292"><ele>62.0</ele><time>2026-04-27T14:46:52Z</time></trkpt><trkpt lat="38.925553041641585" lon="16.333702391227757"><ele>62.0</ele><time>2026-04-27T14:46:53Z</time></trkpt><trkpt lat="38.92530924408461" lon="16.33381147537712"><ele>62.0</ele><time>2026-04-27T14:46:54Z</time></trkpt><trkpt lat="38.92506157589997" lon="16.33392382096247"><ele>61.5</ele><time>2026-04-27T14:46:55Z</time></trkpt><trkpt lat="38.92481187016164" lon="16.334034004589714"><ele>61.0</ele><time>2026-04-27T14:46:56Z</time></trkpt><trkpt lat="38.92456284252782" lon="16.334144173151106"><ele>61.0</ele><time>2026-04-27T14:46:57Z</time></trkpt><trkpt lat="38.92431348836403" lon="16.33425399718272"><ele>61.0</ele><time>2026-04-27T14:46:58Z</time></trkpt><trkpt lat="38.92406540533766" lon="16.334364248762473"><ele>60.5</ele><time>2026-04-27T14:46:59Z</time></trkpt><trkpt lat="38.923820088086636" lon="16.334473121946672"><ele>60.0</ele><time>2026-04-27T14:47:00Z</time></trkpt><trkpt lat="38.92358646444793" lon="16.334576790382926"><ele>59.5</ele><time>2026-04-27T14:47:01Z</time></trkpt><trkpt lat="38.92336496303882" lon="16.334674878638353"><ele>59.0</ele><time>2026-04-27T14:47:02Z</time></trkpt><trkpt lat="38.92315194537709" lon="16.33476794929884"><ele>59.0</ele><time>2026-04-27T14:47:03Z</time></trkpt><trkpt lat="38.92294010649761" lon="16.33486050493304"><ele>59.0</ele><time>2026-04-27T14:47:04Z</time></trkpt><trkpt lat="38.92272571811033" lon="16.334952840154873"><ele>58.5</ele><time>2026-04-27T14:47:05Z</time></trkpt><trkpt lat="38.92251051036546" lon="16.335036038136188"><ele>58.0</ele><time>2026-04-27T14:47:06Z</time></trkpt><trkpt lat="38.92228324836321" lon="16.335102692928864"><ele>58.0</ele><time>2026-04-27T14:47:07Z</time></trkpt><trkpt lat="38.92204492297834" lon="16.335164862762262"><ele>58.0</ele><time>2026-04-27T14:47:08Z</time></trkpt><trkpt lat="38.92179212441604" lon="16.335168596905355"><ele>57.5</ele><time>2026-04-27T14:47:09Z</time></trkpt><trkpt lat="38.92154674007646" lon="16.335175094901135"><ele>57.0</ele><time>2026-04-27T14:47:10Z</time></trkpt><trkpt lat="38.921293763189894" lon="16.33517978113842"><ele>57.0</ele><time>2026-04-27T14:47:11Z</time></trkpt><trkpt lat="38.92103648527979" lon="16.335184954487815"><ele>57.0</ele><time>2026-04-27T14:47:12Z</time></trkpt><trkpt lat="38.920781006777176" lon="16.33519009164611"><ele>56.5</ele><time>2026-04-27T14:47:13Z</time></trkpt><trkpt lat="38.92052338783597" lon="16.33519567546061"><ele>56.0</ele><time>2026-04-27T14:47:14Z</time></trkpt><trkpt lat="38.920270271102915" lon="16.33520121156564"><ele>55.0</ele><time>2026-04-27T14:47:15Z</time></trkpt><trkpt lat="38.92001468784049" lon="16.33520636851817"><ele>54.0</ele><time>2026-04-27T14:47:16Z</time></trkpt><trkpt lat="38.91975815473134" lon="16.335210282338014"><ele>54.0</ele><time>2026-04-27T14:47:17Z</time></trkpt><trkpt lat="38.91950306588892" lon="16.33521417412232"><ele>54.0</ele><time>2026-04-27T14:47:18Z</time></trkpt><trkpt lat="38.91924733011178" lon="16.335218143012412"><ele>54.5</ele><time>2026-04-27T14:47:19Z</time></trkpt><trkpt lat="38.91899419174977" lon="16.33522243310548"><ele>55.0</ele><time>2026-04-27T14:47:20Z</time></trkpt><trkpt lat="38.91874224580151" lon="16.335247745271325"><ele>55.0</ele><time>2026-04-27T14:47:21Z</time></trkpt><trkpt lat="38.918490081075525" lon="16.335248880591077"><ele>55.0</ele><time>2026-04-27T14:47:22Z</time></trkpt><trkpt lat="38.918243588574136" lon="16.335249038645305"><ele>54.0</ele><time>2026-04-27T14:47:23Z</time></trkpt><trkpt lat="38.918012453284874" lon="16.335246363083737"><ele>53.0</ele><time>2026-04-27T14:47:24Z</time></trkpt><trkpt lat="38.917784865324755" lon="16.335241089360892"><ele>51.5</ele><time>2026-04-27T14:47:25Z</time></trkpt><trkpt lat="38.91755271773462" lon="16.33523735090158"><ele>50.0</ele><time>2026-04-27T14:47:26Z</time></trkpt><trkpt lat="38.917320422627036" lon="16.335236585433048"><ele>50.0</ele><time>2026-04-27T14:47:27Z</time></trkpt><trkpt lat="38.91708645831428" lon="16.33524003756881"><ele>50.0</ele><time>2026-04-27T14:47:28Z</time></trkpt><trkpt lat="38.916853631377855" lon="16.335242397448127"><ele>49.5</ele><time>2026-04-27T14:47:29Z</time></trkpt><trkpt lat="38.91661897242216" lon="16.33523542647223"><ele>49.0</ele><time>2026-04-27T14:47:30Z</time></trkpt><trkpt lat="38.9163870691967" lon="16.335217843217126"><ele>49.0</ele><time>2026-04-27T14:47:31Z</time></trkpt><trkpt lat="38.91616114166996" lon="16.33518851381685"><ele>49.0</ele><time>2026-04-27T14:47:32Z</time></trkpt><trkpt lat="38.91595013394024" lon="16.335152516570396"><ele>49.0</ele><time>2026-04-27T14:47:33Z</time></trkpt><trkpt lat="38.91574415336716" lon="16.335112133975905"><ele>48.666666666666664</ele><time>2026-04-27T14:47:34Z</time></trkpt><trkpt lat="38.915544194956794" lon="16.335084699047112"><ele>48.33333333333333</ele><time>2026-04-27T14:47:35Z</time></trkpt><trkpt lat="38.91535598400829" lon="16.33505901422664"><ele>48.0</ele><time>2026-04-27T14:47:36Z</time></trkpt><trkpt lat="38.915176476978225" lon="16.33503302439275"><ele>47.333333333333336</ele><time>2026-04-27T14:47:37Z</time></trkpt><trkpt lat="38.91499205366039" lon="16.335007497905877"><ele>46.66666666666667</ele><time>2026-04-27T14:47:38Z</time></trkpt><trkpt lat="38.91481117335579" lon="16.334987081457136"><ele>46.0</ele><time>2026-04-27T14:47:39Z</time></trkpt><trkpt lat="38.91461895604766" lon="16.334959528167218"><ele>46.0</ele><time>2026-04-27T14:47:40Z</time></trkpt><trkpt lat="38.91441403702411" lon="16.334925830497074"><ele>46.0</ele><time>2026-04-27T14:47:41Z</time></trkpt><trkpt lat="38.91419501695152" lon="16.33489314822443"><ele>46.0</ele><time>2026-04-27T14:47:42Z</time></trkpt><trkpt lat="38.91396831694122" lon="16.334855418648626"><ele>45.5</ele><time>2026-04-27T14:47:43Z</time></trkpt><trkpt lat="38.913734839349175" lon="16.334819193599056"><ele>45.0</ele><time>2026-04-27T14:47:44Z</time></trkpt><trkpt lat="38.91348725234052" lon="16.334780529887205"><ele>45.0</ele><time>2026-04-27T14:47:45Z</time></trkpt><trkpt lat="38.913240447159176" lon="16.334737913116232"><ele>45.0</ele><time>2026-04-27T14:47:46Z</time></trkpt><trkpt lat="38.9129948954912" lon="16.33469840669115"><ele>44.5</ele><time>2026-04-27T14:47:47Z</time></trkpt><trkpt lat="38.91275577003562" lon="16.33466240486899"><ele>44.0</ele><time>2026-04-27T14:47:48Z</time></trkpt><trkpt lat="38.912522344774274" lon="16.33462678156661"><ele>43.5</ele><time>2026-04-27T14:47:49Z</time></trkpt><trkpt lat="38.91228346688819" lon="16.334587604767165"><ele>43.0</ele><time>2026-04-27T14:47:50Z</time></trkpt><trkpt lat="38.9120503017309" lon="16.334544510749996"><ele>43.0</ele><time>2026-04-27T14:47:51Z</time></trkpt><trkpt lat="38.91181452486532" lon="16.33450004082336"><ele>43.0</ele><time>2026-04-27T14:47:52Z</time></trkpt><trkpt lat="38.911580486893655" lon="16.334460060415253"><ele>42.5</ele><time>2026-04-27T14:47:53Z</time></trkpt><trkpt lat="38.91134920725107" lon="16.33442483417302"><ele>42.0</ele><time>2026-04-27T14:47:54Z</time></trkpt><trkpt lat="38.911117615823244" lon="16.33439060858374"><ele>42.5</ele><time>2026-04-27T14:47:55Z</time></trkpt><trkpt lat="38.91088715863042" lon="16.334355829547153"><ele>43.0</ele><time>2026-04-27T14:47:56Z</time></trkpt><trkpt lat="38.91065301236763" lon="16.334318212230592"><ele>43.0</ele><time>2026-04-27T14:47:57Z</time></trkpt><trkpt lat="38.910418852019156" lon="16.334279525736267"><ele>43.0</ele><time>2026-04-27T14:47:58Z</time></trkpt><trkpt lat="38.910186406258944" lon="16.334242766285012"><ele>42.5</ele><time>2026-04-27T14:47:59Z</time></trkpt><trkpt lat="38.90995827657905" lon="16.334206686969125"><ele>42.0</ele><time>2026-04-27T14:48:00Z</time></trkpt><trkpt lat="38.90973528843691" lon="16.334170866818322"><ele>42.0</ele><time>2026-04-27T14:48:01Z</time></trkpt><trkpt lat="38.90951398187801" lon="16.334128006880658"><ele>42.0</ele><time>2026-04-27T14:48:02Z</time></trkpt><trkpt lat="38.90929068151705" lon="16.334074375952444"><ele>41.0</ele><time>2026-04-27T14:48:03Z</time></trkpt><trkpt lat="38.9090691047762" lon="16.33400982462523"><ele>40.0</ele><time>2026-04-27T14:48:04Z</time></trkpt><trkpt lat="38.908855061514224" lon="16.333922761596728"><ele>40.0</ele><time>2026-04-27T14:48:05Z</time></trkpt><trkpt lat="38.908651339001" lon="16.333804991472608"><ele>40.0</ele><time>2026-04-27T14:48:06Z</time></trkpt><trkpt lat="38.908465018365966" lon="16.333665484005927"><ele>40.0</ele><time>2026-04-27T14:48:07Z</time></trkpt><trkpt lat="38.908293715121914" lon="16.333524921207147"><ele>39.66666666666667</ele><time>2026-04-27T14:48:08Z</time></trkpt><trkpt lat="38.90813578529448" lon="16.333391256131772"><ele>39.333333333333336</ele><time>2026-04-27T14:48:09Z</time></trkpt><trkpt lat="38.90798613820392" lon="16.333266542989296"><ele>39.0</ele><time>2026-04-27T14:48:10Z</time></trkpt><trkpt lat="38.907843308342976" lon="16.333156132992677"><ele>39.0</ele><time>2026-04-27T14:48:11Z</time></trkpt><trkpt lat="38.90771880949454" lon="16.333057582845413"><ele>39.0</ele><time>2026-04-27T14:48:12Z</time></trkpt><trkpt lat="38.907612405293115" lon="16.332968311313437"><ele>39.0</ele><time>2026-04-27T14:48:13Z</time></trkpt><trkpt lat="38.90751666250656" lon="16.332890641963637"><ele>39.0</ele><time>2026-04-27T14:48:14Z</time></trkpt><trkpt lat="38.90742794135747" lon="16.33281917839952"><ele>38.833333333333336</ele><time>2026-04-27T14:48:15Z</time></trkpt><trkpt lat="38.907352037652075" lon="16.332752132269004"><ele>38.666666666666664</ele><time>2026-04-27T14:48:16Z</time></trkpt><trkpt lat="38.907280482339836" lon="16.3326831411242"><ele>38.5</ele><time>2026-04-27T14:48:17Z</time></trkpt><trkpt lat="38.90720255300506" lon="16.332619112141394"><ele>38.33333333333333</ele><time>2026-04-27T14:48:18Z</time></trkpt><trkpt lat="38.90712959132179" lon="16.332563037474273"><ele>38.166666666666664</ele><time>2026-04-27T14:48:19Z</time></trkpt><trkpt lat="38.90706300802167" lon="16.332518640773444"><ele>38.0</ele><time>2026-04-27T14:48:20Z</time></trkpt><trkpt lat="38.90695754455627" lon="16.332525999566098"><ele>38.0</ele><time>2026-04-27T14:48:22Z</time></trkpt><trkpt lat="38.906878234248296" lon="16.332637322928676"><ele>38.0</ele><time>2026-04-27T14:48:24Z</time></trkpt><trkpt lat="38.90685456646134" lon="16.33272488209666"><ele>38.0</ele><time>2026-04-27T14:48:25Z</time></trkpt><trkpt lat="38.90684124295033" lon="16.332829852508848"><ele>38.0</ele><time>2026-04-27T14:48:26Z</time></trkpt><trkpt lat="38.906815478898146" lon="16.332934069850044"><ele>38.0</ele><time>2026-04-27T14:48:27Z</time></trkpt><trkpt lat="38.90677801217837" lon="16.33302980912751"><ele>38.0</ele><time>2026-04-27T14:48:28Z</time></trkpt><trkpt lat="38.90671835001682" lon="16.33311794945866"><ele>38.75</ele><time>2026-04-27T14:48:29Z</time></trkpt><trkpt lat="38.906639283990124" lon="16.33321015199823"><ele>39.5</ele><time>2026-04-27T14:48:30Z</time></trkpt><trkpt lat="38.906553229041286" lon="16.33331153350457"><ele>40.25</ele><time>2026-04-27T14:48:31Z</time></trkpt><trkpt lat="38.90645752986846" lon="16.333427966707816"><ele>41.0</ele><time>2026-04-27T14:48:32Z</time></trkpt><trkpt lat="38.90633625137503" lon="16.33355264768621"><ele>41.0</ele><time>2026-04-27T14:48:33Z</time></trkpt><trkpt lat="38.906202430505" lon="16.333679930268545"><ele>41.0</ele><time>2026-04-27T14:48:34Z</time></trkpt><trkpt lat="38.906062299730415" lon="16.33379423433827"><ele>41.0</ele><time>2026-04-27T14:48:35Z</time></trkpt><trkpt lat="38.90589809056932" lon="16.333876815492058"><ele>44.75</ele><time>2026-04-27T14:48:36Z</time></trkpt><trkpt lat="38.90576608083589" lon="16.333973479113112"><ele>48.5</ele><time>2026-04-27T14:48:37Z</time></trkpt><trkpt lat="38.90564675879123" lon="16.334069786464774"><ele>52.25</ele><time>2026-04-27T14:48:38Z</time></trkpt><trkpt lat="38.90552264476384" lon="16.334142960169615"><ele>56.0</ele><time>2026-04-27T14:48:39Z</time></trkpt><trkpt lat="38.90540102286958" lon="16.334217236055615"><ele>56.0</ele><time>2026-04-27T14:48:40Z</time></trkpt><trkpt lat="38.905288783489624" lon="16.334293781431843"><ele>56.0</ele><time>2026-04-27T14:48:41Z</time></trkpt><trkpt lat="38.905189090257046" lon="16.334363072540818"><ele>56.0</ele><time>2026-04-27T14:48:42Z</time></trkpt><trkpt lat="38.90509003864208" lon="16.334425693749097"><ele>56.0</ele><time>2026-04-27T14:48:43Z</time></trkpt><trkpt lat="38.90500013095708" lon="16.334483670086268"><ele>56.0</ele><time>2026-04-27T14:48:44Z</time></trkpt><trkpt lat="38.904908716812905" lon="16.334538568212754"><ele>55.99999999999999</ele><time>2026-04-27T14:48:45Z</time></trkpt><trkpt lat="38.90480931935619" lon="16.334593521739663"><ele>55.99999999999999</ele><time>2026-04-27T14:48:46Z</time></trkpt><trkpt lat="38.90470693055825" lon="16.33464509095538"><ele>56.0</ele><time>2026-04-27T14:48:47Z</time></trkpt><trkpt lat="38.90460188783604" lon="16.334689261354434"><ele>56.0</ele><time>2026-04-27T14:48:48Z</time></trkpt><trkpt lat="38.90450456062851" lon="16.334719209394002"><ele>56.0</ele><time>2026-04-27T14:48:49Z</time></trkpt><trkpt lat="38.90441111057413" lon="16.334731413928573"><ele>55.99999999999999</ele><time>2026-04-27T14:48:50Z</time></trkpt><trkpt lat="38.904310947947664" lon="16.334684870227814"><ele>55.99999999999999</ele><time>2026-04-27T14:48:51Z</time></trkpt><trkpt lat="38.90420207626233" lon="16.33466855392864"><ele>56.0</ele><time>2026-04-27T14:48:52Z</time></trkpt><trkpt lat="38.904091031791" lon="16.334566255970188"><ele>56.0</ele><time>2026-04-27T14:48:53Z</time></trkpt><trkpt lat="38.90397532996182" lon="16.334506099315483"><ele>56.4</ele><time>2026-04-27T14:48:54Z</time></trkpt><trkpt lat="38.903876138772375" lon="16.334456774953935"><ele>56.8</ele><time>2026-04-27T14:48:55Z</time></trkpt><trkpt lat="38.90379020444583" lon="16.334415538784352"><ele>57.199999999999996</ele><time>2026-04-27T14:48:56Z</time></trkpt><trkpt lat="38.9036999922923" lon="16.33441187301138"><ele>57.599999999999994</ele><time>2026-04-27T14:48:57Z</time></trkpt><trkpt lat="38.9036080255054" lon="16.334388845180236"><ele>58.0</ele><time>2026-04-27T14:48:58Z</time></trkpt><trkpt lat="38.90350930338287" lon="16.334388323438574"><ele>58.0</ele><time>2026-04-27T14:48:59Z</time></trkpt><trkpt lat="38.903419272243454" lon="16.33439519711108"><ele>58.0</ele><time>2026-04-27T14:49:00Z</time></trkpt><trkpt lat="38.903337435054524" lon="16.334371888761087"><ele>58.0</ele><time>2026-04-27T14:49:01Z</time></trkpt><trkpt lat="38.90323673588764" lon="16.334370966092827"><ele>58.0</ele><time>2026-04-27T14:49:02Z</time></trkpt><trkpt lat="38.903128947955054" lon="16.33439374859357"><ele>58.0</ele><time>2026-04-27T14:49:03Z</time></trkpt><trkpt lat="38.9030200929768" lon="16.334377034366945"><ele>59.5</ele><time>2026-04-27T14:49:04Z</time></trkpt><trkpt lat="38.90291539510816" lon="16.334379967003176"><ele>61.0</ele><time>2026-04-27T14:49:05Z</time></trkpt><trkpt lat="38.90280133811802" lon="16.334451058510997"><ele>62.5</ele><time>2026-04-27T14:49:06Z</time></trkpt><trkpt lat="38.90271036782651" lon="16.334532249983813"><ele>64.0</ele><time>2026-04-27T14:49:07Z</time></trkpt><trkpt lat="38.902649204929595" lon="16.334670351161204"><ele>62.75</ele><time>2026-04-27T14:49:08Z</time></trkpt><trkpt lat="38.90257691904838" lon="16.334796324624506"><ele>61.5</ele><time>2026-04-27T14:49:09Z</time></trkpt><trkpt lat="38.902504102601625" lon="16.33494448638534"><ele>60.25</ele><time>2026-04-27T14:49:10Z</time></trkpt><trkpt lat="38.90242093948743" lon="16.335088521440806"><ele>59.0</ele><time>2026-04-27T14:49:11Z</time></trkpt><trkpt lat="38.90234081916518" lon="16.33523191322421"><ele>59.0</ele><time>2026-04-27T14:49:12Z</time></trkpt><trkpt lat="38.90226777919542" lon="16.335378302698338"><ele>59.0</ele><time>2026-04-27T14:49:13Z</time></trkpt><trkpt lat="38.90219726625456" lon="16.335518877875966"><ele>59.0</ele><time>2026-04-27T14:49:14Z</time></trkpt><trkpt lat="38.902131663592655" lon="16.335653132072235"><ele>59.0</ele><time>2026-04-27T14:49:15Z</time></trkpt><trkpt lat="38.902068374130366" lon="16.335784261588792"><ele>57.75</ele><time>2026-04-27T14:49:16Z</time></trkpt><trkpt lat="38.90200160643109" lon="16.33590846036415"><ele>56.5</ele><time>2026-04-27T14:49:17Z</time></trkpt><trkpt lat="38.901939939985226" lon="16.336028207213364"><ele>55.25</ele><time>2026-04-27T14:49:18Z</time></trkpt><trkpt lat="38.90187617557524" lon="16.336149478762824"><ele>54.0</ele><time>2026-04-27T14:49:19Z</time></trkpt><trkpt lat="38.90181198544817" lon="16.33626493301017"><ele>53.25</ele><time>2026-04-27T14:49:20Z</time></trkpt><trkpt lat="38.90173794634953" lon="16.336379623754368"><ele>52.5</ele><time>2026-04-27T14:49:21Z</time></trkpt><trkpt lat="38.90166224829274" lon="16.33648586841065"><ele>51.75</ele><time>2026-04-27T14:49:22Z</time></trkpt><trkpt lat="38.90157991031717" lon="16.336579340707765"><ele>51.0</ele><time>2026-04-27T14:49:23Z</time></trkpt><trkpt lat="38.90149179280188" lon="16.33667451401694"><ele>51.0</ele><time>2026-04-27T14:49:24Z</time></trkpt><trkpt lat="38.90139353806329" lon="16.336769733607664"><ele>51.0</ele><time>2026-04-27T14:49:25Z</time></trkpt><trkpt lat="38.90129002066165" lon="16.336851943689542"><ele>51.0</ele><time>2026-04-27T14:49:26Z</time></trkpt><trkpt lat="38.901187649284616" lon="16.33691337041012"><ele>51.0</ele><time>2026-04-27T14:49:27Z</time></trkpt><trkpt lat="38.901083784185886" lon="16.336953404135226"><ele>51.0</ele><time>2026-04-27T14:49:28Z</time></trkpt><trkpt lat="38.90099280975796" lon="16.336980359582334"><ele>51.0</ele><time>2026-04-27T14:49:29Z</time></trkpt><trkpt lat="38.90090507388086" lon="16.33701364088"><ele>51.0</ele><time>2026-04-27T14:49:30Z</time></trkpt><trkpt lat="38.90079998813366" lon="16.33706322049891"><ele>51.0</ele><time>2026-04-27T14:49:31Z</time></trkpt><trkpt lat="38.90069005898803" lon="16.33709061711216"><ele>51.0</ele><time>2026-04-27T14:49:32Z</time></trkpt><trkpt lat="38.90059471727716" lon="16.33712547982842"><ele>50.5</ele><time>2026-04-27T14:49:33Z</time></trkpt><trkpt lat="38.9004998385819" lon="16.33716017323685"><ele>50.0</ele><time>2026-04-27T14:49:34Z</time></trkpt><trkpt lat="38.90038936581197" lon="16.337199582723578"><ele>49.5</ele><time>2026-04-27T14:49:35Z</time></trkpt><trkpt lat="38.90024564503605" lon="16.33725070011186"><ele>49.0</ele><time>2026-04-27T14:49:36Z</time></trkpt><trkpt lat="38.90006981121105" lon="16.337313239205187"><ele>48.666666666666664</ele><time>2026-04-27T14:49:37Z</time></trkpt><trkpt lat="38.8998669830908" lon="16.337385379397038"><ele>48.33333333333333</ele><time>2026-04-27T14:49:38Z</time></trkpt><trkpt lat="38.899639606711865" lon="16.33746710352812"><ele>48.0</ele><time>2026-04-27T14:49:39Z</time></trkpt><trkpt lat="38.899397607947655" lon="16.337553427289343"><ele>46.5</ele><time>2026-04-27T14:49:40Z</time></trkpt><trkpt lat="38.899163010144825" lon="16.337636713216195"><ele>45.0</ele><time>2026-04-27T14:49:41Z</time></trkpt><trkpt lat="38.8989280698257" lon="16.337720120737455"><ele>45.0</ele><time>2026-04-27T14:49:42Z</time></trkpt><trkpt lat="38.89869590450925" lon="16.33780254309078"><ele>45.0</ele><time>2026-04-27T14:49:43Z</time></trkpt><trkpt lat="38.89847145030917" lon="16.337882227873042"><ele>44.666666666666664</ele><time>2026-04-27T14:49:44Z</time></trkpt><trkpt lat="38.898255423059744" lon="16.337958920959373"><ele>44.33333333333333</ele><time>2026-04-27T14:49:45Z</time></trkpt><trkpt lat="38.89804214509485" lon="16.33803483989923"><ele>44.0</ele><time>2026-04-27T14:49:46Z</time></trkpt><trkpt lat="38.89783282787958" lon="16.338130678103685"><ele>44.0</ele><time>2026-04-27T14:49:47Z</time></trkpt><trkpt lat="38.89762239550546" lon="16.338203634664833"><ele>44.0</ele><time>2026-04-27T14:49:48Z</time></trkpt><trkpt lat="38.897409354702056" lon="16.338257123523455"><ele>44.0</ele><time>2026-04-27T14:49:49Z</time></trkpt><trkpt lat="38.897200603950765" lon="16.338330247012923"><ele>44.0</ele><time>2026-04-27T14:49:50Z</time></trkpt><trkpt lat="38.896987233717816" lon="16.338403979344285"><ele>44.0</ele><time>2026-04-27T14:49:51Z</time></trkpt><trkpt lat="38.89678361019657" lon="16.33847431071222"><ele>44.0</ele><time>2026-04-27T14:49:52Z</time></trkpt><trkpt lat="38.89659559443686" lon="16.338539251191552"><ele>44.0</ele><time>2026-04-27T14:49:53Z</time></trkpt><trkpt lat="38.896425048058354" lon="16.33859825879859"><ele>44.0</ele><time>2026-04-27T14:49:54Z</time></trkpt><trkpt lat="38.89625900275014" lon="16.33865685733888"><ele>44.0</ele><time>2026-04-27T14:49:55Z</time></trkpt><trkpt lat="38.89609653102243" lon="16.338714771245535"><ele>44.0</ele><time>2026-04-27T14:49:56Z</time></trkpt><trkpt lat="38.89592842954418" lon="16.33877469191252"><ele>44.0</ele><time>2026-04-27T14:49:57Z</time></trkpt><trkpt lat="38.89573900444734" lon="16.338842213493955"><ele>44.0</ele><time>2026-04-27T14:49:58Z</time></trkpt><trkpt lat="38.89552055710334" lon="16.338920135330945"><ele>43.5</ele><time>2026-04-27T14:49:59Z</time></trkpt><trkpt lat="38.89528147243702" lon="16.339005510747885"><ele>43.0</ele><time>2026-04-27T14:50:00Z</time></trkpt><trkpt lat="38.895020826847755" lon="16.339098436150746"><ele>43.0</ele><time>2026-04-27T14:50:01Z</time></trkpt><trkpt lat="38.8947425950017" lon="16.33919438502794"><ele>43.0</ele><time>2026-04-27T14:50:02Z</time></trkpt><trkpt lat="38.89448292589074" lon="16.339282727613902"><ele>43.0</ele><time>2026-04-27T14:50:03Z</time></trkpt><trkpt lat="38.894240570333224" lon="16.33936517990519"><ele>43.0</ele><time>2026-04-27T14:50:04Z</time></trkpt><trkpt lat="38.894019159186" lon="16.339440506668623"><ele>43.0</ele><time>2026-04-27T14:50:05Z</time></trkpt><trkpt lat="38.89379413112849" lon="16.339516390840274"><ele>43.0</ele><time>2026-04-27T14:50:06Z</time></trkpt><trkpt lat="38.893564402248266" lon="16.339594820877142"><ele>43.0</ele><time>2026-04-27T14:50:07Z</time></trkpt><trkpt lat="38.893347672582564" lon="16.339670663270567"><ele>43.0</ele><time>2026-04-27T14:50:08Z</time></trkpt><trkpt lat="38.89312667410275" lon="16.339695972240897"><ele>43.0</ele><time>2026-04-27T14:50:09Z</time></trkpt><trkpt lat="38.892929193974325" lon="16.339690533367367"><ele>43.0</ele><time>2026-04-27T14:50:10Z</time></trkpt><trkpt lat="38.892735112147506" lon="16.339659834596304"><ele>43.0</ele><time>2026-04-27T14:50:11Z</time></trkpt><trkpt lat="38.89253054096943" lon="16.339596768146343"><ele>43.0</ele><time>2026-04-27T14:50:12Z</time></trkpt><trkpt lat="38.89233393600791" lon="16.33949860857225"><ele>43.333333333333336</ele><time>2026-04-27T14:50:13Z</time></trkpt><trkpt lat="38.89214239450376" lon="16.33936751114673"><ele>43.666666666666664</ele><time>2026-04-27T14:50:14Z</time></trkpt><trkpt lat="38.89196498794182" lon="16.339202786452006"><ele>44.0</ele><time>2026-04-27T14:50:15Z</time></trkpt><trkpt lat="38.891807166776275" lon="16.339009377893515"><ele>43.5</ele><time>2026-04-27T14:50:16Z</time></trkpt><trkpt lat="38.891668313808836" lon="16.338789085858952"><ele>43.0</ele><time>2026-04-27T14:50:17Z</time></trkpt><trkpt lat="38.89154564481708" lon="16.338532158012985"><ele>43.0</ele><time>2026-04-27T14:50:18Z</time></trkpt><trkpt lat="38.891436893550534" lon="16.33824120449159"><ele>43.0</ele><time>2026-04-27T14:50:19Z</time></trkpt><trkpt lat="38.891342609965186" lon="16.337927591316795"><ele>41.0</ele><time>2026-04-27T14:50:20Z</time></trkpt><trkpt lat="38.89125090088335" lon="16.337621984552626"><ele>39.0</ele><time>2026-04-27T14:50:21Z</time></trkpt><trkpt lat="38.89116303875016" lon="16.33735547157759"><ele>39.333333333333336</ele><time>2026-04-27T14:50:22Z</time></trkpt><trkpt lat="38.89108085702928" lon="16.337119590679183"><ele>39.66666666666667</ele><time>2026-04-27T14:50:23Z</time></trkpt><trkpt lat="38.890994334861546" lon="16.336912184727222"><ele>40.0</ele><time>2026-04-27T14:50:24Z</time></trkpt><trkpt lat="38.89087855429538" lon="16.336729580213945"><ele>42.66666666666667</ele><time>2026-04-27T14:50:25Z</time></trkpt><trkpt lat="38.890733207940436" lon="16.336583525569687"><ele>45.333333333333336</ele><time>2026-04-27T14:50:26Z</time></trkpt><trkpt lat="38.890569278027954" lon="16.33649772812228"><ele>48.0</ele><time>2026-04-27T14:50:27Z</time></trkpt><trkpt lat="38.890392450175675" lon="16.336456593988675"><ele>48.0</ele><time>2026-04-27T14:50:28Z</time></trkpt><trkpt lat="38.89020869839312" lon="16.336462005039408"><ele>48.0</ele><time>2026-04-27T14:50:29Z</time></trkpt><trkpt lat="38.890024838545415" lon="16.336515275747555"><ele>48.0</ele><time>2026-04-27T14:50:30Z</time></trkpt><trkpt lat="38.889859510792604" lon="16.336630874540358"><ele>47.666666666666664</ele><time>2026-04-27T14:50:31Z</time></trkpt><trkpt lat="38.88970805297158" lon="16.336827432859682"><ele>47.33333333333333</ele><time>2026-04-27T14:50:32Z</time></trkpt><trkpt lat="38.889590882481464" lon="16.337073748563927"><ele>47.0</ele><time>2026-04-27T14:50:33Z</time></trkpt><trkpt lat="38.88944692718719" lon="16.33730660594757"><ele>46.666666666666664</ele><time>2026-04-27T14:50:34Z</time></trkpt><trkpt lat="38.889331857884066" lon="16.33752386214839"><ele>46.333333333333336</ele><time>2026-04-27T14:50:35Z</time></trkpt><trkpt lat="38.8892213136018" lon="16.337732574901462"><ele>46.0</ele><time>2026-04-27T14:50:36Z</time></trkpt><trkpt lat="38.889113035419435" lon="16.337937009502042"><ele>46.66666666666667</ele><time>2026-04-27T14:50:37Z</time></trkpt><trkpt lat="38.88900064324392" lon="16.3381489695569"><ele>47.333333333333336</ele><time>2026-04-27T14:50:38Z</time></trkpt><trkpt lat="38.88891331735557" lon="16.338362047358157"><ele>48.0</ele><time>2026-04-27T14:50:39Z</time></trkpt><trkpt lat="38.888786305964906" lon="16.3385207582547"><ele>48.0</ele><time>2026-04-27T14:50:40Z</time></trkpt><trkpt lat="38.88865971414633" lon="16.338672525817987"><ele>48.0</ele><time>2026-04-27T14:50:41Z</time></trkpt><trkpt lat="38.88853767248757" lon="16.338798124909445"><ele>48.0</ele><time>2026-04-27T14:50:42Z</time></trkpt><trkpt lat="38.88840328326691" lon="16.33888963890305"><ele>46.666666666666664</ele><time>2026-04-27T14:50:43Z</time></trkpt><trkpt lat="38.88825224022713" lon="16.33896760853924"><ele>45.33333333333333</ele><time>2026-04-27T14:50:44Z</time></trkpt><trkpt lat="38.888095782275265" lon="16.339045006317217"><ele>44.0</ele><time>2026-04-27T14:50:45Z</time></trkpt><trkpt lat="38.88795128211507" lon="16.33912329261201"><ele>44.0</ele><time>2026-04-27T14:50:46Z</time></trkpt><trkpt lat="38.88783310673065" lon="16.339260789358274"><ele>44.0</ele><time>2026-04-27T14:50:47Z</time></trkpt><trkpt lat="38.887757726602345" lon="16.339446611286135"><ele>44.0</ele><time>2026-04-27T14:50:48Z</time></trkpt><trkpt lat="38.88768306354279" lon="16.3396119287338"><ele>44.25</ele><time>2026-04-27T14:50:49Z</time></trkpt><trkpt lat="38.8875777872513" lon="16.339729004267205"><ele>44.5</ele><time>2026-04-27T14:50:50Z</time></trkpt><trkpt lat="38.887476350262574" lon="16.33985342136592"><ele>44.75</ele><time>2026-04-27T14:50:51Z</time></trkpt><trkpt lat="38.88730760872259" lon="16.339849049266224"><ele>45.0</ele><time>2026-04-27T14:50:52Z</time></trkpt><trkpt lat="38.887136698855684" lon="16.339894514977676"><ele>45.0</ele><time>2026-04-27T14:50:53Z</time></trkpt><trkpt lat="38.886974908305" lon="16.33991454087156"><ele>45.0</ele><time>2026-04-27T14:50:54Z</time></trkpt><trkpt lat="38.886821626531514" lon="16.339893805846646"><ele>45.0</ele><time>2026-04-27T14:50:55Z</time></trkpt><trkpt lat="38.8866874966842" lon="16.33983650475017"><ele>44.0</ele><time>2026-04-27T14:50:56Z</time></trkpt><trkpt lat="38.88654927051187" lon="16.33976273844792"><ele>43.0</ele><time>2026-04-27T14:50:57Z</time></trkpt><trkpt lat="38.88643231126653" lon="16.339622470217925"><ele>42.0</ele><time>2026-04-27T14:50:58Z</time></trkpt><trkpt lat="38.886313885197666" lon="16.339453856662182"><ele>42.0</ele><time>2026-04-27T14:50:59Z</time></trkpt><trkpt lat="38.88620080774696" lon="16.33927004672227"><ele>42.0</ele><time>2026-04-27T14:51:00Z</time></trkpt><trkpt lat="38.88609140686143" lon="16.33908700918898"><ele>42.0</ele><time>2026-04-27T14:51:01Z</time></trkpt><trkpt lat="38.88598367402269" lon="16.33891438269257"><ele>42.0</ele><time>2026-04-27T14:51:02Z</time></trkpt><trkpt lat="38.885873911299726" lon="16.33873911651337"><ele>42.0</ele><time>2026-04-27T14:51:03Z</time></trkpt><trkpt lat="38.885750093062164" lon="16.338551420856966"><ele>42.0</ele><time>2026-04-27T14:51:04Z</time></trkpt><trkpt lat="38.885624069486326" lon="16.338355491207867"><ele>42.0</ele><time>2026-04-27T14:51:05Z</time></trkpt><trkpt lat="38.88550314387453" lon="16.338164329877937"><ele>42.0</ele><time>2026-04-27T14:51:06Z</time></trkpt><trkpt lat="38.88539025983974" lon="16.3379886189624"><ele>42.0</ele><time>2026-04-27T14:51:07Z</time></trkpt><trkpt lat="38.885283433524464" lon="16.337820186481036"><ele>41.666666666666664</ele><time>2026-04-27T14:51:08Z</time></trkpt><trkpt lat="38.885174689599985" lon="16.33764845887048"><ele>41.33333333333333</ele><time>2026-04-27T14:51:09Z</time></trkpt><trkpt lat="38.88505507473445" lon="16.33747097713568"><ele>41.0</ele><time>2026-04-27T14:51:10Z</time></trkpt><trkpt lat="38.88491627030415" lon="16.33731788783932"><ele>41.0</ele><time>2026-04-27T14:51:11Z</time></trkpt><trkpt lat="38.8847627186314" lon="16.337199009296278"><ele>41.0</ele><time>2026-04-27T14:51:12Z</time></trkpt><trkpt lat="38.88457354501121" lon="16.33713493842672"><ele>41.0</ele><time>2026-04-27T14:51:13Z</time></trkpt><trkpt lat="38.88438493615967" lon="16.337082593448773"><ele>42.33333333333333</ele><time>2026-04-27T14:51:14Z</time></trkpt><trkpt lat="38.88419858269713" lon="16.337029135831955"><ele>43.666666666666664</ele><time>2026-04-27T14:51:15Z</time></trkpt><trkpt lat="38.884007711200525" lon="16.336999999522906"><ele>45.0</ele><time>2026-04-27T14:51:16Z</time></trkpt><trkpt lat="38.88382747787769" lon="16.336970380306063"><ele>45.0</ele><time>2026-04-27T14:51:17Z</time></trkpt><trkpt lat="38.8836562282275" lon="16.336941222813056"><ele>45.0</ele><time>2026-04-27T14:51:18Z</time></trkpt><trkpt lat="38.88349168001628" lon="16.336912261299055"><ele>45.0</ele><time>2026-04-27T14:51:19Z</time></trkpt><trkpt lat="38.88332438208187" lon="16.33687223939652"><ele>46.0</ele><time>2026-04-27T14:51:20Z</time></trkpt><trkpt lat="38.883146816815696" lon="16.336831326285445"><ele>47.0</ele><time>2026-04-27T14:51:21Z</time></trkpt><trkpt lat="38.88298755405778" lon="16.336699707897065"><ele>48.0</ele><time>2026-04-27T14:51:22Z</time></trkpt><trkpt lat="38.88282384898589" lon="16.336570755469733"><ele>48.0</ele><time>2026-04-27T14:51:23Z</time></trkpt><trkpt lat="38.88266526791784" lon="16.336442516275078"><ele>48.0</ele><time>2026-04-27T14:51:24Z</time></trkpt><trkpt lat="38.882515003942146" lon="16.336323806011773"><ele>48.0</ele><time>2026-04-27T14:51:25Z</time></trkpt><trkpt lat="38.882368739135565" lon="16.336210209492315"><ele>52.0</ele><time>2026-04-27T14:51:26Z</time></trkpt><trkpt lat="38.88222707025998" lon="16.336096010894618"><ele>56.0</ele><time>2026-04-27T14:51:27Z</time></trkpt><trkpt lat="38.88207659856624" lon="16.335976831217774"><ele>60.0</ele><time>2026-04-27T14:51:28Z</time></trkpt><trkpt lat="38.881928701575504" lon="16.335861835873487"><ele>60.0</ele><time>2026-04-27T14:51:29Z</time></trkpt><trkpt lat="38.881791711999355" lon="16.335758507312743"><ele>60.0</ele><time>2026-04-27T14:51:30Z</time></trkpt><trkpt lat="38.88165866050596" lon="16.335660782418774"><ele>60.0</ele><time>2026-04-27T14:51:31Z</time></trkpt><trkpt lat="38.881529475002196" lon="16.335574825333694"><ele>60.25</ele><time>2026-04-27T14:51:32Z</time></trkpt><trkpt lat="38.881398513050726" lon="16.33552795276289"><ele>60.5</ele><time>2026-04-27T14:51:33Z</time></trkpt><trkpt lat="38.88125815024156" lon="16.33554122144181"><ele>60.75</ele><time>2026-04-27T14:51:34Z</time></trkpt><trkpt lat="38.88111983664035" lon="16.335623746533663"><ele>61.0</ele><time>2026-04-27T14:51:35Z</time></trkpt><trkpt lat="38.880976324716116" lon="16.33570430214242"><ele>62.75</ele><time>2026-04-27T14:51:36Z</time></trkpt><trkpt lat="38.88085246662489" lon="16.335755154602033"><ele>64.5</ele><time>2026-04-27T14:51:37Z</time></trkpt><trkpt lat="38.88071874796236" lon="16.33579531764856"><ele>66.25</ele><time>2026-04-27T14:51:38Z</time></trkpt><trkpt lat="38.88060301002579" lon="16.335738415326592"><ele>68.0</ele><time>2026-04-27T14:51:39Z</time></trkpt><trkpt lat="38.88049306585133" lon="16.33566879933729"><ele>68.0</ele><time>2026-04-27T14:51:40Z</time></trkpt><trkpt lat="38.8803851706786" lon="16.335560831639807"><ele>68.0</ele><time>2026-04-27T14:51:41Z</time></trkpt><trkpt lat="38.88028213171589" lon="16.335441986988272"><ele>68.0</ele><time>2026-04-27T14:51:42Z</time></trkpt><trkpt lat="38.880183063061835" lon="16.33530896824108"><ele>68.0</ele><time>2026-04-27T14:51:43Z</time></trkpt><trkpt lat="38.88008359572047" lon="16.335170611969378"><ele>70.33333333333334</ele><time>2026-04-27T14:51:44Z</time></trkpt><trkpt lat="38.87995759334179" lon="16.335063276146656"><ele>72.66666666666667</ele><time>2026-04-27T14:51:45Z</time></trkpt><trkpt lat="38.87984370213269" lon="16.334940030636165"><ele>75.0</ele><time>2026-04-27T14:51:46Z</time></trkpt><trkpt lat="38.87969905491793" lon="16.334837642345764"><ele>75.0</ele><time>2026-04-27T14:51:47Z</time></trkpt><trkpt lat="38.87955472260138" lon="16.334747818630824"><ele>75.0</ele><time>2026-04-27T14:51:48Z</time></trkpt><trkpt lat="38.879425891443304" lon="16.33466521064103"><ele>75.0</ele><time>2026-04-27T14:51:49Z</time></trkpt><trkpt lat="38.879303858853646" lon="16.334580934300003"><ele>75.0</ele><time>2026-04-27T14:51:50Z</time></trkpt><trkpt lat="38.87918529882953" lon="16.334503671824148"><ele>77.0</ele><time>2026-04-27T14:51:51Z</time></trkpt><trkpt lat="38.87906016866642" lon="16.334433017217293"><ele>79.0</ele><time>2026-04-27T14:51:52Z</time></trkpt><trkpt lat="38.878923456357676" lon="16.33438124153212"><ele>81.0</ele><time>2026-04-27T14:51:53Z</time></trkpt><trkpt lat="38.8787796976555" lon="16.334390846775374"><ele>83.0</ele><time>2026-04-27T14:51:54Z</time></trkpt><trkpt lat="38.878636438504174" lon="16.334438119914257"><ele>83.0</ele><time>2026-04-27T14:51:55Z</time></trkpt><trkpt lat="38.87851029033828" lon="16.334461363469284"><ele>83.0</ele><time>2026-04-27T14:51:56Z</time></trkpt><trkpt lat="38.878389081940135" lon="16.33444531007999"><ele>83.0</ele><time>2026-04-27T14:51:57Z</time></trkpt><trkpt lat="38.87826613271128" lon="16.334391535216174"><ele>83.0</ele><time>2026-04-27T14:51:58Z</time></trkpt><trkpt lat="38.87814786893484" lon="16.334300050382886"><ele>83.25</ele><time>2026-04-27T14:51:59Z</time></trkpt><trkpt lat="38.87803093745266" lon="16.334197197780618"><ele>83.5</ele><time>2026-04-27T14:52:00Z</time></trkpt><trkpt lat="38.87790668137634" lon="16.33410578502958"><ele>83.75</ele><time>2026-04-27T14:52:01Z</time></trkpt><trkpt lat="38.87775082635828" lon="16.334065398486416"><ele>84.0</ele><time>2026-04-27T14:52:02Z</time></trkpt><trkpt lat="38.87760366764049" lon="16.334049538732586"><ele>84.75</ele><time>2026-04-27T14:52:03Z</time></trkpt><trkpt lat="38.877456027008684" lon="16.334039289862595"><ele>85.5</ele><time>2026-04-27T14:52:04Z</time></trkpt><trkpt lat="38.87731577556027" lon="16.334033625497657"><ele>86.25</ele><time>2026-04-27T14:52:05Z</time></trkpt><trkpt lat="38.877188947994235" lon="16.334028503299276"><ele>87.0</ele><time>2026-04-27T14:52:06Z</time></trkpt><trkpt lat="38.87707461721399" lon="16.3340202130589"><ele>87.0</ele><time>2026-04-27T14:52:07Z</time></trkpt><trkpt lat="38.87697441867717" lon="16.334012370732964"><ele>87.0</ele><time>2026-04-27T14:52:08Z</time></trkpt><trkpt lat="38.876877798972664" lon="16.334022555728374"><ele>87.0</ele><time>2026-04-27T14:52:09Z</time></trkpt><trkpt lat="38.876797136954636" lon="16.33398551637507"><ele>87.0</ele><time>2026-04-27T14:52:10Z</time></trkpt><trkpt lat="38.87672540023824" lon="16.33393698445426"><ele>87.0</ele><time>2026-04-27T14:52:11Z</time></trkpt><trkpt lat="38.87665559190556" lon="16.33392605333201"><ele>87.0</ele><time>2026-04-27T14:52:12Z</time></trkpt><trkpt lat="38.87659112194041" lon="16.333976743040036"><ele>87.0</ele><time>2026-04-27T14:52:13Z</time></trkpt><trkpt lat="38.87652288359709" lon="16.334083145674"><ele>87.0</ele><time>2026-04-27T14:52:14Z</time></trkpt><trkpt lat="38.87643438917197" lon="16.334213407999965"><ele>87.0</ele><time>2026-04-27T14:52:15Z</time></trkpt><trkpt lat="38.87633341044244" lon="16.334363114992648"><ele>87.0</ele><time>2026-04-27T14:52:16Z</time></trkpt><trkpt lat="38.87621981507508" lon="16.33453605756385"><ele>86.66666666666667</ele><time>2026-04-27T14:52:17Z</time></trkpt><trkpt lat="38.876088547942615" lon="16.334734160266287"><ele>86.33333333333334</ele><time>2026-04-27T14:52:18Z</time></trkpt><trkpt lat="38.87595543572243" lon="16.3349437513354"><ele>86.0</ele><time>2026-04-27T14:52:19Z</time></trkpt><trkpt lat="38.875846341937546" lon="16.33515402530428"><ele>86.0</ele><time>2026-04-27T14:52:20Z</time></trkpt><trkpt lat="38.87573721466584" lon="16.33535245007185"><ele>86.0</ele><time>2026-04-27T14:52:21Z</time></trkpt><trkpt lat="38.87564735217632" lon="16.33557184987117"><ele>86.0</ele><time>2026-04-27T14:52:22Z</time></trkpt><trkpt lat="38.875576020667346" lon="16.335816314817016"><ele>86.33333333333334</ele><time>2026-04-27T14:52:23Z</time></trkpt><trkpt lat="38.875523291228625" lon="16.336084580262522"><ele>86.66666666666667</ele><time>2026-04-27T14:52:24Z</time></trkpt><trkpt lat="38.87545738820415" lon="16.33633652134236"><ele>87.0</ele><time>2026-04-27T14:52:25Z</time></trkpt><trkpt lat="38.87542002220069" lon="16.33660497653499"><ele>87.66666666666667</ele><time>2026-04-27T14:52:26Z</time></trkpt><trkpt lat="38.875350028492896" lon="16.33685710639327"><ele>88.33333333333334</ele><time>2026-04-27T14:52:27Z</time></trkpt><trkpt lat="38.875290538082936" lon="16.33710769401512"><ele>89.0</ele><time>2026-04-27T14:52:28Z</time></trkpt><trkpt lat="38.87521965399161" lon="16.337352096893905"><ele>89.33333333333334</ele><time>2026-04-27T14:52:29Z</time></trkpt><trkpt lat="38.875132977705704" lon="16.33759063656337"><ele>89.66666666666667</ele><time>2026-04-27T14:52:30Z</time></trkpt><trkpt lat="38.87502446382561" lon="16.33782555083072"><ele>90.0</ele><time>2026-04-27T14:52:31Z</time></trkpt><trkpt lat="38.87491243603139" lon="16.338061138572375"><ele>89.0</ele><time>2026-04-27T14:52:32Z</time></trkpt><trkpt lat="38.87480258719537" lon="16.338284343756634"><ele>88.0</ele><time>2026-04-27T14:52:33Z</time></trkpt><trkpt lat="38.87469293274533" lon="16.338499166870044"><ele>87.0</ele><time>2026-04-27T14:52:34Z</time></trkpt><trkpt lat="38.874579715345405" lon="16.338720323317386"><ele>87.0</ele><time>2026-04-27T14:52:35Z</time></trkpt><trkpt lat="38.87446679698893" lon="16.338935579431617"><ele>87.0</ele><time>2026-04-27T14:52:36Z</time></trkpt><trkpt lat="38.87435584963342" lon="16.339144051106555"><ele>87.0</ele><time>2026-04-27T14:52:37Z</time></trkpt><trkpt lat="38.874241116167894" lon="16.339356069297402"><ele>87.0</ele><time>2026-04-27T14:52:38Z</time></trkpt><trkpt lat="38.87411998924537" lon="16.339570205530578"><ele>87.0</ele><time>2026-04-27T14:52:39Z</time></trkpt><trkpt lat="38.87399662451286" lon="16.3397841044086"><ele>87.0</ele><time>2026-04-27T14:52:40Z</time></trkpt><trkpt lat="38.87386654707477" lon="16.339997698261463"><ele>86.66666666666667</ele><time>2026-04-27T14:52:41Z</time></trkpt><trkpt lat="38.87373268129873" lon="16.340209457930033"><ele>86.33333333333334</ele><time>2026-04-27T14:52:42Z</time></trkpt><trkpt lat="38.873593415696156" lon="16.34041754665265"><ele>86.0</ele><time>2026-04-27T14:52:43Z</time></trkpt><trkpt lat="38.873454717564954" lon="16.340625956802093"><ele>85.0</ele><time>2026-04-27T14:52:44Z</time></trkpt><trkpt lat="38.8733218784997" lon="16.340826378674674"><ele>84.0</ele><time>2026-04-27T14:52:45Z</time></trkpt><trkpt lat="38.873190918498636" lon="16.341023381471114"><ele>83.0</ele><time>2026-04-27T14:52:46Z</time></trkpt><trkpt lat="38.873061643377255" lon="16.341211172100287"><ele>82.33333333333334</ele><time>2026-04-27T14:52:47Z</time></trkpt><trkpt lat="38.87291779033459" lon="16.341386992426916"><ele>81.66666666666667</ele><time>2026-04-27T14:52:48Z</time></trkpt><trkpt lat="38.872755742132426" lon="16.34155173787266"><ele>81.0</ele><time>2026-04-27T14:52:49Z</time></trkpt><trkpt lat="38.87258622370284" lon="16.34171789318033"><ele>82.33333333333333</ele><time>2026-04-27T14:52:50Z</time></trkpt><trkpt lat="38.87241252445218" lon="16.34188967888366"><ele>83.66666666666666</ele><time>2026-04-27T14:52:51Z</time></trkpt><trkpt lat="38.872235664066615" lon="16.34206852441925"><ele>85.0</ele><time>2026-04-27T14:52:52Z</time></trkpt><trkpt lat="38.87205409261203" lon="16.342248497482412"><ele>86.0</ele><time>2026-04-27T14:52:53Z</time></trkpt><trkpt lat="38.871883115769215" lon="16.34240181250672"><ele>87.0</ele><time>2026-04-27T14:52:54Z</time></trkpt><trkpt lat="38.87173943850645" lon="16.34251794190241"><ele>88.0</ele><time>2026-04-27T14:52:55Z</time></trkpt><trkpt lat="38.87160455698451" lon="16.342601566300736"><ele>88.25</ele><time>2026-04-27T14:52:56Z</time></trkpt><trkpt lat="38.87148620043295" lon="16.3426802020334"><ele>88.5</ele><time>2026-04-27T14:52:57Z</time></trkpt><trkpt lat="38.87138211441596" lon="16.342755683113392"><ele>88.75</ele><time>2026-04-27T14:52:58Z</time></trkpt><trkpt lat="38.87129604712206" lon="16.34282856028636"><ele>89.0</ele><time>2026-04-27T14:52:59Z</time></trkpt><trkpt lat="38.87121443909311" lon="16.342906303724387"><ele>89.0</ele><time>2026-04-27T14:53:00Z</time></trkpt><trkpt lat="38.87112911020657" lon="16.34298996944904"><ele>89.0</ele><time>2026-04-27T14:53:01Z</time></trkpt><trkpt lat="38.871048482704886" lon="16.343069025396606"><ele>89.0</ele><time>2026-04-27T14:53:02Z</time></trkpt><trkpt lat="38.87097821702344" lon="16.343137921525656"><ele>89.0</ele><time>2026-04-27T14:53:03Z</time></trkpt><trkpt lat="38.870912455581696" lon="16.343202401167865"><ele>89.0</ele><time>2026-04-27T14:53:04Z</time></trkpt><trkpt lat="38.87085329520256" lon="16.343260408488778"><ele>89.83333333333334</ele><time>2026-04-27T14:53:05Z</time></trkpt><trkpt lat="38.87078917514093" lon="16.343323278719403"><ele>90.66666666666667</ele><time>2026-04-27T14:53:06Z</time></trkpt><trkpt lat="38.87073805261308" lon="16.343373405619552"><ele>91.5</ele><time>2026-04-27T14:53:07Z</time></trkpt><trkpt lat="38.87079483896004" lon="16.34332109571779"><ele>92.33333333333333</ele><time>2026-04-27T14:53:13Z</time></trkpt><trkpt lat="38.87085231725672" lon="16.343266849835597"><ele>93.16666666666666</ele><time>2026-04-27T14:53:14Z</time></trkpt><trkpt lat="38.87096380641389" lon="16.343243945242353"><ele>94.0</ele><time>2026-04-27T14:53:15Z</time></trkpt><trkpt lat="38.87105790466382" lon="16.34316320468136"><ele>94.0</ele><time>2026-04-27T14:53:16Z</time></trkpt><trkpt lat="38.87114256014736" lon="16.343089336043136"><ele>94.0</ele><time>2026-04-27T14:53:17Z</time></trkpt><trkpt lat="38.87121894795313" lon="16.3430174456899"><ele>94.0</ele><time>2026-04-27T14:53:18Z</time></trkpt><trkpt lat="38.871292950481504" lon="16.342949655610276"><ele>94.0</ele><time>2026-04-27T14:53:19Z</time></trkpt><trkpt lat="38.871367648148905" lon="16.34288514950048"><ele>94.0</ele><time>2026-04-27T14:53:20Z</time></trkpt><trkpt lat="38.871434534343045" lon="16.342829588963692"><ele>93.16666666666666</ele><time>2026-04-27T14:53:21Z</time></trkpt><trkpt lat="38.87149957200226" lon="16.342782374492913"><ele>92.33333333333333</ele><time>2026-04-27T14:53:22Z</time></trkpt><trkpt lat="38.871556653495006" lon="16.342741598408185"><ele>91.5</ele><time>2026-04-27T14:53:23Z</time></trkpt><trkpt lat="38.87161953785821" lon="16.342703361744707"><ele>90.66666666666667</ele><time>2026-04-27T14:53:26Z</time></trkpt><trkpt lat="38.87166511296888" lon="16.34263086390602"><ele>89.83333333333334</ele><time>2026-04-27T14:53:29Z</time></trkpt><trkpt lat="38.87157450698081" lon="16.342573847152526"><ele>89.0</ele><time>2026-04-27T14:53:31Z</time></trkpt><trkpt lat="38.8714564011442" lon="16.34248588771014"><ele>89.0</ele><time>2026-04-27T14:53:33Z</time></trkpt><trkpt lat="38.87140145545979" lon="16.342368232606102"><ele>89.0</ele><time>2026-04-27T14:53:34Z</time></trkpt><trkpt lat="38.87135660112924" lon="16.34218760616412"><ele>89.0</ele><time>2026-04-27T14:53:35Z</time></trkpt><trkpt lat="38.871319531403216" lon="16.342022465325723"><ele>89.0</ele><time>2026-04-27T14:53:36Z</time></trkpt><trkpt lat="38.87129980660045" lon="16.341893151178272"><ele>87.6</ele><time>2026-04-27T14:53:37Z</time></trkpt><trkpt lat="38.87131178372436" lon="16.34177302193961"><ele>86.2</ele><time>2026-04-27T14:53:38Z</time></trkpt><trkpt lat="38.871327550017746" lon="16.341657042448663"><ele>84.8</ele><time>2026-04-27T14:53:39Z</time></trkpt><trkpt lat="38.87140990026715" lon="16.341577691735747"><ele>83.39999999999999</ele><time>2026-04-27T14:53:40Z</time></trkpt><trkpt lat="38.87144409578977" lon="16.341508430083977"><ele>82.0</ele><time>2026-04-27T14:53:41Z</time></trkpt><trkpt lat="38.87144655996738" lon="16.341381528808828"><ele>81.39999999999999</ele><time>2026-04-27T14:53:43Z</time></trkpt><trkpt lat="38.87138407315775" lon="16.341274706942052"><ele>80.8</ele><time>2026-04-27T14:53:46Z</time></trkpt><trkpt lat="38.87135553841384" lon="16.34119957327117"><ele>80.2</ele><time>2026-04-27T14:53:47Z</time></trkpt><trkpt lat="38.87133641776232" lon="16.341051802402895"><ele>79.6</ele><time>2026-04-27T14:53:49Z</time></trkpt><trkpt lat="38.87130631032884" lon="16.340914102895855"><ele>79.0</ele><time>2026-04-27T14:53:51Z</time></trkpt><trkpt lat="38.871264441930045" lon="16.340833653993208"><ele>79.0</ele><time>2026-04-27T14:53:52Z</time></trkpt><trkpt lat="38.871210673963354" lon="16.34073380068018"><ele>79.0</ele><time>2026-04-27T14:53:53Z</time></trkpt><trkpt lat="38.87113934057975" lon="16.340647399722258"><ele>79.0</ele><time>2026-04-27T14:53:54Z</time></trkpt><trkpt lat="38.87105278807466" lon="16.340552641238677"><ele>79.0</ele><time>2026-04-27T14:53:55Z</time></trkpt><trkpt lat="38.870964082103534" lon="16.340470443349826"><ele>79.0</ele><time>2026-04-27T14:53:56Z</time></trkpt><trkpt lat="38.870895193646675" lon="16.340419240307988"><ele>79.4</ele><time>2026-04-27T14:53:57Z</time></trkpt><trkpt lat="38.87078060378808" lon="16.340332497931115"><ele>79.80000000000001</ele><time>2026-04-27T14:53:59Z</time></trkpt><trkpt lat="38.87071975866208" lon="16.340284804379504"><ele>80.19999999999999</ele><time>2026-04-27T14:54:00Z</time></trkpt><trkpt lat="38.870643866498014" lon="16.340233491970757"><ele>80.6</ele><time>2026-04-27T14:54:01Z</time></trkpt><trkpt lat="38.870550229002916" lon="16.340185703977156"><ele>81.0</ele><time>2026-04-27T14:54:02Z</time></trkpt><trkpt lat="38.870425636116835" lon="16.34016840915631"><ele>81.0</ele><time>2026-04-27T14:54:03Z</time></trkpt><trkpt lat="38.87030282871356" lon="16.340172268332935"><ele>81.0</ele><time>2026-04-27T14:54:04Z</time></trkpt><trkpt lat="38.870216644943454" lon="16.340175903207353"><ele>81.0</ele><time>2026-04-27T14:54:05Z</time></trkpt><trkpt lat="38.87014102671583" lon="16.34016768847867"><ele>81.0</ele><time>2026-04-27T14:54:06Z</time></trkpt><trkpt lat="38.87006698834553" lon="16.34014033849125"><ele>81.0</ele><time>2026-04-27T14:54:07Z</time></trkpt><trkpt lat="38.87000128438642" lon="16.340039350207793"><ele>83.33333333333333</ele><time>2026-04-27T14:54:08Z</time></trkpt><trkpt lat="38.869904757397144" lon="16.339922680565884"><ele>85.66666666666666</ele><time>2026-04-27T14:54:09Z</time></trkpt><trkpt lat="38.86979245720687" lon="16.339786626705816"><ele>88.0</ele><time>2026-04-27T14:54:10Z</time></trkpt><trkpt lat="38.86966192387996" lon="16.339624899244825"><ele>88.0</ele><time>2026-04-27T14:54:11Z</time></trkpt><trkpt lat="38.8695320170673" lon="16.339484448850126"><ele>88.0</ele><time>2026-04-27T14:54:12Z</time></trkpt><trkpt lat="38.86940816377324" lon="16.339355134391365"><ele>88.0</ele><time>2026-04-27T14:54:13Z</time></trkpt><trkpt lat="38.86925651768068" lon="16.339250877271887"><ele>92.33333333333333</ele><time>2026-04-27T14:54:14Z</time></trkpt><trkpt lat="38.86906571901214" lon="16.339140935077864"><ele>96.66666666666666</ele><time>2026-04-27T14:54:15Z</time></trkpt><trkpt lat="38.86889239425211" lon="16.33898253532951"><ele>101.0</ele><time>2026-04-27T14:54:16Z</time></trkpt><trkpt lat="38.868731684457806" lon="16.33882743445518"><ele>101.0</ele><time>2026-04-27T14:54:17Z</time></trkpt><trkpt lat="38.86858239249664" lon="16.33871713922878"><ele>101.0</ele><time>2026-04-27T14:54:18Z</time></trkpt><trkpt lat="38.868472633394646" lon="16.338615556662525"><ele>101.0</ele><time>2026-04-27T14:54:19Z</time></trkpt><trkpt lat="38.86836850495459" lon="16.338535298774374"><ele>101.0</ele><time>2026-04-27T14:54:20Z</time></trkpt><trkpt lat="38.86826173535183" lon="16.338458075429006"><ele>107.66666666666666</ele><time>2026-04-27T14:54:21Z</time></trkpt><trkpt lat="38.86811744302576" lon="16.33845041088777"><ele>114.33333333333334</ele><time>2026-04-27T14:54:22Z</time></trkpt><trkpt lat="38.867978655350406" lon="16.338526318624744"><ele>121.0</ele><time>2026-04-27T14:54:23Z</time></trkpt><trkpt lat="38.86782229053896" lon="16.338591406271632"><ele>121.0</ele><time>2026-04-27T14:54:24Z</time></trkpt><trkpt lat="38.86767224105581" lon="16.338677174681404"><ele>121.0</ele><time>2026-04-27T14:54:25Z</time></trkpt><trkpt lat="38.86751686487481" lon="16.338765987796037"><ele>121.0</ele><time>2026-04-27T14:54:26Z</time></trkpt><trkpt lat="38.86736259350709" lon="16.338860991886087"><ele>125.25</ele><time>2026-04-27T14:54:27Z</time></trkpt><trkpt lat="38.86722674812106" lon="16.33894549364909"><ele>129.5</ele><time>2026-04-27T14:54:28Z</time></trkpt><trkpt lat="38.8670990529513" lon="16.339018244054518"><ele>133.75</ele><time>2026-04-27T14:54:29Z</time></trkpt><trkpt lat="38.86697988301811" lon="16.33909936799324"><ele>138.0</ele><time>2026-04-27T14:54:30Z</time></trkpt><trkpt lat="38.86687257941988" lon="16.33922766908914"><ele>138.0</ele><time>2026-04-27T14:54:31Z</time></trkpt><trkpt lat="38.8667843307016" lon="16.339394386170056"><ele>138.0</ele><time>2026-04-27T14:54:32Z</time></trkpt><trkpt lat="38.86669289257239" lon="16.339561424272983"><ele>138.0</ele><time>2026-04-27T14:54:33Z</time></trkpt><trkpt lat="38.866590351354056" lon="16.339727498543585"><ele>146.0</ele><time>2026-04-27T14:54:34Z</time></trkpt><trkpt lat="38.866471898913765" lon="16.339898329211934"><ele>154.0</ele><time>2026-04-27T14:54:35Z</time></trkpt><trkpt lat="38.86633522261866" lon="16.34007532926743"><ele>162.0</ele><time>2026-04-27T14:54:36Z</time></trkpt><trkpt lat="38.86618306860688" lon="16.34023753391047"><ele>162.0</ele><time>2026-04-27T14:54:37Z</time></trkpt><trkpt lat="38.8660445112621" lon="16.34038176301568"><ele>162.0</ele><time>2026-04-27T14:54:38Z</time></trkpt><trkpt lat="38.86593210092976" lon="16.34050175826427"><ele>162.0</ele><time>2026-04-27T14:54:39Z</time></trkpt><trkpt lat="38.86583777945877" lon="16.340599895484587"><ele>162.0</ele><time>2026-04-27T14:54:40Z</time></trkpt><trkpt lat="38.86575980129212" lon="16.340658850204186"><ele>165.25</ele><time>2026-04-27T14:54:41Z</time></trkpt><trkpt lat="38.86567194029394" lon="16.340690931356903"><ele>168.5</ele><time>2026-04-27T14:54:42Z</time></trkpt><trkpt lat="38.86555644970632" lon="16.340657178646513"><ele>171.75</ele><time>2026-04-27T14:54:43Z</time></trkpt><trkpt lat="38.865425044402606" lon="16.340635798486467"><ele>175.0</ele><time>2026-04-27T14:54:44Z</time></trkpt><trkpt lat="38.865309609317926" lon="16.340633484170034"><ele>175.0</ele><time>2026-04-27T14:54:45Z</time></trkpt><trkpt lat="38.865200587770744" lon="16.34068394921571"><ele>175.0</ele><time>2026-04-27T14:54:46Z</time></trkpt><trkpt lat="38.865102791890976" lon="16.3407869110215"><ele>175.0</ele><time>2026-04-27T14:54:47Z</time></trkpt><trkpt lat="38.86499739245847" lon="16.340925753311062"><ele>175.0</ele><time>2026-04-27T14:54:48Z</time></trkpt><trkpt lat="38.86488342577719" lon="16.34110039046463"><ele>175.33333333333334</ele><time>2026-04-27T14:54:49Z</time></trkpt><trkpt lat="38.864764230603804" lon="16.34130147393235"><ele>175.66666666666666</ele><time>2026-04-27T14:54:50Z</time></trkpt><trkpt lat="38.864658495900144" lon="16.341486337976267"><ele>176.0</ele><time>2026-04-27T14:54:51Z</time></trkpt><trkpt lat="38.86456920195648" lon="16.341642533261595"><ele>177.66666666666666</ele><time>2026-04-27T14:54:52Z</time></trkpt><trkpt lat="38.86447442585961" lon="16.341770724085897"><ele>179.33333333333334</ele><time>2026-04-27T14:54:53Z</time></trkpt><trkpt lat="38.864344630213644" lon="16.341874817715915"><ele>181.0</ele><time>2026-04-27T14:54:54Z</time></trkpt><trkpt lat="38.864182883444364" lon="16.341998381675868"><ele>181.0</ele><time>2026-04-27T14:54:55Z</time></trkpt><trkpt lat="38.864038637219686" lon="16.34210456918164"><ele>181.0</ele><time>2026-04-27T14:54:56Z</time></trkpt><trkpt lat="38.86391114963897" lon="16.342183316807144"><ele>181.0</ele><time>2026-04-27T14:54:57Z</time></trkpt><trkpt lat="38.86380286281987" lon="16.34222616322657"><ele>181.0</ele><time>2026-04-27T14:54:58Z</time></trkpt><trkpt lat="38.86369600459615" lon="16.342231246633872"><ele>181.0</ele><time>2026-04-27T14:54:59Z</time></trkpt><trkpt lat="38.86357396352084" lon="16.34218356792219"><ele>181.0</ele><time>2026-04-27T14:55:00Z</time></trkpt><trkpt lat="38.86343191862728" lon="16.34214159933181"><ele>181.0</ele><time>2026-04-27T14:55:01Z</time></trkpt><trkpt lat="38.86329698242922" lon="16.342133084224496"><ele>181.0</ele><time>2026-04-27T14:55:02Z</time></trkpt><trkpt lat="38.86318691674498" lon="16.342132839896067"><ele>182.0</ele><time>2026-04-27T14:55:03Z</time></trkpt><trkpt lat="38.863102071038604" lon="16.342128251184093"><ele>183.0</ele><time>2026-04-27T14:55:04Z</time></trkpt><trkpt lat="38.86303340778775" lon="16.3421213197685"><ele>184.0</ele><time>2026-04-27T14:55:05Z</time></trkpt><trkpt lat="38.8629567881781" lon="16.342113382163614"><ele>185.0</ele><time>2026-04-27T14:55:06Z</time></trkpt><trkpt lat="38.862867293884726" lon="16.342108885689182"><ele>186.0</ele><time>2026-04-27T14:55:07Z</time></trkpt><trkpt lat="38.862763639824266" lon="16.34212683589631"><ele>187.0</ele><time>2026-04-27T14:55:08Z</time></trkpt><trkpt lat="38.86263970992449" lon="16.342217367388074"><ele>195.66666666666669</ele><time>2026-04-27T14:55:09Z</time></trkpt><trkpt lat="38.86250950902529" lon="16.34231283931264"><ele>204.33333333333334</ele><time>2026-04-27T14:55:10Z</time></trkpt><trkpt lat="38.862360506201455" lon="16.342415570550454"><ele>213.0</ele><time>2026-04-27T14:55:11Z</time></trkpt><trkpt lat="38.86224183125753" lon="16.342491049452676"><ele>213.0</ele><time>2026-04-27T14:55:12Z</time></trkpt><trkpt lat="38.86213372682981" lon="16.342528475441767"><ele>213.0</ele><time>2026-04-27T14:55:13Z</time></trkpt><trkpt lat="38.86202757483791" lon="16.342558587882728"><ele>213.0</ele><time>2026-04-27T14:55:14Z</time></trkpt><trkpt lat="38.86193164596318" lon="16.342573467502078"><ele>213.0</ele><time>2026-04-27T14:55:15Z</time></trkpt><trkpt lat="38.861843829455644" lon="16.342577332772603"><ele>213.0</ele><time>2026-04-27T14:55:16Z</time></trkpt><trkpt lat="38.8617407489489" lon="16.342564093721144"><ele>216.66666666666669</ele><time>2026-04-27T14:55:17Z</time></trkpt><trkpt lat="38.86161414894487" lon="16.342519849359153"><ele>220.33333333333334</ele><time>2026-04-27T14:55:18Z</time></trkpt><trkpt lat="38.86146208156949" lon="16.342443781581593"><ele>224.0</ele><time>2026-04-27T14:55:19Z</time></trkpt><trkpt lat="38.861295532605006" lon="16.34234026222582"><ele>224.0</ele><time>2026-04-27T14:55:20Z</time></trkpt><trkpt lat="38.861155512783306" lon="16.342224110585292"><ele>224.0</ele><time>2026-04-27T14:55:21Z</time></trkpt><trkpt lat="38.86105225924937" lon="16.34213161335222"><ele>224.0</ele><time>2026-04-27T14:55:22Z</time></trkpt><trkpt lat="38.86097485649906" lon="16.34206674285836"><ele>224.0</ele><time>2026-04-27T14:55:23Z</time></trkpt><trkpt lat="38.860899331974885" lon="16.342061155834884"><ele>222.25</ele><time>2026-04-27T14:55:24Z</time></trkpt><trkpt lat="38.86081065986261" lon="16.342117223363747"><ele>220.5</ele><time>2026-04-27T14:55:25Z</time></trkpt><trkpt lat="38.860764384140374" lon="16.34231776360414"><ele>218.75</ele><time>2026-04-27T14:55:26Z</time></trkpt><trkpt lat="38.860705778795726" lon="16.3424526630573"><ele>217.0</ele><time>2026-04-27T14:55:27Z</time></trkpt><trkpt lat="38.86062155540835" lon="16.342489189243206"><ele>219.25</ele><time>2026-04-27T14:55:28Z</time></trkpt><trkpt lat="38.86052022931936" lon="16.34253508238777"><ele>221.5</ele><time>2026-04-27T14:55:29Z</time></trkpt><trkpt lat="38.86038243587963" lon="16.342621851417032"><ele>223.75</ele><time>2026-04-27T14:55:30Z</time></trkpt><trkpt lat="38.86022946579969" lon="16.342714956502522"><ele>226.0</ele><time>2026-04-27T14:55:31Z</time></trkpt><trkpt lat="38.86004232907877" lon="16.34282885706262"><ele>226.0</ele><time>2026-04-27T14:55:32Z</time></trkpt><trkpt lat="38.859855919484275" lon="16.342944763164564"><ele>226.0</ele><time>2026-04-27T14:55:33Z</time></trkpt><trkpt lat="38.85970164178473" lon="16.34305190298401"><ele>226.0</ele><time>2026-04-27T14:55:34Z</time></trkpt><trkpt lat="38.85956065174021" lon="16.343169599191768"><ele>234.0</ele><time>2026-04-27T14:55:35Z</time></trkpt><trkpt lat="38.859398824285506" lon="16.34332581071555"><ele>242.0</ele><time>2026-04-27T14:55:36Z</time></trkpt><trkpt lat="38.859227677497" lon="16.343516906659694"><ele>250.0</ele><time>2026-04-27T14:55:37Z</time></trkpt><trkpt lat="38.8590846914849" lon="16.34369551912762"><ele>251.0</ele><time>2026-04-27T14:55:38Z</time></trkpt><trkpt lat="38.858969516298195" lon="16.343840353590444"><ele>252.0</ele><time>2026-04-27T14:55:39Z</time></trkpt><trkpt lat="38.85884774178505" lon="16.343984733718145"><ele>253.0</ele><time>2026-04-27T14:55:40Z</time></trkpt><trkpt lat="38.85870571341643" lon="16.34409520693401"><ele>255.33333333333331</ele><time>2026-04-27T14:55:41Z</time></trkpt><trkpt lat="38.85856198572857" lon="16.344205775941003"><ele>257.6666666666667</ele><time>2026-04-27T14:55:42Z</time></trkpt><trkpt lat="38.85844314375303" lon="16.3443050071177"><ele>260.0</ele><time>2026-04-27T14:55:43Z</time></trkpt><trkpt lat="38.858349531299005" lon="16.3444397413275"><ele>261.6666666666667</ele><time>2026-04-27T14:55:44Z</time></trkpt><trkpt lat="38.85828212377846" lon="16.34461170958643"><ele>263.3333333333333</ele><time>2026-04-27T14:55:45Z</time></trkpt><trkpt lat="38.85822073405388" lon="16.34483004315547"><ele>265.0</ele><time>2026-04-27T14:55:46Z</time></trkpt><trkpt lat="38.85816214570976" lon="16.34508432968771"><ele>265.66666666666663</ele><time>2026-04-27T14:55:47Z</time></trkpt><trkpt lat="38.85810504621801" lon="16.345348843910863"><ele>266.3333333333333</ele><time>2026-04-27T14:55:48Z</time></trkpt><trkpt lat="38.858072057077244" lon="16.34564341418955"><ele>267.0</ele><time>2026-04-27T14:55:49Z</time></trkpt><trkpt lat="38.85805467605224" lon="16.345907586294814"><ele>265.6666666666667</ele><time>2026-04-27T14:55:50Z</time></trkpt><trkpt lat="38.85801338776718" lon="16.346127931359295"><ele>264.33333333333337</ele><time>2026-04-27T14:55:51Z</time></trkpt><trkpt lat="38.857940708696745" lon="16.346345960250048"><ele>263.0</ele><time>2026-04-27T14:55:52Z</time></trkpt><trkpt lat="38.8578360112934" lon="16.346584316824945"><ele>262.0</ele><time>2026-04-27T14:55:53Z</time></trkpt><trkpt lat="38.857690533806554" lon="16.34679439917328"><ele>261.0</ele><time>2026-04-27T14:55:54Z</time></trkpt><trkpt lat="38.85755545597404" lon="16.347037621308875"><ele>261.0</ele><time>2026-04-27T14:55:55Z</time></trkpt><trkpt lat="38.857468259139196" lon="16.347298985784047"><ele>261.0</ele><time>2026-04-27T14:55:56Z</time></trkpt><trkpt lat="38.85739757366831" lon="16.347554916708916"><ele>261.0</ele><time>2026-04-27T14:55:57Z</time></trkpt><trkpt lat="38.85733649053202" lon="16.34780866351318"><ele>261.3333333333333</ele><time>2026-04-27T14:55:58Z</time></trkpt><trkpt lat="38.857281152588996" lon="16.34805736997391"><ele>261.66666666666663</ele><time>2026-04-27T14:55:59Z</time></trkpt><trkpt lat="38.857234257714026" lon="16.348288531796427"><ele>262.0</ele><time>2026-04-27T14:56:00Z</time></trkpt><trkpt lat="38.85719071551333" lon="16.34850877018235"><ele>262.0</ele><time>2026-04-27T14:56:01Z</time></trkpt><trkpt lat="38.8571655579623" lon="16.348729925863065"><ele>262.0</ele><time>2026-04-27T14:56:02Z</time></trkpt><trkpt lat="38.85716094037676" lon="16.348933703322402"><ele>262.0</ele><time>2026-04-27T14:56:03Z</time></trkpt><trkpt lat="38.85715863795601" lon="16.34911828059886"><ele>262.75</ele><time>2026-04-27T14:56:04Z</time></trkpt><trkpt lat="38.857160298203745" lon="16.34928278420521"><ele>263.5</ele><time>2026-04-27T14:56:05Z</time></trkpt><trkpt lat="38.85716273588793" lon="16.349411055319568"><ele>264.25</ele><time>2026-04-27T14:56:06Z</time></trkpt><trkpt lat="38.85711370360302" lon="16.349490291885218"><ele>265.0</ele><time>2026-04-27T14:56:08Z</time></trkpt><trkpt lat="38.85695912159806" lon="16.349398867758065"><ele>265.0</ele><time>2026-04-27T14:56:10Z</time></trkpt><trkpt lat="38.856801213216805" lon="16.34931758848705"><ele>265.0</ele><time>2026-04-27T14:56:11Z</time></trkpt><trkpt lat="38.856602004011755" lon="16.349216014564234"><ele>265.0</ele><time>2026-04-27T14:56:12Z</time></trkpt><trkpt lat="38.856415718890986" lon="16.349125879595167"><ele>264.0</ele><time>2026-04-27T14:56:13Z</time></trkpt><trkpt lat="38.856242515117955" lon="16.34905015125944"><ele>263.0</ele><time>2026-04-27T14:56:14Z</time></trkpt><trkpt lat="38.85609638053699" lon="16.34898106894649"><ele>262.0</ele><time>2026-04-27T14:56:15Z</time></trkpt><trkpt lat="38.8559694429235" lon="16.348876915404386"><ele>258.0</ele><time>2026-04-27T14:56:16Z</time></trkpt><trkpt lat="38.8558538206676" lon="16.348735900198527"><ele>254.0</ele><time>2026-04-27T14:56:17Z</time></trkpt><trkpt lat="38.85569657183098" lon="16.348625399812335"><ele>250.0</ele><time>2026-04-27T14:56:18Z</time></trkpt><trkpt lat="38.85550197227952" lon="16.34857932839422"><ele>250.0</ele><time>2026-04-27T14:56:19Z</time></trkpt><trkpt lat="38.85530227964303" lon="16.34853483558564"><ele>250.0</ele><time>2026-04-27T14:56:20Z</time></trkpt><trkpt lat="38.855100242971716" lon="16.348502223457782"><ele>250.0</ele><time>2026-04-27T14:56:21Z</time></trkpt><trkpt lat="38.85493060222705" lon="16.348465931157826"><ele>250.0</ele><time>2026-04-27T14:56:22Z</time></trkpt><trkpt lat="38.85478460812594" lon="16.34840856918262"><ele>250.0</ele><time>2026-04-27T14:56:23Z</time></trkpt><trkpt lat="38.854632397534985" lon="16.34834596055647"><ele>250.0</ele><time>2026-04-27T14:56:24Z</time></trkpt><trkpt lat="38.85449817184717" lon="16.348308947601467"><ele>250.0</ele><time>2026-04-27T14:56:25Z</time></trkpt><trkpt lat="38.854381687175966" lon="16.348287705799322"><ele>250.0</ele><time>2026-04-27T14:56:26Z</time></trkpt><trkpt lat="38.854272020277065" lon="16.34829631054392"><ele>250.0</ele><time>2026-04-27T14:56:27Z</time></trkpt><trkpt lat="38.85416741757687" lon="16.348265270766376"><ele>250.0</ele><time>2026-04-27T14:56:28Z</time></trkpt><trkpt lat="38.85406859009986" lon="16.348206337195716"><ele>250.0</ele><time>2026-04-27T14:56:29Z</time></trkpt><trkpt lat="38.85401106133866" lon="16.3480603696664"><ele>250.4</ele><time>2026-04-27T14:56:30Z</time></trkpt><trkpt lat="38.853934187476575" lon="16.34798559921184"><ele>250.8</ele><time>2026-04-27T14:56:31Z</time></trkpt><trkpt lat="38.85383970614917" lon="16.34797429413948"><ele>251.2</ele><time>2026-04-27T14:56:32Z</time></trkpt><trkpt lat="38.853753352564546" lon="16.34802286105066"><ele>251.6</ele><time>2026-04-27T14:56:33Z</time></trkpt><trkpt lat="38.85368802193171" lon="16.348119144551692"><ele>252.0</ele><time>2026-04-27T14:56:34Z</time></trkpt><trkpt lat="38.8536262774639" lon="16.34823449925833"><ele>252.0</ele><time>2026-04-27T14:56:35Z</time></trkpt><trkpt lat="38.8535624720747" lon="16.348320190074343"><ele>252.0</ele><time>2026-04-27T14:56:36Z</time></trkpt><trkpt lat="38.85349940488812" lon="16.348343733098396"><ele>252.0</ele><time>2026-04-27T14:56:37Z</time></trkpt><trkpt lat="38.853429776343894" lon="16.348353405217413"><ele>252.0</ele><time>2026-04-27T14:56:38Z</time></trkpt><trkpt lat="38.85334157077859" lon="16.348336412840993"><ele>252.0</ele><time>2026-04-27T14:56:40Z</time></trkpt><trkpt lat="38.85327923825925" lon="16.34821540460985"><ele>252.0</ele><time>2026-04-27T14:56:43Z</time></trkpt><trkpt lat="38.85324052397547" lon="16.348104066383073"><ele>251.75</ele><time>2026-04-27T14:56:44Z</time></trkpt><trkpt lat="38.853242790610715" lon="16.34797832218135"><ele>251.5</ele><time>2026-04-27T14:56:45Z</time></trkpt><trkpt lat="38.85329122948996" lon="16.347821831870007"><ele>251.25</ele><time>2026-04-27T14:56:46Z</time></trkpt><trkpt lat="38.85333893532349" lon="16.347671317531635"><ele>251.0</ele><time>2026-04-27T14:56:47Z</time></trkpt><trkpt lat="38.85334802463716" lon="16.34754139246164"><ele>251.0</ele><time>2026-04-27T14:56:48Z</time></trkpt><trkpt lat="38.8533051239133" lon="16.3474184690555"><ele>251.0</ele><time>2026-04-27T14:56:49Z</time></trkpt><trkpt lat="38.85321290746552" lon="16.347297950432004"><ele>251.0</ele><time>2026-04-27T14:56:50Z</time></trkpt><trkpt lat="38.853120190869205" lon="16.347142697434048"><ele>251.0</ele><time>2026-04-27T14:56:51Z</time></trkpt><trkpt lat="38.85300946041293" lon="16.346992413098828"><ele>252.0</ele><time>2026-04-27T14:56:52Z</time></trkpt><trkpt lat="38.852901799935964" lon="16.346839222217852"><ele>253.0</ele><time>2026-04-27T14:56:53Z</time></trkpt><trkpt lat="38.85279533383327" lon="16.346692139283803"><ele>254.0</ele><time>2026-04-27T14:56:54Z</time></trkpt><trkpt lat="38.85269286485834" lon="16.346552089999996"><ele>256.75</ele><time>2026-04-27T14:56:55Z</time></trkpt><trkpt lat="38.852610271779156" lon="16.346436628128256"><ele>259.5</ele><time>2026-04-27T14:56:56Z</time></trkpt><trkpt lat="38.85254160387413" lon="16.346324497655164"><ele>262.25</ele><time>2026-04-27T14:56:57Z</time></trkpt><trkpt lat="38.85248720430514" lon="16.346198005105457"><ele>265.0</ele><time>2026-04-27T14:56:58Z</time></trkpt><trkpt lat="38.85247733160676" lon="16.346012143680127"><ele>265.0</ele><time>2026-04-27T14:56:59Z</time></trkpt><trkpt lat="38.85246075350827" lon="16.345853999093872"><ele>265.0</ele><time>2026-04-27T14:57:00Z</time></trkpt><trkpt lat="38.85243424991547" lon="16.345733795454752"><ele>265.0</ele><time>2026-04-27T14:57:01Z</time></trkpt><trkpt lat="38.852411276980575" lon="16.345633353572516"><ele>265.0</ele><time>2026-04-27T14:57:02Z</time></trkpt><trkpt lat="38.85224615766225" lon="16.345580522441576"><ele>264.0</ele><time>2026-04-27T14:57:03Z</time></trkpt><trkpt lat="38.85209276470787" lon="16.345507771889046"><ele>263.0</ele><time>2026-04-27T14:57:04Z</time></trkpt><trkpt lat="38.85195014292238" lon="16.345444473429755"><ele>262.0</ele><time>2026-04-27T14:57:05Z</time></trkpt><trkpt lat="38.8518015744014" lon="16.345360217592415"><ele>265.66666666666663</ele><time>2026-04-27T14:57:06Z</time></trkpt><trkpt lat="38.85164575228925" lon="16.345271847996163"><ele>269.3333333333333</ele><time>2026-04-27T14:57:07Z</time></trkpt><trkpt lat="38.851504366476796" lon="16.34518965544792"><ele>273.0</ele><time>2026-04-27T14:57:08Z</time></trkpt><trkpt lat="38.85136824601957" lon="16.345100847245337"><ele>273.0</ele><time>2026-04-27T14:57:09Z</time></trkpt><trkpt lat="38.851255139154866" lon="16.344998074506368"><ele>273.0</ele><time>2026-04-27T14:57:10Z</time></trkpt><trkpt lat="38.85115809014409" lon="16.344882142249517"><ele>273.0</ele><time>2026-04-27T14:57:11Z</time></trkpt><trkpt lat="38.85108341516326" lon="16.34476012858895"><ele>273.0</ele><time>2026-04-27T14:57:12Z</time></trkpt><trkpt lat="38.85103044494941" lon="16.34464976286117"><ele>276.0</ele><time>2026-04-27T14:57:13Z</time></trkpt><trkpt lat="38.85095509118526" lon="16.344592854367622"><ele>279.0</ele><time>2026-04-27T14:57:14Z</time></trkpt><trkpt lat="38.8508500672568" lon="16.344549244061213"><ele>282.0</ele><time>2026-04-27T14:57:15Z</time></trkpt><trkpt lat="38.850709514885345" lon="16.344602639836513"><ele>285.0</ele><time>2026-04-27T14:57:16Z</time></trkpt><trkpt lat="38.85057036084461" lon="16.344660097782658"><ele>285.75</ele><time>2026-04-27T14:57:17Z</time></trkpt><trkpt lat="38.850439830651304" lon="16.344720988614323"><ele>286.5</ele><time>2026-04-27T14:57:18Z</time></trkpt><trkpt lat="38.85031570468364" lon="16.344780288560226"><ele>287.25</ele><time>2026-04-27T14:57:19Z</time></trkpt><trkpt lat="38.8501862449952" lon="16.344899927127898"><ele>288.0</ele><time>2026-04-27T14:57:20Z</time></trkpt><trkpt lat="38.85005579086396" lon="16.345014952130718"><ele>291.25</ele><time>2026-04-27T14:57:21Z</time></trkpt><trkpt lat="38.84992747914966" lon="16.345128733166977"><ele>294.5</ele><time>2026-04-27T14:57:22Z</time></trkpt><trkpt lat="38.849823228216046" lon="16.34522504624968"><ele>297.75</ele><time>2026-04-27T14:57:23Z</time></trkpt><trkpt lat="38.84973730682592" lon="16.345307454074145"><ele>301.0</ele><time>2026-04-27T14:57:24Z</time></trkpt><trkpt lat="38.84967158793689" lon="16.34537112745242"><ele>302.66666666666663</ele><time>2026-04-27T14:57:25Z</time></trkpt><trkpt lat="38.84959865882765" lon="16.34563509060976"><ele>304.3333333333333</ele><time>2026-04-27T14:57:37Z</time></trkpt><trkpt lat="38.849599502182365" lon="16.345778713681575"><ele>306.0</ele><time>2026-04-27T14:57:38Z</time></trkpt><trkpt lat="38.849614704074774" lon="16.34596441446264"><ele>306.0</ele><time>2026-04-27T14:57:39Z</time></trkpt><trkpt lat="38.849633580189234" lon="16.34618445410315"><ele>306.0</ele><time>2026-04-27T14:57:40Z</time></trkpt><trkpt lat="38.849649351957716" lon="16.346384624507465"><ele>306.0</ele><time>2026-04-27T14:57:41Z</time></trkpt><trkpt lat="38.84966312454941" lon="16.34656525370146"><ele>307.5</ele><time>2026-04-27T14:57:42Z</time></trkpt><trkpt lat="38.84967668612597" lon="16.346754204430514"><ele>309.0</ele><time>2026-04-27T14:57:43Z</time></trkpt><trkpt lat="38.84967161524282" lon="16.346916945581945"><ele>310.5</ele><time>2026-04-27T14:57:44Z</time></trkpt><trkpt lat="38.84961987798112" lon="16.34703235966619"><ele>312.0</ele><time>2026-04-27T14:57:45Z</time></trkpt><trkpt lat="38.849537743846724" lon="16.34709642185801"><ele>312.0</ele><time>2026-04-27T14:57:46Z</time></trkpt><trkpt lat="38.84943783990933" lon="16.34719795750483"><ele>312.0</ele><time>2026-04-27T14:57:47Z</time></trkpt><trkpt lat="38.84933986438221" lon="16.34730682333528"><ele>312.0</ele><time>2026-04-27T14:57:48Z</time></trkpt><trkpt lat="38.849286899589025" lon="16.347439305312832"><ele>312.0</ele><time>2026-04-27T14:57:49Z</time></trkpt><trkpt lat="38.8492730292259" lon="16.347591213289103"><ele>316.2</ele><time>2026-04-27T14:57:50Z</time></trkpt><trkpt lat="38.84921548745039" lon="16.347692291408325"><ele>320.4</ele><time>2026-04-27T14:57:51Z</time></trkpt><trkpt lat="38.84915199904978" lon="16.347749561619526"><ele>324.59999999999997</ele><time>2026-04-27T14:57:52Z</time></trkpt><trkpt lat="38.849057680325195" lon="16.347752426775227"><ele>328.79999999999995</ele><time>2026-04-27T14:57:53Z</time></trkpt><trkpt lat="38.84892977297819" lon="16.34777355086454"><ele>333.0</ele><time>2026-04-27T14:57:54Z</time></trkpt><trkpt lat="38.848811960727076" lon="16.347792386059783"><ele>333.0</ele><time>2026-04-27T14:57:55Z</time></trkpt><trkpt lat="38.848724985669804" lon="16.34778254321097"><ele>333.0</ele><time>2026-04-27T14:57:56Z</time></trkpt><trkpt lat="38.84864397968089" lon="16.347763104259144"><ele>333.0</ele><time>2026-04-27T14:57:57Z</time></trkpt><trkpt lat="38.84853938687255" lon="16.3477507377852"><ele>333.0</ele><time>2026-04-27T14:57:58Z</time></trkpt><trkpt lat="38.84840233920267" lon="16.34771817073345"><ele>333.0</ele><time>2026-04-27T14:57:59Z</time></trkpt><trkpt lat="38.84822752299401" lon="16.347698765609707"><ele>333.3333333333333</ele><time>2026-04-27T14:58:00Z</time></trkpt><trkpt lat="38.848060442899815" lon="16.34770797951284"><ele>333.66666666666663</ele><time>2026-04-27T14:58:01Z</time></trkpt><trkpt lat="38.84789091663805" lon="16.347744913366324"><ele>334.0</ele><time>2026-04-27T14:58:02Z</time></trkpt><trkpt lat="38.84772493903439" lon="16.347824189227396"><ele>333.66666666666663</ele><time>2026-04-27T14:58:03Z</time></trkpt><trkpt lat="38.84758538724149" lon="16.347916388395237"><ele>333.3333333333333</ele><time>2026-04-27T14:58:04Z</time></trkpt><trkpt lat="38.847465238029734" lon="16.348019254532414"><ele>333.0</ele><time>2026-04-27T14:58:05Z</time></trkpt><trkpt lat="38.847340438789686" lon="16.3481576810777"><ele>333.0</ele><time>2026-04-27T14:58:06Z</time></trkpt><trkpt lat="38.847217170521205" lon="16.348288796228402"><ele>333.0</ele><time>2026-04-27T14:58:07Z</time></trkpt><trkpt lat="38.847108617239265" lon="16.34839174099709"><ele>333.0</ele><time>2026-04-27T14:58:08Z</time></trkpt><trkpt lat="38.84700798401271" lon="16.34848673630929"><ele>333.0</ele><time>2026-04-27T14:58:09Z</time></trkpt><trkpt lat="38.846920534728966" lon="16.34855556446805"><ele>333.0</ele><time>2026-04-27T14:58:10Z</time></trkpt><trkpt lat="38.84684137458994" lon="16.34860599867486"><ele>333.0</ele><time>2026-04-27T14:58:11Z</time></trkpt><trkpt lat="38.84678272876628" lon="16.348639186884743"><ele>333.0</ele><time>2026-04-27T14:58:12Z</time></trkpt><trkpt lat="38.846703389484254" lon="16.34866053478702"><ele>333.0</ele><time>2026-04-27T14:58:17Z</time></trkpt><trkpt lat="38.846647347269815" lon="16.348710403277558"><ele>333.0</ele><time>2026-04-27T14:58:21Z</time></trkpt><trkpt lat="38.846634289122655" lon="16.34860780489714"><ele>333.0</ele><time>2026-04-27T14:58:24Z</time></trkpt><trkpt lat="38.8466405067375" lon="16.348522734824837"><ele>333.0</ele><time>2026-04-27T14:58:25Z</time></trkpt><trkpt lat="38.846649425765854" lon="16.348411576676064"><ele>335.79999999999995</ele><time>2026-04-27T14:58:27Z</time></trkpt><trkpt lat="38.846585017716066" lon="16.34828610491174"><ele>338.6</ele><time>2026-04-27T14:58:29Z</time></trkpt><trkpt lat="38.84655036792626" lon="16.348170616042633"><ele>341.4</ele><time>2026-04-27T14:58:30Z</time></trkpt><trkpt lat="38.84650052328025" lon="16.348038947081502"><ele>344.20000000000005</ele><time>2026-04-27T14:58:31Z</time></trkpt><trkpt lat="38.84645031405336" lon="16.34790199555287"><ele>347.0</ele><time>2026-04-27T14:58:32Z</time></trkpt><trkpt lat="38.84638560251375" lon="16.347762237512107"><ele>347.5</ele><time>2026-04-27T14:58:33Z</time></trkpt><trkpt lat="38.84633466515027" lon="16.34760716895264"><ele>348.0</ele><time>2026-04-27T14:58:34Z</time></trkpt><trkpt lat="38.846283433728445" lon="16.347430945248608"><ele>348.5</ele><time>2026-04-27T14:58:35Z</time></trkpt><trkpt lat="38.84623832725414" lon="16.34728771509239"><ele>349.0</ele><time>2026-04-27T14:58:36Z</time></trkpt><trkpt lat="38.84621036473602" lon="16.3471559798233"><ele>349.0</ele><time>2026-04-27T14:58:37Z</time></trkpt><trkpt lat="38.84619317475584" lon="16.347042215725555"><ele>349.0</ele><time>2026-04-27T14:58:38Z</time></trkpt><trkpt lat="38.84618179426484" lon="16.346938042624913"><ele>349.0</ele><time>2026-04-27T14:58:39Z</time></trkpt><trkpt lat="38.84615744774464" lon="16.346844427398395"><ele>349.0</ele><time>2026-04-27T14:58:41Z</time></trkpt><trkpt lat="38.8460709884795" lon="16.346760822714558"><ele>349.0</ele><time>2026-04-27T14:58:45Z</time></trkpt><trkpt lat="38.845978743142126" lon="16.346806530856032"><ele>351.4</ele><time>2026-04-27T14:58:47Z</time></trkpt><trkpt lat="38.84590490291013" lon="16.34675343387307"><ele>353.79999999999995</ele><time>2026-04-27T14:58:49Z</time></trkpt><trkpt lat="38.845826098798135" lon="16.346910446121203"><ele>356.20000000000005</ele><time>2026-04-27T14:58:51Z</time></trkpt><trkpt lat="38.84578252703284" lon="16.346989240752855"><ele>358.6</ele><time>2026-04-27T14:58:53Z</time></trkpt><trkpt lat="38.84580005042037" lon="16.347100806685106"><ele>361.0</ele><time>2026-04-27T14:58:54Z</time></trkpt><trkpt lat="38.84578587440645" lon="16.347211799002842"><ele>361.6</ele><time>2026-04-27T14:58:56Z</time></trkpt><trkpt lat="38.84575287974981" lon="16.347290051013378"><ele>362.20000000000005</ele><time>2026-04-27T14:58:59Z</time></trkpt><trkpt lat="38.845650424712986" lon="16.34728379692976"><ele>362.79999999999995</ele><time>2026-04-27T14:59:01Z</time></trkpt><trkpt lat="38.84555871859649" lon="16.347290445131677"><ele>363.4</ele><time>2026-04-27T14:59:03Z</time></trkpt><trkpt lat="38.845476635655686" lon="16.347339445464304"><ele>364.0</ele><time>2026-04-27T14:59:05Z</time></trkpt><trkpt lat="38.84540324113686" lon="16.347439952823272"><ele>364.0</ele><time>2026-04-27T14:59:07Z</time></trkpt><trkpt lat="38.84539381480029" lon="16.347595169468676"><ele>364.0</ele><time>2026-04-27T14:59:08Z</time></trkpt><trkpt lat="38.84537509980338" lon="16.347676498863766"><ele>364.0</ele><time>2026-04-27T14:59:09Z</time></trkpt><trkpt lat="38.84535575555611" lon="16.347764064996518"><ele>364.0</ele><time>2026-04-27T14:59:10Z</time></trkpt><trkpt lat="38.8453318649988" lon="16.347872210988353"><ele>364.0</ele><time>2026-04-27T14:59:11Z</time></trkpt><trkpt lat="38.845302137694596" lon="16.348006778339812"><ele>364.25</ele><time>2026-04-27T14:59:12Z</time></trkpt><trkpt lat="38.84526857921167" lon="16.34817137778558"><ele>364.5</ele><time>2026-04-27T14:59:13Z</time></trkpt><trkpt lat="38.845239983891915" lon="16.34832182431522"><ele>364.75</ele><time>2026-04-27T14:59:14Z</time></trkpt><trkpt lat="38.84521600861236" lon="16.34845176311377"><ele>365.0</ele><time>2026-04-27T14:59:15Z</time></trkpt><trkpt lat="38.845197561404035" lon="16.348568853856"><ele>365.0</ele><time>2026-04-27T14:59:16Z</time></trkpt><trkpt lat="38.845184379485126" lon="16.348650425094643"><ele>365.0</ele><time>2026-04-27T14:59:17Z</time></trkpt><trkpt lat="38.84514725486126" lon="16.348766802746507"><ele>365.0</ele><time>2026-04-27T14:59:20Z</time></trkpt><trkpt lat="38.84501548356616" lon="16.3486937793825"><ele>365.0</ele><time>2026-04-27T14:59:22Z</time></trkpt><trkpt lat="38.84502760685524" lon="16.34855285311313"><ele>365.0</ele><time>2026-04-27T14:59:23Z</time></trkpt><trkpt lat="38.84504530249815" lon="16.348441868585503"><ele>367.6</ele><time>2026-04-27T14:59:24Z</time></trkpt><trkpt lat="38.84504482758396" lon="16.348334404828027"><ele>370.2</ele><time>2026-04-27T14:59:25Z</time></trkpt><trkpt lat="38.845044296304785" lon="16.348220429160747"><ele>372.79999999999995</ele><time>2026-04-27T14:59:26Z</time></trkpt><trkpt lat="38.84503921671416" lon="16.348105501760784"><ele>375.4</ele><time>2026-04-27T14:59:27Z</time></trkpt><trkpt lat="38.845019929031764" lon="16.347981754706836"><ele>378.0</ele><time>2026-04-27T14:59:28Z</time></trkpt><trkpt lat="38.84497517665764" lon="16.34786325742203"><ele>378.1666666666667</ele><time>2026-04-27T14:59:29Z</time></trkpt><trkpt lat="38.844911896175866" lon="16.34774693384519"><ele>378.3333333333333</ele><time>2026-04-27T14:59:30Z</time></trkpt><trkpt lat="38.84482487006824" lon="16.347677814992757"><ele>378.5</ele><time>2026-04-27T14:59:31Z</time></trkpt><trkpt lat="38.84475242270143" lon="16.34761391562033"><ele>378.66666666666663</ele><time>2026-04-27T14:59:32Z</time></trkpt><trkpt lat="38.844690783685486" lon="16.347592638628893"><ele>378.8333333333333</ele><time>2026-04-27T14:59:33Z</time></trkpt><trkpt lat="38.84461684975626" lon="16.34759464707787"><ele>379.0</ele><time>2026-04-27T14:59:34Z</time></trkpt><trkpt lat="38.844542009031834" lon="16.347620495139154"><ele>379.0</ele><time>2026-04-27T14:59:35Z</time></trkpt><trkpt lat="38.844490364977375" lon="16.347691287090612"><ele>379.0</ele><time>2026-04-27T14:59:36Z</time></trkpt><trkpt lat="38.844412482222026" lon="16.347740704296427"><ele>379.0</ele><time>2026-04-27T14:59:37Z</time></trkpt><trkpt lat="38.84430887481994" lon="16.34787021073055"><ele>379.0</ele><time>2026-04-27T14:59:38Z</time></trkpt><trkpt lat="38.84423371960402" lon="16.3479848821918"><ele>379.0</ele><time>2026-04-27T14:59:39Z</time></trkpt><trkpt lat="38.84414908193209" lon="16.348058259947102"><ele>384.4</ele><time>2026-04-27T14:59:40Z</time></trkpt><trkpt lat="38.84406370507573" lon="16.34813570255664"><ele>389.79999999999995</ele><time>2026-04-27T14:59:41Z</time></trkpt><trkpt lat="38.843993199575905" lon="16.348224316011116"><ele>395.20000000000005</ele><time>2026-04-27T14:59:42Z</time></trkpt><trkpt lat="38.843924143341724" lon="16.348344436675443"><ele>400.6</ele><time>2026-04-27T14:59:43Z</time></trkpt><trkpt lat="38.84389066993009" lon="16.348492679104176"><ele>406.0</ele><time>2026-04-27T14:59:44Z</time></trkpt><trkpt lat="38.843867518064165" lon="16.34865128489968"><ele>406.0</ele><time>2026-04-27T14:59:45Z</time></trkpt><trkpt lat="38.84383584360403" lon="16.348784738291265"><ele>406.0</ele><time>2026-04-27T14:59:46Z</time></trkpt><trkpt lat="38.8437950757619" lon="16.34891902935826"><ele>406.0</ele><time>2026-04-27T14:59:47Z</time></trkpt><trkpt lat="38.84373900046755" lon="16.349042550097796"><ele>406.0</ele><time>2026-04-27T14:59:48Z</time></trkpt><trkpt lat="38.84369992089856" lon="16.34911082700061"><ele>406.0</ele><time>2026-04-27T14:59:49Z</time></trkpt><trkpt lat="38.843592252833986" lon="16.349160096161533"><ele>406.0</ele><time>2026-04-27T14:59:52Z</time></trkpt><trkpt lat="38.843581235607886" lon="16.348880708397303"><ele>406.0</ele><time>2026-04-27T14:59:55Z</time></trkpt><trkpt lat="38.84357123094658" lon="16.348699163488067"><ele>406.0</ele><time>2026-04-27T14:59:56Z</time></trkpt><trkpt lat="38.843556038378374" lon="16.34856862500615"><ele>406.0</ele><time>2026-04-27T14:59:57Z</time></trkpt><trkpt lat="38.843527614588105" lon="16.348457553214818"><ele>406.0</ele><time>2026-04-27T14:59:58Z</time></trkpt><trkpt lat="38.84346737803538" lon="16.348363540336834"><ele>406.0</ele><time>2026-04-27T14:59:59Z</time></trkpt><trkpt lat="38.84339020037382" lon="16.348267207832706"><ele>406.0</ele><time>2026-04-27T15:00:00Z</time></trkpt><trkpt lat="38.8433133502763" lon="16.348186911701962"><ele>406.0</ele><time>2026-04-27T15:00:01Z</time></trkpt><trkpt lat="38.84324468721877" lon="16.34808641217763"><ele>413.8</ele><time>2026-04-27T15:00:02Z</time></trkpt><trkpt lat="38.84321313173155" lon="16.348013373220926"><ele>421.6</ele><time>2026-04-27T15:00:03Z</time></trkpt><trkpt lat="38.84313536736326" lon="16.347995323517996"><ele>429.4</ele><time>2026-04-27T15:00:06Z</time></trkpt><trkpt lat="38.843084148220576" lon="16.348196417334833"><ele>437.2</ele><time>2026-04-27T15:00:08Z</time></trkpt><trkpt lat="38.843157280246494" lon="16.348306658039384"><ele>445.0</ele><time>2026-04-27T15:00:09Z</time></trkpt><trkpt lat="38.8432129868956" lon="16.348396725185342"><ele>445.00000000000006</ele><time>2026-04-27T15:00:10Z</time></trkpt><trkpt lat="38.8432644416505" lon="16.348486201169806"><ele>445.0</ele><time>2026-04-27T15:00:11Z</time></trkpt><trkpt lat="38.84329338126145" lon="16.348565343491497"><ele>445.0</ele><time>2026-04-27T15:00:12Z</time></trkpt><trkpt lat="38.84328278796307" lon="16.348742193188972"><ele>445.0</ele><time>2026-04-27T15:00:14Z</time></trkpt><trkpt lat="38.843230630965124" lon="16.34882770930137"><ele>445.00000000000006</ele><time>2026-04-27T15:00:15Z</time></trkpt><trkpt lat="38.84318921825255" lon="16.34889862681357"><ele>445.0</ele><time>2026-04-27T15:00:16Z</time></trkpt><trkpt lat="38.84313160898358" lon="16.348971052199772"><ele>442.4</ele><time>2026-04-27T15:00:17Z</time></trkpt><trkpt lat="38.84306044012623" lon="16.349033557532863"><ele>439.8</ele><time>2026-04-27T15:00:18Z</time></trkpt><trkpt lat="38.84297479765998" lon="16.34907429621773"><ele>437.20000000000005</ele><time>2026-04-27T15:00:19Z</time></trkpt><trkpt lat="38.84289350643573" lon="16.34910312318086"><ele>434.6</ele><time>2026-04-27T15:00:20Z</time></trkpt><trkpt lat="38.8427743838195" lon="16.34909752645124"><ele>432.0</ele><time>2026-04-27T15:00:22Z</time></trkpt><trkpt lat="38.84268933632982" lon="16.34908675591814"><ele>432.0</ele><time>2026-04-27T15:00:24Z</time></trkpt><trkpt lat="38.84275050369371" lon="16.348984370013135"><ele>432.00000000000006</ele><time>2026-04-27T15:00:25Z</time></trkpt><trkpt lat="38.84290651177596" lon="16.34895053533408"><ele>432.00000000000006</ele><time>2026-04-27T15:00:27Z</time></trkpt><trkpt lat="38.8429756575566" lon="16.34888322288"><ele>432.0</ele><time>2026-04-27T15:00:29Z</time></trkpt><trkpt lat="38.84293501026928" lon="16.34877523419914"><ele>432.0</ele><time>2026-04-27T15:00:31Z</time></trkpt><trkpt lat="38.842903234947386" lon="16.348691992461976"><ele>435.25</ele><time>2026-04-27T15:00:31.999Z</time></trkpt><trkpt lat="38.842841672821905" lon="16.34866704766013"><ele>438.5</ele><time>2026-04-27T15:00:33Z</time></trkpt><trkpt lat="38.84271671340921" lon="16.348696033957157"><ele>441.75</ele><time>2026-04-27T15:00:34Z</time></trkpt><trkpt lat="38.842574084838695" lon="16.348752344471954"><ele>445.0</ele><time>2026-04-27T15:00:35Z</time></trkpt><trkpt lat="38.84242441002931" lon="16.348817351209657"><ele>450.4</ele><time>2026-04-27T15:00:36Z</time></trkpt><trkpt lat="38.842297392510766" lon="16.348885108314597"><ele>455.8</ele><time>2026-04-27T15:00:37Z</time></trkpt><trkpt lat="38.842224075789154" lon="16.34892639761379"><ele>461.20000000000005</ele><time>2026-04-27T15:00:38Z</time></trkpt><trkpt lat="38.84220143231901" lon="16.34880519580618"><ele>466.6</ele><time>2026-04-27T15:00:42Z</time></trkpt><trkpt lat="38.84232959525091" lon="16.348768348085585"><ele>472.0</ele><time>2026-04-27T15:00:43Z</time></trkpt><trkpt lat="38.84240291695445" lon="16.34872790305724"><ele>476.0</ele><time>2026-04-27T15:00:44Z</time></trkpt><trkpt lat="38.84242901782608" lon="16.348636087291812"><ele>480.0</ele><time>2026-04-27T15:00:46Z</time></trkpt><trkpt lat="38.8423806227188" lon="16.348560615808204"><ele>484.0</ele><time>2026-04-27T15:00:47Z</time></trkpt><trkpt lat="38.842244357749124" lon="16.348485077736317"><ele>488.0</ele><time>2026-04-27T15:00:48Z</time></trkpt><trkpt lat="38.8420752586149" lon="16.348452474713675"><ele>488.0</ele><time>2026-04-27T15:00:49Z</time></trkpt><trkpt lat="38.84190053179911" lon="16.348409402800335"><ele>488.0</ele><time>2026-04-27T15:00:50Z</time></trkpt><trkpt lat="38.841747871895656" lon="16.348341285191268"><ele>488.0</ele><time>2026-04-27T15:00:51Z</time></trkpt><trkpt lat="38.84158845389066" lon="16.348262317251006"><ele>495.3333333333333</ele><time>2026-04-27T15:00:52Z</time></trkpt><trkpt lat="38.841398549249675" lon="16.348229715318112"><ele>502.66666666666663</ele><time>2026-04-27T15:00:53Z</time></trkpt><trkpt lat="38.841198446761" lon="16.3482126770023"><ele>510.0</ele><time>2026-04-27T15:00:54Z</time></trkpt><trkpt lat="38.84100279199235" lon="16.348201381109547"><ele>514.6666666666666</ele><time>2026-04-27T15:00:55Z</time></trkpt><trkpt lat="38.84080263897783" lon="16.348179294555298"><ele>519.3333333333333</ele><time>2026-04-27T15:00:56Z</time></trkpt><trkpt lat="38.84062487735727" lon="16.348144712436888"><ele>524.0</ele><time>2026-04-27T15:00:57Z</time></trkpt><trkpt lat="38.84045948062606" lon="16.348082512169885"><ele>524.3333333333333</ele><time>2026-04-27T15:00:58Z</time></trkpt><trkpt lat="38.840310138268435" lon="16.348015443149702"><ele>524.6666666666666</ele><time>2026-04-27T15:00:59Z</time></trkpt><trkpt lat="38.840177372051286" lon="16.347950686639365"><ele>525.0</ele><time>2026-04-27T15:01:00Z</time></trkpt><trkpt lat="38.840024284065656" lon="16.347857452031537"><ele>528.3333333333334</ele><time>2026-04-27T15:01:01Z</time></trkpt><trkpt lat="38.83985934956135" lon="16.347751949668616"><ele>531.6666666666667</ele><time>2026-04-27T15:01:02Z</time></trkpt><trkpt lat="38.83968314801563" lon="16.347635981400362"><ele>535.0</ele><time>2026-04-27T15:01:03Z</time></trkpt><trkpt lat="38.83950970998051" lon="16.34751124296698"><ele>535.0</ele><time>2026-04-27T15:01:04Z</time></trkpt><trkpt lat="38.83935384849665" lon="16.34735468102715"><ele>535.0</ele><time>2026-04-27T15:01:05Z</time></trkpt><trkpt lat="38.8391970269982" lon="16.34722544502641"><ele>535.0</ele><time>2026-04-27T15:01:06Z</time></trkpt><trkpt lat="38.83902480861622" lon="16.34711991286011"><ele>536.0</ele><time>2026-04-27T15:01:07Z</time></trkpt><trkpt lat="38.838861913207865" lon="16.34700788246727"><ele>537.0</ele><time>2026-04-27T15:01:08Z</time></trkpt><trkpt lat="38.838708818741004" lon="16.346926416924177"><ele>538.0</ele><time>2026-04-27T15:01:09Z</time></trkpt><trkpt lat="38.83854788219599" lon="16.34684971238904"><ele>539.6666666666667</ele><time>2026-04-27T15:01:10Z</time></trkpt><trkpt lat="38.838376936456534" lon="16.346792369320642"><ele>541.3333333333334</ele><time>2026-04-27T15:01:11Z</time></trkpt><trkpt lat="38.83822187446811" lon="16.346761427535135"><ele>543.0</ele><time>2026-04-27T15:01:12Z</time></trkpt><trkpt lat="38.838082736840676" lon="16.346743936349828"><ele>543.0</ele><time>2026-04-27T15:01:13Z</time></trkpt><trkpt lat="38.83791775034632" lon="16.34676210210006"><ele>543.0</ele><time>2026-04-27T15:01:14Z</time></trkpt><trkpt lat="38.83774355653271" lon="16.346822039223483"><ele>543.0</ele><time>2026-04-27T15:01:15Z</time></trkpt><trkpt lat="38.83756976026665" lon="16.346901291190594"><ele>545.0</ele><time>2026-04-27T15:01:16Z</time></trkpt><trkpt lat="38.837436100341925" lon="16.34697560203469"><ele>547.0</ele><time>2026-04-27T15:01:17Z</time></trkpt><trkpt lat="38.837331321842115" lon="16.34700202674879"><ele>549.0</ele><time>2026-04-27T15:01:18Z</time></trkpt><trkpt lat="38.837220132665855" lon="16.347007194081076"><ele>551.0</ele><time>2026-04-27T15:01:19Z</time></trkpt><trkpt lat="38.837087205085986" lon="16.346983781231057"><ele>551.0</ele><time>2026-04-27T15:01:20Z</time></trkpt><trkpt lat="38.83696171645419" lon="16.346936524976613"><ele>551.0</ele><time>2026-04-27T15:01:21Z</time></trkpt><trkpt lat="38.83685553616745" lon="16.34688029979593"><ele>551.0</ele><time>2026-04-27T15:01:22Z</time></trkpt><trkpt lat="38.83674074643976" lon="16.346780347126707"><ele>551.0</ele><time>2026-04-27T15:01:23Z</time></trkpt><trkpt lat="38.836618172437205" lon="16.346643037936108"><ele>551.3333333333333</ele><time>2026-04-27T15:01:24Z</time></trkpt><trkpt lat="38.83648129616775" lon="16.346540694594797"><ele>551.6666666666666</ele><time>2026-04-27T15:01:25Z</time></trkpt><trkpt lat="38.83632919920712" lon="16.346449374399118"><ele>552.0</ele><time>2026-04-27T15:01:26Z</time></trkpt><trkpt lat="38.83616335060194" lon="16.34633967202547"><ele>552.0</ele><time>2026-04-27T15:01:27Z</time></trkpt><trkpt lat="38.83599214302414" lon="16.346203166071195"><ele>552.0</ele><time>2026-04-27T15:01:28Z</time></trkpt><trkpt lat="38.83583360076174" lon="16.346060854235496"><ele>552.0</ele><time>2026-04-27T15:01:29Z</time></trkpt><trkpt lat="38.83569292135555" lon="16.345905727191063"><ele>554.6666666666666</ele><time>2026-04-27T15:01:30Z</time></trkpt><trkpt lat="38.83556228077143" lon="16.345708777914922"><ele>557.3333333333333</ele><time>2026-04-27T15:01:31Z</time></trkpt><trkpt lat="38.83543658205348" lon="16.34549045260443"><ele>560.0</ele><time>2026-04-27T15:01:32Z</time></trkpt><trkpt lat="38.83531514432262" lon="16.34531676493263"><ele>560.0</ele><time>2026-04-27T15:01:33Z</time></trkpt><trkpt lat="38.8351769576665" lon="16.3451799814824"><ele>560.0</ele><time>2026-04-27T15:01:34Z</time></trkpt><trkpt lat="38.83500448137694" lon="16.345057714834066"><ele>560.0</ele><time>2026-04-27T15:01:35Z</time></trkpt><trkpt lat="38.83482611358058" lon="16.344917494059672"><ele>562.6666666666666</ele><time>2026-04-27T15:01:36Z</time></trkpt><trkpt lat="38.834689928575166" lon="16.344768659342563"><ele>565.3333333333334</ele><time>2026-04-27T15:01:37Z</time></trkpt><trkpt lat="38.83456129266624" lon="16.344625478181776"><ele>568.0</ele><time>2026-04-27T15:01:38Z</time></trkpt><trkpt lat="38.834411976233866" lon="16.344500851654857"><ele>571.3333333333334</ele><time>2026-04-27T15:01:39Z</time></trkpt><trkpt lat="38.834259568972996" lon="16.344393146115177"><ele>574.6666666666666</ele><time>2026-04-27T15:01:40Z</time></trkpt><trkpt lat="38.83409808459709" lon="16.344290366910425"><ele>578.0</ele><time>2026-04-27T15:01:41Z</time></trkpt><trkpt lat="38.833914161928426" lon="16.344186888443655"><ele>578.0</ele><time>2026-04-27T15:01:42Z</time></trkpt><trkpt lat="38.83371339678703" lon="16.344077881950177"><ele>578.0</ele><time>2026-04-27T15:01:43Z</time></trkpt><trkpt lat="38.833498300859056" lon="16.343959135006187"><ele>582.5</ele><time>2026-04-27T15:01:44Z</time></trkpt><trkpt lat="38.83326438176472" lon="16.343839262495294"><ele>587.0</ele><time>2026-04-27T15:01:45Z</time></trkpt><trkpt lat="38.83306273879861" lon="16.343715454585844"><ele>587.0</ele><time>2026-04-27T15:01:46Z</time></trkpt><trkpt lat="38.83289643643467" lon="16.343630999865567"><ele>587.0</ele><time>2026-04-27T15:01:47Z</time></trkpt><trkpt lat="38.83273782754879" lon="16.343552033999032"><ele>587.0</ele><time>2026-04-27T15:01:48Z</time></trkpt><trkpt lat="38.83259173899084" lon="16.343439273330482"><ele>589.0</ele><time>2026-04-27T15:01:49Z</time></trkpt><trkpt lat="38.83242813352166" lon="16.343328616155606"><ele>591.0</ele><time>2026-04-27T15:01:50Z</time></trkpt><trkpt lat="38.83225276831639" lon="16.343199108123255"><ele>593.0</ele><time>2026-04-27T15:01:51Z</time></trkpt><trkpt lat="38.83208022417626" lon="16.343036688055133"><ele>593.0</ele><time>2026-04-27T15:01:52Z</time></trkpt><trkpt lat="38.83192922238093" lon="16.34289364819096"><ele>593.0</ele><time>2026-04-27T15:01:53Z</time></trkpt><trkpt lat="38.831795395365326" lon="16.34278137208562"><ele>593.0</ele><time>2026-04-27T15:01:54Z</time></trkpt><trkpt lat="38.831652024776" lon="16.34270590479923"><ele>598.3333333333333</ele><time>2026-04-27T15:01:55Z</time></trkpt><trkpt lat="38.83148064760502" lon="16.342635869398734"><ele>603.6666666666666</ele><time>2026-04-27T15:01:56Z</time></trkpt><trkpt lat="38.83128171282014" lon="16.342593241716237"><ele>609.0</ele><time>2026-04-27T15:01:57Z</time></trkpt><trkpt lat="38.831087090634654" lon="16.342555674562988"><ele>610.6666666666666</ele><time>2026-04-27T15:01:58Z</time></trkpt><trkpt lat="38.83089076943964" lon="16.342469930360423"><ele>612.3333333333333</ele><time>2026-04-27T15:01:59Z</time></trkpt><trkpt lat="38.83069595446736" lon="16.342360982017123"><ele>614.0</ele><time>2026-04-27T15:02:00Z</time></trkpt><trkpt lat="38.83050488641745" lon="16.34227054228921"><ele>614.3333333333333</ele><time>2026-04-27T15:02:01Z</time></trkpt><trkpt lat="38.83033463218252" lon="16.3421406937014"><ele>614.6666666666666</ele><time>2026-04-27T15:02:02Z</time></trkpt><trkpt lat="38.830182676582446" lon="16.34202554521049"><ele>615.0</ele><time>2026-04-27T15:02:03Z</time></trkpt><trkpt lat="38.83005264062293" lon="16.341902293759908"><ele>615.3333333333334</ele><time>2026-04-27T15:02:04Z</time></trkpt><trkpt lat="38.82996170995991" lon="16.341791044115997"><ele>615.6666666666667</ele><time>2026-04-27T15:02:05Z</time></trkpt><trkpt lat="38.82978635016076" lon="16.34184481399656"><ele>616.0</ele><time>2026-04-27T15:02:06Z</time></trkpt><trkpt lat="38.82964331976678" lon="16.341886560080017"><ele>616.0</ele><time>2026-04-27T15:02:07Z</time></trkpt><trkpt lat="38.82947794359061" lon="16.34189213591748"><ele>616.0</ele><time>2026-04-27T15:02:08Z</time></trkpt><trkpt lat="38.82932312089584" lon="16.341904842460824"><ele>616.0</ele><time>2026-04-27T15:02:09Z</time></trkpt><trkpt lat="38.82915820983303" lon="16.34190472681854"><ele>615.0</ele><time>2026-04-27T15:02:10Z</time></trkpt><trkpt lat="38.828967933563014" lon="16.341903764434317"><ele>614.0</ele><time>2026-04-27T15:02:11Z</time></trkpt><trkpt lat="38.82879230437688" lon="16.341910633389727"><ele>613.0</ele><time>2026-04-27T15:02:12Z</time></trkpt><trkpt lat="38.82864385510887" lon="16.341910600536664"><ele>613.0</ele><time>2026-04-27T15:02:13Z</time></trkpt><trkpt lat="38.82851302441135" lon="16.341897736539543"><ele>613.0</ele><time>2026-04-27T15:02:14Z</time></trkpt><trkpt lat="38.82839565082484" lon="16.341877699180248"><ele>613.0</ele><time>2026-04-27T15:02:15Z</time></trkpt><trkpt lat="38.82828571652771" lon="16.341872948159917"><ele>613.0</ele><time>2026-04-27T15:02:16Z</time></trkpt><trkpt lat="38.82816833501466" lon="16.341895131050524"><ele>611.6666666666667</ele><time>2026-04-27T15:02:17Z</time></trkpt><trkpt lat="38.82801681179224" lon="16.342012884344715"><ele>610.3333333333334</ele><time>2026-04-27T15:02:18Z</time></trkpt><trkpt lat="38.8278544722436" lon="16.342165115615572"><ele>609.0</ele><time>2026-04-27T15:02:19Z</time></trkpt><trkpt lat="38.82766695790591" lon="16.342328578031378"><ele>604.3333333333334</ele><time>2026-04-27T15:02:20Z</time></trkpt><trkpt lat="38.82749468921139" lon="16.342501710917492"><ele>599.6666666666667</ele><time>2026-04-27T15:02:21Z</time></trkpt><trkpt lat="38.82732794106982" lon="16.34267416241526"><ele>595.0</ele><time>2026-04-27T15:02:22Z</time></trkpt><trkpt lat="38.827158133353834" lon="16.342849704335485"><ele>595.0</ele><time>2026-04-27T15:02:23Z</time></trkpt><trkpt lat="38.827000243846186" lon="16.34300501505783"><ele>595.0</ele><time>2026-04-27T15:02:24Z</time></trkpt><trkpt lat="38.826846174544315" lon="16.34313390538115"><ele>595.0</ele><time>2026-04-27T15:02:25Z</time></trkpt><trkpt lat="38.82668273696584" lon="16.343261681254376"><ele>594.0</ele><time>2026-04-27T15:02:26Z</time></trkpt><trkpt lat="38.8265010779086" lon="16.343398734540923"><ele>593.0</ele><time>2026-04-27T15:02:27Z</time></trkpt><trkpt lat="38.82630642186526" lon="16.34354858879868"><ele>592.0</ele><time>2026-04-27T15:02:28Z</time></trkpt><trkpt lat="38.82610533356483" lon="16.343718210177386"><ele>592.0</ele><time>2026-04-27T15:02:29Z</time></trkpt><trkpt lat="38.82591006757209" lon="16.3438923319051"><ele>592.0</ele><time>2026-04-27T15:02:30Z</time></trkpt><trkpt lat="38.82572979867213" lon="16.344055129484747"><ele>592.0</ele><time>2026-04-27T15:02:31Z</time></trkpt><trkpt lat="38.825555395435806" lon="16.344215259509397"><ele>592.0</ele><time>2026-04-27T15:02:32Z</time></trkpt><trkpt lat="38.825386523246614" lon="16.344374576261906"><ele>592.0</ele><time>2026-04-27T15:02:33Z</time></trkpt><trkpt lat="38.82520705694718" lon="16.34456184093344"><ele>592.6666666666667</ele><time>2026-04-27T15:02:34Z</time></trkpt><trkpt lat="38.825039511384006" lon="16.344762359714913"><ele>593.3333333333334</ele><time>2026-04-27T15:02:34.999Z</time></trkpt><trkpt lat="38.824891811622244" lon="16.34493876961297"><ele>594.0</ele><time>2026-04-27T15:02:35.999Z</time></trkpt><trkpt lat="38.824755336264275" lon="16.34509380423797"><ele>594.0</ele><time>2026-04-27T15:02:36.999Z</time></trkpt><trkpt lat="38.82462900446493" lon="16.34522885730853"><ele>594.0</ele><time>2026-04-27T15:02:37.999Z</time></trkpt><trkpt lat="38.824505343096625" lon="16.345342050232095"><ele>594.0</ele><time>2026-04-27T15:02:39Z</time></trkpt><trkpt lat="38.82435158455377" lon="16.345450448839212"><ele>594.0</ele><time>2026-04-27T15:02:40Z</time></trkpt><trkpt lat="38.82417751213563" lon="16.345568785098177"><ele>594.0</ele><time>2026-04-27T15:02:41Z</time></trkpt><trkpt lat="38.82400782475985" lon="16.34569508404374"><ele>594.0</ele><time>2026-04-27T15:02:42Z</time></trkpt><trkpt lat="38.82383840848314" lon="16.345822857805132"><ele>594.0</ele><time>2026-04-27T15:02:43Z</time></trkpt><trkpt lat="38.82367049083167" lon="16.345964027544525"><ele>594.0</ele><time>2026-04-27T15:02:44Z</time></trkpt><trkpt lat="38.82350228268232" lon="16.34611644245135"><ele>594.0</ele><time>2026-04-27T15:02:45Z</time></trkpt><trkpt lat="38.82332912898705" lon="16.346274274083747"><ele>594.0</ele><time>2026-04-27T15:02:46Z</time></trkpt><trkpt lat="38.823150297603" lon="16.34643247099293"><ele>594.0</ele><time>2026-04-27T15:02:47Z</time></trkpt><trkpt lat="38.82296771564778" lon="16.346598638668883"><ele>594.0</ele><time>2026-04-27T15:02:48Z</time></trkpt><trkpt lat="38.822800723659235" lon="16.3467711645264"><ele>594.0</ele><time>2026-04-27T15:02:49Z</time></trkpt><trkpt lat="38.822661253090374" lon="16.346919802199864"><ele>594.0</ele><time>2026-04-27T15:02:50Z</time></trkpt><trkpt lat="38.82251584171893" lon="16.34706180835886"><ele>594.0</ele><time>2026-04-27T15:02:51Z</time></trkpt><trkpt lat="38.82235599588453" lon="16.347188573181793"><ele>596.6666666666666</ele><time>2026-04-27T15:02:52Z</time></trkpt><trkpt lat="38.82217858429553" lon="16.347292966114413"><ele>599.3333333333333</ele><time>2026-04-27T15:02:53Z</time></trkpt><trkpt lat="38.82199554116729" lon="16.34744657270363"><ele>602.0</ele><time>2026-04-27T15:02:54Z</time></trkpt><trkpt lat="38.82183183569415" lon="16.347618262009888"><ele>605.3333333333333</ele><time>2026-04-27T15:02:55Z</time></trkpt><trkpt lat="38.821698220544135" lon="16.347755444068238"><ele>608.6666666666666</ele><time>2026-04-27T15:02:56Z</time></trkpt><trkpt lat="38.821570982798356" lon="16.347903468183883"><ele>612.0</ele><time>2026-04-27T15:02:57Z</time></trkpt><trkpt lat="38.8214491342645" lon="16.348077421313217"><ele>613.0</ele><time>2026-04-27T15:02:58Z</time></trkpt><trkpt lat="38.82132501308076" lon="16.348252944589063"><ele>614.0</ele><time>2026-04-27T15:02:59Z</time></trkpt><trkpt lat="38.82119680124593" lon="16.348426759517295"><ele>615.0</ele><time>2026-04-27T15:03:00Z</time></trkpt><trkpt lat="38.8210564968273" lon="16.34858400969559"><ele>618.3333333333334</ele><time>2026-04-27T15:03:01Z</time></trkpt><trkpt lat="38.820917986279056" lon="16.34872136273928"><ele>621.6666666666667</ele><time>2026-04-27T15:03:02Z</time></trkpt><trkpt lat="38.82076767022197" lon="16.348861867073367"><ele>625.0</ele><time>2026-04-27T15:03:03Z</time></trkpt><trkpt lat="38.82061255638428" lon="16.349002515934565"><ele>625.0</ele><time>2026-04-27T15:03:04Z</time></trkpt><trkpt lat="38.82044569378937" lon="16.349138371236226"><ele>625.0</ele><time>2026-04-27T15:03:05Z</time></trkpt><trkpt lat="38.82027192431274" lon="16.3492703532139"><ele>625.0</ele><time>2026-04-27T15:03:06Z</time></trkpt><trkpt lat="38.82009130547075" lon="16.349405536212636"><ele>626.6666666666667</ele><time>2026-04-27T15:03:07Z</time></trkpt><trkpt lat="38.81991510304794" lon="16.349538501195557"><ele>628.3333333333334</ele><time>2026-04-27T15:03:08Z</time></trkpt><trkpt lat="38.81976552702188" lon="16.349654753313732"><ele>630.0</ele><time>2026-04-27T15:03:09Z</time></trkpt><trkpt lat="38.81963370624205" lon="16.349766347451105"><ele>630.25</ele><time>2026-04-27T15:03:10Z</time></trkpt><trkpt lat="38.819531642019406" lon="16.34986027865724"><ele>630.5</ele><time>2026-04-27T15:03:11Z</time></trkpt><trkpt lat="38.81944703526021" lon="16.349939290185997"><ele>630.75</ele><time>2026-04-27T15:03:12Z</time></trkpt><trkpt lat="38.81936830457803" lon="16.3500128144995"><ele>631.0</ele><time>2026-04-27T15:03:13Z</time></trkpt><trkpt lat="38.819318143701864" lon="16.350233790564157"><ele>632.0</ele><time>2026-04-27T15:03:14Z</time></trkpt><trkpt lat="38.81925198509065" lon="16.350409570333593"><ele>633.0</ele><time>2026-04-27T15:03:15Z</time></trkpt><trkpt lat="38.81917062382705" lon="16.350621129127926"><ele>634.0</ele><time>2026-04-27T15:03:16Z</time></trkpt><trkpt lat="38.81907782855315" lon="16.350856234121846"><ele>634.0</ele><time>2026-04-27T15:03:17Z</time></trkpt><trkpt lat="38.818970242254856" lon="16.351117642406255"><ele>634.0</ele><time>2026-04-27T15:03:18Z</time></trkpt><trkpt lat="38.818869161205534" lon="16.351351238896015"><ele>634.0</ele><time>2026-04-27T15:03:19Z</time></trkpt><trkpt lat="38.81877172968147" lon="16.35157003692767"><ele>634.3333333333334</ele><time>2026-04-27T15:03:20Z</time></trkpt><trkpt lat="38.81868169785823" lon="16.351769601451448"><ele>634.6666666666666</ele><time>2026-04-27T15:03:21Z</time></trkpt><trkpt lat="38.81859669266686" lon="16.351952763063355"><ele>635.0</ele><time>2026-04-27T15:03:22Z</time></trkpt><trkpt lat="38.81851174448887" lon="16.352117410516975"><ele>635.3333333333333</ele><time>2026-04-27T15:03:23Z</time></trkpt><trkpt lat="38.81840937045546" lon="16.352272000960628"><ele>635.6666666666666</ele><time>2026-04-27T15:03:24Z</time></trkpt><trkpt lat="38.81829239252822" lon="16.352435359727778"><ele>636.0</ele><time>2026-04-27T15:03:25Z</time></trkpt><trkpt lat="38.81812117958081" lon="16.35256975094903"><ele>636.0</ele><time>2026-04-27T15:03:26Z</time></trkpt><trkpt lat="38.81794938486821" lon="16.352715504387692"><ele>636.0</ele><time>2026-04-27T15:03:27Z</time></trkpt><trkpt lat="38.81776942910598" lon="16.352859351718017"><ele>636.0</ele><time>2026-04-27T15:03:28Z</time></trkpt><trkpt lat="38.81755410907036" lon="16.352955812251647"><ele>638.0</ele><time>2026-04-27T15:03:29Z</time></trkpt><trkpt lat="38.81735510192479" lon="16.35310023618081"><ele>640.0</ele><time>2026-04-27T15:03:30Z</time></trkpt><trkpt lat="38.81715158463929" lon="16.353249545030362"><ele>640.0</ele><time>2026-04-27T15:03:31Z</time></trkpt><trkpt lat="38.816950969048676" lon="16.353443440944478"><ele>640.0</ele><time>2026-04-27T15:03:32Z</time></trkpt><trkpt lat="38.816758532794516" lon="16.353659792962024"><ele>644.5</ele><time>2026-04-27T15:03:33Z</time></trkpt><trkpt lat="38.81656907929494" lon="16.353881410237697"><ele>649.0</ele><time>2026-04-27T15:03:34Z</time></trkpt><trkpt lat="38.81639537746282" lon="16.354069689754898"><ele>649.0</ele><time>2026-04-27T15:03:35Z</time></trkpt><trkpt lat="38.81621850148013" lon="16.354242592933662"><ele>649.0</ele><time>2026-04-27T15:03:36Z</time></trkpt><trkpt lat="38.816026354381705" lon="16.354427262814248"><ele>647.5</ele><time>2026-04-27T15:03:37Z</time></trkpt><trkpt lat="38.81583900069959" lon="16.354640774727663"><ele>646.0</ele><time>2026-04-27T15:03:38Z</time></trkpt><trkpt lat="38.81566479970768" lon="16.354861225799315"><ele>648.6666666666667</ele><time>2026-04-27T15:03:39Z</time></trkpt><trkpt lat="38.81551133733502" lon="16.35504757578559"><ele>651.3333333333334</ele><time>2026-04-27T15:03:40Z</time></trkpt><trkpt lat="38.815398318338616" lon="16.355173187691275"><ele>654.0</ele><time>2026-04-27T15:03:41Z</time></trkpt><trkpt lat="38.8152902165722" lon="16.355281161373696"><ele>654.0</ele><time>2026-04-27T15:03:42Z</time></trkpt><trkpt lat="38.81518267809593" lon="16.35536744076963"><ele>654.0</ele><time>2026-04-27T15:03:43Z</time></trkpt><trkpt lat="38.81508150585519" lon="16.355440556513635"><ele>654.0</ele><time>2026-04-27T15:03:44Z</time></trkpt><trkpt lat="38.81498283289356" lon="16.355502024684487"><ele>654.0</ele><time>2026-04-27T15:03:45Z</time></trkpt><trkpt lat="38.81489128180743" lon="16.355560756209538"><ele>655.1666666666666</ele><time>2026-04-27T15:03:46Z</time></trkpt><trkpt lat="38.8148052799176" lon="16.35561711098375"><ele>656.3333333333334</ele><time>2026-04-27T15:03:47Z</time></trkpt><trkpt lat="38.81472765545628" lon="16.35566892596183"><ele>657.5</ele><time>2026-04-27T15:03:48Z</time></trkpt><trkpt lat="38.81465957649916" lon="16.35572064449164"><ele>658.6666666666667</ele><time>2026-04-27T15:03:49Z</time></trkpt><trkpt lat="38.81460267728692" lon="16.355769153676352"><ele>659.8333333333334</ele><time>2026-04-27T15:03:50Z</time></trkpt><trkpt lat="38.81454729061585" lon="16.355835356296538"><ele>661.0</ele><time>2026-04-27T15:03:52Z</time></trkpt><trkpt lat="38.81464176328197" lon="16.356029076341237"><ele>661.0</ele><time>2026-04-27T15:03:53Z</time></trkpt><trkpt lat="38.81469754095946" lon="16.35609975650469"><ele>661.0</ele><time>2026-04-27T15:03:54Z</time></trkpt><trkpt lat="38.81472948327214" lon="16.356218508587236"><ele>661.0</ele><time>2026-04-27T15:03:55Z</time></trkpt><trkpt lat="38.814767632236325" lon="16.35635878603929"><ele>661.0</ele><time>2026-04-27T15:03:56Z</time></trkpt><trkpt lat="38.814847296074404" lon="16.356489925889523"><ele>661.0</ele><time>2026-04-27T15:03:57Z</time></trkpt><trkpt lat="38.814908284895274" lon="16.356666466371546"><ele>663.3333333333334</ele><time>2026-04-27T15:03:58Z</time></trkpt><trkpt lat="38.81498614367362" lon="16.35683468183211"><ele>665.6666666666666</ele><time>2026-04-27T15:03:59Z</time></trkpt><trkpt lat="38.815069261422956" lon="16.357002626690733"><ele>668.0</ele><time>2026-04-27T15:04:00Z</time></trkpt><trkpt lat="38.815141837514695" lon="16.35718724564597"><ele>667.6666666666666</ele><time>2026-04-27T15:04:01Z</time></trkpt><trkpt lat="38.81523026817165" lon="16.357345869544066"><ele>667.3333333333334</ele><time>2026-04-27T15:04:02Z</time></trkpt><trkpt lat="38.815320499615126" lon="16.35750772360801"><ele>667.0</ele><time>2026-04-27T15:04:03Z</time></trkpt><trkpt lat="38.815403804633476" lon="16.357668513215064"><ele>667.0</ele><time>2026-04-27T15:04:04Z</time></trkpt><trkpt lat="38.81549125824028" lon="16.35784998276038"><ele>667.0</ele><time>2026-04-27T15:04:05Z</time></trkpt><trkpt lat="38.815573806269235" lon="16.358005890823154"><ele>667.0</ele><time>2026-04-27T15:04:06Z</time></trkpt><trkpt lat="38.81566240527669" lon="16.358135103593"><ele>667.0</ele><time>2026-04-27T15:04:07Z</time></trkpt><trkpt lat="38.815796940338466" lon="16.358224172161158"><ele>667.3333333333334</ele><time>2026-04-27T15:04:08Z</time></trkpt><trkpt lat="38.815950421709445" lon="16.358323630640474"><ele>667.6666666666666</ele><time>2026-04-27T15:04:09Z</time></trkpt><trkpt lat="38.81610947745566" lon="16.358419679171288"><ele>668.0</ele><time>2026-04-27T15:04:10Z</time></trkpt><trkpt lat="38.81623818681775" lon="16.358519081426234"><ele>668.0</ele><time>2026-04-27T15:04:11Z</time></trkpt><trkpt lat="38.81632648798101" lon="16.358652878546792"><ele>668.0</ele><time>2026-04-27T15:04:12Z</time></trkpt><trkpt lat="38.8163963173805" lon="16.35878777241142"><ele>668.0</ele><time>2026-04-27T15:04:13Z</time></trkpt><trkpt lat="38.81645507967377" lon="16.358944556975356"><ele>668.0</ele><time>2026-04-27T15:04:14Z</time></trkpt><trkpt lat="38.8165197457379" lon="16.359129735036753"><ele>668.0</ele><time>2026-04-27T15:04:15Z</time></trkpt><trkpt lat="38.816594908171176" lon="16.35935092435285"><ele>668.0</ele><time>2026-04-27T15:04:16Z</time></trkpt><trkpt lat="38.816667369587485" lon="16.35955998533608"><ele>668.0</ele><time>2026-04-27T15:04:17Z</time></trkpt><trkpt lat="38.81674163547539" lon="16.35977002093516"><ele>668.6666666666666</ele><time>2026-04-27T15:04:18Z</time></trkpt><trkpt lat="38.8168006454233" lon="16.359959925701766"><ele>669.3333333333334</ele><time>2026-04-27T15:04:19Z</time></trkpt><trkpt lat="38.81683364211648" lon="16.360163447036125"><ele>670.0</ele><time>2026-04-27T15:04:20Z</time></trkpt><trkpt lat="38.81686385664628" lon="16.360386896747794"><ele>668.0</ele><time>2026-04-27T15:04:21Z</time></trkpt><trkpt lat="38.81686979777993" lon="16.36060984580077"><ele>666.0</ele><time>2026-04-27T15:04:22Z</time></trkpt><trkpt lat="38.81687940936501" lon="16.360839721491168"><ele>664.0</ele><time>2026-04-27T15:04:23Z</time></trkpt><trkpt lat="38.81688769719458" lon="16.361051380502378"><ele>664.0</ele><time>2026-04-27T15:04:24Z</time></trkpt><trkpt lat="38.81689114777073" lon="16.361237649014328"><ele>664.0</ele><time>2026-04-27T15:04:25Z</time></trkpt><trkpt lat="38.81689566068694" lon="16.361405032994917"><ele>664.0</ele><time>2026-04-27T15:04:26Z</time></trkpt><trkpt lat="38.816910997836736" lon="16.361550321005677"><ele>664.0</ele><time>2026-04-27T15:04:27Z</time></trkpt><trkpt lat="38.8169510578947" lon="16.361688009689694"><ele>663.25</ele><time>2026-04-27T15:04:28Z</time></trkpt><trkpt lat="38.8170421031437" lon="16.361781876858153"><ele>662.5</ele><time>2026-04-27T15:04:29Z</time></trkpt><trkpt lat="38.81714329064303" lon="16.361868612982708"><ele>661.75</ele><time>2026-04-27T15:04:30Z</time></trkpt><trkpt lat="38.81727716889615" lon="16.3619269573164"><ele>661.0</ele><time>2026-04-27T15:04:31Z</time></trkpt><trkpt lat="38.817441361446804" lon="16.361974559948077"><ele>661.0</ele><time>2026-04-27T15:04:32Z</time></trkpt><trkpt lat="38.817591333806284" lon="16.362054498501994"><ele>661.0</ele><time>2026-04-27T15:04:33Z</time></trkpt><trkpt lat="38.81773457370662" lon="16.362098717900782"><ele>661.0</ele><time>2026-04-27T15:04:33.999Z</time></trkpt><trkpt lat="38.81785137970211" lon="16.362161128650186"><ele>661.0</ele><time>2026-04-27T15:04:34.999Z</time></trkpt><trkpt lat="38.817960865036994" lon="16.36222723732718"><ele>661.25</ele><time>2026-04-27T15:04:35.999Z</time></trkpt><trkpt lat="38.81806808885046" lon="16.3623577290023"><ele>661.5</ele><time>2026-04-27T15:04:36.999Z</time></trkpt><trkpt lat="38.81816368386386" lon="16.362456641895164"><ele>661.75</ele><time>2026-04-27T15:04:37.999Z</time></trkpt><trkpt lat="38.81824140585307" lon="16.36254294922231"><ele>662.0</ele><time>2026-04-27T15:04:38.999Z</time></trkpt><trkpt lat="38.81829857126769" lon="16.362640557007193"><ele>662.0</ele><time>2026-04-27T15:04:39.999Z</time></trkpt><trkpt lat="38.81833616667925" lon="16.36276216054103"><ele>662.0</ele><time>2026-04-27T15:04:40.999Z</time></trkpt><trkpt lat="38.81839036136881" lon="16.362912372688985"><ele>662.0</ele><time>2026-04-27T15:04:41.999Z</time></trkpt><trkpt lat="38.81846052755889" lon="16.363073422987725"><ele>662.0</ele><time>2026-04-27T15:04:42.999Z</time></trkpt><trkpt lat="38.81853702646061" lon="16.363237727873447"><ele>663.0</ele><time>2026-04-27T15:04:43.999Z</time></trkpt><trkpt lat="38.81862161424153" lon="16.363407486873164"><ele>664.0</ele><time>2026-04-27T15:04:45Z</time></trkpt><trkpt lat="38.81871594811336" lon="16.363576134840553"><ele>665.0</ele><time>2026-04-27T15:04:46Z</time></trkpt><trkpt lat="38.818822318310175" lon="16.36374055176403"><ele>667.0</ele><time>2026-04-27T15:04:47Z</time></trkpt><trkpt lat="38.81893685917851" lon="16.363906657654837"><ele>669.0</ele><time>2026-04-27T15:04:48Z</time></trkpt><trkpt lat="38.81904912108459" lon="16.364073026174342"><ele>671.0</ele><time>2026-04-27T15:04:49Z</time></trkpt><trkpt lat="38.81914514182685" lon="16.364234030125377"><ele>671.0</ele><time>2026-04-27T15:04:50Z</time></trkpt><trkpt lat="38.819214959680714" lon="16.364370111013244"><ele>671.0</ele><time>2026-04-27T15:04:51Z</time></trkpt><trkpt lat="38.819271621080205" lon="16.3645325049352"><ele>671.0</ele><time>2026-04-27T15:04:52Z</time></trkpt><trkpt lat="38.81934154555474" lon="16.364728956520647"><ele>671.0</ele><time>2026-04-27T15:04:53Z</time></trkpt><trkpt lat="38.81940804891034" lon="16.36490010703274"><ele>670.1666666666666</ele><time>2026-04-27T15:04:54Z</time></trkpt><trkpt lat="38.819451152422985" lon="16.36501033127583"><ele>669.3333333333333</ele><time>2026-04-27T15:04:55Z</time></trkpt><trkpt lat="38.81949011589859" lon="16.365112509421184"><ele>668.5</ele><time>2026-04-27T15:04:56Z</time></trkpt><trkpt lat="38.819524431451995" lon="16.36520532597366"><ele>667.6666666666666</ele><time>2026-04-27T15:04:57Z</time></trkpt><trkpt lat="38.8195552825229" lon="16.365296403194638"><ele>666.8333333333334</ele><time>2026-04-27T15:04:58Z</time></trkpt><trkpt lat="38.81958032986292" lon="16.36537619743037"><ele>666.0</ele><time>2026-04-27T15:04:59Z</time></trkpt><trkpt lat="38.81960293446075" lon="16.365453688764884"><ele>666.6666666666666</ele><time>2026-04-27T15:05:00Z</time></trkpt><trkpt lat="38.819621399209254" lon="16.365534772326985"><ele>667.3333333333334</ele><time>2026-04-27T15:05:01Z</time></trkpt><trkpt lat="38.81964432024265" lon="16.365640061260724"><ele>668.0</ele><time>2026-04-27T15:05:02Z</time></trkpt><trkpt lat="38.819661254447894" lon="16.36573398325425"><ele>668.6666666666667</ele><time>2026-04-27T15:05:03Z</time></trkpt><trkpt lat="38.81967207030946" lon="16.3658179923178"><ele>669.3333333333334</ele><time>2026-04-27T15:05:04Z</time></trkpt><trkpt lat="38.819669445031636" lon="16.36595468445143"><ele>670.0</ele><time>2026-04-27T15:05:06Z</time></trkpt><trkpt lat="38.81966829857184" lon="16.366103614208065"><ele>670.0</ele><time>2026-04-27T15:05:08Z</time></trkpt><trkpt lat="38.81967546052513" lon="16.366213907544022"><ele>670.0</ele><time>2026-04-27T15:05:09Z</time></trkpt><trkpt lat="38.819692076140605" lon="16.366359976791305"><ele>670.0</ele><time>2026-04-27T15:05:10Z</time></trkpt><trkpt lat="38.81971118596483" lon="16.366505372558496"><ele>670.0</ele><time>2026-04-27T15:05:11Z</time></trkpt><trkpt lat="38.819732571412416" lon="16.36662865824413"><ele>670.0</ele><time>2026-04-27T15:05:12Z</time></trkpt><trkpt lat="38.8197490146282" lon="16.366723281092806"><ele>670.0</ele><time>2026-04-27T15:05:13Z</time></trkpt><trkpt lat="38.81976040861492" lon="16.366809935094"><ele>670.0</ele><time>2026-04-27T15:05:15Z</time></trkpt><trkpt lat="38.81961127441811" lon="16.366680240703612"><ele>670.0</ele><time>2026-04-27T15:05:19Z</time></trkpt><trkpt lat="38.81955316283939" lon="16.36660165453778"><ele>670.0</ele><time>2026-04-27T15:05:20Z</time></trkpt><trkpt lat="38.819458210455394" lon="16.366555373938134"><ele>670.0</ele><time>2026-04-27T15:05:21Z</time></trkpt><trkpt lat="38.81934919348195" lon="16.366531815713483"><ele>673.0</ele><time>2026-04-27T15:05:22Z</time></trkpt><trkpt lat="38.81921715515166" lon="16.366529139911094"><ele>676.0</ele><time>2026-04-27T15:05:23Z</time></trkpt><trkpt lat="38.819074088136105" lon="16.36655927639818"><ele>679.0</ele><time>2026-04-27T15:05:24Z</time></trkpt><trkpt lat="38.81893358872008" lon="16.36660488726896"><ele>682.0</ele><time>2026-04-27T15:05:25Z</time></trkpt><trkpt lat="38.81880424951179" lon="16.366644621874478"><ele>682.0</ele><time>2026-04-27T15:05:26Z</time></trkpt><trkpt lat="38.818662054625705" lon="16.366710944253313"><ele>682.0</ele><time>2026-04-27T15:05:27Z</time></trkpt><trkpt lat="38.81850963044336" lon="16.36681521185147"><ele>682.0</ele><time>2026-04-27T15:05:28Z</time></trkpt><trkpt lat="38.81835587253831" lon="16.366931653961892"><ele>685.0</ele><time>2026-04-27T15:05:29Z</time></trkpt><trkpt lat="38.81818093652997" lon="16.367057799830807"><ele>688.0</ele><time>2026-04-27T15:05:30Z</time></trkpt><trkpt lat="38.81802427688537" lon="16.367200908073475"><ele>691.0</ele><time>2026-04-27T15:05:31Z</time></trkpt><trkpt lat="38.81788775168708" lon="16.367317881218213"><ele>691.0</ele><time>2026-04-27T15:05:32Z</time></trkpt><trkpt lat="38.81774209927096" lon="16.36741167440214"><ele>691.0</ele><time>2026-04-27T15:05:33Z</time></trkpt><trkpt lat="38.817597041852906" lon="16.36750064276375"><ele>691.0</ele><time>2026-04-27T15:05:34Z</time></trkpt><trkpt lat="38.817472113591776" lon="16.36758048325056"><ele>694.75</ele><time>2026-04-27T15:05:35Z</time></trkpt><trkpt lat="38.8173581037344" lon="16.367663440897342"><ele>698.5</ele><time>2026-04-27T15:05:36Z</time></trkpt><trkpt lat="38.81725822382034" lon="16.367782462223"><ele>702.25</ele><time>2026-04-27T15:05:37Z</time></trkpt><trkpt lat="38.81716896164921" lon="16.367934199047525"><ele>706.0</ele><time>2026-04-27T15:05:38Z</time></trkpt><trkpt lat="38.81708393911315" lon="16.368121246974866"><ele>706.0</ele><time>2026-04-27T15:05:39Z</time></trkpt><trkpt lat="38.817011314191966" lon="16.368316319695296"><ele>706.0</ele><time>2026-04-27T15:05:40Z</time></trkpt><trkpt lat="38.81694501404667" lon="16.36849292915954"><ele>706.0</ele><time>2026-04-27T15:05:41Z</time></trkpt><trkpt lat="38.8168944333507" lon="16.368664581712054"><ele>706.0</ele><time>2026-04-27T15:05:42Z</time></trkpt><trkpt lat="38.81683831900639" lon="16.368772674015023"><ele>706.0</ele><time>2026-04-27T15:05:43Z</time></trkpt><trkpt lat="38.81677333519825" lon="16.36883854474813"><ele>706.0</ele><time>2026-04-27T15:05:44Z</time></trkpt><trkpt lat="38.81668023305115" lon="16.368917621057054"><ele>706.0</ele><time>2026-04-27T15:05:45Z</time></trkpt><trkpt lat="38.81655391613114" lon="16.368990045767383"><ele>706.0</ele><time>2026-04-27T15:05:46Z</time></trkpt><trkpt lat="38.816413217072665" lon="16.369096851695208"><ele>712.0</ele><time>2026-04-27T15:05:47Z</time></trkpt><trkpt lat="38.81627002626356" lon="16.36924024633047"><ele>718.0</ele><time>2026-04-27T15:05:48Z</time></trkpt><trkpt lat="38.81615386755049" lon="16.369453281479963"><ele>724.0</ele><time>2026-04-27T15:05:49Z</time></trkpt><trkpt lat="38.81606996621959" lon="16.369623892891"><ele>730.0</ele><time>2026-04-27T15:05:50Z</time></trkpt><trkpt lat="38.815973669267386" lon="16.369777289640403"><ele>736.0</ele><time>2026-04-27T15:05:51Z</time></trkpt><trkpt lat="38.81587246768934" lon="16.3699241109952"><ele>742.0</ele><time>2026-04-27T15:05:52Z</time></trkpt><trkpt lat="38.81577067472884" lon="16.37006211150929"><ele>742.0</ele><time>2026-04-27T15:05:53Z</time></trkpt><trkpt lat="38.81565749583115" lon="16.370212727255346"><ele>742.0</ele><time>2026-04-27T15:05:54Z</time></trkpt><trkpt lat="38.81554885160344" lon="16.370355240509166"><ele>742.0</ele><time>2026-04-27T15:05:55Z</time></trkpt><trkpt lat="38.81544941751561" lon="16.370487284614775"><ele>740.5</ele><time>2026-04-27T15:05:56Z</time></trkpt><trkpt lat="38.81534559416495" lon="16.370632743509105"><ele>739.0</ele><time>2026-04-27T15:05:57Z</time></trkpt><trkpt lat="38.81523715517177" lon="16.37075581152812"><ele>737.5</ele><time>2026-04-27T15:05:58Z</time></trkpt><trkpt lat="38.815121437275266" lon="16.370835885345922"><ele>736.0</ele><time>2026-04-27T15:05:59Z</time></trkpt><trkpt lat="38.81498148689022" lon="16.370915573743357"><ele>742.3333333333334</ele><time>2026-04-27T15:06:00Z</time></trkpt><trkpt lat="38.81480054481778" lon="16.37101845119055"><ele>748.6666666666666</ele><time>2026-04-27T15:06:01Z</time></trkpt><trkpt lat="38.8146085366841" lon="16.37118003017634"><ele>755.0</ele><time>2026-04-27T15:06:02Z</time></trkpt><trkpt lat="38.81444446481207" lon="16.37133059946081"><ele>755.6666666666666</ele><time>2026-04-27T15:06:03Z</time></trkpt><trkpt lat="38.814296215338324" lon="16.371437673307792"><ele>756.3333333333334</ele><time>2026-04-27T15:06:04Z</time></trkpt><trkpt lat="38.81416754317872" lon="16.37149884450307"><ele>757.0</ele><time>2026-04-27T15:06:05Z</time></trkpt><trkpt lat="38.814027149483245" lon="16.371535588220222"><ele>757.0</ele><time>2026-04-27T15:06:06Z</time></trkpt><trkpt lat="38.81387029501962" lon="16.371587310168035"><ele>757.0</ele><time>2026-04-27T15:06:07Z</time></trkpt><trkpt lat="38.81372492087726" lon="16.37169106154215"><ele>757.0</ele><time>2026-04-27T15:06:08Z</time></trkpt><trkpt lat="38.81358100325964" lon="16.37184029061681"><ele>760.0</ele><time>2026-04-27T15:06:09Z</time></trkpt><trkpt lat="38.81344965923561" lon="16.372035939737135"><ele>763.0</ele><time>2026-04-27T15:06:10Z</time></trkpt><trkpt lat="38.81335424852221" lon="16.372244231350667"><ele>766.0</ele><time>2026-04-27T15:06:11Z</time></trkpt><trkpt lat="38.8132854695135" lon="16.372403859872083"><ele>766.0</ele><time>2026-04-27T15:06:12Z</time></trkpt><trkpt lat="38.813193076292194" lon="16.37253008616553"><ele>766.0</ele><time>2026-04-27T15:06:13Z</time></trkpt><trkpt lat="38.81307091586453" lon="16.37263743767092"><ele>766.0</ele><time>2026-04-27T15:06:14Z</time></trkpt><trkpt lat="38.81291223220716" lon="16.372761835721654"><ele>766.0</ele><time>2026-04-27T15:06:15Z</time></trkpt><trkpt lat="38.81275983465561" lon="16.372870552561565"><ele>766.0</ele><time>2026-04-27T15:06:16Z</time></trkpt><trkpt lat="38.81262799465571" lon="16.37295040236261"><ele>766.0</ele><time>2026-04-27T15:06:17Z</time></trkpt><trkpt lat="38.81252912828182" lon="16.37299510228633"><ele>766.0</ele><time>2026-04-27T15:06:18Z</time></trkpt><trkpt lat="38.81244374795484" lon="16.373021036823417"><ele>767.25</ele><time>2026-04-27T15:06:19Z</time></trkpt><trkpt lat="38.81231963439837" lon="16.373031625338072"><ele>768.5</ele><time>2026-04-27T15:06:20Z</time></trkpt><trkpt lat="38.81216426859907" lon="16.373005816410615"><ele>769.75</ele><time>2026-04-27T15:06:21Z</time></trkpt><trkpt lat="38.812072436572336" lon="16.372951876400165"><ele>771.0</ele><time>2026-04-27T15:06:22Z</time></trkpt><trkpt lat="38.81198333326567" lon="16.372861898849166"><ele>771.5</ele><time>2026-04-27T15:06:23Z</time></trkpt><trkpt lat="38.81190620065523" lon="16.37271849358167"><ele>772.0</ele><time>2026-04-27T15:06:24Z</time></trkpt><trkpt lat="38.81184115215344" lon="16.372545408217725"><ele>772.5</ele><time>2026-04-27T15:06:25Z</time></trkpt><trkpt lat="38.81176521838883" lon="16.372368329384997"><ele>773.0</ele><time>2026-04-27T15:06:26Z</time></trkpt><trkpt lat="38.81171923409438" lon="16.372186636155604"><ele>776.25</ele><time>2026-04-27T15:06:27Z</time></trkpt><trkpt lat="38.81168238491337" lon="16.372027180113363"><ele>779.5</ele><time>2026-04-27T15:06:28Z</time></trkpt><trkpt lat="38.811623087214166" lon="16.371867827619297"><ele>782.75</ele><time>2026-04-27T15:06:29Z</time></trkpt><trkpt lat="38.81150611398529" lon="16.371728191401775"><ele>786.0</ele><time>2026-04-27T15:06:30Z</time></trkpt><trkpt lat="38.81134748955364" lon="16.371608511310207"><ele>786.0</ele><time>2026-04-27T15:06:31Z</time></trkpt><trkpt lat="38.81118585001456" lon="16.371495970866324"><ele>786.0</ele><time>2026-04-27T15:06:32Z</time></trkpt><trkpt lat="38.81103877890434" lon="16.371384927603803"><ele>786.0</ele><time>2026-04-27T15:06:33Z</time></trkpt><trkpt lat="38.81089535271778" lon="16.37125679293489"><ele>787.75</ele><time>2026-04-27T15:06:34Z</time></trkpt><trkpt lat="38.81077007933474" lon="16.371128085753636"><ele>789.5</ele><time>2026-04-27T15:06:35Z</time></trkpt><trkpt lat="38.81066786799971" lon="16.371014014589985"><ele>791.25</ele><time>2026-04-27T15:06:35.999Z</time></trkpt><trkpt lat="38.810543450291554" lon="16.37090509516346"><ele>793.0</ele><time>2026-04-27T15:06:36.999Z</time></trkpt><trkpt lat="38.81039614234346" lon="16.370812212751837"><ele>793.0</ele><time>2026-04-27T15:06:37.999Z</time></trkpt><trkpt lat="38.810235540142" lon="16.370736391323664"><ele>793.0</ele><time>2026-04-27T15:06:38.999Z</time></trkpt><trkpt lat="38.810052101818215" lon="16.370686492241056"><ele>793.0</ele><time>2026-04-27T15:06:39.999Z</time></trkpt><trkpt lat="38.80988325850702" lon="16.370642545012373"><ele>790.75</ele><time>2026-04-27T15:06:40.999Z</time></trkpt><trkpt lat="38.80974022479663" lon="16.370606079661872"><ele>788.5</ele><time>2026-04-27T15:06:41.999Z</time></trkpt><trkpt lat="38.809616232414015" lon="16.370569756388733"><ele>786.25</ele><time>2026-04-27T15:06:42.999Z</time></trkpt><trkpt lat="38.80949435777047" lon="16.37049760118844"><ele>784.0</ele><time>2026-04-27T15:06:43.999Z</time></trkpt><trkpt lat="38.8093591776745" lon="16.37037888628681"><ele>788.6666666666666</ele><time>2026-04-27T15:06:44.999Z</time></trkpt><trkpt lat="38.80920371479608" lon="16.37025115694567"><ele>793.3333333333333</ele><time>2026-04-27T15:06:45.999Z</time></trkpt><trkpt lat="38.80902537577848" lon="16.370180835750638"><ele>798.0</ele><time>2026-04-27T15:06:46.999Z</time></trkpt><trkpt lat="38.80886476635537" lon="16.370141620585073"><ele>798.0</ele><time>2026-04-27T15:06:47.999Z</time></trkpt><trkpt lat="38.8087421166119" lon="16.370120893403694"><ele>798.0</ele><time>2026-04-27T15:06:48.999Z</time></trkpt><trkpt lat="38.80866844486078" lon="16.37005976103666"><ele>798.0</ele><time>2026-04-27T15:06:49.999Z</time></trkpt><trkpt lat="38.80861319009363" lon="16.369977614174573"><ele>798.0</ele><time>2026-04-27T15:06:51Z</time></trkpt><trkpt lat="38.80856383538663" lon="16.369839574670266"><ele>798.0</ele><time>2026-04-27T15:06:52Z</time></trkpt><trkpt lat="38.80853064359753" lon="16.369674574927664"><ele>801.25</ele><time>2026-04-27T15:06:53Z</time></trkpt><trkpt lat="38.80852468816343" lon="16.369484941428585"><ele>804.5</ele><time>2026-04-27T15:06:54Z</time></trkpt><trkpt lat="38.808514725973815" lon="16.369301142763128"><ele>807.75</ele><time>2026-04-27T15:06:55Z</time></trkpt><trkpt lat="38.808524725531655" lon="16.36912021752982"><ele>811.0</ele><time>2026-04-27T15:06:56Z</time></trkpt><trkpt lat="38.80853033250949" lon="16.368942807557858"><ele>813.75</ele><time>2026-04-27T15:06:57Z</time></trkpt><trkpt lat="38.80853147730937" lon="16.368763679558917"><ele>816.5</ele><time>2026-04-27T15:06:58Z</time></trkpt><trkpt lat="38.808530052756524" lon="16.368603245279285"><ele>819.25</ele><time>2026-04-27T15:06:59Z</time></trkpt><trkpt lat="38.80852687592157" lon="16.368470032305034"><ele>822.0</ele><time>2026-04-27T15:07:00Z</time></trkpt><trkpt lat="38.808517164067716" lon="16.36835979941709"><ele>818.8</ele><time>2026-04-27T15:07:01Z</time></trkpt><trkpt lat="38.808486595403146" lon="16.36825975960088"><ele>815.6</ele><time>2026-04-27T15:07:02Z</time></trkpt><trkpt lat="38.808421324197866" lon="16.36817381087894"><ele>812.4</ele><time>2026-04-27T15:07:03Z</time></trkpt><trkpt lat="38.80831943764971" lon="16.368114216886482"><ele>809.1999999999999</ele><time>2026-04-27T15:07:04Z</time></trkpt><trkpt lat="38.8081767213023" lon="16.36811964242777"><ele>806.0</ele><time>2026-04-27T15:07:05Z</time></trkpt><trkpt lat="38.80804755928488" lon="16.368163687484806"><ele>806.0</ele><time>2026-04-27T15:07:06Z</time></trkpt><trkpt lat="38.80795136048531" lon="16.368173650187757"><ele>806.0</ele><time>2026-04-27T15:07:07Z</time></trkpt><trkpt lat="38.807869529409004" lon="16.368168505333287"><ele>806.0</ele><time>2026-04-27T15:07:08Z</time></trkpt><trkpt lat="38.80778375914798" lon="16.368135826005258"><ele>806.0</ele><time>2026-04-27T15:07:09Z</time></trkpt><trkpt lat="38.80767407543899" lon="16.36806131213734"><ele>806.0</ele><time>2026-04-27T15:07:10Z</time></trkpt><trkpt lat="38.80755318694838" lon="16.36796093069123"><ele>809.6666666666667</ele><time>2026-04-27T15:07:11Z</time></trkpt><trkpt lat="38.80743273574171" lon="16.367839524512448"><ele>813.3333333333333</ele><time>2026-04-27T15:07:12Z</time></trkpt><trkpt lat="38.80730399945785" lon="16.367719877536317"><ele>817.0</ele><time>2026-04-27T15:07:13Z</time></trkpt><trkpt lat="38.80718499896429" lon="16.367576278519003"><ele>817.0</ele><time>2026-04-27T15:07:14Z</time></trkpt><trkpt lat="38.80706063606764" lon="16.367432981444576"><ele>817.0</ele><time>2026-04-27T15:07:15Z</time></trkpt><trkpt lat="38.806937223017826" lon="16.367285256780868"><ele>817.0</ele><time>2026-04-27T15:07:16Z</time></trkpt><trkpt lat="38.80682009514732" lon="16.367124045164534"><ele>817.6666666666666</ele><time>2026-04-27T15:07:17Z</time></trkpt><trkpt lat="38.80673312666824" lon="16.366909615695356"><ele>818.3333333333333</ele><time>2026-04-27T15:07:18Z</time></trkpt><trkpt lat="38.806581391465144" lon="16.366757958270522"><ele>819.0</ele><time>2026-04-27T15:07:19Z</time></trkpt><trkpt lat="38.80643711584884" lon="16.3665844471994"><ele>819.0</ele><time>2026-04-27T15:07:20Z</time></trkpt><trkpt lat="38.80630830430336" lon="16.36645385079866"><ele>819.0</ele><time>2026-04-27T15:07:21Z</time></trkpt><trkpt lat="38.806201179621354" lon="16.366345291507024"><ele>819.0</ele><time>2026-04-27T15:07:22Z</time></trkpt><trkpt lat="38.806094343882016" lon="16.366254906602617"><ele>819.0</ele><time>2026-04-27T15:07:23Z</time></trkpt><trkpt lat="38.805976630889724" lon="16.36621101580649"><ele>822.5</ele><time>2026-04-27T15:07:24Z</time></trkpt><trkpt lat="38.80585960400299" lon="16.366182577914913"><ele>826.0</ele><time>2026-04-27T15:07:25Z</time></trkpt><trkpt lat="38.80574299026494" lon="16.36621700615737"><ele>829.5</ele><time>2026-04-27T15:07:26Z</time></trkpt><trkpt lat="38.805619816249305" lon="16.366299384187688"><ele>833.0</ele><time>2026-04-27T15:07:27Z</time></trkpt><trkpt lat="38.805503776446365" lon="16.366367071842195"><ele>833.0</ele><time>2026-04-27T15:07:28Z</time></trkpt><trkpt lat="38.80538092030496" lon="16.366401863385136"><ele>833.0</ele><time>2026-04-27T15:07:29Z</time></trkpt><trkpt lat="38.80523624986999" lon="16.36644186656194"><ele>833.0</ele><time>2026-04-27T15:07:30Z</time></trkpt><trkpt lat="38.80510640345685" lon="16.366396562858736"><ele>833.0</ele><time>2026-04-27T15:07:31Z</time></trkpt><trkpt lat="38.80502793262582" lon="16.366324367717244"><ele>840.0</ele><time>2026-04-27T15:07:32Z</time></trkpt><trkpt lat="38.80495240315235" lon="16.366255101150774"><ele>847.0</ele><time>2026-04-27T15:07:33Z</time></trkpt><trkpt lat="38.8048542052004" lon="16.36617049047734"><ele>854.0</ele><time>2026-04-27T15:07:34Z</time></trkpt><trkpt lat="38.804733134813915" lon="16.366069206470137"><ele>861.0</ele><time>2026-04-27T15:07:35Z</time></trkpt><trkpt lat="38.80460056266579" lon="16.3659667287874"><ele>861.0</ele><time>2026-04-27T15:07:36Z</time></trkpt><trkpt lat="38.80447354391871" lon="16.365866604341186"><ele>861.0</ele><time>2026-04-27T15:07:37Z</time></trkpt><trkpt lat="38.80434196689838" lon="16.36576108827168"><ele>861.0</ele><time>2026-04-27T15:07:38Z</time></trkpt><trkpt lat="38.804195988557666" lon="16.365655732069005"><ele>861.0</ele><time>2026-04-27T15:07:39Z</time></trkpt><trkpt lat="38.80406148703806" lon="16.36556802922316"><ele>861.0</ele><time>2026-04-27T15:07:40Z</time></trkpt><trkpt lat="38.80392669650265" lon="16.365497673705775"><ele>861.0</ele><time>2026-04-27T15:07:41Z</time></trkpt><trkpt lat="38.803772070612744" lon="16.36543037802264"><ele>861.0</ele><time>2026-04-27T15:07:42Z</time></trkpt><trkpt lat="38.80361060822324" lon="16.36537506886451"><ele>861.0</ele><time>2026-04-27T15:07:43Z</time></trkpt><trkpt lat="38.803472395302734" lon="16.365337118408284"><ele>861.0</ele><time>2026-04-27T15:07:44Z</time></trkpt><trkpt lat="38.803343542706976" lon="16.365326739302493"><ele>861.0</ele><time>2026-04-27T15:07:45Z</time></trkpt><trkpt lat="38.80321949927022" lon="16.365288817551047"><ele>862.0</ele><time>2026-04-27T15:07:46Z</time></trkpt><trkpt lat="38.803080581865885" lon="16.365281675169143"><ele>863.0</ele><time>2026-04-27T15:07:47Z</time></trkpt><trkpt lat="38.80293202755078" lon="16.365305808162056"><ele>864.0</ele><time>2026-04-27T15:07:48Z</time></trkpt><trkpt lat="38.80280326463796" lon="16.365344230195394"><ele>865.0</ele><time>2026-04-27T15:07:49Z</time></trkpt><trkpt lat="38.802674340166774" lon="16.365386431317383"><ele>869.5</ele><time>2026-04-27T15:07:50Z</time></trkpt><trkpt lat="38.802546686862456" lon="16.36541242420682"><ele>874.0</ele><time>2026-04-27T15:07:51Z</time></trkpt><trkpt lat="38.802418193012485" lon="16.365417008940558"><ele>878.5</ele><time>2026-04-27T15:07:52Z</time></trkpt><trkpt lat="38.80229832120105" lon="16.36541965516129"><ele>883.0</ele><time>2026-04-27T15:07:53Z</time></trkpt><trkpt lat="38.80218674176497" lon="16.365398257033146"><ele>883.0</ele><time>2026-04-27T15:07:54Z</time></trkpt><trkpt lat="38.802085911769126" lon="16.36537409136468"><ele>883.0</ele><time>2026-04-27T15:07:55Z</time></trkpt><trkpt lat="38.802001703532035" lon="16.36529925110572"><ele>883.0</ele><time>2026-04-27T15:07:56Z</time></trkpt><trkpt lat="38.80190916212064" lon="16.365176527347415"><ele>883.0</ele><time>2026-04-27T15:07:57Z</time></trkpt><trkpt lat="38.801793225762054" lon="16.36503262760492"><ele>883.0</ele><time>2026-04-27T15:07:58Z</time></trkpt><trkpt lat="38.8016743766491" lon="16.36485847005807"><ele>883.0</ele><time>2026-04-27T15:07:59Z</time></trkpt><trkpt lat="38.80155451249456" lon="16.36464551848447"><ele>883.0</ele><time>2026-04-27T15:08:00Z</time></trkpt><trkpt lat="38.80140758608739" lon="16.364440749736666"><ele>882.3333333333333</ele><time>2026-04-27T15:08:01Z</time></trkpt><trkpt lat="38.801275876122006" lon="16.364259135132773"><ele>881.6666666666667</ele><time>2026-04-27T15:08:02Z</time></trkpt><trkpt lat="38.80113873492056" lon="16.364101135432335"><ele>881.0</ele><time>2026-04-27T15:08:03Z</time></trkpt><trkpt lat="38.800989082859246" lon="16.363987745032794"><ele>881.0</ele><time>2026-04-27T15:08:04Z</time></trkpt><trkpt lat="38.80083541553764" lon="16.363916527118644"><ele>881.0</ele><time>2026-04-27T15:08:05Z</time></trkpt><trkpt lat="38.800673159832755" lon="16.36387169215282"><ele>881.0</ele><time>2026-04-27T15:08:06Z</time></trkpt><trkpt lat="38.80049714762043" lon="16.363813794324834"><ele>883.3333333333334</ele><time>2026-04-27T15:08:07Z</time></trkpt><trkpt lat="38.800304861692474" lon="16.363776957205786"><ele>885.6666666666667</ele><time>2026-04-27T15:08:08Z</time></trkpt><trkpt lat="38.80011262158311" lon="16.363739346246973"><ele>888.0</ele><time>2026-04-27T15:08:09Z</time></trkpt><trkpt lat="38.79993821889327" lon="16.363695603227487"><ele>888.0</ele><time>2026-04-27T15:08:10Z</time></trkpt><trkpt lat="38.79979150633186" lon="16.363664092846648"><ele>888.0</ele><time>2026-04-27T15:08:11Z</time></trkpt><trkpt lat="38.79966710421583" lon="16.363582618734245"><ele>888.0</ele><time>2026-04-27T15:08:12Z</time></trkpt><trkpt lat="38.79954920949453" lon="16.363474481078878"><ele>888.0</ele><time>2026-04-27T15:08:13Z</time></trkpt><trkpt lat="38.79941325215867" lon="16.36336317299014"><ele>886.0</ele><time>2026-04-27T15:08:14Z</time></trkpt><trkpt lat="38.79928296923397" lon="16.363237914519043"><ele>884.0</ele><time>2026-04-27T15:08:15Z</time></trkpt><trkpt lat="38.799138316466035" lon="16.363170015975886"><ele>882.0</ele><time>2026-04-27T15:08:16Z</time></trkpt><trkpt lat="38.7990190127101" lon="16.36307978236952"><ele>882.0</ele><time>2026-04-27T15:08:17Z</time></trkpt><trkpt lat="38.79889123525853" lon="16.36302956181066"><ele>882.0</ele><time>2026-04-27T15:08:18Z</time></trkpt><trkpt lat="38.79874611843485" lon="16.363024706117965"><ele>882.0</ele><time>2026-04-27T15:08:19Z</time></trkpt><trkpt lat="38.79857203959274" lon="16.363101083987868"><ele>884.75</ele><time>2026-04-27T15:08:20Z</time></trkpt><trkpt lat="38.798431951033955" lon="16.363183068132333"><ele>887.5</ele><time>2026-04-27T15:08:21Z</time></trkpt><trkpt lat="38.79829925662726" lon="16.363266031826388"><ele>890.25</ele><time>2026-04-27T15:08:22Z</time></trkpt><trkpt lat="38.79818354281772" lon="16.363333937803933"><ele>893.0</ele><time>2026-04-27T15:08:23Z</time></trkpt><trkpt lat="38.79807699388251" lon="16.363373769536434"><ele>893.0</ele><time>2026-04-27T15:08:24Z</time></trkpt><trkpt lat="38.79796461529916" lon="16.363409147062463"><ele>893.0</ele><time>2026-04-27T15:08:25Z</time></trkpt><trkpt lat="38.79789956121527" lon="16.363402906143588"><ele>893.0</ele><time>2026-04-27T15:08:26Z</time></trkpt><trkpt lat="38.7978138790532" lon="16.363369500034597"><ele>893.0</ele><time>2026-04-27T15:08:27Z</time></trkpt><trkpt lat="38.797717563136885" lon="16.363300025541943"><ele>893.0</ele><time>2026-04-27T15:08:28Z</time></trkpt><trkpt lat="38.7976295893161" lon="16.363176063486947"><ele>893.0</ele><time>2026-04-27T15:08:29Z</time></trkpt><trkpt lat="38.7975267503405" lon="16.3630705591658"><ele>893.0</ele><time>2026-04-27T15:08:30Z</time></trkpt><trkpt lat="38.79740629661658" lon="16.362996821671988"><ele>893.0</ele><time>2026-04-27T15:08:31Z</time></trkpt><trkpt lat="38.797288132804724" lon="16.362940439590123"><ele>893.0</ele><time>2026-04-27T15:08:32Z</time></trkpt><trkpt lat="38.79715040331862" lon="16.362888629789957"><ele>893.0</ele><time>2026-04-27T15:08:33Z</time></trkpt><trkpt lat="38.796993436495164" lon="16.36286612295458"><ele>893.0</ele><time>2026-04-27T15:08:34Z</time></trkpt><trkpt lat="38.79685390221078" lon="16.36282224494192"><ele>893.0</ele><time>2026-04-27T15:08:35Z</time></trkpt><trkpt lat="38.79671197064933" lon="16.36278038135228"><ele>893.0</ele><time>2026-04-27T15:08:36Z</time></trkpt><trkpt lat="38.79654612944949" lon="16.362721879925022"><ele>890.6666666666667</ele><time>2026-04-27T15:08:36.999Z</time></trkpt><trkpt lat="38.796374369603626" lon="16.36265252541873"><ele>888.3333333333333</ele><time>2026-04-27T15:08:37.999Z</time></trkpt><trkpt lat="38.796216141525036" lon="16.362585715228764"><ele>886.0</ele><time>2026-04-27T15:08:38.999Z</time></trkpt><trkpt lat="38.79605178943895" lon="16.362526335357877"><ele>884.25</ele><time>2026-04-27T15:08:39.999Z</time></trkpt><trkpt lat="38.79588205759703" lon="16.36249492759726"><ele>882.5</ele><time>2026-04-27T15:08:40.999Z</time></trkpt><trkpt lat="38.79575193814966" lon="16.362456418147108"><ele>880.75</ele><time>2026-04-27T15:08:41.999Z</time></trkpt><trkpt lat="38.795633809290166" lon="16.36239097772305"><ele>879.0</ele><time>2026-04-27T15:08:42.999Z</time></trkpt><trkpt lat="38.79549454023049" lon="16.36229764302808"><ele>881.3333333333333</ele><time>2026-04-27T15:08:43.999Z</time></trkpt><trkpt lat="38.79533265894748" lon="16.362193769029936"><ele>883.6666666666666</ele><time>2026-04-27T15:08:44.999Z</time></trkpt><trkpt lat="38.79515769521086" lon="16.36208145017618"><ele>886.0</ele><time>2026-04-27T15:08:45.999Z</time></trkpt><trkpt lat="38.79498339421831" lon="16.361967189374283"><ele>886.0</ele><time>2026-04-27T15:08:46.999Z</time></trkpt><trkpt lat="38.794796757849994" lon="16.361832994902624"><ele>886.0</ele><time>2026-04-27T15:08:47.999Z</time></trkpt><trkpt lat="38.7946232169435" lon="16.361679621458173"><ele>886.0</ele><time>2026-04-27T15:08:48.999Z</time></trkpt><trkpt lat="38.79444083994256" lon="16.361567313553792"><ele>880.0</ele><time>2026-04-27T15:08:49.999Z</time></trkpt><trkpt lat="38.79424570303829" lon="16.361486204698277"><ele>874.0</ele><time>2026-04-27T15:08:50.999Z</time></trkpt><trkpt lat="38.79405860663048" lon="16.361419364889173"><ele>868.0</ele><time>2026-04-27T15:08:51.999Z</time></trkpt><trkpt lat="38.79391970378279" lon="16.361383017850827"><ele>867.75</ele><time>2026-04-27T15:08:52.999Z</time></trkpt><trkpt lat="38.79379408512006" lon="16.361335915784046"><ele>867.5</ele><time>2026-04-27T15:08:53.999Z</time></trkpt><trkpt lat="38.793678877648965" lon="16.3612515177664"><ele>867.25</ele><time>2026-04-27T15:08:54.999Z</time></trkpt><trkpt lat="38.793571481954594" lon="16.3611310657992"><ele>867.0</ele><time>2026-04-27T15:08:55.999Z</time></trkpt><trkpt lat="38.793470591652266" lon="16.360973335532325"><ele>867.0</ele><time>2026-04-27T15:08:57Z</time></trkpt><trkpt lat="38.793387509108555" lon="16.360816475927198"><ele>867.0</ele><time>2026-04-27T15:08:58Z</time></trkpt><trkpt lat="38.79328589822036" lon="16.36067087368233"><ele>867.0</ele><time>2026-04-27T15:08:59Z</time></trkpt><trkpt lat="38.79315330057874" lon="16.360527517447597"><ele>870.3333333333333</ele><time>2026-04-27T15:09:00Z</time></trkpt><trkpt lat="38.793004037913455" lon="16.36043580468691"><ele>873.6666666666666</ele><time>2026-04-27T15:09:01Z</time></trkpt><trkpt lat="38.79285252772818" lon="16.360349074087846"><ele>877.0</ele><time>2026-04-27T15:09:02Z</time></trkpt><trkpt lat="38.79273119800572" lon="16.36027446805415"><ele>876.0</ele><time>2026-04-27T15:09:03Z</time></trkpt><trkpt lat="38.792618241683584" lon="16.360236286772228"><ele>875.0</ele><time>2026-04-27T15:09:04Z</time></trkpt><trkpt lat="38.792491327954195" lon="16.360207974998346"><ele>874.0</ele><time>2026-04-27T15:09:05Z</time></trkpt><trkpt lat="38.792345157214115" lon="16.360193184975167"><ele>873.0</ele><time>2026-04-27T15:09:06Z</time></trkpt><trkpt lat="38.79219695829799" lon="16.360186783076312"><ele>873.0</ele><time>2026-04-27T15:09:07Z</time></trkpt><trkpt lat="38.792066262023795" lon="16.360182227849396"><ele>873.0</ele><time>2026-04-27T15:09:08Z</time></trkpt><trkpt lat="38.79192982208993" lon="16.360174077741075"><ele>873.0</ele><time>2026-04-27T15:09:09Z</time></trkpt><trkpt lat="38.79178103427714" lon="16.360163772001403"><ele>873.0</ele><time>2026-04-27T15:09:10Z</time></trkpt><trkpt lat="38.79164079558582" lon="16.360150837975123"><ele>874.25</ele><time>2026-04-27T15:09:11Z</time></trkpt><trkpt lat="38.79149643473639" lon="16.36012674504476"><ele>875.5</ele><time>2026-04-27T15:09:12Z</time></trkpt><trkpt lat="38.791352946383945" lon="16.360090133870944"><ele>876.75</ele><time>2026-04-27T15:09:13Z</time></trkpt><trkpt lat="38.79122283446677" lon="16.360067692996903"><ele>878.0</ele><time>2026-04-27T15:09:14Z</time></trkpt><trkpt lat="38.79110438976209" lon="16.360056497069046"><ele>878.25</ele><time>2026-04-27T15:09:15Z</time></trkpt><trkpt lat="38.79098943285206" lon="16.360055068562247"><ele>878.5</ele><time>2026-04-27T15:09:16Z</time></trkpt><trkpt lat="38.79087227579219" lon="16.360067407896576"><ele>878.75</ele><time>2026-04-27T15:09:17Z</time></trkpt><trkpt lat="38.79075033368262" lon="16.360103993668854"><ele>879.0</ele><time>2026-04-27T15:09:18Z</time></trkpt><trkpt lat="38.79062659680329" lon="16.360164192327975"><ele>879.0</ele><time>2026-04-27T15:09:19Z</time></trkpt><trkpt lat="38.790494292004354" lon="16.36025213205291"><ele>879.0</ele><time>2026-04-27T15:09:20Z</time></trkpt><trkpt lat="38.79035597121885" lon="16.360336808477015"><ele>879.0</ele><time>2026-04-27T15:09:21Z</time></trkpt><trkpt lat="38.79020921115363" lon="16.36041177841083"><ele>879.6666666666667</ele><time>2026-04-27T15:09:22Z</time></trkpt><trkpt lat="38.79005097469556" lon="16.36048445257447"><ele>880.3333333333334</ele><time>2026-04-27T15:09:23Z</time></trkpt><trkpt lat="38.78990297467671" lon="16.360543437795624"><ele>881.0</ele><time>2026-04-27T15:09:24Z</time></trkpt><trkpt lat="38.789764852647885" lon="16.360595431026233"><ele>880.25</ele><time>2026-04-27T15:09:25Z</time></trkpt><trkpt lat="38.78962270779916" lon="16.36064882626627"><ele>879.5</ele><time>2026-04-27T15:09:26Z</time></trkpt><trkpt lat="38.78948276846682" lon="16.36069761661018"><ele>878.75</ele><time>2026-04-27T15:09:27Z</time></trkpt><trkpt lat="38.789343036457794" lon="16.360744620312083"><ele>878.0</ele><time>2026-04-27T15:09:28Z</time></trkpt><trkpt lat="38.78919943153425" lon="16.360788997620173"><ele>878.0</ele><time>2026-04-27T15:09:29Z</time></trkpt><trkpt lat="38.78904964341484" lon="16.360826791707098"><ele>878.0</ele><time>2026-04-27T15:09:30Z</time></trkpt><trkpt lat="38.788897012136985" lon="16.360854634766717"><ele>878.0</ele><time>2026-04-27T15:09:31Z</time></trkpt><trkpt lat="38.788750555256996" lon="16.3608661313084"><ele>878.0</ele><time>2026-04-27T15:09:32Z</time></trkpt><trkpt lat="38.788598692141136" lon="16.360858607607323"><ele>878.0</ele><time>2026-04-27T15:09:33Z</time></trkpt><trkpt lat="38.78844282809155" lon="16.360825216845733"><ele>878.0</ele><time>2026-04-27T15:09:34Z</time></trkpt><trkpt lat="38.788287429955936" lon="16.360778613156892"><ele>878.3333333333334</ele><time>2026-04-27T15:09:35Z</time></trkpt><trkpt lat="38.78811538688365" lon="16.360730861614577"><ele>878.6666666666667</ele><time>2026-04-27T15:09:36Z</time></trkpt><trkpt lat="38.787955729536264" lon="16.360698061073762"><ele>879.0</ele><time>2026-04-27T15:09:37Z</time></trkpt><trkpt lat="38.78780362938649" lon="16.36066837008951"><ele>879.0</ele><time>2026-04-27T15:09:38Z</time></trkpt><trkpt lat="38.787655434266995" lon="16.36063618499002"><ele>879.0</ele><time>2026-04-27T15:09:39Z</time></trkpt><trkpt lat="38.78748940285952" lon="16.360596906437834"><ele>879.0</ele><time>2026-04-27T15:09:40Z</time></trkpt><trkpt lat="38.787309292363105" lon="16.360553009001972"><ele>880.3333333333333</ele><time>2026-04-27T15:09:41Z</time></trkpt><trkpt lat="38.787137388721646" lon="16.36050748818763"><ele>881.6666666666666</ele><time>2026-04-27T15:09:42Z</time></trkpt><trkpt lat="38.78696645427257" lon="16.360456686584552"><ele>883.0</ele><time>2026-04-27T15:09:43Z</time></trkpt><trkpt lat="38.78681268764371" lon="16.360408772128082"><ele>883.75</ele><time>2026-04-27T15:09:44Z</time></trkpt><trkpt lat="38.78667500901465" lon="16.360361276169733"><ele>884.5</ele><time>2026-04-27T15:09:45Z</time></trkpt><trkpt lat="38.786531465134104" lon="16.360312206919247"><ele>885.25</ele><time>2026-04-27T15:09:46Z</time></trkpt><trkpt lat="38.78638816146448" lon="16.360285236360014"><ele>886.0</ele><time>2026-04-27T15:09:47Z</time></trkpt><trkpt lat="38.7862249258221" lon="16.360282822791834"><ele>886.0</ele><time>2026-04-27T15:09:48Z</time></trkpt><trkpt lat="38.786056513629966" lon="16.360294623775708"><ele>886.0</ele><time>2026-04-27T15:09:49Z</time></trkpt><trkpt lat="38.78587910902764" lon="16.360309211257732"><ele>886.0</ele><time>2026-04-27T15:09:50Z</time></trkpt><trkpt lat="38.78570078453763" lon="16.360321942534334"><ele>885.5</ele><time>2026-04-27T15:09:51Z</time></trkpt><trkpt lat="38.78554051458944" lon="16.360329860839773"><ele>885.0</ele><time>2026-04-27T15:09:52Z</time></trkpt><trkpt lat="38.78539410758594" lon="16.36032627062436"><ele>884.5</ele><time>2026-04-27T15:09:53Z</time></trkpt><trkpt lat="38.785254978614276" lon="16.360317330571863"><ele>884.0</ele><time>2026-04-27T15:09:54Z</time></trkpt><trkpt lat="38.785109059666155" lon="16.360298739147527"><ele>883.0</ele><time>2026-04-27T15:09:55Z</time></trkpt><trkpt lat="38.784956034887095" lon="16.360264394633003"><ele>882.0</ele><time>2026-04-27T15:09:56Z</time></trkpt><trkpt lat="38.784790864132965" lon="16.360209221060895"><ele>881.0</ele><time>2026-04-27T15:09:57Z</time></trkpt><trkpt lat="38.78462902651953" lon="16.360147627950987"><ele>881.0</ele><time>2026-04-27T15:09:58Z</time></trkpt><trkpt lat="38.78446962571735" lon="16.36008572604246"><ele>881.0</ele><time>2026-04-27T15:09:59Z</time></trkpt><trkpt lat="38.78431741727151" lon="16.360019755688786"><ele>881.0</ele><time>2026-04-27T15:10:00Z</time></trkpt><trkpt lat="38.78414847059481" lon="16.35993306627285"><ele>880.0</ele><time>2026-04-27T15:10:01Z</time></trkpt><trkpt lat="38.78397970190684" lon="16.359847908903788"><ele>879.0</ele><time>2026-04-27T15:10:02Z</time></trkpt><trkpt lat="38.78383778317993" lon="16.3597276653646"><ele>878.0</ele><time>2026-04-27T15:10:03Z</time></trkpt><trkpt lat="38.78370335792153" lon="16.359631197351053"><ele>877.75</ele><time>2026-04-27T15:10:04Z</time></trkpt><trkpt lat="38.783600795485704" lon="16.359516051337724"><ele>877.5</ele><time>2026-04-27T15:10:05Z</time></trkpt><trkpt lat="38.78349867019535" lon="16.359418599937598"><ele>877.25</ele><time>2026-04-27T15:10:06Z</time></trkpt><trkpt lat="38.78340165545647" lon="16.35930692055268"><ele>877.0</ele><time>2026-04-27T15:10:07Z</time></trkpt><trkpt lat="38.783294977590586" lon="16.359165479719813"><ele>877.0</ele><time>2026-04-27T15:10:08Z</time></trkpt><trkpt lat="38.78320833741409" lon="16.358986295298724"><ele>877.0</ele><time>2026-04-27T15:10:09Z</time></trkpt><trkpt lat="38.783125248239216" lon="16.3588027953006"><ele>877.0</ele><time>2026-04-27T15:10:10Z</time></trkpt><trkpt lat="38.78304945717775" lon="16.35862951112463"><ele>877.75</ele><time>2026-04-27T15:10:11Z</time></trkpt><trkpt lat="38.78297175086384" lon="16.358493005866475"><ele>878.5</ele><time>2026-04-27T15:10:12Z</time></trkpt><trkpt lat="38.782862756627225" lon="16.358377570317042"><ele>879.25</ele><time>2026-04-27T15:10:13Z</time></trkpt><trkpt lat="38.78272415007399" lon="16.358265018529153"><ele>880.0</ele><time>2026-04-27T15:10:14Z</time></trkpt><trkpt lat="38.78258928652762" lon="16.358115045417506"><ele>881.3333333333333</ele><time>2026-04-27T15:10:15Z</time></trkpt><trkpt lat="38.78246667535507" lon="16.357968173857024"><ele>882.6666666666667</ele><time>2026-04-27T15:10:16Z</time></trkpt><trkpt lat="38.782339444846365" lon="16.357813245414306"><ele>884.0</ele><time>2026-04-27T15:10:17Z</time></trkpt><trkpt lat="38.782230906013666" lon="16.35768309706915"><ele>884.0</ele><time>2026-04-27T15:10:18Z</time></trkpt><trkpt lat="38.7821037701144" lon="16.357557750115014"><ele>884.0</ele><time>2026-04-27T15:10:19Z</time></trkpt><trkpt lat="38.78192998282675" lon="16.35742786913765"><ele>884.0</ele><time>2026-04-27T15:10:20Z</time></trkpt><trkpt lat="38.781745811782095" lon="16.357283279270806"><ele>882.6666666666667</ele><time>2026-04-27T15:10:21Z</time></trkpt><trkpt lat="38.78158674979798" lon="16.35714368586022"><ele>881.3333333333333</ele><time>2026-04-27T15:10:22Z</time></trkpt><trkpt lat="38.78142109269974" lon="16.357043895917666"><ele>880.0</ele><time>2026-04-27T15:10:23Z</time></trkpt><trkpt lat="38.78125896990962" lon="16.356953345055228"><ele>880.0</ele><time>2026-04-27T15:10:24Z</time></trkpt><trkpt lat="38.78110381822666" lon="16.356864227036425"><ele>880.0</ele><time>2026-04-27T15:10:25Z</time></trkpt><trkpt lat="38.7809587585453" lon="16.3567727732122"><ele>880.0</ele><time>2026-04-27T15:10:26Z</time></trkpt><trkpt lat="38.78081685347766" lon="16.35668330824682"><ele>882.3333333333333</ele><time>2026-04-27T15:10:27Z</time></trkpt><trkpt lat="38.78068617629407" lon="16.356602291348175"><ele>884.6666666666667</ele><time>2026-04-27T15:10:28Z</time></trkpt><trkpt lat="38.780534586600176" lon="16.356520687960582"><ele>887.0</ele><time>2026-04-27T15:10:29Z</time></trkpt><trkpt lat="38.780381486036774" lon="16.356458761980424"><ele>887.0</ele><time>2026-04-27T15:10:30Z</time></trkpt><trkpt lat="38.78020690840079" lon="16.356406032481956"><ele>887.0</ele><time>2026-04-27T15:10:31Z</time></trkpt><trkpt lat="38.78003160003531" lon="16.356356440669227"><ele>887.0</ele><time>2026-04-27T15:10:32Z</time></trkpt><trkpt lat="38.779879669605734" lon="16.356331920118173"><ele>885.75</ele><time>2026-04-27T15:10:33Z</time></trkpt><trkpt lat="38.779737296595265" lon="16.356286076315406"><ele>884.5</ele><time>2026-04-27T15:10:34Z</time></trkpt><trkpt lat="38.77958675463756" lon="16.356250334564056"><ele>883.25</ele><time>2026-04-27T15:10:35Z</time></trkpt><trkpt lat="38.77944262936221" lon="16.356216116273178"><ele>882.0</ele><time>2026-04-27T15:10:36Z</time></trkpt><trkpt lat="38.77926659189532" lon="16.35617432136407"><ele>882.0</ele><time>2026-04-27T15:10:37Z</time></trkpt><trkpt lat="38.77909596648673" lon="16.35616064676746"><ele>882.0</ele><time>2026-04-27T15:10:38Z</time></trkpt><trkpt lat="38.778935952837315" lon="16.356126610266028"><ele>882.0</ele><time>2026-04-27T15:10:39Z</time></trkpt><trkpt lat="38.77878953122615" lon="16.35611361314986"><ele>882.0</ele><time>2026-04-27T15:10:40Z</time></trkpt><trkpt lat="38.77864857418029" lon="16.356111799653316"><ele>882.0</ele><time>2026-04-27T15:10:41Z</time></trkpt><trkpt lat="38.77850730302198" lon="16.35610995080614"><ele>882.0</ele><time>2026-04-27T15:10:42Z</time></trkpt><trkpt lat="38.77835179399018" lon="16.356122921906152"><ele>882.0</ele><time>2026-04-27T15:10:43Z</time></trkpt><trkpt lat="38.77818861718037" lon="16.356146230295522"><ele>883.0</ele><time>2026-04-27T15:10:44Z</time></trkpt><trkpt lat="38.778017663963325" lon="16.356150806714354"><ele>884.0</ele><time>2026-04-27T15:10:45Z</time></trkpt><trkpt lat="38.7778420504732" lon="16.356164188249604"><ele>885.0</ele><time>2026-04-27T15:10:46Z</time></trkpt><trkpt lat="38.77767449716903" lon="16.35617360495672"><ele>886.0</ele><time>2026-04-27T15:10:47Z</time></trkpt><trkpt lat="38.77750668460378" lon="16.3561931943032"><ele>887.0</ele><time>2026-04-27T15:10:47.999Z</time></trkpt><trkpt lat="38.7773404590652" lon="16.35622807570847"><ele>888.0</ele><time>2026-04-27T15:10:48.999Z</time></trkpt><trkpt lat="38.77715523576038" lon="16.356272414529702"><ele>888.0</ele><time>2026-04-27T15:10:49.999Z</time></trkpt><trkpt lat="38.77698951375861" lon="16.35630814586492"><ele>888.0</ele><time>2026-04-27T15:10:50.999Z</time></trkpt><trkpt lat="38.77685010791724" lon="16.35634889830289"><ele>888.0</ele><time>2026-04-27T15:10:51.999Z</time></trkpt><trkpt lat="38.77671579193774" lon="16.356402722790424"><ele>889.6666666666667</ele><time>2026-04-27T15:10:52.999Z</time></trkpt><trkpt lat="38.77657894437942" lon="16.356477076893906"><ele>891.3333333333334</ele><time>2026-04-27T15:10:53.999Z</time></trkpt><trkpt lat="38.776427277250754" lon="16.356549974322125"><ele>893.0</ele><time>2026-04-27T15:10:54.999Z</time></trkpt><trkpt lat="38.776272059354014" lon="16.356629952304946"><ele>893.0</ele><time>2026-04-27T15:10:55.999Z</time></trkpt><trkpt lat="38.77611145537384" lon="16.35671499451239"><ele>893.0</ele><time>2026-04-27T15:10:56.999Z</time></trkpt><trkpt lat="38.7759372004226" lon="16.35680215383079"><ele>893.0</ele><time>2026-04-27T15:10:57.999Z</time></trkpt><trkpt lat="38.7757698210118" lon="16.356882439741053"><ele>893.6666666666667</ele><time>2026-04-27T15:10:58.999Z</time></trkpt><trkpt lat="38.775601994248206" lon="16.356972067026824"><ele>894.3333333333333</ele><time>2026-04-27T15:10:59.999Z</time></trkpt><trkpt lat="38.775453097581135" lon="16.357062973213136"><ele>895.0</ele><time>2026-04-27T15:11:00.999Z</time></trkpt><trkpt lat="38.7753155994578" lon="16.357172570651294"><ele>897.0</ele><time>2026-04-27T15:11:01.999Z</time></trkpt><trkpt lat="38.77516563753249" lon="16.357293212936586"><ele>899.0</ele><time>2026-04-27T15:11:03Z</time></trkpt><trkpt lat="38.77501530892619" lon="16.357420194987238"><ele>901.0</ele><time>2026-04-27T15:11:04Z</time></trkpt><trkpt lat="38.7748609503225" lon="16.35754536721513"><ele>901.0</ele><time>2026-04-27T15:11:05Z</time></trkpt><trkpt lat="38.77469345983293" lon="16.357668027127716"><ele>901.0</ele><time>2026-04-27T15:11:06Z</time></trkpt><trkpt lat="38.774538245440084" lon="16.357794877988255"><ele>901.0</ele><time>2026-04-27T15:11:07Z</time></trkpt><trkpt lat="38.77438525958871" lon="16.357899056331053"><ele>901.3333333333333</ele><time>2026-04-27T15:11:08Z</time></trkpt><trkpt lat="38.77423721868812" lon="16.358015709006498"><ele>901.6666666666667</ele><time>2026-04-27T15:11:09Z</time></trkpt><trkpt lat="38.77408083841855" lon="16.358108313171734"><ele>902.0</ele><time>2026-04-27T15:11:10Z</time></trkpt><trkpt lat="38.7739262173625" lon="16.358194101632026"><ele>903.0</ele><time>2026-04-27T15:11:11Z</time></trkpt><trkpt lat="38.77377798339151" lon="16.35826895386316"><ele>904.0</ele><time>2026-04-27T15:11:12Z</time></trkpt><trkpt lat="38.77362242183764" lon="16.358338071351756"><ele>905.0</ele><time>2026-04-27T15:11:13Z</time></trkpt><trkpt lat="38.773470089689596" lon="16.35841715550971"><ele>905.0</ele><time>2026-04-27T15:11:14Z</time></trkpt><trkpt lat="38.77333385798766" lon="16.35850405506432"><ele>905.0</ele><time>2026-04-27T15:11:15Z</time></trkpt><trkpt lat="38.77321692917921" lon="16.358613196767227"><ele>905.0</ele><time>2026-04-27T15:11:16Z</time></trkpt><trkpt lat="38.773124529954565" lon="16.35873126101966"><ele>905.0</ele><time>2026-04-27T15:11:17Z</time></trkpt><trkpt lat="38.7730331262379" lon="16.35888805143794"><ele>906.3333333333334</ele><time>2026-04-27T15:11:18Z</time></trkpt><trkpt lat="38.77293554099237" lon="16.35906823946565"><ele>907.6666666666667</ele><time>2026-04-27T15:11:19Z</time></trkpt><trkpt lat="38.772836382822184" lon="16.359246019524747"><ele>909.0</ele><time>2026-04-27T15:11:20Z</time></trkpt><trkpt lat="38.77274149466793" lon="16.359400310700966"><ele>910.0</ele><time>2026-04-27T15:11:21Z</time></trkpt><trkpt lat="38.772646780699056" lon="16.35953724437722"><ele>911.0</ele><time>2026-04-27T15:11:22Z</time></trkpt><trkpt lat="38.77253916625926" lon="16.35965760076265"><ele>912.0</ele><time>2026-04-27T15:11:23Z</time></trkpt><trkpt lat="38.77243880614773" lon="16.359756622388563"><ele>913.0</ele><time>2026-04-27T15:11:24Z</time></trkpt><trkpt lat="38.7723314513186" lon="16.359849825779094"><ele>913.0</ele><time>2026-04-27T15:11:25Z</time></trkpt><trkpt lat="38.77221301182643" lon="16.359931309066457"><ele>913.0</ele><time>2026-04-27T15:11:26Z</time></trkpt><trkpt lat="38.77204782162424" lon="16.360017427122365"><ele>913.0</ele><time>2026-04-27T15:11:27Z</time></trkpt><trkpt lat="38.77189147662309" lon="16.360120378185595"><ele>912.0</ele><time>2026-04-27T15:11:28Z</time></trkpt><trkpt lat="38.77173606454984" lon="16.36020900456881"><ele>911.0</ele><time>2026-04-27T15:11:29Z</time></trkpt><trkpt lat="38.77159275653604" lon="16.36027586657669"><ele>910.0</ele><time>2026-04-27T15:11:30Z</time></trkpt><trkpt lat="38.771445137406744" lon="16.360338317920494"><ele>910.0</ele><time>2026-04-27T15:11:31Z</time></trkpt><trkpt lat="38.771290368665724" lon="16.360372112259125"><ele>910.0</ele><time>2026-04-27T15:11:32Z</time></trkpt><trkpt lat="38.77113680122162" lon="16.360372415339327"><ele>910.0</ele><time>2026-04-27T15:11:33Z</time></trkpt><trkpt lat="38.77096090971868" lon="16.36035204568506"><ele>910.0</ele><time>2026-04-27T15:11:34Z</time></trkpt><trkpt lat="38.77077962705816" lon="16.36033727585702"><ele>910.0</ele><time>2026-04-27T15:11:35Z</time></trkpt><trkpt lat="38.770617693029706" lon="16.360328998706944"><ele>910.0</ele><time>2026-04-27T15:11:36Z</time></trkpt><trkpt lat="38.770470008053" lon="16.360341159974475"><ele>910.0</ele><time>2026-04-27T15:11:37Z</time></trkpt><trkpt lat="38.770340437891946" lon="16.360364116500023"><ele>910.0</ele><time>2026-04-27T15:11:38Z</time></trkpt><trkpt lat="38.770205365380896" lon="16.360396247694997"><ele>910.0</ele><time>2026-04-27T15:11:39Z</time></trkpt><trkpt lat="38.770096861365104" lon="16.36043554120024"><ele>910.0</ele><time>2026-04-27T15:11:40Z</time></trkpt><trkpt lat="38.769979350791374" lon="16.36052583791213"><ele>912.0</ele><time>2026-04-27T15:11:41Z</time></trkpt><trkpt lat="38.769852392575345" lon="16.3606501443007"><ele>914.0</ele><time>2026-04-27T15:11:42Z</time></trkpt><trkpt lat="38.769707276045395" lon="16.360787972391048"><ele>916.0</ele><time>2026-04-27T15:11:43Z</time></trkpt><trkpt lat="38.76954708037609" lon="16.360929313816477"><ele>916.0</ele><time>2026-04-27T15:11:44Z</time></trkpt><trkpt lat="38.76938653496618" lon="16.3610436758898"><ele>916.0</ele><time>2026-04-27T15:11:45Z</time></trkpt><trkpt lat="38.76924559969839" lon="16.361144848962716"><ele>916.0</ele><time>2026-04-27T15:11:46Z</time></trkpt><trkpt lat="38.769093262998254" lon="16.361250572410494"><ele>916.3333333333333</ele><time>2026-04-27T15:11:47Z</time></trkpt><trkpt lat="38.768941142483776" lon="16.361348689871164"><ele>916.6666666666667</ele><time>2026-04-27T15:11:48Z</time></trkpt><trkpt lat="38.76879542434143" lon="16.361447097230016"><ele>917.0</ele><time>2026-04-27T15:11:49Z</time></trkpt><trkpt lat="38.76863388900899" lon="16.361566207620836"><ele>917.6666666666667</ele><time>2026-04-27T15:11:50Z</time></trkpt><trkpt lat="38.76847446171348" lon="16.36166642981425"><ele>918.3333333333333</ele><time>2026-04-27T15:11:51Z</time></trkpt><trkpt lat="38.76832325252443" lon="16.361757398703485"><ele>919.0</ele><time>2026-04-27T15:11:52Z</time></trkpt><trkpt lat="38.76816918020611" lon="16.361842486957517"><ele>919.0</ele><time>2026-04-27T15:11:53Z</time></trkpt><trkpt lat="38.76802272455727" lon="16.361910745606696"><ele>919.0</ele><time>2026-04-27T15:11:54Z</time></trkpt><trkpt lat="38.767881756836104" lon="16.36198119227122"><ele>919.0</ele><time>2026-04-27T15:11:55Z</time></trkpt><trkpt lat="38.76772597302598" lon="16.362033611917653"><ele>917.3333333333333</ele><time>2026-04-27T15:11:56Z</time></trkpt><trkpt lat="38.76756562615506" lon="16.36208750403245"><ele>915.6666666666667</ele><time>2026-04-27T15:11:57Z</time></trkpt><trkpt lat="38.767406952484734" lon="16.362139204825144"><ele>914.0</ele><time>2026-04-27T15:11:58Z</time></trkpt><trkpt lat="38.76724799640376" lon="16.36218846997576"><ele>913.0</ele><time>2026-04-27T15:11:59Z</time></trkpt><trkpt lat="38.767084279539375" lon="16.362271890547305"><ele>912.0</ele><time>2026-04-27T15:12:00Z</time></trkpt><trkpt lat="38.76691810076464" lon="16.362347354600946"><ele>911.0</ele><time>2026-04-27T15:12:01Z</time></trkpt><trkpt lat="38.76674014662063" lon="16.362412209473753"><ele>911.0</ele><time>2026-04-27T15:12:02Z</time></trkpt><trkpt lat="38.766578389736615" lon="16.362461333220296"><ele>911.0</ele><time>2026-04-27T15:12:03Z</time></trkpt><trkpt lat="38.76641870478206" lon="16.36247873809189"><ele>911.0</ele><time>2026-04-27T15:12:04Z</time></trkpt><trkpt lat="38.76625596893202" lon="16.36248897393648"><ele>911.0</ele><time>2026-04-27T15:12:05Z</time></trkpt><trkpt lat="38.76610730760691" lon="16.36249973701734"><ele>911.0</ele><time>2026-04-27T15:12:06Z</time></trkpt><trkpt lat="38.765969895828" lon="16.362498895599717"><ele>911.0</ele><time>2026-04-27T15:12:07Z</time></trkpt><trkpt lat="38.76583299499416" lon="16.36248487466033"><ele>911.0</ele><time>2026-04-27T15:12:08Z</time></trkpt><trkpt lat="38.76569869410267" lon="16.362461830521653"><ele>910.0</ele><time>2026-04-27T15:12:09Z</time></trkpt><trkpt lat="38.76556479807151" lon="16.362410047493924"><ele>909.0</ele><time>2026-04-27T15:12:10Z</time></trkpt><trkpt lat="38.76541699001932" lon="16.362333529988458"><ele>908.0</ele><time>2026-04-27T15:12:11Z</time></trkpt><trkpt lat="38.765264698637324" lon="16.36225468011631"><ele>905.25</ele><time>2026-04-27T15:12:12Z</time></trkpt><trkpt lat="38.765128331799175" lon="16.36218398301026"><ele>902.5</ele><time>2026-04-27T15:12:13Z</time></trkpt><trkpt lat="38.7649873885426" lon="16.36212375694674"><ele>899.75</ele><time>2026-04-27T15:12:14Z</time></trkpt><trkpt lat="38.764839595594765" lon="16.362075558242037"><ele>897.0</ele><time>2026-04-27T15:12:15Z</time></trkpt><trkpt lat="38.76470836250744" lon="16.362045721825424"><ele>897.0</ele><time>2026-04-27T15:12:16Z</time></trkpt><trkpt lat="38.76458191127641" lon="16.362030801543217"><ele>897.0</ele><time>2026-04-27T15:12:17Z</time></trkpt><trkpt lat="38.76445230918917" lon="16.362023804510837"><ele>897.0</ele><time>2026-04-27T15:12:18Z</time></trkpt><trkpt lat="38.7643198873208" lon="16.3620250352802"><ele>897.0</ele><time>2026-04-27T15:12:19Z</time></trkpt><trkpt lat="38.76418082502111" lon="16.362024482408863"><ele>897.25</ele><time>2026-04-27T15:12:20Z</time></trkpt><trkpt lat="38.76405293877801" lon="16.3620439819969"><ele>897.5</ele><time>2026-04-27T15:12:21Z</time></trkpt><trkpt lat="38.7639420687318" lon="16.362088452670427"><ele>897.75</ele><time>2026-04-27T15:12:22Z</time></trkpt><trkpt lat="38.76384129840184" lon="16.362160214068385"><ele>898.0</ele><time>2026-04-27T15:12:23Z</time></trkpt><trkpt lat="38.76373690055644" lon="16.36228873794111"><ele>899.0</ele><time>2026-04-27T15:12:24Z</time></trkpt><trkpt lat="38.76362715297865" lon="16.362420961059378"><ele>900.0</ele><time>2026-04-27T15:12:25Z</time></trkpt><trkpt lat="38.76352212272801" lon="16.36252553774702"><ele>901.0</ele><time>2026-04-27T15:12:26Z</time></trkpt><trkpt lat="38.76342707275487" lon="16.362633200632388"><ele>902.0</ele><time>2026-04-27T15:12:27Z</time></trkpt><trkpt lat="38.763339609554635" lon="16.362766002755777"><ele>899.25</ele><time>2026-04-27T15:12:28Z</time></trkpt><trkpt lat="38.76326072997484" lon="16.362915278663934"><ele>896.5</ele><time>2026-04-27T15:12:29Z</time></trkpt><trkpt lat="38.7632028935261" lon="16.363056841587696"><ele>893.75</ele><time>2026-04-27T15:12:30Z</time></trkpt><trkpt lat="38.76313367012172" lon="16.36318562706494"><ele>891.0</ele><time>2026-04-27T15:12:31Z</time></trkpt><trkpt lat="38.763084821171155" lon="16.36328011796933"><ele>890.1999999999999</ele><time>2026-04-27T15:12:32Z</time></trkpt><trkpt lat="38.76302930997392" lon="16.36336110639405"><ele>889.3999999999999</ele><time>2026-04-27T15:12:33Z</time></trkpt><trkpt lat="38.76298455859428" lon="16.363443910721966"><ele>888.6</ele><time>2026-04-27T15:12:34Z</time></trkpt><trkpt lat="38.7629271637223" lon="16.363530202239684"><ele>887.8</ele><time>2026-04-27T15:12:35Z</time></trkpt><trkpt lat="38.76284316806054" lon="16.36362924681313"><ele>887.0</ele><time>2026-04-27T15:12:36Z</time></trkpt><trkpt lat="38.76269998338605" lon="16.363746268405023"><ele>883.0</ele><time>2026-04-27T15:12:37Z</time></trkpt><trkpt lat="38.76258442709955" lon="16.36388012746058"><ele>879.0</ele><time>2026-04-27T15:12:38Z</time></trkpt><trkpt lat="38.762458664657075" lon="16.36400190960885"><ele>875.0</ele><time>2026-04-27T15:12:39Z</time></trkpt><trkpt lat="38.76232199731984" lon="16.36413341881045"><ele>875.0</ele><time>2026-04-27T15:12:40Z</time></trkpt><trkpt lat="38.7622150346086" lon="16.36423553750611"><ele>875.0</ele><time>2026-04-27T15:12:41Z</time></trkpt><trkpt lat="38.762150443655884" lon="16.36429222642306"><ele>875.0</ele><time>2026-04-27T15:12:42Z</time></trkpt><trkpt lat="38.76205652025941" lon="16.364333381323107"><ele>875.0</ele><time>2026-04-27T15:12:44Z</time></trkpt><trkpt lat="38.761987108980705" lon="16.36433755759288"><ele>875.0</ele><time>2026-04-27T15:12:45Z</time></trkpt><trkpt lat="38.76189430387686" lon="16.364369524502052"><ele>874.6</ele><time>2026-04-27T15:12:46Z</time></trkpt><trkpt lat="38.76178186373533" lon="16.364415006349365"><ele>874.2</ele><time>2026-04-27T15:12:47Z</time></trkpt><trkpt lat="38.76165757631536" lon="16.364442680264197"><ele>873.8</ele><time>2026-04-27T15:12:48Z</time></trkpt><trkpt lat="38.76155476644128" lon="16.364446555962697"><ele>873.4</ele><time>2026-04-27T15:12:49Z</time></trkpt><trkpt lat="38.761460880618806" lon="16.364413481966523"><ele>873.0</ele><time>2026-04-27T15:12:50Z</time></trkpt><trkpt lat="38.76136306125251" lon="16.364350333235922"><ele>873.0</ele><time>2026-04-27T15:12:50.999Z</time></trkpt><trkpt lat="38.76126224491431" lon="16.36426293459395"><ele>873.0</ele><time>2026-04-27T15:12:51.999Z</time></trkpt><trkpt lat="38.76117349132208" lon="16.364160706889763"><ele>873.0</ele><time>2026-04-27T15:12:52.999Z</time></trkpt><trkpt lat="38.76107993078909" lon="16.364022672213615"><ele>873.0</ele><time>2026-04-27T15:12:53.999Z</time></trkpt><trkpt lat="38.760983276474" lon="16.3638813830092"><ele>874.25</ele><time>2026-04-27T15:12:54.999Z</time></trkpt><trkpt lat="38.76088595258603" lon="16.3637362071063"><ele>875.5</ele><time>2026-04-27T15:12:55.999Z</time></trkpt><trkpt lat="38.76078942179489" lon="16.36357928536022"><ele>876.75</ele><time>2026-04-27T15:12:56.999Z</time></trkpt><trkpt lat="38.76070213123927" lon="16.363439192646887"><ele>878.0</ele><time>2026-04-27T15:12:57.999Z</time></trkpt><trkpt lat="38.760616429288" lon="16.363332338569553"><ele>878.0</ele><time>2026-04-27T15:12:58.999Z</time></trkpt><trkpt lat="38.760518060548286" lon="16.36323606921982"><ele>878.0</ele><time>2026-04-27T15:12:59.999Z</time></trkpt><trkpt lat="38.7604119195632" lon="16.363173083926284"><ele>878.0</ele><time>2026-04-27T15:13:00.999Z</time></trkpt><trkpt lat="38.76028255290189" lon="16.363115759108883"><ele>878.0</ele><time>2026-04-27T15:13:01.999Z</time></trkpt><trkpt lat="38.76014159704599" lon="16.363053674886988"><ele>878.5</ele><time>2026-04-27T15:13:02.999Z</time></trkpt><trkpt lat="38.76000023449146" lon="16.363008480319948"><ele>879.0</ele><time>2026-04-27T15:13:03.999Z</time></trkpt><trkpt lat="38.759853542481274" lon="16.36298263064186"><ele>879.5</ele><time>2026-04-27T15:13:04.999Z</time></trkpt><trkpt lat="38.75972849507293" lon="16.362936009987433"><ele>880.0</ele><time>2026-04-27T15:13:05.999Z</time></trkpt><trkpt lat="38.759621679686944" lon="16.362882627646396"><ele>880.0</ele><time>2026-04-27T15:13:06.999Z</time></trkpt><trkpt lat="38.75952563247631" lon="16.362842223589197"><ele>880.0</ele><time>2026-04-27T15:13:07.999Z</time></trkpt><trkpt lat="38.75943590861301" lon="16.362794045834804"><ele>880.0</ele><time>2026-04-27T15:13:09Z</time></trkpt><trkpt lat="38.759356321021386" lon="16.362737533973085"><ele>880.0</ele><time>2026-04-27T15:13:10Z</time></trkpt><trkpt lat="38.75929543733034" lon="16.362628880619575"><ele>880.0</ele><time>2026-04-27T15:13:11Z</time></trkpt><trkpt lat="38.759279496167714" lon="16.362476043656365"><ele>881.8</ele><time>2026-04-27T15:13:12Z</time></trkpt><trkpt lat="38.75924109997587" lon="16.36231715518092"><ele>883.6</ele><time>2026-04-27T15:13:13Z</time></trkpt><trkpt lat="38.75919852094694" lon="16.362194765551347"><ele>885.4000000000001</ele><time>2026-04-27T15:13:14Z</time></trkpt><trkpt lat="38.75913250474821" lon="16.362120753540225"><ele>887.2</ele><time>2026-04-27T15:13:15Z</time></trkpt><trkpt lat="38.75902309452706" lon="16.362051476411896"><ele>889.0</ele><time>2026-04-27T15:13:16Z</time></trkpt><trkpt lat="38.758892139106784" lon="16.361978930195306"><ele>889.0</ele><time>2026-04-27T15:13:17Z</time></trkpt><trkpt lat="38.758743496785506" lon="16.36191231708259"><ele>889.0</ele><time>2026-04-27T15:13:18Z</time></trkpt><trkpt lat="38.75859519584385" lon="16.361850919967818"><ele>889.0</ele><time>2026-04-27T15:13:19Z</time></trkpt><trkpt lat="38.75845193294782" lon="16.361790111280964"><ele>890.5</ele><time>2026-04-27T15:13:20Z</time></trkpt><trkpt lat="38.75832338724289" lon="16.361727502221214"><ele>892.0</ele><time>2026-04-27T15:13:21Z</time></trkpt><trkpt lat="38.75820452095713" lon="16.361651863833398"><ele>893.5</ele><time>2026-04-27T15:13:22Z</time></trkpt><trkpt lat="38.75809261061276" lon="16.361573178340144"><ele>895.0</ele><time>2026-04-27T15:13:23Z</time></trkpt><trkpt lat="38.757993782885976" lon="16.361504546003616"><ele>895.0</ele><time>2026-04-27T15:13:24Z</time></trkpt><trkpt lat="38.75788668224146" lon="16.361426033619573"><ele>895.0</ele><time>2026-04-27T15:13:25Z</time></trkpt><trkpt lat="38.75777505903443" lon="16.361356015314126"><ele>895.0</ele><time>2026-04-27T15:13:26Z</time></trkpt><trkpt lat="38.757673178896844" lon="16.361280103096"><ele>895.0</ele><time>2026-04-27T15:13:27Z</time></trkpt><trkpt lat="38.757549959991564" lon="16.36120754039812"><ele>893.25</ele><time>2026-04-27T15:13:28Z</time></trkpt><trkpt lat="38.75742966027354" lon="16.3611301554081"><ele>891.5</ele><time>2026-04-27T15:13:29Z</time></trkpt><trkpt lat="38.75731218791452" lon="16.361060313764224"><ele>889.75</ele><time>2026-04-27T15:13:30Z</time></trkpt><trkpt lat="38.75720710487703" lon="16.36096821340685"><ele>888.0</ele><time>2026-04-27T15:13:31Z</time></trkpt><trkpt lat="38.7571076368354" lon="16.360843320718345"><ele>888.0</ele><time>2026-04-27T15:13:32Z</time></trkpt><trkpt lat="38.75701279578012" lon="16.360720953379584"><ele>888.0</ele><time>2026-04-27T15:13:33Z</time></trkpt><trkpt lat="38.75691653747962" lon="16.360582661777936"><ele>888.0</ele><time>2026-04-27T15:13:34Z</time></trkpt><trkpt lat="38.75680247742494" lon="16.360431672478978"><ele>888.0</ele><time>2026-04-27T15:13:35Z</time></trkpt><trkpt lat="38.756666067189826" lon="16.360288215844392"><ele>888.8</ele><time>2026-04-27T15:13:36Z</time></trkpt><trkpt lat="38.756552080607314" lon="16.360191799766568"><ele>889.5999999999999</ele><time>2026-04-27T15:13:37Z</time></trkpt><trkpt lat="38.75644743933225" lon="16.36012326250466"><ele>890.4000000000001</ele><time>2026-04-27T15:13:38Z</time></trkpt><trkpt lat="38.75636474299749" lon="16.36007901492263"><ele>891.2</ele><time>2026-04-27T15:13:39Z</time></trkpt><trkpt lat="38.756267391558055" lon="16.360069537740273"><ele>892.0</ele><time>2026-04-27T15:13:40Z</time></trkpt><trkpt lat="38.75618448125226" lon="16.360102853246303"><ele>892.0</ele><time>2026-04-27T15:13:41Z</time></trkpt><trkpt lat="38.75611582028458" lon="16.360181107119665"><ele>892.0</ele><time>2026-04-27T15:13:42Z</time></trkpt><trkpt lat="38.756075848767836" lon="16.360295543853123"><ele>892.0</ele><time>2026-04-27T15:13:43Z</time></trkpt><trkpt lat="38.75604515021904" lon="16.360414581181892"><ele>892.0</ele><time>2026-04-27T15:13:44Z</time></trkpt><trkpt lat="38.756036573346805" lon="16.360547630852068"><ele>892.0</ele><time>2026-04-27T15:13:45Z</time></trkpt><trkpt lat="38.75604480721063" lon="16.36068534555604"><ele>895.25</ele><time>2026-04-27T15:13:46Z</time></trkpt><trkpt lat="38.75605279609" lon="16.360830069148786"><ele>898.5</ele><time>2026-04-27T15:13:47Z</time></trkpt><trkpt lat="38.75607756496453" lon="16.36097608374178"><ele>901.75</ele><time>2026-04-27T15:13:48Z</time></trkpt><trkpt lat="38.75611080390215" lon="16.361132741182118"><ele>905.0</ele><time>2026-04-27T15:13:49Z</time></trkpt><trkpt lat="38.756169682202525" lon="16.36126793303495"><ele>908.75</ele><time>2026-04-27T15:13:50Z</time></trkpt><trkpt lat="38.75624408079141" lon="16.361434748247884"><ele>912.5</ele><time>2026-04-27T15:13:51Z</time></trkpt><trkpt lat="38.75631046142573" lon="16.361569417065517"><ele>916.25</ele><time>2026-04-27T15:13:52Z</time></trkpt><trkpt lat="38.756354804714526" lon="16.361685241339412"><ele>920.0</ele><time>2026-04-27T15:13:53Z</time></trkpt><trkpt lat="38.756377345683156" lon="16.361808990309914"><ele>920.0</ele><time>2026-04-27T15:13:54Z</time></trkpt><trkpt lat="38.75635848723717" lon="16.361935560042184"><ele>920.0</ele><time>2026-04-27T15:13:55Z</time></trkpt><trkpt lat="38.756323496719865" lon="16.36208551348266"><ele>920.0</ele><time>2026-04-27T15:13:56Z</time></trkpt><trkpt lat="38.75628786327286" lon="16.362235719132283"><ele>920.0</ele><time>2026-04-27T15:13:57Z</time></trkpt><trkpt lat="38.75628576416486" lon="16.36243127632007"><ele>922.5</ele><time>2026-04-27T15:13:58Z</time></trkpt><trkpt lat="38.75631107855817" lon="16.362619597973513"><ele>925.0</ele><time>2026-04-27T15:13:59Z</time></trkpt><trkpt lat="38.75632520911328" lon="16.362795936529775"><ele>927.5</ele><time>2026-04-27T15:14:00Z</time></trkpt><trkpt lat="38.756341247734404" lon="16.362962058683443"><ele>930.0</ele><time>2026-04-27T15:14:01Z</time></trkpt><trkpt lat="38.756340659029455" lon="16.363149937278852"><ele>932.3333333333333</ele><time>2026-04-27T15:14:02Z</time></trkpt><trkpt lat="38.75632171466395" lon="16.363356929386033"><ele>934.6666666666666</ele><time>2026-04-27T15:14:03Z</time></trkpt><trkpt lat="38.756277846665974" lon="16.363559949020612"><ele>937.0</ele><time>2026-04-27T15:14:04Z</time></trkpt><trkpt lat="38.75620605973575" lon="16.363766138714137"><ele>939.6666666666666</ele><time>2026-04-27T15:14:05Z</time></trkpt><trkpt lat="38.75613920524899" lon="16.36400308834328"><ele>942.3333333333333</ele><time>2026-04-27T15:14:06Z</time></trkpt><trkpt lat="38.756077399114815" lon="16.36418722159207"><ele>945.0</ele><time>2026-04-27T15:14:07Z</time></trkpt><trkpt lat="38.75602782313924" lon="16.36433722409046"><ele>948.6666666666667</ele><time>2026-04-27T15:14:08Z</time></trkpt><trkpt lat="38.75597677306105" lon="16.364528058822657"><ele>952.3333333333334</ele><time>2026-04-27T15:14:09Z</time></trkpt><trkpt lat="38.75592411288956" lon="16.36470933655038"><ele>956.0</ele><time>2026-04-27T15:14:10Z</time></trkpt><trkpt lat="38.75587569317846" lon="16.36490033194385"><ele>957.6666666666667</ele><time>2026-04-27T15:14:11Z</time></trkpt><trkpt lat="38.75583847842514" lon="16.36509713865379"><ele>959.3333333333333</ele><time>2026-04-27T15:14:12Z</time></trkpt><trkpt lat="38.75582947273099" lon="16.365284451226504"><ele>961.0</ele><time>2026-04-27T15:14:13Z</time></trkpt><trkpt lat="38.75582310243891" lon="16.365477138726817"><ele>963.0</ele><time>2026-04-27T15:14:14Z</time></trkpt><trkpt lat="38.75580292974368" lon="16.365648271104714"><ele>965.0</ele><time>2026-04-27T15:14:15Z</time></trkpt><trkpt lat="38.75577341974141" lon="16.365823718611505"><ele>967.0</ele><time>2026-04-27T15:14:16Z</time></trkpt><trkpt lat="38.755728653815645" lon="16.365975602540864"><ele>969.0</ele><time>2026-04-27T15:14:17Z</time></trkpt><trkpt lat="38.755651259924164" lon="16.366118409644006"><ele>969.0</ele><time>2026-04-27T15:14:18Z</time></trkpt><trkpt lat="38.75554668701436" lon="16.366264496486657"><ele>969.0</ele><time>2026-04-27T15:14:19Z</time></trkpt><trkpt lat="38.755429669615346" lon="16.366406535092977"><ele>969.0</ele><time>2026-04-27T15:14:20Z</time></trkpt><trkpt lat="38.7553116078509" lon="16.366541290312448"><ele>972.0</ele><time>2026-04-27T15:14:21Z</time></trkpt><trkpt lat="38.75519877523982" lon="16.366678434231584"><ele>975.0</ele><time>2026-04-27T15:14:22Z</time></trkpt><trkpt lat="38.755060357073745" lon="16.36684315302004"><ele>978.0</ele><time>2026-04-27T15:14:23Z</time></trkpt><trkpt lat="38.754922773524214" lon="16.367010935798962"><ele>978.0</ele><time>2026-04-27T15:14:24Z</time></trkpt><trkpt lat="38.754786142997396" lon="16.36715150643365"><ele>978.0</ele><time>2026-04-27T15:14:25Z</time></trkpt><trkpt lat="38.754657693623685" lon="16.367295523458665"><ele>978.0</ele><time>2026-04-27T15:14:26Z</time></trkpt><trkpt lat="38.75452445423472" lon="16.367418357336007"><ele>977.6666666666667</ele><time>2026-04-27T15:14:27Z</time></trkpt><trkpt lat="38.75438407891417" lon="16.36754284384067"><ele>977.3333333333334</ele><time>2026-04-27T15:14:28Z</time></trkpt><trkpt lat="38.75426017741419" lon="16.367699867342306"><ele>977.0</ele><time>2026-04-27T15:14:29Z</time></trkpt><trkpt lat="38.754151705702675" lon="16.367848472849786"><ele>977.0</ele><time>2026-04-27T15:14:30Z</time></trkpt><trkpt lat="38.75403296957549" lon="16.367974803356624"><ele>977.0</ele><time>2026-04-27T15:14:31Z</time></trkpt><trkpt lat="38.75390506337576" lon="16.36807788204708"><ele>977.0</ele><time>2026-04-27T15:14:32Z</time></trkpt><trkpt lat="38.75375878566547" lon="16.36817621077453"><ele>978.3333333333334</ele><time>2026-04-27T15:14:33Z</time></trkpt><trkpt lat="38.753616737770706" lon="16.36826332207339"><ele>979.6666666666667</ele><time>2026-04-27T15:14:34Z</time></trkpt><trkpt lat="38.75347120688118" lon="16.36835003571014"><ele>981.0</ele><time>2026-04-27T15:14:35Z</time></trkpt><trkpt lat="38.753314988718884" lon="16.368431359031273"><ele>981.0</ele><time>2026-04-27T15:14:36Z</time></trkpt><trkpt lat="38.75317483043492" lon="16.36850717400724"><ele>981.0</ele><time>2026-04-27T15:14:37Z</time></trkpt><trkpt lat="38.753056547163" lon="16.36855208354958"><ele>981.0</ele><time>2026-04-27T15:14:38Z</time></trkpt><trkpt lat="38.752946219887036" lon="16.368571054666116"><ele>981.0</ele><time>2026-04-27T15:14:39Z</time></trkpt><trkpt lat="38.75283926755292" lon="16.36856575229224"><ele>981.0</ele><time>2026-04-27T15:14:40Z</time></trkpt><trkpt lat="38.752735298835" lon="16.36852305950761"><ele>981.0</ele><time>2026-04-27T15:14:41Z</time></trkpt><trkpt lat="38.75262632888727" lon="16.368467983219283"><ele>981.0</ele><time>2026-04-27T15:14:42Z</time></trkpt><trkpt lat="38.75250556697269" lon="16.368404072546248"><ele>981.0</ele><time>2026-04-27T15:14:43Z</time></trkpt><trkpt lat="38.75239016445497" lon="16.36831135465229"><ele>982.3333333333333</ele><time>2026-04-27T15:14:44Z</time></trkpt><trkpt lat="38.75227359488281" lon="16.36818893178774"><ele>983.6666666666666</ele><time>2026-04-27T15:14:45Z</time></trkpt><trkpt lat="38.752164186083036" lon="16.368062938154843"><ele>985.0</ele><time>2026-04-27T15:14:46Z</time></trkpt><trkpt lat="38.752047803147505" lon="16.367937617215556"><ele>985.0</ele><time>2026-04-27T15:14:47Z</time></trkpt><trkpt lat="38.75192630726199" lon="16.3678203274188"><ele>985.0</ele><time>2026-04-27T15:14:48Z</time></trkpt><trkpt lat="38.75182803942132" lon="16.36771263828659"><ele>985.0</ele><time>2026-04-27T15:14:49Z</time></trkpt><trkpt lat="38.75176073913735" lon="16.367595588955258"><ele>985.0</ele><time>2026-04-27T15:14:50Z</time></trkpt><trkpt lat="38.751706558586875" lon="16.367490881620686"><ele>988.0</ele><time>2026-04-27T15:14:51Z</time></trkpt><trkpt lat="38.75165877443963" lon="16.36741552406013"><ele>991.0</ele><time>2026-04-27T15:14:52Z</time></trkpt><trkpt lat="38.75155852760972" lon="16.367368321629346"><ele>994.0</ele><time>2026-04-27T15:14:54Z</time></trkpt><trkpt lat="38.7514774525505" lon="16.367378213954254"><ele>997.0</ele><time>2026-04-27T15:14:55Z</time></trkpt><trkpt lat="38.75138045238095" lon="16.367414556028905"><ele>1000.0</ele><time>2026-04-27T15:14:56Z</time></trkpt><trkpt lat="38.75128202060099" lon="16.367469951317243"><ele>1000.0</ele><time>2026-04-27T15:14:57Z</time></trkpt><trkpt lat="38.751195858970064" lon="16.367517217079282"><ele>1000.0</ele><time>2026-04-27T15:14:58Z</time></trkpt><trkpt lat="38.75110457334767" lon="16.36756351503251"><ele>1000.0</ele><time>2026-04-27T15:14:59Z</time></trkpt><trkpt lat="38.751018270307085" lon="16.367623005274538"><ele>1000.0</ele><time>2026-04-27T15:15:00Z</time></trkpt><trkpt lat="38.75092616970249" lon="16.367693975845473"><ele>1000.0</ele><time>2026-04-27T15:15:01Z</time></trkpt><trkpt lat="38.750835575978996" lon="16.367767145975026"><ele>1001.6</ele><time>2026-04-27T15:15:02Z</time></trkpt><trkpt lat="38.750739337745635" lon="16.367807472290163"><ele>1003.2</ele><time>2026-04-27T15:15:03Z</time></trkpt><trkpt lat="38.75064199135012" lon="16.367819637986734"><ele>1004.8</ele><time>2026-04-27T15:15:04Z</time></trkpt><trkpt lat="38.75054184022397" lon="16.367805481823897"><ele>1006.4</ele><time>2026-04-27T15:15:05Z</time></trkpt><trkpt lat="38.750432148014966" lon="16.3677520659487"><ele>1008.0</ele><time>2026-04-27T15:15:06Z</time></trkpt><trkpt lat="38.750310002071146" lon="16.367672311803844"><ele>1010.75</ele><time>2026-04-27T15:15:07Z</time></trkpt><trkpt lat="38.750185006823656" lon="16.367591205662006"><ele>1013.5</ele><time>2026-04-27T15:15:08Z</time></trkpt><trkpt lat="38.75004987294197" lon="16.367532491203956"><ele>1016.25</ele><time>2026-04-27T15:15:09Z</time></trkpt><trkpt lat="38.74992851186009" lon="16.367477445160834"><ele>1019.0</ele><time>2026-04-27T15:15:10Z</time></trkpt><trkpt lat="38.749806000155644" lon="16.36739134534889"><ele>1019.0</ele><time>2026-04-27T15:15:10.999Z</time></trkpt><trkpt lat="38.74968654410892" lon="16.36730779299525"><ele>1019.0</ele><time>2026-04-27T15:15:11.999Z</time></trkpt><trkpt lat="38.7495828734388" lon="16.36724308657756"><ele>1019.0</ele><time>2026-04-27T15:15:12.999Z</time></trkpt><trkpt lat="38.7494809026534" lon="16.367179965089846"><ele>1019.0</ele><time>2026-04-27T15:15:13.999Z</time></trkpt><trkpt lat="38.749373073852205" lon="16.367131391470572"><ele>1019.6</ele><time>2026-04-27T15:15:15.001Z</time></trkpt><trkpt lat="38.749259056402806" lon="16.36709508119967"><ele>1020.2</ele><time>2026-04-27T15:15:16.001Z</time></trkpt><trkpt lat="38.749146687820456" lon="16.367077094741024"><ele>1020.8000000000001</ele><time>2026-04-27T15:15:17.001Z</time></trkpt><trkpt lat="38.74905406019755" lon="16.367078739103764"><ele>1021.4000000000001</ele><time>2026-04-27T15:15:18.001Z</time></trkpt><trkpt lat="38.74895730465133" lon="16.36710457806556"><ele>1022.0</ele><time>2026-04-27T15:15:19.001Z</time></trkpt><trkpt lat="38.74887816925598" lon="16.36715395894909"><ele>1022.2</ele><time>2026-04-27T15:15:20Z</time></trkpt><trkpt lat="38.74879408641397" lon="16.367213058405152"><ele>1022.4000000000001</ele><time>2026-04-27T15:15:21Z</time></trkpt><trkpt lat="38.74870636216075" lon="16.367285554232517"><ele>1022.5999999999999</ele><time>2026-04-27T15:15:22Z</time></trkpt><trkpt lat="38.748626720518715" lon="16.367367551365696"><ele>1022.8</ele><time>2026-04-27T15:15:23Z</time></trkpt><trkpt lat="38.748549813605955" lon="16.367465082625863"><ele>1023.0</ele><time>2026-04-27T15:15:24Z</time></trkpt><trkpt lat="38.748478364087156" lon="16.36756393241595"><ele>1020.0</ele><time>2026-04-27T15:15:25Z</time></trkpt><trkpt lat="38.74839845126953" lon="16.36767589587111"><ele>1017.0</ele><time>2026-04-27T15:15:26Z</time></trkpt><trkpt lat="38.74830249412716" lon="16.3677801793424"><ele>1014.0</ele><time>2026-04-27T15:15:27Z</time></trkpt><trkpt lat="38.748204751248274" lon="16.36787162013897"><ele>1011.0</ele><time>2026-04-27T15:15:28Z</time></trkpt><trkpt lat="38.74813315486674" lon="16.367951278237474"><ele>1012.1999999999999</ele><time>2026-04-27T15:15:29Z</time></trkpt><trkpt lat="38.74806886421497" lon="16.368047647638647"><ele>1013.3999999999999</ele><time>2026-04-27T15:15:30Z</time></trkpt><trkpt lat="38.747991586939655" lon="16.36813765419946"><ele>1014.6</ele><time>2026-04-27T15:15:31Z</time></trkpt><trkpt lat="38.747920976259635" lon="16.368243423584218"><ele>1015.8</ele><time>2026-04-27T15:15:32Z</time></trkpt><trkpt lat="38.74788265734147" lon="16.368358483770407"><ele>1017.0</ele><time>2026-04-27T15:15:33Z</time></trkpt><trkpt lat="38.747825947260026" lon="16.36847320077118"><ele>1017.0</ele><time>2026-04-27T15:15:34Z</time></trkpt><trkpt lat="38.74777815795097" lon="16.368587704392056"><ele>1017.0</ele><time>2026-04-27T15:15:35Z</time></trkpt><trkpt lat="38.747734548409476" lon="16.36869208901402"><ele>1017.0</ele><time>2026-04-27T15:15:36Z</time></trkpt><trkpt lat="38.74769389647848" lon="16.368814909398637"><ele>1017.0</ele><time>2026-04-27T15:15:37Z</time></trkpt><trkpt lat="38.74764775517998" lon="16.368927873756995"><ele>1017.0</ele><time>2026-04-27T15:15:38Z</time></trkpt><trkpt lat="38.74760464004152" lon="16.369042197644138"><ele>1011.0</ele><time>2026-04-27T15:15:39Z</time></trkpt><trkpt lat="38.74757191814706" lon="16.36915912297897"><ele>1005.0</ele><time>2026-04-27T15:15:40Z</time></trkpt><trkpt lat="38.74753637603901" lon="16.369263913460255"><ele>999.0</ele><time>2026-04-27T15:15:41Z</time></trkpt><trkpt lat="38.747506581974825" lon="16.36937765897552"><ele>993.0</ele><time>2026-04-27T15:15:42Z</time></trkpt><trkpt lat="38.74748031093717" lon="16.369481264955592"><ele>987.0</ele><time>2026-04-27T15:15:43Z</time></trkpt><trkpt lat="38.74743376104717" lon="16.369574033462303"><ele>987.0</ele><time>2026-04-27T15:15:44Z</time></trkpt><trkpt lat="38.74736703636661" lon="16.369665005380245"><ele>987.0</ele><time>2026-04-27T15:15:45Z</time></trkpt><trkpt lat="38.74727820795038" lon="16.369742601693197"><ele>987.0</ele><time>2026-04-27T15:15:46Z</time></trkpt><trkpt lat="38.74719524967375" lon="16.369786003641657"><ele>987.0</ele><time>2026-04-27T15:15:47Z</time></trkpt><trkpt lat="38.74709943821562" lon="16.369820142325967"><ele>987.0</ele><time>2026-04-27T15:15:48Z</time></trkpt><trkpt lat="38.74698238185522" lon="16.36982679189132"><ele>982.75</ele><time>2026-04-27T15:15:49Z</time></trkpt><trkpt lat="38.746856049397" lon="16.369822413782902"><ele>978.5</ele><time>2026-04-27T15:15:50Z</time></trkpt><trkpt lat="38.74673198974191" lon="16.36981677624176"><ele>974.25</ele><time>2026-04-27T15:15:51Z</time></trkpt><trkpt lat="38.74659827394574" lon="16.369822475282472"><ele>970.0</ele><time>2026-04-27T15:15:52Z</time></trkpt><trkpt lat="38.746456026014066" lon="16.369848008294255"><ele>970.0</ele><time>2026-04-27T15:15:53Z</time></trkpt><trkpt lat="38.74631304290428" lon="16.369887646794545"><ele>970.0</ele><time>2026-04-27T15:15:54Z</time></trkpt><trkpt lat="38.74617821624509" lon="16.36992156141015"><ele>970.0</ele><time>2026-04-27T15:15:55Z</time></trkpt><trkpt lat="38.74604838199888" lon="16.369953420419705"><ele>970.0</ele><time>2026-04-27T15:15:56Z</time></trkpt><trkpt lat="38.745912041773686" lon="16.369976729063563"><ele>969.25</ele><time>2026-04-27T15:15:57Z</time></trkpt><trkpt lat="38.74577678434017" lon="16.36998284405976"><ele>968.5</ele><time>2026-04-27T15:15:58Z</time></trkpt><trkpt lat="38.745627593570944" lon="16.369996135411373"><ele>967.75</ele><time>2026-04-27T15:15:59Z</time></trkpt><trkpt lat="38.74549330463762" lon="16.370003860991964"><ele>967.0</ele><time>2026-04-27T15:16:00Z</time></trkpt><trkpt lat="38.745358246143624" lon="16.370009321288148"><ele>967.0</ele><time>2026-04-27T15:16:01Z</time></trkpt><trkpt lat="38.74522014150189" lon="16.370022079349333"><ele>967.0</ele><time>2026-04-27T15:16:02Z</time></trkpt><trkpt lat="38.74506716528049" lon="16.37003243842098"><ele>967.0</ele><time>2026-04-27T15:16:03Z</time></trkpt><trkpt lat="38.74492030039908" lon="16.370050623130872"><ele>967.0</ele><time>2026-04-27T15:16:04Z</time></trkpt><trkpt lat="38.74478716252855" lon="16.370084889996207"><ele>967.25</ele><time>2026-04-27T15:16:05Z</time></trkpt><trkpt lat="38.74465136083193" lon="16.37013702866053"><ele>967.5</ele><time>2026-04-27T15:16:06Z</time></trkpt><trkpt lat="38.744521349118045" lon="16.370210766645144"><ele>967.75</ele><time>2026-04-27T15:16:07Z</time></trkpt><trkpt lat="38.74438274180386" lon="16.370312569698484"><ele>968.0</ele><time>2026-04-27T15:16:08Z</time></trkpt><trkpt lat="38.744242702214414" lon="16.37041083419646"><ele>967.5</ele><time>2026-04-27T15:16:09Z</time></trkpt><trkpt lat="38.744117226902205" lon="16.37051081592008"><ele>967.0</ele><time>2026-04-27T15:16:10Z</time></trkpt><trkpt lat="38.74399273038867" lon="16.370592554342856"><ele>966.5</ele><time>2026-04-27T15:16:11Z</time></trkpt><trkpt lat="38.74388940198719" lon="16.37065078267049"><ele>966.0</ele><time>2026-04-27T15:16:12Z</time></trkpt><trkpt lat="38.74379716935808" lon="16.370683651883276"><ele>967.0</ele><time>2026-04-27T15:16:13Z</time></trkpt><trkpt lat="38.743693172786756" lon="16.37070024070289"><ele>968.0</ele><time>2026-04-27T15:16:14Z</time></trkpt><trkpt lat="38.74357773662295" lon="16.370673149803597"><ele>969.0</ele><time>2026-04-27T15:16:15Z</time></trkpt><trkpt lat="38.743443190995585" lon="16.370627033219737"><ele>970.0</ele><time>2026-04-27T15:16:16Z</time></trkpt><trkpt lat="38.743311158850325" lon="16.370567009302217"><ele>968.25</ele><time>2026-04-27T15:16:17Z</time></trkpt><trkpt lat="38.74319817081349" lon="16.370515537132665"><ele>966.5</ele><time>2026-04-27T15:16:18Z</time></trkpt><trkpt lat="38.74308204762049" lon="16.370493098977047"><ele>964.75</ele><time>2026-04-27T15:16:19Z</time></trkpt><trkpt lat="38.742961462144116" lon="16.370473956071113"><ele>963.0</ele><time>2026-04-27T15:16:20Z</time></trkpt><trkpt lat="38.7428512759873" lon="16.370466765252342"><ele>963.0</ele><time>2026-04-27T15:16:21Z</time></trkpt><trkpt lat="38.742722322408135" lon="16.370479975787745"><ele>963.0</ele><time>2026-04-27T15:16:22Z</time></trkpt><trkpt lat="38.742583476490154" lon="16.370484363965"><ele>963.0</ele><time>2026-04-27T15:16:23Z</time></trkpt><trkpt lat="38.74246071795552" lon="16.370485627058223"><ele>963.0</ele><time>2026-04-27T15:16:24Z</time></trkpt><trkpt lat="38.74234383182439" lon="16.370463017286728"><ele>960.75</ele><time>2026-04-27T15:16:25Z</time></trkpt><trkpt lat="38.74222999864863" lon="16.370432461422613"><ele>958.5</ele><time>2026-04-27T15:16:26Z</time></trkpt><trkpt lat="38.74209872032156" lon="16.37040254093145"><ele>956.25</ele><time>2026-04-27T15:16:27Z</time></trkpt><trkpt lat="38.741988686306506" lon="16.370333360037964"><ele>954.0</ele><time>2026-04-27T15:16:28Z</time></trkpt><trkpt lat="38.7418794659621" lon="16.370259886544147"><ele>954.0</ele><time>2026-04-27T15:16:29Z</time></trkpt><trkpt lat="38.74177684750048" lon="16.370166261957408"><ele>954.0</ele><time>2026-04-27T15:16:30Z</time></trkpt><trkpt lat="38.741685238394275" lon="16.370063164256063"><ele>954.0</ele><time>2026-04-27T15:16:31Z</time></trkpt><trkpt lat="38.741615447595656" lon="16.369941184455133"><ele>954.0</ele><time>2026-04-27T15:16:32Z</time></trkpt><trkpt lat="38.741553061689025" lon="16.36979771337453"><ele>952.75</ele><time>2026-04-27T15:16:33Z</time></trkpt><trkpt lat="38.741485623107074" lon="16.36963966004479"><ele>951.5</ele><time>2026-04-27T15:16:34Z</time></trkpt><trkpt lat="38.74141211499453" lon="16.36948081959569"><ele>950.25</ele><time>2026-04-27T15:16:35Z</time></trkpt><trkpt lat="38.74133354611693" lon="16.36932105489608"><ele>949.0</ele><time>2026-04-27T15:16:36Z</time></trkpt><trkpt lat="38.74125307660171" lon="16.36917733543701"><ele>949.0</ele><time>2026-04-27T15:16:37Z</time></trkpt><trkpt lat="38.74115489307807" lon="16.36906577703226"><ele>949.0</ele><time>2026-04-27T15:16:38Z</time></trkpt><trkpt lat="38.741043934477304" lon="16.368962268734734"><ele>949.0</ele><time>2026-04-27T15:16:39Z</time></trkpt><trkpt lat="38.74093332825191" lon="16.368846276677743"><ele>949.0</ele><time>2026-04-27T15:16:40Z</time></trkpt><trkpt lat="38.74083866452839" lon="16.3687313095405"><ele>952.75</ele><time>2026-04-27T15:16:41Z</time></trkpt><trkpt lat="38.74076776560603" lon="16.368602456879643"><ele>956.5</ele><time>2026-04-27T15:16:42Z</time></trkpt><trkpt lat="38.740695481404295" lon="16.368436247698533"><ele>960.25</ele><time>2026-04-27T15:16:43Z</time></trkpt><trkpt lat="38.74059809503255" lon="16.368259062255294"><ele>964.0</ele><time>2026-04-27T15:16:44Z</time></trkpt><trkpt lat="38.740490833891556" lon="16.36807373522648"><ele>964.0</ele><time>2026-04-27T15:16:45Z</time></trkpt><trkpt lat="38.740384640638275" lon="16.367897433928984"><ele>964.0</ele><time>2026-04-27T15:16:46Z</time></trkpt><trkpt lat="38.740288878808094" lon="16.367741247449484"><ele>964.0</ele><time>2026-04-27T15:16:47Z</time></trkpt><trkpt lat="38.740202950778894" lon="16.36759554041163"><ele>964.0</ele><time>2026-04-27T15:16:48Z</time></trkpt><trkpt lat="38.74012980517394" lon="16.367440435402923"><ele>964.0</ele><time>2026-04-27T15:16:49Z</time></trkpt><trkpt lat="38.74005577025347" lon="16.367311755111473"><ele>964.0</ele><time>2026-04-27T15:16:50Z</time></trkpt><trkpt lat="38.73999085189301" lon="16.367199240601707"><ele>964.0</ele><time>2026-04-27T15:16:51Z</time></trkpt><trkpt lat="38.73991390991556" lon="16.367109213190883"><ele>964.0</ele><time>2026-04-27T15:16:52Z</time></trkpt><trkpt lat="38.73982030850031" lon="16.36703603543723"><ele>964.0000000000001</ele><time>2026-04-27T15:16:53Z</time></trkpt><trkpt lat="38.739713240929866" lon="16.36697143461813"><ele>964.0000000000001</ele><time>2026-04-27T15:16:54Z</time></trkpt><trkpt lat="38.739610171282074" lon="16.366921570210742"><ele>964.0</ele><time>2026-04-27T15:16:55Z</time></trkpt><trkpt lat="38.739543209314085" lon="16.366891292983897"><ele>964.0</ele><time>2026-04-27T15:16:56Z</time></trkpt><trkpt lat="38.739465267462585" lon="16.36684446699245"><ele>964.0</ele><time>2026-04-27T15:16:58Z</time></trkpt><trkpt lat="38.739396313205596" lon="16.36680156915937"><ele>964.0000000000001</ele><time>2026-04-27T15:17:00Z</time></trkpt><trkpt lat="38.73928980126432" lon="16.36674730898062"><ele>964.0000000000001</ele><time>2026-04-27T15:17:03Z</time></trkpt><trkpt lat="38.73921313286989" lon="16.366709760452025"><ele>964.0</ele><time>2026-04-27T15:17:04Z</time></trkpt><trkpt lat="38.73912487421881" lon="16.36665712479587"><ele>964.0</ele><time>2026-04-27T15:17:05Z</time></trkpt><trkpt lat="38.73903268950337" lon="16.366613687152157"><ele>963.4000000000001</ele><time>2026-04-27T15:17:06Z</time></trkpt><trkpt lat="38.73894977043681" lon="16.36656044130524"><ele>962.8000000000001</ele><time>2026-04-27T15:17:07Z</time></trkpt><trkpt lat="38.73885765098213" lon="16.36649872901902"><ele>962.1999999999999</ele><time>2026-04-27T15:17:08Z</time></trkpt><trkpt lat="38.738772731962776" lon="16.366456549251076"><ele>961.5999999999999</ele><time>2026-04-27T15:17:09Z</time></trkpt><trkpt lat="38.73868043313315" lon="16.366418386337163"><ele>961.0</ele><time>2026-04-27T15:17:10Z</time></trkpt><trkpt lat="38.73860039896957" lon="16.366399639452663"><ele>961.1666666666666</ele><time>2026-04-27T15:17:11Z</time></trkpt><trkpt lat="38.73852846218149" lon="16.366382569486042"><ele>961.3333333333333</ele><time>2026-04-27T15:17:12Z</time></trkpt><trkpt lat="38.73845088789455" lon="16.366367150600276"><ele>961.5</ele><time>2026-04-27T15:17:13Z</time></trkpt><trkpt lat="38.73839082418245" lon="16.36632757313585"><ele>961.6666666666667</ele><time>2026-04-27T15:17:14Z</time></trkpt><trkpt lat="38.73834142238622" lon="16.36626560536653"><ele>961.8333333333334</ele><time>2026-04-27T15:17:15Z</time></trkpt><trkpt lat="38.73827578290868" lon="16.36619367963403"><ele>962.0</ele><time>2026-04-27T15:17:16Z</time></trkpt><trkpt lat="38.73820474424117" lon="16.36613084183669"><ele>963.0</ele><time>2026-04-27T15:17:16.999Z</time></trkpt><trkpt lat="38.73810981780285" lon="16.3660534330607"><ele>964.0</ele><time>2026-04-27T15:17:17.999Z</time></trkpt><trkpt lat="38.73803727216711" lon="16.36597514334848"><ele>965.0</ele><time>2026-04-27T15:17:18.999Z</time></trkpt><trkpt lat="38.737988159078604" lon="16.36590977150959"><ele>966.0</ele><time>2026-04-27T15:17:19.999Z</time></trkpt><trkpt lat="38.73790780038044" lon="16.365841741517976"><ele>967.0</ele><time>2026-04-27T15:18:42Z</time></trkpt><trkpt lat="38.73783964495455" lon="16.365762557659856"><ele>966.9999999999999</ele><time>2026-04-27T15:18:44Z</time></trkpt><trkpt lat="38.737787147449836" lon="16.36571037726512"><ele>967.0</ele><time>2026-04-27T15:18:46Z</time></trkpt><trkpt lat="38.73775006441147" lon="16.36563678011507"><ele>967.0</ele><time>2026-04-27T15:20:59Z</time></trkpt><trkpt lat="38.73765282510041" lon="16.365532174198446"><ele>967.0</ele><time>2026-04-27T15:21:01Z</time></trkpt><trkpt lat="38.73759588150344" lon="16.36545901017333"><ele>966.9999999999999</ele><time>2026-04-27T15:21:02Z</time></trkpt><trkpt lat="38.73753236610111" lon="16.36537636429562"><ele>967.0</ele><time>2026-04-27T15:21:03Z</time></trkpt><trkpt lat="38.73748040893018" lon="16.36530214743237"><ele>968.4000000000001</ele><time>2026-04-27T15:21:04Z</time></trkpt><trkpt lat="38.73743191223585" lon="16.365245714866386"><ele>969.8000000000001</ele><time>2026-04-27T15:21:05Z</time></trkpt><trkpt lat="38.737374233320836" lon="16.365185434052194"><ele>971.2</ele><time>2026-04-27T15:21:06Z</time></trkpt><trkpt lat="38.737324351781304" lon="16.365119573516218"><ele>972.6</ele><time>2026-04-27T15:21:07Z</time></trkpt><trkpt lat="38.73723585639562" lon="16.36499345312784"><ele>974.0</ele><time>2026-04-27T15:21:09Z</time></trkpt><trkpt lat="38.73720180194298" lon="16.364851497489852"><ele>974.0</ele><time>2026-04-27T15:21:10.999Z</time></trkpt><trkpt lat="38.737191278479685" lon="16.364748413620706"><ele>974.0000000000001</ele><time>2026-04-27T15:21:11.999Z</time></trkpt><trkpt lat="38.73718682145863" lon="16.364658528569343"><ele>974.0000000000001</ele><time>2026-04-27T15:21:12.999Z</time></trkpt><trkpt lat="38.73718927929089" lon="16.364546531244972"><ele>974.0</ele><time>2026-04-27T15:21:13.999Z</time></trkpt><trkpt lat="38.7371848996296" lon="16.36440767930313"><ele>974.0</ele><time>2026-04-27T15:21:14.999Z</time></trkpt><trkpt lat="38.737172450688824" lon="16.364275094682963"><ele>974.2</ele><time>2026-04-27T15:21:15.999Z</time></trkpt><trkpt lat="38.73715258499812" lon="16.36414935205701"><ele>974.4000000000001</ele><time>2026-04-27T15:21:16.999Z</time></trkpt><trkpt lat="38.737125375640254" lon="16.364025561558954"><ele>974.6</ele><time>2026-04-27T15:21:17.999Z</time></trkpt><trkpt lat="38.73708531053107" lon="16.363898447886694"><ele>974.8</ele><time>2026-04-27T15:21:18.999Z</time></trkpt><trkpt lat="38.737020380779676" lon="16.363781066593166"><ele>975.0</ele><time>2026-04-27T15:21:19.999Z</time></trkpt><trkpt lat="38.736968561674885" lon="16.363685062709912"><ele>975.0</ele><time>2026-04-27T15:21:20.999Z</time></trkpt><trkpt lat="38.736916354282265" lon="16.363600717493583"><ele>975.0</ele><time>2026-04-27T15:21:21.999Z</time></trkpt><trkpt lat="38.73685602538661" lon="16.363505941355427"><ele>975.0</ele><time>2026-04-27T15:21:22.999Z</time></trkpt><trkpt lat="38.73677378263486" lon="16.363425487277016"><ele>975.0</ele><time>2026-04-27T15:21:23.999Z</time></trkpt><trkpt lat="38.7366614219871" lon="16.36335685032563"><ele>975.0</ele><time>2026-04-27T15:21:24.999Z</time></trkpt><trkpt lat="38.73657117423026" lon="16.363298908978162"><ele>975.6666666666666</ele><time>2026-04-27T15:21:25.999Z</time></trkpt><trkpt lat="38.73648455581315" lon="16.363232687753285"><ele>976.3333333333333</ele><time>2026-04-27T15:21:26.999Z</time></trkpt><trkpt lat="38.73640346232594" lon="16.36317035026792"><ele>977.0</ele><time>2026-04-27T15:21:27.999Z</time></trkpt><trkpt lat="38.73634444117476" lon="16.36311588821196"><ele>977.6666666666666</ele><time>2026-04-27T15:21:28.999Z</time></trkpt><trkpt lat="38.73627303843743" lon="16.363082984876332"><ele>978.3333333333333</ele><time>2026-04-27T15:21:29.999Z</time></trkpt><trkpt lat="38.73621168343066" lon="16.363129115309345"><ele>979.0</ele><time>2026-04-27T15:21:47Z</time></trkpt><trkpt lat="38.73614272878412" lon="16.363071727157525"><ele>979.0</ele><time>2026-04-27T15:21:52Z</time></trkpt><trkpt lat="38.73608909918573" lon="16.363017121851968"><ele>979.0</ele><time>2026-04-27T15:21:58Z</time></trkpt><trkpt lat="38.73606680999149" lon="16.362927468457013"><ele>979.0</ele><time>2026-04-27T15:22:06Z</time></trkpt><trkpt lat="38.73605400104012" lon="16.362844735502737"><ele>979.0</ele><time>2026-04-27T15:22:09Z</time></trkpt><trkpt lat="38.73603766450765" lon="16.362745941661743"><ele>979.0</ele><time>2026-04-27T15:22:11Z</time></trkpt><trkpt lat="38.736054430560365" lon="16.362662715538466"><ele>979.0</ele><time>2026-04-27T15:22:14Z</time></trkpt><trkpt lat="38.736086228925345" lon="16.362588155635375"><ele>979.0</ele><time>2026-04-27T15:22:16Z</time></trkpt><trkpt lat="38.736092556687844" lon="16.362251420813873"><ele>980.6</ele><time>2026-04-27T15:22:19Z</time></trkpt><trkpt lat="38.73610516560696" lon="16.362160436355257"><ele>982.2</ele><time>2026-04-27T15:22:20Z</time></trkpt><trkpt lat="38.73613418747965" lon="16.36205989614847"><ele>983.8000000000001</ele><time>2026-04-27T15:22:22Z</time></trkpt><trkpt lat="38.73614545604346" lon="16.361889217336454"><ele>985.4000000000001</ele><time>2026-04-27T15:22:37Z</time></trkpt><trkpt lat="38.736138687802715" lon="16.361777821047234"><ele>987.0</ele><time>2026-04-27T15:22:38Z</time></trkpt><trkpt lat="38.736066899245294" lon="16.36158132791272"><ele>990.4000000000001</ele><time>2026-04-27T15:22:39Z</time></trkpt><trkpt lat="38.73603888191271" lon="16.36149422046454"><ele>993.8000000000001</ele><time>2026-04-27T15:22:40Z</time></trkpt><trkpt lat="38.736007642722114" lon="16.36140266968095"><ele>997.2</ele><time>2026-04-27T15:22:41Z</time></trkpt><trkpt lat="38.73594445379665" lon="16.361250028700763"><ele>1000.6</ele><time>2026-04-27T15:22:43Z</time></trkpt><trkpt lat="38.73589856033665" lon="16.36115360023467"><ele>1004.0</ele><time>2026-04-27T15:22:44Z</time></trkpt><trkpt lat="38.73585148476843" lon="16.361074331346398"><ele>1004.0000000000001</ele><time>2026-04-27T15:22:45Z</time></trkpt><trkpt lat="38.735804361678674" lon="16.3610068587907"><ele>1004.0</ele><time>2026-04-27T15:22:46Z</time></trkpt><trkpt lat="38.735704640336365" lon="16.36092235118298"><ele>1004.0</ele><time>2026-04-27T15:22:48Z</time></trkpt><trkpt lat="38.73562667907058" lon="16.36089680289685"><ele>1004.0</ele><time>2026-04-27T15:22:49Z</time></trkpt><trkpt lat="38.735527859654134" lon="16.360838812438743"><ele>1004.0000000000001</ele><time>2026-04-27T15:22:51Z</time></trkpt><trkpt lat="38.735471136409124" lon="16.360795561585828"><ele>1004.0</ele><time>2026-04-27T15:22:52Z</time></trkpt><trkpt lat="38.73541623984114" lon="16.360726816659366"><ele>1004.0000000000001</ele><time>2026-04-27T15:22:53Z</time></trkpt><trkpt lat="38.73534969189116" lon="16.360650157585507"><ele>1004.0</ele><time>2026-04-27T15:22:54Z</time></trkpt><trkpt lat="38.73530268297916" lon="16.360575337197673"><ele>1004.0</ele><time>2026-04-27T15:22:55Z</time></trkpt><trkpt lat="38.735246802551096" lon="16.3604952402321"><ele>1004.0</ele><time>2026-04-27T15:22:56Z</time></trkpt><trkpt lat="38.735200937148676" lon="16.360411245078286"><ele>1004.0000000000001</ele><time>2026-04-27T15:22:57Z</time></trkpt><trkpt lat="38.73516800881121" lon="16.360330224767747"><ele>1004.0</ele><time>2026-04-27T15:22:58Z</time></trkpt><trkpt lat="38.73514094941657" lon="16.36019717735376"><ele>1006.1666666666667</ele><time>2026-04-27T15:23:00Z</time></trkpt><trkpt lat="38.73516602354049" lon="16.36008247387503"><ele>1008.3333333333334</ele><time>2026-04-27T15:23:02Z</time></trkpt><trkpt lat="38.73518902292794" lon="16.359992051652796"><ele>1010.5</ele><time>2026-04-27T15:23:03Z</time></trkpt><trkpt lat="38.73520701139947" lon="16.35989565628053"><ele>1012.6666666666667</ele><time>2026-04-27T15:23:04Z</time></trkpt><trkpt lat="38.73520369776798" lon="16.35981387052429"><ele>1014.8333333333334</ele><time>2026-04-27T15:23:05Z</time></trkpt><trkpt lat="38.73520941990732" lon="16.359658191431603"><ele>1017.0</ele><time>2026-04-27T15:23:06Z</time></trkpt><trkpt lat="38.73518990675893" lon="16.35948408953035"><ele>1017.8</ele><time>2026-04-27T15:23:07Z</time></trkpt><trkpt lat="38.73519563764524" lon="16.35932324486546"><ele>1018.6</ele><time>2026-04-27T15:23:08Z</time></trkpt><trkpt lat="38.73520174670564" lon="16.359198081440628"><ele>1019.3999999999999</ele><time>2026-04-27T15:23:09Z</time></trkpt><trkpt lat="38.735215767972406" lon="16.359085026382886"><ele>1020.1999999999999</ele><time>2026-04-27T15:23:10Z</time></trkpt><trkpt lat="38.73521963424703" lon="16.358958117280206"><ele>1021.0</ele><time>2026-04-27T15:23:11Z</time></trkpt><trkpt lat="38.73520504975716" lon="16.358836648270156"><ele>1020.8333333333333</ele><time>2026-04-27T15:23:11.999Z</time></trkpt><trkpt lat="38.73519704661715" lon="16.35871388261036"><ele>1020.6666666666666</ele><time>2026-04-27T15:23:12.999Z</time></trkpt><trkpt lat="38.73518060469079" lon="16.358595132192367"><ele>1020.5</ele><time>2026-04-27T15:23:13.999Z</time></trkpt><trkpt lat="38.73516288796843" lon="16.35849741006405"><ele>1020.3333333333333</ele><time>2026-04-27T15:23:14.999Z</time></trkpt><trkpt lat="38.73517615641808" lon="16.358394133776535"><ele>1020.1666666666666</ele><time>2026-04-27T15:23:15.999Z</time></trkpt><trkpt lat="38.73521076867433" lon="16.358283459680514"><ele>1020.0</ele><time>2026-04-27T15:23:16.999Z</time></trkpt><trkpt lat="38.73523123764799" lon="16.358170293216656"><ele>1020.8</ele><time>2026-04-27T15:23:17.999Z</time></trkpt><trkpt lat="38.735201838230466" lon="16.358084414802168"><ele>1021.6</ele><time>2026-04-27T15:23:18.999Z</time></trkpt><trkpt lat="38.73515937841396" lon="16.35797212027279"><ele>1022.4000000000001</ele><time>2026-04-27T15:23:19.999Z</time></trkpt><trkpt lat="38.73508996951395" lon="16.357874941324596"><ele>1023.2</ele><time>2026-04-27T15:23:20.999Z</time></trkpt><trkpt lat="38.73499960813529" lon="16.357743152979438"><ele>1024.0</ele><time>2026-04-27T15:23:21.999Z</time></trkpt><trkpt lat="38.73489678000445" lon="16.357605850885857"><ele>1024.75</ele><time>2026-04-27T15:23:22.999Z</time></trkpt><trkpt lat="38.73481734149697" lon="16.357459126423816"><ele>1025.5</ele><time>2026-04-27T15:23:23.999Z</time></trkpt><trkpt lat="38.73476497137223" lon="16.357324970214144"><ele>1026.25</ele><time>2026-04-27T15:23:24.999Z</time></trkpt><trkpt lat="38.734698040781765" lon="16.35722947030163"><ele>1027.0</ele><time>2026-04-27T15:23:25.999Z</time></trkpt><trkpt lat="38.7346360155715" lon="16.357135184186554"><ele>1027.6666666666665</ele><time>2026-04-27T15:23:26.999Z</time></trkpt><trkpt lat="38.734586895663924" lon="16.357042068796254"><ele>1028.3333333333333</ele><time>2026-04-27T15:23:27.999Z</time></trkpt><trkpt lat="38.73452569490673" lon="16.356935520649362"><ele>1029.0</ele><time>2026-04-27T15:23:28.999Z</time></trkpt><trkpt lat="38.73446554309929" lon="16.356820001480166"><ele>1029.6666666666667</ele><time>2026-04-27T15:23:29.999Z</time></trkpt><trkpt lat="38.73440524449676" lon="16.356750005967942"><ele>1030.3333333333335</ele><time>2026-04-27T15:23:30.999Z</time></trkpt><trkpt lat="38.734367250974415" lon="16.356684316260992"><ele>1031.0</ele><time>2026-04-27T15:23:31.999Z</time></trkpt><trkpt lat="38.7343192973016" lon="16.35662492709226"><ele>1030.0</ele><time>2026-04-27T15:23:32.999Z</time></trkpt><trkpt lat="38.734285175164686" lon="16.356552972177205"><ele>1029.0</ele><time>2026-04-27T15:23:33.999Z</time></trkpt><trkpt lat="38.734282226956374" lon="16.356398863860576"><ele>1028.0</ele><time>2026-04-27T15:23:35.999Z</time></trkpt><trkpt lat="38.73430524078124" lon="16.35632313450627"><ele>1027.0</ele><time>2026-04-27T15:23:36.999Z</time></trkpt><trkpt lat="38.73436156702355" lon="16.356247374478887"><ele>1026.0</ele><time>2026-04-27T15:23:37.999Z</time></trkpt><trkpt lat="38.73440885560888" lon="16.356179279208725"><ele>1025.0</ele><time>2026-04-27T15:23:39Z</time></trkpt><trkpt lat="38.734467043467575" lon="16.35613025130284"><ele>1025.0</ele><time>2026-04-27T15:23:40Z</time></trkpt><trkpt lat="38.73451865892379" lon="16.356068492297357"><ele>1025.0</ele><time>2026-04-27T15:23:41Z</time></trkpt><trkpt lat="38.73455761081843" lon="16.355973670085532"><ele>1025.0</ele><time>2026-04-27T15:23:42Z</time></trkpt><trkpt lat="38.73457426880058" lon="16.35584483873987"><ele>1025.0</ele><time>2026-04-27T15:23:43Z</time></trkpt><trkpt lat="38.73458791620422" lon="16.35572544010159"><ele>1025.0</ele><time>2026-04-27T15:23:44Z</time></trkpt><trkpt lat="38.734595561871345" lon="16.35558571636937"><ele>1023.0</ele><time>2026-04-27T15:23:45Z</time></trkpt><trkpt lat="38.73460839518772" lon="16.355488876663724"><ele>1021.0</ele><time>2026-04-27T15:23:46Z</time></trkpt><trkpt lat="38.73462589140484" lon="16.355383309458638"><ele>1019.0</ele><time>2026-04-27T15:23:47Z</time></trkpt><trkpt lat="38.73463635376593" lon="16.3552789632796"><ele>1017.0</ele><time>2026-04-27T15:23:48Z</time></trkpt><trkpt lat="38.73465513553178" lon="16.355149839830702"><ele>1015.0</ele><time>2026-04-27T15:23:49Z</time></trkpt><trkpt lat="38.73469041206886" lon="16.354996923904064"><ele>1015.0</ele><time>2026-04-27T15:23:50Z</time></trkpt><trkpt lat="38.73471855403245" lon="16.35484615872693"><ele>1015.0</ele><time>2026-04-27T15:23:51Z</time></trkpt><trkpt lat="38.73472512880413" lon="16.354722165079462"><ele>1015.0</ele><time>2026-04-27T15:23:52Z</time></trkpt><trkpt lat="38.73471969747788" lon="16.354628617194805"><ele>1015.0</ele><time>2026-04-27T15:23:53Z</time></trkpt><trkpt lat="38.73470051799894" lon="16.35454781351219"><ele>1015.0</ele><time>2026-04-27T15:23:54Z</time></trkpt><trkpt lat="38.734635539444064" lon="16.35440809278474"><ele>1015.0</ele><time>2026-04-27T15:23:56Z</time></trkpt><trkpt lat="38.73460679810567" lon="16.35433353158588"><ele>1015.0</ele><time>2026-04-27T15:23:57Z</time></trkpt><trkpt lat="38.734576828158126" lon="16.354224345532696"><ele>1015.0</ele><time>2026-04-27T15:23:58Z</time></trkpt><trkpt lat="38.73455742931668" lon="16.354108007319496"><ele>1015.0</ele><time>2026-04-27T15:23:59Z</time></trkpt><trkpt lat="38.73452146084436" lon="16.353970407352158"><ele>1015.0</ele><time>2026-04-27T15:24:00Z</time></trkpt><trkpt lat="38.73447517703693" lon="16.353825048796715"><ele>1015.0</ele><time>2026-04-27T15:24:01Z</time></trkpt><trkpt lat="38.734451892579045" lon="16.353701126626415"><ele>1015.0</ele><time>2026-04-27T15:24:02Z</time></trkpt><trkpt lat="38.734427059167025" lon="16.35357782850823"><ele>1015.0</ele><time>2026-04-27T15:24:03Z</time></trkpt><trkpt lat="38.734391497058425" lon="16.353459738301236"><ele>1015.0</ele><time>2026-04-27T15:24:04Z</time></trkpt><trkpt lat="38.73439898696323" lon="16.35333742661874"><ele>1015.0</ele><time>2026-04-27T15:24:05Z</time></trkpt><trkpt lat="38.73440611934608" lon="16.35319243297586"><ele>1015.8</ele><time>2026-04-27T15:24:07Z</time></trkpt><trkpt lat="38.73448161885732" lon="16.35302779908141"><ele>1016.6</ele><time>2026-04-27T15:24:09Z</time></trkpt><trkpt lat="38.734546745066844" lon="16.352948733767168"><ele>1017.4000000000001</ele><time>2026-04-27T15:24:10Z</time></trkpt><trkpt lat="38.734568524103004" lon="16.35283990495651"><ele>1018.2</ele><time>2026-04-27T15:24:11Z</time></trkpt><trkpt lat="38.73456758225218" lon="16.352710221557526"><ele>1019.0</ele><time>2026-04-27T15:24:12Z</time></trkpt><trkpt lat="38.734580592755556" lon="16.352579609326636"><ele>1019.0</ele><time>2026-04-27T15:24:13Z</time></trkpt><trkpt lat="38.73457429824377" lon="16.352476648582208"><ele>1019.0000000000001</ele><time>2026-04-27T15:24:14Z</time></trkpt><trkpt lat="38.7345569943786" lon="16.35239886353169"><ele>1019.0000000000001</ele><time>2026-04-27T15:24:15Z</time></trkpt><trkpt lat="38.734481210985976" lon="16.35226399618166"><ele>1019.0</ele><time>2026-04-27T15:24:17Z</time></trkpt><trkpt lat="38.73441910517034" lon="16.352151430018537"><ele>1019.0</ele><time>2026-04-27T15:24:18Z</time></trkpt><trkpt lat="38.73435841024296" lon="16.35205065135402"><ele>1018.6</ele><time>2026-04-27T15:24:19Z</time></trkpt><trkpt lat="38.73431418939634" lon="16.351924868363273"><ele>1018.2</ele><time>2026-04-27T15:24:20Z</time></trkpt><trkpt lat="38.73427442801751" lon="16.35179501067561"><ele>1017.8000000000001</ele><time>2026-04-27T15:24:21Z</time></trkpt><trkpt lat="38.73420836327493" lon="16.351668653674434"><ele>1017.4000000000001</ele><time>2026-04-27T15:24:22Z</time></trkpt><trkpt lat="38.73414946368303" lon="16.351588076422825"><ele>1017.0</ele><time>2026-04-27T15:24:23Z</time></trkpt><trkpt lat="38.734069713957894" lon="16.351522093813394"><ele>1017.0</ele><time>2026-04-27T15:24:24Z</time></trkpt><trkpt lat="38.7339588757227" lon="16.351451498412036"><ele>1017.0</ele><time>2026-04-27T15:24:25Z</time></trkpt><trkpt lat="38.733842363876825" lon="16.351372490568227"><ele>1017.0</ele><time>2026-04-27T15:24:26Z</time></trkpt><trkpt lat="38.73373882716853" lon="16.35126135238331"><ele>1017.0</ele><time>2026-04-27T15:24:27Z</time></trkpt><trkpt lat="38.73366734942946" lon="16.351150161514276"><ele>1017.6666666666666</ele><time>2026-04-27T15:24:28Z</time></trkpt><trkpt lat="38.73361529046652" lon="16.35106490719482"><ele>1018.3333333333333</ele><time>2026-04-27T15:24:29Z</time></trkpt><trkpt lat="38.73355230534358" lon="16.35102206346797"><ele>1019.0</ele><time>2026-04-27T15:24:31Z</time></trkpt><trkpt lat="38.73347498730058" lon="16.350887913303158"><ele>1019.6666666666666</ele><time>2026-04-27T15:24:33Z</time></trkpt><trkpt lat="38.73343225050467" lon="16.350802221004678"><ele>1020.3333333333333</ele><time>2026-04-27T15:24:34Z</time></trkpt><trkpt lat="38.7333944362598" lon="16.35072156444264"><ele>1021.0</ele><time>2026-04-27T15:24:35Z</time></trkpt><trkpt lat="38.7333552039177" lon="16.35062698898988"><ele>1018.5</ele><time>2026-04-27T15:24:36Z</time></trkpt><trkpt lat="38.733311739902" lon="16.35049474580094"><ele>1016.0</ele><time>2026-04-27T15:24:37Z</time></trkpt><trkpt lat="38.73326325464688" lon="16.350377402761787"><ele>1013.5</ele><time>2026-04-27T15:24:38Z</time></trkpt><trkpt lat="38.7331900383631" lon="16.350249905299826"><ele>1011.0</ele><time>2026-04-27T15:24:39Z</time></trkpt><trkpt lat="38.73310059727988" lon="16.350142005425525"><ele>1011.0</ele><time>2026-04-27T15:24:40Z</time></trkpt><trkpt lat="38.73302304767582" lon="16.350019137248708"><ele>1010.9999999999999</ele><time>2026-04-27T15:24:41Z</time></trkpt><trkpt lat="38.7329478483098" lon="16.349905298860097"><ele>1010.9999999999999</ele><time>2026-04-27T15:24:42Z</time></trkpt><trkpt lat="38.732902323088574" lon="16.34979630019164"><ele>1011.0</ele><time>2026-04-27T15:24:43Z</time></trkpt><trkpt lat="38.732884032390494" lon="16.349698947519173"><ele>1011.0</ele><time>2026-04-27T15:24:44Z</time></trkpt><trkpt lat="38.73285913285199" lon="16.349615254691518"><ele>1010.8333333333334</ele><time>2026-04-27T15:24:45Z</time></trkpt><trkpt lat="38.73279580503074" lon="16.349610825431856"><ele>1010.6666666666667</ele><time>2026-04-27T15:24:53Z</time></trkpt><trkpt lat="38.73273283408086" lon="16.34961655928459"><ele>1010.5</ele><time>2026-04-27T15:24:59Z</time></trkpt><trkpt lat="38.73265527750302" lon="16.349638504407178"><ele>1010.3333333333334</ele><time>2026-04-27T15:25:03Z</time></trkpt><trkpt lat="38.732548205242566" lon="16.349673562248967"><ele>1010.1666666666667</ele><time>2026-04-27T15:25:05.999Z</time></trkpt><trkpt lat="38.73246615458169" lon="16.349698440623236"><ele>1010.0</ele><time>2026-04-27T15:25:06.999Z</time></trkpt><trkpt lat="38.73237022916835" lon="16.349754683923905"><ele>1009.8</ele><time>2026-04-27T15:25:07.999Z</time></trkpt><trkpt lat="38.73228548800452" lon="16.349808765997732"><ele>1009.6</ele><time>2026-04-27T15:25:08.999Z</time></trkpt><trkpt lat="38.73220739049973" lon="16.349883517659165"><ele>1009.4000000000001</ele><time>2026-04-27T15:25:09.999Z</time></trkpt><trkpt lat="38.73213080730502" lon="16.349987459672104"><ele>1009.2</ele><time>2026-04-27T15:25:10.999Z</time></trkpt><trkpt lat="38.732057005151866" lon="16.35010512650587"><ele>1009.0</ele><time>2026-04-27T15:25:11.999Z</time></trkpt><trkpt lat="38.731974602111286" lon="16.350194904703077"><ele>1009.0</ele><time>2026-04-27T15:25:12.999Z</time></trkpt><trkpt lat="38.731902542926846" lon="16.350295637432634"><ele>1009.0000000000001</ele><time>2026-04-27T15:25:13.999Z</time></trkpt><trkpt lat="38.73184543405612" lon="16.35040102690396"><ele>1009.0000000000001</ele><time>2026-04-27T15:25:14.999Z</time></trkpt><trkpt lat="38.73178622022575" lon="16.350532908618174"><ele>1009.0</ele><time>2026-04-27T15:25:15.999Z</time></trkpt><trkpt lat="38.73173377274793" lon="16.350669009690897"><ele>1009.0</ele><time>2026-04-27T15:25:16.999Z</time></trkpt><trkpt lat="38.73169164992285" lon="16.35080854670869"><ele>1008.0</ele><time>2026-04-27T15:25:17.999Z</time></trkpt><trkpt lat="38.73165552870568" lon="16.350944663711726"><ele>1007.0</ele><time>2026-04-27T15:25:18.999Z</time></trkpt><trkpt lat="38.731618165627836" lon="16.351078640796967"><ele>1006.0</ele><time>2026-04-27T15:25:19.999Z</time></trkpt><trkpt lat="38.73159073420049" lon="16.351209200719786"><ele>1005.0</ele><time>2026-04-27T15:25:20.999Z</time></trkpt><trkpt lat="38.73157661727922" lon="16.351363531268877"><ele>1004.8</ele><time>2026-04-27T15:25:21.999Z</time></trkpt><trkpt lat="38.73156925441566" lon="16.35154974019596"><ele>1004.6</ele><time>2026-04-27T15:25:22.999Z</time></trkpt><trkpt lat="38.73156998538554" lon="16.351678080324962"><ele>1004.4000000000001</ele><time>2026-04-27T15:25:23.999Z</time></trkpt><trkpt lat="38.73155685639397" lon="16.351820648862"><ele>1004.2</ele><time>2026-04-27T15:25:24.999Z</time></trkpt><trkpt lat="38.731558688532566" lon="16.351937311701676"><ele>1004.0</ele><time>2026-04-27T15:25:25.999Z</time></trkpt><trkpt lat="38.731546374110444" lon="16.352043151196526"><ele>1004.0000000000001</ele><time>2026-04-27T15:25:26.999Z</time></trkpt><trkpt lat="38.73154587971115" lon="16.35214293181724"><ele>1004.0</ele><time>2026-04-27T15:25:27.999Z</time></trkpt><trkpt lat="38.731526863963694" lon="16.352232907506416"><ele>1004.0</ele><time>2026-04-27T15:25:28.999Z</time></trkpt><trkpt lat="38.73144783674854" lon="16.352374050973815"><ele>1004.0</ele><time>2026-04-27T15:25:30.999Z</time></trkpt><trkpt lat="38.731395488015934" lon="16.35242526542329"><ele>1004.0000000000001</ele><time>2026-04-27T15:25:31.999Z</time></trkpt><trkpt lat="38.73131254860852" lon="16.352482007245925"><ele>1004.0</ele><time>2026-04-27T15:25:32.999Z</time></trkpt><trkpt lat="38.73121479631819" lon="16.352523967557637"><ele>1003.1666666666667</ele><time>2026-04-27T15:25:33.999Z</time></trkpt><trkpt lat="38.73114939221573" lon="16.35256620673005"><ele>1002.3333333333334</ele><time>2026-04-27T15:25:34.999Z</time></trkpt><trkpt lat="38.73108474298506" lon="16.352582930649973"><ele>1001.5</ele><time>2026-04-27T15:25:35.999Z</time></trkpt><trkpt lat="38.731005830772716" lon="16.35260680392958"><ele>1000.6666666666667</ele><time>2026-04-27T15:25:36.999Z</time></trkpt><trkpt lat="38.73090667464964" lon="16.352587876327505"><ele>999.8333333333334</ele><time>2026-04-27T15:25:38.999Z</time></trkpt><trkpt lat="38.73088553495301" lon="16.352501712265255"><ele>999.0</ele><time>2026-04-27T15:25:39.999Z</time></trkpt><trkpt lat="38.730860276467666" lon="16.35241587531216"><ele>998.0</ele><time>2026-04-27T15:25:40.999Z</time></trkpt><trkpt lat="38.730820415689195" lon="16.35231965392669"><ele>997.0</ele><time>2026-04-27T15:25:41.999Z</time></trkpt><trkpt lat="38.73078509296225" lon="16.352251507858202"><ele>996.0</ele><time>2026-04-27T15:25:42.999Z</time></trkpt><trkpt lat="38.73075200177694" lon="16.352147655958877"><ele>995.0</ele><time>2026-04-27T15:25:43.999Z</time></trkpt><trkpt lat="38.73072479124195" lon="16.35205478146792"><ele>994.0</ele><time>2026-04-27T15:25:45Z</time></trkpt><trkpt lat="38.7307016616491" lon="16.35193493794357"><ele>993.0</ele><time>2026-04-27T15:25:47Z</time></trkpt><trkpt lat="38.73062604850814" lon="16.35191389001041"><ele>993.0</ele><time>2026-04-27T15:25:49Z</time></trkpt><trkpt lat="38.73055114773269" lon="16.351897638605895"><ele>993.0</ele><time>2026-04-27T15:25:50Z</time></trkpt><trkpt lat="38.73048059483362" lon="16.35185791804955"><ele>993.0</ele><time>2026-04-27T15:25:51Z</time></trkpt><trkpt lat="38.73039783313965" lon="16.35177526149262"><ele>993.0</ele><time>2026-04-27T15:25:52Z</time></trkpt><trkpt lat="38.730346835247964" lon="16.351691671408698"><ele>993.0</ele><time>2026-04-27T15:25:53Z</time></trkpt><trkpt lat="38.73027407680888" lon="16.351666090815783"><ele>993.0</ele><time>2026-04-27T15:25:55Z</time></trkpt><trkpt lat="38.73019549267805" lon="16.35171385545325"><ele>991.5999999999999</ele><time>2026-04-27T15:25:56Z</time></trkpt><trkpt lat="38.73010296142954" lon="16.35174111750735"><ele>990.1999999999999</ele><time>2026-04-27T15:25:57Z</time></trkpt><trkpt lat="38.73000597033046" lon="16.351754495699126"><ele>988.8</ele><time>2026-04-27T15:25:58Z</time></trkpt><trkpt lat="38.72989961809549" lon="16.35175272854968"><ele>987.4</ele><time>2026-04-27T15:25:59Z</time></trkpt><trkpt lat="38.72982075719186" lon="16.351736569059952"><ele>986.0</ele><time>2026-04-27T15:26:00Z</time></trkpt><trkpt lat="38.72974604249682" lon="16.351753667745715"><ele>986.0</ele><time>2026-04-27T15:26:02Z</time></trkpt><trkpt lat="38.729699755297744" lon="16.35183433598973"><ele>985.9999999999999</ele><time>2026-04-27T15:26:04Z</time></trkpt><trkpt lat="38.72974483838147" lon="16.35196076010754"><ele>985.9999999999999</ele><time>2026-04-27T15:26:07Z</time></trkpt><trkpt lat="38.7298441588031" lon="16.35202238534067"><ele>986.0</ele><time>2026-04-27T15:26:09Z</time></trkpt><trkpt lat="38.72994677849017" lon="16.35207765465512"><ele>986.0</ele><time>2026-04-27T15:26:10Z</time></trkpt><trkpt lat="38.73005379149243" lon="16.352125773244133"><ele>986.0</ele><time>2026-04-27T15:26:11Z</time></trkpt><trkpt lat="38.73015879598646" lon="16.352190490631113"><ele>985.9999999999999</ele><time>2026-04-27T15:26:13Z</time></trkpt><trkpt lat="38.730202424070264" lon="16.352257951571602"><ele>985.9999999999999</ele><time>2026-04-27T15:26:14Z</time></trkpt><trkpt lat="38.73023169386727" lon="16.352357572794066"><ele>986.0</ele><time>2026-04-27T15:26:15Z</time></trkpt><trkpt lat="38.730227929911145" lon="16.352478960494523"><ele>986.0</ele><time>2026-04-27T15:26:16Z</time></trkpt><trkpt lat="38.73018619231216" lon="16.35262375640218"><ele>984.5</ele><time>2026-04-27T15:26:17Z</time></trkpt><trkpt lat="38.73016188791509" lon="16.35277272473062"><ele>983.0</ele><time>2026-04-27T15:26:18Z</time></trkpt><trkpt lat="38.73013560415293" lon="16.352911681242173"><ele>981.5</ele><time>2026-04-27T15:26:19Z</time></trkpt><trkpt lat="38.73013639828996" lon="16.353077593499837"><ele>980.0</ele><time>2026-04-27T15:26:20Z</time></trkpt><trkpt lat="38.730136743648565" lon="16.353215240713546"><ele>980.5000000000001</ele><time>2026-04-27T15:26:21Z</time></trkpt><trkpt lat="38.730138555210836" lon="16.353309353714153"><ele>981.0</ele><time>2026-04-27T15:26:22Z</time></trkpt><trkpt lat="38.73016516284306" lon="16.35340235385871"><ele>981.5</ele><time>2026-04-27T15:26:23Z</time></trkpt><trkpt lat="38.73020991891662" lon="16.353486387806903"><ele>982.0</ele><time>2026-04-27T15:26:24Z</time></trkpt><trkpt lat="38.730255072560894" lon="16.353559210738258"><ele>982.5000000000001</ele><time>2026-04-27T15:26:25Z</time></trkpt><trkpt lat="38.73031097016984" lon="16.35361015293543"><ele>983.0</ele><time>2026-04-27T15:26:26Z</time></trkpt><trkpt lat="38.730405687991585" lon="16.35367426099635"><ele>983.0</ele><time>2026-04-27T15:26:27Z</time></trkpt><trkpt lat="38.73049078730312" lon="16.35372729172985"><ele>983.0</ele><time>2026-04-27T15:26:28Z</time></trkpt><trkpt lat="38.73055578247117" lon="16.353762226621207"><ele>983.0</ele><time>2026-04-27T15:26:29Z</time></trkpt><trkpt lat="38.73064275046603" lon="16.353799610049744"><ele>983.0</ele><time>2026-04-27T15:26:30Z</time></trkpt><trkpt lat="38.730751403592464" lon="16.353810721276318"><ele>983.0</ele><time>2026-04-27T15:26:31Z</time></trkpt><trkpt lat="38.73084224653707" lon="16.35384371313434"><ele>983.0</ele><time>2026-04-27T15:26:32Z</time></trkpt><trkpt lat="38.73090927322401" lon="16.353830096312155"><ele>983.0</ele><time>2026-04-27T15:26:33Z</time></trkpt><trkpt lat="38.73099473816903" lon="16.353818183406176"><ele>983.0</ele><time>2026-04-27T15:26:35Z</time></trkpt><trkpt lat="38.731055066445116" lon="16.353961327811206"><ele>983.0</ele><time>2026-04-27T15:26:37Z</time></trkpt><trkpt lat="38.73105910091033" lon="16.35407300809639"><ele>983.0</ele><time>2026-04-27T15:26:38Z</time></trkpt><trkpt lat="38.7310504860529" lon="16.354187487591847"><ele>980.5999999999999</ele><time>2026-04-27T15:26:39Z</time></trkpt><trkpt lat="38.73103306115151" lon="16.35427122889674"><ele>978.1999999999999</ele><time>2026-04-27T15:26:40Z</time></trkpt><trkpt lat="38.73100474444457" lon="16.35436235341832"><ele>975.8</ele><time>2026-04-27T15:26:41Z</time></trkpt><trkpt lat="38.73094412735744" lon="16.354451591451063"><ele>973.4</ele><time>2026-04-27T15:26:42Z</time></trkpt><trkpt lat="38.73087848084966" lon="16.354543616167522"><ele>971.0</ele><time>2026-04-27T15:26:43Z</time></trkpt><trkpt lat="38.730772043089864" lon="16.354613886970398"><ele>969.4</ele><time>2026-04-27T15:26:44Z</time></trkpt><trkpt lat="38.73068616147213" lon="16.354707410482185"><ele>967.8</ele><time>2026-04-27T15:26:45Z</time></trkpt><trkpt lat="38.73058706294792" lon="16.35478908398596"><ele>966.1999999999999</ele><time>2026-04-27T15:26:46Z</time></trkpt><trkpt lat="38.7305033328311" lon="16.354884079963355"><ele>964.5999999999999</ele><time>2026-04-27T15:26:47Z</time></trkpt><trkpt lat="38.730434636447704" lon="16.354966237307224"><ele>963.0</ele><time>2026-04-27T15:26:48Z</time></trkpt><trkpt lat="38.73035096517817" lon="16.355036143286434"><ele>963.0</ele><time>2026-04-27T15:26:49Z</time></trkpt><trkpt lat="38.7302652965749" lon="16.355087083783637"><ele>963.0</ele><time>2026-04-27T15:26:50Z</time></trkpt><trkpt lat="38.73014088083011" lon="16.35516650190242"><ele>963.0</ele><time>2026-04-27T15:26:52Z</time></trkpt><trkpt lat="38.73008089249059" lon="16.35519703862459"><ele>963.0</ele><time>2026-04-27T15:26:53Z</time></trkpt><trkpt lat="38.73001636729067" lon="16.355229730364094"><ele>963.0</ele><time>2026-04-27T15:26:54Z</time></trkpt><trkpt lat="38.72994325227546" lon="16.355269059723962"><ele>963.0</ele><time>2026-04-27T15:26:56Z</time></trkpt><trkpt lat="38.729899647932804" lon="16.355361451225995"><ele>962.0</ele><time>2026-04-27T15:26:58Z</time></trkpt><trkpt lat="38.729846995603054" lon="16.355476957256418"><ele>961.0</ele><time>2026-04-27T15:26:59Z</time></trkpt><trkpt lat="38.72979004062639" lon="16.35560434649115"><ele>960.0</ele><time>2026-04-27T15:27:00Z</time></trkpt><trkpt lat="38.72973578363812" lon="16.355774152959693"><ele>959.0</ele><time>2026-04-27T15:27:01Z</time></trkpt><trkpt lat="38.72969246097989" lon="16.355903107546254"><ele>958.8333333333334</ele><time>2026-04-27T15:27:02Z</time></trkpt><trkpt lat="38.72964032062674" lon="16.356001819648608"><ele>958.6666666666667</ele><time>2026-04-27T15:27:03Z</time></trkpt><trkpt lat="38.729600586927276" lon="16.356088923195287"><ele>958.5</ele><time>2026-04-27T15:27:03.999Z</time></trkpt><trkpt lat="38.72956774344435" lon="16.356192221193105"><ele>958.3333333333333</ele><time>2026-04-27T15:27:04.999Z</time></trkpt><trkpt lat="38.72955655041214" lon="16.35630530916051"><ele>958.1666666666666</ele><time>2026-04-27T15:27:05.999Z</time></trkpt><trkpt lat="38.72955701952302" lon="16.35643414810137"><ele>958.0</ele><time>2026-04-27T15:27:06.999Z</time></trkpt><trkpt lat="38.72955260036544" lon="16.356580200504855"><ele>955.8</ele><time>2026-04-27T15:27:07.999Z</time></trkpt><trkpt lat="38.72953600516343" lon="16.35670574825022"><ele>953.5999999999999</ele><time>2026-04-27T15:27:08.999Z</time></trkpt><trkpt lat="38.729510402313295" lon="16.356801248125283"><ele>951.4000000000001</ele><time>2026-04-27T15:27:09.999Z</time></trkpt><trkpt lat="38.72947541572014" lon="16.356887340632017"><ele>949.2</ele><time>2026-04-27T15:27:10.999Z</time></trkpt><trkpt lat="38.72938931278772" lon="16.35699045288159"><ele>947.0</ele><time>2026-04-27T15:27:12.999Z</time></trkpt><trkpt lat="38.729266801591336" lon="16.3570182848008"><ele>946.0000000000001</ele><time>2026-04-27T15:27:14.999Z</time></trkpt><trkpt lat="38.72919953306901" lon="16.357008442816895"><ele>945.0</ele><time>2026-04-27T15:27:15.999Z</time></trkpt><trkpt lat="38.72914107594806" lon="16.356967926519467"><ele>944.0</ele><time>2026-04-27T15:27:16.999Z</time></trkpt><trkpt lat="38.72905542069116" lon="16.35689034348326"><ele>943.0</ele><time>2026-04-27T15:27:18.999Z</time></trkpt><trkpt lat="38.72896286074595" lon="16.356960916657847"><ele>942.0000000000001</ele><time>2026-04-27T15:27:20.999Z</time></trkpt><trkpt lat="38.72894952723426" lon="16.35704106426332"><ele>941.0</ele><time>2026-04-27T15:27:24.999Z</time></trkpt><trkpt lat="38.72889670728056" lon="16.357090509603136"><ele>939.0</ele><time>2026-04-27T15:27:25.999Z</time></trkpt><trkpt lat="38.72889208035829" lon="16.35720549148359"><ele>937.0</ele><time>2026-04-27T15:27:26.999Z</time></trkpt><trkpt lat="38.728698303403455" lon="16.357506469961546"><ele>935.0</ele><time>2026-04-27T15:27:27.999Z</time></trkpt><trkpt lat="38.72871671374242" lon="16.35760662247046"><ele>935.0</ele><time>2026-04-27T15:27:28.999Z</time></trkpt><trkpt lat="38.72875283210357" lon="16.35769377267486"><ele>935.0</ele><time>2026-04-27T15:27:29.999Z</time></trkpt><trkpt lat="38.72881276134242" lon="16.357835580052253"><ele>935.0</ele><time>2026-04-27T15:27:31.999Z</time></trkpt><trkpt lat="38.728859095389595" lon="16.357907672974775"><ele>935.0</ele><time>2026-04-27T15:27:32.999Z</time></trkpt><trkpt lat="38.72895741150421" lon="16.35793590876447"><ele>935.0</ele><time>2026-04-27T15:27:34.999Z</time></trkpt><trkpt lat="38.729105904908025" lon="16.35800443672284"><ele>935.0000000000001</ele><time>2026-04-27T15:27:36.999Z</time></trkpt><trkpt lat="38.72919400007128" lon="16.3579981862226"><ele>935.0</ele><time>2026-04-27T15:27:37.999Z</time></trkpt><trkpt lat="38.72928478799499" lon="16.357998674305023"><ele>935.0</ele><time>2026-04-27T15:27:38.999Z</time></trkpt><trkpt lat="38.72936137271332" lon="16.357983490528355"><ele>935.0</ele><time>2026-04-27T15:27:39.999Z</time></trkpt><trkpt lat="38.72942952779791" lon="16.35797660042884"><ele>935.0000000000001</ele><time>2026-04-27T15:27:40.999Z</time></trkpt><trkpt lat="38.72950419369638" lon="16.357954505196517"><ele>935.0</ele><time>2026-04-27T15:27:41.999Z</time></trkpt><trkpt lat="38.729572262522936" lon="16.357909426079377"><ele>934.6</ele><time>2026-04-27T15:27:42.999Z</time></trkpt><trkpt lat="38.72963608627927" lon="16.3578629033951"><ele>934.2</ele><time>2026-04-27T15:27:43.999Z</time></trkpt><trkpt lat="38.72969146371698" lon="16.35781843277447"><ele>933.8</ele><time>2026-04-27T15:27:44.999Z</time></trkpt><trkpt lat="38.72978647645584" lon="16.357810093502444"><ele>933.4</ele><time>2026-04-27T15:27:46.999Z</time></trkpt><trkpt lat="38.72982832052969" lon="16.35798314230062"><ele>933.0</ele><time>2026-04-27T15:27:48.999Z</time></trkpt><trkpt lat="38.72983004107183" lon="16.358136401363563"><ele>932.5999999999999</ele><time>2026-04-27T15:27:51Z</time></trkpt><trkpt lat="38.72978599056474" lon="16.358267852208517"><ele>932.1999999999999</ele><time>2026-04-27T15:27:52Z</time></trkpt><trkpt lat="38.72974752116186" lon="16.35839201385896"><ele>931.8</ele><time>2026-04-27T15:27:53Z</time></trkpt><trkpt lat="38.72971543647189" lon="16.358487819396846"><ele>931.4</ele><time>2026-04-27T15:27:54Z</time></trkpt><trkpt lat="38.72966630886959" lon="16.35860540359565"><ele>931.0</ele><time>2026-04-27T15:27:56Z</time></trkpt><trkpt lat="38.72952608602941" lon="16.358631975421407"><ele>931.0</ele><time>2026-04-27T15:27:58Z</time></trkpt><trkpt lat="38.729432598777436" lon="16.35867194632604"><ele>930.9999999999999</ele><time>2026-04-27T15:27:59Z</time></trkpt><trkpt lat="38.72934018032365" lon="16.358686543422888"><ele>930.9999999999999</ele><time>2026-04-27T15:28:00Z</time></trkpt><trkpt lat="38.729242055350966" lon="16.358679851393184"><ele>931.0</ele><time>2026-04-27T15:28:01Z</time></trkpt><trkpt lat="38.729162879325" lon="16.358649726774665"><ele>931.0</ele><time>2026-04-27T15:28:02Z</time></trkpt><trkpt lat="38.72908913041422" lon="16.358619429163145"><ele>929.4999999999999</ele><time>2026-04-27T15:28:03Z</time></trkpt><trkpt lat="38.7290226623951" lon="16.35862482265783"><ele>928.0</ele><time>2026-04-27T15:28:04Z</time></trkpt><trkpt lat="38.72896316986671" lon="16.35866946369906"><ele>926.5</ele><time>2026-04-27T15:28:05Z</time></trkpt><trkpt lat="38.72890334834839" lon="16.358719158535234"><ele>925.0</ele><time>2026-04-27T15:28:06Z</time></trkpt><trkpt lat="38.72882789398088" lon="16.35881883490381"><ele>923.4999999999999</ele><time>2026-04-27T15:28:07Z</time></trkpt><trkpt lat="38.72878059572934" lon="16.35889943064515"><ele>922.0</ele><time>2026-04-27T15:28:08Z</time></trkpt><trkpt lat="38.72874580480614" lon="16.35902279008671"><ele>921.2</ele><time>2026-04-27T15:28:10Z</time></trkpt><trkpt lat="38.72876479465881" lon="16.359179638180077"><ele>920.4000000000001</ele><time>2026-04-27T15:28:12Z</time></trkpt><trkpt lat="38.72875979630105" lon="16.3592764229634"><ele>919.5999999999999</ele><time>2026-04-27T15:28:13Z</time></trkpt><trkpt lat="38.72875851916372" lon="16.359410658537357"><ele>918.8</ele><time>2026-04-27T15:28:14Z</time></trkpt><trkpt lat="38.72881304684061" lon="16.359577070337046"><ele>918.0</ele><time>2026-04-27T15:28:16Z</time></trkpt><trkpt lat="38.728801861695615" lon="16.359667474200226"><ele>919.25</ele><time>2026-04-27T15:28:19Z</time></trkpt><trkpt lat="38.72875411483391" lon="16.359734282397586"><ele>920.5</ele><time>2026-04-27T15:28:22Z</time></trkpt><trkpt lat="38.72868205013673" lon="16.35974324629083"><ele>921.75</ele><time>2026-04-27T15:28:25Z</time></trkpt><trkpt lat="38.728657232755886" lon="16.359827609640437"><ele>923.0</ele><time>2026-04-27T15:28:27Z</time></trkpt><trkpt lat="38.72819931471027" lon="16.360130309417645"><ele>921.0</ele><time>2026-04-27T15:28:30Z</time></trkpt><trkpt lat="38.728126492736486" lon="16.36023012538598"><ele>919.0</ele><time>2026-04-27T15:28:31Z</time></trkpt><trkpt lat="38.72805960114524" lon="16.36032422601748"><ele>917.0</ele><time>2026-04-27T15:28:32Z</time></trkpt><trkpt lat="38.728023292511146" lon="16.360429315743325"><ele>915.0</ele><time>2026-04-27T15:28:33Z</time></trkpt><trkpt lat="38.72796390124157" lon="16.360524323714436"><ele>913.0</ele><time>2026-04-27T15:28:34Z</time></trkpt><trkpt lat="38.72787416789584" lon="16.360638581501636"><ele>913.0</ele><time>2026-04-27T15:28:35Z</time></trkpt><trkpt lat="38.727798248791586" lon="16.36073086814039"><ele>913.0</ele><time>2026-04-27T15:28:36Z</time></trkpt><trkpt lat="38.72772848797259" lon="16.3608323584159"><ele>913.0</ele><time>2026-04-27T15:28:37Z</time></trkpt><trkpt lat="38.72766364910826" lon="16.36093610458595"><ele>913.0</ele><time>2026-04-27T15:28:38Z</time></trkpt><trkpt lat="38.727595281608146" lon="16.361055201767474"><ele>913.0</ele><time>2026-04-27T15:28:39Z</time></trkpt><trkpt lat="38.727532208865554" lon="16.361170523385017"><ele>909.4</ele><time>2026-04-27T15:28:40Z</time></trkpt><trkpt lat="38.727480739663505" lon="16.36132547889367"><ele>905.8</ele><time>2026-04-27T15:28:41Z</time></trkpt><trkpt lat="38.72744000244567" lon="16.361445041183696"><ele>902.2</ele><time>2026-04-27T15:28:42Z</time></trkpt><trkpt lat="38.727407981854654" lon="16.361542722271324"><ele>898.6</ele><time>2026-04-27T15:28:43Z</time></trkpt><trkpt lat="38.72734210600238" lon="16.36160155011389"><ele>895.0</ele><time>2026-04-27T15:28:44Z</time></trkpt><trkpt lat="38.727286885404666" lon="16.361647937929657"><ele>895.0</ele><time>2026-04-27T15:28:45Z</time></trkpt><trkpt lat="38.727210783046075" lon="16.361652607421927"><ele>895.0</ele><time>2026-04-27T15:28:46Z</time></trkpt><trkpt lat="38.72712062533635" lon="16.361655264127354"><ele>895.0</ele><time>2026-04-27T15:28:47Z</time></trkpt><trkpt lat="38.72703622549957" lon="16.361679561875267"><ele>895.0</ele><time>2026-04-27T15:28:48Z</time></trkpt><trkpt lat="38.72721467286946" lon="16.361331660963064"><ele>894.9999999999999</ele><time>2026-04-27T15:28:49Z</time></trkpt><trkpt lat="38.727144555504736" lon="16.36144775007823"><ele>895.0</ele><time>2026-04-27T15:28:50Z</time></trkpt><trkpt lat="38.72709240202198" lon="16.36150851907757"><ele>895.0</ele><time>2026-04-27T15:28:51Z</time></trkpt><trkpt lat="38.727169327277636" lon="16.361429831537865"><ele>895.0</ele><time>2026-04-27T15:28:52Z</time></trkpt><trkpt lat="38.727116399360035" lon="16.361477407986815"><ele>894.9999999999999</ele><time>2026-04-27T15:28:54Z</time></trkpt><trkpt lat="38.727067167007434" lon="16.361529945666"><ele>895.0</ele><time>2026-04-27T15:28:56Z</time></trkpt><trkpt lat="38.726838147350556" lon="16.36192442863298"><ele>894.9999999999999</ele><time>2026-04-27T15:29:01Z</time></trkpt><trkpt lat="38.72684232121472" lon="16.361802122393964"><ele>895.0</ele><time>2026-04-27T15:29:02Z</time></trkpt><trkpt lat="38.726885199409764" lon="16.36171639690786"><ele>895.0</ele><time>2026-04-27T15:29:04Z</time></trkpt><trkpt lat="38.72696687120633" lon="16.361731283524232"><ele>895.0</ele><time>2026-04-27T15:29:07Z</time></trkpt><trkpt lat="38.72703334964844" lon="16.36175200876744"><ele>894.9999999999999</ele><time>2026-04-27T15:29:08Z</time></trkpt><trkpt lat="38.72692717601135" lon="16.36174062685987"><ele>895.0</ele><time>2026-04-27T15:29:18.999Z</time></trkpt><trkpt lat="38.72685145986657" lon="16.361686542079052"><ele>891.8333333333333</ele><time>2026-04-27T15:29:19.999Z</time></trkpt><trkpt lat="38.726790281234834" lon="16.36161280323498"><ele>888.6666666666666</ele><time>2026-04-27T15:29:22.999Z</time></trkpt><trkpt lat="38.72673849698888" lon="16.361554770792846"><ele>885.5</ele><time>2026-04-27T15:29:25.999Z</time></trkpt><trkpt lat="38.7266795894128" lon="16.361498333758703"><ele>882.3333333333333</ele><time>2026-04-27T15:29:34.999Z</time></trkpt><trkpt lat="38.726673320696854" lon="16.361394668569872"><ele>879.1666666666666</ele><time>2026-04-27T15:29:58Z</time></trkpt><trkpt lat="38.726732676156445" lon="16.3614564007072"><ele>876.0</ele><time>2026-04-27T15:30:02Z</time></trkpt><trkpt lat="38.726824197509615" lon="16.361558561353565"><ele>876.0</ele><time>2026-04-27T15:30:04Z</time></trkpt><trkpt lat="38.726887990328635" lon="16.361614235521152"><ele>876.0</ele><time>2026-04-27T15:30:05Z</time></trkpt><trkpt lat="38.72694740079874" lon="16.361656271741335"><ele>876.0</ele><time>2026-04-27T15:30:07Z</time></trkpt><trkpt lat="38.72700533204831" lon="16.361696265200813"><ele>876.0</ele><time>2026-04-27T15:30:10Z</time></trkpt><trkpt lat="38.72706823265411" lon="16.361749911846502"><ele>876.0</ele><time>2026-04-27T15:30:16Z</time></trkpt><trkpt lat="38.727047027021065" lon="16.3616659244778"><ele>876.0</ele><time>2026-04-27T15:30:20Z</time></trkpt><trkpt lat="38.72705231090669" lon="16.361583615921223"><ele>876.0</ele><time>2026-04-27T15:30:22Z</time></trkpt><trkpt lat="38.72701834628021" lon="16.36144923013891"><ele>877.8333333333334</ele><time>2026-04-27T15:30:24Z</time></trkpt><trkpt lat="38.72698202845527" lon="16.361346079982066"><ele>879.6666666666667</ele><time>2026-04-27T15:30:26Z</time></trkpt><trkpt lat="38.727003220920764" lon="16.36123628244133"><ele>881.5</ele><time>2026-04-27T15:30:28Z</time></trkpt><trkpt lat="38.727048223121685" lon="16.361172078833867"><ele>883.3333333333334</ele><time>2026-04-27T15:30:29Z</time></trkpt><trkpt lat="38.72710749378053" lon="16.361105388162066"><ele>885.1666666666667</ele><time>2026-04-27T15:30:30Z</time></trkpt><trkpt lat="38.72709967451993" lon="16.36097940353383"><ele>887.0</ele><time>2026-04-27T15:30:32Z</time></trkpt><trkpt lat="38.72709440184091" lon="16.360838492220193"><ele>887.0</ele><time>2026-04-27T15:30:34Z</time></trkpt><trkpt lat="38.72712033422095" lon="16.360729431974555"><ele>887.0</ele><time>2026-04-27T15:30:35Z</time></trkpt><trkpt lat="38.72716788929057" lon="16.360659677753944"><ele>887.0</ele><time>2026-04-27T15:30:36Z</time></trkpt><trkpt lat="38.72722827211838" lon="16.360544605660657"><ele>887.0</ele><time>2026-04-27T15:30:38Z</time></trkpt><trkpt lat="38.727210344425835" lon="16.36043483962598"><ele>887.0</ele><time>2026-04-27T15:30:41Z</time></trkpt><trkpt lat="38.7271426002139" lon="16.360344954565896"><ele>887.6</ele><time>2026-04-27T15:30:45Z</time></trkpt><trkpt lat="38.727033481117374" lon="16.360324394577088"><ele>888.2</ele><time>2026-04-27T15:30:47Z</time></trkpt><trkpt lat="38.72694864037819" lon="16.36029131264087"><ele>888.8</ele><time>2026-04-27T15:30:48Z</time></trkpt><trkpt lat="38.726873648091924" lon="16.36025521597449"><ele>889.4</ele><time>2026-04-27T15:30:49Z</time></trkpt><trkpt lat="38.72679686857482" lon="16.360193058293923"><ele>890.0</ele><time>2026-04-27T15:30:50Z</time></trkpt><trkpt lat="38.72671006405931" lon="16.360141857540516"><ele>888.4</ele><time>2026-04-27T15:30:51Z</time></trkpt><trkpt lat="38.726645345429056" lon="16.360096305797615"><ele>886.8</ele><time>2026-04-27T15:30:52Z</time></trkpt><trkpt lat="38.72658664444641" lon="16.35996116754376"><ele>885.2</ele><time>2026-04-27T15:30:54Z</time></trkpt><trkpt lat="38.72657337053194" lon="16.35984859509621"><ele>883.6</ele><time>2026-04-27T15:30:55Z</time></trkpt><trkpt lat="38.72658126822342" lon="16.359712036210322"><ele>882.0</ele><time>2026-04-27T15:30:56Z</time></trkpt><trkpt lat="38.72662000990386" lon="16.359555550420016"><ele>882.0</ele><time>2026-04-27T15:30:57Z</time></trkpt><trkpt lat="38.72667562228781" lon="16.359399399874892"><ele>882.0</ele><time>2026-04-27T15:30:58Z</time></trkpt><trkpt lat="38.72669336945739" lon="16.359274865214815"><ele>882.0</ele><time>2026-04-27T15:30:59Z</time></trkpt><trkpt lat="38.72670123831185" lon="16.359187906305056"><ele>882.0</ele><time>2026-04-27T15:31:00Z</time></trkpt><trkpt lat="38.72670890667652" lon="16.3591064083354"><ele>882.0</ele><time>2026-04-27T15:31:01Z</time></trkpt><trkpt lat="38.72667950280734" lon="16.358989542367087"><ele>882.0</ele><time>2026-04-27T15:31:03Z</time></trkpt><trkpt lat="38.72667736950699" lon="16.35888622929784"><ele>882.0</ele><time>2026-04-27T15:31:05Z</time></trkpt><trkpt lat="38.726626628983745" lon="16.358797147815064"><ele>882.0</ele><time>2026-04-27T15:31:09Z</time></trkpt><trkpt lat="38.72656516309833" lon="16.358774172929447"><ele>882.0</ele><time>2026-04-27T15:31:10Z</time></trkpt><trkpt lat="38.72650555777154" lon="16.358735244348964"><ele>882.0</ele><time>2026-04-27T15:31:11Z</time></trkpt><trkpt lat="38.72641527611125" lon="16.358717515159405"><ele>882.0</ele><time>2026-04-27T15:31:14Z</time></trkpt><trkpt lat="38.72616959306071" lon="16.35857952589291"><ele>881.6666666666666</ele><time>2026-04-27T15:31:15Z</time></trkpt><trkpt lat="38.72606641041164" lon="16.35856687180324"><ele>881.3333333333333</ele><time>2026-04-27T15:31:16Z</time></trkpt><trkpt lat="38.725998530114346" lon="16.35854919503115"><ele>881.0</ele><time>2026-04-27T15:31:16.999Z</time></trkpt><trkpt lat="38.7259326513897" lon="16.35852457009394"><ele>880.6666666666666</ele><time>2026-04-27T15:31:17.999Z</time></trkpt><trkpt lat="38.72585990444112" lon="16.35848837230806"><ele>880.3333333333333</ele><time>2026-04-27T15:31:18.999Z</time></trkpt><trkpt lat="38.72578151576873" lon="16.358446015582963"><ele>880.0</ele><time>2026-04-27T15:31:19.999Z</time></trkpt><trkpt lat="38.725709307665134" lon="16.358382141304656"><ele>880.0</ele><time>2026-04-27T15:31:20.999Z</time></trkpt><trkpt lat="38.72564493600108" lon="16.358292924250968"><ele>880.0</ele><time>2026-04-27T15:31:21.999Z</time></trkpt><trkpt lat="38.725581550013565" lon="16.358214079551534"><ele>880.0</ele><time>2026-04-27T15:31:22.999Z</time></trkpt><trkpt lat="38.72553698948729" lon="16.358122979754146"><ele>880.0</ele><time>2026-04-27T15:31:23.999Z</time></trkpt><trkpt lat="38.72551178710817" lon="16.358002589689935"><ele>880.0</ele><time>2026-04-27T15:31:25.999Z</time></trkpt><trkpt lat="38.72549212781202" lon="16.357878106140227"><ele>881.75</ele><time>2026-04-27T15:31:27.999Z</time></trkpt><trkpt lat="38.72544524606017" lon="16.35777419397848"><ele>883.5</ele><time>2026-04-27T15:31:29.999Z</time></trkpt><trkpt lat="38.72552604179288" lon="16.3576295033463"><ele>885.25</ele><time>2026-04-27T15:31:31.999Z</time></trkpt><trkpt lat="38.72532137383339" lon="16.357628579088463"><ele>887.0</ele><time>2026-04-27T15:31:32.999Z</time></trkpt><trkpt lat="38.7252715085658" lon="16.357568225840442"><ele>887.0</ele><time>2026-04-27T15:31:33.999Z</time></trkpt><trkpt lat="38.72523512860796" lon="16.357477491154498"><ele>887.0</ele><time>2026-04-27T15:31:34.999Z</time></trkpt><trkpt lat="38.72520891226134" lon="16.357344410694896"><ele>887.0</ele><time>2026-04-27T15:31:35.999Z</time></trkpt><trkpt lat="38.72516940446068" lon="16.357165804126208"><ele>887.0</ele><time>2026-04-27T15:31:36.999Z</time></trkpt><trkpt lat="38.72511294269884" lon="16.356975965239336"><ele>887.5</ele><time>2026-04-27T15:31:37.999Z</time></trkpt><trkpt lat="38.725054619568134" lon="16.35679874971599"><ele>888.0</ele><time>2026-04-27T15:31:38.999Z</time></trkpt><trkpt lat="38.725009229856525" lon="16.356630651348237"><ele>888.5</ele><time>2026-04-27T15:31:39.999Z</time></trkpt><trkpt lat="38.724966917334726" lon="16.356468686637786"><ele>889.0</ele><time>2026-04-27T15:31:40.999Z</time></trkpt><trkpt lat="38.724923744873834" lon="16.35635135694083"><ele>889.0</ele><time>2026-04-27T15:31:41.999Z</time></trkpt><trkpt lat="38.72489998190031" lon="16.356139352550716"><ele>889.0</ele><time>2026-04-27T15:31:42.999Z</time></trkpt><trkpt lat="38.72486727884552" lon="16.356001519035317"><ele>889.0</ele><time>2026-04-27T15:31:43.999Z</time></trkpt><trkpt lat="38.72483441393417" lon="16.355884183131224"><ele>889.0</ele><time>2026-04-27T15:31:45.999Z</time></trkpt><trkpt lat="38.7247429468256" lon="16.355860515942773"><ele>888.9999999999999</ele><time>2026-04-27T15:31:47.999Z</time></trkpt><trkpt lat="38.72464362025896" lon="16.355830626480557"><ele>889.0</ele><time>2026-04-27T15:31:49.999Z</time></trkpt><trkpt lat="38.724571248078234" lon="16.355866392608558"><ele>889.0</ele><time>2026-04-27T15:31:51.999Z</time></trkpt><trkpt lat="38.72449045934042" lon="16.35593773510677"><ele>889.0</ele><time>2026-04-27T15:31:54.999Z</time></trkpt><trkpt lat="38.72446221655683" lon="16.356021988204567"><ele>888.9999999999999</ele><time>2026-04-27T15:31:55.999Z</time></trkpt><trkpt lat="38.72443842581469" lon="16.356122914902652"><ele>889.0</ele><time>2026-04-27T15:31:56.999Z</time></trkpt><trkpt lat="38.7244190194976" lon="16.356254562551374"><ele>888.1666666666666</ele><time>2026-04-27T15:31:58.999Z</time></trkpt><trkpt lat="38.72436364692947" lon="16.35633154293414"><ele>887.3333333333333</ele><time>2026-04-27T15:32:00.999Z</time></trkpt><trkpt lat="38.72427192074414" lon="16.356435867875458"><ele>886.5</ele><time>2026-04-27T15:32:03Z</time></trkpt><trkpt lat="38.72421576494781" lon="16.356480843543043"><ele>885.6666666666667</ele><time>2026-04-27T15:32:04Z</time></trkpt><trkpt lat="38.72415864761121" lon="16.3565230549128"><ele>884.8333333333334</ele><time>2026-04-27T15:32:05Z</time></trkpt><trkpt lat="38.7240882971125" lon="16.356561309398085"><ele>884.0</ele><time>2026-04-27T15:32:06Z</time></trkpt><trkpt lat="38.723975365400406" lon="16.356629455070266"><ele>883.8000000000001</ele><time>2026-04-27T15:32:07Z</time></trkpt><trkpt lat="38.72390513938701" lon="16.35663166865684"><ele>883.6000000000001</ele><time>2026-04-27T15:32:08Z</time></trkpt><trkpt lat="38.72384238911846" lon="16.356613090562846"><ele>883.4</ele><time>2026-04-27T15:32:09Z</time></trkpt><trkpt lat="38.723740766125474" lon="16.356633620039116"><ele>883.2</ele><time>2026-04-27T15:32:10Z</time></trkpt><trkpt lat="38.72362811415051" lon="16.35667545369288"><ele>883.0</ele><time>2026-04-27T15:32:11Z</time></trkpt><trkpt lat="38.72350260468411" lon="16.356718492902385"><ele>883.0</ele><time>2026-04-27T15:32:12Z</time></trkpt><trkpt lat="38.723366297782114" lon="16.356748522086487"><ele>883.0</ele><time>2026-04-27T15:32:13Z</time></trkpt><trkpt lat="38.72322703190981" lon="16.356796403172364"><ele>883.0</ele><time>2026-04-27T15:32:14Z</time></trkpt><trkpt lat="38.723109858349765" lon="16.35685262580891"><ele>883.0</ele><time>2026-04-27T15:32:15Z</time></trkpt><trkpt lat="38.723006551184575" lon="16.35689587133715"><ele>883.0</ele><time>2026-04-27T15:32:16Z</time></trkpt><trkpt lat="38.72289679264387" lon="16.356938697043795"><ele>883.0</ele><time>2026-04-27T15:32:17Z</time></trkpt><trkpt lat="38.722781129125345" lon="16.356982566128874"><ele>883.0</ele><time>2026-04-27T15:32:18Z</time></trkpt><trkpt lat="38.72266955695871" lon="16.35699562897693"><ele>883.0</ele><time>2026-04-27T15:32:19Z</time></trkpt><trkpt lat="38.7225822757758" lon="16.357037287660244"><ele>883.0</ele><time>2026-04-27T15:32:20Z</time></trkpt><trkpt lat="38.72249581192084" lon="16.35706028652549"><ele>886.5</ele><time>2026-04-27T15:32:21Z</time></trkpt><trkpt lat="38.722392475808" lon="16.357087526024994"><ele>890.0</ele><time>2026-04-27T15:32:22Z</time></trkpt><trkpt lat="38.72227587266112" lon="16.357115522197066"><ele>893.5</ele><time>2026-04-27T15:32:23Z</time></trkpt><trkpt lat="38.72214591269638" lon="16.357156721963303"><ele>897.0</ele><time>2026-04-27T15:32:24Z</time></trkpt><trkpt lat="38.7220418820766" lon="16.357191873947414"><ele>893.6</ele><time>2026-04-27T15:32:25Z</time></trkpt><trkpt lat="38.72193674552652" lon="16.357224956484725"><ele>890.2</ele><time>2026-04-27T15:32:26Z</time></trkpt><trkpt lat="38.721836747334095" lon="16.357267565872295"><ele>886.8</ele><time>2026-04-27T15:32:27Z</time></trkpt><trkpt lat="38.72173677192417" lon="16.357302657689605"><ele>883.4</ele><time>2026-04-27T15:32:28Z</time></trkpt><trkpt lat="38.72161952392551" lon="16.357350330043275"><ele>880.0</ele><time>2026-04-27T15:32:29Z</time></trkpt><trkpt lat="38.72152167433358" lon="16.357374656265684"><ele>879.9999999999999</ele><time>2026-04-27T15:32:30Z</time></trkpt><trkpt lat="38.72141819550427" lon="16.357392510957084"><ele>880.0</ele><time>2026-04-27T15:32:31Z</time></trkpt><trkpt lat="38.72134497932454" lon="16.35739930806689"><ele>880.0</ele><time>2026-04-27T15:32:32Z</time></trkpt><trkpt lat="38.72127339168256" lon="16.357404451501424"><ele>880.0</ele><time>2026-04-27T15:32:34Z</time></trkpt><trkpt lat="38.72121136029368" lon="16.357363539612116"><ele>879.9999999999999</ele><time>2026-04-27T15:32:36Z</time></trkpt><trkpt lat="38.72114479300561" lon="16.35730579279346"><ele>880.0</ele><time>2026-04-27T15:32:39Z</time></trkpt><trkpt lat="38.721068672210876" lon="16.35728510212377"><ele>879.9999999999999</ele><time>2026-04-27T15:32:41Z</time></trkpt><trkpt lat="38.721005477594716" lon="16.35727352656206"><ele>880.0</ele><time>2026-04-27T15:32:51Z</time></trkpt><trkpt lat="38.720958011522924" lon="16.357213706064076"><ele>880.0</ele><time>2026-04-27T15:33:14Z</time></trkpt><trkpt lat="38.72100758397974" lon="16.35730703046223"><ele>880.0</ele><time>2026-04-27T15:33:39.999Z</time></trkpt><trkpt lat="38.721068757681365" lon="16.35739078451373"><ele>879.9999999999999</ele><time>2026-04-27T15:33:41.999Z</time></trkpt><trkpt lat="38.72112055049032" lon="16.357465885387228"><ele>880.0</ele><time>2026-04-27T15:33:43.999Z</time></trkpt><trkpt lat="38.72118703819915" lon="16.357473540462106"><ele>879.9999999999999</ele><time>2026-04-27T15:33:45.999Z</time></trkpt><trkpt lat="38.721162652512376" lon="16.357396264599668"><ele>880.0</ele><time>2026-04-27T15:33:57.999Z</time></trkpt><trkpt lat="38.72119653198745" lon="16.357297390809627"><ele>880.0</ele><time>2026-04-27T15:33:59.999Z</time></trkpt><trkpt lat="38.72127979569259" lon="16.35720685117354"><ele>880.0</ele><time>2026-04-27T15:34:01.999Z</time></trkpt><trkpt lat="38.721314438429125" lon="16.357091131098873"><ele>879.9999999999999</ele><time>2026-04-27T15:34:04.999Z</time></trkpt><trkpt lat="38.721342178154615" lon="16.357004544740246"><ele>880.0</ele><time>2026-04-27T15:34:06.999Z</time></trkpt><trkpt lat="38.72134653704227" lon="16.356918299714994"><ele>888.0</ele><time>2026-04-27T15:34:09Z</time></trkpt><trkpt lat="38.721368726163924" lon="16.35684085190475"><ele>896.0</ele><time>2026-04-27T15:34:11Z</time></trkpt><trkpt lat="38.721375407162824" lon="16.35631093173457"><ele>897.4285714285714</ele><time>2026-04-27T15:34:14Z</time></trkpt><trkpt lat="38.721372371504465" lon="16.356229721984505"><ele>898.8571428571429</ele><time>2026-04-27T15:34:15Z</time></trkpt><trkpt lat="38.721368730584" lon="16.356135933703445"><ele>900.2857142857142</ele><time>2026-04-27T15:34:16Z</time></trkpt><trkpt lat="38.72136536536482" lon="16.356041504242544"><ele>901.7142857142857</ele><time>2026-04-27T15:34:17Z</time></trkpt><trkpt lat="38.72135550156497" lon="16.355935385041516"><ele>903.1428571428571</ele><time>2026-04-27T15:34:18Z</time></trkpt><trkpt lat="38.721358803361184" lon="16.355834435418956"><ele>904.5714285714284</ele><time>2026-04-27T15:34:19Z</time></trkpt><trkpt lat="38.72136464105478" lon="16.355753199328127"><ele>905.9999999999999</ele><time>2026-04-27T15:34:20Z</time></trkpt><trkpt lat="38.72137190626883" lon="16.355669780759374"><ele>906.0</ele><time>2026-04-27T15:34:21Z</time></trkpt><trkpt lat="38.721387593539575" lon="16.35553746076326"><ele>906.0</ele><time>2026-04-27T15:34:23Z</time></trkpt><trkpt lat="38.72146105629408" lon="16.355483514410647"><ele>906.0</ele><time>2026-04-27T15:34:26Z</time></trkpt><trkpt lat="38.7215350501394" lon="16.355477142478012"><ele>906.0</ele><time>2026-04-27T15:34:29Z</time></trkpt><trkpt lat="38.72160390105595" lon="16.35545090340565"><ele>906.0</ele><time>2026-04-27T15:35:20Z</time></trkpt><trkpt lat="38.72164755563178" lon="16.35551784360179"><ele>906.0</ele><time>2026-04-27T15:35:24Z</time></trkpt><trkpt lat="38.72157830512557" lon="16.355499483319885"><ele>908.0</ele><time>2026-04-27T15:36:08.999Z</time></trkpt><trkpt lat="38.72149661983346" lon="16.355398884441403"><ele>910.0</ele><time>2026-04-27T15:36:10.999Z</time></trkpt><trkpt lat="38.72146597102534" lon="16.355312350593216"><ele>912.0</ele><time>2026-04-27T15:36:12.999Z</time></trkpt><trkpt lat="38.72154070493369" lon="16.355289551240652"><ele>914.0</ele><time>2026-04-27T15:36:17Z</time></trkpt><trkpt lat="38.72145574215907" lon="16.35532688716559"><ele>916.0</ele><time>2026-04-27T15:36:43Z</time></trkpt><trkpt lat="38.72138693424322" lon="16.355379933877533"><ele>918.0</ele><time>2026-04-27T15:36:47Z</time></trkpt><trkpt lat="38.721292850998246" lon="16.355277691851434"><ele>918.0</ele><time>2026-04-27T15:36:51Z</time></trkpt><trkpt lat="38.721244609315264" lon="16.35518352637136"><ele>918.0</ele><time>2026-04-27T15:36:52Z</time></trkpt><trkpt lat="38.721212635678924" lon="16.35510038797276"><ele>918.0</ele><time>2026-04-27T15:36:53Z</time></trkpt><trkpt lat="38.721198918823255" lon="16.355006941825533"><ele>918.0</ele><time>2026-04-27T15:36:54Z</time></trkpt><trkpt lat="38.72118944396277" lon="16.354914628996156"><ele>918.0</ele><time>2026-04-27T15:36:55Z</time></trkpt><trkpt lat="38.72120510181581" lon="16.35483011131426"><ele>918.0</ele><time>2026-04-27T15:36:56Z</time></trkpt><trkpt lat="38.721243887271264" lon="16.35465172218963"><ele>920.0</ele><time>2026-04-27T15:36:58Z</time></trkpt><trkpt lat="38.721263877997586" lon="16.354498926156808"><ele>922.0</ele><time>2026-04-27T15:37:00Z</time></trkpt><trkpt lat="38.72128999248786" lon="16.354394930530663"><ele>924.0</ele><time>2026-04-27T15:37:01Z</time></trkpt><trkpt lat="38.72129884698467" lon="16.354312064019503"><ele>926.0</ele><time>2026-04-27T15:37:02Z</time></trkpt><trkpt lat="38.72132313543613" lon="16.354161416983032"><ele>928.0</ele><time>2026-04-27T15:37:04Z</time></trkpt><trkpt lat="38.72132081533966" lon="16.35406018860471"><ele>927.9999999999999</ele><time>2026-04-27T15:37:05Z</time></trkpt><trkpt lat="38.72131972266293" lon="16.353948714172315"><ele>928.0</ele><time>2026-04-27T15:37:06Z</time></trkpt><trkpt lat="38.72130530159276" lon="16.353828359659442"><ele>928.0</ele><time>2026-04-27T15:37:07Z</time></trkpt><trkpt lat="38.721301091302315" lon="16.353713093905686"><ele>928.0</ele><time>2026-04-27T15:37:08Z</time></trkpt><trkpt lat="38.721306622174716" lon="16.353616056534385"><ele>927.9999999999999</ele><time>2026-04-27T15:37:09Z</time></trkpt><trkpt lat="38.721292444902176" lon="16.353528677134882"><ele>928.0</ele><time>2026-04-27T15:37:10Z</time></trkpt><trkpt lat="38.721298863433084" lon="16.35342125439352"><ele>928.9999999999999</ele><time>2026-04-27T15:37:11Z</time></trkpt><trkpt lat="38.721301425512614" lon="16.353312735087947"><ele>930.0</ele><time>2026-04-27T15:37:12Z</time></trkpt><trkpt lat="38.72129610942374" lon="16.353207535670467"><ele>931.0</ele><time>2026-04-27T15:37:13Z</time></trkpt><trkpt lat="38.72130012044392" lon="16.35309736827667"><ele>932.0</ele><time>2026-04-27T15:37:14Z</time></trkpt><trkpt lat="38.721305158005784" lon="16.352982696442346"><ele>932.9999999999999</ele><time>2026-04-27T15:37:15Z</time></trkpt><trkpt lat="38.72129446788917" lon="16.352860124876596"><ele>934.0</ele><time>2026-04-27T15:37:16Z</time></trkpt><trkpt lat="38.7212851556129" lon="16.35272813860146"><ele>934.6</ele><time>2026-04-27T15:37:18Z</time></trkpt><trkpt lat="38.72128047161202" lon="16.352619378711147"><ele>935.2</ele><time>2026-04-27T15:37:22Z</time></trkpt><trkpt lat="38.72127273944288" lon="16.35251163321988"><ele>935.8000000000001</ele><time>2026-04-27T15:38:51Z</time></trkpt><trkpt lat="38.72123773702124" lon="16.352443023876344"><ele>936.4000000000001</ele><time>2026-04-27T15:38:52Z</time></trkpt><trkpt lat="38.721176983023746" lon="16.352293913379974"><ele>937.0</ele><time>2026-04-27T15:38:54Z</time></trkpt><trkpt lat="38.72114508125141" lon="16.352164028400278"><ele>937.4999999999999</ele><time>2026-04-27T15:38:56Z</time></trkpt><trkpt lat="38.721102407163045" lon="16.35209367563207"><ele>938.0</ele><time>2026-04-27T15:38:59Z</time></trkpt><trkpt lat="38.72109000593963" lon="16.35200740261616"><ele>938.5</ele><time>2026-04-27T15:39:01Z</time></trkpt><trkpt lat="38.72105779615686" lon="16.351930876198004"><ele>939.0</ele><time>2026-04-27T15:39:03Z</time></trkpt><trkpt lat="38.721073924228726" lon="16.351814137147574"><ele>939.4999999999999</ele><time>2026-04-27T15:39:06Z</time></trkpt><trkpt lat="38.72105188833865" lon="16.35172275641629"><ele>940.0</ele><time>2026-04-27T15:39:08Z</time></trkpt><trkpt lat="38.721023663538766" lon="16.35159582556768"><ele>939.0</ele><time>2026-04-27T15:39:10Z</time></trkpt><trkpt lat="38.721029577629395" lon="16.35150942940391"><ele>937.9999999999999</ele><time>2026-04-27T15:39:11Z</time></trkpt><trkpt lat="38.721011192836215" lon="16.351426845691254"><ele>937.0</ele><time>2026-04-27T15:39:12Z</time></trkpt><trkpt lat="38.7209842649122" lon="16.351339555639207"><ele>936.0</ele><time>2026-04-27T15:39:13Z</time></trkpt><trkpt lat="38.72096167217417" lon="16.35125025306514"><ele>934.9999999999999</ele><time>2026-04-27T15:39:14Z</time></trkpt><trkpt lat="38.720954068987076" lon="16.3511498269045"><ele>934.0</ele><time>2026-04-27T15:39:15Z</time></trkpt><trkpt lat="38.72091781233872" lon="16.35104885997558"><ele>933.0</ele><time>2026-04-27T15:39:17Z</time></trkpt><trkpt lat="38.720908898619015" lon="16.3509477123701"><ele>933.0</ele><time>2026-04-27T15:39:20Z</time></trkpt><trkpt lat="38.720889244856124" lon="16.350862274598505"><ele>932.9999999999999</ele><time>2026-04-27T15:39:26Z</time></trkpt><trkpt lat="38.72084943776397" lon="16.350774059271583"><ele>933.0</ele><time>2026-04-27T15:39:33.999Z</time></trkpt><trkpt lat="38.72081213696734" lon="16.35070448629107"><ele>933.0</ele><time>2026-04-27T15:39:36.999Z</time></trkpt><trkpt lat="38.72079206689699" lon="16.35061747785556"><ele>932.9999999999999</ele><time>2026-04-27T15:39:39.999Z</time></trkpt><trkpt lat="38.72077367271151" lon="16.350534230786824"><ele>933.0</ele><time>2026-04-27T15:39:43.999Z</time></trkpt><trkpt lat="38.720710875003185" lon="16.350540924868003"><ele>933.0</ele><time>2026-04-27T15:41:48.999Z</time></trkpt><trkpt lat="38.72067607394951" lon="16.350448134810012"><ele>933.0</ele><time>2026-04-27T15:42:25.999Z</time></trkpt><trkpt lat="38.72068366258675" lon="16.350574495430894"><ele>933.0</ele><time>2026-04-27T15:45:30.999Z</time></trkpt><trkpt lat="38.72062444792685" lon="16.350508733808308"><ele>933.0</ele><time>2026-04-27T15:46:06.999Z</time></trkpt><trkpt lat="38.72054624727048" lon="16.35053187377227"><ele>933.0</ele><time>2026-04-27T15:47:49.999Z</time></trkpt><trkpt lat="38.72047792174566" lon="16.350581039980895"><ele>933.0</ele><time>2026-04-27T15:47:51.999Z</time></trkpt><trkpt lat="38.72041197109563" lon="16.350632491417862"><ele>933.0</ele><time>2026-04-27T15:47:53.999Z</time></trkpt><trkpt lat="38.7203299913846" lon="16.350675979365413"><ele>933.0</ele><time>2026-04-27T15:47:55.999Z</time></trkpt><trkpt lat="38.720268654607786" lon="16.3507754616377"><ele>933.0</ele><time>2026-04-27T15:47:57.999Z</time></trkpt><trkpt lat="38.720206328976516" lon="16.35089150872937"><ele>933.0</ele><time>2026-04-27T15:47:59.999Z</time></trkpt><trkpt lat="38.72013102582196" lon="16.35098777732575"><ele>933.0</ele><time>2026-04-27T15:48:01.999Z</time></trkpt><trkpt lat="38.72005738654726" lon="16.35101143764332"><ele>933.0</ele><time>2026-04-27T15:48:03.999Z</time></trkpt><trkpt lat="38.71998064512538" lon="16.351043764235982"><ele>930.8</ele><time>2026-04-27T15:48:05.999Z</time></trkpt><trkpt lat="38.71990890479995" lon="16.351084141416962"><ele>928.5999999999999</ele><time>2026-04-27T15:48:08.999Z</time></trkpt><trkpt lat="38.719814430114766" lon="16.35109043749436"><ele>926.4000000000001</ele><time>2026-04-27T15:48:10.999Z</time></trkpt><trkpt lat="38.71968105677594" lon="16.351144068992937"><ele>924.2</ele><time>2026-04-27T15:48:11.999Z</time></trkpt><trkpt lat="38.71959358075335" lon="16.35112961109341"><ele>922.0</ele><time>2026-04-27T15:48:12.999Z</time></trkpt><trkpt lat="38.71951317315888" lon="16.35112047385517"><ele>922.0</ele><time>2026-04-27T15:48:13.999Z</time></trkpt><trkpt lat="38.71941782599145" lon="16.351160413859123"><ele>922.0</ele><time>2026-04-27T15:48:15.999Z</time></trkpt><trkpt lat="38.719349531418445" lon="16.351236963571942"><ele>922.0</ele><time>2026-04-27T15:48:16.999Z</time></trkpt><trkpt lat="38.719276687333924" lon="16.35131133510505"><ele>922.0</ele><time>2026-04-27T15:48:17.999Z</time></trkpt><trkpt lat="38.719168651678864" lon="16.351392594106798"><ele>922.0</ele><time>2026-04-27T15:48:18.999Z</time></trkpt><trkpt lat="38.71904706755993" lon="16.351477874449074"><ele>920.6</ele><time>2026-04-27T15:48:19.999Z</time></trkpt><trkpt lat="38.71894788301667" lon="16.35155998377203"><ele>919.2</ele><time>2026-04-27T15:48:20.999Z</time></trkpt><trkpt lat="38.71886445949685" lon="16.351601532596256"><ele>917.8</ele><time>2026-04-27T15:48:21.999Z</time></trkpt><trkpt lat="38.71875812299968" lon="16.351635699355448"><ele>916.4</ele><time>2026-04-27T15:48:23.999Z</time></trkpt><trkpt lat="38.718668468810606" lon="16.35168529240419"><ele>915.0</ele><time>2026-04-27T15:48:24.999Z</time></trkpt><trkpt lat="38.71856326271069" lon="16.351741084863452"><ele>915.0</ele><time>2026-04-27T15:48:25.999Z</time></trkpt><trkpt lat="38.71847870499949" lon="16.35178642097043"><ele>915.0</ele><time>2026-04-27T15:48:26.999Z</time></trkpt><trkpt lat="38.71839264081762" lon="16.351821845536627"><ele>915.0</ele><time>2026-04-27T15:48:27.999Z</time></trkpt><trkpt lat="38.71829642544745" lon="16.351855075356244"><ele>915.0</ele><time>2026-04-27T15:48:28.999Z</time></trkpt><trkpt lat="38.71821289004612" lon="16.35188024443644"><ele>915.0</ele><time>2026-04-27T15:48:29.999Z</time></trkpt><trkpt lat="38.71815203830051" lon="16.351906977119775"><ele>915.0</ele><time>2026-04-27T15:48:30.999Z</time></trkpt><trkpt lat="38.718199396117114" lon="16.351975665872374"><ele>915.0</ele><time>2026-04-27T15:48:31.999Z</time></trkpt><trkpt lat="38.71808262434784" lon="16.352030026406563"><ele>915.0</ele><time>2026-04-27T15:48:32.999Z</time></trkpt><trkpt lat="38.71800278245166" lon="16.352068011382098"><ele>915.0</ele><time>2026-04-27T15:48:33.999Z</time></trkpt><trkpt lat="38.71792779718504" lon="16.35209632247285"><ele>915.0</ele><time>2026-04-27T15:48:34.999Z</time></trkpt><trkpt lat="38.71782251494734" lon="16.35212762484911"><ele>915.0</ele><time>2026-04-27T15:48:35.999Z</time></trkpt><trkpt lat="38.71769179604456" lon="16.352142455382538"><ele>914.6</ele><time>2026-04-27T15:48:36.999Z</time></trkpt><trkpt lat="38.71758531026441" lon="16.35214527834739"><ele>914.2</ele><time>2026-04-27T15:48:37.999Z</time></trkpt><trkpt lat="38.71749471928091" lon="16.35215196939432"><ele>913.8</ele><time>2026-04-27T15:48:38.999Z</time></trkpt><trkpt lat="38.717397752208676" lon="16.352163944160154"><ele>913.4</ele><time>2026-04-27T15:48:39.999Z</time></trkpt><trkpt lat="38.71730022734023" lon="16.3521723686034"><ele>913.0</ele><time>2026-04-27T15:48:40.999Z</time></trkpt><trkpt lat="38.71721710274295" lon="16.352177869135584"><ele>913.0</ele><time>2026-04-27T15:48:41.999Z</time></trkpt><trkpt lat="38.71713446813572" lon="16.352180203018758"><ele>913.0</ele><time>2026-04-27T15:48:42.999Z</time></trkpt><trkpt lat="38.71704895863261" lon="16.35218501405329"><ele>913.0</ele><time>2026-04-27T15:48:43.999Z</time></trkpt><trkpt lat="38.71695759620446" lon="16.352182473465255"><ele>913.0</ele><time>2026-04-27T15:48:44.999Z</time></trkpt><trkpt lat="38.71685967194115" lon="16.352182246996414"><ele>913.0</ele><time>2026-04-27T15:48:45.999Z</time></trkpt><trkpt lat="38.716760003154874" lon="16.352178164440375"><ele>912.6666666666666</ele><time>2026-04-27T15:48:46.999Z</time></trkpt><trkpt lat="38.716677155424804" lon="16.3521779546486"><ele>912.3333333333333</ele><time>2026-04-27T15:48:47.999Z</time></trkpt><trkpt lat="38.716569101096184" lon="16.352186801926443"><ele>912.0</ele><time>2026-04-27T15:48:49.999Z</time></trkpt><trkpt lat="38.716495128280414" lon="16.352223717266522"><ele>911.6666666666667</ele><time>2026-04-27T15:48:50.999Z</time></trkpt><trkpt lat="38.71641610850458" lon="16.352259367073504"><ele>911.3333333333334</ele><time>2026-04-27T15:48:51.999Z</time></trkpt><trkpt lat="38.716330037688024" lon="16.35229086914184"><ele>911.0</ele><time>2026-04-27T15:48:52.999Z</time></trkpt><trkpt lat="38.71623938372092" lon="16.352325119361293"><ele>910.6666666666667</ele><time>2026-04-27T15:48:53.999Z</time></trkpt><trkpt lat="38.716155178152334" lon="16.35236982437279"><ele>910.3333333333334</ele><time>2026-04-27T15:48:54.999Z</time></trkpt><trkpt lat="38.7160777028222" lon="16.352414241776284"><ele>910.0</ele><time>2026-04-27T15:48:55.999Z</time></trkpt><trkpt lat="38.716008267229164" lon="16.35246694209055"><ele>909.6666666666667</ele><time>2026-04-27T15:48:57Z</time></trkpt><trkpt lat="38.7159639135598" lon="16.35254633106357"><ele>909.3333333333334</ele><time>2026-04-27T15:48:58Z</time></trkpt><trkpt lat="38.71592068940793" lon="16.352622344853913"><ele>909.0</ele><time>2026-04-27T15:48:59Z</time></trkpt><trkpt lat="38.71587526744914" lon="16.35269466373556"><ele>909.0</ele><time>2026-04-27T15:49:00Z</time></trkpt><trkpt lat="38.715810407355505" lon="16.35283378403763"><ele>909.0000000000001</ele><time>2026-04-27T15:49:02Z</time></trkpt><trkpt lat="38.715758438464164" lon="16.352902840792392"><ele>909.0000000000001</ele><time>2026-04-27T15:49:03Z</time></trkpt><trkpt lat="38.71570609031708" lon="16.352970237521948"><ele>909.0</ele><time>2026-04-27T15:49:04Z</time></trkpt><trkpt lat="38.71559717029242" lon="16.353071329424775"><ele>909.0</ele><time>2026-04-27T15:49:06Z</time></trkpt><trkpt lat="38.71553968276065" lon="16.35313587646599"><ele>907.5</ele><time>2026-04-27T15:49:07Z</time></trkpt><trkpt lat="38.7154845078319" lon="16.353184912584513"><ele>906.0</ele><time>2026-04-27T15:49:08Z</time></trkpt><trkpt lat="38.715390433139994" lon="16.353270435411673"><ele>904.5</ele><time>2026-04-27T15:49:10Z</time></trkpt><trkpt lat="38.71530990548497" lon="16.353382879394292"><ele>903.0</ele><time>2026-04-27T15:49:12Z</time></trkpt><trkpt lat="38.71525105822996" lon="16.353425383868686"><ele>901.5</ele><time>2026-04-27T15:49:13Z</time></trkpt><trkpt lat="38.71518178128021" lon="16.353437416187926"><ele>900.0</ele><time>2026-04-27T15:49:14Z</time></trkpt><trkpt lat="38.715105243010385" lon="16.353454523728274"><ele>899.5</ele><time>2026-04-27T15:49:15Z</time></trkpt><trkpt lat="38.71503132802148" lon="16.353489323209583"><ele>899.0</ele><time>2026-04-27T15:49:16Z</time></trkpt><trkpt lat="38.71495599017695" lon="16.35349360348787"><ele>898.5</ele><time>2026-04-27T15:49:17Z</time></trkpt><trkpt lat="38.71488776191317" lon="16.35346775775845"><ele>898.0</ele><time>2026-04-27T15:49:18Z</time></trkpt><trkpt lat="38.714823846523046" lon="16.353444764450096"><ele>897.5</ele><time>2026-04-27T15:49:19Z</time></trkpt><trkpt lat="38.71471868920897" lon="16.35341769054075"><ele>897.0</ele><time>2026-04-27T15:49:21Z</time></trkpt><trkpt lat="38.71461276683074" lon="16.353386698844485"><ele>897.0</ele><time>2026-04-27T15:49:23Z</time></trkpt><trkpt lat="38.7145197603904" lon="16.353368333539123"><ele>897.0</ele><time>2026-04-27T15:49:24Z</time></trkpt><trkpt lat="38.71441716919282" lon="16.35335730598515"><ele>897.0</ele><time>2026-04-27T15:49:25Z</time></trkpt><trkpt lat="38.71433174921532" lon="16.353376005659555"><ele>897.0</ele><time>2026-04-27T15:49:26Z</time></trkpt><trkpt lat="38.71424859161797" lon="16.353439043074154"><ele>897.0</ele><time>2026-04-27T15:49:27Z</time></trkpt><trkpt lat="38.714190259740434" lon="16.35350659858316"><ele>896.5</ele><time>2026-04-27T15:49:28Z</time></trkpt><trkpt lat="38.714140735249615" lon="16.353591024698286"><ele>896.0</ele><time>2026-04-27T15:49:30Z</time></trkpt><trkpt lat="38.71409624906026" lon="16.353651195455903"><ele>895.5</ele><time>2026-04-27T15:49:32Z</time></trkpt><trkpt lat="38.71404723035473" lon="16.353755896943944"><ele>895.0</ele><time>2026-04-27T15:49:34Z</time></trkpt><trkpt lat="38.714005250178396" lon="16.35383579330489"><ele>894.5</ele><time>2026-04-27T15:49:38Z</time></trkpt><trkpt lat="38.71396592085526" lon="16.353920042914247"><ele>894.0</ele><time>2026-04-27T15:49:40Z</time></trkpt><trkpt lat="38.71393245890522" lon="16.354004656961067"><ele>892.0</ele><time>2026-04-27T15:49:56Z</time></trkpt><trkpt lat="38.71391100660234" lon="16.35408452199674"><ele>890.0000000000001</ele><time>2026-04-27T15:49:57Z</time></trkpt><trkpt lat="38.71388889360686" lon="16.35420536806233"><ele>888.0000000000001</ele><time>2026-04-27T15:49:58Z</time></trkpt><trkpt lat="38.71386929586749" lon="16.354317420504092"><ele>886.0</ele><time>2026-04-27T15:49:59Z</time></trkpt><trkpt lat="38.713827348310794" lon="16.354415928428153"><ele>884.0</ele><time>2026-04-27T15:50:00Z</time></trkpt><trkpt lat="38.71377530656374" lon="16.354569572892558"><ele>884.0</ele><time>2026-04-27T15:50:01Z</time></trkpt><trkpt lat="38.71371495128503" lon="16.354675276807725"><ele>884.0000000000001</ele><time>2026-04-27T15:50:02Z</time></trkpt><trkpt lat="38.71367565896123" lon="16.354764691349544"><ele>884.0000000000001</ele><time>2026-04-27T15:50:03Z</time></trkpt><trkpt lat="38.71363849075958" lon="16.354848889783383"><ele>884.0</ele><time>2026-04-27T15:50:04Z</time></trkpt><trkpt lat="38.71359111279809" lon="16.354983328607553"><ele>884.0</ele><time>2026-04-27T15:50:06Z</time></trkpt><trkpt lat="38.71358316422522" lon="16.355153937203053"><ele>883.0000000000001</ele><time>2026-04-27T15:50:08Z</time></trkpt><trkpt lat="38.71358605736682" lon="16.35523738783765"><ele>882.0</ele><time>2026-04-27T15:50:09Z</time></trkpt><trkpt lat="38.71358477014025" lon="16.35532443494951"><ele>881.0</ele><time>2026-04-27T15:50:10Z</time></trkpt><trkpt lat="38.71357936552776" lon="16.355428957964246"><ele>880.0</ele><time>2026-04-27T15:50:11Z</time></trkpt><trkpt lat="38.71357891226375" lon="16.35555872880344"><ele>879.0000000000001</ele><time>2026-04-27T15:50:12Z</time></trkpt><trkpt lat="38.713582446564686" lon="16.355720945245942"><ele>878.0</ele><time>2026-04-27T15:50:13Z</time></trkpt><trkpt lat="38.713599590415754" lon="16.355911841542422"><ele>876.25</ele><time>2026-04-27T15:50:13.999Z</time></trkpt><trkpt lat="38.7135907815726" lon="16.35609366467335"><ele>874.5</ele><time>2026-04-27T15:50:14.999Z</time></trkpt><trkpt lat="38.71356799238846" lon="16.35625056410616"><ele>872.75</ele><time>2026-04-27T15:50:15.999Z</time></trkpt><trkpt lat="38.71354925789528" lon="16.356395286799103"><ele>871.0</ele><time>2026-04-27T15:50:16.999Z</time></trkpt><trkpt lat="38.71350371064917" lon="16.356540665943086"><ele>875.5</ele><time>2026-04-27T15:50:17.999Z</time></trkpt><trkpt lat="38.7134437707492" lon="16.356704680817934"><ele>880.0</ele><time>2026-04-27T15:50:18.999Z</time></trkpt><trkpt lat="38.71337759587161" lon="16.35688885133904"><ele>884.5</ele><time>2026-04-27T15:50:19.999Z</time></trkpt><trkpt lat="38.71332440772381" lon="16.357066799408546"><ele>889.0</ele><time>2026-04-27T15:50:20.999Z</time></trkpt><trkpt lat="38.71328445480696" lon="16.357223229166458"><ele>889.0</ele><time>2026-04-27T15:50:21.999Z</time></trkpt><trkpt lat="38.71322133033845" lon="16.357368104757292"><ele>889.0000000000001</ele><time>2026-04-27T15:50:22.999Z</time></trkpt><trkpt lat="38.7131914128226" lon="16.3575254324725"><ele>889.0000000000001</ele><time>2026-04-27T15:50:23.999Z</time></trkpt><trkpt lat="38.71317175466141" lon="16.35763076235697"><ele>889.0</ele><time>2026-04-27T15:50:24.999Z</time></trkpt><trkpt lat="38.713163390223855" lon="16.357719911219164"><ele>889.0</ele><time>2026-04-27T15:50:25.999Z</time></trkpt><trkpt lat="38.713141841506214" lon="16.357828157649482"><ele>889.0</ele><time>2026-04-27T15:50:26.999Z</time></trkpt><trkpt lat="38.71310351735088" lon="16.35797009497513"><ele>889.0000000000001</ele><time>2026-04-27T15:50:27.999Z</time></trkpt><trkpt lat="38.71309418840983" lon="16.358110113379176"><ele>889.0000000000001</ele><time>2026-04-27T15:50:28.999Z</time></trkpt><trkpt lat="38.71307882809148" lon="16.358253110979927"><ele>889.0</ele><time>2026-04-27T15:50:29.999Z</time></trkpt><trkpt lat="38.71304717181493" lon="16.35838757284002"><ele>889.0</ele><time>2026-04-27T15:50:30.999Z</time></trkpt><trkpt lat="38.713007069032294" lon="16.358552501021002"><ele>888.2</ele><time>2026-04-27T15:50:31.999Z</time></trkpt><trkpt lat="38.712993946034835" lon="16.35869258066889"><ele>887.4000000000001</ele><time>2026-04-27T15:50:32.999Z</time></trkpt><trkpt lat="38.71296502185251" lon="16.358821260979212"><ele>886.6</ele><time>2026-04-27T15:50:33.999Z</time></trkpt><trkpt lat="38.71291960516065" lon="16.358933698893203"><ele>885.8</ele><time>2026-04-27T15:50:34.999Z</time></trkpt><trkpt lat="38.71285966373337" lon="16.35904944453314"><ele>885.0</ele><time>2026-04-27T15:50:35.999Z</time></trkpt><trkpt lat="38.71281341293406" lon="16.35916133525775"><ele>883.2</ele><time>2026-04-27T15:50:36.999Z</time></trkpt><trkpt lat="38.71269099174977" lon="16.359161327364884"><ele>881.4</ele><time>2026-04-27T15:50:38.999Z</time></trkpt><trkpt lat="38.712587498652525" lon="16.35914789055788"><ele>879.5999999999999</ele><time>2026-04-27T15:50:39.999Z</time></trkpt><trkpt lat="38.71247580610879" lon="16.359111514820626"><ele>877.8</ele><time>2026-04-27T15:50:40.999Z</time></trkpt><trkpt lat="38.712396867597946" lon="16.359066623997485"><ele>876.0</ele><time>2026-04-27T15:50:41.999Z</time></trkpt><trkpt lat="38.712324251556886" lon="16.358985203349572"><ele>876.0</ele><time>2026-04-27T15:50:42.999Z</time></trkpt><trkpt lat="38.71225050268666" lon="16.35889901343832"><ele>875.9999999999999</ele><time>2026-04-27T15:50:43.999Z</time></trkpt><trkpt lat="38.71219438523688" lon="16.358779156635652"><ele>875.9999999999999</ele><time>2026-04-27T15:50:44.999Z</time></trkpt><trkpt lat="38.712148105968474" lon="16.358660434111634"><ele>876.0</ele><time>2026-04-27T15:50:45.999Z</time></trkpt><trkpt lat="38.71206979464287" lon="16.358529812999954"><ele>876.0</ele><time>2026-04-27T15:50:47.999Z</time></trkpt><trkpt lat="38.71199633992902" lon="16.35847819430196"><ele>879.0</ele><time>2026-04-27T15:50:48.999Z</time></trkpt><trkpt lat="38.711911240476326" lon="16.358477050799454"><ele>881.9999999999999</ele><time>2026-04-27T15:50:49.999Z</time></trkpt><trkpt lat="38.7118246016267" lon="16.358497987575817"><ele>884.9999999999999</ele><time>2026-04-27T15:50:50.999Z</time></trkpt><trkpt lat="38.71175016731562" lon="16.358537554639724"><ele>888.0</ele><time>2026-04-27T15:50:51.999Z</time></trkpt><trkpt lat="38.71168249331467" lon="16.358616448369823"><ele>891.0</ele><time>2026-04-27T15:50:52.999Z</time></trkpt><trkpt lat="38.71162745871888" lon="16.358741580723493"><ele>886.0</ele><time>2026-04-27T15:50:53.999Z</time></trkpt><trkpt lat="38.711586590532974" lon="16.358899833001665"><ele>881.0</ele><time>2026-04-27T15:50:54.999Z</time></trkpt><trkpt lat="38.71151610038974" lon="16.359043444546423"><ele>876.0</ele><time>2026-04-27T15:50:56Z</time></trkpt><trkpt lat="38.7114487123128" lon="16.359165919746644"><ele>871.0</ele><time>2026-04-27T15:50:57Z</time></trkpt><trkpt lat="38.71140160388332" lon="16.35928253143048"><ele>871.0</ele><time>2026-04-27T15:50:58Z</time></trkpt><trkpt lat="38.71134487021297" lon="16.35936320040064"><ele>870.9999999999999</ele><time>2026-04-27T15:50:59Z</time></trkpt><trkpt lat="38.711234474104664" lon="16.359437400021005"><ele>870.9999999999999</ele><time>2026-04-27T15:51:01Z</time></trkpt><trkpt lat="38.711135511450564" lon="16.35947745311332"><ele>871.0</ele><time>2026-04-27T15:51:02Z</time></trkpt><trkpt lat="38.71104701709393" lon="16.359410376736967"><ele>871.0</ele><time>2026-04-27T15:51:03Z</time></trkpt><trkpt lat="38.71093155932925" lon="16.359385401129945"><ele>871.0</ele><time>2026-04-27T15:51:04Z</time></trkpt><trkpt lat="38.710813893148604" lon="16.359335504360697"><ele>870.9999999999999</ele><time>2026-04-27T15:51:05Z</time></trkpt><trkpt lat="38.71074420013108" lon="16.359249934192505"><ele>870.9999999999999</ele><time>2026-04-27T15:51:06Z</time></trkpt><trkpt lat="38.710694293342655" lon="16.35915912882906"><ele>871.0</ele><time>2026-04-27T15:51:07Z</time></trkpt><trkpt lat="38.71065506340895" lon="16.35904568091902"><ele>871.0</ele><time>2026-04-27T15:51:08Z</time></trkpt><trkpt lat="38.71060762754275" lon="16.358891912279507"><ele>872.9999999999999</ele><time>2026-04-27T15:51:09Z</time></trkpt><trkpt lat="38.71055326391996" lon="16.358766564067558"><ele>875.0</ele><time>2026-04-27T15:51:10Z</time></trkpt><trkpt lat="38.71050928697478" lon="16.35868259901043"><ele>877.0</ele><time>2026-04-27T15:51:11Z</time></trkpt><trkpt lat="38.71046482625394" lon="16.358598623401775"><ele>879.0</ele><time>2026-04-27T15:51:12Z</time></trkpt><trkpt lat="38.71040846602505" lon="16.358547024551832"><ele>880.9999999999999</ele><time>2026-04-27T15:51:13Z</time></trkpt><trkpt lat="38.71032154691969" lon="16.358541666739814"><ele>883.0</ele><time>2026-04-27T15:51:14Z</time></trkpt><trkpt lat="38.710220583733964" lon="16.35856668353081"><ele>883.0</ele><time>2026-04-27T15:51:15Z</time></trkpt><trkpt lat="38.710103307328296" lon="16.358597209716265"><ele>883.0</ele><time>2026-04-27T15:51:16Z</time></trkpt><trkpt lat="38.709971642908144" lon="16.358613130025173"><ele>883.0</ele><time>2026-04-27T15:51:17Z</time></trkpt><trkpt lat="38.709860878112714" lon="16.358627260092955"><ele>883.0</ele><time>2026-04-27T15:51:18Z</time></trkpt><trkpt lat="38.70979158261841" lon="16.358654397846294"><ele>883.0</ele><time>2026-04-27T15:51:19Z</time></trkpt><trkpt lat="38.70973352932311" lon="16.358741455792636"><ele>883.0</ele><time>2026-04-27T15:51:20Z</time></trkpt><trkpt lat="38.70967157446328" lon="16.35886512678137"><ele>883.0</ele><time>2026-04-27T15:51:21Z</time></trkpt><trkpt lat="38.70961123884004" lon="16.359002083130918"><ele>883.0</ele><time>2026-04-27T15:51:22Z</time></trkpt><trkpt lat="38.709562026480214" lon="16.359095507409805"><ele>883.0</ele><time>2026-04-27T15:51:23Z</time></trkpt><trkpt lat="38.70947023777743" lon="16.35914203524059"><ele>883.0</ele><time>2026-04-27T15:51:25Z</time></trkpt><trkpt lat="38.70939836296146" lon="16.35913980878682"><ele>880.25</ele><time>2026-04-27T15:51:26Z</time></trkpt><trkpt lat="38.709296810494486" lon="16.359146163057183"><ele>877.5</ele><time>2026-04-27T15:51:27Z</time></trkpt><trkpt lat="38.709173902637595" lon="16.359162156115783"><ele>874.75</ele><time>2026-04-27T15:51:28Z</time></trkpt><trkpt lat="38.709044360406025" lon="16.359178892424044"><ele>872.0</ele><time>2026-04-27T15:51:29Z</time></trkpt><trkpt lat="38.708934901793995" lon="16.359204421949062"><ele>872.0</ele><time>2026-04-27T15:51:30Z</time></trkpt><trkpt lat="38.708837491480466" lon="16.35922104921865"><ele>872.0</ele><time>2026-04-27T15:51:31Z</time></trkpt><trkpt lat="38.70875699155392" lon="16.359221849336194"><ele>872.0</ele><time>2026-04-27T15:51:32Z</time></trkpt><trkpt lat="38.70867554157326" lon="16.359205745002665"><ele>872.0</ele><time>2026-04-27T15:51:33Z</time></trkpt><trkpt lat="38.70859453742391" lon="16.35914787537623"><ele>872.0</ele><time>2026-04-27T15:51:34Z</time></trkpt><trkpt lat="38.70850176053936" lon="16.35905873188174"><ele>871.5</ele><time>2026-04-27T15:51:35Z</time></trkpt><trkpt lat="38.708377486390496" lon="16.358939720669497"><ele>871.0</ele><time>2026-04-27T15:51:36Z</time></trkpt><trkpt lat="38.70826968048441" lon="16.35882998192724"><ele>870.5</ele><time>2026-04-27T15:51:37Z</time></trkpt><trkpt lat="38.70816514414167" lon="16.358739176296762"><ele>870.0</ele><time>2026-04-27T15:51:38Z</time></trkpt><trkpt lat="38.70806389577055" lon="16.3586306047796"><ele>868.5</ele><time>2026-04-27T15:51:39Z</time></trkpt><trkpt lat="38.707987735844924" lon="16.35852604657571"><ele>867.0</ele><time>2026-04-27T15:51:40Z</time></trkpt><trkpt lat="38.70790384235154" lon="16.358430199067648"><ele>865.5</ele><time>2026-04-27T15:51:41Z</time></trkpt><trkpt lat="38.707807278970044" lon="16.358306208014707"><ele>864.0</ele><time>2026-04-27T15:51:42Z</time></trkpt><trkpt lat="38.70772869826661" lon="16.35820388883659"><ele>864.0</ele><time>2026-04-27T15:51:43Z</time></trkpt><trkpt lat="38.70764802362612" lon="16.358142742615858"><ele>864.0000000000001</ele><time>2026-04-27T15:51:44Z</time></trkpt><trkpt lat="38.70757816309011" lon="16.35805620850279"><ele>864.0000000000001</ele><time>2026-04-27T15:51:45Z</time></trkpt><trkpt lat="38.70748907689523" lon="16.35798587677639"><ele>864.0</ele><time>2026-04-27T15:51:46Z</time></trkpt><trkpt lat="38.70736521114938" lon="16.357927579049832"><ele>864.0</ele><time>2026-04-27T15:51:47Z</time></trkpt><trkpt lat="38.70721358953358" lon="16.357829957737717"><ele>863.5</ele><time>2026-04-27T15:51:48Z</time></trkpt><trkpt lat="38.7070679584864" lon="16.35774106214427"><ele>863.0</ele><time>2026-04-27T15:51:49Z</time></trkpt><trkpt lat="38.70695301392886" lon="16.357664064134333"><ele>862.5</ele><time>2026-04-27T15:51:50Z</time></trkpt><trkpt lat="38.706849319201524" lon="16.357596695479707"><ele>862.0</ele><time>2026-04-27T15:51:51Z</time></trkpt><trkpt lat="38.70674393936059" lon="16.35755427634157"><ele>862.0</ele><time>2026-04-27T15:51:52Z</time></trkpt><trkpt lat="38.70662861648515" lon="16.35750123164588"><ele>862.0</ele><time>2026-04-27T15:51:53Z</time></trkpt><trkpt lat="38.7065039818548" lon="16.357460166812878"><ele>862.0</ele><time>2026-04-27T15:51:54Z</time></trkpt><trkpt lat="38.70639140938856" lon="16.357417668466"><ele>862.0</ele><time>2026-04-27T15:51:55Z</time></trkpt><trkpt lat="38.70629704479496" lon="16.35738813855503"><ele>862.0</ele><time>2026-04-27T15:51:56Z</time></trkpt><trkpt lat="38.706194045378034" lon="16.357367640928274"><ele>862.0</ele><time>2026-04-27T15:51:57Z</time></trkpt><trkpt lat="38.706089041351355" lon="16.357323966921676"><ele>862.0</ele><time>2026-04-27T15:51:58Z</time></trkpt><trkpt lat="38.70598419111504" lon="16.35726717157841"><ele>862.0</ele><time>2026-04-27T15:51:59Z</time></trkpt><trkpt lat="38.705880392931654" lon="16.35722955617417"><ele>862.0</ele><time>2026-04-27T15:52:00Z</time></trkpt><trkpt lat="38.70577842353052" lon="16.35722234487299"><ele>861.0</ele><time>2026-04-27T15:52:01Z</time></trkpt><trkpt lat="38.70564116487806" lon="16.357243724024922"><ele>860.0</ele><time>2026-04-27T15:52:02Z</time></trkpt><trkpt lat="38.70551514578333" lon="16.357250282917327"><ele>859.0</ele><time>2026-04-27T15:52:03Z</time></trkpt><trkpt lat="38.705429031063524" lon="16.357246176314582"><ele>858.0</ele><time>2026-04-27T15:52:04Z</time></trkpt><trkpt lat="38.70533229787683" lon="16.35724804285055"><ele>857.0</ele><time>2026-04-27T15:52:05Z</time></trkpt><trkpt lat="38.70524415727369" lon="16.357258764340447"><ele>855.3333333333334</ele><time>2026-04-27T15:52:06Z</time></trkpt><trkpt lat="38.70517485348717" lon="16.357284914033453"><ele>853.6666666666667</ele><time>2026-04-27T15:52:07Z</time></trkpt><trkpt lat="38.70511098694793" lon="16.35733357075431"><ele>852.0</ele><time>2026-04-27T15:52:08Z</time></trkpt><trkpt lat="38.705053467976114" lon="16.35741153198189"><ele>850.3333333333333</ele><time>2026-04-27T15:52:09Z</time></trkpt><trkpt lat="38.7050187662781" lon="16.357506089293068"><ele>848.6666666666666</ele><time>2026-04-27T15:52:10Z</time></trkpt><trkpt lat="38.704986688701204" lon="16.357624389115088"><ele>847.0</ele><time>2026-04-27T15:52:11Z</time></trkpt><trkpt lat="38.70494103350121" lon="16.357732144294356"><ele>847.0</ele><time>2026-04-27T15:52:12Z</time></trkpt><trkpt lat="38.70488236158605" lon="16.35783764293459"><ele>847.0</ele><time>2026-04-27T15:52:13Z</time></trkpt><trkpt lat="38.704831130464534" lon="16.357923973821148"><ele>847.0</ele><time>2026-04-27T15:52:14Z</time></trkpt><trkpt lat="38.70474364409101" lon="16.358042879811546"><ele>847.0</ele><time>2026-04-27T15:52:16Z</time></trkpt><trkpt lat="38.70469173114068" lon="16.35810283868503"><ele>847.0</ele><time>2026-04-27T15:52:17Z</time></trkpt><trkpt lat="38.70458096109929" lon="16.358131399858774"><ele>847.0</ele><time>2026-04-27T15:52:19Z</time></trkpt><trkpt lat="38.704498361703195" lon="16.358078594858256"><ele>847.0</ele><time>2026-04-27T15:52:20Z</time></trkpt><trkpt lat="38.704425191304686" lon="16.358009465977297"><ele>847.0</ele><time>2026-04-27T15:52:21Z</time></trkpt><trkpt lat="38.70436538482786" lon="16.357914145607786"><ele>847.0</ele><time>2026-04-27T15:52:22Z</time></trkpt><trkpt lat="38.70432160729808" lon="16.357813907742113"><ele>847.0</ele><time>2026-04-27T15:52:23Z</time></trkpt><trkpt lat="38.70427709396971" lon="16.357711817148925"><ele>844.4999999999999</ele><time>2026-04-27T15:52:24Z</time></trkpt><trkpt lat="38.70422659021097" lon="16.357619368904494"><ele>842.0</ele><time>2026-04-27T15:52:25Z</time></trkpt><trkpt lat="38.70414893208102" lon="16.357561988345385"><ele>839.5</ele><time>2026-04-27T15:52:27Z</time></trkpt><trkpt lat="38.70404684717215" lon="16.357580491503086"><ele>837.0</ele><time>2026-04-27T15:52:29Z</time></trkpt><trkpt lat="38.704025525760386" lon="16.357660280640484"><ele>834.4999999999999</ele><time>2026-04-27T15:52:30Z</time></trkpt><trkpt lat="38.70403140279732" lon="16.35774924417217"><ele>832.0</ele><time>2026-04-27T15:52:31Z</time></trkpt><trkpt lat="38.70409442053692" lon="16.35790137766043"><ele>831.0</ele><time>2026-04-27T15:52:33Z</time></trkpt><trkpt lat="38.7041354360022" lon="16.358043164095825"><ele>830.0</ele><time>2026-04-27T15:52:34Z</time></trkpt><trkpt lat="38.7041760527958" lon="16.358181877958003"><ele>829.0</ele><time>2026-04-27T15:52:35Z</time></trkpt><trkpt lat="38.70419324173914" lon="16.358322678551353"><ele>828.0</ele><time>2026-04-27T15:52:36Z</time></trkpt><trkpt lat="38.70421022278101" lon="16.358411893098168"><ele>827.0</ele><time>2026-04-27T15:52:37Z</time></trkpt><trkpt lat="38.70423486135541" lon="16.35851402048205"><ele>827.0</ele><time>2026-04-27T15:52:38Z</time></trkpt><trkpt lat="38.704236345655374" lon="16.358605078498357"><ele>827.0</ele><time>2026-04-27T15:52:39Z</time></trkpt><trkpt lat="38.70417226782447" lon="16.358680645045922"><ele>827.0</ele><time>2026-04-27T15:52:41Z</time></trkpt><trkpt lat="38.70403135653709" lon="16.35867529796825"><ele>827.0</ele><time>2026-04-27T15:52:43Z</time></trkpt><trkpt lat="38.70394562888593" lon="16.358636376062424"><ele>827.0</ele><time>2026-04-27T15:52:44Z</time></trkpt><trkpt lat="38.70385672403635" lon="16.358565351112443"><ele>827.0</ele><time>2026-04-27T15:52:45Z</time></trkpt><trkpt lat="38.70375617754745" lon="16.358499266445264"><ele>827.0</ele><time>2026-04-27T15:52:46Z</time></trkpt><trkpt lat="38.70366236610142" lon="16.358401321328355"><ele>827.0</ele><time>2026-04-27T15:52:47Z</time></trkpt><trkpt lat="38.70357792493607" lon="16.35829875076944"><ele>827.0</ele><time>2026-04-27T15:52:48Z</time></trkpt><trkpt lat="38.703520262200556" lon="16.3582182465371"><ele>827.0</ele><time>2026-04-27T15:52:49Z</time></trkpt><trkpt lat="38.703468094975996" lon="16.358144771439257"><ele>824.4000000000001</ele><time>2026-04-27T15:52:50Z</time></trkpt><trkpt lat="38.70341505941186" lon="16.358075304147444"><ele>821.8000000000001</ele><time>2026-04-27T15:52:51Z</time></trkpt><trkpt lat="38.70336755972636" lon="16.35799630428098"><ele>819.2</ele><time>2026-04-27T15:52:52Z</time></trkpt><trkpt lat="38.70327386899097" lon="16.357923520595186"><ele>816.6</ele><time>2026-04-27T15:52:54Z</time></trkpt><trkpt lat="38.703151873905426" lon="16.357904986424547"><ele>814.0</ele><time>2026-04-27T15:52:56Z</time></trkpt><trkpt lat="38.70301813044683" lon="16.357965786739854"><ele>813.9999999999999</ele><time>2026-04-27T15:52:58Z</time></trkpt><trkpt lat="38.702940205813974" lon="16.358011016286262"><ele>814.0</ele><time>2026-04-27T15:52:59Z</time></trkpt><trkpt lat="38.70285591087366" lon="16.358059195614437"><ele>814.0</ele><time>2026-04-27T15:53:00Z</time></trkpt><trkpt lat="38.70278111710956" lon="16.358111658379155"><ele>814.0</ele><time>2026-04-27T15:53:01Z</time></trkpt><trkpt lat="38.70270506792364" lon="16.358161511603083"><ele>813.9999999999999</ele><time>2026-04-27T15:53:02Z</time></trkpt><trkpt lat="38.70263626767032" lon="16.358225705326777"><ele>814.0</ele><time>2026-04-27T15:53:03Z</time></trkpt><trkpt lat="38.70255428008461" lon="16.358298339652887"><ele>810.3333333333333</ele><time>2026-04-27T15:53:04Z</time></trkpt><trkpt lat="38.70247696416806" lon="16.358374047533143"><ele>806.6666666666666</ele><time>2026-04-27T15:53:05Z</time></trkpt><trkpt lat="38.70240246410946" lon="16.358440420645085"><ele>803.0</ele><time>2026-04-27T15:53:06Z</time></trkpt><trkpt lat="38.702330094155066" lon="16.358471826688902"><ele>799.3333333333333</ele><time>2026-04-27T15:53:07Z</time></trkpt><trkpt lat="38.70226665739827" lon="16.358496061504468"><ele>795.6666666666666</ele><time>2026-04-27T15:53:08Z</time></trkpt><trkpt lat="38.70221622223516" lon="16.35854710809883"><ele>792.0</ele><time>2026-04-27T15:53:09Z</time></trkpt><trkpt lat="38.70218251658829" lon="16.358626345920406"><ele>792.0</ele><time>2026-04-27T15:53:10Z</time></trkpt><trkpt lat="38.70213746265607" lon="16.358760597631818"><ele>792.0</ele><time>2026-04-27T15:53:11Z</time></trkpt><trkpt lat="38.702093546096265" lon="16.358930244146503"><ele>792.0</ele><time>2026-04-27T15:53:12Z</time></trkpt><trkpt lat="38.702053508178615" lon="16.35906185117204"><ele>792.0</ele><time>2026-04-27T15:53:13Z</time></trkpt><trkpt lat="38.70201423432762" lon="16.359180159832707"><ele>790.75</ele><time>2026-04-27T15:53:14Z</time></trkpt><trkpt lat="38.70196116045652" lon="16.359324116107437"><ele>789.5</ele><time>2026-04-27T15:53:15Z</time></trkpt><trkpt lat="38.70190509728936" lon="16.359497459797783"><ele>788.25</ele><time>2026-04-27T15:53:16Z</time></trkpt><trkpt lat="38.70186647439749" lon="16.359639662465423"><ele>787.0</ele><time>2026-04-27T15:53:17Z</time></trkpt><trkpt lat="38.701840522810514" lon="16.35973349471684"><ele>782.25</ele><time>2026-04-27T15:53:18Z</time></trkpt><trkpt lat="38.70177444703085" lon="16.35986000323054"><ele>777.5</ele><time>2026-04-27T15:53:20Z</time></trkpt><trkpt lat="38.70169545005774" lon="16.359901808780126"><ele>772.75</ele><time>2026-04-27T15:53:21Z</time></trkpt><trkpt lat="38.70156995568233" lon="16.35994060635542"><ele>768.0</ele><time>2026-04-27T15:53:22Z</time></trkpt><trkpt lat="38.70145085707028" lon="16.360004386534346"><ele>768.0</ele><time>2026-04-27T15:53:23Z</time></trkpt><trkpt lat="38.70136623624549" lon="16.36011844607119"><ele>768.0</ele><time>2026-04-27T15:53:24Z</time></trkpt><trkpt lat="38.701272537962794" lon="16.36025960158302"><ele>768.0</ele><time>2026-04-27T15:53:25Z</time></trkpt><trkpt lat="38.701181155283734" lon="16.360371543354514"><ele>768.0</ele><time>2026-04-27T15:53:26Z</time></trkpt><trkpt lat="38.70109505191754" lon="16.36045907578798"><ele>764.8</ele><time>2026-04-27T15:53:27Z</time></trkpt><trkpt lat="38.701041405227336" lon="16.36057349051487"><ele>761.5999999999999</ele><time>2026-04-27T15:53:28Z</time></trkpt><trkpt lat="38.700996640973635" lon="16.36070610361298"><ele>758.4000000000001</ele><time>2026-04-27T15:53:29Z</time></trkpt><trkpt lat="38.700970261909035" lon="16.360807241283503"><ele>755.2</ele><time>2026-04-27T15:53:30Z</time></trkpt><trkpt lat="38.70093169529793" lon="16.360873827958358"><ele>752.0</ele><time>2026-04-27T15:53:31Z</time></trkpt><trkpt lat="38.70082614344564" lon="16.36092124195547"><ele>752.0</ele><time>2026-04-27T15:53:33Z</time></trkpt><trkpt lat="38.700747669461" lon="16.36091003025492"><ele>752.0</ele><time>2026-04-27T15:53:34Z</time></trkpt><trkpt lat="38.700633023920226" lon="16.360907121508298"><ele>752.0</ele><time>2026-04-27T15:53:35Z</time></trkpt><trkpt lat="38.70050825100002" lon="16.360951243275395"><ele>752.0</ele><time>2026-04-27T15:53:36Z</time></trkpt><trkpt lat="38.700422969941854" lon="16.360968915526758"><ele>752.0</ele><time>2026-04-27T15:53:37Z</time></trkpt><trkpt lat="38.70032818064241" lon="16.36103251489944"><ele>751.6666666666666</ele><time>2026-04-27T15:53:38Z</time></trkpt><trkpt lat="38.70024128757297" lon="16.361078593332188"><ele>751.3333333333333</ele><time>2026-04-27T15:53:39Z</time></trkpt><trkpt lat="38.70015887467901" lon="16.36116010979957"><ele>751.0</ele><time>2026-04-27T15:53:40Z</time></trkpt><trkpt lat="38.700106108830454" lon="16.361211762397627"><ele>750.6666666666666</ele><time>2026-04-27T15:53:41Z</time></trkpt><trkpt lat="38.70003163627125" lon="16.36123159398032"><ele>750.3333333333334</ele><time>2026-04-27T15:53:42Z</time></trkpt><trkpt lat="38.69992483941222" lon="16.361232744904868"><ele>750.0</ele><time>2026-04-27T15:53:43Z</time></trkpt><trkpt lat="38.69981949299756" lon="16.36121538964825"><ele>750.0</ele><time>2026-04-27T15:53:44Z</time></trkpt><trkpt lat="38.6997061214586" lon="16.3612011785144"><ele>750.0</ele><time>2026-04-27T15:53:45Z</time></trkpt><trkpt lat="38.69957303423286" lon="16.361191533841282"><ele>750.0</ele><time>2026-04-27T15:53:46Z</time></trkpt><trkpt lat="38.699450966314664" lon="16.361188552517863"><ele>750.0</ele><time>2026-04-27T15:53:47Z</time></trkpt><trkpt lat="38.69931244159131" lon="16.36119688219696"><ele>747.0</ele><time>2026-04-27T15:53:48Z</time></trkpt><trkpt lat="38.699214899991475" lon="16.361204632401023"><ele>744.0</ele><time>2026-04-27T15:53:49Z</time></trkpt><trkpt lat="38.69910732132391" lon="16.361224834788867"><ele>741.0</ele><time>2026-04-27T15:53:50Z</time></trkpt><trkpt lat="38.699008716619396" lon="16.36122272382508"><ele>738.0</ele><time>2026-04-27T15:53:51Z</time></trkpt><trkpt lat="38.69891586164388" lon="16.36120909228687"><ele>735.0</ele><time>2026-04-27T15:53:52Z</time></trkpt><trkpt lat="38.69883887587762" lon="16.3611796036817"><ele>735.0</ele><time>2026-04-27T15:53:53Z</time></trkpt><trkpt lat="38.69873911646395" lon="16.36115573673012"><ele>735.0</ele><time>2026-04-27T15:53:55Z</time></trkpt><trkpt lat="38.69864027265247" lon="16.361233000874854"><ele>735.0</ele><time>2026-04-27T15:53:57Z</time></trkpt><trkpt lat="38.69859049080999" lon="16.361331166149018"><ele>735.0</ele><time>2026-04-27T15:53:59Z</time></trkpt><trkpt lat="38.69865398773451" lon="16.36145301421792"><ele>735.0</ele><time>2026-04-27T15:54:01Z</time></trkpt><trkpt lat="38.698700824318216" lon="16.361537699767947"><ele>734.0</ele><time>2026-04-27T15:54:02Z</time></trkpt><trkpt lat="38.698712687335046" lon="16.36166138619545"><ele>733.0</ele><time>2026-04-27T15:54:04Z</time></trkpt><trkpt lat="38.6986755345142" lon="16.36175776359145"><ele>732.0</ele><time>2026-04-27T15:54:06Z</time></trkpt><trkpt lat="38.69861271550777" lon="16.361848891395166"><ele>731.0</ele><time>2026-04-27T15:54:08Z</time></trkpt><trkpt lat="38.69856855984254" lon="16.361907885734624"><ele>730.0</ele><time>2026-04-27T15:54:09Z</time></trkpt><trkpt lat="38.69851274949614" lon="16.36197955453094"><ele>729.0</ele><time>2026-04-27T15:54:10Z</time></trkpt><trkpt lat="38.698452559026336" lon="16.362064396156345"><ele>729.0</ele><time>2026-04-27T15:54:11Z</time></trkpt><trkpt lat="38.698388354850366" lon="16.362184308219646"><ele>729.0</ele><time>2026-04-27T15:54:12Z</time></trkpt><trkpt lat="38.698330189799556" lon="16.3622878332785"><ele>729.0</ele><time>2026-04-27T15:54:13Z</time></trkpt><trkpt lat="38.698284807290236" lon="16.362358009142497"><ele>729.0</ele><time>2026-04-27T15:54:14Z</time></trkpt><trkpt lat="38.69824559160978" lon="16.36242601476382"><ele>729.0</ele><time>2026-04-27T15:54:15Z</time></trkpt><trkpt lat="38.69820937736893" lon="16.362498102711346"><ele>729.0</ele><time>2026-04-27T15:54:16Z</time></trkpt><trkpt lat="38.69817836578875" lon="16.362598367028852"><ele>732.5</ele><time>2026-04-27T15:54:17Z</time></trkpt><trkpt lat="38.698146493322966" lon="16.362686005343374"><ele>736.0</ele><time>2026-04-27T15:54:18Z</time></trkpt><trkpt lat="38.69812330699811" lon="16.36283556689087"><ele>739.5</ele><time>2026-04-27T15:54:19Z</time></trkpt><trkpt lat="38.69809506258814" lon="16.363001681012353"><ele>743.0</ele><time>2026-04-27T15:54:20Z</time></trkpt><trkpt lat="38.69805709483268" lon="16.36315804112961"><ele>745.0</ele><time>2026-04-27T15:54:21Z</time></trkpt><trkpt lat="38.698018051004354" lon="16.363320475766766"><ele>747.0</ele><time>2026-04-27T15:54:22Z</time></trkpt><trkpt lat="38.69798034413965" lon="16.36347959151488"><ele>749.0</ele><time>2026-04-27T15:54:23Z</time></trkpt><trkpt lat="38.69795009665765" lon="16.36362526681523"><ele>751.0</ele><time>2026-04-27T15:54:24Z</time></trkpt><trkpt lat="38.697928923940374" lon="16.36374671893862"><ele>751.0</ele><time>2026-04-27T15:54:25Z</time></trkpt><trkpt lat="38.697916240889235" lon="16.3638501926741"><ele>751.0</ele><time>2026-04-27T15:54:26Z</time></trkpt><trkpt lat="38.69788776207819" lon="16.363991367573966"><ele>751.0</ele><time>2026-04-27T15:54:28Z</time></trkpt><trkpt lat="38.69785746108912" lon="16.36413531038507"><ele>751.0</ele><time>2026-04-27T15:54:30Z</time></trkpt><trkpt lat="38.697822006338995" lon="16.364249465295543"><ele>751.0</ele><time>2026-04-27T15:54:32Z</time></trkpt><trkpt lat="38.69775549122919" lon="16.36429002368851"><ele>750.1999999999999</ele><time>2026-04-27T15:54:34Z</time></trkpt><trkpt lat="38.69768319222772" lon="16.364251800999448"><ele>749.4</ele><time>2026-04-27T15:54:36Z</time></trkpt><trkpt lat="38.69761767721275" lon="16.36415753469713"><ele>748.6</ele><time>2026-04-27T15:54:38Z</time></trkpt><trkpt lat="38.69756084274709" lon="16.36405036854335"><ele>747.8</ele><time>2026-04-27T15:54:39Z</time></trkpt><trkpt lat="38.697443575360715" lon="16.36393412676604"><ele>747.0</ele><time>2026-04-27T15:54:40Z</time></trkpt><trkpt lat="38.69739829473854" lon="16.363774002021742"><ele>746.8333333333334</ele><time>2026-04-27T15:54:41Z</time></trkpt><trkpt lat="38.69734977274704" lon="16.363661591204224"><ele>746.6666666666666</ele><time>2026-04-27T15:54:42Z</time></trkpt><trkpt lat="38.69732079276748" lon="16.363556018336347"><ele>746.5</ele><time>2026-04-27T15:54:43Z</time></trkpt><trkpt lat="38.69729362634834" lon="16.363458117120647"><ele>746.3333333333333</ele><time>2026-04-27T15:54:44Z</time></trkpt><trkpt lat="38.69726163922499" lon="16.363346278305098"><ele>746.1666666666666</ele><time>2026-04-27T15:54:45Z</time></trkpt><trkpt lat="38.697226335385125" lon="16.363254743134192"><ele>746.0</ele><time>2026-04-27T15:54:46Z</time></trkpt><trkpt lat="38.6971849148004" lon="16.363150480155852"><ele>746.0</ele><time>2026-04-27T15:54:47Z</time></trkpt><trkpt lat="38.69713833435764" lon="16.363042405338206"><ele>746.0</ele><time>2026-04-27T15:54:48Z</time></trkpt><trkpt lat="38.69710011702444" lon="16.362961868823533"><ele>746.0</ele><time>2026-04-27T15:54:49Z</time></trkpt><trkpt lat="38.69704638669743" lon="16.362852282269884"><ele>746.0</ele><time>2026-04-27T15:54:50Z</time></trkpt><trkpt lat="38.69698273540638" lon="16.362758862683766"><ele>746.0</ele><time>2026-04-27T15:54:51Z</time></trkpt><trkpt lat="38.69690869317407" lon="16.362650904683946"><ele>753.0</ele><time>2026-04-27T15:54:52Z</time></trkpt><trkpt lat="38.69639273366658" lon="16.363053265004638"><ele>753.4</ele><time>2026-04-27T15:54:53Z</time></trkpt><trkpt lat="38.69628819314683" lon="16.36302886244073"><ele>753.8</ele><time>2026-04-27T15:54:54Z</time></trkpt><trkpt lat="38.696190078489565" lon="16.362996478026037"><ele>754.2</ele><time>2026-04-27T15:54:55Z</time></trkpt><trkpt lat="38.69610195385131" lon="16.36294184047522"><ele>754.6</ele><time>2026-04-27T15:54:56Z</time></trkpt><trkpt lat="38.69597920293795" lon="16.362894148237793"><ele>755.0</ele><time>2026-04-27T15:54:57Z</time></trkpt><trkpt lat="38.69587284471921" lon="16.362851345010448"><ele>756.6666666666666</ele><time>2026-04-27T15:54:58Z</time></trkpt><trkpt lat="38.69577418461212" lon="16.362811445817332"><ele>758.3333333333333</ele><time>2026-04-27T15:54:59Z</time></trkpt><trkpt lat="38.695684223601454" lon="16.362775434813713"><ele>760.0</ele><time>2026-04-27T15:55:00Z</time></trkpt><trkpt lat="38.69560295338941" lon="16.362736418830313"><ele>761.6666666666666</ele><time>2026-04-27T15:55:01Z</time></trkpt><trkpt lat="38.69553368176301" lon="16.36269595134207"><ele>763.3333333333334</ele><time>2026-04-27T15:55:02Z</time></trkpt><trkpt lat="38.69546129225799" lon="16.362649037970527"><ele>765.0</ele><time>2026-04-27T15:55:03Z</time></trkpt><trkpt lat="38.695387913833706" lon="16.362587680757386"><ele>765.0</ele><time>2026-04-27T15:55:04Z</time></trkpt><trkpt lat="38.695307080339546" lon="16.36251053421763"><ele>765.0</ele><time>2026-04-27T15:55:05Z</time></trkpt><trkpt lat="38.695219339409014" lon="16.362433363085888"><ele>765.0</ele><time>2026-04-27T15:55:06Z</time></trkpt><trkpt lat="38.69512370318945" lon="16.362357823694254"><ele>765.0</ele><time>2026-04-27T15:55:07.001Z</time></trkpt><trkpt lat="38.69504059467885" lon="16.362287143855195"><ele>765.0</ele><time>2026-04-27T15:55:08Z</time></trkpt><trkpt lat="38.694947088767094" lon="16.362212844212475"><ele>767.25</ele><time>2026-04-27T15:55:09.001Z</time></trkpt><trkpt lat="38.69484797000901" lon="16.362122798046563"><ele>769.5</ele><time>2026-04-27T15:55:10.001Z</time></trkpt><trkpt lat="38.69475196048009" lon="16.36204402681879"><ele>771.75</ele><time>2026-04-27T15:55:11Z</time></trkpt><trkpt lat="38.694647078923865" lon="16.36197792324208"><ele>774.0</ele><time>2026-04-27T15:55:12Z</time></trkpt><trkpt lat="38.6945547972067" lon="16.361912162446572"><ele>774.0</ele><time>2026-04-27T15:55:13Z</time></trkpt><trkpt lat="38.69446130429495" lon="16.36184328521769"><ele>774.0</ele><time>2026-04-27T15:55:14Z</time></trkpt><trkpt lat="38.694350372430435" lon="16.361787731942762"><ele>774.0</ele><time>2026-04-27T15:55:15Z</time></trkpt><trkpt lat="38.694221256588825" lon="16.361729349497413"><ele>774.0</ele><time>2026-04-27T15:55:16Z</time></trkpt><trkpt lat="38.69409367720683" lon="16.36167729038017"><ele>774.5</ele><time>2026-04-27T15:55:17Z</time></trkpt><trkpt lat="38.693968476160585" lon="16.361636401611815"><ele>775.0</ele><time>2026-04-27T15:55:18Z</time></trkpt><trkpt lat="38.69385081846059" lon="16.36158925133582"><ele>775.5</ele><time>2026-04-27T15:55:19Z</time></trkpt><trkpt lat="38.69373512207452" lon="16.361545890241384"><ele>776.0</ele><time>2026-04-27T15:55:20Z</time></trkpt><trkpt lat="38.69362134245151" lon="16.361491261973313"><ele>776.0</ele><time>2026-04-27T15:55:21Z</time></trkpt><trkpt lat="38.69352147654387" lon="16.361448537279152"><ele>776.0</ele><time>2026-04-27T15:55:22Z</time></trkpt><trkpt lat="38.6934356786155" lon="16.361387269872708"><ele>776.0</ele><time>2026-04-27T15:55:23Z</time></trkpt><trkpt lat="38.693355668967605" lon="16.361349947372407"><ele>776.0</ele><time>2026-04-27T15:55:24Z</time></trkpt><trkpt lat="38.69328136418357" lon="16.361323622771206"><ele>776.0</ele><time>2026-04-27T15:55:25Z</time></trkpt><trkpt lat="38.69318030040719" lon="16.361269951888396"><ele>776.0</ele><time>2026-04-27T15:55:26Z</time></trkpt><trkpt lat="38.69305064002926" lon="16.361193270748522"><ele>776.0</ele><time>2026-04-27T15:55:27Z</time></trkpt><trkpt lat="38.692914291054066" lon="16.361117600923926"><ele>776.0</ele><time>2026-04-27T15:55:28Z</time></trkpt><trkpt lat="38.69277942723832" lon="16.361048278633604"><ele>776.0</ele><time>2026-04-27T15:55:29Z</time></trkpt><trkpt lat="38.69265589547955" lon="16.360966741608276"><ele>777.0</ele><time>2026-04-27T15:55:30Z</time></trkpt><trkpt lat="38.69253922474419" lon="16.36089149762476"><ele>778.0</ele><time>2026-04-27T15:55:31Z</time></trkpt><trkpt lat="38.692414909936126" lon="16.360817529498743"><ele>779.0</ele><time>2026-04-27T15:55:32Z</time></trkpt><trkpt lat="38.69229443902865" lon="16.36074834849042"><ele>780.0</ele><time>2026-04-27T15:55:33Z</time></trkpt><trkpt lat="38.69218603038349" lon="16.36067677119452"><ele>780.0</ele><time>2026-04-27T15:55:34Z</time></trkpt><trkpt lat="38.692084843325155" lon="16.360600819503684"><ele>780.0</ele><time>2026-04-27T15:55:35Z</time></trkpt><trkpt lat="38.69200206765401" lon="16.360544612609417"><ele>780.0</ele><time>2026-04-27T15:55:36Z</time></trkpt><trkpt lat="38.69193873145672" lon="16.36048514839277"><ele>780.0</ele><time>2026-04-27T15:55:37Z</time></trkpt><trkpt lat="38.69188041022059" lon="16.360449714494987"><ele>780.0</ele><time>2026-04-27T15:55:38Z</time></trkpt><trkpt lat="38.691793719142396" lon="16.360405695631187"><ele>780.0</ele><time>2026-04-27T15:55:40Z</time></trkpt><trkpt lat="38.691737168435566" lon="16.360442072899147"><ele>780.0</ele><time>2026-04-27T15:55:42Z</time></trkpt><trkpt lat="38.691705848173065" lon="16.36054307381502"><ele>780.0</ele><time>2026-04-27T15:55:44Z</time></trkpt><trkpt lat="38.691657810844085" lon="16.360626650240988"><ele>780.0</ele><time>2026-04-27T15:55:46Z</time></trkpt><trkpt lat="38.69162028561373" lon="16.360724914309692"><ele>780.0</ele><time>2026-04-27T15:55:47Z</time></trkpt><trkpt lat="38.69158493459415" lon="16.360803803596887"><ele>780.0</ele><time>2026-04-27T15:55:48Z</time></trkpt><trkpt lat="38.69155490677661" lon="16.36092339440398"><ele>780.0</ele><time>2026-04-27T15:55:51Z</time></trkpt><trkpt lat="38.69152428049044" lon="16.360994540287695"><ele>780.0</ele><time>2026-04-27T15:55:53Z</time></trkpt><trkpt lat="38.691463356987356" lon="16.361076413822044"><ele>780.0</ele><time>2026-04-27T15:55:55Z</time></trkpt><trkpt lat="38.691426137866294" lon="16.361158729236994"><ele>780.0</ele><time>2026-04-27T15:55:57Z</time></trkpt><trkpt lat="38.69136869038862" lon="16.36121715474324"><ele>780.0</ele><time>2026-04-27T15:56:02Z</time></trkpt><trkpt lat="38.691286006933986" lon="16.36117900566095"><ele>780.0</ele><time>2026-04-27T15:56:08Z</time></trkpt><trkpt lat="38.69114815022333" lon="16.361120261501135"><ele>778.75</ele><time>2026-04-27T15:56:10Z</time></trkpt><trkpt lat="38.69104233650494" lon="16.361097790509145"><ele>777.5</ele><time>2026-04-27T15:56:11Z</time></trkpt><trkpt lat="38.69089793649983" lon="16.36117717349722"><ele>776.25</ele><time>2026-04-27T15:56:13Z</time></trkpt><trkpt lat="38.69079403356844" lon="16.36125825324788"><ele>775.0</ele><time>2026-04-27T15:56:14Z</time></trkpt><trkpt lat="38.69066801751117" lon="16.36135858624749"><ele>774.5</ele><time>2026-04-27T15:56:15Z</time></trkpt><trkpt lat="38.69054089244395" lon="16.361455231759905"><ele>774.0</ele><time>2026-04-27T15:56:16Z</time></trkpt><trkpt lat="38.690417338374964" lon="16.361542032981085"><ele>773.5</ele><time>2026-04-27T15:56:17Z</time></trkpt><trkpt lat="38.690302124514645" lon="16.36162512265377"><ele>773.0</ele><time>2026-04-27T15:56:18Z</time></trkpt><trkpt lat="38.69019986649094" lon="16.36169519420362"><ele>772.4</ele><time>2026-04-27T15:56:19Z</time></trkpt><trkpt lat="38.69010372280469" lon="16.361767584811002"><ele>771.8</ele><time>2026-04-27T15:56:20Z</time></trkpt><trkpt lat="38.69000874081207" lon="16.36183740884306"><ele>771.2</ele><time>2026-04-27T15:56:21Z</time></trkpt><trkpt lat="38.68991796884524" lon="16.36190178019958"><ele>770.6</ele><time>2026-04-27T15:56:22Z</time></trkpt><trkpt lat="38.68983949207694" lon="16.36195908806793"><ele>770.0</ele><time>2026-04-27T15:56:23Z</time></trkpt><trkpt lat="38.689768014177695" lon="16.362004543322435"><ele>770.0000000000001</ele><time>2026-04-27T15:56:24Z</time></trkpt><trkpt lat="38.689702301817505" lon="16.36204845346293"><ele>770.0</ele><time>2026-04-27T15:56:25Z</time></trkpt><trkpt lat="38.689601609984" lon="16.36211586735053"><ele>770.0</ele><time>2026-04-27T15:56:27Z</time></trkpt><trkpt lat="38.68949913468114" lon="16.362195579805455"><ele>770.0</ele><time>2026-04-27T15:56:29Z</time></trkpt><trkpt lat="38.68943857579684" lon="16.362247796630246"><ele>770.0000000000001</ele><time>2026-04-27T15:56:30Z</time></trkpt><trkpt lat="38.68937864793913" lon="16.36228599265148"><ele>770.0</ele><time>2026-04-27T15:56:31Z</time></trkpt><trkpt lat="38.68931946980225" lon="16.362317521031464"><ele>767.4</ele><time>2026-04-27T15:56:32Z</time></trkpt><trkpt lat="38.68926503076287" lon="16.362358934590116"><ele>764.8</ele><time>2026-04-27T15:56:33Z</time></trkpt><trkpt lat="38.68917896816365" lon="16.36240259672326"><ele>762.2</ele><time>2026-04-27T15:56:35Z</time></trkpt><trkpt lat="38.689044525317954" lon="16.362338756914838"><ele>759.6</ele><time>2026-04-27T15:56:37Z</time></trkpt><trkpt lat="38.688973031699774" lon="16.362284686132266"><ele>757.0</ele><time>2026-04-27T15:56:38Z</time></trkpt><trkpt lat="38.688868375954044" lon="16.362220709501646"><ele>756.75</ele><time>2026-04-27T15:56:39Z</time></trkpt><trkpt lat="38.68875519645688" lon="16.362150285142558"><ele>756.5</ele><time>2026-04-27T15:56:40Z</time></trkpt><trkpt lat="38.68863293193947" lon="16.36210763280002"><ele>756.25</ele><time>2026-04-27T15:56:41Z</time></trkpt><trkpt lat="38.68853766417911" lon="16.362052745796074"><ele>756.0</ele><time>2026-04-27T15:56:42Z</time></trkpt><trkpt lat="38.68844435113042" lon="16.36199715596986"><ele>756.0</ele><time>2026-04-27T15:56:43Z</time></trkpt><trkpt lat="38.68835310034995" lon="16.36194108727605"><ele>756.0</ele><time>2026-04-27T15:56:44Z</time></trkpt><trkpt lat="38.6882618132257" lon="16.36188531859379"><ele>756.0</ele><time>2026-04-27T15:56:45Z</time></trkpt><trkpt lat="38.68816626374137" lon="16.361828189712263"><ele>756.0</ele><time>2026-04-27T15:56:46Z</time></trkpt><trkpt lat="38.688088072308894" lon="16.361773715424874"><ele>756.0</ele><time>2026-04-27T15:56:47Z</time></trkpt><trkpt lat="38.6880017609248" lon="16.361723422780287"><ele>756.0</ele><time>2026-04-27T15:56:48Z</time></trkpt><trkpt lat="38.68791648252795" lon="16.36166380838977"><ele>756.0</ele><time>2026-04-27T15:56:49Z</time></trkpt><trkpt lat="38.687832439071855" lon="16.361605192176878"><ele>756.0</ele><time>2026-04-27T15:56:50Z</time></trkpt><trkpt lat="38.68775617887612" lon="16.3615480152672"><ele>756.0</ele><time>2026-04-27T15:56:51Z</time></trkpt><trkpt lat="38.68766725784182" lon="16.361491879267966"><ele>756.0</ele><time>2026-04-27T15:56:52Z</time></trkpt><trkpt lat="38.68759871337226" lon="16.3614472127858"><ele>755.0</ele><time>2026-04-27T15:56:53Z</time></trkpt><trkpt lat="38.687534828302454" lon="16.361420061880754"><ele>754.0</ele><time>2026-04-27T15:56:54Z</time></trkpt><trkpt lat="38.68747093122692" lon="16.3613788711533"><ele>753.0</ele><time>2026-04-27T15:56:55Z</time></trkpt><trkpt lat="38.68739475768279" lon="16.36133164072237"><ele>752.0</ele><time>2026-04-27T15:56:57Z</time></trkpt><trkpt lat="38.68733076928936" lon="16.36131781985002"><ele>751.0</ele><time>2026-04-27T15:56:59Z</time></trkpt><trkpt lat="38.687249506583996" lon="16.36133274208864"><ele>750.0</ele><time>2026-04-27T15:57:01Z</time></trkpt><trkpt lat="38.68713140535304" lon="16.36139434602377"><ele>749.0</ele><time>2026-04-27T15:57:03Z</time></trkpt><trkpt lat="38.687052020817816" lon="16.361412869559324"><ele>748.0</ele><time>2026-04-27T15:57:05Z</time></trkpt><trkpt lat="38.68698280019906" lon="16.36140317568884"><ele>747.0</ele><time>2026-04-27T15:57:07Z</time></trkpt><trkpt lat="38.68690499031012" lon="16.361371576396017"><ele>746.0</ele><time>2026-04-27T15:57:09Z</time></trkpt><trkpt lat="38.68682850941897" lon="16.361372623042634"><ele>745.0</ele><time>2026-04-27T15:57:10Z</time></trkpt><trkpt lat="38.68673637765841" lon="16.361370319216807"><ele>744.0</ele><time>2026-04-27T15:57:11Z</time></trkpt><trkpt lat="38.68664579580418" lon="16.36136574756562"><ele>743.1666666666666</ele><time>2026-04-27T15:57:12Z</time></trkpt><trkpt lat="38.68657221863459" lon="16.361370496793878"><ele>742.3333333333334</ele><time>2026-04-27T15:57:13Z</time></trkpt><trkpt lat="38.68648044637495" lon="16.361403415015793"><ele>741.5</ele><time>2026-04-27T15:57:16Z</time></trkpt><trkpt lat="38.68639730836086" lon="16.361397391768975"><ele>740.6666666666667</ele><time>2026-04-27T15:57:18Z</time></trkpt><trkpt lat="38.686313836681634" lon="16.361366048917418"><ele>739.8333333333334</ele><time>2026-04-27T15:57:20Z</time></trkpt><trkpt lat="38.686223510772045" lon="16.36132929739395"><ele>739.0</ele><time>2026-04-27T15:57:23Z</time></trkpt><trkpt lat="38.686129662249265" lon="16.36132294511025"><ele>737.8333333333334</ele><time>2026-04-27T15:57:25Z</time></trkpt><trkpt lat="38.68606073182477" lon="16.361296907168317"><ele>736.6666666666667</ele><time>2026-04-27T15:57:27Z</time></trkpt><trkpt lat="38.68596114882816" lon="16.36126401418243"><ele>735.5</ele><time>2026-04-27T15:57:29Z</time></trkpt><trkpt lat="38.685890081589584" lon="16.36125223145648"><ele>734.3333333333334</ele><time>2026-04-27T15:57:30Z</time></trkpt><trkpt lat="38.68579409812642" lon="16.36120220682587"><ele>733.1666666666666</ele><time>2026-04-27T15:57:32Z</time></trkpt><trkpt lat="38.68570009308412" lon="16.361164302544918"><ele>732.0</ele><time>2026-04-27T15:57:34Z</time></trkpt><trkpt lat="38.68558792105834" lon="16.36112385144687"><ele>732.0</ele><time>2026-04-27T15:57:36Z</time></trkpt><trkpt lat="38.6855190588509" lon="16.361100062010554"><ele>732.0</ele><time>2026-04-27T15:57:37Z</time></trkpt><trkpt lat="38.68544907426423" lon="16.361067057147693"><ele>732.0</ele><time>2026-04-27T15:57:38Z</time></trkpt><trkpt lat="38.685391095666375" lon="16.361033615333024"><ele>732.0</ele><time>2026-04-27T15:57:39Z</time></trkpt><trkpt lat="38.6853310443514" lon="16.360993170346187"><ele>732.0</ele><time>2026-04-27T15:57:40Z</time></trkpt><trkpt lat="38.68527080520979" lon="16.36095213419708"><ele>732.0</ele><time>2026-04-27T15:57:41Z</time></trkpt><trkpt lat="38.68521576114763" lon="16.36090013968019"><ele>732.0</ele><time>2026-04-27T15:57:42Z</time></trkpt><trkpt lat="38.685168276468566" lon="16.360842447383963"><ele>731.0</ele><time>2026-04-27T15:57:43Z</time></trkpt><trkpt lat="38.685125036558084" lon="16.360779458250764"><ele>730.0</ele><time>2026-04-27T15:57:44Z</time></trkpt><trkpt lat="38.6850770662711" lon="16.36070056288288"><ele>729.0</ele><time>2026-04-27T15:57:45Z</time></trkpt><trkpt lat="38.685021269263295" lon="16.360608922843497"><ele>728.0</ele><time>2026-04-27T15:57:46Z</time></trkpt><trkpt lat="38.68496982815869" lon="16.36053642511241"><ele>727.0</ele><time>2026-04-27T15:57:47Z</time></trkpt><trkpt lat="38.68491036293632" lon="16.360465903658778"><ele>726.0</ele><time>2026-04-27T15:57:48Z</time></trkpt><trkpt lat="38.684840682384085" lon="16.36040548841589"><ele>724.5999999999999</ele><time>2026-04-27T15:57:49Z</time></trkpt><trkpt lat="38.684784467094545" lon="16.360360763730178"><ele>723.2</ele><time>2026-04-27T15:57:50Z</time></trkpt><trkpt lat="38.68472888920398" lon="16.360318115330482"><ele>721.8</ele><time>2026-04-27T15:57:51Z</time></trkpt><trkpt lat="38.6846166646237" lon="16.360240899875752"><ele>720.4000000000001</ele><time>2026-04-27T15:57:53Z</time></trkpt><trkpt lat="38.6845210877027" lon="16.3602123015379"><ele>719.0</ele><time>2026-04-27T15:57:54Z</time></trkpt><trkpt lat="38.68442149502531" lon="16.360206992015108"><ele>719.0</ele><time>2026-04-27T15:57:55Z</time></trkpt><trkpt lat="38.68434040999796" lon="16.36022142317501"><ele>719.0</ele><time>2026-04-27T15:57:56Z</time></trkpt><trkpt lat="38.684282307663416" lon="16.36027540214893"><ele>719.0</ele><time>2026-04-27T15:57:57Z</time></trkpt><trkpt lat="38.6842283214193" lon="16.360328078014955"><ele>719.0</ele><time>2026-04-27T15:57:58Z</time></trkpt><trkpt lat="38.68417352383604" lon="16.360368113904816"><ele>719.0</ele><time>2026-04-27T15:58:00Z</time></trkpt><trkpt lat="38.68413129251577" lon="16.36025410886091"><ele>719.0</ele><time>2026-04-27T15:58:03Z</time></trkpt><trkpt lat="38.68423894539346" lon="16.35991555420435"><ele>719.0</ele><time>2026-04-27T15:58:05Z</time></trkpt><trkpt lat="38.6842526200753" lon="16.35973914718991"><ele>719.0</ele><time>2026-04-27T15:58:06Z</time></trkpt><trkpt lat="38.68421086372956" lon="16.359586615541968"><ele>719.0</ele><time>2026-04-27T15:58:07Z</time></trkpt><trkpt lat="38.68420414899233" lon="16.359445741397106"><ele>719.0</ele><time>2026-04-27T15:58:08Z</time></trkpt><trkpt lat="38.68418831113309" lon="16.3593073488635"><ele>717.2</ele><time>2026-04-27T15:58:09Z</time></trkpt><trkpt lat="38.684166357271344" lon="16.35915457869471"><ele>715.4000000000001</ele><time>2026-04-27T15:58:10Z</time></trkpt><trkpt lat="38.684140862059515" lon="16.359011633201284"><ele>713.6</ele><time>2026-04-27T15:58:11Z</time></trkpt><trkpt lat="38.684111857553546" lon="16.358882224531545"><ele>711.8</ele><time>2026-04-27T15:58:12Z</time></trkpt><trkpt lat="38.68409314419435" lon="16.358760299486786"><ele>710.0</ele><time>2026-04-27T15:58:13Z</time></trkpt><trkpt lat="38.68403978524689" lon="16.358651804132062"><ele>708.8333333333333</ele><time>2026-04-27T15:58:14Z</time></trkpt><trkpt lat="38.68399194636952" lon="16.358545914110877"><ele>707.6666666666666</ele><time>2026-04-27T15:58:15Z</time></trkpt><trkpt lat="38.683949224146886" lon="16.358434838591513"><ele>706.5</ele><time>2026-04-27T15:58:16Z</time></trkpt><trkpt lat="38.68391472149689" lon="16.358332346609874"><ele>705.3333333333334</ele><time>2026-04-27T15:58:17Z</time></trkpt><trkpt lat="38.68390390585278" lon="16.358231093074995"><ele>704.1666666666667</ele><time>2026-04-27T15:58:18Z</time></trkpt><trkpt lat="38.6839049338556" lon="16.35812420633838"><ele>703.0</ele><time>2026-04-27T15:58:19Z</time></trkpt><trkpt lat="38.68391716061952" lon="16.357997523852585"><ele>701.8</ele><time>2026-04-27T15:58:20Z</time></trkpt><trkpt lat="38.68391656107234" lon="16.357885702150416"><ele>700.5999999999999</ele><time>2026-04-27T15:58:21Z</time></trkpt><trkpt lat="38.683916602364945" lon="16.3577674585074"><ele>699.4000000000001</ele><time>2026-04-27T15:58:22Z</time></trkpt><trkpt lat="38.6839333825775" lon="16.357624722685795"><ele>698.2</ele><time>2026-04-27T15:58:23Z</time></trkpt><trkpt lat="38.68403202621373" lon="16.357513009441504"><ele>697.0</ele><time>2026-04-27T15:58:24Z</time></trkpt><trkpt lat="38.68406557043455" lon="16.357380225302585"><ele>697.0</ele><time>2026-04-27T15:58:25Z</time></trkpt><trkpt lat="38.68408272852145" lon="16.35727574453115"><ele>697.0</ele><time>2026-04-27T15:58:26Z</time></trkpt><trkpt lat="38.68408748127086" lon="16.35718909881589"><ele>697.0</ele><time>2026-04-27T15:58:27Z</time></trkpt><trkpt lat="38.68406898511513" lon="16.357066029227532"><ele>697.0</ele><time>2026-04-27T15:58:28Z</time></trkpt><trkpt lat="38.68404191715487" lon="16.356922947634658"><ele>697.0</ele><time>2026-04-27T15:58:29Z</time></trkpt><trkpt lat="38.68401974612969" lon="16.356766000895735"><ele>697.5</ele><time>2026-04-27T15:58:30Z</time></trkpt><trkpt lat="38.68400536689941" lon="16.356623364479276"><ele>698.0</ele><time>2026-04-27T15:58:31Z</time></trkpt><trkpt lat="38.68399846151734" lon="16.35647614814698"><ele>698.5</ele><time>2026-04-27T15:58:32Z</time></trkpt><trkpt lat="38.683907700730806" lon="16.356345599408126"><ele>699.0</ele><time>2026-04-27T15:58:33Z</time></trkpt><trkpt lat="38.68389735771288" lon="16.35620925080995"><ele>698.8000000000001</ele><time>2026-04-27T15:58:34Z</time></trkpt><trkpt lat="38.68388810955732" lon="16.356056203331153"><ele>698.6</ele><time>2026-04-27T15:58:35Z</time></trkpt><trkpt lat="38.68388954269376" lon="16.35590950961786"><ele>698.4</ele><time>2026-04-27T15:58:36Z</time></trkpt><trkpt lat="38.68389402687718" lon="16.355782813047497"><ele>698.2</ele><time>2026-04-27T15:58:37Z</time></trkpt><trkpt lat="38.68389150311628" lon="16.355658779035927"><ele>698.0</ele><time>2026-04-27T15:58:38Z</time></trkpt><trkpt lat="38.68387998197436" lon="16.355536329827242"><ele>698.0</ele><time>2026-04-27T15:58:39Z</time></trkpt><trkpt lat="38.683852830582964" lon="16.35542188652418"><ele>698.0</ele><time>2026-04-27T15:58:40Z</time></trkpt><trkpt lat="38.683805587782864" lon="16.355289795759653"><ele>698.0</ele><time>2026-04-27T15:58:41Z</time></trkpt><trkpt lat="38.683745531403844" lon="16.35514582779784"><ele>698.0</ele><time>2026-04-27T15:58:42Z</time></trkpt><trkpt lat="38.68367943281528" lon="16.355008930897387"><ele>698.0</ele><time>2026-04-27T15:58:43Z</time></trkpt><trkpt lat="38.683602518327184" lon="16.35488721813001"><ele>698.0</ele><time>2026-04-27T15:58:44Z</time></trkpt><trkpt lat="38.68352114789708" lon="16.35477499500907"><ele>698.0</ele><time>2026-04-27T15:58:45Z</time></trkpt><trkpt lat="38.68341318295379" lon="16.35470364956832"><ele>698.0</ele><time>2026-04-27T15:58:46Z</time></trkpt><trkpt lat="38.68332865402016" lon="16.354659676511798"><ele>695.4</ele><time>2026-04-27T15:58:47Z</time></trkpt><trkpt lat="38.68321493175446" lon="16.35460015497417"><ele>692.8</ele><time>2026-04-27T15:58:48Z</time></trkpt><trkpt lat="38.68315301435327" lon="16.35454419178556"><ele>690.2</ele><time>2026-04-27T15:58:49Z</time></trkpt><trkpt lat="38.68314450125496" lon="16.354417216065244"><ele>687.6</ele><time>2026-04-27T15:58:50Z</time></trkpt><trkpt lat="38.683145838395646" lon="16.354300066413117"><ele>685.0</ele><time>2026-04-27T15:58:51Z</time></trkpt><trkpt lat="38.68313071552954" lon="16.3541784863508"><ele>685.0</ele><time>2026-04-27T15:58:52Z</time></trkpt><trkpt lat="38.683137545584714" lon="16.35404995914037"><ele>685.0</ele><time>2026-04-27T15:58:53Z</time></trkpt><trkpt lat="38.68315218410616" lon="16.35392314315653"><ele>685.0</ele><time>2026-04-27T15:58:54Z</time></trkpt><trkpt lat="38.68318067950345" lon="16.35380416689836"><ele>685.0</ele><time>2026-04-27T15:58:55Z</time></trkpt><trkpt lat="38.68323026197977" lon="16.353710948513832"><ele>685.0</ele><time>2026-04-27T15:58:56Z</time></trkpt><trkpt lat="38.68327780664196" lon="16.353616849884414"><ele>686.2</ele><time>2026-04-27T15:58:57Z</time></trkpt><trkpt lat="38.683342473118216" lon="16.35350039818029"><ele>687.4</ele><time>2026-04-27T15:58:58Z</time></trkpt><trkpt lat="38.68341367074732" lon="16.35339163373886"><ele>688.5999999999999</ele><time>2026-04-27T15:58:59Z</time></trkpt><trkpt lat="38.68348246793728" lon="16.353291831427704"><ele>689.8</ele><time>2026-04-27T15:59:00Z</time></trkpt><trkpt lat="38.683554637204274" lon="16.353187688429532"><ele>691.0</ele><time>2026-04-27T15:59:01Z</time></trkpt><trkpt lat="38.68362405570327" lon="16.353085673516517"><ele>693.1999999999999</ele><time>2026-04-27T15:59:02Z</time></trkpt><trkpt lat="38.68368842319207" lon="16.35298820142307"><ele>695.4</ele><time>2026-04-27T15:59:03Z</time></trkpt><trkpt lat="38.68375443713421" lon="16.35288816098973"><ele>697.6</ele><time>2026-04-27T15:59:04Z</time></trkpt><trkpt lat="38.68382032794881" lon="16.352783873564334"><ele>699.8</ele><time>2026-04-27T15:59:05Z</time></trkpt><trkpt lat="38.68385828352581" lon="16.35271328626592"><ele>702.0</ele><time>2026-04-27T15:59:06Z</time></trkpt><trkpt lat="38.683890307886564" lon="16.352620663452775"><ele>702.0</ele><time>2026-04-27T15:59:08Z</time></trkpt><trkpt lat="38.68388853791103" lon="16.352516688582305"><ele>702.0</ele><time>2026-04-27T15:59:10Z</time></trkpt><trkpt lat="38.68383568105191" lon="16.352463028293055"><ele>702.0</ele><time>2026-04-27T15:59:11Z</time></trkpt><trkpt lat="38.68373870845265" lon="16.352467680424624"><ele>702.0</ele><time>2026-04-27T15:59:12Z</time></trkpt><trkpt lat="38.683654217227435" lon="16.352516221432193"><ele>702.0</ele><time>2026-04-27T15:59:13Z</time></trkpt><trkpt lat="38.683647706372845" lon="16.35270147194332"><ele>702.2</ele><time>2026-04-27T15:59:14Z</time></trkpt><trkpt lat="38.68357870304503" lon="16.352750485911553"><ele>702.4000000000001</ele><time>2026-04-27T15:59:15Z</time></trkpt><trkpt lat="38.68351650467067" lon="16.352797620744333"><ele>702.5999999999999</ele><time>2026-04-27T15:59:16Z</time></trkpt><trkpt lat="38.68340287513479" lon="16.352663685185316"><ele>702.8</ele><time>2026-04-27T15:59:17Z</time></trkpt><trkpt lat="38.683316065853674" lon="16.352705249670983"><ele>703.0</ele><time>2026-04-27T15:59:18Z</time></trkpt><trkpt lat="38.68323572455615" lon="16.35274310417219"><ele>703.0</ele><time>2026-04-27T15:59:19Z</time></trkpt><trkpt lat="38.683188668222165" lon="16.352864577453353"><ele>703.0</ele><time>2026-04-27T15:59:20Z</time></trkpt><trkpt lat="38.68312544063755" lon="16.35289341441168"><ele>703.0</ele><time>2026-04-27T15:59:21Z</time></trkpt><trkpt lat="38.68303236654213" lon="16.35300338307462"><ele>703.0</ele><time>2026-04-27T15:59:23Z</time></trkpt><trkpt lat="38.68297239728525" lon="16.35305235872184"><ele>703.0</ele><time>2026-04-27T15:59:24Z</time></trkpt><trkpt lat="38.68285564474109" lon="16.353058154979895"><ele>703.0</ele><time>2026-04-27T15:59:26Z</time></trkpt><trkpt lat="38.682805918138676" lon="16.352997480545266"><ele>703.0</ele><time>2026-04-27T15:59:27Z</time></trkpt><trkpt lat="38.682753470700185" lon="16.352904489138446"><ele>703.0</ele><time>2026-04-27T15:59:28Z</time></trkpt><trkpt lat="38.68272035688653" lon="16.352779565600528"><ele>703.0</ele><time>2026-04-27T15:59:29Z</time></trkpt><trkpt lat="38.68269779228319" lon="16.352642836002662"><ele>703.0</ele><time>2026-04-27T15:59:30Z</time></trkpt><trkpt lat="38.68268432643454" lon="16.35255331401066"><ele>703.0</ele><time>2026-04-27T15:59:31Z</time></trkpt><trkpt lat="38.68258356928106" lon="16.35254020227199"><ele>704.2</ele><time>2026-04-27T15:59:32Z</time></trkpt><trkpt lat="38.68251376359961" lon="16.35244404017635"><ele>705.4</ele><time>2026-04-27T15:59:35Z</time></trkpt><trkpt lat="38.68242113278044" lon="16.352457183530344"><ele>706.6</ele><time>2026-04-27T15:59:36Z</time></trkpt><trkpt lat="38.682322212550815" lon="16.352523075514526"><ele>707.8000000000001</ele><time>2026-04-27T15:59:37Z</time></trkpt><trkpt lat="38.682252355888735" lon="16.352594994756714"><ele>709.0</ele><time>2026-04-27T15:59:38Z</time></trkpt><trkpt lat="38.68219694117141" lon="16.352663479920654"><ele>709.0</ele><time>2026-04-27T15:59:39Z</time></trkpt><trkpt lat="38.68213280497104" lon="16.352761201760785"><ele>709.0</ele><time>2026-04-27T15:59:40Z</time></trkpt><trkpt lat="38.68208277935135" lon="16.352843454938718"><ele>709.0</ele><time>2026-04-27T15:59:41Z</time></trkpt><trkpt lat="38.68202960035051" lon="16.352926318203266"><ele>709.0</ele><time>2026-04-27T15:59:42Z</time></trkpt><trkpt lat="38.68197803265177" lon="16.353003211361845"><ele>709.0</ele><time>2026-04-27T15:59:43Z</time></trkpt><trkpt lat="38.681915235027766" lon="16.353071292326433"><ele>709.0</ele><time>2026-04-27T15:59:45Z</time></trkpt><trkpt lat="38.681839189703645" lon="16.353109938434688"><ele>709.75</ele><time>2026-04-27T15:59:47Z</time></trkpt><trkpt lat="38.681742829888314" lon="16.353116907361365"><ele>710.5</ele><time>2026-04-27T15:59:49Z</time></trkpt><trkpt lat="38.68168942493681" lon="16.35305898411206"><ele>711.25</ele><time>2026-04-27T15:59:50Z</time></trkpt><trkpt lat="38.6817582637461" lon="16.35281506895274"><ele>712.0</ele><time>2026-04-27T15:59:52Z</time></trkpt><trkpt lat="38.68180344353457" lon="16.35272858181343"><ele>711.5</ele><time>2026-04-27T15:59:53Z</time></trkpt><trkpt lat="38.68183130132792" lon="16.352651491656296"><ele>711.0</ele><time>2026-04-27T15:59:54Z</time></trkpt><trkpt lat="38.68186025545467" lon="16.352537361684693"><ele>710.5</ele><time>2026-04-27T15:59:56Z</time></trkpt><trkpt lat="38.68189019277175" lon="16.352433394786416"><ele>710.0</ele><time>2026-04-27T15:59:58Z</time></trkpt><trkpt lat="38.68201295207071" lon="16.352470305457114"><ele>709.5</ele><time>2026-04-27T16:00:00Z</time></trkpt><trkpt lat="38.68205071282454" lon="16.352389247981257"><ele>709.0</ele><time>2026-04-27T16:00:04Z</time></trkpt><trkpt lat="38.68198056937312" lon="16.352470816913694"><ele>709.0</ele><time>2026-04-27T16:00:19Z</time></trkpt><trkpt lat="38.681952544589755" lon="16.352607032126038"><ele>709.0</ele><time>2026-04-27T16:00:21Z</time></trkpt><trkpt lat="38.68178483254719" lon="16.352675090963515"><ele>709.0</ele><time>2026-04-27T16:00:23Z</time></trkpt><trkpt lat="38.68173905823287" lon="16.35277815783455"><ele>709.0</ele><time>2026-04-27T16:00:25Z</time></trkpt><trkpt lat="38.68169463986034" lon="16.352840920004425"><ele>709.0</ele><time>2026-04-27T16:00:27Z</time></trkpt><trkpt lat="38.68163530946166" lon="16.352872542132932"><ele>711.1666666666667</ele><time>2026-04-27T16:00:29Z</time></trkpt><trkpt lat="38.681572257554386" lon="16.35287106080865"><ele>713.3333333333334</ele><time>2026-04-27T16:00:30Z</time></trkpt><trkpt lat="38.68150150351275" lon="16.352810657002518"><ele>715.5</ele><time>2026-04-27T16:00:31Z</time></trkpt><trkpt lat="38.68143670788774" lon="16.35272528802852"><ele>717.6666666666666</ele><time>2026-04-27T16:00:32Z</time></trkpt><trkpt lat="38.68137093286593" lon="16.35263829629074"><ele>719.8333333333333</ele><time>2026-04-27T16:00:33Z</time></trkpt><trkpt lat="38.68131550455492" lon="16.352552438386994"><ele>722.0</ele><time>2026-04-27T16:00:34Z</time></trkpt><trkpt lat="38.68125579901282" lon="16.352465968164033"><ele>722.0</ele><time>2026-04-27T16:00:35Z</time></trkpt><trkpt lat="38.68120858718657" lon="16.35237918320415"><ele>722.0</ele><time>2026-04-27T16:00:36Z</time></trkpt><trkpt lat="38.6811728806679" lon="16.352290154634655"><ele>722.0</ele><time>2026-04-27T16:00:37Z</time></trkpt><trkpt lat="38.681071097538705" lon="16.352234329564638"><ele>722.0</ele><time>2026-04-27T16:00:38Z</time></trkpt><trkpt lat="38.681046222649115" lon="16.352105127405984"><ele>722.0</ele><time>2026-04-27T16:00:39Z</time></trkpt><trkpt lat="38.68104127977849" lon="16.351968913379093"><ele>721.25</ele><time>2026-04-27T16:00:40Z</time></trkpt><trkpt lat="38.681042231872894" lon="16.351827767761446"><ele>720.5</ele><time>2026-04-27T16:00:41Z</time></trkpt><trkpt lat="38.68104936337275" lon="16.351673374388994"><ele>719.75</ele><time>2026-04-27T16:00:42Z</time></trkpt><trkpt lat="38.681044597989576" lon="16.351527609145393"><ele>719.0</ele><time>2026-04-27T16:00:43Z</time></trkpt><trkpt lat="38.681028179711944" lon="16.35138815607379"><ele>719.0</ele><time>2026-04-27T16:00:44Z</time></trkpt><trkpt lat="38.68100954604466" lon="16.351233562544827"><ele>719.0</ele><time>2026-04-27T16:00:45Z</time></trkpt><trkpt lat="38.68100969357676" lon="16.351100835763887"><ele>719.0</ele><time>2026-04-27T16:00:46Z</time></trkpt><trkpt lat="38.68101324790364" lon="16.350990680708037"><ele>719.0</ele><time>2026-04-27T16:00:47Z</time></trkpt><trkpt lat="38.681014582848476" lon="16.350878003771047"><ele>719.0</ele><time>2026-04-27T16:00:48Z</time></trkpt><trkpt lat="38.68107574245301" lon="16.350769441857075"><ele>719.0</ele><time>2026-04-27T16:00:49Z</time></trkpt><trkpt lat="38.68103085047173" lon="16.350690632543493"><ele>719.0</ele><time>2026-04-27T16:00:50Z</time></trkpt><trkpt lat="38.680971581093715" lon="16.350631337366714"><ele>719.0</ele><time>2026-04-27T16:00:51Z</time></trkpt><trkpt lat="38.68088549325844" lon="16.350585339743112"><ele>719.0</ele><time>2026-04-27T16:00:52Z</time></trkpt><trkpt lat="38.68076892211962" lon="16.35055841397022"><ele>719.0</ele><time>2026-04-27T16:00:53Z</time></trkpt><trkpt lat="38.68065361665725" lon="16.350529689331534"><ele>720.0</ele><time>2026-04-27T16:00:54Z</time></trkpt><trkpt lat="38.68053039799448" lon="16.350493035355818"><ele>721.0</ele><time>2026-04-27T16:00:55Z</time></trkpt><trkpt lat="38.680424724324084" lon="16.35046876745154"><ele>722.0</ele><time>2026-04-27T16:00:56Z</time></trkpt><trkpt lat="38.68031720610727" lon="16.35043348245654"><ele>723.0</ele><time>2026-04-27T16:00:57Z</time></trkpt><trkpt lat="38.680219081258635" lon="16.350385153711013"><ele>723.6666666666666</ele><time>2026-04-27T16:00:58Z</time></trkpt><trkpt lat="38.68013710166941" lon="16.350339936531157"><ele>724.3333333333334</ele><time>2026-04-27T16:00:59Z</time></trkpt><trkpt lat="38.68008062573245" lon="16.35028388102106"><ele>725.0</ele><time>2026-04-27T16:01:00Z</time></trkpt><trkpt lat="38.68002135349882" lon="16.35020736701454"><ele>725.6666666666667</ele><time>2026-04-27T16:01:01Z</time></trkpt><trkpt lat="38.67996158485717" lon="16.350116825671574"><ele>726.3333333333334</ele><time>2026-04-27T16:01:02Z</time></trkpt><trkpt lat="38.67989479080315" lon="16.350011432113327"><ele>727.0</ele><time>2026-04-27T16:01:03Z</time></trkpt><trkpt lat="38.67980857100765" lon="16.349909624477426"><ele>727.0</ele><time>2026-04-27T16:01:04Z</time></trkpt><trkpt lat="38.679705856242904" lon="16.349830506044757"><ele>727.0</ele><time>2026-04-27T16:01:05Z</time></trkpt><trkpt lat="38.67960463602154" lon="16.3497456876101"><ele>727.0</ele><time>2026-04-27T16:01:06Z</time></trkpt><trkpt lat="38.67952317817938" lon="16.349653856093905"><ele>727.0</ele><time>2026-04-27T16:01:07Z</time></trkpt><trkpt lat="38.67944680715405" lon="16.3495628195893"><ele>728.0</ele><time>2026-04-27T16:01:08Z</time></trkpt><trkpt lat="38.6793751101752" lon="16.349470190111468"><ele>729.0</ele><time>2026-04-27T16:01:09Z</time></trkpt><trkpt lat="38.679309046760814" lon="16.349362024944895"><ele>730.0</ele><time>2026-04-27T16:01:09.999Z</time></trkpt><trkpt lat="38.67925283486099" lon="16.349243472330595"><ele>731.0</ele><time>2026-04-27T16:01:10.999Z</time></trkpt><trkpt lat="38.67919392787762" lon="16.349140850936617"><ele>732.0</ele><time>2026-04-27T16:01:11.999Z</time></trkpt><trkpt lat="38.67912170127181" lon="16.34905591117183"><ele>732.0</ele><time>2026-04-27T16:01:12.999Z</time></trkpt><trkpt lat="38.67902958412213" lon="16.348980421072667"><ele>732.0</ele><time>2026-04-27T16:01:13.999Z</time></trkpt><trkpt lat="38.678937333717904" lon="16.34891131782323"><ele>732.0</ele><time>2026-04-27T16:01:14.999Z</time></trkpt><trkpt lat="38.67885866334143" lon="16.34887739804506"><ele>732.0</ele><time>2026-04-27T16:01:15.999Z</time></trkpt><trkpt lat="38.678802485328035" lon="16.34883544164456"><ele>732.0</ele><time>2026-04-27T16:01:16.999Z</time></trkpt><trkpt lat="38.67873252447124" lon="16.348812053331255"><ele>732.0</ele><time>2026-04-27T16:01:17.999Z</time></trkpt><trkpt lat="38.67861852860614" lon="16.34883889194353"><ele>733.0</ele><time>2026-04-27T16:01:18.999Z</time></trkpt><trkpt lat="38.678514069797636" lon="16.348931604502646"><ele>734.0</ele><time>2026-04-27T16:01:19.999Z</time></trkpt><trkpt lat="38.67842906374077" lon="16.349011523507524"><ele>735.0</ele><time>2026-04-27T16:01:20.999Z</time></trkpt><trkpt lat="38.67836877252057" lon="16.34906492698631"><ele>736.0</ele><time>2026-04-27T16:01:21.999Z</time></trkpt><trkpt lat="38.67827753114721" lon="16.349136169184145"><ele>737.0</ele><time>2026-04-27T16:01:24Z</time></trkpt><trkpt lat="38.67821563530055" lon="16.34923335846977"><ele>737.0</ele><time>2026-04-27T16:01:25Z</time></trkpt><trkpt lat="38.67812528486679" lon="16.349217334396833"><ele>737.0</ele><time>2026-04-27T16:01:26Z</time></trkpt><trkpt lat="38.67802862229241" lon="16.349178651879782"><ele>737.0</ele><time>2026-04-27T16:01:27Z</time></trkpt><trkpt lat="38.67793160848712" lon="16.34912869543949"><ele>737.0</ele><time>2026-04-27T16:01:28Z</time></trkpt><trkpt lat="38.67779928730604" lon="16.34906113304852"><ele>737.0</ele><time>2026-04-27T16:01:29Z</time></trkpt><trkpt lat="38.677667778387764" lon="16.348989847799597"><ele>737.5</ele><time>2026-04-27T16:01:30Z</time></trkpt><trkpt lat="38.677548222674204" lon="16.34889780654229"><ele>738.0</ele><time>2026-04-27T16:01:31Z</time></trkpt><trkpt lat="38.677419624472726" lon="16.348791906564912"><ele>738.5</ele><time>2026-04-27T16:01:32Z</time></trkpt><trkpt lat="38.67729693400281" lon="16.348674229613316"><ele>739.0</ele><time>2026-04-27T16:01:33Z</time></trkpt><trkpt lat="38.67719891227846" lon="16.348576459046367"><ele>739.0</ele><time>2026-04-27T16:01:34Z</time></trkpt><trkpt lat="38.67712066182333" lon="16.34848808026814"><ele>739.0</ele><time>2026-04-27T16:01:35Z</time></trkpt><trkpt lat="38.677048128109405" lon="16.348400094705664"><ele>739.0</ele><time>2026-04-27T16:01:36Z</time></trkpt><trkpt lat="38.67697867546539" lon="16.348322510957992"><ele>739.0</ele><time>2026-04-27T16:01:37Z</time></trkpt><trkpt lat="38.67690361986357" lon="16.348272740760045"><ele>739.0</ele><time>2026-04-27T16:01:38Z</time></trkpt><trkpt lat="38.676837383721995" lon="16.348258362582396"><ele>739.0</ele><time>2026-04-27T16:01:39Z</time></trkpt><trkpt lat="38.676759497697546" lon="16.34826405677997"><ele>738.0</ele><time>2026-04-27T16:01:40Z</time></trkpt><trkpt lat="38.67665360717218" lon="16.34829479296166"><ele>737.0</ele><time>2026-04-27T16:01:41Z</time></trkpt><trkpt lat="38.676538875031795" lon="16.34835918498857"><ele>736.0</ele><time>2026-04-27T16:01:42Z</time></trkpt><trkpt lat="38.676411393867866" lon="16.3484465936082"><ele>735.0</ele><time>2026-04-27T16:01:43Z</time></trkpt><trkpt lat="38.676280620450775" lon="16.348519795765675"><ele>735.0</ele><time>2026-04-27T16:01:44Z</time></trkpt><trkpt lat="38.676152406958934" lon="16.348560373043043"><ele>735.0</ele><time>2026-04-27T16:01:45Z</time></trkpt><trkpt lat="38.67601973881907" lon="16.348585707052614"><ele>735.0</ele><time>2026-04-27T16:01:46Z</time></trkpt><trkpt lat="38.675875654046834" lon="16.34860950794658"><ele>735.0</ele><time>2026-04-27T16:01:47Z</time></trkpt><trkpt lat="38.675735089195" lon="16.34862015532503"><ele>735.0</ele><time>2026-04-27T16:01:48Z</time></trkpt><trkpt lat="38.675613202514604" lon="16.348622362309918"><ele>735.0</ele><time>2026-04-27T16:01:49Z</time></trkpt><trkpt lat="38.67550786779978" lon="16.348629694474855"><ele>735.0</ele><time>2026-04-27T16:01:50Z</time></trkpt><trkpt lat="38.67541569379884" lon="16.348646952398795"><ele>735.0</ele><time>2026-04-27T16:01:51Z</time></trkpt><trkpt lat="38.675305112774176" lon="16.348733730326753"><ele>736.4</ele><time>2026-04-27T16:01:53Z</time></trkpt><trkpt lat="38.67525386400929" lon="16.34881956735673"><ele>737.8</ele><time>2026-04-27T16:01:54Z</time></trkpt><trkpt lat="38.67521189426114" lon="16.348927766334562"><ele>739.2</ele><time>2026-04-27T16:01:55Z</time></trkpt><trkpt lat="38.675177909875714" lon="16.34906706211937"><ele>740.6</ele><time>2026-04-27T16:01:56Z</time></trkpt><trkpt lat="38.67513796177252" lon="16.34920517673752"><ele>742.0</ele><time>2026-04-27T16:01:57Z</time></trkpt><trkpt lat="38.675093839844195" lon="16.349331649236657"><ele>742.0</ele><time>2026-04-27T16:01:58Z</time></trkpt><trkpt lat="38.675042370463665" lon="16.349468509408428"><ele>742.0</ele><time>2026-04-27T16:01:59Z</time></trkpt><trkpt lat="38.67499647299692" lon="16.349603595055605"><ele>742.0</ele><time>2026-04-27T16:02:00Z</time></trkpt><trkpt lat="38.674953614796586" lon="16.349732271602758"><ele>742.0</ele><time>2026-04-27T16:02:01Z</time></trkpt><trkpt lat="38.67492182014634" lon="16.34987113373508"><ele>743.0</ele><time>2026-04-27T16:02:02Z</time></trkpt><trkpt lat="38.674897276202685" lon="16.349997657208142"><ele>744.0</ele><time>2026-04-27T16:02:03Z</time></trkpt><trkpt lat="38.67488341599493" lon="16.350136242417854"><ele>745.0</ele><time>2026-04-27T16:02:04Z</time></trkpt><trkpt lat="38.67486456038212" lon="16.35026692163712"><ele>746.0</ele><time>2026-04-27T16:02:05Z</time></trkpt><trkpt lat="38.67482407652817" lon="16.350390188511415"><ele>747.0</ele><time>2026-04-27T16:02:06Z</time></trkpt><trkpt lat="38.674758317567296" lon="16.350523445401702"><ele>750.3333333333334</ele><time>2026-04-27T16:02:07Z</time></trkpt><trkpt lat="38.674575758681165" lon="16.350602878118664"><ele>753.6666666666667</ele><time>2026-04-27T16:02:08Z</time></trkpt><trkpt lat="38.674616548662755" lon="16.350804580298938"><ele>757.0</ele><time>2026-04-27T16:02:09Z</time></trkpt><trkpt lat="38.674556322016926" lon="16.3509295139978"><ele>757.0</ele><time>2026-04-27T16:02:10Z</time></trkpt><trkpt lat="38.674493385204904" lon="16.351066561006554"><ele>757.0</ele><time>2026-04-27T16:02:11Z</time></trkpt><trkpt lat="38.674420624331255" lon="16.3512167007154"><ele>757.0</ele><time>2026-04-27T16:02:12Z</time></trkpt><trkpt lat="38.674345787343945" lon="16.351356115386327"><ele>757.0</ele><time>2026-04-27T16:02:13Z</time></trkpt><trkpt lat="38.67426953556373" lon="16.351497674232736"><ele>757.5</ele><time>2026-04-27T16:02:14Z</time></trkpt><trkpt lat="38.67418726685039" lon="16.351639377810265"><ele>758.0</ele><time>2026-04-27T16:02:15Z</time></trkpt><trkpt lat="38.674105531489054" lon="16.351789748262956"><ele>758.5</ele><time>2026-04-27T16:02:16Z</time></trkpt><trkpt lat="38.67401951931805" lon="16.35194101290087"><ele>759.0</ele><time>2026-04-27T16:02:17Z</time></trkpt><trkpt lat="38.67393585370185" lon="16.352078282318654"><ele>759.0</ele><time>2026-04-27T16:02:18Z</time></trkpt><trkpt lat="38.67385025289892" lon="16.35219953408338"><ele>759.0</ele><time>2026-04-27T16:02:19Z</time></trkpt><trkpt lat="38.67375691711576" lon="16.352311678829"><ele>759.0</ele><time>2026-04-27T16:02:20Z</time></trkpt><trkpt lat="38.67366304411764" lon="16.35240623961501"><ele>759.0</ele><time>2026-04-27T16:02:21Z</time></trkpt><trkpt lat="38.67355793143682" lon="16.35249139096701"><ele>762.3333333333333</ele><time>2026-04-27T16:02:22Z</time></trkpt><trkpt lat="38.67343942183517" lon="16.352592412325045"><ele>765.6666666666666</ele><time>2026-04-27T16:02:23Z</time></trkpt><trkpt lat="38.67330850590361" lon="16.352707260762973"><ele>769.0</ele><time>2026-04-27T16:02:24Z</time></trkpt><trkpt lat="38.67317676202842" lon="16.3528196699513"><ele>769.0</ele><time>2026-04-27T16:02:25Z</time></trkpt><trkpt lat="38.67304856978034" lon="16.35290938991177"><ele>769.0</ele><time>2026-04-27T16:02:26Z</time></trkpt><trkpt lat="38.67290551284462" lon="16.35298263587115"><ele>769.0</ele><time>2026-04-27T16:02:27Z</time></trkpt><trkpt lat="38.672760779674235" lon="16.353050250707035"><ele>772.0</ele><time>2026-04-27T16:02:28Z</time></trkpt><trkpt lat="38.6726153762748" lon="16.353120689345793"><ele>775.0</ele><time>2026-04-27T16:02:29Z</time></trkpt><trkpt lat="38.67246993116571" lon="16.353191230176076"><ele>778.0</ele><time>2026-04-27T16:02:30Z</time></trkpt><trkpt lat="38.67232837156079" lon="16.353247025704906"><ele>778.0</ele><time>2026-04-27T16:02:31Z</time></trkpt><trkpt lat="38.6721997941152" lon="16.3532859891368"><ele>778.0</ele><time>2026-04-27T16:02:32Z</time></trkpt><trkpt lat="38.67206365344522" lon="16.35331131545222"><ele>778.0</ele><time>2026-04-27T16:02:33Z</time></trkpt><trkpt lat="38.67191030957327" lon="16.353315823422715"><ele>778.0</ele><time>2026-04-27T16:02:34Z</time></trkpt><trkpt lat="38.671750415818714" lon="16.353311429617847"><ele>779.5</ele><time>2026-04-27T16:02:35Z</time></trkpt><trkpt lat="38.67160981983115" lon="16.35330702269603"><ele>781.0</ele><time>2026-04-27T16:02:36Z</time></trkpt><trkpt lat="38.67147756110512" lon="16.35330661027457"><ele>782.5</ele><time>2026-04-27T16:02:37Z</time></trkpt><trkpt lat="38.67132724514919" lon="16.35332286046674"><ele>784.0</ele><time>2026-04-27T16:02:38Z</time></trkpt><trkpt lat="38.67118336365306" lon="16.35335468238203"><ele>784.75</ele><time>2026-04-27T16:02:39Z</time></trkpt><trkpt lat="38.67104822258796" lon="16.3533886518806"><ele>785.5</ele><time>2026-04-27T16:02:40Z</time></trkpt><trkpt lat="38.67091637507186" lon="16.353430631501737"><ele>786.25</ele><time>2026-04-27T16:02:41Z</time></trkpt><trkpt lat="38.670795436843825" lon="16.353496920715124"><ele>787.0</ele><time>2026-04-27T16:02:42Z</time></trkpt><trkpt lat="38.670680510566136" lon="16.35358903696917"><ele>787.0</ele><time>2026-04-27T16:02:43Z</time></trkpt><trkpt lat="38.67049472156922" lon="16.353571660502162"><ele>787.0</ele><time>2026-04-27T16:02:44Z</time></trkpt><trkpt lat="38.670473998266885" lon="16.353845870642246"><ele>787.0</ele><time>2026-04-27T16:02:45Z</time></trkpt><trkpt lat="38.67037751236498" lon="16.353994432636146"><ele>786.3333333333333</ele><time>2026-04-27T16:02:46Z</time></trkpt><trkpt lat="38.67026849371151" lon="16.354138647206813"><ele>785.6666666666667</ele><time>2026-04-27T16:02:47Z</time></trkpt><trkpt lat="38.67015011550054" lon="16.35428248733718"><ele>785.0</ele><time>2026-04-27T16:02:48Z</time></trkpt><trkpt lat="38.67002722624374" lon="16.354421117350174"><ele>785.0</ele><time>2026-04-27T16:02:49Z</time></trkpt><trkpt lat="38.66990606049021" lon="16.35455069352605"><ele>785.0</ele><time>2026-04-27T16:02:50Z</time></trkpt><trkpt lat="38.66979703023743" lon="16.35465130294123"><ele>785.0</ele><time>2026-04-27T16:02:51Z</time></trkpt><trkpt lat="38.66970512354957" lon="16.35474255716965"><ele>785.0</ele><time>2026-04-27T16:02:52Z</time></trkpt><trkpt lat="38.669632414109664" lon="16.354818933480804"><ele>784.5000000000001</ele><time>2026-04-27T16:02:53Z</time></trkpt><trkpt lat="38.66957125160101" lon="16.35487132580188"><ele>784.0</ele><time>2026-04-27T16:02:54Z</time></trkpt><trkpt lat="38.669507636496505" lon="16.354892613876668"><ele>783.5</ele><time>2026-04-27T16:02:55Z</time></trkpt><trkpt lat="38.66944287341117" lon="16.35489308874575"><ele>783.0</ele><time>2026-04-27T16:02:56Z</time></trkpt><trkpt lat="38.6693582213624" lon="16.35487148864397"><ele>782.5000000000001</ele><time>2026-04-27T16:02:57Z</time></trkpt><trkpt lat="38.669275482896154" lon="16.35484678736873"><ele>782.0</ele><time>2026-04-27T16:02:58Z</time></trkpt><trkpt lat="38.66918797668356" lon="16.35481316629089"><ele>782.0</ele><time>2026-04-27T16:02:59Z</time></trkpt><trkpt lat="38.66908496084268" lon="16.354785551361"><ele>782.0</ele><time>2026-04-27T16:03:00Z</time></trkpt><trkpt lat="38.66898564973133" lon="16.354725020740226"><ele>782.0</ele><time>2026-04-27T16:03:01Z</time></trkpt><trkpt lat="38.6689025464731" lon="16.35465280758794"><ele>782.0</ele><time>2026-04-27T16:03:01.999Z</time></trkpt><trkpt lat="38.668821781022885" lon="16.354554275374298"><ele>782.0</ele><time>2026-04-27T16:03:02.999Z</time></trkpt><trkpt lat="38.66874529348885" lon="16.354443692505214"><ele>783.75</ele><time>2026-04-27T16:03:03.999Z</time></trkpt><trkpt lat="38.66868039524166" lon="16.354321653675225"><ele>785.5</ele><time>2026-04-27T16:03:04.999Z</time></trkpt><trkpt lat="38.66861418171024" lon="16.35417524961981"><ele>787.25</ele><time>2026-04-27T16:03:05.999Z</time></trkpt><trkpt lat="38.66854868824269" lon="16.35402384440328"><ele>789.0</ele><time>2026-04-27T16:03:06.999Z</time></trkpt><trkpt lat="38.66848165572152" lon="16.353885199988923"><ele>789.5</ele><time>2026-04-27T16:03:07.999Z</time></trkpt><trkpt lat="38.66841630020223" lon="16.35375167711758"><ele>790.0</ele><time>2026-04-27T16:03:08.999Z</time></trkpt><trkpt lat="38.66834208198185" lon="16.35362642692776"><ele>790.5</ele><time>2026-04-27T16:03:09.999Z</time></trkpt><trkpt lat="38.6682587063329" lon="16.353505313223273"><ele>791.0</ele><time>2026-04-27T16:03:10.999Z</time></trkpt><trkpt lat="38.668174640620215" lon="16.35338568810351"><ele>791.0</ele><time>2026-04-27T16:03:11.999Z</time></trkpt><trkpt lat="38.668098043093856" lon="16.353254482935775"><ele>791.0</ele><time>2026-04-27T16:03:12.999Z</time></trkpt><trkpt lat="38.66803098592298" lon="16.353111649494934"><ele>791.0</ele><time>2026-04-27T16:03:13.999Z</time></trkpt><trkpt lat="38.66796819977664" lon="16.352962532735546"><ele>791.0</ele><time>2026-04-27T16:03:14.999Z</time></trkpt><trkpt lat="38.66790132881107" lon="16.352812003516846"><ele>791.3333333333334</ele><time>2026-04-27T16:03:15.999Z</time></trkpt><trkpt lat="38.66783781665203" lon="16.352644459350323"><ele>791.6666666666667</ele><time>2026-04-27T16:03:16.999Z</time></trkpt><trkpt lat="38.66777474272885" lon="16.35245355762787"><ele>792.0</ele><time>2026-04-27T16:03:17.999Z</time></trkpt><trkpt lat="38.667710392540954" lon="16.35228444737058"><ele>793.25</ele><time>2026-04-27T16:03:18.999Z</time></trkpt><trkpt lat="38.66764915180498" lon="16.352130017325"><ele>794.5</ele><time>2026-04-27T16:03:19.999Z</time></trkpt><trkpt lat="38.667579169258396" lon="16.35196569545893"><ele>795.75</ele><time>2026-04-27T16:03:20.999Z</time></trkpt><trkpt lat="38.66750815346527" lon="16.351797109561055"><ele>797.0</ele><time>2026-04-27T16:03:21.999Z</time></trkpt><trkpt lat="38.66743932830023" lon="16.35161836955718"><ele>797.0</ele><time>2026-04-27T16:03:22.999Z</time></trkpt><trkpt lat="38.66737513878921" lon="16.351448155108184"><ele>797.0</ele><time>2026-04-27T16:03:23.999Z</time></trkpt><trkpt lat="38.667315296895495" lon="16.35128755854484"><ele>797.0</ele><time>2026-04-27T16:03:24.999Z</time></trkpt><trkpt lat="38.66726831394678" lon="16.351118808233387"><ele>797.0</ele><time>2026-04-27T16:03:25.999Z</time></trkpt><trkpt lat="38.66722308625616" lon="16.35096002701753"><ele>795.75</ele><time>2026-04-27T16:03:26.999Z</time></trkpt><trkpt lat="38.66717601392987" lon="16.3507940154074"><ele>794.5</ele><time>2026-04-27T16:03:27.999Z</time></trkpt><trkpt lat="38.66712712815583" lon="16.350617241965374"><ele>793.25</ele><time>2026-04-27T16:03:28.999Z</time></trkpt><trkpt lat="38.66709736754822" lon="16.35044774586139"><ele>792.0</ele><time>2026-04-27T16:03:30Z</time></trkpt><trkpt lat="38.667060857898214" lon="16.35025694525431"><ele>790.5</ele><time>2026-04-27T16:03:31Z</time></trkpt><trkpt lat="38.66702811041244" lon="16.35008572337641"><ele>789.0</ele><time>2026-04-27T16:03:32Z</time></trkpt><trkpt lat="38.666992642018286" lon="16.349922411489665"><ele>787.5</ele><time>2026-04-27T16:03:33Z</time></trkpt><trkpt lat="38.66695807143114" lon="16.349756142508785"><ele>786.0</ele><time>2026-04-27T16:03:34Z</time></trkpt><trkpt lat="38.666923108925474" lon="16.34960169869296"><ele>785.25</ele><time>2026-04-27T16:03:35Z</time></trkpt><trkpt lat="38.66689622787178" lon="16.349457724000587"><ele>784.5</ele><time>2026-04-27T16:03:36Z</time></trkpt><trkpt lat="38.66688482191986" lon="16.34929964986026"><ele>783.75</ele><time>2026-04-27T16:03:37Z</time></trkpt><trkpt lat="38.66689307135338" lon="16.349113831203002"><ele>783.0</ele><time>2026-04-27T16:03:38Z</time></trkpt><trkpt lat="38.66691723428958" lon="16.34893831092072"><ele>783.5</ele><time>2026-04-27T16:03:39Z</time></trkpt><trkpt lat="38.666941282325276" lon="16.34875572112916"><ele>784.0</ele><time>2026-04-27T16:03:40Z</time></trkpt><trkpt lat="38.66695985991534" lon="16.348600097881025"><ele>784.5</ele><time>2026-04-27T16:03:41Z</time></trkpt><trkpt lat="38.66696842748384" lon="16.348453921551325"><ele>785.0</ele><time>2026-04-27T16:03:42Z</time></trkpt><trkpt lat="38.66696914540852" lon="16.348284169778072"><ele>783.75</ele><time>2026-04-27T16:03:43Z</time></trkpt><trkpt lat="38.666981176985" lon="16.34810250633211"><ele>782.5</ele><time>2026-04-27T16:03:44Z</time></trkpt><trkpt lat="38.66700278728772" lon="16.347942239908015"><ele>781.25</ele><time>2026-04-27T16:03:45Z</time></trkpt><trkpt lat="38.66702614158395" lon="16.347806750613323"><ele>780.0</ele><time>2026-04-27T16:03:46Z</time></trkpt><trkpt lat="38.66705159887061" lon="16.34767037282779"><ele>780.0</ele><time>2026-04-27T16:03:47Z</time></trkpt><trkpt lat="38.66708794008265" lon="16.347523018280278"><ele>780.0</ele><time>2026-04-27T16:03:48Z</time></trkpt><trkpt lat="38.66713378611428" lon="16.347357986830293"><ele>780.0</ele><time>2026-04-27T16:03:49Z</time></trkpt><trkpt lat="38.66718621368701" lon="16.347202936177673"><ele>780.0</ele><time>2026-04-27T16:03:50Z</time></trkpt><trkpt lat="38.66723107053843" lon="16.347064822392497"><ele>781.6</ele><time>2026-04-27T16:03:51Z</time></trkpt><trkpt lat="38.66726310865134" lon="16.346943219822663"><ele>783.2</ele><time>2026-04-27T16:03:52Z</time></trkpt><trkpt lat="38.66728119515899" lon="16.34684822738177"><ele>784.8</ele><time>2026-04-27T16:03:53Z</time></trkpt><trkpt lat="38.66728690124299" lon="16.34674310057748"><ele>786.4</ele><time>2026-04-27T16:03:54Z</time></trkpt><trkpt lat="38.667267909155015" lon="16.346612634431516"><ele>788.0</ele><time>2026-04-27T16:03:55Z</time></trkpt><trkpt lat="38.667237401016735" lon="16.34646707092915"><ele>788.75</ele><time>2026-04-27T16:03:56Z</time></trkpt><trkpt lat="38.667223494962" lon="16.34629826462273"><ele>789.5</ele><time>2026-04-27T16:03:57Z</time></trkpt><trkpt lat="38.667140971711966" lon="16.34613734475119"><ele>790.25</ele><time>2026-04-27T16:03:58Z</time></trkpt><trkpt lat="38.66714598555989" lon="16.34597420182562"><ele>791.0</ele><time>2026-04-27T16:03:59Z</time></trkpt><trkpt lat="38.66715669774931" lon="16.34582475662324"><ele>791.0</ele><time>2026-04-27T16:04:00Z</time></trkpt><trkpt lat="38.66716690935174" lon="16.345742041508817"><ele>791.0</ele><time>2026-04-27T16:04:01Z</time></trkpt><trkpt lat="38.66717779288688" lon="16.34564783193831"><ele>791.0</ele><time>2026-04-27T16:04:02Z</time></trkpt><trkpt lat="38.66717910400171" lon="16.345559377325827"><ele>791.0</ele><time>2026-04-27T16:04:14Z</time></trkpt><trkpt lat="38.66703203612996" lon="16.345555956914804"><ele>791.0</ele><time>2026-04-27T16:04:15Z</time></trkpt><trkpt lat="38.66693211210506" lon="16.345569017163605"><ele>790.8</ele><time>2026-04-27T16:04:16Z</time></trkpt><trkpt lat="38.66683099012582" lon="16.34556910095915"><ele>790.5999999999999</ele><time>2026-04-27T16:04:17Z</time></trkpt><trkpt lat="38.66673139024499" lon="16.345580583903086"><ele>790.4</ele><time>2026-04-27T16:04:18Z</time></trkpt><trkpt lat="38.666619678511054" lon="16.345601942319163"><ele>790.2</ele><time>2026-04-27T16:04:19Z</time></trkpt><trkpt lat="38.66651392052103" lon="16.34561157617381"><ele>790.0</ele><time>2026-04-27T16:04:20Z</time></trkpt><trkpt lat="38.666389386694966" lon="16.3456349021378"><ele>790.0</ele><time>2026-04-27T16:04:21Z</time></trkpt><trkpt lat="38.666279352556316" lon="16.345661916627915"><ele>790.0</ele><time>2026-04-27T16:04:22Z</time></trkpt><trkpt lat="38.66618425429963" lon="16.345695982453528"><ele>790.0</ele><time>2026-04-27T16:04:23Z</time></trkpt><trkpt lat="38.66608522770827" lon="16.34573905011638"><ele>790.0</ele><time>2026-04-27T16:04:24Z</time></trkpt><trkpt lat="38.66594397279161" lon="16.34579701651296"><ele>791.25</ele><time>2026-04-27T16:04:25Z</time></trkpt><trkpt lat="38.66582604613766" lon="16.3458331175047"><ele>792.5</ele><time>2026-04-27T16:04:26Z</time></trkpt><trkpt lat="38.66570441440978" lon="16.34587029660948"><ele>793.75</ele><time>2026-04-27T16:04:27Z</time></trkpt><trkpt lat="38.665599346066685" lon="16.34590716511187"><ele>795.0</ele><time>2026-04-27T16:04:28Z</time></trkpt><trkpt lat="38.66549919680012" lon="16.34594295302746"><ele>795.0</ele><time>2026-04-27T16:04:29Z</time></trkpt><trkpt lat="38.665388145834" lon="16.34598742590671"><ele>795.0</ele><time>2026-04-27T16:04:30Z</time></trkpt><trkpt lat="38.66527353020084" lon="16.346033375537882"><ele>795.0</ele><time>2026-04-27T16:04:31Z</time></trkpt><trkpt lat="38.66516112818564" lon="16.346092859543344"><ele>795.0</ele><time>2026-04-27T16:04:32Z</time></trkpt><trkpt lat="38.66505059882396" lon="16.346167254480406"><ele>797.0</ele><time>2026-04-27T16:04:33Z</time></trkpt><trkpt lat="38.664941476108666" lon="16.346222895673122"><ele>799.0</ele><time>2026-04-27T16:04:34Z</time></trkpt><trkpt lat="38.66482798239009" lon="16.346262664111745"><ele>801.0</ele><time>2026-04-27T16:04:35Z</time></trkpt><trkpt lat="38.664711598032525" lon="16.346298551480036"><ele>803.0</ele><time>2026-04-27T16:04:36Z</time></trkpt><trkpt lat="38.66460489703867" lon="16.346341576766367"><ele>803.0</ele><time>2026-04-27T16:04:37Z</time></trkpt><trkpt lat="38.66450759530646" lon="16.346374356106356"><ele>803.0</ele><time>2026-04-27T16:04:38Z</time></trkpt><trkpt lat="38.66444448348141" lon="16.346390201323015"><ele>803.0</ele><time>2026-04-27T16:04:39Z</time></trkpt><trkpt lat="38.66431101207243" lon="16.34638307447366"><ele>803.0</ele><time>2026-04-27T16:04:41Z</time></trkpt><trkpt lat="38.66419705992238" lon="16.34636555979113"><ele>803.0</ele><time>2026-04-27T16:04:42Z</time></trkpt><trkpt lat="38.664088935360525" lon="16.34634533462073"><ele>803.8</ele><time>2026-04-27T16:04:43Z</time></trkpt><trkpt lat="38.663996413903746" lon="16.346301245950784"><ele>804.5999999999999</ele><time>2026-04-27T16:04:44Z</time></trkpt><trkpt lat="38.66390944212475" lon="16.34623178114309"><ele>805.4000000000001</ele><time>2026-04-27T16:04:45Z</time></trkpt><trkpt lat="38.663830579447215" lon="16.34613262976905"><ele>806.2</ele><time>2026-04-27T16:04:46Z</time></trkpt><trkpt lat="38.663746606899416" lon="16.34601418558159"><ele>807.0</ele><time>2026-04-27T16:04:47Z</time></trkpt><trkpt lat="38.66368554410656" lon="16.345922483893926"><ele>807.0</ele><time>2026-04-27T16:04:48Z</time></trkpt><trkpt lat="38.66362616407998" lon="16.34586437133845"><ele>807.0</ele><time>2026-04-27T16:04:49Z</time></trkpt><trkpt lat="38.66353892598308" lon="16.34582825120149"><ele>807.0</ele><time>2026-04-27T16:04:50Z</time></trkpt><trkpt lat="38.6634201686193" lon="16.345795809380846"><ele>807.0</ele><time>2026-04-27T16:04:51Z</time></trkpt><trkpt lat="38.6632758851184" lon="16.345756584888495"><ele>807.0</ele><time>2026-04-27T16:04:52Z</time></trkpt><trkpt lat="38.66314372838886" lon="16.34572071680653"><ele>806.6</ele><time>2026-04-27T16:04:53Z</time></trkpt><trkpt lat="38.663057351121225" lon="16.345681701857888"><ele>806.2</ele><time>2026-04-27T16:04:54Z</time></trkpt><trkpt lat="38.66299479511445" lon="16.345625990154637"><ele>805.8</ele><time>2026-04-27T16:04:55Z</time></trkpt><trkpt lat="38.66293819489331" lon="16.345530401491004"><ele>805.4</ele><time>2026-04-27T16:04:56Z</time></trkpt><trkpt lat="38.66288419517631" lon="16.345410793816143"><ele>805.0</ele><time>2026-04-27T16:04:57Z</time></trkpt><trkpt lat="38.66285432016533" lon="16.345297057954923"><ele>805.0</ele><time>2026-04-27T16:04:58Z</time></trkpt><trkpt lat="38.66284621277741" lon="16.345172492019536"><ele>805.0</ele><time>2026-04-27T16:04:59Z</time></trkpt><trkpt lat="38.66282987908703" lon="16.34507128390961"><ele>805.0</ele><time>2026-04-27T16:05:00Z</time></trkpt><trkpt lat="38.662775214574076" lon="16.344974337664354"><ele>805.0</ele><time>2026-04-27T16:05:00.999Z</time></trkpt><trkpt lat="38.66270415612474" lon="16.34485579188247"><ele>805.0</ele><time>2026-04-27T16:05:01.999Z</time></trkpt><trkpt lat="38.662649349227124" lon="16.344744123286297"><ele>805.4</ele><time>2026-04-27T16:05:02.999Z</time></trkpt><trkpt lat="38.662613113871295" lon="16.344652353223275"><ele>805.8</ele><time>2026-04-27T16:05:03.999Z</time></trkpt><trkpt lat="38.662582604803234" lon="16.34455350525132"><ele>806.2</ele><time>2026-04-27T16:05:05.999Z</time></trkpt><trkpt lat="38.66260074910483" lon="16.34466583748382"><ele>806.6</ele><time>2026-04-27T16:05:25.999Z</time></trkpt><trkpt lat="38.66266618452316" lon="16.344821590706992"><ele>807.0</ele><time>2026-04-27T16:05:26.999Z</time></trkpt><trkpt lat="38.66271937545232" lon="16.344949862098343"><ele>806.6666666666666</ele><time>2026-04-27T16:05:27.999Z</time></trkpt><trkpt lat="38.66276781119899" lon="16.345050676347675"><ele>806.3333333333333</ele><time>2026-04-27T16:05:28.999Z</time></trkpt><trkpt lat="38.66281968359606" lon="16.345156187087074"><ele>806.0</ele><time>2026-04-27T16:05:29.999Z</time></trkpt><trkpt lat="38.662864537498805" lon="16.34525060919749"><ele>805.6666666666666</ele><time>2026-04-27T16:05:30.999Z</time></trkpt><trkpt lat="38.66287364800764" lon="16.345356348665764"><ele>805.3333333333333</ele><time>2026-04-27T16:05:32.999Z</time></trkpt><trkpt lat="38.66287916101482" lon="16.345467591974305"><ele>805.0</ele><time>2026-04-27T16:05:34.999Z</time></trkpt><trkpt lat="38.66294204696598" lon="16.345593751214395"><ele>807.2</ele><time>2026-04-27T16:05:37Z</time></trkpt><trkpt lat="38.66303405690011" lon="16.345687089506"><ele>809.4</ele><time>2026-04-27T16:05:39Z</time></trkpt><trkpt lat="38.66310367887498" lon="16.345738381575515"><ele>811.5999999999999</ele><time>2026-04-27T16:05:41Z</time></trkpt><trkpt lat="38.66319645651189" lon="16.345778194234974"><ele>813.8</ele><time>2026-04-27T16:05:43Z</time></trkpt><trkpt lat="38.66331312193169" lon="16.345806738464862"><ele>816.0</ele><time>2026-04-27T16:05:45Z</time></trkpt><trkpt lat="38.663374505939274" lon="16.345825719721706"><ele>816.0</ele><time>2026-04-27T16:05:46Z</time></trkpt><trkpt lat="38.663490492137605" lon="16.345853381103232"><ele>816.0</ele><time>2026-04-27T16:05:48Z</time></trkpt><trkpt lat="38.66360977193547" lon="16.345887633670845"><ele>816.0</ele><time>2026-04-27T16:05:50Z</time></trkpt><trkpt lat="38.66371404731746" lon="16.345967769073315"><ele>816.0</ele><time>2026-04-27T16:05:52Z</time></trkpt><trkpt lat="38.663754062131986" lon="16.346032234718113"><ele>816.0</ele><time>2026-04-27T16:05:53Z</time></trkpt><trkpt lat="38.66381909964106" lon="16.346155491974756"><ele>815.1999999999999</ele><time>2026-04-27T16:05:55Z</time></trkpt><trkpt lat="38.66387534999626" lon="16.346237133853613"><ele>814.4</ele><time>2026-04-27T16:05:57Z</time></trkpt><trkpt lat="38.66394214246525" lon="16.3462962492796"><ele>813.6</ele><time>2026-04-27T16:05:59Z</time></trkpt><trkpt lat="38.66402655370126" lon="16.34634839292036"><ele>812.8</ele><time>2026-04-27T16:06:01Z</time></trkpt><trkpt lat="38.66413933125427" lon="16.34639371014792"><ele>812.0</ele><time>2026-04-27T16:06:03Z</time></trkpt><trkpt lat="38.66423448628733" lon="16.34639817297098"><ele>812.0000000000001</ele><time>2026-04-27T16:06:05Z</time></trkpt><trkpt lat="38.66429977724197" lon="16.346395750038994"><ele>812.0</ele><time>2026-04-27T16:06:12Z</time></trkpt><trkpt lat="38.664389450019705" lon="16.34640215642384"><ele>812.0</ele><time>2026-04-27T16:06:25Z</time></trkpt><trkpt lat="38.66447540433003" lon="16.346407254994375"><ele>812.0</ele><time>2026-04-27T16:06:27Z</time></trkpt><trkpt lat="38.66454970240445" lon="16.346396844161763"><ele>812.0000000000001</ele><time>2026-04-27T16:07:03.999Z</time></trkpt><trkpt lat="38.6646200489101" lon="16.346373964316193"><ele>812.0</ele><time>2026-04-27T16:07:06.999Z</time></trkpt><trkpt lat="38.66468697150837" lon="16.346338498888677"><ele>810.5000000000001</ele><time>2026-04-27T16:07:07.999Z</time></trkpt><trkpt lat="38.664773716812654" lon="16.346296139105117"><ele>809.0</ele><time>2026-04-27T16:07:08.999Z</time></trkpt><trkpt lat="38.66485537548391" lon="16.346259311842957"><ele>807.5</ele><time>2026-04-27T16:07:09.999Z</time></trkpt><trkpt lat="38.66493318917258" lon="16.346232555182702"><ele>806.0</ele><time>2026-04-27T16:07:10.999Z</time></trkpt><trkpt lat="38.66501616595254" lon="16.346199670618816"><ele>804.5000000000001</ele><time>2026-04-27T16:07:11.999Z</time></trkpt><trkpt lat="38.66510590911879" lon="16.34616483094114"><ele>803.0</ele><time>2026-04-27T16:07:12.999Z</time></trkpt><trkpt lat="38.66518742548813" lon="16.346128767643165"><ele>803.0</ele><time>2026-04-27T16:07:13.999Z</time></trkpt><trkpt lat="38.665269657141124" lon="16.346089455880033"><ele>803.0</ele><time>2026-04-27T16:07:14.999Z</time></trkpt><trkpt lat="38.66535126244473" lon="16.346049921388694"><ele>803.0</ele><time>2026-04-27T16:07:15.999Z</time></trkpt><trkpt lat="38.665440373393" lon="16.3460048647686"><ele>803.0</ele><time>2026-04-27T16:07:16.999Z</time></trkpt><trkpt lat="38.66553220287083" lon="16.345967763767607"><ele>803.0</ele><time>2026-04-27T16:07:17.999Z</time></trkpt><trkpt lat="38.66563616707465" lon="16.34592824728804"><ele>801.0</ele><time>2026-04-27T16:07:18.999Z</time></trkpt><trkpt lat="38.66574255278824" lon="16.345883577878002"><ele>799.0</ele><time>2026-04-27T16:07:19.999Z</time></trkpt><trkpt lat="38.66585289590093" lon="16.345841548154404"><ele>797.0</ele><time>2026-04-27T16:07:20.999Z</time></trkpt><trkpt lat="38.66596412935856" lon="16.34580144326738"><ele>795.0</ele><time>2026-04-27T16:07:21.999Z</time></trkpt><trkpt lat="38.666074523645115" lon="16.345759574467436"><ele>794.0</ele><time>2026-04-27T16:07:22.999Z</time></trkpt><trkpt lat="38.66618156790516" lon="16.345717966337848"><ele>793.0</ele><time>2026-04-27T16:07:23.999Z</time></trkpt><trkpt lat="38.6662820699629" lon="16.345682030851616"><ele>792.0</ele><time>2026-04-27T16:07:24.999Z</time></trkpt><trkpt lat="38.666389313946794" lon="16.34564476946735"><ele>791.0</ele><time>2026-04-27T16:07:25.999Z</time></trkpt><trkpt lat="38.666506793705615" lon="16.345616046083283"><ele>790.0</ele><time>2026-04-27T16:07:26.999Z</time></trkpt><trkpt lat="38.66662069764696" lon="16.345602284189827"><ele>790.0</ele><time>2026-04-27T16:07:27.999Z</time></trkpt><trkpt lat="38.66674047878305" lon="16.345592778808953"><ele>790.0</ele><time>2026-04-27T16:07:28.999Z</time></trkpt><trkpt lat="38.666848508067176" lon="16.345582226136372"><ele>790.0</ele><time>2026-04-27T16:07:29.999Z</time></trkpt><trkpt lat="38.666951413063956" lon="16.34557512998553"><ele>790.0</ele><time>2026-04-27T16:07:30.999Z</time></trkpt><trkpt lat="38.66703139359742" lon="16.345563891661996"><ele>790.0</ele><time>2026-04-27T16:07:31.999Z</time></trkpt><trkpt lat="38.66713150140383" lon="16.345594680347983"><ele>790.0</ele><time>2026-04-27T16:07:33.999Z</time></trkpt><trkpt lat="38.66714357718879" lon="16.34568042212691"><ele>790.0</ele><time>2026-04-27T16:07:35.999Z</time></trkpt><trkpt lat="38.66705466379235" lon="16.345713809640543"><ele>790.0</ele><time>2026-04-27T16:07:37.999Z</time></trkpt><trkpt lat="38.666968908372496" lon="16.34570128685625"><ele>790.0</ele><time>2026-04-27T16:07:38.999Z</time></trkpt><trkpt lat="38.66686701162077" lon="16.345691583997297"><ele>790.0</ele><time>2026-04-27T16:07:39.999Z</time></trkpt><trkpt lat="38.666752434228236" lon="16.345694504373924"><ele>790.0</ele><time>2026-04-27T16:07:40.999Z</time></trkpt><trkpt lat="38.666633430754565" lon="16.34570665947767"><ele>790.0</ele><time>2026-04-27T16:07:42Z</time></trkpt><trkpt lat="38.66654086521648" lon="16.34570700899893"><ele>790.0</ele><time>2026-04-27T16:07:43Z</time></trkpt><trkpt lat="38.66644308900242" lon="16.34571188738417"><ele>790.0</ele><time>2026-04-27T16:07:44Z</time></trkpt><trkpt lat="38.66634603296516" lon="16.345725122965952"><ele>790.0</ele><time>2026-04-27T16:07:45Z</time></trkpt><trkpt lat="38.66625668507675" lon="16.345749320052438"><ele>790.0</ele><time>2026-04-27T16:07:46Z</time></trkpt><trkpt lat="38.66616788328569" lon="16.345779794652373"><ele>790.0</ele><time>2026-04-27T16:07:47Z</time></trkpt><trkpt lat="38.666074756476426" lon="16.345819145158096"><ele>790.0</ele><time>2026-04-27T16:07:48Z</time></trkpt><trkpt lat="38.6659913789353" lon="16.345856874245207"><ele>790.0</ele><time>2026-04-27T16:07:49Z</time></trkpt><trkpt lat="38.66591556709661" lon="16.3458831562161"><ele>790.0</ele><time>2026-04-27T16:07:50Z</time></trkpt><trkpt lat="38.665823954867626" lon="16.345915121848183"><ele>791.0</ele><time>2026-04-27T16:07:51Z</time></trkpt><trkpt lat="38.66572906679126" lon="16.345948282217837"><ele>792.0</ele><time>2026-04-27T16:07:52Z</time></trkpt><trkpt lat="38.66563129294492" lon="16.345984438231888"><ele>793.0</ele><time>2026-04-27T16:07:53Z</time></trkpt><trkpt lat="38.66553586467951" lon="16.346024255269757"><ele>794.0</ele><time>2026-04-27T16:07:54Z</time></trkpt><trkpt lat="38.665442159541776" lon="16.34606501697921"><ele>795.0</ele><time>2026-04-27T16:07:55Z</time></trkpt><trkpt lat="38.665362905227354" lon="16.34609598118597"><ele>795.0</ele><time>2026-04-27T16:07:56Z</time></trkpt><trkpt lat="38.665299289483094" lon="16.34612467981717"><ele>795.0</ele><time>2026-04-27T16:07:57Z</time></trkpt><trkpt lat="38.665237973155186" lon="16.34615442842308"><ele>795.0</ele><time>2026-04-27T16:07:58Z</time></trkpt><trkpt lat="38.665172081689114" lon="16.346200274798555"><ele>795.0</ele><time>2026-04-27T16:07:59Z</time></trkpt><trkpt lat="38.66511210464026" lon="16.346239960300004"><ele>795.0</ele><time>2026-04-27T16:08:00Z</time></trkpt><trkpt lat="38.665048900660246" lon="16.34627343632464"><ele>795.0</ele><time>2026-04-27T16:08:01Z</time></trkpt><trkpt lat="38.664924294439615" lon="16.34631251057204"><ele>796.3333333333334</ele><time>2026-04-27T16:08:03Z</time></trkpt><trkpt lat="38.66484197630649" lon="16.346328868892275"><ele>797.6666666666667</ele><time>2026-04-27T16:08:04Z</time></trkpt><trkpt lat="38.66475126306722" lon="16.34636100350585"><ele>799.0</ele><time>2026-04-27T16:08:05Z</time></trkpt><trkpt lat="38.66467702102437" lon="16.34640290507999"><ele>800.3333333333334</ele><time>2026-04-27T16:08:06Z</time></trkpt><trkpt lat="38.664601297241994" lon="16.34642859190253"><ele>801.6666666666667</ele><time>2026-04-27T16:08:07Z</time></trkpt><trkpt lat="38.664503176733156" lon="16.346460563151798"><ele>803.0</ele><time>2026-04-27T16:08:08Z</time></trkpt><trkpt lat="38.66438378172802" lon="16.34647597235463"><ele>805.25</ele><time>2026-04-27T16:08:09Z</time></trkpt><trkpt lat="38.664256647906406" lon="16.346475305410234"><ele>807.5</ele><time>2026-04-27T16:08:10Z</time></trkpt><trkpt lat="38.66413510764105" lon="16.346470683757808"><ele>809.75</ele><time>2026-04-27T16:08:11Z</time></trkpt><trkpt lat="38.66401965290169" lon="16.346451015349384"><ele>812.0</ele><time>2026-04-27T16:08:12Z</time></trkpt><trkpt lat="38.663907478135016" lon="16.34643426625897"><ele>812.0</ele><time>2026-04-27T16:08:13Z</time></trkpt><trkpt lat="38.66379827085716" lon="16.346422189291534"><ele>812.0</ele><time>2026-04-27T16:08:14Z</time></trkpt><trkpt lat="38.663719744817854" lon="16.34638915913979"><ele>812.0</ele><time>2026-04-27T16:08:15Z</time></trkpt><trkpt lat="38.663648057320735" lon="16.346318910643525"><ele>812.0</ele><time>2026-04-27T16:08:16Z</time></trkpt><trkpt lat="38.66355896050236" lon="16.346266401912814"><ele>812.0</ele><time>2026-04-27T16:08:17Z</time></trkpt><trkpt lat="38.663464019492814" lon="16.346229283078223"><ele>812.8</ele><time>2026-04-27T16:08:18Z</time></trkpt><trkpt lat="38.66336377830709" lon="16.346219227901425"><ele>813.6</ele><time>2026-04-27T16:08:19Z</time></trkpt><trkpt lat="38.66326604443925" lon="16.34622287254623"><ele>814.4</ele><time>2026-04-27T16:08:20Z</time></trkpt><trkpt lat="38.663159494709454" lon="16.34623620785157"><ele>815.1999999999999</ele><time>2026-04-27T16:08:21Z</time></trkpt><trkpt lat="38.66304369157972" lon="16.346225065618185"><ele>816.0</ele><time>2026-04-27T16:08:22Z</time></trkpt><trkpt lat="38.66294453659393" lon="16.346195557378188"><ele>816.0</ele><time>2026-04-27T16:08:23Z</time></trkpt><trkpt lat="38.662839715834174" lon="16.346169149377367"><ele>816.0</ele><time>2026-04-27T16:08:24Z</time></trkpt><trkpt lat="38.662731453511356" lon="16.346142310125053"><ele>816.0</ele><time>2026-04-27T16:08:25Z</time></trkpt><trkpt lat="38.66264551726242" lon="16.346125642169604"><ele>816.0</ele><time>2026-04-27T16:08:26Z</time></trkpt><trkpt lat="38.66256760971447" lon="16.346109147899114"><ele>816.0</ele><time>2026-04-27T16:08:27Z</time></trkpt><trkpt lat="38.662464828864096" lon="16.346088186333134"><ele>818.0</ele><time>2026-04-27T16:08:28Z</time></trkpt><trkpt lat="38.662348855459605" lon="16.346058501360634"><ele>820.0</ele><time>2026-04-27T16:08:29Z</time></trkpt><trkpt lat="38.66223527261575" lon="16.34602863537591"><ele>822.0</ele><time>2026-04-27T16:08:30Z</time></trkpt><trkpt lat="38.66214552168181" lon="16.345999106942955"><ele>824.0</ele><time>2026-04-27T16:08:31Z</time></trkpt><trkpt lat="38.66205126712408" lon="16.3459747237553"><ele>826.0</ele><time>2026-04-27T16:08:32Z</time></trkpt><trkpt lat="38.661958721953106" lon="16.345956233265532"><ele>828.0</ele><time>2026-04-27T16:08:33Z</time></trkpt><trkpt lat="38.66183254163024" lon="16.345942516138997"><ele>830.0</ele><time>2026-04-27T16:08:34Z</time></trkpt><trkpt lat="38.66166891429296" lon="16.34593922881569"><ele>832.0</ele><time>2026-04-27T16:08:35Z</time></trkpt><trkpt lat="38.66150860658255" lon="16.345913376021862"><ele>832.0</ele><time>2026-04-27T16:08:36Z</time></trkpt><trkpt lat="38.66135515950222" lon="16.345893706456426"><ele>832.0</ele><time>2026-04-27T16:08:37Z</time></trkpt><trkpt lat="38.661225426792754" lon="16.345885904301753"><ele>832.0</ele><time>2026-04-27T16:08:38Z</time></trkpt><trkpt lat="38.66109875364254" lon="16.345900588498818"><ele>832.0</ele><time>2026-04-27T16:08:39Z</time></trkpt><trkpt lat="38.66097070346898" lon="16.34591702142009"><ele>834.0</ele><time>2026-04-27T16:08:40Z</time></trkpt><trkpt lat="38.66085699426524" lon="16.345928964753178"><ele>836.0</ele><time>2026-04-27T16:08:41Z</time></trkpt><trkpt lat="38.66073943294351" lon="16.345925473174116"><ele>838.0</ele><time>2026-04-27T16:08:42Z</time></trkpt><trkpt lat="38.66060962093713" lon="16.345897361400368"><ele>840.0</ele><time>2026-04-27T16:08:43Z</time></trkpt><trkpt lat="38.6604655057822" lon="16.34587693158224"><ele>840.0</ele><time>2026-04-27T16:08:44Z</time></trkpt><trkpt lat="38.66032662809695" lon="16.345874903709465"><ele>840.0</ele><time>2026-04-27T16:08:45Z</time></trkpt><trkpt lat="38.660193994175856" lon="16.345887724815107"><ele>840.0</ele><time>2026-04-27T16:08:46Z</time></trkpt><trkpt lat="38.66006008439592" lon="16.34585659737188"><ele>840.0</ele><time>2026-04-27T16:08:47Z</time></trkpt><trkpt lat="38.65991992942352" lon="16.345820387531663"><ele>842.4</ele><time>2026-04-27T16:08:48Z</time></trkpt><trkpt lat="38.659777543060365" lon="16.345808606562827"><ele>844.8</ele><time>2026-04-27T16:08:49Z</time></trkpt><trkpt lat="38.65966138473899" lon="16.34577983775361"><ele>847.2</ele><time>2026-04-27T16:08:50Z</time></trkpt><trkpt lat="38.65956557521071" lon="16.34579290107372"><ele>849.6</ele><time>2026-04-27T16:08:51Z</time></trkpt><trkpt lat="38.659488949607606" lon="16.3457865406267"><ele>852.0</ele><time>2026-04-27T16:08:52Z</time></trkpt><trkpt lat="38.65942031112253" lon="16.34578369801895"><ele>852.0</ele><time>2026-04-27T16:08:53Z</time></trkpt><trkpt lat="38.65945274751306" lon="16.345853570323964"><ele>852.0</ele><time>2026-04-27T16:09:20.999Z</time></trkpt><trkpt lat="38.65950905382858" lon="16.345891855688457"><ele>852.0</ele><time>2026-04-27T16:09:29.999Z</time></trkpt><trkpt lat="38.65941059140447" lon="16.34590076167539"><ele>852.0</ele><time>2026-04-27T16:10:00Z</time></trkpt><trkpt lat="38.65930475077553" lon="16.345876249674095"><ele>852.0</ele><time>2026-04-27T16:10:02Z</time></trkpt><trkpt lat="38.65923820113622" lon="16.3458771709422"><ele>852.0</ele><time>2026-04-27T16:10:03Z</time></trkpt><trkpt lat="38.659120892990195" lon="16.345867204426103"><ele>855.25</ele><time>2026-04-27T16:10:05Z</time></trkpt><trkpt lat="38.6590027795841" lon="16.34586389125369"><ele>858.5</ele><time>2026-04-27T16:10:07Z</time></trkpt><trkpt lat="38.65887546625858" lon="16.345858273141957"><ele>861.75</ele><time>2026-04-27T16:10:09Z</time></trkpt><trkpt lat="38.65878458555617" lon="16.345865785694162"><ele>865.0</ele><time>2026-04-27T16:10:11Z</time></trkpt><trkpt lat="38.65865122998777" lon="16.345875179487013"><ele>866.4</ele><time>2026-04-27T16:10:13Z</time></trkpt><trkpt lat="38.65854939570903" lon="16.345899240347055"><ele>867.8</ele><time>2026-04-27T16:10:14Z</time></trkpt><trkpt lat="38.65846657641404" lon="16.345938078626517"><ele>869.2</ele><time>2026-04-27T16:10:15Z</time></trkpt><trkpt lat="38.65838328228604" lon="16.345969484947105"><ele>870.6</ele><time>2026-04-27T16:10:16Z</time></trkpt><trkpt lat="38.6582883507929" lon="16.34600360491372"><ele>872.0</ele><time>2026-04-27T16:10:17Z</time></trkpt><trkpt lat="38.65820586983407" lon="16.346020628464657"><ele>872.0000000000001</ele><time>2026-04-27T16:10:18Z</time></trkpt><trkpt lat="38.65810610517703" lon="16.34603911845374"><ele>872.0</ele><time>2026-04-27T16:10:19Z</time></trkpt><trkpt lat="38.65803470537674" lon="16.34606043424895"><ele>872.0</ele><time>2026-04-27T16:10:20Z</time></trkpt><trkpt lat="38.65796683733092" lon="16.346081830433285"><ele>872.0</ele><time>2026-04-27T16:10:21Z</time></trkpt><trkpt lat="38.657892223135825" lon="16.346102654182047"><ele>872.0000000000001</ele><time>2026-04-27T16:10:22Z</time></trkpt><trkpt lat="38.65779092829416" lon="16.346088469040083"><ele>872.0</ele><time>2026-04-27T16:10:24Z</time></trkpt><trkpt lat="38.65769406507191" lon="16.34606205009117"><ele>873.0</ele><time>2026-04-27T16:10:27Z</time></trkpt><trkpt lat="38.657651760115485" lon="16.345977174298742"><ele>874.0</ele><time>2026-04-27T16:10:29Z</time></trkpt><trkpt lat="38.65760824363673" lon="16.345903023646308"><ele>875.0</ele><time>2026-04-27T16:10:30Z</time></trkpt><trkpt lat="38.657551488642376" lon="16.345856759494488"><ele>876.0</ele><time>2026-04-27T16:10:31Z</time></trkpt><trkpt lat="38.65748206183943" lon="16.34581174919048"><ele>877.0</ele><time>2026-04-27T16:10:32Z</time></trkpt><trkpt lat="38.65742173963442" lon="16.345748758755263"><ele>878.0</ele><time>2026-04-27T16:10:33Z</time></trkpt><trkpt lat="38.65736809793338" lon="16.345690197804352"><ele>879.0</ele><time>2026-04-27T16:10:34Z</time></trkpt><trkpt lat="38.657328592503454" lon="16.345609189784163"><ele>879.0</ele><time>2026-04-27T16:10:35Z</time></trkpt><trkpt lat="38.65733856195449" lon="16.345696527797372"><ele>879.0000000000001</ele><time>2026-04-27T16:10:37Z</time></trkpt><trkpt lat="38.65726900468448" lon="16.345703694067815"><ele>879.0000000000001</ele><time>2026-04-27T16:10:42Z</time></trkpt><trkpt lat="38.65719519344287" lon="16.345663991078272"><ele>879.0</ele><time>2026-04-27T16:10:50Z</time></trkpt><trkpt lat="38.657103782163034" lon="16.345558617615566"><ele>879.0</ele><time>2026-04-27T16:10:52Z</time></trkpt><trkpt lat="38.657015022773564" lon="16.345451569218564"><ele>878.6</ele><time>2026-04-27T16:10:54Z</time></trkpt><trkpt lat="38.65695823450494" lon="16.34538404090546"><ele>878.2</ele><time>2026-04-27T16:10:55Z</time></trkpt><trkpt lat="38.65688107055272" lon="16.345283433765566"><ele>877.8000000000001</ele><time>2026-04-27T16:10:56Z</time></trkpt><trkpt lat="38.656806734790784" lon="16.345224045492234"><ele>877.4000000000001</ele><time>2026-04-27T16:10:57Z</time></trkpt><trkpt lat="38.65675549330537" lon="16.345120547451153"><ele>877.0</ele><time>2026-04-27T16:10:58Z</time></trkpt><trkpt lat="38.656699358495366" lon="16.34502239603345"><ele>878.0</ele><time>2026-04-27T16:10:59Z</time></trkpt><trkpt lat="38.6566486686857" lon="16.34493962607143"><ele>879.0</ele><time>2026-04-27T16:10:59.999Z</time></trkpt><trkpt lat="38.65659599575807" lon="16.34487264403085"><ele>880.0</ele><time>2026-04-27T16:11:00.999Z</time></trkpt><trkpt lat="38.656512157912154" lon="16.344791400096213"><ele>881.0</ele><time>2026-04-27T16:11:01.999Z</time></trkpt><trkpt lat="38.656438007655375" lon="16.344711600555627"><ele>882.0</ele><time>2026-04-27T16:11:02.999Z</time></trkpt><trkpt lat="38.6563433611757" lon="16.34461575264922"><ele>883.5</ele><time>2026-04-27T16:11:03.999Z</time></trkpt><trkpt lat="38.6562668147004" lon="16.344533965695245"><ele>885.0</ele><time>2026-04-27T16:11:04.999Z</time></trkpt><trkpt lat="38.65617612660908" lon="16.344445432254556"><ele>886.5</ele><time>2026-04-27T16:11:05.999Z</time></trkpt><trkpt lat="38.65607911261006" lon="16.344360733400638"><ele>888.0</ele><time>2026-04-27T16:11:06.999Z</time></trkpt><trkpt lat="38.655945287863936" lon="16.344263010484163"><ele>888.5</ele><time>2026-04-27T16:11:07.999Z</time></trkpt><trkpt lat="38.655827240349865" lon="16.344188217483357"><ele>889.0</ele><time>2026-04-27T16:11:08.999Z</time></trkpt><trkpt lat="38.655721220747765" lon="16.34412816368738"><ele>889.5</ele><time>2026-04-27T16:11:09.999Z</time></trkpt><trkpt lat="38.65561605000403" lon="16.344060789274657"><ele>890.0</ele><time>2026-04-27T16:11:10.999Z</time></trkpt><trkpt lat="38.655520083096334" lon="16.344025991223106"><ele>890.0</ele><time>2026-04-27T16:11:11.999Z</time></trkpt><trkpt lat="38.65542215120748" lon="16.343954217157105"><ele>890.0</ele><time>2026-04-27T16:11:12.999Z</time></trkpt><trkpt lat="38.65532181139126" lon="16.343853861055294"><ele>890.0</ele><time>2026-04-27T16:11:13.999Z</time></trkpt><trkpt lat="38.65520373619119" lon="16.343787628243405"><ele>890.0</ele><time>2026-04-27T16:11:14.999Z</time></trkpt><trkpt lat="38.655101678715404" lon="16.343729193218277"><ele>891.0</ele><time>2026-04-27T16:11:15.999Z</time></trkpt><trkpt lat="38.65501939888305" lon="16.34366654377536"><ele>892.0</ele><time>2026-04-27T16:11:16.999Z</time></trkpt><trkpt lat="38.6549299753903" lon="16.343607350278422"><ele>893.0</ele><time>2026-04-27T16:11:17.999Z</time></trkpt><trkpt lat="38.65484998390145" lon="16.343554025417586"><ele>894.0</ele><time>2026-04-27T16:11:18.999Z</time></trkpt><trkpt lat="38.65476859687471" lon="16.343464177760303"><ele>895.0</ele><time>2026-04-27T16:11:19.999Z</time></trkpt><trkpt lat="38.654677558445535" lon="16.34336615376845"><ele>895.0</ele><time>2026-04-27T16:11:20.999Z</time></trkpt><trkpt lat="38.654565776206674" lon="16.343249682494363"><ele>895.0</ele><time>2026-04-27T16:11:21.999Z</time></trkpt><trkpt lat="38.65444345122782" lon="16.343139106393256"><ele>895.0</ele><time>2026-04-27T16:11:22.999Z</time></trkpt><trkpt lat="38.654333998791046" lon="16.34301985017845"><ele>895.0</ele><time>2026-04-27T16:11:23.999Z</time></trkpt><trkpt lat="38.65421076511755" lon="16.34289345091368"><ele>894.75</ele><time>2026-04-27T16:11:24.999Z</time></trkpt><trkpt lat="38.65409947296582" lon="16.34278443828939"><ele>894.5</ele><time>2026-04-27T16:11:25.999Z</time></trkpt><trkpt lat="38.65397212330493" lon="16.342685896070233"><ele>894.25</ele><time>2026-04-27T16:11:26.999Z</time></trkpt><trkpt lat="38.65382952016786" lon="16.342600809108102"><ele>894.0</ele><time>2026-04-27T16:11:27.999Z</time></trkpt><trkpt lat="38.65368954029739" lon="16.34252082403796"><ele>896.0</ele><time>2026-04-27T16:11:28.999Z</time></trkpt><trkpt lat="38.65350904735973" lon="16.342455266245683"><ele>898.0</ele><time>2026-04-27T16:11:29.999Z</time></trkpt><trkpt lat="38.65336770200789" lon="16.34239722741162"><ele>900.0</ele><time>2026-04-27T16:11:30.999Z</time></trkpt><trkpt lat="38.65319455104162" lon="16.34235402545489"><ele>900.0</ele><time>2026-04-27T16:11:31.999Z</time></trkpt><trkpt lat="38.653092977384745" lon="16.342316530550583"><ele>900.0</ele><time>2026-04-27T16:11:32.999Z</time></trkpt><trkpt lat="38.65299670468531" lon="16.34224469269323"><ele>900.0</ele><time>2026-04-27T16:11:33.999Z</time></trkpt><trkpt lat="38.652899555558484" lon="16.342146571085134"><ele>900.0</ele><time>2026-04-27T16:11:34.999Z</time></trkpt><trkpt lat="38.652769549967125" lon="16.342025520681442"><ele>900.6</ele><time>2026-04-27T16:11:35.999Z</time></trkpt><trkpt lat="38.65270746946839" lon="16.341960428717602"><ele>901.2</ele><time>2026-04-27T16:11:36.999Z</time></trkpt><trkpt lat="38.652629398303176" lon="16.34189063196267"><ele>901.8</ele><time>2026-04-27T16:11:37.999Z</time></trkpt><trkpt lat="38.65255199618089" lon="16.34182718717739"><ele>902.4</ele><time>2026-04-27T16:11:38.999Z</time></trkpt><trkpt lat="38.65244209624485" lon="16.34176839170455"><ele>903.0</ele><time>2026-04-27T16:11:39.999Z</time></trkpt><trkpt lat="38.652328590903515" lon="16.34170828919816"><ele>903.0</ele><time>2026-04-27T16:11:40.999Z</time></trkpt><trkpt lat="38.65218175990633" lon="16.341650172560477"><ele>903.0</ele><time>2026-04-27T16:11:41.999Z</time></trkpt><trkpt lat="38.652051860860155" lon="16.34157261359248"><ele>903.0</ele><time>2026-04-27T16:11:42.999Z</time></trkpt><trkpt lat="38.651903278763704" lon="16.34150557489674"><ele>904.0</ele><time>2026-04-27T16:11:43.999Z</time></trkpt><trkpt lat="38.65176682143392" lon="16.341431655395088"><ele>905.0</ele><time>2026-04-27T16:11:44.999Z</time></trkpt><trkpt lat="38.65161776703846" lon="16.34135310950615"><ele>906.0</ele><time>2026-04-27T16:11:45.999Z</time></trkpt><trkpt lat="38.65148071643981" lon="16.341284839469342"><ele>906.4</ele><time>2026-04-27T16:11:46.999Z</time></trkpt><trkpt lat="38.651355723973154" lon="16.341217133828128"><ele>906.8</ele><time>2026-04-27T16:11:47.999Z</time></trkpt><trkpt lat="38.65126846326883" lon="16.34111071055337"><ele>907.1999999999999</ele><time>2026-04-27T16:11:48.999Z</time></trkpt><trkpt lat="38.65119681976534" lon="16.341073416560537"><ele>907.5999999999999</ele><time>2026-04-27T16:11:49.999Z</time></trkpt><trkpt lat="38.65110357951936" lon="16.340993993333246"><ele>908.0</ele><time>2026-04-27T16:11:50.999Z</time></trkpt><trkpt lat="38.65102107409473" lon="16.34094728978808"><ele>907.0</ele><time>2026-04-27T16:11:51.999Z</time></trkpt><trkpt lat="38.65095373159348" lon="16.340870443332207"><ele>906.0</ele><time>2026-04-27T16:11:52.999Z</time></trkpt><trkpt lat="38.650876317726265" lon="16.340776797120835"><ele>905.0</ele><time>2026-04-27T16:11:54Z</time></trkpt><trkpt lat="38.650822818971704" lon="16.340643957682392"><ele>904.0</ele><time>2026-04-27T16:11:55Z</time></trkpt><trkpt lat="38.650743808825574" lon="16.34054448519427"><ele>903.0</ele><time>2026-04-27T16:11:56Z</time></trkpt><trkpt lat="38.6506672116937" lon="16.340401721795587"><ele>906.25</ele><time>2026-04-27T16:11:57Z</time></trkpt><trkpt lat="38.65059740165441" lon="16.34028067008302"><ele>909.5</ele><time>2026-04-27T16:11:58Z</time></trkpt><trkpt lat="38.6505382882224" lon="16.340161948707443"><ele>912.75</ele><time>2026-04-27T16:11:59Z</time></trkpt><trkpt lat="38.650451988606505" lon="16.340063872558982"><ele>916.0</ele><time>2026-04-27T16:12:00Z</time></trkpt><trkpt lat="38.65042052986924" lon="16.3399257018206"><ele>916.0</ele><time>2026-04-27T16:12:01Z</time></trkpt><trkpt lat="38.65038222750799" lon="16.339780091189464"><ele>916.0</ele><time>2026-04-27T16:12:02Z</time></trkpt><trkpt lat="38.65034428029376" lon="16.339621648889345"><ele>916.0</ele><time>2026-04-27T16:12:03Z</time></trkpt><trkpt lat="38.65031346098146" lon="16.339454170745444"><ele>916.0</ele><time>2026-04-27T16:12:04Z</time></trkpt><trkpt lat="38.65029045261667" lon="16.339304670047834"><ele>917.0</ele><time>2026-04-27T16:12:05Z</time></trkpt><trkpt lat="38.65029479671082" lon="16.33916175542342"><ele>918.0</ele><time>2026-04-27T16:12:06Z</time></trkpt><trkpt lat="38.65026993986576" lon="16.33905089725391"><ele>919.0</ele><time>2026-04-27T16:12:07Z</time></trkpt><trkpt lat="38.65020891593183" lon="16.3388966194679"><ele>920.0</ele><time>2026-04-27T16:12:08Z</time></trkpt><trkpt lat="38.650138661174815" lon="16.338777692331536"><ele>920.0</ele><time>2026-04-27T16:12:09Z</time></trkpt><trkpt lat="38.6500652601264" lon="16.33864307541477"><ele>920.0</ele><time>2026-04-27T16:12:10Z</time></trkpt><trkpt lat="38.65001333286759" lon="16.3384985208699"><ele>920.0</ele><time>2026-04-27T16:12:11Z</time></trkpt><trkpt lat="38.64994484534118" lon="16.338365931025056"><ele>920.0</ele><time>2026-04-27T16:12:12Z</time></trkpt><trkpt lat="38.64988869459793" lon="16.338209906541866"><ele>920.0</ele><time>2026-04-27T16:12:14Z</time></trkpt><trkpt lat="38.64986305310387" lon="16.338099600619103"><ele>920.0</ele><time>2026-04-27T16:12:15Z</time></trkpt><trkpt lat="38.64985264017145" lon="16.33796349458385"><ele>920.0</ele><time>2026-04-27T16:12:16Z</time></trkpt><trkpt lat="38.649822387825196" lon="16.337822118888592"><ele>920.0</ele><time>2026-04-27T16:12:17Z</time></trkpt><trkpt lat="38.649813588940475" lon="16.33767366084987"><ele>920.0</ele><time>2026-04-27T16:12:18Z</time></trkpt><trkpt lat="38.64979087169035" lon="16.337506200784947"><ele>921.0</ele><time>2026-04-27T16:12:19Z</time></trkpt><trkpt lat="38.649769801098564" lon="16.337309350964546"><ele>922.0</ele><time>2026-04-27T16:12:20Z</time></trkpt><trkpt lat="38.64975536990507" lon="16.337133822498835"><ele>923.0</ele><time>2026-04-27T16:12:21Z</time></trkpt><trkpt lat="38.649736953750384" lon="16.33698120581363"><ele>924.0</ele><time>2026-04-27T16:12:22Z</time></trkpt><trkpt lat="38.64971417711888" lon="16.336854763751894"><ele>924.75</ele><time>2026-04-27T16:12:23Z</time></trkpt><trkpt lat="38.649675713471716" lon="16.33674092391823"><ele>925.5</ele><time>2026-04-27T16:12:24Z</time></trkpt><trkpt lat="38.6496400672255" lon="16.33658799613484"><ele>926.25</ele><time>2026-04-27T16:12:25Z</time></trkpt><trkpt lat="38.649588732101684" lon="16.33645482074594"><ele>927.0</ele><time>2026-04-27T16:12:26Z</time></trkpt><trkpt lat="38.649532774402" lon="16.336304047503866"><ele>925.75</ele><time>2026-04-27T16:12:27Z</time></trkpt><trkpt lat="38.6494498121809" lon="16.33617655533221"><ele>924.5</ele><time>2026-04-27T16:12:28Z</time></trkpt><trkpt lat="38.64939451404263" lon="16.33604638953987"><ele>923.25</ele><time>2026-04-27T16:12:29Z</time></trkpt><trkpt lat="38.64932367067315" lon="16.335921517580196"><ele>922.0</ele><time>2026-04-27T16:12:30Z</time></trkpt><trkpt lat="38.649260707723656" lon="16.335807176950816"><ele>921.9999999999999</ele><time>2026-04-27T16:12:31Z</time></trkpt><trkpt lat="38.649212524562564" lon="16.33571178560739"><ele>922.0</ele><time>2026-04-27T16:12:32Z</time></trkpt><trkpt lat="38.64918041248474" lon="16.335629796052345"><ele>922.0</ele><time>2026-04-27T16:12:33Z</time></trkpt><trkpt lat="38.64914860659454" lon="16.33555072637413"><ele>922.0</ele><time>2026-04-27T16:12:34Z</time></trkpt><trkpt lat="38.649097808018645" lon="16.33549157641916"><ele>921.9999999999999</ele><time>2026-04-27T16:12:35Z</time></trkpt><trkpt lat="38.64901893292039" lon="16.33542153515261"><ele>922.0</ele><time>2026-04-27T16:12:36Z</time></trkpt><trkpt lat="38.648919592243686" lon="16.33535209710774"><ele>921.9999999999999</ele><time>2026-04-27T16:12:37Z</time></trkpt><trkpt lat="38.64883405431656" lon="16.335283051810784"><ele>922.0</ele><time>2026-04-27T16:12:38Z</time></trkpt><trkpt lat="38.648768669816484" lon="16.33522532914393"><ele>922.0</ele><time>2026-04-27T16:12:39Z</time></trkpt><trkpt lat="38.64871299091087" lon="16.33516498804467"><ele>922.0</ele><time>2026-04-27T16:12:40Z</time></trkpt><trkpt lat="38.648661010055356" lon="16.335111855864554"><ele>921.9999999999999</ele><time>2026-04-27T16:12:41Z</time></trkpt><trkpt lat="38.64859299521225" lon="16.33504860752401"><ele>922.0</ele><time>2026-04-27T16:12:42Z</time></trkpt><trkpt lat="38.648528120399774" lon="16.334968398085845"><ele>922.0</ele><time>2026-04-27T16:12:43Z</time></trkpt><trkpt lat="38.648456537332855" lon="16.334884251861386"><ele>922.0</ele><time>2026-04-27T16:12:44Z</time></trkpt><trkpt lat="38.648390833972734" lon="16.334805145210602"><ele>922.0</ele><time>2026-04-27T16:12:45Z</time></trkpt><trkpt lat="38.64832309998419" lon="16.334728259991522"><ele>922.0</ele><time>2026-04-27T16:12:46Z</time></trkpt><trkpt lat="38.648248592708065" lon="16.334653362834228"><ele>922.0</ele><time>2026-04-27T16:12:47Z</time></trkpt><trkpt lat="38.64815936351993" lon="16.33457270280205"><ele>922.5</ele><time>2026-04-27T16:12:48Z</time></trkpt><trkpt lat="38.64806885282302" lon="16.334480904500918"><ele>923.0</ele><time>2026-04-27T16:12:49Z</time></trkpt><trkpt lat="38.647974733092234" lon="16.33438963820939"><ele>923.5</ele><time>2026-04-27T16:12:50Z</time></trkpt><trkpt lat="38.64788042739984" lon="16.334301357655168"><ele>924.0</ele><time>2026-04-27T16:12:51Z</time></trkpt><trkpt lat="38.647784814457815" lon="16.334221358094222"><ele>924.0</ele><time>2026-04-27T16:12:52Z</time></trkpt><trkpt lat="38.64769767553547" lon="16.334160580349664"><ele>924.0000000000001</ele><time>2026-04-27T16:12:53Z</time></trkpt><trkpt lat="38.647618355963544" lon="16.334107611082175"><ele>924.0000000000001</ele><time>2026-04-27T16:12:54Z</time></trkpt><trkpt lat="38.64753763657609" lon="16.33405681978379"><ele>924.0</ele><time>2026-04-27T16:12:55Z</time></trkpt><trkpt lat="38.64747525557498" lon="16.333976825630824"><ele>924.0</ele><time>2026-04-27T16:12:56Z</time></trkpt><trkpt lat="38.647415168672396" lon="16.333883111714055"><ele>929.0</ele><time>2026-04-27T16:12:57Z</time></trkpt><trkpt lat="38.64734944497894" lon="16.333777275860722"><ele>934.0</ele><time>2026-04-27T16:12:58Z</time></trkpt><trkpt lat="38.647269391152356" lon="16.333656307080123"><ele>939.0</ele><time>2026-04-27T16:12:59Z</time></trkpt><trkpt lat="38.6471881288474" lon="16.333528101320287"><ele>944.0</ele><time>2026-04-27T16:13:00Z</time></trkpt><trkpt lat="38.64711527724421" lon="16.3334091102696"><ele>944.0</ele><time>2026-04-27T16:13:01Z</time></trkpt><trkpt lat="38.647043512351104" lon="16.333283446733063"><ele>944.0</ele><time>2026-04-27T16:13:02Z</time></trkpt><trkpt lat="38.646978582543646" lon="16.333160843476918"><ele>944.0</ele><time>2026-04-27T16:13:03Z</time></trkpt><trkpt lat="38.6469300826198" lon="16.333037068599722"><ele>944.0</ele><time>2026-04-27T16:13:04Z</time></trkpt><trkpt lat="38.6468859036398" lon="16.332913819350303"><ele>939.75</ele><time>2026-04-27T16:13:05Z</time></trkpt><trkpt lat="38.64684522215113" lon="16.33277374486169"><ele>935.5</ele><time>2026-04-27T16:13:06Z</time></trkpt><trkpt lat="38.64678983712456" lon="16.332645376996044"><ele>931.25</ele><time>2026-04-27T16:13:07Z</time></trkpt><trkpt lat="38.646697769311494" lon="16.332521901419653"><ele>927.0</ele><time>2026-04-27T16:13:08Z</time></trkpt><trkpt lat="38.64660228348062" lon="16.33239837317768"><ele>927.0</ele><time>2026-04-27T16:13:09Z</time></trkpt><trkpt lat="38.64652000701531" lon="16.332258377207097"><ele>927.0</ele><time>2026-04-27T16:13:10Z</time></trkpt><trkpt lat="38.646437478954574" lon="16.33208438114029"><ele>927.0</ele><time>2026-04-27T16:13:10.999Z</time></trkpt><trkpt lat="38.64635529733106" lon="16.331915321495615"><ele>926.75</ele><time>2026-04-27T16:13:11.999Z</time></trkpt><trkpt lat="38.64627091509998" lon="16.33174743986092"><ele>926.5</ele><time>2026-04-27T16:13:12.999Z</time></trkpt><trkpt lat="38.64618810426127" lon="16.331596167425634"><ele>926.25</ele><time>2026-04-27T16:13:13.999Z</time></trkpt><trkpt lat="38.646104762957236" lon="16.33143962286761"><ele>926.0</ele><time>2026-04-27T16:13:14.999Z</time></trkpt><trkpt lat="38.64602987559072" lon="16.33128436172747"><ele>926.0</ele><time>2026-04-27T16:13:15.999Z</time></trkpt><trkpt lat="38.6459535519845" lon="16.331153372284067"><ele>926.0</ele><time>2026-04-27T16:13:16.999Z</time></trkpt><trkpt lat="38.64586440221384" lon="16.331031722767204"><ele>926.0</ele><time>2026-04-27T16:13:17.999Z</time></trkpt><trkpt lat="38.6457634267852" lon="16.33091779977508"><ele>926.0</ele><time>2026-04-27T16:13:18.999Z</time></trkpt><trkpt lat="38.64565293548183" lon="16.330802330737914"><ele>926.0</ele><time>2026-04-27T16:13:19.999Z</time></trkpt><trkpt lat="38.64555627548728" lon="16.330686221270312"><ele>926.0</ele><time>2026-04-27T16:13:20.999Z</time></trkpt><trkpt lat="38.645470608292435" lon="16.330559315633426"><ele>926.0</ele><time>2026-04-27T16:13:21.999Z</time></trkpt><trkpt lat="38.645409645147495" lon="16.330444196395455"><ele>926.0</ele><time>2026-04-27T16:13:22.999Z</time></trkpt><trkpt lat="38.645366996226315" lon="16.3303487752485"><ele>926.3333333333334</ele><time>2026-04-27T16:13:23.999Z</time></trkpt><trkpt lat="38.645327760533625" lon="16.330264004323084"><ele>926.6666666666667</ele><time>2026-04-27T16:13:24.999Z</time></trkpt><trkpt lat="38.645269986822186" lon="16.330198722269092"><ele>927.0</ele><time>2026-04-27T16:13:25.999Z</time></trkpt><trkpt lat="38.64518963601125" lon="16.33015165316261"><ele>927.3333333333333</ele><time>2026-04-27T16:13:26.999Z</time></trkpt><trkpt lat="38.645098802237584" lon="16.33011005816845"><ele>927.6666666666666</ele><time>2026-04-27T16:13:27.999Z</time></trkpt><trkpt lat="38.64500009245032" lon="16.330094447303843"><ele>928.0</ele><time>2026-04-27T16:13:28.999Z</time></trkpt><trkpt lat="38.64489228168533" lon="16.330062374475332"><ele>927.0</ele><time>2026-04-27T16:13:29.999Z</time></trkpt><trkpt lat="38.64479656463298" lon="16.330025888376486"><ele>926.0</ele><time>2026-04-27T16:13:30.999Z</time></trkpt><trkpt lat="38.64471207133911" lon="16.32998991451645"><ele>925.0</ele><time>2026-04-27T16:13:31.999Z</time></trkpt><trkpt lat="38.64462084014269" lon="16.329955042326027"><ele>924.0</ele><time>2026-04-27T16:13:32.999Z</time></trkpt><trkpt lat="38.644547982310165" lon="16.329918973326343"><ele>923.0</ele><time>2026-04-27T16:13:33.999Z</time></trkpt><trkpt lat="38.64444795690771" lon="16.329874863929355"><ele>921.0</ele><time>2026-04-27T16:13:35.999Z</time></trkpt><trkpt lat="38.64434741607552" lon="16.329826549597925"><ele>919.0</ele><time>2026-04-27T16:13:37.999Z</time></trkpt><trkpt lat="38.64423781067374" lon="16.32978156584435"><ele>917.0</ele><time>2026-04-27T16:13:39.999Z</time></trkpt><trkpt lat="38.64411336747539" lon="16.32974503014464"><ele>915.0</ele><time>2026-04-27T16:13:41.999Z</time></trkpt><trkpt lat="38.643989309423986" lon="16.329718884800013"><ele>914.3333333333334</ele><time>2026-04-27T16:13:43.999Z</time></trkpt><trkpt lat="38.643920110898605" lon="16.329690179058684"><ele>913.6666666666667</ele><time>2026-04-27T16:13:44.999Z</time></trkpt><trkpt lat="38.64385639104733" lon="16.32964535586733"><ele>913.0</ele><time>2026-04-27T16:13:45.999Z</time></trkpt><trkpt lat="38.64377255288276" lon="16.329590158494984"><ele>912.3333333333334</ele><time>2026-04-27T16:13:47.999Z</time></trkpt><trkpt lat="38.643669344146886" lon="16.32955578779495"><ele>911.6666666666667</ele><time>2026-04-27T16:13:49.999Z</time></trkpt><trkpt lat="38.643606058775475" lon="16.329538358514814"><ele>911.0</ele><time>2026-04-27T16:13:50.999Z</time></trkpt><trkpt lat="38.64348978182392" lon="16.329499560133023"><ele>908.6666666666667</ele><time>2026-04-27T16:13:52.999Z</time></trkpt><trkpt lat="38.64336645343193" lon="16.32945151355872"><ele>906.3333333333334</ele><time>2026-04-27T16:13:54.999Z</time></trkpt><trkpt lat="38.64330182554559" lon="16.32943245559101"><ele>904.0</ele><time>2026-04-27T16:13:55.999Z</time></trkpt><trkpt lat="38.64319338316722" lon="16.329376923485714"><ele>901.6666666666667</ele><time>2026-04-27T16:13:57.999Z</time></trkpt><trkpt lat="38.64314319347481" lon="16.32932617326396"><ele>899.3333333333334</ele><time>2026-04-27T16:13:58.999Z</time></trkpt><trkpt lat="38.6430862179733" lon="16.329271497997315"><ele>897.0</ele><time>2026-04-27T16:14:00Z</time></trkpt><trkpt lat="38.64298272176188" lon="16.329238602578776"><ele>897.0</ele><time>2026-04-27T16:14:02Z</time></trkpt><trkpt lat="38.64289529218513" lon="16.329215091987216"><ele>897.0</ele><time>2026-04-27T16:14:04Z</time></trkpt><trkpt lat="38.64279305702996" lon="16.329156603025666"><ele>897.0</ele><time>2026-04-27T16:14:06Z</time></trkpt><trkpt lat="38.64270604700721" lon="16.329138565190018"><ele>897.0</ele><time>2026-04-27T16:14:08Z</time></trkpt><trkpt lat="38.642621828114976" lon="16.329168021554235"><ele>897.0</ele><time>2026-04-27T16:14:12Z</time></trkpt><trkpt lat="38.64256057754888" lon="16.329211894138677"><ele>897.0</ele><time>2026-04-27T16:14:14Z</time></trkpt><trkpt lat="38.64245969612143" lon="16.32923716001146"><ele>894.5</ele><time>2026-04-27T16:14:16Z</time></trkpt><trkpt lat="38.642340671197914" lon="16.329149200689816"><ele>892.0</ele><time>2026-04-27T16:14:18Z</time></trkpt><trkpt lat="38.6422731920355" lon="16.32910147228688"><ele>889.5</ele><time>2026-04-27T16:14:19Z</time></trkpt><trkpt lat="38.642203157540415" lon="16.32904458806011"><ele>887.0</ele><time>2026-04-27T16:14:20Z</time></trkpt><trkpt lat="38.642137980557806" lon="16.328989351605212"><ele>884.5</ele><time>2026-04-27T16:14:21Z</time></trkpt><trkpt lat="38.64207702454585" lon="16.32894865265024"><ele>882.0</ele><time>2026-04-27T16:14:22Z</time></trkpt><trkpt lat="38.64201481166386" lon="16.328909057979377"><ele>880.6666666666666</ele><time>2026-04-27T16:14:23Z</time></trkpt><trkpt lat="38.64194573461656" lon="16.3288664935438"><ele>879.3333333333333</ele><time>2026-04-27T16:14:24Z</time></trkpt><trkpt lat="38.64188146598188" lon="16.328841407941717"><ele>878.0</ele><time>2026-04-27T16:14:25Z</time></trkpt><trkpt lat="38.641765591608824" lon="16.328809026580064"><ele>876.6666666666666</ele><time>2026-04-27T16:14:27Z</time></trkpt><trkpt lat="38.64165823258137" lon="16.328767365971405"><ele>875.3333333333333</ele><time>2026-04-27T16:14:29Z</time></trkpt><trkpt lat="38.64159917499599" lon="16.32872933832561"><ele>874.0</ele><time>2026-04-27T16:14:30Z</time></trkpt><trkpt lat="38.64153484320897" lon="16.328670044164642"><ele>874.0</ele><time>2026-04-27T16:14:31Z</time></trkpt><trkpt lat="38.64147957261314" lon="16.32862549529304"><ele>874.0000000000001</ele><time>2026-04-27T16:14:32Z</time></trkpt><trkpt lat="38.64138235188909" lon="16.32855366262632"><ele>874.0000000000001</ele><time>2026-04-27T16:14:34Z</time></trkpt><trkpt lat="38.64125121274935" lon="16.328533546156446"><ele>874.0</ele><time>2026-04-27T16:14:36Z</time></trkpt><trkpt lat="38.64117680632013" lon="16.328511408734798"><ele>874.0</ele><time>2026-04-27T16:14:37Z</time></trkpt><trkpt lat="38.64110930260457" lon="16.328472735581272"><ele>871.4285714285714</ele><time>2026-04-27T16:14:38Z</time></trkpt><trkpt lat="38.641046819481396" lon="16.328421542782607"><ele>868.8571428571429</ele><time>2026-04-27T16:14:39Z</time></trkpt><trkpt lat="38.64097763133224" lon="16.328404217251748"><ele>866.2857142857143</ele><time>2026-04-27T16:14:40Z</time></trkpt><trkpt lat="38.64090519902098" lon="16.328403846535327"><ele>863.7142857142858</ele><time>2026-04-27T16:14:41Z</time></trkpt><trkpt lat="38.640838746079005" lon="16.328416331221415"><ele>861.1428571428571</ele><time>2026-04-27T16:14:42Z</time></trkpt><trkpt lat="38.64076493156926" lon="16.328415344205855"><ele>858.5714285714287</ele><time>2026-04-27T16:14:43Z</time></trkpt><trkpt lat="38.64068952470034" lon="16.328434779479398"><ele>856.0</ele><time>2026-04-27T16:14:44Z</time></trkpt><trkpt lat="38.64061336136923" lon="16.328447078537074"><ele>855.9999999999999</ele><time>2026-04-27T16:14:45Z</time></trkpt><trkpt lat="38.64054075542055" lon="16.328426862859395"><ele>856.0</ele><time>2026-04-27T16:14:46Z</time></trkpt><trkpt lat="38.640476485961" lon="16.32840772151325"><ele>856.0</ele><time>2026-04-27T16:14:47Z</time></trkpt><trkpt lat="38.640393045458026" lon="16.328383209126088"><ele>856.0</ele><time>2026-04-27T16:14:49Z</time></trkpt><trkpt lat="38.64031345245502" lon="16.328373645084042"><ele>855.9999999999999</ele><time>2026-04-27T16:14:50Z</time></trkpt><trkpt lat="38.64019894967891" lon="16.328347287391114"><ele>856.0</ele><time>2026-04-27T16:14:52Z</time></trkpt><trkpt lat="38.64013088648516" lon="16.328318393534435"><ele>853.1666666666666</ele><time>2026-04-27T16:14:53Z</time></trkpt><trkpt lat="38.64005156135995" lon="16.328282842409063"><ele>850.3333333333333</ele><time>2026-04-27T16:14:54Z</time></trkpt><trkpt lat="38.63998506498622" lon="16.328233335645027"><ele>847.5</ele><time>2026-04-27T16:14:55Z</time></trkpt><trkpt lat="38.639923475455504" lon="16.32820048667834"><ele>844.6666666666667</ele><time>2026-04-27T16:14:56Z</time></trkpt><trkpt lat="38.63982597688595" lon="16.32807713970327"><ele>841.8333333333334</ele><time>2026-04-27T16:14:58Z</time></trkpt><trkpt lat="38.63976945195893" lon="16.32802418656342"><ele>839.0</ele><time>2026-04-27T16:14:59Z</time></trkpt><trkpt lat="38.639704707716895" lon="16.32798274314478"><ele>839.0000000000001</ele><time>2026-04-27T16:15:00Z</time></trkpt><trkpt lat="38.63963201752832" lon="16.327944372485334"><ele>839.0</ele><time>2026-04-27T16:15:01Z</time></trkpt><trkpt lat="38.639568176799905" lon="16.327920742402608"><ele>839.0</ele><time>2026-04-27T16:15:02Z</time></trkpt><trkpt lat="38.63950704401804" lon="16.327861436861077"><ele>839.0</ele><time>2026-04-27T16:15:03Z</time></trkpt><trkpt lat="38.63944622784494" lon="16.327781675101082"><ele>839.0000000000001</ele><time>2026-04-27T16:15:04Z</time></trkpt><trkpt lat="38.63939161599259" lon="16.32771745178591"><ele>839.0</ele><time>2026-04-27T16:15:05Z</time></trkpt><trkpt lat="38.63934325466458" lon="16.32764995435193"><ele>836.0</ele><time>2026-04-27T16:15:06Z</time></trkpt><trkpt lat="38.63929794003422" lon="16.3275564095914"><ele>833.0</ele><time>2026-04-27T16:15:07Z</time></trkpt><trkpt lat="38.63924686807749" lon="16.327485291873465"><ele>830.0</ele><time>2026-04-27T16:15:08Z</time></trkpt><trkpt lat="38.63918594493686" lon="16.32742841297114"><ele>827.0</ele><time>2026-04-27T16:15:09Z</time></trkpt><trkpt lat="38.639124018954014" lon="16.32737964342077"><ele>824.0</ele><time>2026-04-27T16:15:10Z</time></trkpt><trkpt lat="38.63905732028779" lon="16.327345110082298"><ele>821.0</ele><time>2026-04-27T16:15:11Z</time></trkpt><trkpt lat="38.638994993712046" lon="16.32731805414217"><ele>818.0</ele><time>2026-04-27T16:15:12Z</time></trkpt><trkpt lat="38.63889179946207" lon="16.327257290965587"><ele>818.0000000000001</ele><time>2026-04-27T16:15:14Z</time></trkpt><trkpt lat="38.63883082523762" lon="16.32722930385812"><ele>818.0</ele><time>2026-04-27T16:15:15Z</time></trkpt><trkpt lat="38.638772569010115" lon="16.327195872172705"><ele>818.0</ele><time>2026-04-27T16:15:16Z</time></trkpt><trkpt lat="38.63865712411081" lon="16.327156730649275"><ele>818.0</ele><time>2026-04-27T16:15:18Z</time></trkpt><trkpt lat="38.638564617009514" lon="16.327124674651415"><ele>818.0000000000001</ele><time>2026-04-27T16:15:19.999Z</time></trkpt><trkpt lat="38.638492137717044" lon="16.32704609668792"><ele>818.0</ele><time>2026-04-27T16:15:21.999Z</time></trkpt><trkpt lat="38.638413225909346" lon="16.32698208339701"><ele>814.2</ele><time>2026-04-27T16:15:23.999Z</time></trkpt><trkpt lat="38.63832588069658" lon="16.32693257158576"><ele>810.4</ele><time>2026-04-27T16:15:25.999Z</time></trkpt><trkpt lat="38.63821061198792" lon="16.326880401023"><ele>806.6</ele><time>2026-04-27T16:15:27.999Z</time></trkpt><trkpt lat="38.63811334102529" lon="16.3268167641342"><ele>802.8000000000001</ele><time>2026-04-27T16:15:29.999Z</time></trkpt><trkpt lat="38.63805049927076" lon="16.326774759799406"><ele>799.0</ele><time>2026-04-27T16:15:30.999Z</time></trkpt><trkpt lat="38.637945337868956" lon="16.32672601246948"><ele>799.0</ele><time>2026-04-27T16:15:32.999Z</time></trkpt><trkpt lat="38.63786406736329" lon="16.326630553332127"><ele>799.0</ele><time>2026-04-27T16:15:34.999Z</time></trkpt><trkpt lat="38.63782326464555" lon="16.326557623397584"><ele>799.0</ele><time>2026-04-27T16:15:35.999Z</time></trkpt><trkpt lat="38.6377369508843" lon="16.326453072370228"><ele>799.0</ele><time>2026-04-27T16:15:37.999Z</time></trkpt><trkpt lat="38.63765867190574" lon="16.3264153052068"><ele>799.0</ele><time>2026-04-27T16:15:38.999Z</time></trkpt><trkpt lat="38.63757545642168" lon="16.326371923199996"><ele>793.8000000000001</ele><time>2026-04-27T16:15:39.999Z</time></trkpt><trkpt lat="38.637497920263115" lon="16.32632251708876"><ele>788.6</ele><time>2026-04-27T16:15:40.999Z</time></trkpt><trkpt lat="38.637418056218735" lon="16.326270527450763"><ele>783.4</ele><time>2026-04-27T16:15:41.999Z</time></trkpt><trkpt lat="38.63734873013055" lon="16.32622548959127"><ele>778.2</ele><time>2026-04-27T16:15:42.999Z</time></trkpt><trkpt lat="38.637286393465075" lon="16.326183757905444"><ele>773.0</ele><time>2026-04-27T16:15:43.999Z</time></trkpt><trkpt lat="38.63717477433096" lon="16.326107117695326"><ele>773.0</ele><time>2026-04-27T16:15:45.999Z</time></trkpt><trkpt lat="38.63712311152025" lon="16.326044809421976"><ele>773.0</ele><time>2026-04-27T16:15:46.999Z</time></trkpt><trkpt lat="38.637057225126924" lon="16.325952030926377"><ele>773.0</ele><time>2026-04-27T16:15:47.999Z</time></trkpt><trkpt lat="38.636987533494704" lon="16.325854213572534"><ele>773.0</ele><time>2026-04-27T16:15:48.999Z</time></trkpt><trkpt lat="38.63690535215249" lon="16.32577395418109"><ele>773.0</ele><time>2026-04-27T16:15:49.999Z</time></trkpt><trkpt lat="38.63682112021095" lon="16.325715829705484"><ele>769.5999999999999</ele><time>2026-04-27T16:15:50.999Z</time></trkpt><trkpt lat="38.63672958493534" lon="16.325664898107124"><ele>766.1999999999999</ele><time>2026-04-27T16:15:51.999Z</time></trkpt><trkpt lat="38.63664601978703" lon="16.32561916486602"><ele>762.8</ele><time>2026-04-27T16:15:52.999Z</time></trkpt><trkpt lat="38.63656669311753" lon="16.32557476838209"><ele>759.4</ele><time>2026-04-27T16:15:53.999Z</time></trkpt><trkpt lat="38.63646778076078" lon="16.32553975433965"><ele>756.0</ele><time>2026-04-27T16:15:54.999Z</time></trkpt><trkpt lat="38.63636378041383" lon="16.325525751397418"><ele>754.5</ele><time>2026-04-27T16:15:55.999Z</time></trkpt><trkpt lat="38.63625698699279" lon="16.3255381874588"><ele>753.0</ele><time>2026-04-27T16:15:56.999Z</time></trkpt><trkpt lat="38.636137851263655" lon="16.325561694675102"><ele>751.5</ele><time>2026-04-27T16:15:57.999Z</time></trkpt><trkpt lat="38.63602248964234" lon="16.32556988324082"><ele>750.0</ele><time>2026-04-27T16:15:58.999Z</time></trkpt><trkpt lat="38.63590214997294" lon="16.32556358590974"><ele>748.4</ele><time>2026-04-27T16:15:59.999Z</time></trkpt><trkpt lat="38.63578491355354" lon="16.325539269000238"><ele>746.8</ele><time>2026-04-27T16:16:00.999Z</time></trkpt><trkpt lat="38.635682726157626" lon="16.32549928963645"><ele>745.2</ele><time>2026-04-27T16:16:01.999Z</time></trkpt><trkpt lat="38.63558254928335" lon="16.325455109542666"><ele>743.6</ele><time>2026-04-27T16:16:02.999Z</time></trkpt><trkpt lat="38.63549274744406" lon="16.32541319567396"><ele>742.0</ele><time>2026-04-27T16:16:03.999Z</time></trkpt><trkpt lat="38.63542734389225" lon="16.325359003654185"><ele>742.0</ele><time>2026-04-27T16:16:04.999Z</time></trkpt><trkpt lat="38.63537035192937" lon="16.32528735997492"><ele>742.0</ele><time>2026-04-27T16:16:06Z</time></trkpt><trkpt lat="38.635471436807094" lon="16.32498399045863"><ele>742.0</ele><time>2026-04-27T16:16:07Z</time></trkpt><trkpt lat="38.635422548168656" lon="16.32491636792971"><ele>742.0</ele><time>2026-04-27T16:16:09Z</time></trkpt><trkpt lat="38.63527962664219" lon="16.324974533056224"><ele>742.0</ele><time>2026-04-27T16:16:15Z</time></trkpt><trkpt lat="38.63534798072425" lon="16.32496425724281"><ele>742.0</ele><time>2026-04-27T16:16:19Z</time></trkpt><trkpt lat="38.63550035880177" lon="16.325040568422747"><ele>742.0</ele><time>2026-04-27T16:16:22Z</time></trkpt><trkpt lat="38.635546187285996" lon="16.325106869435093"><ele>742.0</ele><time>2026-04-27T16:16:23Z</time></trkpt><trkpt lat="38.635619163841106" lon="16.325153480036406"><ele>742.0</ele><time>2026-04-27T16:16:24Z</time></trkpt><trkpt lat="38.63570135798554" lon="16.325158844115823"><ele>742.0</ele><time>2026-04-27T16:16:25Z</time></trkpt><trkpt lat="38.63578400025405" lon="16.32515283684162"><ele>742.0</ele><time>2026-04-27T16:16:26Z</time></trkpt><trkpt lat="38.635883421524625" lon="16.325151512413377"><ele>742.0</ele><time>2026-04-27T16:16:27Z</time></trkpt><trkpt lat="38.635968909415375" lon="16.325128966260102"><ele>742.0</ele><time>2026-04-27T16:16:28Z</time></trkpt><trkpt lat="38.63605353322808" lon="16.325109262069404"><ele>742.0</ele><time>2026-04-27T16:16:29Z</time></trkpt><trkpt lat="38.636133914759746" lon="16.3250919111902"><ele>742.0</ele><time>2026-04-27T16:16:30Z</time></trkpt><trkpt lat="38.636191463596646" lon="16.32505268099108"><ele>741.8</ele><time>2026-04-27T16:16:31Z</time></trkpt><trkpt lat="38.636249962911236" lon="16.32501041833372"><ele>741.6</ele><time>2026-04-27T16:16:32Z</time></trkpt><trkpt lat="38.63630908207134" lon="16.324973470909057"><ele>741.4</ele><time>2026-04-27T16:16:33Z</time></trkpt><trkpt lat="38.63636132655168" lon="16.32488010309677"><ele>741.1999999999999</ele><time>2026-04-27T16:16:34Z</time></trkpt><trkpt lat="38.63641798421015" lon="16.32474196207997"><ele>741.0</ele><time>2026-04-27T16:16:35Z</time></trkpt><trkpt lat="38.636463810652394" lon="16.32454842865206"><ele>741.0</ele><time>2026-04-27T16:16:36Z</time></trkpt><trkpt lat="38.63648322431224" lon="16.32435506380664"><ele>741.0</ele><time>2026-04-27T16:16:37Z</time></trkpt><trkpt lat="38.636530185563245" lon="16.324182544128007"><ele>741.0</ele><time>2026-04-27T16:16:38Z</time></trkpt><trkpt lat="38.6365985840623" lon="16.324033398301225"><ele>741.0</ele><time>2026-04-27T16:16:39Z</time></trkpt><trkpt lat="38.63669298909473" lon="16.3239209770637"><ele>741.0</ele><time>2026-04-27T16:16:40Z</time></trkpt><trkpt lat="38.636770543775754" lon="16.3239270402166"><ele>741.0</ele><time>2026-04-27T16:16:41Z</time></trkpt><trkpt lat="38.6368581472715" lon="16.32391723213683"><ele>741.0</ele><time>2026-04-27T16:16:42Z</time></trkpt><trkpt lat="38.6369811628899" lon="16.324010100689417"><ele>741.0</ele><time>2026-04-27T16:16:43Z</time></trkpt><trkpt lat="38.63711369390169" lon="16.324037666457127"><ele>741.0</ele><time>2026-04-27T16:16:44Z</time></trkpt><trkpt lat="38.637213298830765" lon="16.324035646925346"><ele>742.0</ele><time>2026-04-27T16:16:45Z</time></trkpt><trkpt lat="38.637269644074266" lon="16.32394545548904"><ele>743.0</ele><time>2026-04-27T16:16:46Z</time></trkpt><trkpt lat="38.63728701331611" lon="16.323843037261973"><ele>744.0</ele><time>2026-04-27T16:16:47Z</time></trkpt><trkpt lat="38.63729745130636" lon="16.32371110205298"><ele>745.0</ele><time>2026-04-27T16:16:48Z</time></trkpt><trkpt lat="38.637306866245346" lon="16.32354912352175"><ele>746.0</ele><time>2026-04-27T16:16:49Z</time></trkpt><trkpt lat="38.637315162706535" lon="16.323413098759275"><ele>746.0</ele><time>2026-04-27T16:16:50Z</time></trkpt><trkpt lat="38.63733337294791" lon="16.323304516742798"><ele>746.0</ele><time>2026-04-27T16:16:51Z</time></trkpt><trkpt lat="38.637379444440775" lon="16.323193880606986"><ele>746.0</ele><time>2026-04-27T16:16:53Z</time></trkpt><trkpt lat="38.637520905616" lon="16.32311268420315"><ele>746.0</ele><time>2026-04-27T16:16:55Z</time></trkpt><trkpt lat="38.63761105345927" lon="16.323061070548228"><ele>746.0</ele><time>2026-04-27T16:16:56Z</time></trkpt><trkpt lat="38.637695520411384" lon="16.323024400948572"><ele>745.3333333333333</ele><time>2026-04-27T16:16:57Z</time></trkpt><trkpt lat="38.637781349948845" lon="16.32298547632332"><ele>744.6666666666666</ele><time>2026-04-27T16:16:58Z</time></trkpt><trkpt lat="38.63786709351634" lon="16.32294689561031"><ele>744.0</ele><time>2026-04-27T16:16:59Z</time></trkpt><trkpt lat="38.63795485194558" lon="16.322901228547405"><ele>743.3333333333334</ele><time>2026-04-27T16:17:00Z</time></trkpt><trkpt lat="38.63804077214777" lon="16.32286333316192"><ele>742.6666666666667</ele><time>2026-04-27T16:17:01Z</time></trkpt><trkpt lat="38.63811187586251" lon="16.322819217487304"><ele>742.0</ele><time>2026-04-27T16:17:02Z</time></trkpt><trkpt lat="38.63817193523586" lon="16.322789242321072"><ele>742.0</ele><time>2026-04-27T16:17:03Z</time></trkpt><trkpt lat="38.638228805200086" lon="16.322723671639725"><ele>742.0</ele><time>2026-04-27T16:17:05Z</time></trkpt><trkpt lat="38.63820481119739" lon="16.32258049206074"><ele>742.0</ele><time>2026-04-27T16:17:07Z</time></trkpt><trkpt lat="38.6381292913346" lon="16.322571027101134"><ele>742.0</ele><time>2026-04-27T16:17:08Z</time></trkpt><trkpt lat="38.63799507708219" lon="16.32258716868283"><ele>742.0</ele><time>2026-04-27T16:17:10Z</time></trkpt><trkpt lat="38.63790085982478" lon="16.322638896044094"><ele>742.0</ele><time>2026-04-27T16:17:11Z</time></trkpt><trkpt lat="38.637833038293046" lon="16.322672203451337"><ele>742.0</ele><time>2026-04-27T16:17:12Z</time></trkpt><trkpt lat="38.63773695906531" lon="16.32272167647198"><ele>742.0</ele><time>2026-04-27T16:17:14Z</time></trkpt><trkpt lat="38.63780639512858" lon="16.322879938345505"><ele>742.0</ele><time>2026-04-27T16:17:18Z</time></trkpt><trkpt lat="38.63787253784639" lon="16.322864354830177"><ele>742.0</ele><time>2026-04-27T16:17:22Z</time></trkpt><trkpt lat="38.63777583030571" lon="16.322587947647836"><ele>741.5</ele><time>2026-04-27T16:17:27.999Z</time></trkpt><trkpt lat="38.63775979459308" lon="16.322708827172047"><ele>741.0</ele><time>2026-04-27T16:17:28.999Z</time></trkpt><trkpt lat="38.63772737080266" lon="16.32281445125286"><ele>740.5</ele><time>2026-04-27T16:17:44.999Z</time></trkpt><trkpt lat="38.6376824872221" lon="16.322897094115408"><ele>740.0</ele><time>2026-04-27T16:17:46.999Z</time></trkpt><trkpt lat="38.63761355713745" lon="16.32292231962799"><ele>739.5</ele><time>2026-04-27T16:17:47.999Z</time></trkpt><trkpt lat="38.637552377283555" lon="16.322951377616153"><ele>739.0</ele><time>2026-04-27T16:17:48.999Z</time></trkpt><trkpt lat="38.63750839921381" lon="16.323028751368703"><ele>739.0</ele><time>2026-04-27T16:17:50.999Z</time></trkpt><trkpt lat="38.63767858002132" lon="16.323027601258083"><ele>739.0</ele><time>2026-04-27T16:18:05.999Z</time></trkpt><trkpt lat="38.63779352291011" lon="16.322956071622762"><ele>739.0</ele><time>2026-04-27T16:18:06.999Z</time></trkpt><trkpt lat="38.6379246858582" lon="16.32288377766496"><ele>739.0</ele><time>2026-04-27T16:18:07.999Z</time></trkpt><trkpt lat="38.63803384158964" lon="16.32283479007632"><ele>739.6</ele><time>2026-04-27T16:18:08.999Z</time></trkpt><trkpt lat="38.63811932237774" lon="16.32278882018089"><ele>740.2</ele><time>2026-04-27T16:18:09.999Z</time></trkpt><trkpt lat="38.638178386276465" lon="16.322752702907845"><ele>740.8000000000001</ele><time>2026-04-27T16:18:10.999Z</time></trkpt><trkpt lat="38.63814285423989" lon="16.32256909298231"><ele>741.4000000000001</ele><time>2026-04-27T16:18:15Z</time></trkpt><trkpt lat="38.63812503585843" lon="16.322648015172863"><ele>742.0</ele><time>2026-04-27T16:18:20Z</time></trkpt><trkpt lat="38.638046736362604" lon="16.322676255644748"><ele>742.0</ele><time>2026-04-27T16:19:06Z</time></trkpt><trkpt lat="38.6379120895075" lon="16.322735052317363"><ele>742.0</ele><time>2026-04-27T16:19:08Z</time></trkpt><trkpt lat="38.637815261885414" lon="16.322783984939342"><ele>742.0</ele><time>2026-04-27T16:19:10Z</time></trkpt><trkpt lat="38.6377556311282" lon="16.32273942386049"><ele>742.0</ele><time>2026-04-27T16:20:50Z</time></trkpt><trkpt lat="38.637642283906565" lon="16.3227287226075"><ele>742.0</ele><time>2026-04-27T16:20:52Z</time></trkpt><trkpt lat="38.63757648992427" lon="16.32277510203229"><ele>741.4000000000001</ele><time>2026-04-27T16:20:53Z</time></trkpt><trkpt lat="38.63749997691558" lon="16.32285725768219"><ele>740.8000000000001</ele><time>2026-04-27T16:20:54Z</time></trkpt><trkpt lat="38.63742024036141" lon="16.322956094247072"><ele>740.2</ele><time>2026-04-27T16:20:55Z</time></trkpt><trkpt lat="38.63735979865687" lon="16.323043853454887"><ele>739.6</ele><time>2026-04-27T16:20:56Z</time></trkpt><trkpt lat="38.63729891236481" lon="16.323088999562106"><ele>739.0</ele><time>2026-04-27T16:20:58Z</time></trkpt><trkpt lat="38.63724765507708" lon="16.3230059153549"><ele>739.0</ele><time>2026-04-27T16:21:01Z</time></trkpt><trkpt lat="38.63729805153348" lon="16.32289383702956"><ele>739.0</ele><time>2026-04-27T16:21:03Z</time></trkpt><trkpt lat="38.63736672344022" lon="16.322805920424564"><ele>739.0</ele><time>2026-04-27T16:21:05Z</time></trkpt><trkpt lat="38.63729145305796" lon="16.322737219190184"><ele>739.0</ele><time>2026-04-27T16:21:08Z</time></trkpt><trkpt lat="38.63720054102864" lon="16.322731578281434"><ele>739.0</ele><time>2026-04-27T16:21:10Z</time></trkpt><trkpt lat="38.637115188275" lon="16.3227481344811"><ele>739.0</ele><time>2026-04-27T16:21:12Z</time></trkpt><trkpt lat="38.63704631941947" lon="16.322734082350916"><ele>739.0</ele><time>2026-04-27T16:21:16Z</time></trkpt><trkpt lat="38.637048466877985" lon="16.322611836601574"><ele>739.0</ele><time>2026-04-27T16:21:20Z</time></trkpt><trkpt lat="38.63715994391353" lon="16.32245950871439"><ele>739.0</ele><time>2026-04-27T16:21:22Z</time></trkpt><trkpt lat="38.6372303695399" lon="16.3223716954272"><ele>739.0</ele><time>2026-04-27T16:21:23Z</time></trkpt><trkpt lat="38.63728976409669" lon="16.322284451422735"><ele>738.3333333333334</ele><time>2026-04-27T16:21:24Z</time></trkpt><trkpt lat="38.63734941354023" lon="16.322213164525515"><ele>737.6666666666667</ele><time>2026-04-27T16:21:25Z</time></trkpt><trkpt lat="38.63738972356814" lon="16.32215061008828"><ele>737.0</ele><time>2026-04-27T16:21:26Z</time></trkpt><trkpt lat="38.63736267593327" lon="16.322023461427314"><ele>736.3333333333334</ele><time>2026-04-27T16:21:28Z</time></trkpt><trkpt lat="38.63730459426744" lon="16.321950945122786"><ele>735.6666666666666</ele><time>2026-04-27T16:21:29Z</time></trkpt><trkpt lat="38.63723925961718" lon="16.321895409159406"><ele>735.0</ele><time>2026-04-27T16:21:30Z</time></trkpt><trkpt lat="38.63717943193798" lon="16.32178412749535"><ele>735.0</ele><time>2026-04-27T16:21:31Z</time></trkpt><trkpt lat="38.63713286521504" lon="16.321654817004216"><ele>735.0</ele><time>2026-04-27T16:21:31.999Z</time></trkpt><trkpt lat="38.63709526391383" lon="16.32155528619406"><ele>735.0</ele><time>2026-04-27T16:21:32.999Z</time></trkpt><trkpt lat="38.637042972098016" lon="16.32150935679138"><ele>735.0</ele><time>2026-04-27T16:21:33.999Z</time></trkpt><trkpt lat="38.63695012971284" lon="16.321484960773006"><ele>735.0</ele><time>2026-04-27T16:21:34.999Z</time></trkpt><trkpt lat="38.63685701315206" lon="16.32146282381996"><ele>735.5</ele><time>2026-04-27T16:21:35.999Z</time></trkpt><trkpt lat="38.636783046467414" lon="16.321435332766164"><ele>736.0</ele><time>2026-04-27T16:21:36.999Z</time></trkpt><trkpt lat="38.63671905810651" lon="16.321405419957863"><ele>736.5</ele><time>2026-04-27T16:21:37.999Z</time></trkpt><trkpt lat="38.63664945030014" lon="16.321355913837827"><ele>737.0</ele><time>2026-04-27T16:21:39.999Z</time></trkpt><trkpt lat="38.636676786815194" lon="16.321254238074154"><ele>737.5</ele><time>2026-04-27T16:21:44.999Z</time></trkpt><trkpt lat="38.63676586736089" lon="16.321276333249852"><ele>738.0</ele><time>2026-04-27T16:21:46.999Z</time></trkpt><trkpt lat="38.63693866612786" lon="16.321307423397815"><ele>740.25</ele><time>2026-04-27T16:21:48.999Z</time></trkpt><trkpt lat="38.637091026337" lon="16.32134930199255"><ele>742.5</ele><time>2026-04-27T16:21:49.999Z</time></trkpt><trkpt lat="38.63720944211251" lon="16.321331064473895"><ele>744.75</ele><time>2026-04-27T16:21:50.999Z</time></trkpt><trkpt lat="38.63733393163847" lon="16.321300738234466"><ele>747.0</ele><time>2026-04-27T16:21:51.999Z</time></trkpt><trkpt lat="38.637453327880955" lon="16.321266929540478"><ele>747.0</ele><time>2026-04-27T16:21:52.999Z</time></trkpt><trkpt lat="38.63757989568479" lon="16.32125071720393"><ele>747.0</ele><time>2026-04-27T16:21:53.999Z</time></trkpt><trkpt lat="38.63771329558827" lon="16.321218313267902"><ele>747.0</ele><time>2026-04-27T16:21:54.999Z</time></trkpt><trkpt lat="38.63783613254984" lon="16.321179451058015"><ele>747.0</ele><time>2026-04-27T16:21:55.999Z</time></trkpt><trkpt lat="38.63792976213745" lon="16.321167666411398"><ele>746.0</ele><time>2026-04-27T16:21:56.999Z</time></trkpt><trkpt lat="38.63801740538257" lon="16.321139343667554"><ele>745.0</ele><time>2026-04-27T16:21:57.999Z</time></trkpt><trkpt lat="38.63808913481505" lon="16.321093678842544"><ele>744.0</ele><time>2026-04-27T16:21:58.999Z</time></trkpt><trkpt lat="38.63814873420846" lon="16.3210275670585"><ele>743.0</ele><time>2026-04-27T16:21:59.999Z</time></trkpt><trkpt lat="38.6381966672115" lon="16.320947509201627"><ele>742.0</ele><time>2026-04-27T16:22:00.999Z</time></trkpt><trkpt lat="38.638226229690815" lon="16.320866741083748"><ele>741.0</ele><time>2026-04-27T16:22:01.999Z</time></trkpt><trkpt lat="38.63827495702915" lon="16.320751597837003"><ele>741.0</ele><time>2026-04-27T16:22:02.999Z</time></trkpt><trkpt lat="38.63830005246281" lon="16.320623517612802"><ele>741.0</ele><time>2026-04-27T16:22:03.999Z</time></trkpt><trkpt lat="38.638271128160824" lon="16.320526629356458"><ele>741.0</ele><time>2026-04-27T16:22:04.999Z</time></trkpt><trkpt lat="38.63825310052806" lon="16.32043383875887"><ele>741.0</ele><time>2026-04-27T16:22:05.999Z</time></trkpt><trkpt lat="38.63821287234391" lon="16.320361547760722"><ele>741.0</ele><time>2026-04-27T16:22:06.999Z</time></trkpt><trkpt lat="38.63813657513513" lon="16.320242213610147"><ele>741.0</ele><time>2026-04-27T16:22:08.999Z</time></trkpt><trkpt lat="38.63807116109918" lon="16.32011212537814"><ele>742.0</ele><time>2026-04-27T16:22:10.999Z</time></trkpt><trkpt lat="38.63795987660622" lon="16.320082389172697"><ele>743.0</ele><time>2026-04-27T16:22:12.999Z</time></trkpt><trkpt lat="38.63784841949368" lon="16.320084303623364"><ele>744.0</ele><time>2026-04-27T16:22:14.999Z</time></trkpt><trkpt lat="38.637779414113716" lon="16.320088299130443"><ele>745.0</ele><time>2026-04-27T16:22:15.999Z</time></trkpt><trkpt lat="38.637700307470325" lon="16.320096399978297"><ele>746.0</ele><time>2026-04-27T16:22:16.999Z</time></trkpt><trkpt lat="38.63760284172907" lon="16.320093580375914"><ele>748.5</ele><time>2026-04-27T16:22:17.999Z</time></trkpt><trkpt lat="38.6375342856618" lon="16.32008097177861"><ele>751.0</ele><time>2026-04-27T16:22:18.999Z</time></trkpt><trkpt lat="38.63741517425366" lon="16.320069825171547"><ele>753.5</ele><time>2026-04-27T16:22:20.999Z</time></trkpt><trkpt lat="38.63729792019887" lon="16.32005641678607"><ele>756.0</ele><time>2026-04-27T16:22:22.999Z</time></trkpt><trkpt lat="38.637222327855376" lon="16.320050446929894"><ele>758.5</ele><time>2026-04-27T16:22:24Z</time></trkpt><trkpt lat="38.6371607865546" lon="16.320029555410006"><ele>761.0</ele><time>2026-04-27T16:22:25Z</time></trkpt><trkpt lat="38.63707756478608" lon="16.319962199353032"><ele>761.0</ele><time>2026-04-27T16:22:27Z</time></trkpt><trkpt lat="38.63698825217428" lon="16.319857410693384"><ele>761.0</ele><time>2026-04-27T16:22:29Z</time></trkpt><trkpt lat="38.6369350303586" lon="16.31979607453826"><ele>761.0</ele><time>2026-04-27T16:22:30Z</time></trkpt><trkpt lat="38.6368604886442" lon="16.319753468864526"><ele>761.0</ele><time>2026-04-27T16:22:31Z</time></trkpt><trkpt lat="38.6367948854609" lon="16.319710914122865"><ele>761.0</ele><time>2026-04-27T16:22:32Z</time></trkpt><trkpt lat="38.63672251621923" lon="16.319694242167397"><ele>761.0</ele><time>2026-04-27T16:22:33Z</time></trkpt><trkpt lat="38.63660314042172" lon="16.319650075949504"><ele>764.8</ele><time>2026-04-27T16:22:35Z</time></trkpt><trkpt lat="38.636542859149394" lon="16.319542600725942"><ele>768.5999999999999</ele><time>2026-04-27T16:22:37Z</time></trkpt><trkpt lat="38.636487503819474" lon="16.319444409760266"><ele>772.4</ele><time>2026-04-27T16:22:39Z</time></trkpt><trkpt lat="38.63643441044647" lon="16.319341077526285"><ele>776.2</ele><time>2026-04-27T16:22:41Z</time></trkpt><trkpt lat="38.636421474581674" lon="16.31925540272243"><ele>780.0</ele><time>2026-04-27T16:22:42Z</time></trkpt><trkpt lat="38.63643536112381" lon="16.319142258537845"><ele>780.0</ele><time>2026-04-27T16:22:44Z</time></trkpt><trkpt lat="38.63639220317612" lon="16.31905272878971"><ele>780.0</ele><time>2026-04-27T16:22:45Z</time></trkpt><trkpt lat="38.63634901819782" lon="16.318968902736113"><ele>780.0</ele><time>2026-04-27T16:22:50Z</time></trkpt><trkpt lat="38.63627484544192" lon="16.31897715088637"><ele>780.0</ele><time>2026-04-27T16:22:54Z</time></trkpt><trkpt lat="38.63616330361042" lon="16.318996797671556"><ele>780.0</ele><time>2026-04-27T16:22:56Z</time></trkpt><trkpt lat="38.636088489234744" lon="16.31902481433878"><ele>780.0</ele><time>2026-04-27T16:22:57Z</time></trkpt><trkpt lat="38.636020373860454" lon="16.31901789068268"><ele>780.4</ele><time>2026-04-27T16:22:59Z</time></trkpt><trkpt lat="38.63592742533985" lon="16.318966608885592"><ele>780.8</ele><time>2026-04-27T16:23:01Z</time></trkpt><trkpt lat="38.63593691985175" lon="16.318878802249206"><ele>781.2</ele><time>2026-04-27T16:23:03Z</time></trkpt><trkpt lat="38.63593142184169" lon="16.318782184082135"><ele>781.6</ele><time>2026-04-27T16:23:06Z</time></trkpt><trkpt lat="38.63585139546259" lon="16.318732598796444"><ele>782.0</ele><time>2026-04-27T16:23:09Z</time></trkpt><trkpt lat="38.63569976788481" lon="16.318600989620606"><ele>782.0</ele><time>2026-04-27T16:23:11Z</time></trkpt><trkpt lat="38.63564484357291" lon="16.318518561814827"><ele>782.0</ele><time>2026-04-27T16:23:12Z</time></trkpt><trkpt lat="38.635614784158825" lon="16.318413623239838"><ele>782.0</ele><time>2026-04-27T16:23:13Z</time></trkpt><trkpt lat="38.63551831967195" lon="16.31821773198834"><ele>782.0</ele><time>2026-04-27T16:23:15Z</time></trkpt><trkpt lat="38.635452057333396" lon="16.318128573576477"><ele>782.0</ele><time>2026-04-27T16:23:16Z</time></trkpt><trkpt lat="38.6353801194279" lon="16.318027992882445"><ele>784.0</ele><time>2026-04-27T16:23:17Z</time></trkpt><trkpt lat="38.635308923462745" lon="16.317878920060902"><ele>786.0</ele><time>2026-04-27T16:23:18Z</time></trkpt><trkpt lat="38.635263173015645" lon="16.317719530559103"><ele>788.0</ele><time>2026-04-27T16:23:19Z</time></trkpt><trkpt lat="38.63520453540437" lon="16.317600122354342"><ele>790.0</ele><time>2026-04-27T16:23:20Z</time></trkpt><trkpt lat="38.63516979912189" lon="16.317431490460425"><ele>790.0</ele><time>2026-04-27T16:23:21Z</time></trkpt><trkpt lat="38.63510068577683" lon="16.3173143538666"><ele>790.0</ele><time>2026-04-27T16:23:22Z</time></trkpt><trkpt lat="38.635087589907066" lon="16.31718797586428"><ele>790.0</ele><time>2026-04-27T16:23:23Z</time></trkpt><trkpt lat="38.63476951005292" lon="16.317229709713093"><ele>794.2</ele><time>2026-04-27T16:23:24Z</time></trkpt><trkpt lat="38.63468599167795" lon="16.317178836867598"><ele>798.4</ele><time>2026-04-27T16:23:25Z</time></trkpt><trkpt lat="38.634617703258684" lon="16.317158993411923"><ele>802.5999999999999</ele><time>2026-04-27T16:23:26Z</time></trkpt><trkpt lat="38.63448950947457" lon="16.31712111566989"><ele>806.8</ele><time>2026-04-27T16:23:27Z</time></trkpt><trkpt lat="38.63439804696394" lon="16.31710728162025"><ele>811.0</ele><time>2026-04-27T16:23:28Z</time></trkpt><trkpt lat="38.63436653861816" lon="16.317030511763022"><ele>809.75</ele><time>2026-04-27T16:23:29Z</time></trkpt><trkpt lat="38.63432759855948" lon="16.31716014260435"><ele>808.5</ele><time>2026-04-27T16:23:31Z</time></trkpt><trkpt lat="38.634292578569806" lon="16.31736241027304"><ele>807.25</ele><time>2026-04-27T16:23:32Z</time></trkpt><trkpt lat="38.63426593140752" lon="16.317556378163097"><ele>806.0</ele><time>2026-04-27T16:23:33Z</time></trkpt><trkpt lat="38.63427226894206" lon="16.31770449087404"><ele>806.0000000000001</ele><time>2026-04-27T16:23:33.999Z</time></trkpt><trkpt lat="38.63428803257035" lon="16.317847415341028"><ele>806.0</ele><time>2026-04-27T16:23:34.999Z</time></trkpt><trkpt lat="38.63428391566616" lon="16.317954855238668"><ele>806.0</ele><time>2026-04-27T16:23:35.999Z</time></trkpt><trkpt lat="38.6342851494374" lon="16.318040405368418"><ele>806.0</ele><time>2026-04-27T16:23:36.999Z</time></trkpt><trkpt lat="38.63430127524406" lon="16.318124704990737"><ele>806.0000000000001</ele><time>2026-04-27T16:23:37.999Z</time></trkpt><trkpt lat="38.63433958725564" lon="16.318045193214925"><ele>806.0</ele><time>2026-04-27T16:23:41.999Z</time></trkpt><trkpt lat="38.6343176579317" lon="16.318127964792485"><ele>804.1999999999999</ele><time>2026-04-27T16:23:46.999Z</time></trkpt><trkpt lat="38.63432278690548" lon="16.318234855332403"><ele>802.4</ele><time>2026-04-27T16:23:48.999Z</time></trkpt><trkpt lat="38.634334705914405" lon="16.318354104332574"><ele>800.6</ele><time>2026-04-27T16:23:50.999Z</time></trkpt><trkpt lat="38.63430948020124" lon="16.31844440558504"><ele>798.8</ele><time>2026-04-27T16:23:52.999Z</time></trkpt><trkpt lat="38.63429007167328" lon="16.31856075601493"><ele>797.0</ele><time>2026-04-27T16:23:54.999Z</time></trkpt><trkpt lat="38.63425767941143" lon="16.318702078589002"><ele>797.0</ele><time>2026-04-27T16:23:56.999Z</time></trkpt><trkpt lat="38.63422814313305" lon="16.318830632692663"><ele>797.0</ele><time>2026-04-27T16:23:58.999Z</time></trkpt><trkpt lat="38.63418191260394" lon="16.318942030969357"><ele>797.0</ele><time>2026-04-27T16:24:00.999Z</time></trkpt><trkpt lat="38.63408378981676" lon="16.318940963324643"><ele>797.0</ele><time>2026-04-27T16:24:03.999Z</time></trkpt><trkpt lat="38.634008010798304" lon="16.31886510079232"><ele>797.0</ele><time>2026-04-27T16:24:04.999Z</time></trkpt><trkpt lat="38.63395306008439" lon="16.318808326917758"><ele>797.0</ele><time>2026-04-27T16:24:05.999Z</time></trkpt><trkpt lat="38.63383382745564" lon="16.318697748150726"><ele>797.0</ele><time>2026-04-27T16:24:07.999Z</time></trkpt><trkpt lat="38.63370712701425" lon="16.318620072117913"><ele>797.0</ele><time>2026-04-27T16:24:09.999Z</time></trkpt><trkpt lat="38.6336046550969" lon="16.318608676947747"><ele>797.0</ele><time>2026-04-27T16:24:11.999Z</time></trkpt><trkpt lat="38.63351947419609" lon="16.31860719487545"><ele>796.5000000000001</ele><time>2026-04-27T16:24:12.999Z</time></trkpt><trkpt lat="38.63340806153943" lon="16.31869354973212"><ele>796.0</ele><time>2026-04-27T16:24:14.999Z</time></trkpt><trkpt lat="38.633335486035314" lon="16.318750320234138"><ele>795.5</ele><time>2026-04-27T16:24:15.999Z</time></trkpt><trkpt lat="38.63325915969378" lon="16.318799058764895"><ele>795.0</ele><time>2026-04-27T16:24:16.999Z</time></trkpt><trkpt lat="38.63318455979191" lon="16.31881290751635"><ele>794.5000000000001</ele><time>2026-04-27T16:24:18.999Z</time></trkpt><trkpt lat="38.633127594135566" lon="16.31886377788282"><ele>794.0</ele><time>2026-04-27T16:24:20.999Z</time></trkpt><trkpt lat="38.6330752951144" lon="16.31897563001044"><ele>794.0000000000001</ele><time>2026-04-27T16:24:22.999Z</time></trkpt><trkpt lat="38.63306784171524" lon="16.319077493411793"><ele>794.0</ele><time>2026-04-27T16:24:23.999Z</time></trkpt><trkpt lat="38.63305996623591" lon="16.319189221644475"><ele>794.0</ele><time>2026-04-27T16:24:24.999Z</time></trkpt><trkpt lat="38.63301504366554" lon="16.31929426121429"><ele>794.0</ele><time>2026-04-27T16:24:25.999Z</time></trkpt><trkpt lat="38.633002744554396" lon="16.31940972531696"><ele>794.0000000000001</ele><time>2026-04-27T16:24:26.999Z</time></trkpt><trkpt lat="38.63297656587704" lon="16.319506084241752"><ele>794.0</ele><time>2026-04-27T16:24:27.999Z</time></trkpt><trkpt lat="38.632922056199185" lon="16.319612983822186"><ele>794.0</ele><time>2026-04-27T16:24:30Z</time></trkpt><trkpt lat="38.63281513572567" lon="16.31963669847665"><ele>794.0</ele><time>2026-04-27T16:24:32Z</time></trkpt><trkpt lat="38.632732088395215" lon="16.31961568202062"><ele>794.0</ele><time>2026-04-27T16:24:33Z</time></trkpt><trkpt lat="38.632632385889785" lon="16.319581436353683"><ele>794.0</ele><time>2026-04-27T16:24:34Z</time></trkpt><trkpt lat="38.63254532881822" lon="16.319550377931318"><ele>794.0</ele><time>2026-04-27T16:24:35Z</time></trkpt><trkpt lat="38.63246432276822" lon="16.319512745117542"><ele>795.4000000000001</ele><time>2026-04-27T16:24:36Z</time></trkpt><trkpt lat="38.63240304699642" lon="16.319465418742997"><ele>796.8</ele><time>2026-04-27T16:24:37Z</time></trkpt><trkpt lat="38.632344501011666" lon="16.319384786613284"><ele>798.2</ele><time>2026-04-27T16:24:38Z</time></trkpt><trkpt lat="38.632285286411125" lon="16.319265935101175"><ele>799.5999999999999</ele><time>2026-04-27T16:24:39Z</time></trkpt><trkpt lat="38.632219324832995" lon="16.319140105504832"><ele>801.0</ele><time>2026-04-27T16:24:40Z</time></trkpt><trkpt lat="38.6321490287934" lon="16.319036649353883"><ele>801.0</ele><time>2026-04-27T16:24:41Z</time></trkpt><trkpt lat="38.632082762531326" lon="16.318949723486938"><ele>801.0</ele><time>2026-04-27T16:24:42Z</time></trkpt><trkpt lat="38.63200307694059" lon="16.318880856510287"><ele>801.0</ele><time>2026-04-27T16:24:43Z</time></trkpt><trkpt lat="38.631928280488964" lon="16.31883060511722"><ele>801.0</ele><time>2026-04-27T16:24:44Z</time></trkpt><trkpt lat="38.63179376542217" lon="16.31879763073316"><ele>801.0</ele><time>2026-04-27T16:24:46Z</time></trkpt><trkpt lat="38.63169553062671" lon="16.318771335676814"><ele>802.0</ele><time>2026-04-27T16:24:47Z</time></trkpt><trkpt lat="38.631595026159076" lon="16.318748122716958"><ele>803.0</ele><time>2026-04-27T16:24:48Z</time></trkpt><trkpt lat="38.631504556059156" lon="16.318731468384488"><ele>804.0</ele><time>2026-04-27T16:24:49Z</time></trkpt><trkpt lat="38.631422847132185" lon="16.318703302676287"><ele>805.0</ele><time>2026-04-27T16:24:50Z</time></trkpt><trkpt lat="38.63135952254363" lon="16.318682622392995"><ele>806.0</ele><time>2026-04-27T16:24:51Z</time></trkpt><trkpt lat="38.63128612015999" lon="16.318677444097474"><ele>807.0</ele><time>2026-04-27T16:24:52Z</time></trkpt><trkpt lat="38.63121045953052" lon="16.318702352727932"><ele>806.6666666666666</ele><time>2026-04-27T16:24:53Z</time></trkpt><trkpt lat="38.63111951418459" lon="16.318756121022627"><ele>806.3333333333333</ele><time>2026-04-27T16:24:54Z</time></trkpt><trkpt lat="38.63103894110995" lon="16.31880254874278"><ele>806.0</ele><time>2026-04-27T16:24:55Z</time></trkpt><trkpt lat="38.63096456142293" lon="16.318852873067488"><ele>805.6666666666666</ele><time>2026-04-27T16:24:56Z</time></trkpt><trkpt lat="38.63088745310036" lon="16.318883945469164"><ele>805.3333333333333</ele><time>2026-04-27T16:24:57Z</time></trkpt><trkpt lat="38.630812816722056" lon="16.31889015643429"><ele>805.0</ele><time>2026-04-27T16:24:58Z</time></trkpt><trkpt lat="38.63074522717155" lon="16.318860757888256"><ele>804.9999999999999</ele><time>2026-04-27T16:24:59Z</time></trkpt><trkpt lat="38.630696413813894" lon="16.318789564612974"><ele>805.0</ele><time>2026-04-27T16:25:01Z</time></trkpt><trkpt lat="38.630664862975834" lon="16.318702094350158"><ele>805.0</ele><time>2026-04-27T16:25:03Z</time></trkpt><trkpt lat="38.630633958053046" lon="16.31854575095402"><ele>805.0</ele><time>2026-04-27T16:25:05Z</time></trkpt><trkpt lat="38.63064764890394" lon="16.318453163099125"><ele>804.9999999999999</ele><time>2026-04-27T16:25:06Z</time></trkpt><trkpt lat="38.6306500192876" lon="16.318368873237425"><ele>805.0</ele><time>2026-04-27T16:25:07Z</time></trkpt><trkpt lat="38.63066303364968" lon="16.318282894900694"><ele>804.9999999999999</ele><time>2026-04-27T16:25:08Z</time></trkpt><trkpt lat="38.630684129827124" lon="16.318113353852947"><ele>805.0</ele><time>2026-04-27T16:25:10Z</time></trkpt><trkpt lat="38.63069246178911" lon="16.318009697093622"><ele>805.0</ele><time>2026-04-27T16:25:11Z</time></trkpt><trkpt lat="38.63072294373182" lon="16.317928317596866"><ele>805.0</ele><time>2026-04-27T16:25:12Z</time></trkpt><trkpt lat="38.630763793814836" lon="16.317853316025754"><ele>804.9999999999999</ele><time>2026-04-27T16:25:13Z</time></trkpt><trkpt lat="38.63081712756578" lon="16.31778145312227"><ele>805.0</ele><time>2026-04-27T16:25:14Z</time></trkpt><trkpt lat="38.630901353776224" lon="16.317689432937556"><ele>805.0</ele><time>2026-04-27T16:25:15Z</time></trkpt><trkpt lat="38.630991019805435" lon="16.317593690719473"><ele>805.0</ele><time>2026-04-27T16:25:16Z</time></trkpt><trkpt lat="38.63107884407419" lon="16.317504901812843"><ele>805.0</ele><time>2026-04-27T16:25:17Z</time></trkpt><trkpt lat="38.631149991325195" lon="16.317411441428312"><ele>805.0</ele><time>2026-04-27T16:25:18Z</time></trkpt><trkpt lat="38.63120679008338" lon="16.317323989710378"><ele>805.0</ele><time>2026-04-27T16:25:19Z</time></trkpt><trkpt lat="38.63125522222128" lon="16.31722456612735"><ele>808.1666666666666</ele><time>2026-04-27T16:25:20Z</time></trkpt><trkpt lat="38.631300225347616" lon="16.317139850605148"><ele>811.3333333333333</ele><time>2026-04-27T16:25:21Z</time></trkpt><trkpt lat="38.631355397025835" lon="16.31706762862501"><ele>814.5</ele><time>2026-04-27T16:25:22Z</time></trkpt><trkpt lat="38.63141124628531" lon="16.3170021806681"><ele>817.6666666666667</ele><time>2026-04-27T16:25:23Z</time></trkpt><trkpt lat="38.63147458245639" lon="16.3169374340581"><ele>820.8333333333334</ele><time>2026-04-27T16:25:24Z</time></trkpt><trkpt lat="38.631546105208315" lon="16.316861394252378"><ele>824.0</ele><time>2026-04-27T16:25:25Z</time></trkpt><trkpt lat="38.63160599437141" lon="16.316778248524873"><ele>824.0000000000001</ele><time>2026-04-27T16:25:26Z</time></trkpt><trkpt lat="38.63166743794023" lon="16.316709071335513"><ele>824.0</ele><time>2026-04-27T16:25:27Z</time></trkpt><trkpt lat="38.63172473200702" lon="16.316635315600305"><ele>824.0</ele><time>2026-04-27T16:25:28Z</time></trkpt><trkpt lat="38.63177457896914" lon="16.316574511220193"><ele>824.0</ele><time>2026-04-27T16:25:29Z</time></trkpt><trkpt lat="38.63187328593493" lon="16.316493054743614"><ele>824.0000000000001</ele><time>2026-04-27T16:25:31Z</time></trkpt><trkpt lat="38.6319568963854" lon="16.316448589213078"><ele>824.0</ele><time>2026-04-27T16:25:33Z</time></trkpt><trkpt lat="38.632015921157766" lon="16.31641815090574"><ele>827.8571428571428</ele><time>2026-04-27T16:25:34Z</time></trkpt><trkpt lat="38.63208153233541" lon="16.31638397259956"><ele>831.7142857142857</ele><time>2026-04-27T16:25:34.999Z</time></trkpt><trkpt lat="38.63214829298298" lon="16.316359201343626"><ele>835.5714285714286</ele><time>2026-04-27T16:25:35.999Z</time></trkpt><trkpt lat="38.63221419578257" lon="16.316335174605747"><ele>839.4285714285713</ele><time>2026-04-27T16:25:36.999Z</time></trkpt><trkpt lat="38.63227808256691" lon="16.316308157734095"><ele>843.2857142857143</ele><time>2026-04-27T16:25:37.999Z</time></trkpt><trkpt lat="38.63233760412364" lon="16.316270959035062"><ele>847.1428571428571</ele><time>2026-04-27T16:25:38.999Z</time></trkpt><trkpt lat="38.632413948086494" lon="16.316197547190313"><ele>851.0</ele><time>2026-04-27T16:25:40.999Z</time></trkpt><trkpt lat="38.63248634885028" lon="16.31615853544506"><ele>851.0</ele><time>2026-04-27T16:25:42.999Z</time></trkpt><trkpt lat="38.6325551765026" lon="16.316149341610007"><ele>851.0</ele><time>2026-04-27T16:25:44.999Z</time></trkpt><trkpt lat="38.63263328666946" lon="16.316079597262924"><ele>851.0</ele><time>2026-04-27T16:25:48.999Z</time></trkpt><trkpt lat="38.63269575419876" lon="16.315936456421717"><ele>851.0</ele><time>2026-04-27T16:25:51.999Z</time></trkpt><trkpt lat="38.63272298558799" lon="16.315858992148293"><ele>851.0</ele><time>2026-04-27T16:25:56.999Z</time></trkpt><trkpt lat="38.63281679395694" lon="16.315728477440675"><ele>852.5999999999999</ele><time>2026-04-27T16:26:19.999Z</time></trkpt><trkpt lat="38.63285018334417" lon="16.315637710193272"><ele>854.2</ele><time>2026-04-27T16:26:21.999Z</time></trkpt><trkpt lat="38.63287525819199" lon="16.31546066585286"><ele>855.8000000000001</ele><time>2026-04-27T16:26:23.999Z</time></trkpt><trkpt lat="38.63285907336231" lon="16.315337718336544"><ele>857.4000000000001</ele><time>2026-04-27T16:26:24.999Z</time></trkpt><trkpt lat="38.63283941004449" lon="16.315230369040588"><ele>859.0</ele><time>2026-04-27T16:26:25.999Z</time></trkpt><trkpt lat="38.6328696555887" lon="16.315151873774738"><ele>861.6</ele><time>2026-04-27T16:26:26.999Z</time></trkpt><trkpt lat="38.632906343005615" lon="16.315046623465285"><ele>864.2</ele><time>2026-04-27T16:26:27.999Z</time></trkpt><trkpt lat="38.63293731648463" lon="16.31491445883295"><ele>866.8000000000001</ele><time>2026-04-27T16:26:28.999Z</time></trkpt><trkpt lat="38.63293087904669" lon="16.31479500911416"><ele>869.4000000000001</ele><time>2026-04-27T16:26:29.999Z</time></trkpt><trkpt lat="38.63287946351491" lon="16.314679379683476"><ele>872.0</ele><time>2026-04-27T16:26:30.999Z</time></trkpt><trkpt lat="38.63282474181821" lon="16.31458042380282"><ele>873.5</ele><time>2026-04-27T16:26:31.999Z</time></trkpt><trkpt lat="38.632760956287285" lon="16.3144746091516"><ele>875.0</ele><time>2026-04-27T16:26:32.999Z</time></trkpt><trkpt lat="38.63269569522626" lon="16.31436180478718"><ele>876.5</ele><time>2026-04-27T16:26:33.999Z</time></trkpt><trkpt lat="38.63259739490241" lon="16.314274097166457"><ele>878.0</ele><time>2026-04-27T16:26:34.999Z</time></trkpt><trkpt lat="38.63249523056123" lon="16.314180286167577"><ele>878.0</ele><time>2026-04-27T16:26:36Z</time></trkpt><trkpt lat="38.63239421356673" lon="16.314091550931092"><ele>878.0</ele><time>2026-04-27T16:26:37Z</time></trkpt><trkpt lat="38.63230226494314" lon="16.31400329909977"><ele>878.0</ele><time>2026-04-27T16:26:38Z</time></trkpt><trkpt lat="38.63221327275361" lon="16.313942133368105"><ele>878.0</ele><time>2026-04-27T16:26:39Z</time></trkpt><trkpt lat="38.63212637311689" lon="16.31392344093648"><ele>878.0</ele><time>2026-04-27T16:26:40Z</time></trkpt><trkpt lat="38.632041553125106" lon="16.313937337679935"><ele>876.2</ele><time>2026-04-27T16:26:41Z</time></trkpt><trkpt lat="38.6319506477927" lon="16.313958542079156"><ele>874.4</ele><time>2026-04-27T16:26:42Z</time></trkpt><trkpt lat="38.63187031729686" lon="16.31398868333583"><ele>872.6000000000001</ele><time>2026-04-27T16:26:43Z</time></trkpt><trkpt lat="38.631768362802525" lon="16.31404458033181"><ele>870.8000000000001</ele><time>2026-04-27T16:26:44Z</time></trkpt><trkpt lat="38.63167732726957" lon="16.31405879140379"><ele>869.0</ele><time>2026-04-27T16:26:45Z</time></trkpt><trkpt lat="38.631556673015034" lon="16.31404090017981"><ele>869.0</ele><time>2026-04-27T16:26:47Z</time></trkpt><trkpt lat="38.63150935944758" lon="16.31392759451584"><ele>869.0000000000001</ele><time>2026-04-27T16:26:49Z</time></trkpt><trkpt lat="38.63149733104147" lon="16.31382334776637"><ele>869.0000000000001</ele><time>2026-04-27T16:26:50Z</time></trkpt><trkpt lat="38.6314617812172" lon="16.313688935252994"><ele>869.0</ele><time>2026-04-27T16:26:51Z</time></trkpt><trkpt lat="38.631395673292104" lon="16.313601092510222"><ele>869.0</ele><time>2026-04-27T16:26:52Z</time></trkpt><trkpt lat="38.63129652625824" lon="16.31352594967071"><ele>871.0</ele><time>2026-04-27T16:26:53Z</time></trkpt><trkpt lat="38.6311684244626" lon="16.313448873413517"><ele>873.0000000000001</ele><time>2026-04-27T16:26:54Z</time></trkpt><trkpt lat="38.631063957994144" lon="16.313366058218318"><ele>875.0000000000001</ele><time>2026-04-27T16:26:55Z</time></trkpt><trkpt lat="38.630988088942544" lon="16.313315224110358"><ele>877.0</ele><time>2026-04-27T16:26:56Z</time></trkpt><trkpt lat="38.63089168248315" lon="16.31328405627551"><ele>879.0</ele><time>2026-04-27T16:26:57Z</time></trkpt><trkpt lat="38.630790987313155" lon="16.3132391019895"><ele>879.0</ele><time>2026-04-27T16:26:58Z</time></trkpt><trkpt lat="38.63070037485945" lon="16.31317702481141"><ele>879.0000000000001</ele><time>2026-04-27T16:26:59Z</time></trkpt><trkpt lat="38.630602425797775" lon="16.313159936751703"><ele>879.0000000000001</ele><time>2026-04-27T16:27:00Z</time></trkpt><trkpt lat="38.630491275452684" lon="16.313147921187053"><ele>879.0</ele><time>2026-04-27T16:27:01Z</time></trkpt><trkpt lat="38.630425709123664" lon="16.31313681439225"><ele>879.0</ele><time>2026-04-27T16:27:02Z</time></trkpt><trkpt lat="38.63033172157665" lon="16.313049876702813"><ele>881.8000000000001</ele><time>2026-04-27T16:27:04Z</time></trkpt><trkpt lat="38.63031049686232" lon="16.31294760593978"><ele>884.6000000000001</ele><time>2026-04-27T16:27:05Z</time></trkpt><trkpt lat="38.63030945830938" lon="16.312839763698275"><ele>887.4</ele><time>2026-04-27T16:27:06Z</time></trkpt><trkpt lat="38.63033642042177" lon="16.312721891295983"><ele>890.2</ele><time>2026-04-27T16:27:07Z</time></trkpt><trkpt lat="38.63034853325174" lon="16.312593486784028"><ele>893.0</ele><time>2026-04-27T16:27:08Z</time></trkpt><trkpt lat="38.63036753234492" lon="16.312470653920755"><ele>893.0</ele><time>2026-04-27T16:27:09Z</time></trkpt><trkpt lat="38.630410659306555" lon="16.312320561707025"><ele>893.0</ele><time>2026-04-27T16:27:10Z</time></trkpt><trkpt lat="38.63046626532378" lon="16.31215457053005"><ele>893.0</ele><time>2026-04-27T16:27:11Z</time></trkpt><trkpt lat="38.63049667619155" lon="16.31202469708758"><ele>893.0</ele><time>2026-04-27T16:27:12Z</time></trkpt><trkpt lat="38.630521776416415" lon="16.31191783082777"><ele>891.5999999999999</ele><time>2026-04-27T16:27:13Z</time></trkpt><trkpt lat="38.63055066373274" lon="16.31180434631952"><ele>890.1999999999999</ele><time>2026-04-27T16:27:14Z</time></trkpt><trkpt lat="38.63058273940403" lon="16.31170199260793"><ele>888.8</ele><time>2026-04-27T16:27:15Z</time></trkpt><trkpt lat="38.63060944922106" lon="16.311620668954568"><ele>887.4</ele><time>2026-04-27T16:27:16Z</time></trkpt><trkpt lat="38.63063982193299" lon="16.31145999313391"><ele>886.0</ele><time>2026-04-27T16:27:18Z</time></trkpt><trkpt lat="38.630690634928506" lon="16.311367611286148"><ele>884.6666666666666</ele><time>2026-04-27T16:27:19Z</time></trkpt><trkpt lat="38.630734100279774" lon="16.311286497386398"><ele>883.3333333333333</ele><time>2026-04-27T16:27:20Z</time></trkpt><trkpt lat="38.63074800779568" lon="16.311169771141063"><ele>882.0</ele><time>2026-04-27T16:27:22Z</time></trkpt><trkpt lat="38.63070598521696" lon="16.311092467430836"><ele>880.6666666666667</ele><time>2026-04-27T16:27:23Z</time></trkpt><trkpt lat="38.63065147919505" lon="16.31099216769964"><ele>879.3333333333334</ele><time>2026-04-27T16:27:24Z</time></trkpt><trkpt lat="38.630581706607984" lon="16.310928569798445"><ele>878.0</ele><time>2026-04-27T16:27:25Z</time></trkpt><trkpt lat="38.63051427417872" lon="16.310846675199382"><ele>878.0000000000001</ele><time>2026-04-27T16:27:26Z</time></trkpt><trkpt lat="38.63047028069689" lon="16.310780071118998"><ele>878.0</ele><time>2026-04-27T16:27:27Z</time></trkpt><trkpt lat="38.63041461940594" lon="16.310685618484797"><ele>878.0</ele><time>2026-04-27T16:27:28Z</time></trkpt><trkpt lat="38.63035190077623" lon="16.31058834563009"><ele>878.0</ele><time>2026-04-27T16:27:29Z</time></trkpt><trkpt lat="38.63029386740807" lon="16.31051198060864"><ele>878.0000000000001</ele><time>2026-04-27T16:27:30Z</time></trkpt><trkpt lat="38.63022798723272" lon="16.310429814873352"><ele>878.0</ele><time>2026-04-27T16:27:31Z</time></trkpt><trkpt lat="38.63016809916927" lon="16.31035363336149"><ele>876.1666666666667</ele><time>2026-04-27T16:27:32Z</time></trkpt><trkpt lat="38.630115946767106" lon="16.31029148143376"><ele>874.3333333333334</ele><time>2026-04-27T16:27:33Z</time></trkpt><trkpt lat="38.63004165319196" lon="16.310222034392066"><ele>872.5</ele><time>2026-04-27T16:27:34Z</time></trkpt><trkpt lat="38.62996434620603" lon="16.310133567641273"><ele>870.6666666666667</ele><time>2026-04-27T16:27:35Z</time></trkpt><trkpt lat="38.62988200245329" lon="16.310087148034963"><ele>868.8333333333334</ele><time>2026-04-27T16:27:36Z</time></trkpt><trkpt lat="38.62983245426189" lon="16.31001805612459"><ele>867.0</ele><time>2026-04-27T16:27:37Z</time></trkpt><trkpt lat="38.629754350799224" lon="16.309927860677643"><ele>867.0</ele><time>2026-04-27T16:27:38.999Z</time></trkpt><trkpt lat="38.62968170042616" lon="16.309961130206798"><ele>867.0</ele><time>2026-04-27T16:27:40.999Z</time></trkpt><trkpt lat="38.629643623339554" lon="16.310039172732978"><ele>867.0</ele><time>2026-04-27T16:27:41.999Z</time></trkpt><trkpt lat="38.62960119342249" lon="16.310128441585405"><ele>867.0</ele><time>2026-04-27T16:27:42.999Z</time></trkpt><trkpt lat="38.62955161830156" lon="16.31024507417287"><ele>867.0</ele><time>2026-04-27T16:27:43.999Z</time></trkpt><trkpt lat="38.62948980232213" lon="16.310324593544742"><ele>867.0</ele><time>2026-04-27T16:27:44.999Z</time></trkpt><trkpt lat="38.62943815205135" lon="16.310374894173282"><ele>866.8</ele><time>2026-04-27T16:27:45.999Z</time></trkpt><trkpt lat="38.629360356036955" lon="16.31040793893201"><ele>866.6</ele><time>2026-04-27T16:27:46.999Z</time></trkpt><trkpt lat="38.62927942379844" lon="16.310431493010594"><ele>866.3999999999999</ele><time>2026-04-27T16:27:47.999Z</time></trkpt><trkpt lat="38.629186002452194" lon="16.310452026322064"><ele>866.1999999999999</ele><time>2026-04-27T16:27:48.999Z</time></trkpt><trkpt lat="38.62908423864732" lon="16.310479044712032"><ele>866.0</ele><time>2026-04-27T16:27:49.999Z</time></trkpt><trkpt lat="38.628974957067356" lon="16.310474605355278"><ele>866.0</ele><time>2026-04-27T16:27:50.999Z</time></trkpt><trkpt lat="38.62887205364026" lon="16.310456093610917"><ele>865.9999999999999</ele><time>2026-04-27T16:27:51.999Z</time></trkpt><trkpt lat="38.62876041189257" lon="16.310438167155606"><ele>865.9999999999999</ele><time>2026-04-27T16:27:52.999Z</time></trkpt><trkpt lat="38.628665290795105" lon="16.31042832046033"><ele>866.0</ele><time>2026-04-27T16:27:53.999Z</time></trkpt><trkpt lat="38.62857831539438" lon="16.310433152256408"><ele>866.0</ele><time>2026-04-27T16:27:54.999Z</time></trkpt><trkpt lat="38.62849297071562" lon="16.31044317231601"><ele>866.0000000000001</ele><time>2026-04-27T16:27:55.999Z</time></trkpt><trkpt lat="38.62842515295715" lon="16.310474516762795"><ele>866.0</ele><time>2026-04-27T16:27:56.999Z</time></trkpt><trkpt lat="38.62833590458842" lon="16.310541934315324"><ele>866.0</ele><time>2026-04-27T16:27:58.999Z</time></trkpt><trkpt lat="38.628242226733256" lon="16.31059171576125"><ele>866.0</ele><time>2026-04-27T16:28:00.999Z</time></trkpt><trkpt lat="38.628176609699366" lon="16.310631195787263"><ele>866.0000000000001</ele><time>2026-04-27T16:28:01.999Z</time></trkpt><trkpt lat="38.62811523383267" lon="16.31069943624989"><ele>866.0</ele><time>2026-04-27T16:28:02.999Z</time></trkpt><trkpt lat="38.62803907031454" lon="16.31078509639017"><ele>867.4</ele><time>2026-04-27T16:28:03.999Z</time></trkpt><trkpt lat="38.62795960580409" lon="16.310880860991574"><ele>868.8</ele><time>2026-04-27T16:28:04.999Z</time></trkpt><trkpt lat="38.62787545355944" lon="16.310983101428576"><ele>870.1999999999999</ele><time>2026-04-27T16:28:05.999Z</time></trkpt><trkpt lat="38.62780083560823" lon="16.31106469142687"><ele>871.5999999999999</ele><time>2026-04-27T16:28:06.999Z</time></trkpt><trkpt lat="38.62775030197101" lon="16.311136820184682"><ele>873.0</ele><time>2026-04-27T16:28:07.999Z</time></trkpt><trkpt lat="38.627703860894854" lon="16.311208228585045"><ele>873.0</ele><time>2026-04-27T16:28:08.999Z</time></trkpt><trkpt lat="38.627663023750465" lon="16.31129451188265"><ele>873.0</ele><time>2026-04-27T16:28:09.999Z</time></trkpt><trkpt lat="38.627629326625154" lon="16.311399467122776"><ele>873.0</ele><time>2026-04-27T16:28:10.999Z</time></trkpt><trkpt lat="38.62760300553702" lon="16.311499457588386"><ele>873.0</ele><time>2026-04-27T16:28:11.999Z</time></trkpt><trkpt lat="38.62758404576432" lon="16.31159447001252"><ele>873.0</ele><time>2026-04-27T16:28:12.999Z</time></trkpt><trkpt lat="38.627566653681875" lon="16.311693927756547"><ele>873.0</ele><time>2026-04-27T16:28:13.999Z</time></trkpt><trkpt lat="38.62754917558577" lon="16.311792559981452"><ele>871.0</ele><time>2026-04-27T16:28:14.999Z</time></trkpt><trkpt lat="38.627531548130186" lon="16.311890196425374"><ele>869.0</ele><time>2026-04-27T16:28:15.999Z</time></trkpt><trkpt lat="38.6275024197735" lon="16.311971844707863"><ele>867.0</ele><time>2026-04-27T16:28:16.999Z</time></trkpt><trkpt lat="38.627424734189745" lon="16.312074223397786"><ele>865.0</ele><time>2026-04-27T16:28:18.999Z</time></trkpt><trkpt lat="38.62730455109902" lon="16.312032244502717"><ele>863.0</ele><time>2026-04-27T16:28:20.999Z</time></trkpt><trkpt lat="38.62722980209561" lon="16.31202595597875"><ele>863.0</ele><time>2026-04-27T16:28:21.999Z</time></trkpt><trkpt lat="38.6271213800144" lon="16.311943035134604"><ele>863.0</ele><time>2026-04-27T16:28:23.999Z</time></trkpt><trkpt lat="38.62705136418056" lon="16.311885305539878"><ele>863.0</ele><time>2026-04-27T16:28:24.999Z</time></trkpt><trkpt lat="38.62698118308897" lon="16.311825944393956"><ele>863.0</ele><time>2026-04-27T16:28:25.999Z</time></trkpt><trkpt lat="38.62689764605398" lon="16.3118452752693"><ele>863.0</ele><time>2026-04-27T16:28:26.999Z</time></trkpt><trkpt lat="38.62680692134611" lon="16.31186782530173"><ele>862.0000000000001</ele><time>2026-04-27T16:28:27.999Z</time></trkpt><trkpt lat="38.62671887127827" lon="16.311901693987885"><ele>861.0</ele><time>2026-04-27T16:28:28.999Z</time></trkpt><trkpt lat="38.626651525562956" lon="16.3119629035858"><ele>860.0</ele><time>2026-04-27T16:28:29.999Z</time></trkpt><trkpt lat="38.6265920598392" lon="16.312055238217077"><ele>859.0</ele><time>2026-04-27T16:28:30.999Z</time></trkpt><trkpt lat="38.62654860912856" lon="16.3121483707454"><ele>858.0000000000001</ele><time>2026-04-27T16:28:31.999Z</time></trkpt><trkpt lat="38.62649179799405" lon="16.312242125293302"><ele>857.0</ele><time>2026-04-27T16:28:33.999Z</time></trkpt><trkpt lat="38.62647131008535" lon="16.312358963190785"><ele>857.0000000000001</ele><time>2026-04-27T16:28:36.999Z</time></trkpt><trkpt lat="38.62645446469909" lon="16.31245029900473"><ele>857.0</ele><time>2026-04-27T16:28:38.999Z</time></trkpt><trkpt lat="38.626434105978774" lon="16.312548268255192"><ele>857.0</ele><time>2026-04-27T16:28:40.999Z</time></trkpt><trkpt lat="38.62642053859898" lon="16.312665208344562"><ele>857.0</ele><time>2026-04-27T16:28:43Z</time></trkpt><trkpt lat="38.626413804441576" lon="16.312786919925934"><ele>857.0000000000001</ele><time>2026-04-27T16:28:45Z</time></trkpt><trkpt lat="38.62637738994707" lon="16.312890039669632"><ele>857.0</ele><time>2026-04-27T16:28:47Z</time></trkpt><trkpt lat="38.62631957940704" lon="16.312954409955488"><ele>857.0</ele><time>2026-04-27T16:28:49Z</time></trkpt><trkpt lat="38.62620853679382" lon="16.313002222017765"><ele>857.0</ele><time>2026-04-27T16:28:51Z</time></trkpt><trkpt lat="38.62609462162057" lon="16.313073104648094"><ele>857.0</ele><time>2026-04-27T16:28:53Z</time></trkpt><trkpt lat="38.62600904798346" lon="16.3130094318036"><ele>857.0</ele><time>2026-04-27T16:28:54Z</time></trkpt><trkpt lat="38.62591720559233" lon="16.313043222543996"><ele>857.0</ele><time>2026-04-27T16:28:56Z</time></trkpt><trkpt lat="38.62582894990029" lon="16.313066222780144"><ele>855.2</ele><time>2026-04-27T16:28:58Z</time></trkpt><trkpt lat="38.62573928819153" lon="16.31305643264162"><ele>853.4000000000001</ele><time>2026-04-27T16:29:00Z</time></trkpt><trkpt lat="38.62566570464797" lon="16.31306795712679"><ele>851.5999999999999</ele><time>2026-04-27T16:29:02Z</time></trkpt><trkpt lat="38.62558967606532" lon="16.313079864382356"><ele>849.8</ele><time>2026-04-27T16:29:04Z</time></trkpt><trkpt lat="38.6254049700763" lon="16.313072720458738"><ele>848.0</ele><time>2026-04-27T16:29:08Z</time></trkpt><trkpt lat="38.62533748154949" lon="16.313066550291122"><ele>844.0</ele><time>2026-04-27T16:29:09Z</time></trkpt><trkpt lat="38.62526620454719" lon="16.31306003374795"><ele>840.0</ele><time>2026-04-27T16:29:10Z</time></trkpt><trkpt lat="38.62518351299041" lon="16.31311187074534"><ele>836.0</ele><time>2026-04-27T16:29:12Z</time></trkpt><trkpt lat="38.625083117635334" lon="16.3130619379331"><ele>832.0</ele><time>2026-04-27T16:29:14Z</time></trkpt><trkpt lat="38.624981124839806" lon="16.312998307264024"><ele>828.0</ele><time>2026-04-27T16:29:16Z</time></trkpt><trkpt lat="38.62487020625135" lon="16.312968255500223"><ele>828.0</ele><time>2026-04-27T16:29:18Z</time></trkpt><trkpt lat="38.62480655012426" lon="16.312964921930735"><ele>828.0</ele><time>2026-04-27T16:29:19Z</time></trkpt><trkpt lat="38.62469507667827" lon="16.312945719035607"><ele>828.0</ele><time>2026-04-27T16:29:21Z</time></trkpt><trkpt lat="38.62461592681313" lon="16.31288649330996"><ele>828.0</ele><time>2026-04-27T16:29:23Z</time></trkpt><trkpt lat="38.6245110924553" lon="16.312844178526078"><ele>828.0</ele><time>2026-04-27T16:29:25Z</time></trkpt><trkpt lat="38.62442186887701" lon="16.312756138959553"><ele>826.1666666666666</ele><time>2026-04-27T16:29:26Z</time></trkpt><trkpt lat="38.624337544013265" lon="16.312685887517546"><ele>824.3333333333333</ele><time>2026-04-27T16:29:27Z</time></trkpt><trkpt lat="38.62427626772427" lon="16.312640176684223"><ele>822.5</ele><time>2026-04-27T16:29:28Z</time></trkpt><trkpt lat="38.6242131386563" lon="16.31261567927539"><ele>820.6666666666666</ele><time>2026-04-27T16:29:29Z</time></trkpt><trkpt lat="38.62411075811606" lon="16.31265482627199"><ele>818.8333333333333</ele><time>2026-04-27T16:29:30Z</time></trkpt><trkpt lat="38.62403409508639" lon="16.312714941924614"><ele>817.0</ele><time>2026-04-27T16:29:31Z</time></trkpt><trkpt lat="38.62397577769895" lon="16.312792087695804"><ele>817.0</ele><time>2026-04-27T16:29:32Z</time></trkpt><trkpt lat="38.623914395430695" lon="16.31286978125781"><ele>817.0</ele><time>2026-04-27T16:29:33Z</time></trkpt><trkpt lat="38.62383120373739" lon="16.312975587219686"><ele>817.0</ele><time>2026-04-27T16:29:34Z</time></trkpt><trkpt lat="38.623750950131836" lon="16.313080937812188"><ele>817.0</ele><time>2026-04-27T16:29:35Z</time></trkpt><trkpt lat="38.6236744790914" lon="16.313189702043672"><ele>817.0</ele><time>2026-04-27T16:29:36Z</time></trkpt><trkpt lat="38.62361083067013" lon="16.31331852668055"><ele>814.25</ele><time>2026-04-27T16:29:37Z</time></trkpt><trkpt lat="38.623529907690845" lon="16.313441159121396"><ele>811.5</ele><time>2026-04-27T16:29:37.999Z</time></trkpt><trkpt lat="38.62345006233579" lon="16.31356424173975"><ele>808.75</ele><time>2026-04-27T16:29:38.999Z</time></trkpt><trkpt lat="38.62335958617279" lon="16.313698846367778"><ele>806.0</ele><time>2026-04-27T16:29:39.999Z</time></trkpt><trkpt lat="38.62328973794697" lon="16.313825236798518"><ele>806.75</ele><time>2026-04-27T16:29:40.999Z</time></trkpt><trkpt lat="38.623241024734384" lon="16.31397668839422"><ele>807.5</ele><time>2026-04-27T16:29:41.999Z</time></trkpt><trkpt lat="38.62317080951416" lon="16.31408490617786"><ele>808.25</ele><time>2026-04-27T16:29:42.999Z</time></trkpt><trkpt lat="38.623099274314534" lon="16.314182010117307"><ele>809.0</ele><time>2026-04-27T16:29:43.999Z</time></trkpt><trkpt lat="38.623025671136666" lon="16.314290969135246"><ele>809.0</ele><time>2026-04-27T16:29:44.999Z</time></trkpt><trkpt lat="38.622890775495385" lon="16.3143733918785"><ele>809.0</ele><time>2026-04-27T16:29:45.999Z</time></trkpt><trkpt lat="38.62280588554357" lon="16.314514974916463"><ele>809.0</ele><time>2026-04-27T16:29:46.999Z</time></trkpt><trkpt lat="38.622732268411085" lon="16.314631398085208"><ele>809.0</ele><time>2026-04-27T16:29:47.999Z</time></trkpt><trkpt lat="38.62267237638624" lon="16.314706575003505"><ele>808.1666666666667</ele><time>2026-04-27T16:29:48.999Z</time></trkpt><trkpt lat="38.62260180696221" lon="16.314779967886448"><ele>807.3333333333334</ele><time>2026-04-27T16:29:49.999Z</time></trkpt><trkpt lat="38.62253023194339" lon="16.314860238602186"><ele>806.5</ele><time>2026-04-27T16:29:50.999Z</time></trkpt><trkpt lat="38.622463616945616" lon="16.314916034150603"><ele>805.6666666666667</ele><time>2026-04-27T16:29:52.999Z</time></trkpt><trkpt lat="38.62236289521032" lon="16.3148890497938"><ele>804.8333333333334</ele><time>2026-04-27T16:29:55.999Z</time></trkpt><trkpt lat="38.622322930753555" lon="16.314806170502777"><ele>804.0</ele><time>2026-04-27T16:29:56.999Z</time></trkpt><trkpt lat="38.62227133827964" lon="16.31470741040747"><ele>804.0</ele><time>2026-04-27T16:29:57.999Z</time></trkpt><trkpt lat="38.62220245715966" lon="16.314621866741344"><ele>804.0</ele><time>2026-04-27T16:29:58.999Z</time></trkpt><trkpt lat="38.622119768777985" lon="16.314574474205937"><ele>804.0</ele><time>2026-04-27T16:29:59.999Z</time></trkpt><trkpt lat="38.62203255618171" lon="16.31454596435025"><ele>804.0</ele><time>2026-04-27T16:30:00.999Z</time></trkpt><trkpt lat="38.62193689919935" lon="16.314498878187734"><ele>804.0</ele><time>2026-04-27T16:30:01.999Z</time></trkpt><trkpt lat="38.621834418652405" lon="16.314510844361234"><ele>801.75</ele><time>2026-04-27T16:30:02.999Z</time></trkpt><trkpt lat="38.621713661987144" lon="16.314496991662093"><ele>799.5</ele><time>2026-04-27T16:30:03.999Z</time></trkpt><trkpt lat="38.62159927533954" lon="16.314485558875614"><ele>797.25</ele><time>2026-04-27T16:30:04.999Z</time></trkpt><trkpt lat="38.62150481154265" lon="16.314466105919905"><ele>795.0</ele><time>2026-04-27T16:30:05.999Z</time></trkpt><trkpt lat="38.62138511104114" lon="16.314410381293786"><ele>795.0</ele><time>2026-04-27T16:30:06.999Z</time></trkpt><trkpt lat="38.62125512478128" lon="16.31437695377748"><ele>795.0</ele><time>2026-04-27T16:30:07.999Z</time></trkpt><trkpt lat="38.62116975240908" lon="16.3143752257482"><ele>795.0</ele><time>2026-04-27T16:30:08.999Z</time></trkpt><trkpt lat="38.62109378130988" lon="16.314409243142983"><ele>795.0</ele><time>2026-04-27T16:30:09.999Z</time></trkpt><trkpt lat="38.6210184493035" lon="16.31448800496075"><ele>795.0</ele><time>2026-04-27T16:30:10.999Z</time></trkpt><trkpt lat="38.62092656585653" lon="16.314526943746188"><ele>795.6</ele><time>2026-04-27T16:30:11.999Z</time></trkpt><trkpt lat="38.620821587075476" lon="16.31456502599206"><ele>796.2</ele><time>2026-04-27T16:30:12.999Z</time></trkpt><trkpt lat="38.62071910303755" lon="16.314590075479888"><ele>796.8</ele><time>2026-04-27T16:30:13.999Z</time></trkpt><trkpt lat="38.62064432394772" lon="16.31463770757074"><ele>797.4</ele><time>2026-04-27T16:30:14.999Z</time></trkpt><trkpt lat="38.62058610704077" lon="16.314724678676853"><ele>798.0</ele><time>2026-04-27T16:30:15.999Z</time></trkpt><trkpt lat="38.62052418163082" lon="16.314845961644465"><ele>798.0</ele><time>2026-04-27T16:30:16.999Z</time></trkpt><trkpt lat="38.62046258728459" lon="16.314973309603428"><ele>798.0</ele><time>2026-04-27T16:30:17.999Z</time></trkpt><trkpt lat="38.620403541975854" lon="16.31507576721006"><ele>798.0</ele><time>2026-04-27T16:30:18.999Z</time></trkpt><trkpt lat="38.62033244254993" lon="16.315139717267385"><ele>798.0</ele><time>2026-04-27T16:30:19.999Z</time></trkpt><trkpt lat="38.62023773509109" lon="16.315199671990587"><ele>798.0</ele><time>2026-04-27T16:30:20.999Z</time></trkpt><trkpt lat="38.62012578830261" lon="16.315270486280575"><ele>797.0</ele><time>2026-04-27T16:30:21.999Z</time></trkpt><trkpt lat="38.620020048139374" lon="16.31533330984969"><ele>796.0</ele><time>2026-04-27T16:30:22.999Z</time></trkpt><trkpt lat="38.619917791080454" lon="16.315380917223873"><ele>795.0</ele><time>2026-04-27T16:30:23.999Z</time></trkpt><trkpt lat="38.61980978154562" lon="16.3154211244747"><ele>794.0</ele><time>2026-04-27T16:30:24.999Z</time></trkpt><trkpt lat="38.619681572463236" lon="16.31545306254536"><ele>794.0</ele><time>2026-04-27T16:30:25.999Z</time></trkpt><trkpt lat="38.61955872363735" lon="16.315477113652282"><ele>794.0</ele><time>2026-04-27T16:30:26.999Z</time></trkpt><trkpt lat="38.61943228602817" lon="16.315502099688988"><ele>794.0</ele><time>2026-04-27T16:30:27.999Z</time></trkpt><trkpt lat="38.61933483247619" lon="16.315515633368978"><ele>794.0</ele><time>2026-04-27T16:30:28.999Z</time></trkpt><trkpt lat="38.619263518074504" lon="16.31550723012232"><ele>794.0</ele><time>2026-04-27T16:30:29.999Z</time></trkpt><trkpt lat="38.61920613513213" lon="16.315470094550133"><ele>795.0000000000001</ele><time>2026-04-27T16:30:30.999Z</time></trkpt><trkpt lat="38.61913578199213" lon="16.31541977117967"><ele>796.0</ele><time>2026-04-27T16:30:31.999Z</time></trkpt><trkpt lat="38.61907196163575" lon="16.315373308578017"><ele>797.0</ele><time>2026-04-27T16:30:32.999Z</time></trkpt><trkpt lat="38.61901004080485" lon="16.315345972104424"><ele>798.0</ele><time>2026-04-27T16:30:33.999Z</time></trkpt><trkpt lat="38.61893669167071" lon="16.31533864888901"><ele>799.0000000000001</ele><time>2026-04-27T16:30:34.999Z</time></trkpt><trkpt lat="38.61884652503117" lon="16.315344839671795"><ele>800.0</ele><time>2026-04-27T16:30:35.999Z</time></trkpt><trkpt lat="38.61875583478134" lon="16.31535391459685"><ele>800.0</ele><time>2026-04-27T16:30:36.999Z</time></trkpt><trkpt lat="38.61867595247639" lon="16.315345333320025"><ele>800.0</ele><time>2026-04-27T16:30:37.999Z</time></trkpt><trkpt lat="38.61861452406822" lon="16.315315685606922"><ele>800.0</ele><time>2026-04-27T16:30:38.999Z</time></trkpt><trkpt lat="38.61850994385219" lon="16.31522843105362"><ele>800.0</ele><time>2026-04-27T16:30:40.999Z</time></trkpt><trkpt lat="38.618379600500646" lon="16.315182533359508"><ele>800.0</ele><time>2026-04-27T16:30:42.999Z</time></trkpt><trkpt lat="38.61829982269465" lon="16.315186090594985"><ele>803.0</ele><time>2026-04-27T16:30:43.999Z</time></trkpt><trkpt lat="38.618226674509586" lon="16.315200679289006"><ele>806.0</ele><time>2026-04-27T16:30:44.999Z</time></trkpt><trkpt lat="38.61814990420066" lon="16.315206345766583"><ele>809.0</ele><time>2026-04-27T16:30:45.999Z</time></trkpt><trkpt lat="38.61804528433844" lon="16.31513580367885"><ele>812.0</ele><time>2026-04-27T16:30:46.999Z</time></trkpt><trkpt lat="38.61793344817769" lon="16.315211962289933"><ele>815.0</ele><time>2026-04-27T16:30:49Z</time></trkpt><trkpt lat="38.61789706553235" lon="16.315312199690364"><ele>815.0</ele><time>2026-04-27T16:30:50Z</time></trkpt><trkpt lat="38.61783913812767" lon="16.315387577193782"><ele>815.0</ele><time>2026-04-27T16:30:51Z</time></trkpt><trkpt lat="38.617780263418624" lon="16.31546909738177"><ele>815.0</ele><time>2026-04-27T16:30:52Z</time></trkpt><trkpt lat="38.61766969356683" lon="16.315404215331085"><ele>815.0</ele><time>2026-04-27T16:30:53Z</time></trkpt><trkpt lat="38.61759382660909" lon="16.315512140882735"><ele>815.0</ele><time>2026-04-27T16:30:54Z</time></trkpt><trkpt lat="38.61749771005244" lon="16.31564302696881"><ele>819.5</ele><time>2026-04-27T16:30:55Z</time></trkpt><trkpt lat="38.6173808919565" lon="16.315732491626694"><ele>824.0</ele><time>2026-04-27T16:30:56Z</time></trkpt><trkpt lat="38.617274483782055" lon="16.31578983106941"><ele>828.5</ele><time>2026-04-27T16:30:57Z</time></trkpt><trkpt lat="38.61717744174978" lon="16.31582226106914"><ele>833.0</ele><time>2026-04-27T16:30:58Z</time></trkpt><trkpt lat="38.61706318861412" lon="16.315859031461354"><ele>836.2</ele><time>2026-04-27T16:30:59Z</time></trkpt><trkpt lat="38.616966558944185" lon="16.315869755477404"><ele>839.4</ele><time>2026-04-27T16:31:00Z</time></trkpt><trkpt lat="38.61687264013942" lon="16.315866549708424"><ele>842.6</ele><time>2026-04-27T16:31:01Z</time></trkpt><trkpt lat="38.61677947932389" lon="16.315852181000515"><ele>845.8000000000001</ele><time>2026-04-27T16:31:02Z</time></trkpt><trkpt lat="38.61667913149707" lon="16.31581148497574"><ele>849.0</ele><time>2026-04-27T16:31:03Z</time></trkpt><trkpt lat="38.6165827949547" lon="16.315772822127904"><ele>849.0</ele><time>2026-04-27T16:31:04Z</time></trkpt><trkpt lat="38.61651641476077" lon="16.315716204334937"><ele>849.0</ele><time>2026-04-27T16:31:05Z</time></trkpt><trkpt lat="38.61645945255913" lon="16.31564760795831"><ele>849.0</ele><time>2026-04-27T16:31:06Z</time></trkpt><trkpt lat="38.61641588305894" lon="16.315577557264074"><ele>849.0</ele><time>2026-04-27T16:31:07Z</time></trkpt><trkpt lat="38.61642170645063" lon="16.31547987109064"><ele>849.0</ele><time>2026-04-27T16:31:08Z</time></trkpt><trkpt lat="38.61641626039199" lon="16.3153873061878"><ele>849.0</ele><time>2026-04-27T16:31:09Z</time></trkpt><trkpt lat="38.61640190055352" lon="16.315272988220485"><ele>847.2</ele><time>2026-04-27T16:31:10Z</time></trkpt><trkpt lat="38.61640811939851" lon="16.315159962857777"><ele>845.4000000000001</ele><time>2026-04-27T16:31:11Z</time></trkpt><trkpt lat="38.616477641341845" lon="16.315013599800828"><ele>843.6</ele><time>2026-04-27T16:31:12Z</time></trkpt><trkpt lat="38.61640163383859" lon="16.314958010592203"><ele>841.8</ele><time>2026-04-27T16:31:13Z</time></trkpt><trkpt lat="38.61628013086362" lon="16.31489515681542"><ele>840.0</ele><time>2026-04-27T16:31:14Z</time></trkpt><trkpt lat="38.616235821769926" lon="16.314694814987423"><ele>840.4</ele><time>2026-04-27T16:31:15Z</time></trkpt><trkpt lat="38.616141682441366" lon="16.314624026783385"><ele>840.8</ele><time>2026-04-27T16:31:16Z</time></trkpt><trkpt lat="38.616040607272666" lon="16.314529902015288"><ele>841.2</ele><time>2026-04-27T16:31:17Z</time></trkpt><trkpt lat="38.61595342725174" lon="16.31444214244448"><ele>841.6</ele><time>2026-04-27T16:31:18Z</time></trkpt><trkpt lat="38.61586365578662" lon="16.314376979462825"><ele>842.0</ele><time>2026-04-27T16:31:19Z</time></trkpt><trkpt lat="38.615771829911836" lon="16.314348655023505"><ele>842.0</ele><time>2026-04-27T16:31:20Z</time></trkpt><trkpt lat="38.615626474710346" lon="16.314318591517488"><ele>842.0</ele><time>2026-04-27T16:31:21Z</time></trkpt><trkpt lat="38.615429176581394" lon="16.314286851550158"><ele>842.0</ele><time>2026-04-27T16:31:22Z</time></trkpt><trkpt lat="38.61525882141368" lon="16.31427195045847"><ele>842.25</ele><time>2026-04-27T16:31:23Z</time></trkpt><trkpt lat="38.61514916884469" lon="16.31425026673374"><ele>842.5</ele><time>2026-04-27T16:31:24Z</time></trkpt><trkpt lat="38.61505637716136" lon="16.314208680281222"><ele>842.75</ele><time>2026-04-27T16:31:25Z</time></trkpt><trkpt lat="38.61492917425901" lon="16.31413942257458"><ele>843.0</ele><time>2026-04-27T16:31:26Z</time></trkpt><trkpt lat="38.61479641623452" lon="16.314092941150623"><ele>843.0</ele><time>2026-04-27T16:31:27Z</time></trkpt><trkpt lat="38.61468323142577" lon="16.31406369170119"><ele>843.0</ele><time>2026-04-27T16:31:28Z</time></trkpt><trkpt lat="38.61456185459302" lon="16.314033579770435"><ele>843.0</ele><time>2026-04-27T16:31:29Z</time></trkpt><trkpt lat="38.61440262353487" lon="16.314116028699527"><ele>843.0</ele><time>2026-04-27T16:31:30Z</time></trkpt><trkpt lat="38.614300795265095" lon="16.314083404200147"><ele>842.8</ele><time>2026-04-27T16:31:31Z</time></trkpt><trkpt lat="38.61422647560675" lon="16.314048393552028"><ele>842.5999999999999</ele><time>2026-04-27T16:31:32Z</time></trkpt><trkpt lat="38.61411544558233" lon="16.31408952018095"><ele>842.4000000000001</ele><time>2026-04-27T16:31:34Z</time></trkpt><trkpt lat="38.614077881293916" lon="16.314167213917543"><ele>842.2</ele><time>2026-04-27T16:31:35Z</time></trkpt><trkpt lat="38.61404561520432" lon="16.314279594851325"><ele>842.0</ele><time>2026-04-27T16:31:36Z</time></trkpt><trkpt lat="38.61401523154441" lon="16.314416768267133"><ele>842.0</ele><time>2026-04-27T16:31:37Z</time></trkpt><trkpt lat="38.613975259244405" lon="16.31457915585878"><ele>842.0</ele><time>2026-04-27T16:31:38Z</time></trkpt><trkpt lat="38.6139471493914" lon="16.31473717041157"><ele>842.0</ele><time>2026-04-27T16:31:39Z</time></trkpt><trkpt lat="38.613943060460315" lon="16.314859708695092"><ele>842.0</ele><time>2026-04-27T16:31:40Z</time></trkpt><trkpt lat="38.61397059525984" lon="16.31498284339876"><ele>841.75</ele><time>2026-04-27T16:31:41Z</time></trkpt><trkpt lat="38.6140290777258" lon="16.315103158681342"><ele>841.5</ele><time>2026-04-27T16:31:41.999Z</time></trkpt><trkpt lat="38.61412229507535" lon="16.315217744545016"><ele>841.25</ele><time>2026-04-27T16:31:42.999Z</time></trkpt><trkpt lat="38.61423243372323" lon="16.31530681368071"><ele>841.0</ele><time>2026-04-27T16:31:43.999Z</time></trkpt><trkpt lat="38.614361681371825" lon="16.315406565445766"><ele>841.0</ele><time>2026-04-27T16:31:44.999Z</time></trkpt><trkpt lat="38.61446423400522" lon="16.315516128834062"><ele>841.0</ele><time>2026-04-27T16:31:45.999Z</time></trkpt><trkpt lat="38.6145396172954" lon="16.31563680469085"><ele>841.0</ele><time>2026-04-27T16:31:46.999Z</time></trkpt><trkpt lat="38.614582645761104" lon="16.315751093104343"><ele>841.0</ele><time>2026-04-27T16:31:47.999Z</time></trkpt><trkpt lat="38.61462244043307" lon="16.315896750085525"><ele>843.25</ele><time>2026-04-27T16:31:48.999Z</time></trkpt><trkpt lat="38.614666205695364" lon="16.316062897915245"><ele>845.5</ele><time>2026-04-27T16:31:49.999Z</time></trkpt><trkpt lat="38.61469842314344" lon="16.31622818469753"><ele>847.75</ele><time>2026-04-27T16:31:50.999Z</time></trkpt><trkpt lat="38.61470972588058" lon="16.316372671901618"><ele>850.0</ele><time>2026-04-27T16:31:51.999Z</time></trkpt><trkpt lat="38.614702458773266" lon="16.316501958649337"><ele>850.0</ele><time>2026-04-27T16:31:52.999Z</time></trkpt><trkpt lat="38.61468458799095" lon="16.31664151563528"><ele>850.0</ele><time>2026-04-27T16:31:53.999Z</time></trkpt><trkpt lat="38.61466213529834" lon="16.31679235631737"><ele>850.0</ele><time>2026-04-27T16:31:54.999Z</time></trkpt><trkpt lat="38.614642762309515" lon="16.31691470350975"><ele>850.0</ele><time>2026-04-27T16:31:55.999Z</time></trkpt><trkpt lat="38.614622801531205" lon="16.31700858263869"><ele>850.0</ele><time>2026-04-27T16:31:56.999Z</time></trkpt><trkpt lat="38.61460519112583" lon="16.317094651343385"><ele>850.0</ele><time>2026-04-27T16:31:57.999Z</time></trkpt><trkpt lat="38.61458286419912" lon="16.3172100050547"><ele>850.0</ele><time>2026-04-27T16:31:58.999Z</time></trkpt><trkpt lat="38.614560604439845" lon="16.317346617939062"><ele>850.0</ele><time>2026-04-27T16:31:59.999Z</time></trkpt><trkpt lat="38.61454970138164" lon="16.31748266183741"><ele>850.0</ele><time>2026-04-27T16:32:00.999Z</time></trkpt><trkpt lat="38.614563051043206" lon="16.317616388100436"><ele>850.0</ele><time>2026-04-27T16:32:01.999Z</time></trkpt><trkpt lat="38.614564001081575" lon="16.317740335000497"><ele>850.25</ele><time>2026-04-27T16:32:02.999Z</time></trkpt><trkpt lat="38.61458065063795" lon="16.317878402194815"><ele>850.5</ele><time>2026-04-27T16:32:03.999Z</time></trkpt><trkpt lat="38.61461880046642" lon="16.318041549977597"><ele>850.75</ele><time>2026-04-27T16:32:04.999Z</time></trkpt><trkpt lat="38.61465065882479" lon="16.318190400374807"><ele>851.0</ele><time>2026-04-27T16:32:05.999Z</time></trkpt><trkpt lat="38.61464702429502" lon="16.318347102217984"><ele>849.8</ele><time>2026-04-27T16:32:06.999Z</time></trkpt><trkpt lat="38.614653161810054" lon="16.318513520351164"><ele>848.5999999999999</ele><time>2026-04-27T16:32:07.999Z</time></trkpt><trkpt lat="38.6146826921253" lon="16.318658271094915"><ele>847.4</ele><time>2026-04-27T16:32:08.999Z</time></trkpt><trkpt lat="38.61469630516387" lon="16.318761242967824"><ele>846.2</ele><time>2026-04-27T16:32:09.999Z</time></trkpt><trkpt lat="38.61473620644037" lon="16.3188733742769"><ele>845.0</ele><time>2026-04-27T16:32:10.999Z</time></trkpt><trkpt lat="38.61480864115064" lon="16.31901262139347"><ele>843.75</ele><time>2026-04-27T16:32:11.999Z</time></trkpt><trkpt lat="38.614894059707645" lon="16.319161693100593"><ele>842.5</ele><time>2026-04-27T16:32:12.999Z</time></trkpt><trkpt lat="38.61498005338509" lon="16.319308493181598"><ele>841.25</ele><time>2026-04-27T16:32:13.999Z</time></trkpt><trkpt lat="38.61506491323547" lon="16.319449684054714"><ele>840.0</ele><time>2026-04-27T16:32:14.999Z</time></trkpt><trkpt lat="38.615143834483526" lon="16.3195857590075"><ele>840.0</ele><time>2026-04-27T16:32:15.999Z</time></trkpt><trkpt lat="38.615217967837864" lon="16.319730018868608"><ele>840.0</ele><time>2026-04-27T16:32:16.999Z</time></trkpt><trkpt lat="38.61530015105211" lon="16.31988438368634"><ele>840.0</ele><time>2026-04-27T16:32:17.999Z</time></trkpt><trkpt lat="38.61538459306963" lon="16.320031124171628"><ele>840.0</ele><time>2026-04-27T16:32:18.999Z</time></trkpt><trkpt lat="38.615468709000254" lon="16.320168926856443"><ele>836.4</ele><time>2026-04-27T16:32:19.999Z</time></trkpt><trkpt lat="38.6155511494116" lon="16.320298899225705"><ele>832.8</ele><time>2026-04-27T16:32:20.999Z</time></trkpt><trkpt lat="38.61562252394172" lon="16.320408608219342"><ele>829.2</ele><time>2026-04-27T16:32:21.999Z</time></trkpt><trkpt lat="38.61567551829071" lon="16.320496140724742"><ele>825.6</ele><time>2026-04-27T16:32:22.999Z</time></trkpt><trkpt lat="38.61571887188133" lon="16.32057534020206"><ele>822.0</ele><time>2026-04-27T16:32:23.999Z</time></trkpt><trkpt lat="38.61576816857891" lon="16.320676320811256"><ele>821.3333333333334</ele><time>2026-04-27T16:32:24.999Z</time></trkpt><trkpt lat="38.6158249778354" lon="16.320786301359604"><ele>820.6666666666667</ele><time>2026-04-27T16:32:25.999Z</time></trkpt><trkpt lat="38.61587054745001" lon="16.320889005261918"><ele>820.0</ele><time>2026-04-27T16:32:26.999Z</time></trkpt><trkpt lat="38.615907368321004" lon="16.32098261835716"><ele>819.3333333333334</ele><time>2026-04-27T16:32:27.999Z</time></trkpt><trkpt lat="38.615947198361106" lon="16.321071287910613"><ele>818.6666666666667</ele><time>2026-04-27T16:32:28.999Z</time></trkpt><trkpt lat="38.61596036293927" lon="16.321153954528004"><ele>818.0</ele><time>2026-04-27T16:32:29.999Z</time></trkpt><trkpt lat="38.61599351530095" lon="16.321278102221502"><ele>818.0</ele><time>2026-04-27T16:32:31.999Z</time></trkpt><trkpt lat="38.61598297514974" lon="16.321397503225793"><ele>818.0</ele><time>2026-04-27T16:32:33.999Z</time></trkpt><trkpt lat="38.61584663078753" lon="16.32139141466282"><ele>818.0</ele><time>2026-04-27T16:32:35.999Z</time></trkpt><trkpt lat="38.61577435744409" lon="16.32141465846428"><ele>818.0</ele><time>2026-04-27T16:32:36.999Z</time></trkpt><trkpt lat="38.61567625990944" lon="16.321451755488198"><ele>818.0</ele><time>2026-04-27T16:32:37.999Z</time></trkpt><trkpt lat="38.61557721973088" lon="16.32150807362289"><ele>818.2</ele><time>2026-04-27T16:32:38.999Z</time></trkpt><trkpt lat="38.61549470376217" lon="16.32163322207384"><ele>818.4</ele><time>2026-04-27T16:32:39.999Z</time></trkpt><trkpt lat="38.61544029477335" lon="16.321725341520278"><ele>818.6</ele><time>2026-04-27T16:32:40.999Z</time></trkpt><trkpt lat="38.61538104175567" lon="16.321823136360514"><ele>818.8000000000001</ele><time>2026-04-27T16:32:41.999Z</time></trkpt><trkpt lat="38.615312500355664" lon="16.32193923378463"><ele>819.0</ele><time>2026-04-27T16:32:42.999Z</time></trkpt><trkpt lat="38.615238422554256" lon="16.32205780756044"><ele>819.0</ele><time>2026-04-27T16:32:43.999Z</time></trkpt><trkpt lat="38.615192623798364" lon="16.32218890482586"><ele>819.0</ele><time>2026-04-27T16:32:44.999Z</time></trkpt><trkpt lat="38.61512164013516" lon="16.322274231485714"><ele>819.0</ele><time>2026-04-27T16:32:45.999Z</time></trkpt><trkpt lat="38.61504520231209" lon="16.322338478802404"><ele>819.0</ele><time>2026-04-27T16:32:46.999Z</time></trkpt><trkpt lat="38.61496317294658" lon="16.32238756877704"><ele>819.0</ele><time>2026-04-27T16:32:47.999Z</time></trkpt><trkpt lat="38.61489214810677" lon="16.32240325841048"><ele>816.2</ele><time>2026-04-27T16:32:48.999Z</time></trkpt><trkpt lat="38.614810053464154" lon="16.322407312866172"><ele>813.4000000000001</ele><time>2026-04-27T16:32:49.999Z</time></trkpt><trkpt lat="38.614699062399914" lon="16.322368860539097"><ele>810.6</ele><time>2026-04-27T16:32:50.999Z</time></trkpt><trkpt lat="38.61457362429909" lon="16.322315360008407"><ele>807.8</ele><time>2026-04-27T16:32:51.999Z</time></trkpt><trkpt lat="38.61447335745711" lon="16.322285311881362"><ele>805.0</ele><time>2026-04-27T16:32:52.999Z</time></trkpt><trkpt lat="38.6143838542095" lon="16.32224537353736"><ele>805.8</ele><time>2026-04-27T16:32:54Z</time></trkpt><trkpt lat="38.61427713462162" lon="16.322197218096118"><ele>806.6</ele><time>2026-04-27T16:32:55Z</time></trkpt><trkpt lat="38.614167189863835" lon="16.32215887078146"><ele>807.4000000000001</ele><time>2026-04-27T16:32:56Z</time></trkpt><trkpt lat="38.61408143647713" lon="16.322138471211996"><ele>808.2</ele><time>2026-04-27T16:32:57Z</time></trkpt><trkpt lat="38.61400244068319" lon="16.32213868217125"><ele>809.0</ele><time>2026-04-27T16:32:58Z</time></trkpt><trkpt lat="38.613909652753804" lon="16.322193878895575"><ele>806.5</ele><time>2026-04-27T16:32:59Z</time></trkpt><trkpt lat="38.61381360341787" lon="16.322279269185586"><ele>804.0</ele><time>2026-04-27T16:33:00Z</time></trkpt><trkpt lat="38.61371484027833" lon="16.32238623833344"><ele>801.5</ele><time>2026-04-27T16:33:01Z</time></trkpt><trkpt lat="38.61361203537024" lon="16.322473412730197"><ele>799.0</ele><time>2026-04-27T16:33:02Z</time></trkpt><trkpt lat="38.613506627778605" lon="16.32254889837296"><ele>799.0</ele><time>2026-04-27T16:33:03Z</time></trkpt><trkpt lat="38.6134110854287" lon="16.32262225250195"><ele>799.0</ele><time>2026-04-27T16:33:04Z</time></trkpt><trkpt lat="38.61332533195186" lon="16.32268938164617"><ele>799.0</ele><time>2026-04-27T16:33:05Z</time></trkpt><trkpt lat="38.61323827965361" lon="16.322776178163934"><ele>799.0</ele><time>2026-04-27T16:33:06Z</time></trkpt><trkpt lat="38.613150311051335" lon="16.32288490877438"><ele>799.0</ele><time>2026-04-27T16:33:07Z</time></trkpt><trkpt lat="38.613072495172524" lon="16.322992207779844"><ele>799.6</ele><time>2026-04-27T16:33:08Z</time></trkpt><trkpt lat="38.61299526780452" lon="16.323088515026168"><ele>800.2</ele><time>2026-04-27T16:33:09Z</time></trkpt><trkpt lat="38.61291650517071" lon="16.323165509238812"><ele>800.8000000000001</ele><time>2026-04-27T16:33:10Z</time></trkpt><trkpt lat="38.61282903164589" lon="16.323238258132033"><ele>801.4000000000001</ele><time>2026-04-27T16:33:11Z</time></trkpt><trkpt lat="38.61274642960148" lon="16.323317539696674"><ele>802.0</ele><time>2026-04-27T16:33:12Z</time></trkpt><trkpt lat="38.61266625778397" lon="16.32341535092789"><ele>802.0</ele><time>2026-04-27T16:33:13Z</time></trkpt><trkpt lat="38.61258080810653" lon="16.32352562316428"><ele>802.0</ele><time>2026-04-27T16:33:14Z</time></trkpt><trkpt lat="38.612510990679226" lon="16.32363806605699"><ele>802.0</ele><time>2026-04-27T16:33:15Z</time></trkpt><trkpt lat="38.61244719781675" lon="16.32374659234836"><ele>802.0</ele><time>2026-04-27T16:33:16Z</time></trkpt><trkpt lat="38.612385353871815" lon="16.323852968115073"><ele>802.0</ele><time>2026-04-27T16:33:17Z</time></trkpt><trkpt lat="38.61232141596599" lon="16.32395619385298"><ele>801.0</ele><time>2026-04-27T16:33:18Z</time></trkpt><trkpt lat="38.61225607301377" lon="16.324060161344736"><ele>800.0</ele><time>2026-04-27T16:33:19Z</time></trkpt><trkpt lat="38.6121842344061" lon="16.324158750028868"><ele>799.0</ele><time>2026-04-27T16:33:20Z</time></trkpt><trkpt lat="38.61212128658752" lon="16.324251176129614"><ele>798.0</ele><time>2026-04-27T16:33:21Z</time></trkpt><trkpt lat="38.612078465815074" lon="16.324354533497942"><ele>797.0</ele><time>2026-04-27T16:33:22Z</time></trkpt><trkpt lat="38.612053288238755" lon="16.324503011617903"><ele>797.0</ele><time>2026-04-27T16:33:23Z</time></trkpt><trkpt lat="38.61203309969743" lon="16.32469881667343"><ele>797.0</ele><time>2026-04-27T16:33:24Z</time></trkpt><trkpt lat="38.6120228252244" lon="16.32486351059002"><ele>797.0</ele><time>2026-04-27T16:33:25Z</time></trkpt><trkpt lat="38.611991976783536" lon="16.324985098043307"><ele>797.0</ele><time>2026-04-27T16:33:26Z</time></trkpt><trkpt lat="38.61194611462804" lon="16.325087972747042"><ele>797.6666666666667</ele><time>2026-04-27T16:33:27Z</time></trkpt><trkpt lat="38.61188616701793" lon="16.3251734531669"><ele>798.3333333333334</ele><time>2026-04-27T16:33:28Z</time></trkpt><trkpt lat="38.611840679483905" lon="16.325237383885028"><ele>799.0</ele><time>2026-04-27T16:33:29Z</time></trkpt><trkpt lat="38.61177818497586" lon="16.325328373406307"><ele>799.6666666666667</ele><time>2026-04-27T16:33:31Z</time></trkpt><trkpt lat="38.611717200475795" lon="16.325388726736247"><ele>800.3333333333334</ele><time>2026-04-27T16:33:34Z</time></trkpt><trkpt lat="38.61177725565186" lon="16.32535559583232"><ele>801.0</ele><time>2026-04-27T16:33:43Z</time></trkpt><trkpt lat="38.611872376741054" lon="16.325224848417374"><ele>801.0</ele><time>2026-04-27T16:33:45Z</time></trkpt><trkpt lat="38.61195789537641" lon="16.325084482654113"><ele>801.0</ele><time>2026-04-27T16:33:46Z</time></trkpt><trkpt lat="38.61202202212589" lon="16.324943216299154"><ele>801.0</ele><time>2026-04-27T16:33:47Z</time></trkpt><trkpt lat="38.612058419997794" lon="16.32482034940118"><ele>801.0</ele><time>2026-04-27T16:33:47.999Z</time></trkpt><trkpt lat="38.61207343009405" lon="16.324704316863805"><ele>800.1999999999999</ele><time>2026-04-27T16:33:48.999Z</time></trkpt><trkpt lat="38.61208153774272" lon="16.324572602554635"><ele>799.4</ele><time>2026-04-27T16:33:49.999Z</time></trkpt><trkpt lat="38.612105083369634" lon="16.324440723376377"><ele>798.6</ele><time>2026-04-27T16:33:50.999Z</time></trkpt><trkpt lat="38.612125787894904" lon="16.32433368557025"><ele>797.8</ele><time>2026-04-27T16:33:51.999Z</time></trkpt><trkpt lat="38.61214433498302" lon="16.3242288605871"><ele>797.0</ele><time>2026-04-27T16:33:52.999Z</time></trkpt><trkpt lat="38.6121953798721" lon="16.324145376743022"><ele>797.0000000000001</ele><time>2026-04-27T16:33:53.999Z</time></trkpt><trkpt lat="38.61225180597688" lon="16.3240783243099"><ele>797.0</ele><time>2026-04-27T16:33:54.999Z</time></trkpt><trkpt lat="38.612294860311124" lon="16.3240012908557"><ele>797.0</ele><time>2026-04-27T16:33:55.999Z</time></trkpt><trkpt lat="38.61233664062655" lon="16.323919698616347"><ele>797.0</ele><time>2026-04-27T16:33:56.999Z</time></trkpt><trkpt lat="38.61238087366156" lon="16.323850381396596"><ele>797.0000000000001</ele><time>2026-04-27T16:33:57.999Z</time></trkpt><trkpt lat="38.61243077521609" lon="16.323772181118255"><ele>797.0</ele><time>2026-04-27T16:33:58.999Z</time></trkpt><trkpt lat="38.61248364436868" lon="16.32368933048197"><ele>797.8333333333334</ele><time>2026-04-27T16:33:59.999Z</time></trkpt><trkpt lat="38.612535684190135" lon="16.323607779271335"><ele>798.6666666666667</ele><time>2026-04-27T16:34:00.999Z</time></trkpt><trkpt lat="38.61259167609957" lon="16.323520034876367"><ele>799.5</ele><time>2026-04-27T16:34:01.999Z</time></trkpt><trkpt lat="38.612646075264955" lon="16.323434786506464"><ele>800.3333333333333</ele><time>2026-04-27T16:34:02.999Z</time></trkpt><trkpt lat="38.612695467109894" lon="16.32336404921244"><ele>801.1666666666666</ele><time>2026-04-27T16:34:03.999Z</time></trkpt><trkpt lat="38.612744368511756" lon="16.32330175128596"><ele>802.0</ele><time>2026-04-27T16:34:04.999Z</time></trkpt><trkpt lat="38.61279146650688" lon="16.32323763842216"><ele>802.0</ele><time>2026-04-27T16:34:06.999Z</time></trkpt><trkpt lat="38.61275236924038" lon="16.323144349736026"><ele>802.0</ele><time>2026-04-27T16:34:08.999Z</time></trkpt><trkpt lat="38.61262938291806" lon="16.323080830208934"><ele>802.0</ele><time>2026-04-27T16:34:10.999Z</time></trkpt><trkpt lat="38.612544614698635" lon="16.323047854792804"><ele>802.0</ele><time>2026-04-27T16:34:11.999Z</time></trkpt><trkpt lat="38.61246527339835" lon="16.32301781433768"><ele>802.0</ele><time>2026-04-27T16:34:12.999Z</time></trkpt><trkpt lat="38.612392711270935" lon="16.322997480171168"><ele>801.8571428571429</ele><time>2026-04-27T16:34:13.999Z</time></trkpt><trkpt lat="38.612312069274246" lon="16.322972930168202"><ele>801.7142857142858</ele><time>2026-04-27T16:34:14.999Z</time></trkpt><trkpt lat="38.612238608115305" lon="16.322940911231157"><ele>801.5714285714286</ele><time>2026-04-27T16:34:15.999Z</time></trkpt><trkpt lat="38.61217375951159" lon="16.32290110028334"><ele>801.4285714285714</ele><time>2026-04-27T16:34:16.999Z</time></trkpt><trkpt lat="38.6121128423461" lon="16.322864128300512"><ele>801.2857142857142</ele><time>2026-04-27T16:34:17.999Z</time></trkpt><trkpt lat="38.61204560849015" lon="16.322829296183418"><ele>801.1428571428571</ele><time>2026-04-27T16:34:18.999Z</time></trkpt><trkpt lat="38.61197926600697" lon="16.32280403273275"><ele>801.0</ele><time>2026-04-27T16:34:19.999Z</time></trkpt><trkpt lat="38.611914944499325" lon="16.322768382083392"><ele>802.5714285714286</ele><time>2026-04-27T16:34:20.999Z</time></trkpt><trkpt lat="38.61184447336753" lon="16.322732578783253"><ele>804.1428571428571</ele><time>2026-04-27T16:34:21.999Z</time></trkpt><trkpt lat="38.61176655079177" lon="16.32269605485548"><ele>805.7142857142858</ele><time>2026-04-27T16:34:22.999Z</time></trkpt><trkpt lat="38.61169891327316" lon="16.322662689998722"><ele>807.2857142857142</ele><time>2026-04-27T16:34:23.999Z</time></trkpt><trkpt lat="38.61162113874206" lon="16.3226412703117"><ele>808.8571428571429</ele><time>2026-04-27T16:34:24.999Z</time></trkpt><trkpt lat="38.61155645926613" lon="16.32262158938557"><ele>810.4285714285714</ele><time>2026-04-27T16:34:25.999Z</time></trkpt><trkpt lat="38.61148751275541" lon="16.32259866970888"><ele>812.0</ele><time>2026-04-27T16:34:26.999Z</time></trkpt><trkpt lat="38.611404610192025" lon="16.3225620714959"><ele>812.0</ele><time>2026-04-27T16:34:27.999Z</time></trkpt><trkpt lat="38.611309635399685" lon="16.3225209277387"><ele>812.0</ele><time>2026-04-27T16:34:28.999Z</time></trkpt><trkpt lat="38.611218875267525" lon="16.32248721633285"><ele>812.0</ele><time>2026-04-27T16:34:29.999Z</time></trkpt><trkpt lat="38.61113300805239" lon="16.322474781003752"><ele>812.0</ele><time>2026-04-27T16:34:30.999Z</time></trkpt><trkpt lat="38.61104561228011" lon="16.322475770702173"><ele>812.0</ele><time>2026-04-27T16:34:31.999Z</time></trkpt><trkpt lat="38.61094728678167" lon="16.322491151680698"><ele>813.3333333333334</ele><time>2026-04-27T16:34:32.999Z</time></trkpt><trkpt lat="38.61084566449366" lon="16.322516159293954"><ele>814.6666666666667</ele><time>2026-04-27T16:34:33.999Z</time></trkpt><trkpt lat="38.6107609813697" lon="16.322526194891555"><ele>816.0</ele><time>2026-04-27T16:34:34.999Z</time></trkpt><trkpt lat="38.61069566111723" lon="16.322528566666563"><ele>817.3333333333333</ele><time>2026-04-27T16:34:35.999Z</time></trkpt><trkpt lat="38.61061306533333" lon="16.32250070410931"><ele>818.6666666666666</ele><time>2026-04-27T16:34:36.999Z</time></trkpt><trkpt lat="38.61051323940462" lon="16.32245949401959"><ele>820.0</ele><time>2026-04-27T16:34:37.999Z</time></trkpt><trkpt lat="38.61042219510695" lon="16.322405745015576"><ele>820.0</ele><time>2026-04-27T16:34:38.999Z</time></trkpt><trkpt lat="38.6103392769482" lon="16.322357844588282"><ele>820.0</ele><time>2026-04-27T16:34:39.999Z</time></trkpt><trkpt lat="38.610245570271935" lon="16.32231889946041"><ele>820.0</ele><time>2026-04-27T16:34:40.999Z</time></trkpt><trkpt lat="38.610152887841416" lon="16.322270956458375"><ele>820.0</ele><time>2026-04-27T16:34:41.999Z</time></trkpt><trkpt lat="38.61006781064142" lon="16.322231307775755"><ele>820.0</ele><time>2026-04-27T16:34:42.999Z</time></trkpt><trkpt lat="38.60999565112923" lon="16.322182625593676"><ele>819.2</ele><time>2026-04-27T16:34:43.999Z</time></trkpt><trkpt lat="38.60991796682779" lon="16.322104512899354"><ele>818.4</ele><time>2026-04-27T16:34:44.999Z</time></trkpt><trkpt lat="38.60985166756952" lon="16.32202197669149"><ele>817.5999999999999</ele><time>2026-04-27T16:34:45.999Z</time></trkpt><trkpt lat="38.609789543953504" lon="16.32193410537017"><ele>816.8</ele><time>2026-04-27T16:34:46.999Z</time></trkpt><trkpt lat="38.60972664669003" lon="16.321834163967182"><ele>816.0</ele><time>2026-04-27T16:34:47.999Z</time></trkpt><trkpt lat="38.60966369930891" lon="16.321747925036842"><ele>816.0</ele><time>2026-04-27T16:34:48.999Z</time></trkpt><trkpt lat="38.609595989336576" lon="16.321682165790353"><ele>816.0</ele><time>2026-04-27T16:34:49.999Z</time></trkpt><trkpt lat="38.60948169021558" lon="16.32164382986649"><ele>816.0</ele><time>2026-04-27T16:34:51.999Z</time></trkpt><trkpt lat="38.609383489533904" lon="16.32162524555177"><ele>816.0</ele><time>2026-04-27T16:34:52.999Z</time></trkpt><trkpt lat="38.609269172522346" lon="16.32159514098905"><ele>816.0</ele><time>2026-04-27T16:34:53.999Z</time></trkpt><trkpt lat="38.60917266088927" lon="16.32158245117836"><ele>814.8333333333334</ele><time>2026-04-27T16:34:54.999Z</time></trkpt><trkpt lat="38.60909605035306" lon="16.32157821793927"><ele>813.6666666666667</ele><time>2026-04-27T16:34:55.999Z</time></trkpt><trkpt lat="38.609024765765774" lon="16.32158688991486"><ele>812.5</ele><time>2026-04-27T16:34:56.999Z</time></trkpt><trkpt lat="38.60895231037111" lon="16.32159088217757"><ele>811.3333333333334</ele><time>2026-04-27T16:34:57.999Z</time></trkpt><trkpt lat="38.60887286255611" lon="16.321603107557333"><ele>810.1666666666667</ele><time>2026-04-27T16:34:58.999Z</time></trkpt><trkpt lat="38.60879030032342" lon="16.321624971536632"><ele>809.0</ele><time>2026-04-27T16:35:00Z</time></trkpt><trkpt lat="38.60870810411551" lon="16.32165095546204"><ele>809.5000000000001</ele><time>2026-04-27T16:35:01Z</time></trkpt><trkpt lat="38.608631953400575" lon="16.321676799740615"><ele>810.0</ele><time>2026-04-27T16:35:02Z</time></trkpt><trkpt lat="38.60855109293018" lon="16.32170387048135"><ele>810.5</ele><time>2026-04-27T16:35:03Z</time></trkpt><trkpt lat="38.60846858830569" lon="16.321742128579455"><ele>811.0</ele><time>2026-04-27T16:35:04Z</time></trkpt><trkpt lat="38.608381602499" lon="16.32178513252684"><ele>811.5000000000001</ele><time>2026-04-27T16:35:05Z</time></trkpt><trkpt lat="38.608285596423784" lon="16.32181996502468"><ele>812.0</ele><time>2026-04-27T16:35:06Z</time></trkpt><trkpt lat="38.60817397590633" lon="16.321828190802282"><ele>812.0</ele><time>2026-04-27T16:35:07Z</time></trkpt><trkpt lat="38.60805402198048" lon="16.32181742102062"><ele>812.0</ele><time>2026-04-27T16:35:08Z</time></trkpt><trkpt lat="38.60793233808223" lon="16.321815208905686"><ele>812.0</ele><time>2026-04-27T16:35:09Z</time></trkpt><trkpt lat="38.6078362368808" lon="16.32179690028116"><ele>812.0</ele><time>2026-04-27T16:35:10Z</time></trkpt><trkpt lat="38.607752325898815" lon="16.32176864028168"><ele>812.0</ele><time>2026-04-27T16:35:11Z</time></trkpt><trkpt lat="38.607666974615576" lon="16.321725884559413"><ele>812.6</ele><time>2026-04-27T16:35:12Z</time></trkpt><trkpt lat="38.60758456065589" lon="16.321672378408156"><ele>813.2</ele><time>2026-04-27T16:35:13Z</time></trkpt><trkpt lat="38.60750116758803" lon="16.321615734674538"><ele>813.8</ele><time>2026-04-27T16:35:14Z</time></trkpt><trkpt lat="38.607413612984864" lon="16.32158240769565"><ele>814.4</ele><time>2026-04-27T16:35:15Z</time></trkpt><trkpt lat="38.607303451654815" lon="16.32161208084198"><ele>815.0</ele><time>2026-04-27T16:35:16Z</time></trkpt><trkpt lat="38.60720478167962" lon="16.32157492616431"><ele>815.0</ele><time>2026-04-27T16:35:17Z</time></trkpt><trkpt lat="38.60709039048718" lon="16.321536052640507"><ele>815.0</ele><time>2026-04-27T16:35:18Z</time></trkpt><trkpt lat="38.606959785535885" lon="16.321477779188754"><ele>815.0</ele><time>2026-04-27T16:35:19Z</time></trkpt><trkpt lat="38.606839400148864" lon="16.32140415905597"><ele>815.0</ele><time>2026-04-27T16:35:20Z</time></trkpt><trkpt lat="38.606751561423884" lon="16.321349396199448"><ele>816.75</ele><time>2026-04-27T16:35:21Z</time></trkpt><trkpt lat="38.606666659187816" lon="16.321296464091546"><ele>818.5</ele><time>2026-04-27T16:35:22Z</time></trkpt><trkpt lat="38.60662363303856" lon="16.321092732845557"><ele>820.25</ele><time>2026-04-27T16:35:23Z</time></trkpt><trkpt lat="38.60650215694529" lon="16.321043337845488"><ele>822.0</ele><time>2026-04-27T16:35:24Z</time></trkpt><trkpt lat="38.606381825570814" lon="16.320990843807408"><ele>822.0</ele><time>2026-04-27T16:35:25Z</time></trkpt><trkpt lat="38.60628820569281" lon="16.320949669005707"><ele>822.0</ele><time>2026-04-27T16:35:26Z</time></trkpt><trkpt lat="38.60619607172002" lon="16.320935934540522"><ele>822.0</ele><time>2026-04-27T16:35:27Z</time></trkpt><trkpt lat="38.606084679178366" lon="16.320932766923132"><ele>822.0</ele><time>2026-04-27T16:35:28Z</time></trkpt><trkpt lat="38.6059497084406" lon="16.32094392208979"><ele>822.0</ele><time>2026-04-27T16:35:29Z</time></trkpt><trkpt lat="38.605802072550055" lon="16.32095076255629"><ele>822.0</ele><time>2026-04-27T16:35:30Z</time></trkpt><trkpt lat="38.60566604781634" lon="16.320943146897587"><ele>822.0</ele><time>2026-04-27T16:35:31Z</time></trkpt><trkpt lat="38.605544274301444" lon="16.320927441311447"><ele>822.0</ele><time>2026-04-27T16:35:32Z</time></trkpt><trkpt lat="38.6054153037208" lon="16.320903984326787"><ele>822.0</ele><time>2026-04-27T16:35:33Z</time></trkpt><trkpt lat="38.60527362705465" lon="16.320863543883526"><ele>820.5</ele><time>2026-04-27T16:35:34Z</time></trkpt><trkpt lat="38.605132212996914" lon="16.32081454240605"><ele>819.0</ele><time>2026-04-27T16:35:35Z</time></trkpt><trkpt lat="38.60500504997259" lon="16.320769673817072"><ele>817.5</ele><time>2026-04-27T16:35:36Z</time></trkpt><trkpt lat="38.604911428877564" lon="16.32073974516146"><ele>816.0</ele><time>2026-04-27T16:35:37Z</time></trkpt><trkpt lat="38.60483026239996" lon="16.32073119800841"><ele>816.0</ele><time>2026-04-27T16:35:38Z</time></trkpt><trkpt lat="38.60473165451291" lon="16.320740154756912"><ele>816.0</ele><time>2026-04-27T16:35:39Z</time></trkpt><trkpt lat="38.60461823543639" lon="16.320782651262924"><ele>816.0</ele><time>2026-04-27T16:35:40Z</time></trkpt><trkpt lat="38.604473966863175" lon="16.320836484657143"><ele>816.0</ele><time>2026-04-27T16:35:41Z</time></trkpt><trkpt lat="38.604325729205705" lon="16.320901477131414"><ele>814.25</ele><time>2026-04-27T16:35:42Z</time></trkpt><trkpt lat="38.60419295841332" lon="16.320975079351822"><ele>812.5</ele><time>2026-04-27T16:35:43Z</time></trkpt><trkpt lat="38.60408117376561" lon="16.321045078038686"><ele>810.75</ele><time>2026-04-27T16:35:44Z</time></trkpt><trkpt lat="38.60398433134485" lon="16.32111074290279"><ele>809.0</ele><time>2026-04-27T16:35:45Z</time></trkpt><trkpt lat="38.603899743642074" lon="16.32117831444984"><ele>809.0000000000001</ele><time>2026-04-27T16:35:46Z</time></trkpt><trkpt lat="38.60382282480967" lon="16.32124055530221"><ele>809.0</ele><time>2026-04-27T16:35:47Z</time></trkpt><trkpt lat="38.603757784019116" lon="16.321295047814452"><ele>809.0</ele><time>2026-04-27T16:35:48Z</time></trkpt><trkpt lat="38.60368182941128" lon="16.321339520822367"><ele>809.0</ele><time>2026-04-27T16:35:49Z</time></trkpt><trkpt lat="38.603595497799375" lon="16.32138200321702"><ele>809.0000000000001</ele><time>2026-04-27T16:35:50Z</time></trkpt><trkpt lat="38.60351381939043" lon="16.321412485183494"><ele>809.0</ele><time>2026-04-27T16:35:51Z</time></trkpt><trkpt lat="38.60343196266894" lon="16.321421830309557"><ele>806.5</ele><time>2026-04-27T16:35:52Z</time></trkpt><trkpt lat="38.60335582042933" lon="16.321426963650513"><ele>804.0</ele><time>2026-04-27T16:35:53Z</time></trkpt><trkpt lat="38.6032044662742" lon="16.321449190022324"><ele>801.5</ele><time>2026-04-27T16:35:55Z</time></trkpt><trkpt lat="38.603093337742806" lon="16.321473650562115"><ele>799.0</ele><time>2026-04-27T16:35:56Z</time></trkpt><trkpt lat="38.60298042819748" lon="16.321489011742052"><ele>798.9999999999999</ele><time>2026-04-27T16:35:56.999Z</time></trkpt><trkpt lat="38.602883270498225" lon="16.32150784894882"><ele>799.0</ele><time>2026-04-27T16:35:57.999Z</time></trkpt><trkpt lat="38.602806103268136" lon="16.321524868559788"><ele>799.0</ele><time>2026-04-27T16:35:58.999Z</time></trkpt><trkpt lat="38.60274386550894" lon="16.32153970537025"><ele>799.0</ele><time>2026-04-27T16:35:59.999Z</time></trkpt><trkpt lat="38.60268489291966" lon="16.32158815125544"><ele>798.9999999999999</ele><time>2026-04-27T16:36:01.999Z</time></trkpt><trkpt lat="38.60269954483333" lon="16.321680603596604"><ele>799.0</ele><time>2026-04-27T16:36:03.999Z</time></trkpt><trkpt lat="38.60272869133558" lon="16.32177969928331"><ele>799.0</ele><time>2026-04-27T16:36:04.999Z</time></trkpt><trkpt lat="38.602769031511436" lon="16.32189914273241"><ele>799.0</ele><time>2026-04-27T16:36:05.999Z</time></trkpt><trkpt lat="38.60281672845212" lon="16.322035022166766"><ele>799.0</ele><time>2026-04-27T16:36:06.999Z</time></trkpt><trkpt lat="38.602879134140956" lon="16.322156144594953"><ele>799.0</ele><time>2026-04-27T16:36:07.999Z</time></trkpt><trkpt lat="38.60290908899064" lon="16.322290272361496"><ele>799.0</ele><time>2026-04-27T16:36:08.999Z</time></trkpt><trkpt lat="38.60295460126481" lon="16.32241863426605"><ele>797.2</ele><time>2026-04-27T16:36:09.999Z</time></trkpt><trkpt lat="38.60302594781244" lon="16.322533540428427"><ele>795.4000000000001</ele><time>2026-04-27T16:36:10.999Z</time></trkpt><trkpt lat="38.60307227969822" lon="16.322655835559253"><ele>793.6</ele><time>2026-04-27T16:36:11.999Z</time></trkpt><trkpt lat="38.60311918290208" lon="16.322775890257528"><ele>791.8</ele><time>2026-04-27T16:36:12.999Z</time></trkpt><trkpt lat="38.6031691726216" lon="16.322889213000682"><ele>790.0</ele><time>2026-04-27T16:36:13.999Z</time></trkpt><trkpt lat="38.60322878559031" lon="16.322991574294406"><ele>788.6</ele><time>2026-04-27T16:36:14.999Z</time></trkpt><trkpt lat="38.603298644005854" lon="16.323082383814196"><ele>787.2</ele><time>2026-04-27T16:36:15.999Z</time></trkpt><trkpt lat="38.60337290678115" lon="16.323161816697848"><ele>785.8</ele><time>2026-04-27T16:36:16.999Z</time></trkpt><trkpt lat="38.60344498397822" lon="16.323243128253374"><ele>784.4</ele><time>2026-04-27T16:36:17.999Z</time></trkpt><trkpt lat="38.6035161650776" lon="16.32332342883649"><ele>783.0</ele><time>2026-04-27T16:36:18.999Z</time></trkpt><trkpt lat="38.60358551864307" lon="16.32340797646724"><ele>783.0</ele><time>2026-04-27T16:36:19.999Z</time></trkpt><trkpt lat="38.60365282949393" lon="16.323494060534806"><ele>783.0</ele><time>2026-04-27T16:36:20.999Z</time></trkpt><trkpt lat="38.603715963727794" lon="16.323582536990003"><ele>783.0</ele><time>2026-04-27T16:36:21.999Z</time></trkpt><trkpt lat="38.6037703537661" lon="16.323684529578603"><ele>783.0</ele><time>2026-04-27T16:36:22.999Z</time></trkpt><trkpt lat="38.60379639457914" lon="16.323809711919793"><ele>783.0</ele><time>2026-04-27T16:36:23.999Z</time></trkpt><trkpt lat="38.60382208073261" lon="16.323939896804525"><ele>783.4</ele><time>2026-04-27T16:36:24.999Z</time></trkpt><trkpt lat="38.60383492389807" lon="16.324082982030884"><ele>783.8</ele><time>2026-04-27T16:36:25.999Z</time></trkpt><trkpt lat="38.60385239678043" lon="16.324226862903735"><ele>784.2</ele><time>2026-04-27T16:36:26.999Z</time></trkpt><trkpt lat="38.603878274882085" lon="16.324367500875283"><ele>784.6</ele><time>2026-04-27T16:36:27.999Z</time></trkpt><trkpt lat="38.60390773836924" lon="16.324499255306147"><ele>785.0</ele><time>2026-04-27T16:36:28.999Z</time></trkpt><trkpt lat="38.603936312625535" lon="16.324615553768318"><ele>785.0000000000001</ele><time>2026-04-27T16:36:29.999Z</time></trkpt><trkpt lat="38.60396178708392" lon="16.324716225015678"><ele>785.0</ele><time>2026-04-27T16:36:30.999Z</time></trkpt><trkpt lat="38.60398592619448" lon="16.324813253155693"><ele>785.0</ele><time>2026-04-27T16:36:31.999Z</time></trkpt><trkpt lat="38.60402613336647" lon="16.324896906394542"><ele>785.0</ele><time>2026-04-27T16:36:32.999Z</time></trkpt><trkpt lat="38.60405239818305" lon="16.324986513107042"><ele>785.0000000000001</ele><time>2026-04-27T16:36:33.999Z</time></trkpt><trkpt lat="38.604075984698525" lon="16.325068348253296"><ele>785.0</ele><time>2026-04-27T16:36:34.999Z</time></trkpt><trkpt lat="38.60411535222703" lon="16.3252114256828"><ele>784.8</ele><time>2026-04-27T16:36:36.999Z</time></trkpt><trkpt lat="38.60413005088729" lon="16.325290348676383"><ele>784.6</ele><time>2026-04-27T16:37:07Z</time></trkpt><trkpt lat="38.60417063134767" lon="16.325434535031082"><ele>784.4000000000001</ele><time>2026-04-27T16:37:09Z</time></trkpt><trkpt lat="38.60419971654828" lon="16.325532767411378"><ele>784.2</ele><time>2026-04-27T16:37:10Z</time></trkpt><trkpt lat="38.60424086943309" lon="16.32565572006059"><ele>784.0</ele><time>2026-04-27T16:37:11Z</time></trkpt><trkpt lat="38.60429477507053" lon="16.325786387785463"><ele>784.0</ele><time>2026-04-27T16:37:12Z</time></trkpt><trkpt lat="38.60436515717457" lon="16.325907884902968"><ele>784.0</ele><time>2026-04-27T16:37:13Z</time></trkpt><trkpt lat="38.604407933811125" lon="16.32604680601879"><ele>784.0</ele><time>2026-04-27T16:37:14Z</time></trkpt><trkpt lat="38.60446194995068" lon="16.326162297149786"><ele>784.0</ele><time>2026-04-27T16:37:15Z</time></trkpt><trkpt lat="38.60452759385091" lon="16.326250289594075"><ele>784.0</ele><time>2026-04-27T16:37:16Z</time></trkpt><trkpt lat="38.60458832396569" lon="16.32631558100616"><ele>784.1666666666666</ele><time>2026-04-27T16:37:17Z</time></trkpt><trkpt lat="38.6046480882366" lon="16.32634363877044"><ele>784.3333333333333</ele><time>2026-04-27T16:37:18Z</time></trkpt><trkpt lat="38.60470871687947" lon="16.326386778381224"><ele>784.5</ele><time>2026-04-27T16:37:19Z</time></trkpt><trkpt lat="38.604778076814966" lon="16.32643257294421"><ele>784.6666666666667</ele><time>2026-04-27T16:37:20Z</time></trkpt><trkpt lat="38.604862250628024" lon="16.3264932070332"><ele>784.8333333333334</ele><time>2026-04-27T16:37:21Z</time></trkpt><trkpt lat="38.60494353532914" lon="16.326576523357424"><ele>785.0</ele><time>2026-04-27T16:37:22Z</time></trkpt><trkpt lat="38.60498390663904" lon="16.326697467126774"><ele>785.0</ele><time>2026-04-27T16:37:23Z</time></trkpt><trkpt lat="38.605000338528285" lon="16.326803903333712"><ele>785.0</ele><time>2026-04-27T16:37:24Z</time></trkpt><trkpt lat="38.60498119344648" lon="16.326903770499236"><ele>785.0</ele><time>2026-04-27T16:37:25Z</time></trkpt><trkpt lat="38.60496720096201" lon="16.32698673406467"><ele>785.0</ele><time>2026-04-27T16:37:26Z</time></trkpt><trkpt lat="38.604805670867535" lon="16.327006681105832"><ele>785.0</ele><time>2026-04-27T16:37:27Z</time></trkpt><trkpt lat="38.60468566514986" lon="16.327048163412282"><ele>785.0</ele><time>2026-04-27T16:37:28Z</time></trkpt><trkpt lat="38.60454054321805" lon="16.327080350474937"><ele>785.0</ele><time>2026-04-27T16:37:29Z</time></trkpt><trkpt lat="38.60438192765916" lon="16.3271140218071"><ele>785.0</ele><time>2026-04-27T16:37:30Z</time></trkpt><trkpt lat="38.604222155325786" lon="16.327147938697067"><ele>784.3333333333334</ele><time>2026-04-27T16:37:31Z</time></trkpt><trkpt lat="38.60405566112054" lon="16.32718328253507"><ele>783.6666666666667</ele><time>2026-04-27T16:37:32Z</time></trkpt><trkpt lat="38.6038840584589" lon="16.32721970806807"><ele>783.0</ele><time>2026-04-27T16:37:33Z</time></trkpt><trkpt lat="38.60371953633227" lon="16.327254413016806"><ele>780.3333333333333</ele><time>2026-04-27T16:37:34Z</time></trkpt><trkpt lat="38.60355521030052" lon="16.32728767208075"><ele>777.6666666666666</ele><time>2026-04-27T16:37:35Z</time></trkpt><trkpt lat="38.60338897379664" lon="16.32731735818761"><ele>775.0</ele><time>2026-04-27T16:37:36Z</time></trkpt><trkpt lat="38.60321571964025" lon="16.327342787933567"><ele>775.0</ele><time>2026-04-27T16:37:37Z</time></trkpt><trkpt lat="38.603029643589096" lon="16.32739993549277"><ele>775.0</ele><time>2026-04-27T16:37:38Z</time></trkpt><trkpt lat="38.60284257335052" lon="16.327391946698754"><ele>775.0</ele><time>2026-04-27T16:37:39Z</time></trkpt><trkpt lat="38.60264905067656" lon="16.327397799030933"><ele>774.0</ele><time>2026-04-27T16:37:40Z</time></trkpt><trkpt lat="38.60246156335659" lon="16.327405211776572"><ele>773.0</ele><time>2026-04-27T16:37:41Z</time></trkpt><trkpt lat="38.602260247659316" lon="16.327416201223826"><ele>772.0</ele><time>2026-04-27T16:37:42Z</time></trkpt><trkpt lat="38.602050511069216" lon="16.32743204005299"><ele>774.3333333333333</ele><time>2026-04-27T16:37:43Z</time></trkpt><trkpt lat="38.60183708155093" lon="16.32745386369504"><ele>776.6666666666667</ele><time>2026-04-27T16:37:44Z</time></trkpt><trkpt lat="38.60161729194651" lon="16.327485234652183"><ele>779.0</ele><time>2026-04-27T16:37:45Z</time></trkpt><trkpt lat="38.601399339673016" lon="16.32752396483391"><ele>779.0</ele><time>2026-04-27T16:37:46Z</time></trkpt><trkpt lat="38.60118369051087" lon="16.327564207412973"><ele>779.0</ele><time>2026-04-27T16:37:47Z</time></trkpt><trkpt lat="38.60096719983984" lon="16.327613542299023"><ele>779.0</ele><time>2026-04-27T16:37:48Z</time></trkpt><trkpt lat="38.600748938865564" lon="16.327676204001413"><ele>778.5</ele><time>2026-04-27T16:37:49Z</time></trkpt><trkpt lat="38.60053356723499" lon="16.32774456272214"><ele>778.0</ele><time>2026-04-27T16:37:50Z</time></trkpt><trkpt lat="38.60030958014744" lon="16.327823106666457"><ele>776.0</ele><time>2026-04-27T16:37:51Z</time></trkpt><trkpt lat="38.60008435879198" lon="16.327909365832937"><ele>774.0</ele><time>2026-04-27T16:37:52Z</time></trkpt><trkpt lat="38.599863151642005" lon="16.328004312226636"><ele>771.5</ele><time>2026-04-27T16:37:53Z</time></trkpt><trkpt lat="38.599631238289966" lon="16.32811391267839"><ele>769.0</ele><time>2026-04-27T16:37:54Z</time></trkpt><trkpt lat="38.59939798344664" lon="16.328234480006714"><ele>775.0</ele><time>2026-04-27T16:37:55Z</time></trkpt><trkpt lat="38.599166362408106" lon="16.3283664324566"><ele>781.0</ele><time>2026-04-27T16:37:56Z</time></trkpt><trkpt lat="38.59893976432055" lon="16.328507071884882"><ele>781.0</ele><time>2026-04-27T16:37:57Z</time></trkpt><trkpt lat="38.59871433718636" lon="16.328650974277235"><ele>781.0</ele><time>2026-04-27T16:37:57.999Z</time></trkpt><trkpt lat="38.59848996769886" lon="16.328799362957387"><ele>791.5</ele><time>2026-04-27T16:37:58.999Z</time></trkpt><trkpt lat="38.598275886963464" lon="16.328943653060175"><ele>802.0</ele><time>2026-04-27T16:37:59.999Z</time></trkpt><trkpt lat="38.59808264791795" lon="16.329074095656683"><ele>802.0</ele><time>2026-04-27T16:38:00.999Z</time></trkpt><trkpt lat="38.59789595640708" lon="16.329200687180165"><ele>802.0</ele><time>2026-04-27T16:38:01.999Z</time></trkpt><trkpt lat="38.59770259373154" lon="16.329331800996165"><ele>802.0</ele><time>2026-04-27T16:38:02.999Z</time></trkpt><trkpt lat="38.59750603089325" lon="16.32946471356042"><ele>802.0</ele><time>2026-04-27T16:38:03.999Z</time></trkpt><trkpt lat="38.59730671292718" lon="16.329597581078634"><ele>802.0</ele><time>2026-04-27T16:38:04.999Z</time></trkpt><trkpt lat="38.59710082584231" lon="16.32973482763795"><ele>801.0</ele><time>2026-04-27T16:38:05.999Z</time></trkpt><trkpt lat="38.596892941305974" lon="16.329873544390612"><ele>800.0</ele><time>2026-04-27T16:38:06.999Z</time></trkpt><trkpt lat="38.5966834330386" lon="16.330013866360275"><ele>800.0</ele><time>2026-04-27T16:38:07.999Z</time></trkpt><trkpt lat="38.59647428335816" lon="16.33015394842815"><ele>800.0</ele><time>2026-04-27T16:38:08.999Z</time></trkpt><trkpt lat="38.596263317452106" lon="16.330292853916337"><ele>800.0</ele><time>2026-04-27T16:38:09.999Z</time></trkpt><trkpt lat="38.596046372954255" lon="16.330426551090895"><ele>800.0</ele><time>2026-04-27T16:38:10.999Z</time></trkpt><trkpt lat="38.59582463276236" lon="16.330553262062036"><ele>798.5</ele><time>2026-04-27T16:38:11.999Z</time></trkpt><trkpt lat="38.595600696801355" lon="16.330676721680472"><ele>797.0</ele><time>2026-04-27T16:38:12.999Z</time></trkpt><trkpt lat="38.5953777643643" lon="16.33079139550382"><ele>799.3333333333334</ele><time>2026-04-27T16:38:13.999Z</time></trkpt><trkpt lat="38.595168867222284" lon="16.330874378627826"><ele>801.6666666666667</ele><time>2026-04-27T16:38:14.999Z</time></trkpt><trkpt lat="38.59496835965924" lon="16.330940933347936"><ele>804.0</ele><time>2026-04-27T16:38:15.999Z</time></trkpt><trkpt lat="38.59477930658122" lon="16.331001422090413"><ele>804.0</ele><time>2026-04-27T16:38:16.999Z</time></trkpt><trkpt lat="38.594602591793276" lon="16.331050544318693"><ele>804.0</ele><time>2026-04-27T16:38:17.999Z</time></trkpt><trkpt lat="38.594428040662635" lon="16.331088724001248"><ele>804.0</ele><time>2026-04-27T16:38:18.999Z</time></trkpt><trkpt lat="38.594245082637194" lon="16.33112526600282"><ele>805.3333333333333</ele><time>2026-04-27T16:38:19.999Z</time></trkpt><trkpt lat="38.59407055274288" lon="16.331222373052572"><ele>806.6666666666666</ele><time>2026-04-27T16:38:20.999Z</time></trkpt><trkpt lat="38.59390128536997" lon="16.331244996144157"><ele>808.0</ele><time>2026-04-27T16:38:21.999Z</time></trkpt><trkpt lat="38.593750895186126" lon="16.33125850619665"><ele>807.0</ele><time>2026-04-27T16:38:22.999Z</time></trkpt><trkpt lat="38.593624612333265" lon="16.33126077673933"><ele>806.0</ele><time>2026-04-27T16:38:23.999Z</time></trkpt><trkpt lat="38.59352926874695" lon="16.33125917379787"><ele>805.0</ele><time>2026-04-27T16:38:24.999Z</time></trkpt><trkpt lat="38.5934488117282" lon="16.331261725334002"><ele>804.0</ele><time>2026-04-27T16:38:25.999Z</time></trkpt><trkpt lat="38.59337553780626" lon="16.331206909999853"><ele>803.0</ele><time>2026-04-27T16:38:26.999Z</time></trkpt><trkpt lat="38.593277451641015" lon="16.331208532350598"><ele>803.0</ele><time>2026-04-27T16:38:28.999Z</time></trkpt><trkpt lat="38.59321177672643" lon="16.331260050784945"><ele>803.0</ele><time>2026-04-27T16:38:30.999Z</time></trkpt><trkpt lat="38.59334802986505" lon="16.33132728609346"><ele>803.0</ele><time>2026-04-27T16:38:35.999Z</time></trkpt><trkpt lat="38.59346705497701" lon="16.331303504100994"><ele>803.0</ele><time>2026-04-27T16:38:37.999Z</time></trkpt><trkpt lat="38.59354288088763" lon="16.331306211164897"><ele>803.0</ele><time>2026-04-27T16:38:38.999Z</time></trkpt><trkpt lat="38.59362911411534" lon="16.331304338269376"><ele>804.0</ele><time>2026-04-27T16:38:39.999Z</time></trkpt><trkpt lat="38.593712919539804" lon="16.33129578833162"><ele>805.0</ele><time>2026-04-27T16:38:40.999Z</time></trkpt><trkpt lat="38.59379567879956" lon="16.33129088009715"><ele>806.0</ele><time>2026-04-27T16:38:41.999Z</time></trkpt><trkpt lat="38.59388124926861" lon="16.33128272411953"><ele>807.0</ele><time>2026-04-27T16:38:42.999Z</time></trkpt><trkpt lat="38.59398744623476" lon="16.3312695576738"><ele>808.0</ele><time>2026-04-27T16:38:43.999Z</time></trkpt><trkpt lat="38.5941048197952" lon="16.331249108019975"><ele>807.9999999999999</ele><time>2026-04-27T16:38:44.999Z</time></trkpt><trkpt lat="38.594201378188025" lon="16.33121781300899"><ele>808.0</ele><time>2026-04-27T16:38:45.999Z</time></trkpt><trkpt lat="38.59426350228915" lon="16.331180785740717"><ele>808.0</ele><time>2026-04-27T16:38:46.999Z</time></trkpt><trkpt lat="38.59428685105759" lon="16.33109352108443"><ele>808.0</ele><time>2026-04-27T16:38:48.999Z</time></trkpt><trkpt lat="38.59423041633139" lon="16.331047846293842"><ele>807.9999999999999</ele><time>2026-04-27T16:38:50.999Z</time></trkpt><trkpt lat="38.594146615089784" lon="16.331060127285998"><ele>808.0</ele><time>2026-04-27T16:38:52.999Z</time></trkpt><trkpt lat="38.5940781446454" lon="16.33106283470605"><ele>808.0</ele><time>2026-04-27T16:38:53.999Z</time></trkpt><trkpt lat="38.59397517348473" lon="16.331074714861156"><ele>808.0</ele><time>2026-04-27T16:38:54.999Z</time></trkpt><trkpt lat="38.593864000883045" lon="16.331085366583853"><ele>808.0</ele><time>2026-04-27T16:38:55.999Z</time></trkpt><trkpt lat="38.593765920546296" lon="16.331080352620365"><ele>808.0</ele><time>2026-04-27T16:38:56.999Z</time></trkpt><trkpt lat="38.593674357883806" lon="16.33106964530322"><ele>808.0</ele><time>2026-04-27T16:38:57.999Z</time></trkpt><trkpt lat="38.593582076493185" lon="16.331065276056492"><ele>807.0</ele><time>2026-04-27T16:38:58.999Z</time></trkpt><trkpt lat="38.5934894829289" lon="16.331060363989465"><ele>806.0</ele><time>2026-04-27T16:38:59.999Z</time></trkpt><trkpt lat="38.593392520771744" lon="16.331050476461982"><ele>805.0</ele><time>2026-04-27T16:39:00.999Z</time></trkpt><trkpt lat="38.5932973816632" lon="16.33103490611147"><ele>804.0</ele><time>2026-04-27T16:39:01.999Z</time></trkpt><trkpt lat="38.59320222323367" lon="16.331025219886975"><ele>803.0</ele><time>2026-04-27T16:39:02.999Z</time></trkpt><trkpt lat="38.59310753243238" lon="16.331019751407165"><ele>803.0000000000001</ele><time>2026-04-27T16:39:03.999Z</time></trkpt><trkpt lat="38.59303197625536" lon="16.3310037210825"><ele>803.0</ele><time>2026-04-27T16:39:04.999Z</time></trkpt><trkpt lat="38.59293228559587" lon="16.330977955518193"><ele>803.0</ele><time>2026-04-27T16:39:06.999Z</time></trkpt><trkpt lat="38.592869531875046" lon="16.330929246888168"><ele>803.0</ele><time>2026-04-27T16:39:08.999Z</time></trkpt><trkpt lat="38.592804547935465" lon="16.33087875541835"><ele>803.0000000000001</ele><time>2026-04-27T16:39:10.999Z</time></trkpt><trkpt lat="38.592708259363796" lon="16.330833551458706"><ele>803.0</ele><time>2026-04-27T16:39:13Z</time></trkpt><trkpt lat="38.59261620083579" lon="16.330812434860373"><ele>802.4</ele><time>2026-04-27T16:39:14Z</time></trkpt><trkpt lat="38.59251706622302" lon="16.330792696336108"><ele>801.8</ele><time>2026-04-27T16:39:15Z</time></trkpt><trkpt lat="38.592412050511705" lon="16.33083270853888"><ele>801.2</ele><time>2026-04-27T16:39:16Z</time></trkpt><trkpt lat="38.59232360547352" lon="16.330906309529528"><ele>800.6</ele><time>2026-04-27T16:39:17Z</time></trkpt><trkpt lat="38.59225496249045" lon="16.331022211545296"><ele>800.0</ele><time>2026-04-27T16:39:18Z</time></trkpt><trkpt lat="38.59221545114834" lon="16.331158402149303"><ele>800.0</ele><time>2026-04-27T16:39:19Z</time></trkpt><trkpt lat="38.59221873172081" lon="16.33130731663506"><ele>800.0</ele><time>2026-04-27T16:39:20Z</time></trkpt><trkpt lat="38.59225641756592" lon="16.331436815359655"><ele>800.0</ele><time>2026-04-27T16:39:21Z</time></trkpt><trkpt lat="38.592310903214866" lon="16.331564803012892"><ele>800.0</ele><time>2026-04-27T16:39:22Z</time></trkpt><trkpt lat="38.592407672518256" lon="16.331650838587827"><ele>799.0</ele><time>2026-04-27T16:39:23Z</time></trkpt><trkpt lat="38.59232023417658" lon="16.332052285434557"><ele>798.0</ele><time>2026-04-27T16:39:25Z</time></trkpt><trkpt lat="38.592237607507684" lon="16.33222155276028"><ele>795.6666666666667</ele><time>2026-04-27T16:39:26Z</time></trkpt><trkpt lat="38.59215138409888" lon="16.332370742003434"><ele>793.3333333333334</ele><time>2026-04-27T16:39:27Z</time></trkpt><trkpt lat="38.59205447587739" lon="16.332530377689114"><ele>791.0</ele><time>2026-04-27T16:39:28Z</time></trkpt><trkpt lat="38.59195768442534" lon="16.332718195199124"><ele>795.6666666666667</ele><time>2026-04-27T16:39:29Z</time></trkpt><trkpt lat="38.591849348167145" lon="16.332897201193056"><ele>800.3333333333333</ele><time>2026-04-27T16:39:30Z</time></trkpt><trkpt lat="38.59172588982786" lon="16.33307165340115"><ele>805.0</ele><time>2026-04-27T16:39:31Z</time></trkpt><trkpt lat="38.59160951485814" lon="16.333256706187917"><ele>805.3333333333333</ele><time>2026-04-27T16:39:32Z</time></trkpt><trkpt lat="38.591492822147934" lon="16.33344459445001"><ele>805.6666666666667</ele><time>2026-04-27T16:39:33Z</time></trkpt><trkpt lat="38.591323364425925" lon="16.333610475815505"><ele>806.0</ele><time>2026-04-27T16:39:34Z</time></trkpt><trkpt lat="38.59114962446682" lon="16.333744916511996"><ele>807.0</ele><time>2026-04-27T16:39:35Z</time></trkpt><trkpt lat="38.59095424323047" lon="16.333858218478646"><ele>808.0</ele><time>2026-04-27T16:39:36Z</time></trkpt><trkpt lat="38.590748590841116" lon="16.33396928198993"><ele>809.0</ele><time>2026-04-27T16:39:37Z</time></trkpt><trkpt lat="38.59056368516034" lon="16.334078781380278"><ele>809.0</ele><time>2026-04-27T16:39:38Z</time></trkpt><trkpt lat="38.590387497631795" lon="16.33422868687939"><ele>809.0</ele><time>2026-04-27T16:39:39Z</time></trkpt><trkpt lat="38.59021535098883" lon="16.334378825146523"><ele>809.0</ele><time>2026-04-27T16:39:40Z</time></trkpt><trkpt lat="38.590065882971885" lon="16.334583104825022"><ele>811.3333333333334</ele><time>2026-04-27T16:39:41Z</time></trkpt><trkpt lat="38.589929397955935" lon="16.334808485730168"><ele>813.6666666666667</ele><time>2026-04-27T16:39:42Z</time></trkpt><trkpt lat="38.58980789994432" lon="16.335051345244562"><ele>816.0</ele><time>2026-04-27T16:39:43Z</time></trkpt><trkpt lat="38.589762466081524" lon="16.33525621540239"><ele>816.0</ele><time>2026-04-27T16:39:44Z</time></trkpt><trkpt lat="38.5896897651181" lon="16.33547832831587"><ele>816.0</ele><time>2026-04-27T16:39:45Z</time></trkpt><trkpt lat="38.589622740745284" lon="16.33568309833989"><ele>816.0</ele><time>2026-04-27T16:39:46Z</time></trkpt><trkpt lat="38.58955878007377" lon="16.335878615433295"><ele>816.5</ele><time>2026-04-27T16:39:47Z</time></trkpt><trkpt lat="38.58949732745998" lon="16.33606653982201"><ele>817.0</ele><time>2026-04-27T16:39:48Z</time></trkpt><trkpt lat="38.58945272225519" lon="16.33623532868874"><ele>817.5</ele><time>2026-04-27T16:39:49Z</time></trkpt><trkpt lat="38.58939581521526" lon="16.336363901233646"><ele>818.0</ele><time>2026-04-27T16:39:50Z</time></trkpt><trkpt lat="38.589346333671855" lon="16.336449129816124"><ele>817.0</ele><time>2026-04-27T16:39:51Z</time></trkpt><trkpt lat="38.589281955386426" lon="16.336507107401534"><ele>816.0</ele><time>2026-04-27T16:39:52Z</time></trkpt><trkpt lat="38.58917905633184" lon="16.33654084144051"><ele>815.0</ele><time>2026-04-27T16:39:53Z</time></trkpt><trkpt lat="38.58907080629988" lon="16.336572392102916"><ele>814.0</ele><time>2026-04-27T16:39:54Z</time></trkpt><trkpt lat="38.58891987585279" lon="16.336428453236785"><ele>814.6666666666666</ele><time>2026-04-27T16:39:55Z</time></trkpt><trkpt lat="38.588764818365526" lon="16.336382004258574"><ele>815.3333333333333</ele><time>2026-04-27T16:39:56Z</time></trkpt><trkpt lat="38.588596148596025" lon="16.336312036863873"><ele>816.0</ele><time>2026-04-27T16:39:57Z</time></trkpt><trkpt lat="38.58843286823826" lon="16.33621076868698"><ele>816.0</ele><time>2026-04-27T16:39:58Z</time></trkpt><trkpt lat="38.58825615962445" lon="16.33611105215453"><ele>816.0</ele><time>2026-04-27T16:39:59Z</time></trkpt><trkpt lat="38.58809894384796" lon="16.336024133667934"><ele>816.0</ele><time>2026-04-27T16:40:00Z</time></trkpt><trkpt lat="38.58795675224205" lon="16.335956172194667"><ele>816.0</ele><time>2026-04-27T16:40:01Z</time></trkpt><trkpt lat="38.58781733501688" lon="16.33592493310476"><ele>816.0</ele><time>2026-04-27T16:40:02Z</time></trkpt><trkpt lat="38.58769701712099" lon="16.335933769186546"><ele>816.0</ele><time>2026-04-27T16:40:03Z</time></trkpt><trkpt lat="38.587589355658" lon="16.336064806252665"><ele>816.0</ele><time>2026-04-27T16:40:04Z</time></trkpt><trkpt lat="38.5874991432407" lon="16.336178364628186"><ele>816.0</ele><time>2026-04-27T16:40:05Z</time></trkpt><trkpt lat="38.58741720910269" lon="16.336324024234184"><ele>816.0</ele><time>2026-04-27T16:40:06Z</time></trkpt><trkpt lat="38.58733735805552" lon="16.336447969664153"><ele>816.0</ele><time>2026-04-27T16:40:07Z</time></trkpt><trkpt lat="38.58723178425409" lon="16.33653500778113"><ele>816.0</ele><time>2026-04-27T16:40:08Z</time></trkpt><trkpt lat="38.58709366629116" lon="16.336564378204205"><ele>813.5</ele><time>2026-04-27T16:40:08.999Z</time></trkpt><trkpt lat="38.586945761946055" lon="16.33659017273263"><ele>811.0</ele><time>2026-04-27T16:40:09.999Z</time></trkpt><trkpt lat="38.58679879872893" lon="16.336584544093913"><ele>808.5</ele><time>2026-04-27T16:40:10.999Z</time></trkpt><trkpt lat="38.58665723734731" lon="16.336547412306157"><ele>806.0</ele><time>2026-04-27T16:40:11.999Z</time></trkpt><trkpt lat="38.5865047331429" lon="16.336488143487056"><ele>806.0</ele><time>2026-04-27T16:40:12.999Z</time></trkpt><trkpt lat="38.58638914902342" lon="16.3364179561732"><ele>806.0</ele><time>2026-04-27T16:40:13.999Z</time></trkpt><trkpt lat="38.58630665214816" lon="16.33632683597842"><ele>806.0</ele><time>2026-04-27T16:40:14.999Z</time></trkpt><trkpt lat="38.58625682401349" lon="16.336228478106708"><ele>806.0</ele><time>2026-04-27T16:40:15.999Z</time></trkpt><trkpt lat="38.58620517759844" lon="16.336064894292896"><ele>805.0</ele><time>2026-04-27T16:40:16.999Z</time></trkpt><trkpt lat="38.586136118175915" lon="16.33588973201295"><ele>804.0</ele><time>2026-04-27T16:40:17.999Z</time></trkpt><trkpt lat="38.58603648980461" lon="16.33573462680603"><ele>803.0</ele><time>2026-04-27T16:40:18.999Z</time></trkpt><trkpt lat="38.58590840299424" lon="16.335621722664143"><ele>803.0</ele><time>2026-04-27T16:40:19.999Z</time></trkpt><trkpt lat="38.58574606211867" lon="16.3355963696007"><ele>803.0</ele><time>2026-04-27T16:40:20.999Z</time></trkpt><trkpt lat="38.5856106069439" lon="16.33559055403442"><ele>803.0</ele><time>2026-04-27T16:40:21.999Z</time></trkpt><trkpt lat="38.58549781753277" lon="16.335622551608083"><ele>803.0</ele><time>2026-04-27T16:40:22.999Z</time></trkpt><trkpt lat="38.58542125201847" lon="16.33572458324917"><ele>803.0</ele><time>2026-04-27T16:40:23.999Z</time></trkpt><trkpt lat="38.585420875127014" lon="16.335890602585092"><ele>803.0</ele><time>2026-04-27T16:40:24.999Z</time></trkpt><trkpt lat="38.58540515173281" lon="16.336043368920983"><ele>803.0</ele><time>2026-04-27T16:40:25.999Z</time></trkpt><trkpt lat="38.58540596908459" lon="16.336211859954222"><ele>803.0</ele><time>2026-04-27T16:40:26.999Z</time></trkpt><trkpt lat="38.58539502491004" lon="16.33637676683575"><ele>803.5</ele><time>2026-04-27T16:40:27.999Z</time></trkpt><trkpt lat="38.58532607337721" lon="16.336522028480427"><ele>804.0</ele><time>2026-04-27T16:40:28.999Z</time></trkpt><trkpt lat="38.58523115696014" lon="16.33663723232374"><ele>804.5</ele><time>2026-04-27T16:40:29.999Z</time></trkpt><trkpt lat="38.58512380825253" lon="16.33671749649213"><ele>805.0</ele><time>2026-04-27T16:40:30.999Z</time></trkpt><trkpt lat="38.585014561987336" lon="16.336758566211085"><ele>804.9999999999999</ele><time>2026-04-27T16:40:31.999Z</time></trkpt><trkpt lat="38.584929263858115" lon="16.336748899053678"><ele>805.0</ele><time>2026-04-27T16:40:32.999Z</time></trkpt><trkpt lat="38.5848602691751" lon="16.336680887015756"><ele>805.0</ele><time>2026-04-27T16:40:33.999Z</time></trkpt><trkpt lat="38.58480748042972" lon="16.336589832059364"><ele>805.0</ele><time>2026-04-27T16:40:34.999Z</time></trkpt><trkpt lat="38.5847637217179" lon="16.336481153840353"><ele>804.9999999999999</ele><time>2026-04-27T16:40:35.999Z</time></trkpt><trkpt lat="38.5847370554386" lon="16.336369597165874"><ele>805.0</ele><time>2026-04-27T16:40:36.999Z</time></trkpt><trkpt lat="38.58468832987029" lon="16.33621180693963"><ele>804.6666666666666</ele><time>2026-04-27T16:40:37.999Z</time></trkpt><trkpt lat="38.58464427608745" lon="16.336070324145417"><ele>804.3333333333333</ele><time>2026-04-27T16:40:38.999Z</time></trkpt><trkpt lat="38.58458766241221" lon="16.335892353693712"><ele>804.0</ele><time>2026-04-27T16:40:39.999Z</time></trkpt><trkpt lat="38.58450724356499" lon="16.335652281031944"><ele>805.3333333333333</ele><time>2026-04-27T16:40:40.999Z</time></trkpt><trkpt lat="38.58440919061569" lon="16.335470005344504"><ele>806.6666666666666</ele><time>2026-04-27T16:40:41.999Z</time></trkpt><trkpt lat="38.58425821853434" lon="16.335305076937694"><ele>808.0</ele><time>2026-04-27T16:40:42.999Z</time></trkpt><trkpt lat="38.58410460079457" lon="16.335160671163184"><ele>808.0</ele><time>2026-04-27T16:40:43.999Z</time></trkpt><trkpt lat="38.58394917386948" lon="16.33507720273249"><ele>808.0</ele><time>2026-04-27T16:40:44.999Z</time></trkpt><trkpt lat="38.58381352798875" lon="16.334912254520358"><ele>808.0</ele><time>2026-04-27T16:40:45.999Z</time></trkpt><trkpt lat="38.58366784182775" lon="16.334762847882093"><ele>807.6666666666666</ele><time>2026-04-27T16:40:46.999Z</time></trkpt><trkpt lat="38.58351717003833" lon="16.334616164315143"><ele>807.3333333333333</ele><time>2026-04-27T16:40:47.999Z</time></trkpt><trkpt lat="38.58338222271954" lon="16.3344746982255"><ele>807.0</ele><time>2026-04-27T16:40:48.999Z</time></trkpt><trkpt lat="38.58324518494668" lon="16.334341736901266"><ele>807.0</ele><time>2026-04-27T16:40:49.999Z</time></trkpt><trkpt lat="38.58310825061234" lon="16.33421990452329"><ele>807.0</ele><time>2026-04-27T16:40:50.999Z</time></trkpt><trkpt lat="38.58298082842582" lon="16.334128794766976"><ele>807.0</ele><time>2026-04-27T16:40:51.999Z</time></trkpt><trkpt lat="38.58285633422146" lon="16.33401431095648"><ele>806.5</ele><time>2026-04-27T16:40:52.999Z</time></trkpt><trkpt lat="38.582740272679885" lon="16.333906493176254"><ele>806.0</ele><time>2026-04-27T16:40:53.999Z</time></trkpt><trkpt lat="38.58262591125982" lon="16.333800254926203"><ele>805.5</ele><time>2026-04-27T16:40:54.999Z</time></trkpt><trkpt lat="38.58251018570611" lon="16.333692896504154"><ele>805.0</ele><time>2026-04-27T16:40:55.999Z</time></trkpt><trkpt lat="38.58239946218568" lon="16.333590668796123"><ele>804.5</ele><time>2026-04-27T16:40:56.999Z</time></trkpt><trkpt lat="38.58230101546952" lon="16.333499775943682"><ele>804.0</ele><time>2026-04-27T16:40:57.999Z</time></trkpt><trkpt lat="38.58220545780427" lon="16.333413547957214"><ele>803.5</ele><time>2026-04-27T16:40:58.999Z</time></trkpt><trkpt lat="38.58212076664527" lon="16.333338641225346"><ele>803.0</ele><time>2026-04-27T16:40:59.999Z</time></trkpt><trkpt lat="38.58203074135922" lon="16.33326104670253"><ele>801.5999999999999</ele><time>2026-04-27T16:41:00.999Z</time></trkpt><trkpt lat="38.58194311457481" lon="16.333188196955067"><ele>800.1999999999999</ele><time>2026-04-27T16:41:01.999Z</time></trkpt><trkpt lat="38.58184703336072" lon="16.33314061857746"><ele>798.8</ele><time>2026-04-27T16:41:02.999Z</time></trkpt><trkpt lat="38.58177332685162" lon="16.333064827737207"><ele>797.4</ele><time>2026-04-27T16:41:03.999Z</time></trkpt><trkpt lat="38.58169262060962" lon="16.333034836091105"><ele>796.0</ele><time>2026-04-27T16:41:04.999Z</time></trkpt><trkpt lat="38.581620056115575" lon="16.33297983446739"><ele>795.9999999999999</ele><time>2026-04-27T16:41:05.999Z</time></trkpt><trkpt lat="38.58154943987215" lon="16.33294277030983"><ele>796.0</ele><time>2026-04-27T16:41:06.999Z</time></trkpt><trkpt lat="38.5814824405119" lon="16.332909126759173"><ele>796.0</ele><time>2026-04-27T16:41:07.999Z</time></trkpt><trkpt lat="38.58141550518332" lon="16.33287671087664"><ele>796.0</ele><time>2026-04-27T16:41:08.999Z</time></trkpt><trkpt lat="38.581346223459285" lon="16.332850292627196"><ele>795.9999999999999</ele><time>2026-04-27T16:41:09.999Z</time></trkpt><trkpt lat="38.58127167217158" lon="16.3328284167816"><ele>796.0</ele><time>2026-04-27T16:41:10.999Z</time></trkpt><trkpt lat="38.581153161787654" lon="16.332788653868885"><ele>795.9999999999999</ele><time>2026-04-27T16:41:12.999Z</time></trkpt><trkpt lat="38.58104045946105" lon="16.332766016957923"><ele>796.0</ele><time>2026-04-27T16:41:14.999Z</time></trkpt><trkpt lat="38.580959266603536" lon="16.332745363346515"><ele>796.0</ele><time>2026-04-27T16:41:16.999Z</time></trkpt><trkpt lat="38.58088677567147" lon="16.33272646429441"><ele>796.0</ele><time>2026-04-27T16:41:20Z</time></trkpt><trkpt lat="38.58082248700512" lon="16.33272789573747"><ele>795.9999999999999</ele><time>2026-04-27T16:41:25Z</time></trkpt><trkpt lat="38.58078653050861" lon="16.332632663368653"><ele>796.0</ele><time>2026-04-27T16:41:28Z</time></trkpt><trkpt lat="38.58081351440122" lon="16.33246782830913"><ele>796.0</ele><time>2026-04-27T16:41:30Z</time></trkpt><trkpt lat="38.58082511522075" lon="16.33233580564735"><ele>796.0</ele><time>2026-04-27T16:41:31Z</time></trkpt><trkpt lat="38.58083979703646" lon="16.33221806343961"><ele>796.0</ele><time>2026-04-27T16:41:32Z</time></trkpt><trkpt lat="38.58084078796206" lon="16.33211398168888"><ele>796.0</ele><time>2026-04-27T16:41:33Z</time></trkpt><trkpt lat="38.580853946024874" lon="16.332005166476215"><ele>796.0</ele><time>2026-04-27T16:41:34Z</time></trkpt><trkpt lat="38.58085679098182" lon="16.331885964424973"><ele>796.1666666666666</ele><time>2026-04-27T16:41:35Z</time></trkpt><trkpt lat="38.58086601192631" lon="16.331769432253722"><ele>796.3333333333333</ele><time>2026-04-27T16:41:36Z</time></trkpt><trkpt lat="38.580876328393785" lon="16.33165328018113"><ele>796.5</ele><time>2026-04-27T16:41:37Z</time></trkpt><trkpt lat="38.58089020144202" lon="16.331555716102613"><ele>796.6666666666667</ele><time>2026-04-27T16:41:38Z</time></trkpt><trkpt lat="38.58089257092339" lon="16.33146582751625"><ele>796.8333333333334</ele><time>2026-04-27T16:41:39Z</time></trkpt><trkpt lat="38.580888895443934" lon="16.331383451305328"><ele>797.0</ele><time>2026-04-27T16:41:40Z</time></trkpt><trkpt lat="38.58088794075763" lon="16.331280782390284"><ele>798.0</ele><time>2026-04-27T16:41:41Z</time></trkpt><trkpt lat="38.58087971611956" lon="16.331160956768095"><ele>799.0</ele><time>2026-04-27T16:41:42Z</time></trkpt><trkpt lat="38.580867291458496" lon="16.33102894133007"><ele>800.0</ele><time>2026-04-27T16:41:43Z</time></trkpt><trkpt lat="38.5808318970969" lon="16.33088945589129"><ele>801.0</ele><time>2026-04-27T16:41:44Z</time></trkpt><trkpt lat="38.5807955695611" lon="16.330738453855762"><ele>802.0</ele><time>2026-04-27T16:41:45Z</time></trkpt><trkpt lat="38.58076692809662" lon="16.33058567637832"><ele>803.5</ele><time>2026-04-27T16:41:46Z</time></trkpt><trkpt lat="38.58073218754523" lon="16.330425473059968"><ele>805.0</ele><time>2026-04-27T16:41:47Z</time></trkpt><trkpt lat="38.580695646034314" lon="16.330275563994586"><ele>806.5</ele><time>2026-04-27T16:41:48Z</time></trkpt><trkpt lat="38.580665607529305" lon="16.330142269838458"><ele>808.0</ele><time>2026-04-27T16:41:49Z</time></trkpt><trkpt lat="38.58062803896149" lon="16.33001788816539"><ele>808.0</ele><time>2026-04-27T16:41:50Z</time></trkpt><trkpt lat="38.58059267379779" lon="16.329896248315666"><ele>808.0</ele><time>2026-04-27T16:41:51Z</time></trkpt><trkpt lat="38.58055981012944" lon="16.32976632696296"><ele>808.0</ele><time>2026-04-27T16:41:52Z</time></trkpt><trkpt lat="38.580516994891994" lon="16.329632853044053"><ele>808.0</ele><time>2026-04-27T16:41:53Z</time></trkpt><trkpt lat="38.580461395889444" lon="16.329494857132268"><ele>808.0</ele><time>2026-04-27T16:41:54Z</time></trkpt><trkpt lat="38.58040814326847" lon="16.32938054604161"><ele>809.0</ele><time>2026-04-27T16:41:55Z</time></trkpt><trkpt lat="38.580364514591366" lon="16.329301028699312"><ele>810.0</ele><time>2026-04-27T16:41:56Z</time></trkpt><trkpt lat="38.58032387308701" lon="16.329226580443233"><ele>811.0</ele><time>2026-04-27T16:41:57Z</time></trkpt><trkpt lat="38.5802634350061" lon="16.32912418951306"><ele>812.0</ele><time>2026-04-27T16:41:58Z</time></trkpt><trkpt lat="38.580196590260506" lon="16.3290016512116"><ele>813.0</ele><time>2026-04-27T16:41:59Z</time></trkpt><trkpt lat="38.58011429653143" lon="16.328878379069735"><ele>813.6666666666666</ele><time>2026-04-27T16:42:00Z</time></trkpt><trkpt lat="38.58004343129896" lon="16.328766219813016"><ele>814.3333333333333</ele><time>2026-04-27T16:42:01Z</time></trkpt><trkpt lat="38.579978732844985" lon="16.32867712933725"><ele>815.0</ele><time>2026-04-27T16:42:02Z</time></trkpt><trkpt lat="38.57992531516981" lon="16.328611869727023"><ele>815.6666666666666</ele><time>2026-04-27T16:42:03Z</time></trkpt><trkpt lat="38.57987925921741" lon="16.32851143369467"><ele>816.3333333333333</ele><time>2026-04-27T16:42:05Z</time></trkpt><trkpt lat="38.579835330887974" lon="16.32843157874149"><ele>817.0</ele><time>2026-04-27T16:42:08Z</time></trkpt><trkpt lat="38.57976066548594" lon="16.328335222764956"><ele>817.0</ele><time>2026-04-27T16:42:10.999Z</time></trkpt><trkpt lat="38.57970998403387" lon="16.328270466107917"><ele>817.0</ele><time>2026-04-27T16:42:11.999Z</time></trkpt><trkpt lat="38.57966072892631" lon="16.328210017289024"><ele>817.0</ele><time>2026-04-27T16:42:12.999Z</time></trkpt><trkpt lat="38.57958662337681" lon="16.328111734813998"><ele>817.0</ele><time>2026-04-27T16:42:14.999Z</time></trkpt><trkpt lat="38.579463151634876" lon="16.328031494978386"><ele>817.0</ele><time>2026-04-27T16:42:16.999Z</time></trkpt><trkpt lat="38.57936525568464" lon="16.327996846409917"><ele>816.8</ele><time>2026-04-27T16:42:17.999Z</time></trkpt><trkpt lat="38.579248912178386" lon="16.327981238379596"><ele>816.6</ele><time>2026-04-27T16:42:18.999Z</time></trkpt><trkpt lat="38.5791447761264" lon="16.327985788522884"><ele>816.4</ele><time>2026-04-27T16:42:19.999Z</time></trkpt><trkpt lat="38.57906485292793" lon="16.327992604758425"><ele>816.1999999999999</ele><time>2026-04-27T16:42:20.999Z</time></trkpt><trkpt lat="38.578950088255326" lon="16.328006035735655"><ele>816.0</ele><time>2026-04-27T16:42:22.999Z</time></trkpt><trkpt lat="38.578865338792326" lon="16.328020883552135"><ele>816.0</ele><time>2026-04-27T16:42:24.999Z</time></trkpt><trkpt lat="38.57876039744117" lon="16.328009182945678"><ele>816.0</ele><time>2026-04-27T16:42:27.999Z</time></trkpt><trkpt lat="38.578758292164345" lon="16.327900444856056"><ele>816.0</ele><time>2026-04-27T16:42:31.999Z</time></trkpt><trkpt lat="38.578757194091104" lon="16.327809932345527"><ele>816.0</ele><time>2026-04-27T16:42:33.999Z</time></trkpt><trkpt lat="38.57875696698235" lon="16.32770205482564"><ele>816.0</ele><time>2026-04-27T16:42:35.999Z</time></trkpt><trkpt lat="38.57875741125617" lon="16.327570126715674"><ele>816.0</ele><time>2026-04-27T16:42:37.999Z</time></trkpt><trkpt lat="38.57875777582157" lon="16.327461867051742"><ele>816.0</ele><time>2026-04-27T16:42:39.999Z</time></trkpt><trkpt lat="38.578758113861014" lon="16.327361484902756"><ele>816.0</ele><time>2026-04-27T16:42:41.999Z</time></trkpt><trkpt lat="38.57879231660854" lon="16.327240259301817"><ele>816.0</ele><time>2026-04-27T16:42:43.999Z</time></trkpt><trkpt lat="38.57875877331795" lon="16.32716565849743"><ele>816.0</ele><time>2026-04-27T16:42:44.999Z</time></trkpt><trkpt lat="38.57875973944951" lon="16.32702653004421"><ele>816.0</ele><time>2026-04-27T16:42:46.999Z</time></trkpt><trkpt lat="38.578740838419215" lon="16.326943959672818"><ele>816.0</ele><time>2026-04-27T16:42:49.999Z</time></trkpt><trkpt lat="38.578636220866834" lon="16.326880533869936"><ele>814.5999999999999</ele><time>2026-04-27T16:42:50.999Z</time></trkpt><trkpt lat="38.57854658171226" lon="16.326879203254276"><ele>813.2</ele><time>2026-04-27T16:42:51.999Z</time></trkpt><trkpt lat="38.57843470190578" lon="16.326870855688018"><ele>811.8</ele><time>2026-04-27T16:42:52.999Z</time></trkpt><trkpt lat="38.57832132778877" lon="16.326850205710777"><ele>810.4000000000001</ele><time>2026-04-27T16:42:53.999Z</time></trkpt><trkpt lat="38.57820416026254" lon="16.326826410462136"><ele>809.0</ele><time>2026-04-27T16:42:54.999Z</time></trkpt><trkpt lat="38.57809208824527" lon="16.326802174596178"><ele>809.0</ele><time>2026-04-27T16:42:55.999Z</time></trkpt><trkpt lat="38.57797645414328" lon="16.326777158315696"><ele>809.0</ele><time>2026-04-27T16:42:56.999Z</time></trkpt><trkpt lat="38.577865188770886" lon="16.32674984312574"><ele>809.0</ele><time>2026-04-27T16:42:57.999Z</time></trkpt><trkpt lat="38.57774940050912" lon="16.326745463767832"><ele>809.0</ele><time>2026-04-27T16:42:58.999Z</time></trkpt><trkpt lat="38.57763758712623" lon="16.326756642681914"><ele>807.4000000000001</ele><time>2026-04-27T16:42:59.999Z</time></trkpt><trkpt lat="38.577527076946915" lon="16.3267649939813"><ele>805.8</ele><time>2026-04-27T16:43:00.999Z</time></trkpt><trkpt lat="38.57742006336584" lon="16.32677308103948"><ele>804.2</ele><time>2026-04-27T16:43:01.999Z</time></trkpt><trkpt lat="38.57731107634685" lon="16.326798315377644"><ele>802.5999999999999</ele><time>2026-04-27T16:43:02.999Z</time></trkpt><trkpt lat="38.577213207601766" lon="16.32683928045553"><ele>801.0</ele><time>2026-04-27T16:43:03.999Z</time></trkpt><trkpt lat="38.57712772677314" lon="16.326884544656018"><ele>801.0</ele><time>2026-04-27T16:43:04.999Z</time></trkpt><trkpt lat="38.577052253907226" lon="16.326929097603326"><ele>801.0</ele><time>2026-04-27T16:43:05.999Z</time></trkpt><trkpt lat="38.57697312747653" lon="16.326978254330303"><ele>801.0</ele><time>2026-04-27T16:43:07.999Z</time></trkpt><trkpt lat="38.576883953515114" lon="16.32687009828858"><ele>801.0</ele><time>2026-04-27T16:43:11.999Z</time></trkpt><trkpt lat="38.57686731074917" lon="16.326765639005064"><ele>801.0</ele><time>2026-04-27T16:43:12.999Z</time></trkpt><trkpt lat="38.576840766779064" lon="16.32665963270697"><ele>801.0</ele><time>2026-04-27T16:43:13.999Z</time></trkpt><trkpt lat="38.57680440674815" lon="16.32655930637584"><ele>801.0</ele><time>2026-04-27T16:43:14.999Z</time></trkpt><trkpt lat="38.576771841213215" lon="16.326463384618673"><ele>801.0</ele><time>2026-04-27T16:43:15.999Z</time></trkpt><trkpt lat="38.57674472078557" lon="16.326383079603744"><ele>801.0</ele><time>2026-04-27T16:43:16.999Z</time></trkpt><trkpt lat="38.57670629039823" lon="16.326266766681407"><ele>801.0</ele><time>2026-04-27T16:43:18.999Z</time></trkpt><trkpt lat="38.57668749586423" lon="16.326168311100854"><ele>801.0</ele><time>2026-04-27T16:43:20.999Z</time></trkpt><trkpt lat="38.576715234744476" lon="16.326077056457095"><ele>801.1666666666666</ele><time>2026-04-27T16:43:22.999Z</time></trkpt><trkpt lat="38.576790456672306" lon="16.32601531958758"><ele>801.3333333333333</ele><time>2026-04-27T16:43:25Z</time></trkpt><trkpt lat="38.576875230234464" lon="16.325990192229415"><ele>801.5</ele><time>2026-04-27T16:43:27Z</time></trkpt><trkpt lat="38.5769738830645" lon="16.32595253832232"><ele>801.6666666666666</ele><time>2026-04-27T16:43:29Z</time></trkpt><trkpt lat="38.577063021919884" lon="16.325980288729802"><ele>801.8333333333333</ele><time>2026-04-27T16:43:31Z</time></trkpt><trkpt lat="38.5771320151496" lon="16.3260090588587"><ele>802.0</ele><time>2026-04-27T16:43:33Z</time></trkpt><trkpt lat="38.57708678521776" lon="16.326104404703777"><ele>802.0</ele><time>2026-04-27T16:43:34Z</time></trkpt><trkpt lat="38.57706712077123" lon="16.32602234204189"><ele>802.0</ele><time>2026-04-27T16:45:08.999Z</time></trkpt><trkpt lat="38.57701489671434" lon="16.32596980108336"><ele>804.0</ele><time>2026-04-27T16:45:16.999Z</time></trkpt><trkpt lat="38.576949556160905" lon="16.32592725341771"><ele>804.0</ele><time>2026-04-27T16:45:25.999Z</time></trkpt></trkseg></trk></gpx>